<?xml version="1.0" encoding="UTF-8"?>
<gpx version="1.1" creator="https://www.youtrack.es" xsi:schemaLocation="http://www.topografix.com/GPX/1/1 http://www.topografix.com/GPX/1/1/gpx.xsd http://www.garmin.com/xmlschemas/GpxExtensions/v3 http://www.garmin.com/xmlschemas/GpxExtensionsv3.xsd http://www.garmin.com/xmlschemas/TrackPointExtension/v1 http://www.garmin.com/xmlschemas/TrackPointExtensionv1.xsd" xmlns:gpxtpx="http://www.garmin.com/xmlschemas/TrackPointExtension/v1" xmlns:gpxx="http://www.garmin.com/xmlschemas/GpxExtensions/v3" xmlns:xsi="http://www.w3.org/2001/XMLSchema-instance">
  <metadata>
    <link href="https://www.youtrack.es">
      <text>YouTrack.es</text>
    </link>
    <time>2026-05-09T00:43:49Z</time>
  </metadata>
  <trk>
    <src>https://www.youtrack.es</src>
    <link href="https://www.youtrack.es/ruta/27603-nogueira-de-ramuin">
      <text>YouTrack.es</text>
    </link>
    <trkseg>
      <trkpt lat="42.41183" lon="-7.7272863">
        <time>2021-11-27T09:05:45Z</time>
      </trkpt>
      <trkpt lat="42.411835" lon="-7.7272887">
        <time>2021-11-27T09:05:46Z</time>
      </trkpt>
      <trkpt lat="42.411846" lon="-7.727279">
        <time>2021-11-27T09:05:47Z</time>
      </trkpt>
      <trkpt lat="42.411865" lon="-7.727291">
        <time>2021-11-27T09:05:48Z</time>
      </trkpt>
      <trkpt lat="42.41188" lon="-7.72731">
        <time>2021-11-27T09:05:49Z</time>
      </trkpt>
      <trkpt lat="42.411892" lon="-7.7273397">
        <time>2021-11-27T09:05:50Z</time>
      </trkpt>
      <trkpt lat="42.411892" lon="-7.7273793">
        <time>2021-11-27T09:05:51Z</time>
      </trkpt>
      <trkpt lat="42.411892" lon="-7.727419">
        <time>2021-11-27T09:05:52Z</time>
      </trkpt>
      <trkpt lat="42.41189" lon="-7.7274513">
        <time>2021-11-27T09:05:53Z</time>
      </trkpt>
      <trkpt lat="42.411892" lon="-7.727477">
        <time>2021-11-27T09:05:54Z</time>
      </trkpt>
      <trkpt lat="42.411896" lon="-7.727496">
        <time>2021-11-27T09:05:55Z</time>
      </trkpt>
      <trkpt lat="42.4119" lon="-7.7275147">
        <time>2021-11-27T09:05:56Z</time>
      </trkpt>
      <trkpt lat="42.411903" lon="-7.7275352">
        <time>2021-11-27T09:05:57Z</time>
      </trkpt>
      <trkpt lat="42.41191" lon="-7.7275476">
        <time>2021-11-27T09:05:58Z</time>
      </trkpt>
      <trkpt lat="42.411915" lon="-7.7275586">
        <time>2021-11-27T09:06:00Z</time>
      </trkpt>
      <trkpt lat="42.41192" lon="-7.7275686">
        <time>2021-11-27T09:06:00Z</time>
      </trkpt>
      <trkpt lat="42.41192" lon="-7.7275796">
        <time>2021-11-27T09:06:01Z</time>
      </trkpt>
      <trkpt lat="42.41192" lon="-7.7275896">
        <time>2021-11-27T09:06:02Z</time>
      </trkpt>
      <trkpt lat="42.41192" lon="-7.727602">
        <time>2021-11-27T09:06:03Z</time>
      </trkpt>
      <trkpt lat="42.411907" lon="-7.7276173">
        <time>2021-11-27T09:06:04Z</time>
      </trkpt>
      <trkpt lat="42.4119" lon="-7.7276354">
        <time>2021-11-27T09:06:05Z</time>
      </trkpt>
      <trkpt lat="42.411892" lon="-7.727651">
        <time>2021-11-27T09:06:06Z</time>
      </trkpt>
      <trkpt lat="42.411877" lon="-7.7276697">
        <time>2021-11-27T09:06:07Z</time>
      </trkpt>
      <trkpt lat="42.411865" lon="-7.72769">
        <time>2021-11-27T09:06:08Z</time>
      </trkpt>
      <trkpt lat="42.411854" lon="-7.727713">
        <time>2021-11-27T09:06:09Z</time>
      </trkpt>
      <trkpt lat="42.411846" lon="-7.7277355">
        <time>2021-11-27T09:06:10Z</time>
      </trkpt>
      <trkpt lat="42.411835" lon="-7.7277536">
        <time>2021-11-27T09:06:11Z</time>
      </trkpt>
      <trkpt lat="42.41183" lon="-7.7277694">
        <time>2021-11-27T09:06:12Z</time>
      </trkpt>
      <trkpt lat="42.411823" lon="-7.727786">
        <time>2021-11-27T09:06:13Z</time>
      </trkpt>
      <trkpt lat="42.411823" lon="-7.727802">
        <time>2021-11-27T09:06:14Z</time>
      </trkpt>
      <trkpt lat="42.41182" lon="-7.727817">
        <time>2021-11-27T09:06:15Z</time>
      </trkpt>
      <trkpt lat="42.411816" lon="-7.727829">
        <time>2021-11-27T09:06:16Z</time>
      </trkpt>
      <trkpt lat="42.411808" lon="-7.7278404">
        <time>2021-11-27T09:06:17Z</time>
      </trkpt>
      <trkpt lat="42.4118" lon="-7.7278485">
        <time>2021-11-27T09:06:18Z</time>
      </trkpt>
      <trkpt lat="42.411797" lon="-7.7278533">
        <time>2021-11-27T09:06:19Z</time>
      </trkpt>
      <trkpt lat="42.411793" lon="-7.727857">
        <time>2021-11-27T09:06:20Z</time>
      </trkpt>
      <trkpt lat="42.411797" lon="-7.7278666">
        <time>2021-11-27T09:06:21Z</time>
      </trkpt>
      <trkpt lat="42.4118" lon="-7.727879">
        <time>2021-11-27T09:06:22Z</time>
      </trkpt>
      <trkpt lat="42.4118" lon="-7.72789">
        <time>2021-11-27T09:06:23Z</time>
      </trkpt>
      <trkpt lat="42.411797" lon="-7.727898">
        <time>2021-11-27T09:06:24Z</time>
      </trkpt>
      <trkpt lat="42.41179" lon="-7.7279067">
        <time>2021-11-27T09:06:25Z</time>
      </trkpt>
      <trkpt lat="42.411777" lon="-7.7279167">
        <time>2021-11-27T09:06:26Z</time>
      </trkpt>
      <trkpt lat="42.41177" lon="-7.7279296">
        <time>2021-11-27T09:06:27Z</time>
      </trkpt>
      <trkpt lat="42.411762" lon="-7.7279425">
        <time>2021-11-27T09:06:28Z</time>
      </trkpt>
      <trkpt lat="42.41175" lon="-7.72795">
        <time>2021-11-27T09:06:29Z</time>
      </trkpt>
      <trkpt lat="42.411743" lon="-7.7279563">
        <time>2021-11-27T09:06:30Z</time>
      </trkpt>
      <trkpt lat="42.411736" lon="-7.7279634">
        <time>2021-11-27T09:06:31Z</time>
      </trkpt>
      <trkpt lat="42.411728" lon="-7.727971">
        <time>2021-11-27T09:06:32Z</time>
      </trkpt>
      <trkpt lat="42.411716" lon="-7.7279797">
        <time>2021-11-27T09:06:33Z</time>
      </trkpt>
      <trkpt lat="42.411705" lon="-7.727989">
        <time>2021-11-27T09:06:34Z</time>
      </trkpt>
      <trkpt lat="42.411694" lon="-7.7279973">
        <time>2021-11-27T09:06:35Z</time>
      </trkpt>
      <trkpt lat="42.411682" lon="-7.728006">
        <time>2021-11-27T09:06:36Z</time>
      </trkpt>
      <trkpt lat="42.41168" lon="-7.728017">
        <time>2021-11-27T09:06:37Z</time>
      </trkpt>
      <trkpt lat="42.411674" lon="-7.72803">
        <time>2021-11-27T09:06:38Z</time>
      </trkpt>
      <trkpt lat="42.411674" lon="-7.728048">
        <time>2021-11-27T09:06:39Z</time>
      </trkpt>
      <trkpt lat="42.41167" lon="-7.728066">
        <time>2021-11-27T09:06:40Z</time>
      </trkpt>
      <trkpt lat="42.411663" lon="-7.728085">
        <time>2021-11-27T09:06:41Z</time>
      </trkpt>
      <trkpt lat="42.41165" lon="-7.728108">
        <time>2021-11-27T09:06:42Z</time>
      </trkpt>
      <trkpt lat="42.411636" lon="-7.72813">
        <time>2021-11-27T09:06:43Z</time>
      </trkpt>
      <trkpt lat="42.41162" lon="-7.728151">
        <time>2021-11-27T09:06:44Z</time>
      </trkpt>
      <trkpt lat="42.411613" lon="-7.7281685">
        <time>2021-11-27T09:06:45Z</time>
      </trkpt>
      <trkpt lat="42.411606" lon="-7.7281833">
        <time>2021-11-27T09:06:46Z</time>
      </trkpt>
      <trkpt lat="42.4116" lon="-7.7281957">
        <time>2021-11-27T09:06:47Z</time>
      </trkpt>
      <trkpt lat="42.411594" lon="-7.7282104">
        <time>2021-11-27T09:06:48Z</time>
      </trkpt>
      <trkpt lat="42.41159" lon="-7.728227">
        <time>2021-11-27T09:06:49Z</time>
      </trkpt>
      <trkpt lat="42.411587" lon="-7.7282434">
        <time>2021-11-27T09:06:50Z</time>
      </trkpt>
      <trkpt lat="42.411583" lon="-7.728258">
        <time>2021-11-27T09:06:51Z</time>
      </trkpt>
      <trkpt lat="42.41158" lon="-7.728272">
        <time>2021-11-27T09:06:52Z</time>
      </trkpt>
      <trkpt lat="42.411575" lon="-7.7282834">
        <time>2021-11-27T09:06:53Z</time>
      </trkpt>
      <trkpt lat="42.411568" lon="-7.728295">
        <time>2021-11-27T09:06:54Z</time>
      </trkpt>
      <trkpt lat="42.411564" lon="-7.7283072">
        <time>2021-11-27T09:06:55Z</time>
      </trkpt>
      <trkpt lat="42.41156" lon="-7.72832">
        <time>2021-11-27T09:06:56Z</time>
      </trkpt>
      <trkpt lat="42.411552" lon="-7.728332">
        <time>2021-11-27T09:06:57Z</time>
      </trkpt>
      <trkpt lat="42.411545" lon="-7.728345">
        <time>2021-11-27T09:06:58Z</time>
      </trkpt>
      <trkpt lat="42.411537" lon="-7.7283564">
        <time>2021-11-27T09:06:59Z</time>
      </trkpt>
      <trkpt lat="42.41153" lon="-7.7283688">
        <time>2021-11-27T09:07:00Z</time>
      </trkpt>
      <trkpt lat="42.41152" lon="-7.72838">
        <time>2021-11-27T09:07:01Z</time>
      </trkpt>
      <trkpt lat="42.411503" lon="-7.72839">
        <time>2021-11-27T09:07:02Z</time>
      </trkpt>
      <trkpt lat="42.41149" lon="-7.7284">
        <time>2021-11-27T09:07:03Z</time>
      </trkpt>
      <trkpt lat="42.41148" lon="-7.72841">
        <time>2021-11-27T09:07:04Z</time>
      </trkpt>
      <trkpt lat="42.411472" lon="-7.72842">
        <time>2021-11-27T09:07:05Z</time>
      </trkpt>
      <trkpt lat="42.41146" lon="-7.7284307">
        <time>2021-11-27T09:07:06Z</time>
      </trkpt>
      <trkpt lat="42.411453" lon="-7.7284417">
        <time>2021-11-27T09:07:07Z</time>
      </trkpt>
      <trkpt lat="42.411446" lon="-7.7284517">
        <time>2021-11-27T09:07:08Z</time>
      </trkpt>
      <trkpt lat="42.411438" lon="-7.7284627">
        <time>2021-11-27T09:07:09Z</time>
      </trkpt>
      <trkpt lat="42.41143" lon="-7.728474">
        <time>2021-11-27T09:07:10Z</time>
      </trkpt>
      <trkpt lat="42.411423" lon="-7.7284865">
        <time>2021-11-27T09:07:11Z</time>
      </trkpt>
      <trkpt lat="42.411415" lon="-7.7284975">
        <time>2021-11-27T09:07:12Z</time>
      </trkpt>
      <trkpt lat="42.411404" lon="-7.728508">
        <time>2021-11-27T09:07:13Z</time>
      </trkpt>
      <trkpt lat="42.411396" lon="-7.7285156">
        <time>2021-11-27T09:07:14Z</time>
      </trkpt>
      <trkpt lat="42.411385" lon="-7.7285247">
        <time>2021-11-27T09:07:15Z</time>
      </trkpt>
      <trkpt lat="42.411373" lon="-7.728535">
        <time>2021-11-27T09:07:16Z</time>
      </trkpt>
      <trkpt lat="42.41136" lon="-7.728545">
        <time>2021-11-27T09:07:17Z</time>
      </trkpt>
      <trkpt lat="42.41135" lon="-7.728554">
        <time>2021-11-27T09:07:18Z</time>
      </trkpt>
      <trkpt lat="42.41134" lon="-7.7285604">
        <time>2021-11-27T09:07:19Z</time>
      </trkpt>
      <trkpt lat="42.411327" lon="-7.728567">
        <time>2021-11-27T09:07:20Z</time>
      </trkpt>
      <trkpt lat="42.411316" lon="-7.7285748">
        <time>2021-11-27T09:07:21Z</time>
      </trkpt>
      <trkpt lat="42.41131" lon="-7.728581">
        <time>2021-11-27T09:07:22Z</time>
      </trkpt>
      <trkpt lat="42.4113" lon="-7.728584">
        <time>2021-11-27T09:07:23Z</time>
      </trkpt>
      <trkpt lat="42.411293" lon="-7.7285805">
        <time>2021-11-27T09:07:24Z</time>
      </trkpt>
      <trkpt lat="42.411285" lon="-7.7285767">
        <time>2021-11-27T09:07:25Z</time>
      </trkpt>
      <trkpt lat="42.411278" lon="-7.7285695">
        <time>2021-11-27T09:07:26Z</time>
      </trkpt>
      <trkpt lat="42.41127" lon="-7.728565">
        <time>2021-11-27T09:07:27Z</time>
      </trkpt>
      <trkpt lat="42.411255" lon="-7.7285614">
        <time>2021-11-27T09:07:28Z</time>
      </trkpt>
      <trkpt lat="42.411247" lon="-7.7285557">
        <time>2021-11-27T09:07:29Z</time>
      </trkpt>
      <trkpt lat="42.411236" lon="-7.728547">
        <time>2021-11-27T09:07:30Z</time>
      </trkpt>
      <trkpt lat="42.41123" lon="-7.7285376">
        <time>2021-11-27T09:07:31Z</time>
      </trkpt>
      <trkpt lat="42.411217" lon="-7.7285275">
        <time>2021-11-27T09:07:32Z</time>
      </trkpt>
      <trkpt lat="42.41121" lon="-7.7285166">
        <time>2021-11-27T09:07:33Z</time>
      </trkpt>
      <trkpt lat="42.411194" lon="-7.7285075">
        <time>2021-11-27T09:07:34Z</time>
      </trkpt>
      <trkpt lat="42.411186" lon="-7.728498">
        <time>2021-11-27T09:07:35Z</time>
      </trkpt>
      <trkpt lat="42.411175" lon="-7.7284894">
        <time>2021-11-27T09:07:36Z</time>
      </trkpt>
      <trkpt lat="42.411163" lon="-7.7284856">
        <time>2021-11-27T09:07:37Z</time>
      </trkpt>
      <trkpt lat="42.411156" lon="-7.7284846">
        <time>2021-11-27T09:07:38Z</time>
      </trkpt>
      <trkpt lat="42.41114" lon="-7.728487">
        <time>2021-11-27T09:07:39Z</time>
      </trkpt>
      <trkpt lat="42.41113" lon="-7.7284923">
        <time>2021-11-27T09:07:40Z</time>
      </trkpt>
      <trkpt lat="42.411114" lon="-7.728498">
        <time>2021-11-27T09:07:41Z</time>
      </trkpt>
      <trkpt lat="42.4111" lon="-7.728505">
        <time>2021-11-27T09:07:42Z</time>
      </trkpt>
      <trkpt lat="42.411083" lon="-7.728515">
        <time>2021-11-27T09:07:43Z</time>
      </trkpt>
      <trkpt lat="42.411068" lon="-7.728526">
        <time>2021-11-27T09:07:44Z</time>
      </trkpt>
      <trkpt lat="42.411057" lon="-7.7285376">
        <time>2021-11-27T09:07:45Z</time>
      </trkpt>
      <trkpt lat="42.41104" lon="-7.728545">
        <time>2021-11-27T09:07:46Z</time>
      </trkpt>
      <trkpt lat="42.41103" lon="-7.728553">
        <time>2021-11-27T09:07:47Z</time>
      </trkpt>
      <trkpt lat="42.411015" lon="-7.7285604">
        <time>2021-11-27T09:07:48Z</time>
      </trkpt>
      <trkpt lat="42.411003" lon="-7.728567">
        <time>2021-11-27T09:07:49Z</time>
      </trkpt>
      <trkpt lat="42.41099" lon="-7.728569">
        <time>2021-11-27T09:07:50Z</time>
      </trkpt>
      <trkpt lat="42.410976" lon="-7.728569">
        <time>2021-11-27T09:07:51Z</time>
      </trkpt>
      <trkpt lat="42.410965" lon="-7.728569">
        <time>2021-11-27T09:07:52Z</time>
      </trkpt>
      <trkpt lat="42.410954" lon="-7.7285705">
        <time>2021-11-27T09:07:53Z</time>
      </trkpt>
      <trkpt lat="42.410946" lon="-7.7285695">
        <time>2021-11-27T09:07:54Z</time>
      </trkpt>
      <trkpt lat="42.410934" lon="-7.7285686">
        <time>2021-11-27T09:07:55Z</time>
      </trkpt>
      <trkpt lat="42.410927" lon="-7.728564">
        <time>2021-11-27T09:07:56Z</time>
      </trkpt>
      <trkpt lat="42.41091" lon="-7.728558">
        <time>2021-11-27T09:07:57Z</time>
      </trkpt>
      <trkpt lat="42.410904" lon="-7.728554">
        <time>2021-11-27T09:07:59Z</time>
      </trkpt>
      <trkpt lat="42.41089" lon="-7.7285504">
        <time>2021-11-27T09:07:59Z</time>
      </trkpt>
      <trkpt lat="42.410873" lon="-7.72855">
        <time>2021-11-27T09:08:00Z</time>
      </trkpt>
      <trkpt lat="42.410862" lon="-7.7285547">
        <time>2021-11-27T09:08:01Z</time>
      </trkpt>
      <trkpt lat="42.41085" lon="-7.728567">
        <time>2021-11-27T09:08:02Z</time>
      </trkpt>
      <trkpt lat="42.410835" lon="-7.728582">
        <time>2021-11-27T09:08:03Z</time>
      </trkpt>
      <trkpt lat="42.41082" lon="-7.728592">
        <time>2021-11-27T09:08:04Z</time>
      </trkpt>
      <trkpt lat="42.41081" lon="-7.728603">
        <time>2021-11-27T09:08:05Z</time>
      </trkpt>
      <trkpt lat="42.410797" lon="-7.728614">
        <time>2021-11-27T09:08:06Z</time>
      </trkpt>
      <trkpt lat="42.41079" lon="-7.728621">
        <time>2021-11-27T09:08:07Z</time>
      </trkpt>
      <trkpt lat="42.410778" lon="-7.728621">
        <time>2021-11-27T09:08:08Z</time>
      </trkpt>
      <trkpt lat="42.410767" lon="-7.7286143">
        <time>2021-11-27T09:08:09Z</time>
      </trkpt>
      <trkpt lat="42.410755" lon="-7.7286105">
        <time>2021-11-27T09:08:10Z</time>
      </trkpt>
      <trkpt lat="42.410744" lon="-7.7286086">
        <time>2021-11-27T09:08:11Z</time>
      </trkpt>
      <trkpt lat="42.410732" lon="-7.7286105">
        <time>2021-11-27T09:08:12Z</time>
      </trkpt>
      <trkpt lat="42.41072" lon="-7.728613">
        <time>2021-11-27T09:08:13Z</time>
      </trkpt>
      <trkpt lat="42.41071" lon="-7.7286177">
        <time>2021-11-27T09:08:14Z</time>
      </trkpt>
      <trkpt lat="42.4107" lon="-7.7286253">
        <time>2021-11-27T09:08:15Z</time>
      </trkpt>
      <trkpt lat="42.410694" lon="-7.728637">
        <time>2021-11-27T09:08:16Z</time>
      </trkpt>
      <trkpt lat="42.410686" lon="-7.7286515">
        <time>2021-11-27T09:08:17Z</time>
      </trkpt>
      <trkpt lat="42.410683" lon="-7.7286663">
        <time>2021-11-27T09:08:18Z</time>
      </trkpt>
      <trkpt lat="42.41068" lon="-7.728681">
        <time>2021-11-27T09:08:19Z</time>
      </trkpt>
      <trkpt lat="42.41068" lon="-7.728696">
        <time>2021-11-27T09:08:20Z</time>
      </trkpt>
      <trkpt lat="42.410675" lon="-7.728711">
        <time>2021-11-27T09:08:21Z</time>
      </trkpt>
      <trkpt lat="42.410675" lon="-7.7287283">
        <time>2021-11-27T09:08:22Z</time>
      </trkpt>
      <trkpt lat="42.41067" lon="-7.728745">
        <time>2021-11-27T09:08:23Z</time>
      </trkpt>
      <trkpt lat="42.41067" lon="-7.728761">
        <time>2021-11-27T09:08:24Z</time>
      </trkpt>
      <trkpt lat="42.41067" lon="-7.7287765">
        <time>2021-11-27T09:08:25Z</time>
      </trkpt>
      <trkpt lat="42.41067" lon="-7.728792">
        <time>2021-11-27T09:08:26Z</time>
      </trkpt>
      <trkpt lat="42.41067" lon="-7.728809">
        <time>2021-11-27T09:08:27Z</time>
      </trkpt>
      <trkpt lat="42.41067" lon="-7.728824">
        <time>2021-11-27T09:08:28Z</time>
      </trkpt>
      <trkpt lat="42.41067" lon="-7.728839">
        <time>2021-11-27T09:08:29Z</time>
      </trkpt>
      <trkpt lat="42.41067" lon="-7.7288556">
        <time>2021-11-27T09:08:30Z</time>
      </trkpt>
      <trkpt lat="42.41067" lon="-7.72887">
        <time>2021-11-27T09:08:31Z</time>
      </trkpt>
      <trkpt lat="42.410675" lon="-7.728883">
        <time>2021-11-27T09:08:32Z</time>
      </trkpt>
      <trkpt lat="42.41068" lon="-7.7288947">
        <time>2021-11-27T09:08:33Z</time>
      </trkpt>
      <trkpt lat="42.410683" lon="-7.728909">
        <time>2021-11-27T09:08:34Z</time>
      </trkpt>
      <trkpt lat="42.410683" lon="-7.728926">
        <time>2021-11-27T09:08:35Z</time>
      </trkpt>
      <trkpt lat="42.410683" lon="-7.7289453">
        <time>2021-11-27T09:08:36Z</time>
      </trkpt>
      <trkpt lat="42.41068" lon="-7.7289634">
        <time>2021-11-27T09:08:37Z</time>
      </trkpt>
      <trkpt lat="42.41068" lon="-7.728983">
        <time>2021-11-27T09:08:38Z</time>
      </trkpt>
      <trkpt lat="42.41067" lon="-7.7290025">
        <time>2021-11-27T09:08:39Z</time>
      </trkpt>
      <trkpt lat="42.410667" lon="-7.729022">
        <time>2021-11-27T09:08:40Z</time>
      </trkpt>
      <trkpt lat="42.410664" lon="-7.7290406">
        <time>2021-11-27T09:08:41Z</time>
      </trkpt>
      <trkpt lat="42.410656" lon="-7.7290606">
        <time>2021-11-27T09:08:42Z</time>
      </trkpt>
      <trkpt lat="42.410652" lon="-7.7290792">
        <time>2021-11-27T09:08:43Z</time>
      </trkpt>
      <trkpt lat="42.410645" lon="-7.7291007">
        <time>2021-11-27T09:08:44Z</time>
      </trkpt>
      <trkpt lat="42.410637" lon="-7.7291245">
        <time>2021-11-27T09:08:45Z</time>
      </trkpt>
      <trkpt lat="42.410633" lon="-7.729147">
        <time>2021-11-27T09:08:46Z</time>
      </trkpt>
      <trkpt lat="42.410633" lon="-7.729168">
        <time>2021-11-27T09:08:47Z</time>
      </trkpt>
      <trkpt lat="42.41063" lon="-7.729188">
        <time>2021-11-27T09:08:48Z</time>
      </trkpt>
      <trkpt lat="42.41063" lon="-7.7292066">
        <time>2021-11-27T09:08:49Z</time>
      </trkpt>
      <trkpt lat="42.41063" lon="-7.729226">
        <time>2021-11-27T09:08:50Z</time>
      </trkpt>
      <trkpt lat="42.410633" lon="-7.7292438">
        <time>2021-11-27T09:08:51Z</time>
      </trkpt>
      <trkpt lat="42.410633" lon="-7.7292595">
        <time>2021-11-27T09:08:52Z</time>
      </trkpt>
      <trkpt lat="42.41063" lon="-7.7292757">
        <time>2021-11-27T09:08:53Z</time>
      </trkpt>
      <trkpt lat="42.41063" lon="-7.729293">
        <time>2021-11-27T09:08:54Z</time>
      </trkpt>
      <trkpt lat="42.410625" lon="-7.7293086">
        <time>2021-11-27T09:08:55Z</time>
      </trkpt>
      <trkpt lat="42.410625" lon="-7.729325">
        <time>2021-11-27T09:08:56Z</time>
      </trkpt>
      <trkpt lat="42.41062" lon="-7.7293415">
        <time>2021-11-27T09:08:57Z</time>
      </trkpt>
      <trkpt lat="42.410618" lon="-7.7293587">
        <time>2021-11-27T09:08:58Z</time>
      </trkpt>
      <trkpt lat="42.410618" lon="-7.729376">
        <time>2021-11-27T09:08:59Z</time>
      </trkpt>
      <trkpt lat="42.410618" lon="-7.7293925">
        <time>2021-11-27T09:09:00Z</time>
      </trkpt>
      <trkpt lat="42.410618" lon="-7.729411">
        <time>2021-11-27T09:09:01Z</time>
      </trkpt>
      <trkpt lat="42.41061" lon="-7.729433">
        <time>2021-11-27T09:09:02Z</time>
      </trkpt>
      <trkpt lat="42.41061" lon="-7.7294536">
        <time>2021-11-27T09:09:03Z</time>
      </trkpt>
      <trkpt lat="42.410606" lon="-7.7294745">
        <time>2021-11-27T09:09:04Z</time>
      </trkpt>
      <trkpt lat="42.410603" lon="-7.7294936">
        <time>2021-11-27T09:09:05Z</time>
      </trkpt>
      <trkpt lat="42.410603" lon="-7.729513">
        <time>2021-11-27T09:09:06Z</time>
      </trkpt>
      <trkpt lat="42.4106" lon="-7.7295322">
        <time>2021-11-27T09:09:07Z</time>
      </trkpt>
      <trkpt lat="42.410595" lon="-7.72955">
        <time>2021-11-27T09:09:08Z</time>
      </trkpt>
      <trkpt lat="42.410595" lon="-7.729568">
        <time>2021-11-27T09:09:09Z</time>
      </trkpt>
      <trkpt lat="42.41059" lon="-7.729587">
        <time>2021-11-27T09:09:10Z</time>
      </trkpt>
      <trkpt lat="42.410587" lon="-7.7296076">
        <time>2021-11-27T09:09:11Z</time>
      </trkpt>
      <trkpt lat="42.41058" lon="-7.7296286">
        <time>2021-11-27T09:09:12Z</time>
      </trkpt>
      <trkpt lat="42.41058" lon="-7.729651">
        <time>2021-11-27T09:09:13Z</time>
      </trkpt>
      <trkpt lat="42.410572" lon="-7.7296753">
        <time>2021-11-27T09:09:14Z</time>
      </trkpt>
      <trkpt lat="42.41057" lon="-7.7297006">
        <time>2021-11-27T09:09:15Z</time>
      </trkpt>
      <trkpt lat="42.410564" lon="-7.729725">
        <time>2021-11-27T09:09:16Z</time>
      </trkpt>
      <trkpt lat="42.41056" lon="-7.7297497">
        <time>2021-11-27T09:09:17Z</time>
      </trkpt>
      <trkpt lat="42.410557" lon="-7.7297726">
        <time>2021-11-27T09:09:18Z</time>
      </trkpt>
      <trkpt lat="42.410553" lon="-7.729794">
        <time>2021-11-27T09:09:19Z</time>
      </trkpt>
      <trkpt lat="42.41055" lon="-7.7298145">
        <time>2021-11-27T09:09:20Z</time>
      </trkpt>
      <trkpt lat="42.410545" lon="-7.729836">
        <time>2021-11-27T09:09:21Z</time>
      </trkpt>
      <trkpt lat="42.41054" lon="-7.7298565">
        <time>2021-11-27T09:09:22Z</time>
      </trkpt>
      <trkpt lat="42.410538" lon="-7.7298765">
        <time>2021-11-27T09:09:23Z</time>
      </trkpt>
      <trkpt lat="42.410534" lon="-7.7298965">
        <time>2021-11-27T09:09:24Z</time>
      </trkpt>
      <trkpt lat="42.41053" lon="-7.729914">
        <time>2021-11-27T09:09:25Z</time>
      </trkpt>
      <trkpt lat="42.410526" lon="-7.7299333">
        <time>2021-11-27T09:09:26Z</time>
      </trkpt>
      <trkpt lat="42.41052" lon="-7.7299533">
        <time>2021-11-27T09:09:27Z</time>
      </trkpt>
      <trkpt lat="42.41051" lon="-7.7299724">
        <time>2021-11-27T09:09:28Z</time>
      </trkpt>
      <trkpt lat="42.410507" lon="-7.729991">
        <time>2021-11-27T09:09:29Z</time>
      </trkpt>
      <trkpt lat="42.410507" lon="-7.730008">
        <time>2021-11-27T09:09:30Z</time>
      </trkpt>
      <trkpt lat="42.410503" lon="-7.730026">
        <time>2021-11-27T09:09:31Z</time>
      </trkpt>
      <trkpt lat="42.4105" lon="-7.730045">
        <time>2021-11-27T09:09:32Z</time>
      </trkpt>
      <trkpt lat="42.4105" lon="-7.730065">
        <time>2021-11-27T09:09:33Z</time>
      </trkpt>
      <trkpt lat="42.4105" lon="-7.7300844">
        <time>2021-11-27T09:09:34Z</time>
      </trkpt>
      <trkpt lat="42.4105" lon="-7.730101">
        <time>2021-11-27T09:09:35Z</time>
      </trkpt>
      <trkpt lat="42.4105" lon="-7.7301154">
        <time>2021-11-27T09:09:36Z</time>
      </trkpt>
      <trkpt lat="42.4105" lon="-7.7301316">
        <time>2021-11-27T09:09:37Z</time>
      </trkpt>
      <trkpt lat="42.4105" lon="-7.730151">
        <time>2021-11-27T09:09:38Z</time>
      </trkpt>
      <trkpt lat="42.4105" lon="-7.7301707">
        <time>2021-11-27T09:09:39Z</time>
      </trkpt>
      <trkpt lat="42.410496" lon="-7.730192">
        <time>2021-11-27T09:09:40Z</time>
      </trkpt>
      <trkpt lat="42.410492" lon="-7.7302113">
        <time>2021-11-27T09:09:41Z</time>
      </trkpt>
      <trkpt lat="42.410492" lon="-7.7302303">
        <time>2021-11-27T09:09:42Z</time>
      </trkpt>
      <trkpt lat="42.410484" lon="-7.7302494">
        <time>2021-11-27T09:09:43Z</time>
      </trkpt>
      <trkpt lat="42.410477" lon="-7.730267">
        <time>2021-11-27T09:09:44Z</time>
      </trkpt>
      <trkpt lat="42.41047" lon="-7.7302823">
        <time>2021-11-27T09:09:45Z</time>
      </trkpt>
      <trkpt lat="42.410465" lon="-7.730295">
        <time>2021-11-27T09:09:46Z</time>
      </trkpt>
      <trkpt lat="42.41046" lon="-7.730308">
        <time>2021-11-27T09:09:47Z</time>
      </trkpt>
      <trkpt lat="42.410458" lon="-7.730324">
        <time>2021-11-27T09:09:48Z</time>
      </trkpt>
      <trkpt lat="42.410454" lon="-7.730344">
        <time>2021-11-27T09:09:49Z</time>
      </trkpt>
      <trkpt lat="42.410454" lon="-7.730363">
        <time>2021-11-27T09:09:49Z</time>
      </trkpt>
      <trkpt lat="42.41045" lon="-7.730384">
        <time>2021-11-27T09:09:50Z</time>
      </trkpt>
      <trkpt lat="42.410446" lon="-7.7304077">
        <time>2021-11-27T09:09:51Z</time>
      </trkpt>
      <trkpt lat="42.410446" lon="-7.7304325">
        <time>2021-11-27T09:09:52Z</time>
      </trkpt>
      <trkpt lat="42.410446" lon="-7.7304544">
        <time>2021-11-27T09:09:53Z</time>
      </trkpt>
      <trkpt lat="42.41044" lon="-7.730475">
        <time>2021-11-27T09:09:54Z</time>
      </trkpt>
      <trkpt lat="42.41044" lon="-7.7304955">
        <time>2021-11-27T09:09:55Z</time>
      </trkpt>
      <trkpt lat="42.41044" lon="-7.73051">
        <time>2021-11-27T09:09:56Z</time>
      </trkpt>
      <trkpt lat="42.41044" lon="-7.73052">
        <time>2021-11-27T09:09:58Z</time>
      </trkpt>
      <trkpt lat="42.41044" lon="-7.730528">
        <time>2021-11-27T09:09:58Z</time>
      </trkpt>
      <trkpt lat="42.41044" lon="-7.7305365">
        <time>2021-11-27T09:09:59Z</time>
      </trkpt>
      <trkpt lat="42.410435" lon="-7.730542">
        <time>2021-11-27T09:10:00Z</time>
      </trkpt>
      <trkpt lat="42.410435" lon="-7.7305512">
        <time>2021-11-27T09:10:01Z</time>
      </trkpt>
      <trkpt lat="42.41043" lon="-7.730561">
        <time>2021-11-27T09:10:02Z</time>
      </trkpt>
      <trkpt lat="42.41043" lon="-7.730574">
        <time>2021-11-27T09:10:03Z</time>
      </trkpt>
      <trkpt lat="42.410423" lon="-7.73059">
        <time>2021-11-27T09:10:04Z</time>
      </trkpt>
      <trkpt lat="42.410423" lon="-7.7306085">
        <time>2021-11-27T09:10:05Z</time>
      </trkpt>
      <trkpt lat="42.41042" lon="-7.7306285">
        <time>2021-11-27T09:10:06Z</time>
      </trkpt>
      <trkpt lat="42.410423" lon="-7.7306457">
        <time>2021-11-27T09:10:07Z</time>
      </trkpt>
      <trkpt lat="42.410427" lon="-7.7306623">
        <time>2021-11-27T09:10:08Z</time>
      </trkpt>
      <trkpt lat="42.410435" lon="-7.7306776">
        <time>2021-11-27T09:10:09Z</time>
      </trkpt>
      <trkpt lat="42.410442" lon="-7.730692">
        <time>2021-11-27T09:10:10Z</time>
      </trkpt>
      <trkpt lat="42.41045" lon="-7.7307034">
        <time>2021-11-27T09:10:11Z</time>
      </trkpt>
      <trkpt lat="42.410458" lon="-7.7307186">
        <time>2021-11-27T09:10:12Z</time>
      </trkpt>
      <trkpt lat="42.41046" lon="-7.7307367">
        <time>2021-11-27T09:10:13Z</time>
      </trkpt>
      <trkpt lat="42.410465" lon="-7.730757">
        <time>2021-11-27T09:10:14Z</time>
      </trkpt>
      <trkpt lat="42.41047" lon="-7.7307763">
        <time>2021-11-27T09:10:15Z</time>
      </trkpt>
      <trkpt lat="42.41047" lon="-7.7307963">
        <time>2021-11-27T09:10:16Z</time>
      </trkpt>
      <trkpt lat="42.41047" lon="-7.730815">
        <time>2021-11-27T09:10:17Z</time>
      </trkpt>
      <trkpt lat="42.41047" lon="-7.7308345">
        <time>2021-11-27T09:10:18Z</time>
      </trkpt>
      <trkpt lat="42.410473" lon="-7.7308526">
        <time>2021-11-27T09:10:19Z</time>
      </trkpt>
      <trkpt lat="42.410477" lon="-7.730871">
        <time>2021-11-27T09:10:20Z</time>
      </trkpt>
      <trkpt lat="42.410477" lon="-7.7308917">
        <time>2021-11-27T09:10:21Z</time>
      </trkpt>
      <trkpt lat="42.41048" lon="-7.7309127">
        <time>2021-11-27T09:10:22Z</time>
      </trkpt>
      <trkpt lat="42.410484" lon="-7.7309318">
        <time>2021-11-27T09:10:23Z</time>
      </trkpt>
      <trkpt lat="42.410484" lon="-7.730952">
        <time>2021-11-27T09:10:24Z</time>
      </trkpt>
      <trkpt lat="42.410484" lon="-7.730974">
        <time>2021-11-27T09:10:25Z</time>
      </trkpt>
      <trkpt lat="42.41049" lon="-7.730997">
        <time>2021-11-27T09:10:26Z</time>
      </trkpt>
      <trkpt lat="42.41049" lon="-7.731025">
        <time>2021-11-27T09:10:27Z</time>
      </trkpt>
      <trkpt lat="42.410484" lon="-7.731052">
        <time>2021-11-27T09:10:28Z</time>
      </trkpt>
      <trkpt lat="42.410484" lon="-7.7310777">
        <time>2021-11-27T09:10:29Z</time>
      </trkpt>
      <trkpt lat="42.410484" lon="-7.7311034">
        <time>2021-11-27T09:10:30Z</time>
      </trkpt>
      <trkpt lat="42.41048" lon="-7.731128">
        <time>2021-11-27T09:10:31Z</time>
      </trkpt>
      <trkpt lat="42.410484" lon="-7.7311487">
        <time>2021-11-27T09:10:32Z</time>
      </trkpt>
      <trkpt lat="42.410484" lon="-7.7311673">
        <time>2021-11-27T09:10:33Z</time>
      </trkpt>
      <trkpt lat="42.410484" lon="-7.731186">
        <time>2021-11-27T09:10:34Z</time>
      </trkpt>
      <trkpt lat="42.410484" lon="-7.731206">
        <time>2021-11-27T09:10:35Z</time>
      </trkpt>
      <trkpt lat="42.410484" lon="-7.731229">
        <time>2021-11-27T09:10:36Z</time>
      </trkpt>
      <trkpt lat="42.410484" lon="-7.731251">
        <time>2021-11-27T09:10:37Z</time>
      </trkpt>
      <trkpt lat="42.41049" lon="-7.731272">
        <time>2021-11-27T09:10:38Z</time>
      </trkpt>
      <trkpt lat="42.410492" lon="-7.7312927">
        <time>2021-11-27T09:10:39Z</time>
      </trkpt>
      <trkpt lat="42.4105" lon="-7.7313137">
        <time>2021-11-27T09:10:40Z</time>
      </trkpt>
      <trkpt lat="42.410503" lon="-7.7313323">
        <time>2021-11-27T09:10:41Z</time>
      </trkpt>
      <trkpt lat="42.410507" lon="-7.7313523">
        <time>2021-11-27T09:10:42Z</time>
      </trkpt>
      <trkpt lat="42.410515" lon="-7.7313704">
        <time>2021-11-27T09:10:43Z</time>
      </trkpt>
      <trkpt lat="42.410522" lon="-7.7313886">
        <time>2021-11-27T09:10:44Z</time>
      </trkpt>
      <trkpt lat="42.410526" lon="-7.731407">
        <time>2021-11-27T09:10:45Z</time>
      </trkpt>
      <trkpt lat="42.41053" lon="-7.7314234">
        <time>2021-11-27T09:10:46Z</time>
      </trkpt>
      <trkpt lat="42.410538" lon="-7.7314396">
        <time>2021-11-27T09:10:47Z</time>
      </trkpt>
      <trkpt lat="42.41055" lon="-7.731456">
        <time>2021-11-27T09:10:48Z</time>
      </trkpt>
      <trkpt lat="42.410557" lon="-7.7314754">
        <time>2021-11-27T09:10:49Z</time>
      </trkpt>
      <trkpt lat="42.410564" lon="-7.7314944">
        <time>2021-11-27T09:10:50Z</time>
      </trkpt>
      <trkpt lat="42.41057" lon="-7.7315145">
        <time>2021-11-27T09:10:51Z</time>
      </trkpt>
      <trkpt lat="42.410572" lon="-7.731535">
        <time>2021-11-27T09:10:52Z</time>
      </trkpt>
      <trkpt lat="42.410576" lon="-7.7315564">
        <time>2021-11-27T09:10:53Z</time>
      </trkpt>
      <trkpt lat="42.41058" lon="-7.7315774">
        <time>2021-11-27T09:10:54Z</time>
      </trkpt>
      <trkpt lat="42.410587" lon="-7.731598">
        <time>2021-11-27T09:10:55Z</time>
      </trkpt>
      <trkpt lat="42.41059" lon="-7.7316184">
        <time>2021-11-27T09:10:56Z</time>
      </trkpt>
      <trkpt lat="42.410595" lon="-7.7316346">
        <time>2021-11-27T09:11:02Z</time>
      </trkpt>
      <trkpt lat="42.410606" lon="-7.7316484">
        <time>2021-11-27T09:11:02Z</time>
      </trkpt>
      <trkpt lat="42.410618" lon="-7.7316628">
        <time>2021-11-27T09:11:02Z</time>
      </trkpt>
      <trkpt lat="42.410625" lon="-7.731678">
        <time>2021-11-27T09:11:02Z</time>
      </trkpt>
      <trkpt lat="42.410637" lon="-7.7316933">
        <time>2021-11-27T09:11:02Z</time>
      </trkpt>
      <trkpt lat="42.410645" lon="-7.731708">
        <time>2021-11-27T09:11:02Z</time>
      </trkpt>
      <trkpt lat="42.41065" lon="-7.7317195">
        <time>2021-11-27T09:11:03Z</time>
      </trkpt>
      <trkpt lat="42.41065" lon="-7.731734">
        <time>2021-11-27T09:11:04Z</time>
      </trkpt>
      <trkpt lat="42.41064" lon="-7.7317467">
        <time>2021-11-27T09:11:05Z</time>
      </trkpt>
      <trkpt lat="42.410633" lon="-7.7317567">
        <time>2021-11-27T09:11:06Z</time>
      </trkpt>
      <trkpt lat="42.410625" lon="-7.7317634">
        <time>2021-11-27T09:11:07Z</time>
      </trkpt>
      <trkpt lat="42.410614" lon="-7.731767">
        <time>2021-11-27T09:11:08Z</time>
      </trkpt>
      <trkpt lat="42.410603" lon="-7.731768">
        <time>2021-11-27T09:11:09Z</time>
      </trkpt>
      <trkpt lat="42.41059" lon="-7.731768">
        <time>2021-11-27T09:11:10Z</time>
      </trkpt>
      <trkpt lat="42.41058" lon="-7.731771">
        <time>2021-11-27T09:11:11Z</time>
      </trkpt>
      <trkpt lat="42.410572" lon="-7.731777">
        <time>2021-11-27T09:11:12Z</time>
      </trkpt>
      <trkpt lat="42.41056" lon="-7.731782">
        <time>2021-11-27T09:11:13Z</time>
      </trkpt>
      <trkpt lat="42.410545" lon="-7.731784">
        <time>2021-11-27T09:11:14Z</time>
      </trkpt>
      <trkpt lat="42.410534" lon="-7.731785">
        <time>2021-11-27T09:11:15Z</time>
      </trkpt>
      <trkpt lat="42.410522" lon="-7.7317863">
        <time>2021-11-27T09:11:16Z</time>
      </trkpt>
      <trkpt lat="42.410507" lon="-7.7317877">
        <time>2021-11-27T09:11:17Z</time>
      </trkpt>
      <trkpt lat="42.410492" lon="-7.731788">
        <time>2021-11-27T09:11:18Z</time>
      </trkpt>
      <trkpt lat="42.410484" lon="-7.7317886">
        <time>2021-11-27T09:11:19Z</time>
      </trkpt>
      <trkpt lat="42.410473" lon="-7.7317877">
        <time>2021-11-27T09:11:20Z</time>
      </trkpt>
      <trkpt lat="42.41046" lon="-7.731785">
        <time>2021-11-27T09:11:21Z</time>
      </trkpt>
      <trkpt lat="42.410454" lon="-7.731782">
        <time>2021-11-27T09:11:22Z</time>
      </trkpt>
      <trkpt lat="42.41044" lon="-7.73178">
        <time>2021-11-27T09:11:23Z</time>
      </trkpt>
      <trkpt lat="42.410427" lon="-7.731778">
        <time>2021-11-27T09:11:24Z</time>
      </trkpt>
      <trkpt lat="42.41041" lon="-7.7317753">
        <time>2021-11-27T09:11:25Z</time>
      </trkpt>
      <trkpt lat="42.410393" lon="-7.731772">
        <time>2021-11-27T09:11:26Z</time>
      </trkpt>
      <trkpt lat="42.410374" lon="-7.73177">
        <time>2021-11-27T09:11:27Z</time>
      </trkpt>
      <trkpt lat="42.41036" lon="-7.731768">
        <time>2021-11-27T09:11:28Z</time>
      </trkpt>
      <trkpt lat="42.410343" lon="-7.731764">
        <time>2021-11-27T09:11:29Z</time>
      </trkpt>
      <trkpt lat="42.410328" lon="-7.7317615">
        <time>2021-11-27T09:11:30Z</time>
      </trkpt>
      <trkpt lat="42.410313" lon="-7.7317605">
        <time>2021-11-27T09:11:31Z</time>
      </trkpt>
      <trkpt lat="42.4103" lon="-7.7317586">
        <time>2021-11-27T09:11:32Z</time>
      </trkpt>
      <trkpt lat="42.41029" lon="-7.731758">
        <time>2021-11-27T09:11:33Z</time>
      </trkpt>
      <trkpt lat="42.410275" lon="-7.731756">
        <time>2021-11-27T09:11:34Z</time>
      </trkpt>
      <trkpt lat="42.41026" lon="-7.7317557">
        <time>2021-11-27T09:11:35Z</time>
      </trkpt>
      <trkpt lat="42.410248" lon="-7.731755">
        <time>2021-11-27T09:11:36Z</time>
      </trkpt>
      <trkpt lat="42.410236" lon="-7.7317543">
        <time>2021-11-27T09:11:37Z</time>
      </trkpt>
      <trkpt lat="42.410217" lon="-7.7317543">
        <time>2021-11-27T09:11:38Z</time>
      </trkpt>
      <trkpt lat="42.410202" lon="-7.731755">
        <time>2021-11-27T09:11:39Z</time>
      </trkpt>
      <trkpt lat="42.41019" lon="-7.731755">
        <time>2021-11-27T09:11:40Z</time>
      </trkpt>
      <trkpt lat="42.410175" lon="-7.7317543">
        <time>2021-11-27T09:11:41Z</time>
      </trkpt>
      <trkpt lat="42.41016" lon="-7.7317524">
        <time>2021-11-27T09:11:42Z</time>
      </trkpt>
      <trkpt lat="42.41015" lon="-7.7317495">
        <time>2021-11-27T09:11:43Z</time>
      </trkpt>
      <trkpt lat="42.410137" lon="-7.731747">
        <time>2021-11-27T09:11:44Z</time>
      </trkpt>
      <trkpt lat="42.410126" lon="-7.7317457">
        <time>2021-11-27T09:11:45Z</time>
      </trkpt>
      <trkpt lat="42.41011" lon="-7.7317452">
        <time>2021-11-27T09:11:46Z</time>
      </trkpt>
      <trkpt lat="42.410095" lon="-7.7317433">
        <time>2021-11-27T09:11:47Z</time>
      </trkpt>
      <trkpt lat="42.41008" lon="-7.7317414">
        <time>2021-11-27T09:11:48Z</time>
      </trkpt>
      <trkpt lat="42.41007" lon="-7.731741">
        <time>2021-11-27T09:11:49Z</time>
      </trkpt>
      <trkpt lat="42.410053" lon="-7.731739">
        <time>2021-11-27T09:11:50Z</time>
      </trkpt>
      <trkpt lat="42.41004" lon="-7.731736">
        <time>2021-11-27T09:11:51Z</time>
      </trkpt>
      <trkpt lat="42.410027" lon="-7.731732">
        <time>2021-11-27T09:11:52Z</time>
      </trkpt>
      <trkpt lat="42.41001" lon="-7.731726">
        <time>2021-11-27T09:11:53Z</time>
      </trkpt>
      <trkpt lat="42.409996" lon="-7.731721">
        <time>2021-11-27T09:11:54Z</time>
      </trkpt>
      <trkpt lat="42.40998" lon="-7.7317166">
        <time>2021-11-27T09:11:55Z</time>
      </trkpt>
      <trkpt lat="42.40997" lon="-7.731712">
        <time>2021-11-27T09:11:56Z</time>
      </trkpt>
      <trkpt lat="42.409954" lon="-7.731708">
        <time>2021-11-27T09:11:57Z</time>
      </trkpt>
      <trkpt lat="42.409946" lon="-7.731705">
        <time>2021-11-27T09:11:58Z</time>
      </trkpt>
      <trkpt lat="42.40993" lon="-7.731702">
        <time>2021-11-27T09:11:59Z</time>
      </trkpt>
      <trkpt lat="42.409924" lon="-7.731699">
        <time>2021-11-27T09:12:00Z</time>
      </trkpt>
      <trkpt lat="42.40991" lon="-7.7316966">
        <time>2021-11-27T09:12:01Z</time>
      </trkpt>
      <trkpt lat="42.409893" lon="-7.731696">
        <time>2021-11-27T09:12:02Z</time>
      </trkpt>
      <trkpt lat="42.40988" lon="-7.731695">
        <time>2021-11-27T09:12:03Z</time>
      </trkpt>
      <trkpt lat="42.409866" lon="-7.731696">
        <time>2021-11-27T09:12:04Z</time>
      </trkpt>
      <trkpt lat="42.409855" lon="-7.7316966">
        <time>2021-11-27T09:12:05Z</time>
      </trkpt>
      <trkpt lat="42.40984" lon="-7.7316985">
        <time>2021-11-27T09:12:06Z</time>
      </trkpt>
      <trkpt lat="42.40983" lon="-7.731702">
        <time>2021-11-27T09:12:07Z</time>
      </trkpt>
      <trkpt lat="42.409817" lon="-7.731709">
        <time>2021-11-27T09:12:08Z</time>
      </trkpt>
      <trkpt lat="42.4098" lon="-7.731719">
        <time>2021-11-27T09:12:09Z</time>
      </trkpt>
      <trkpt lat="42.409794" lon="-7.7317295">
        <time>2021-11-27T09:12:10Z</time>
      </trkpt>
      <trkpt lat="42.409786" lon="-7.7317395">
        <time>2021-11-27T09:12:11Z</time>
      </trkpt>
      <trkpt lat="42.409775" lon="-7.731749">
        <time>2021-11-27T09:12:12Z</time>
      </trkpt>
      <trkpt lat="42.409767" lon="-7.731758">
        <time>2021-11-27T09:12:13Z</time>
      </trkpt>
      <trkpt lat="42.40976" lon="-7.7317677">
        <time>2021-11-27T09:12:14Z</time>
      </trkpt>
      <trkpt lat="42.40975" lon="-7.731778">
        <time>2021-11-27T09:12:15Z</time>
      </trkpt>
      <trkpt lat="42.409744" lon="-7.731788">
        <time>2021-11-27T09:12:16Z</time>
      </trkpt>
      <trkpt lat="42.409733" lon="-7.7317977">
        <time>2021-11-27T09:12:17Z</time>
      </trkpt>
      <trkpt lat="42.409725" lon="-7.731809">
        <time>2021-11-27T09:12:18Z</time>
      </trkpt>
      <trkpt lat="42.409714" lon="-7.7318215">
        <time>2021-11-27T09:12:19Z</time>
      </trkpt>
      <trkpt lat="42.409706" lon="-7.731837">
        <time>2021-11-27T09:12:20Z</time>
      </trkpt>
      <trkpt lat="42.4097" lon="-7.7318535">
        <time>2021-11-27T09:12:21Z</time>
      </trkpt>
      <trkpt lat="42.40969" lon="-7.73187">
        <time>2021-11-27T09:12:22Z</time>
      </trkpt>
      <trkpt lat="42.409683" lon="-7.731885">
        <time>2021-11-27T09:12:23Z</time>
      </trkpt>
      <trkpt lat="42.409676" lon="-7.731899">
        <time>2021-11-27T09:12:24Z</time>
      </trkpt>
      <trkpt lat="42.409668" lon="-7.7319117">
        <time>2021-11-27T09:12:25Z</time>
      </trkpt>
      <trkpt lat="42.40966" lon="-7.731926">
        <time>2021-11-27T09:12:26Z</time>
      </trkpt>
      <trkpt lat="42.40965" lon="-7.7319417">
        <time>2021-11-27T09:12:27Z</time>
      </trkpt>
      <trkpt lat="42.40964" lon="-7.7319584">
        <time>2021-11-27T09:12:28Z</time>
      </trkpt>
      <trkpt lat="42.409634" lon="-7.731975">
        <time>2021-11-27T09:12:29Z</time>
      </trkpt>
      <trkpt lat="42.409626" lon="-7.731991">
        <time>2021-11-27T09:12:30Z</time>
      </trkpt>
      <trkpt lat="42.409622" lon="-7.732005">
        <time>2021-11-27T09:12:31Z</time>
      </trkpt>
      <trkpt lat="42.409615" lon="-7.7320194">
        <time>2021-11-27T09:12:32Z</time>
      </trkpt>
      <trkpt lat="42.409607" lon="-7.732032">
        <time>2021-11-27T09:12:33Z</time>
      </trkpt>
      <trkpt lat="42.4096" lon="-7.7320457">
        <time>2021-11-27T09:12:34Z</time>
      </trkpt>
      <trkpt lat="42.40959" lon="-7.732057">
        <time>2021-11-27T09:12:35Z</time>
      </trkpt>
      <trkpt lat="42.409584" lon="-7.73207">
        <time>2021-11-27T09:12:36Z</time>
      </trkpt>
      <trkpt lat="42.409573" lon="-7.732084">
        <time>2021-11-27T09:12:37Z</time>
      </trkpt>
      <trkpt lat="42.409565" lon="-7.732097">
        <time>2021-11-27T09:12:38Z</time>
      </trkpt>
      <trkpt lat="42.409557" lon="-7.7321105">
        <time>2021-11-27T09:12:39Z</time>
      </trkpt>
      <trkpt lat="42.40955" lon="-7.732125">
        <time>2021-11-27T09:12:40Z</time>
      </trkpt>
      <trkpt lat="42.409542" lon="-7.7321367">
        <time>2021-11-27T09:12:41Z</time>
      </trkpt>
      <trkpt lat="42.409534" lon="-7.7321515">
        <time>2021-11-27T09:12:42Z</time>
      </trkpt>
      <trkpt lat="42.409523" lon="-7.7321672">
        <time>2021-11-27T09:12:43Z</time>
      </trkpt>
      <trkpt lat="42.409515" lon="-7.7321835">
        <time>2021-11-27T09:12:44Z</time>
      </trkpt>
      <trkpt lat="42.40951" lon="-7.7322016">
        <time>2021-11-27T09:12:45Z</time>
      </trkpt>
      <trkpt lat="42.409504" lon="-7.7322183">
        <time>2021-11-27T09:12:46Z</time>
      </trkpt>
      <trkpt lat="42.409496" lon="-7.732235">
        <time>2021-11-27T09:12:47Z</time>
      </trkpt>
      <trkpt lat="42.40949" lon="-7.7322507">
        <time>2021-11-27T09:12:48Z</time>
      </trkpt>
      <trkpt lat="42.40948" lon="-7.7322655">
        <time>2021-11-27T09:12:49Z</time>
      </trkpt>
      <trkpt lat="42.40947" lon="-7.7322817">
        <time>2021-11-27T09:12:50Z</time>
      </trkpt>
      <trkpt lat="42.40946" lon="-7.7322984">
        <time>2021-11-27T09:12:51Z</time>
      </trkpt>
      <trkpt lat="42.40945" lon="-7.732313">
        <time>2021-11-27T09:12:52Z</time>
      </trkpt>
      <trkpt lat="42.409443" lon="-7.7323256">
        <time>2021-11-27T09:12:53Z</time>
      </trkpt>
      <trkpt lat="42.40943" lon="-7.7323365">
        <time>2021-11-27T09:12:54Z</time>
      </trkpt>
      <trkpt lat="42.40942" lon="-7.732344">
        <time>2021-11-27T09:12:55Z</time>
      </trkpt>
      <trkpt lat="42.40941" lon="-7.732346">
        <time>2021-11-27T09:12:56Z</time>
      </trkpt>
      <trkpt lat="42.40939" lon="-7.732353">
        <time>2021-11-27T09:12:58Z</time>
      </trkpt>
      <trkpt lat="42.409374" lon="-7.7323627">
        <time>2021-11-27T09:12:58Z</time>
      </trkpt>
      <trkpt lat="42.409355" lon="-7.732373">
        <time>2021-11-27T09:12:59Z</time>
      </trkpt>
      <trkpt lat="42.40934" lon="-7.732381">
        <time>2021-11-27T09:13:00Z</time>
      </trkpt>
      <trkpt lat="42.409325" lon="-7.732386">
        <time>2021-11-27T09:13:01Z</time>
      </trkpt>
      <trkpt lat="42.40931" lon="-7.732389">
        <time>2021-11-27T09:13:02Z</time>
      </trkpt>
      <trkpt lat="42.409294" lon="-7.732391">
        <time>2021-11-27T09:13:03Z</time>
      </trkpt>
      <trkpt lat="42.409283" lon="-7.7323937">
        <time>2021-11-27T09:13:04Z</time>
      </trkpt>
      <trkpt lat="42.40927" lon="-7.7323976">
        <time>2021-11-27T09:13:05Z</time>
      </trkpt>
      <trkpt lat="42.409256" lon="-7.732402">
        <time>2021-11-27T09:13:06Z</time>
      </trkpt>
      <trkpt lat="42.409245" lon="-7.7324085">
        <time>2021-11-27T09:13:07Z</time>
      </trkpt>
      <trkpt lat="42.409233" lon="-7.732415">
        <time>2021-11-27T09:13:08Z</time>
      </trkpt>
      <trkpt lat="42.409218" lon="-7.7324224">
        <time>2021-11-27T09:13:09Z</time>
      </trkpt>
      <trkpt lat="42.409203" lon="-7.732429">
        <time>2021-11-27T09:13:10Z</time>
      </trkpt>
      <trkpt lat="42.40919" lon="-7.732434">
        <time>2021-11-27T09:13:11Z</time>
      </trkpt>
      <trkpt lat="42.409176" lon="-7.732439">
        <time>2021-11-27T09:13:12Z</time>
      </trkpt>
      <trkpt lat="42.409164" lon="-7.7324443">
        <time>2021-11-27T09:13:13Z</time>
      </trkpt>
      <trkpt lat="42.409153" lon="-7.732451">
        <time>2021-11-27T09:13:14Z</time>
      </trkpt>
      <trkpt lat="42.409138" lon="-7.7324576">
        <time>2021-11-27T09:13:15Z</time>
      </trkpt>
      <trkpt lat="42.409126" lon="-7.7324595">
        <time>2021-11-27T09:13:16Z</time>
      </trkpt>
      <trkpt lat="42.40912" lon="-7.732459">
        <time>2021-11-27T09:13:17Z</time>
      </trkpt>
      <trkpt lat="42.409107" lon="-7.732459">
        <time>2021-11-27T09:13:18Z</time>
      </trkpt>
      <trkpt lat="42.4091" lon="-7.732459">
        <time>2021-11-27T09:13:19Z</time>
      </trkpt>
      <trkpt lat="42.409092" lon="-7.732459">
        <time>2021-11-27T09:13:20Z</time>
      </trkpt>
      <trkpt lat="42.409084" lon="-7.73246">
        <time>2021-11-27T09:13:21Z</time>
      </trkpt>
      <trkpt lat="42.409077" lon="-7.732465">
        <time>2021-11-27T09:13:22Z</time>
      </trkpt>
      <trkpt lat="42.40907" lon="-7.732471">
        <time>2021-11-27T09:13:23Z</time>
      </trkpt>
      <trkpt lat="42.409058" lon="-7.7324786">
        <time>2021-11-27T09:13:24Z</time>
      </trkpt>
      <trkpt lat="42.409046" lon="-7.732486">
        <time>2021-11-27T09:13:25Z</time>
      </trkpt>
      <trkpt lat="42.40903" lon="-7.732494">
        <time>2021-11-27T09:13:26Z</time>
      </trkpt>
      <trkpt lat="42.40902" lon="-7.732504">
        <time>2021-11-27T09:13:27Z</time>
      </trkpt>
      <trkpt lat="42.409016" lon="-7.732512">
        <time>2021-11-27T09:13:28Z</time>
      </trkpt>
      <trkpt lat="42.40901" lon="-7.73252">
        <time>2021-11-27T09:13:29Z</time>
      </trkpt>
      <trkpt lat="42.409004" lon="-7.7325287">
        <time>2021-11-27T09:13:30Z</time>
      </trkpt>
      <trkpt lat="42.408997" lon="-7.7325325">
        <time>2021-11-27T09:13:31Z</time>
      </trkpt>
      <trkpt lat="42.408985" lon="-7.7325363">
        <time>2021-11-27T09:13:32Z</time>
      </trkpt>
      <trkpt lat="42.408974" lon="-7.732537">
        <time>2021-11-27T09:13:33Z</time>
      </trkpt>
      <trkpt lat="42.408962" lon="-7.732535">
        <time>2021-11-27T09:13:34Z</time>
      </trkpt>
      <trkpt lat="42.40895" lon="-7.732531">
        <time>2021-11-27T09:13:35Z</time>
      </trkpt>
      <trkpt lat="42.408936" lon="-7.7325253">
        <time>2021-11-27T09:13:36Z</time>
      </trkpt>
      <trkpt lat="42.408928" lon="-7.7325215">
        <time>2021-11-27T09:13:37Z</time>
      </trkpt>
      <trkpt lat="42.408916" lon="-7.732521">
        <time>2021-11-27T09:13:38Z</time>
      </trkpt>
      <trkpt lat="42.408905" lon="-7.7325215">
        <time>2021-11-27T09:13:39Z</time>
      </trkpt>
      <trkpt lat="42.408894" lon="-7.732525">
        <time>2021-11-27T09:13:40Z</time>
      </trkpt>
      <trkpt lat="42.408882" lon="-7.7325287">
        <time>2021-11-27T09:13:41Z</time>
      </trkpt>
      <trkpt lat="42.408875" lon="-7.732531">
        <time>2021-11-27T09:13:42Z</time>
      </trkpt>
      <trkpt lat="42.408867" lon="-7.732533">
        <time>2021-11-27T09:13:43Z</time>
      </trkpt>
      <trkpt lat="42.408855" lon="-7.732535">
        <time>2021-11-27T09:13:44Z</time>
      </trkpt>
      <trkpt lat="42.408844" lon="-7.732535">
        <time>2021-11-27T09:13:45Z</time>
      </trkpt>
      <trkpt lat="42.408833" lon="-7.7325344">
        <time>2021-11-27T09:13:46Z</time>
      </trkpt>
      <trkpt lat="42.40882" lon="-7.732532">
        <time>2021-11-27T09:13:47Z</time>
      </trkpt>
      <trkpt lat="42.40881" lon="-7.732529">
        <time>2021-11-27T09:13:48Z</time>
      </trkpt>
      <trkpt lat="42.408794" lon="-7.7325263">
        <time>2021-11-27T09:13:49Z</time>
      </trkpt>
      <trkpt lat="42.40878" lon="-7.732525">
        <time>2021-11-27T09:13:50Z</time>
      </trkpt>
      <trkpt lat="42.408768" lon="-7.7325234">
        <time>2021-11-27T09:13:51Z</time>
      </trkpt>
      <trkpt lat="42.408752" lon="-7.732521">
        <time>2021-11-27T09:13:52Z</time>
      </trkpt>
      <trkpt lat="42.408737" lon="-7.7325177">
        <time>2021-11-27T09:13:53Z</time>
      </trkpt>
      <trkpt lat="42.408722" lon="-7.7325144">
        <time>2021-11-27T09:13:54Z</time>
      </trkpt>
      <trkpt lat="42.40871" lon="-7.7325096">
        <time>2021-11-27T09:13:55Z</time>
      </trkpt>
      <trkpt lat="42.408695" lon="-7.732505">
        <time>2021-11-27T09:13:56Z</time>
      </trkpt>
      <trkpt lat="42.408684" lon="-7.7325006">
        <time>2021-11-27T09:13:57Z</time>
      </trkpt>
      <trkpt lat="42.408672" lon="-7.732496">
        <time>2021-11-27T09:13:58Z</time>
      </trkpt>
      <trkpt lat="42.40866" lon="-7.7324915">
        <time>2021-11-27T09:13:59Z</time>
      </trkpt>
      <trkpt lat="42.40865" lon="-7.7324862">
        <time>2021-11-27T09:14:00Z</time>
      </trkpt>
      <trkpt lat="42.408634" lon="-7.7324824">
        <time>2021-11-27T09:14:01Z</time>
      </trkpt>
      <trkpt lat="42.408623" lon="-7.73248">
        <time>2021-11-27T09:14:02Z</time>
      </trkpt>
      <trkpt lat="42.40861" lon="-7.732482">
        <time>2021-11-27T09:14:03Z</time>
      </trkpt>
      <trkpt lat="42.4086" lon="-7.732484">
        <time>2021-11-27T09:14:04Z</time>
      </trkpt>
      <trkpt lat="42.408592" lon="-7.732484">
        <time>2021-11-27T09:14:04Z</time>
      </trkpt>
      <trkpt lat="42.40858" lon="-7.7324843">
        <time>2021-11-27T09:14:05Z</time>
      </trkpt>
      <trkpt lat="42.40857" lon="-7.732484">
        <time>2021-11-27T09:14:06Z</time>
      </trkpt>
      <trkpt lat="42.408558" lon="-7.7324843">
        <time>2021-11-27T09:14:07Z</time>
      </trkpt>
      <trkpt lat="42.408546" lon="-7.732486">
        <time>2021-11-27T09:14:08Z</time>
      </trkpt>
      <trkpt lat="42.408535" lon="-7.732489">
        <time>2021-11-27T09:14:09Z</time>
      </trkpt>
      <trkpt lat="42.408527" lon="-7.7324915">
        <time>2021-11-27T09:14:10Z</time>
      </trkpt>
      <trkpt lat="42.40852" lon="-7.7324953">
        <time>2021-11-27T09:14:11Z</time>
      </trkpt>
      <trkpt lat="42.40851" lon="-7.732499">
        <time>2021-11-27T09:14:12Z</time>
      </trkpt>
      <trkpt lat="42.4085" lon="-7.7325">
        <time>2021-11-27T09:14:13Z</time>
      </trkpt>
      <trkpt lat="42.408493" lon="-7.7325">
        <time>2021-11-27T09:14:14Z</time>
      </trkpt>
      <trkpt lat="42.40848" lon="-7.732499">
        <time>2021-11-27T09:14:15Z</time>
      </trkpt>
      <trkpt lat="42.40847" lon="-7.7325006">
        <time>2021-11-27T09:14:16Z</time>
      </trkpt>
      <trkpt lat="42.40846" lon="-7.7325044">
        <time>2021-11-27T09:14:17Z</time>
      </trkpt>
      <trkpt lat="42.408447" lon="-7.7325087">
        <time>2021-11-27T09:14:18Z</time>
      </trkpt>
      <trkpt lat="42.408436" lon="-7.732514">
        <time>2021-11-27T09:14:19Z</time>
      </trkpt>
      <trkpt lat="42.408424" lon="-7.7325215">
        <time>2021-11-27T09:14:20Z</time>
      </trkpt>
      <trkpt lat="42.408413" lon="-7.7325306">
        <time>2021-11-27T09:14:21Z</time>
      </trkpt>
      <trkpt lat="42.408405" lon="-7.73254">
        <time>2021-11-27T09:14:22Z</time>
      </trkpt>
      <trkpt lat="42.40839" lon="-7.7325487">
        <time>2021-11-27T09:14:23Z</time>
      </trkpt>
      <trkpt lat="42.408382" lon="-7.7325544">
        <time>2021-11-27T09:14:24Z</time>
      </trkpt>
      <trkpt lat="42.40837" lon="-7.7325583">
        <time>2021-11-27T09:14:25Z</time>
      </trkpt>
      <trkpt lat="42.40836" lon="-7.732563">
        <time>2021-11-27T09:14:26Z</time>
      </trkpt>
      <trkpt lat="42.408348" lon="-7.7325683">
        <time>2021-11-27T09:14:27Z</time>
      </trkpt>
      <trkpt lat="42.408337" lon="-7.732574">
        <time>2021-11-27T09:14:28Z</time>
      </trkpt>
      <trkpt lat="42.408325" lon="-7.7325788">
        <time>2021-11-27T09:14:29Z</time>
      </trkpt>
      <trkpt lat="42.408314" lon="-7.732585">
        <time>2021-11-27T09:14:30Z</time>
      </trkpt>
      <trkpt lat="42.4083" lon="-7.732591">
        <time>2021-11-27T09:14:31Z</time>
      </trkpt>
      <trkpt lat="42.408287" lon="-7.732598">
        <time>2021-11-27T09:14:32Z</time>
      </trkpt>
      <trkpt lat="42.408276" lon="-7.7326035">
        <time>2021-11-27T09:14:33Z</time>
      </trkpt>
      <trkpt lat="42.40826" lon="-7.7326093">
        <time>2021-11-27T09:14:34Z</time>
      </trkpt>
      <trkpt lat="42.40825" lon="-7.7326164">
        <time>2021-11-27T09:14:35Z</time>
      </trkpt>
      <trkpt lat="42.408234" lon="-7.7326236">
        <time>2021-11-27T09:14:36Z</time>
      </trkpt>
      <trkpt lat="42.408222" lon="-7.7326293">
        <time>2021-11-27T09:14:37Z</time>
      </trkpt>
      <trkpt lat="42.40821" lon="-7.732634">
        <time>2021-11-27T09:14:38Z</time>
      </trkpt>
      <trkpt lat="42.4082" lon="-7.732639">
        <time>2021-11-27T09:14:39Z</time>
      </trkpt>
      <trkpt lat="42.408188" lon="-7.732643">
        <time>2021-11-27T09:14:40Z</time>
      </trkpt>
      <trkpt lat="42.408173" lon="-7.732648">
        <time>2021-11-27T09:14:41Z</time>
      </trkpt>
      <trkpt lat="42.408157" lon="-7.7326565">
        <time>2021-11-27T09:14:42Z</time>
      </trkpt>
      <trkpt lat="42.40815" lon="-7.732668">
        <time>2021-11-27T09:14:43Z</time>
      </trkpt>
      <trkpt lat="42.40814" lon="-7.732681">
        <time>2021-11-27T09:14:44Z</time>
      </trkpt>
      <trkpt lat="42.408127" lon="-7.732693">
        <time>2021-11-27T09:14:45Z</time>
      </trkpt>
      <trkpt lat="42.408115" lon="-7.7327027">
        <time>2021-11-27T09:14:46Z</time>
      </trkpt>
      <trkpt lat="42.408104" lon="-7.7327127">
        <time>2021-11-27T09:14:47Z</time>
      </trkpt>
      <trkpt lat="42.408096" lon="-7.732721">
        <time>2021-11-27T09:14:48Z</time>
      </trkpt>
      <trkpt lat="42.40808" lon="-7.732729">
        <time>2021-11-27T09:14:49Z</time>
      </trkpt>
      <trkpt lat="42.408073" lon="-7.732735">
        <time>2021-11-27T09:14:50Z</time>
      </trkpt>
      <trkpt lat="42.40806" lon="-7.7327414">
        <time>2021-11-27T09:14:51Z</time>
      </trkpt>
      <trkpt lat="42.40805" lon="-7.732746">
        <time>2021-11-27T09:14:52Z</time>
      </trkpt>
      <trkpt lat="42.408035" lon="-7.7327533">
        <time>2021-11-27T09:14:53Z</time>
      </trkpt>
      <trkpt lat="42.408024" lon="-7.7327585">
        <time>2021-11-27T09:14:54Z</time>
      </trkpt>
      <trkpt lat="42.408012" lon="-7.7327657">
        <time>2021-11-27T09:14:55Z</time>
      </trkpt>
      <trkpt lat="42.408" lon="-7.7327733">
        <time>2021-11-27T09:14:56Z</time>
      </trkpt>
      <trkpt lat="42.40799" lon="-7.7327814">
        <time>2021-11-27T09:14:57Z</time>
      </trkpt>
      <trkpt lat="42.407978" lon="-7.732793">
        <time>2021-11-27T09:14:58Z</time>
      </trkpt>
      <trkpt lat="42.407967" lon="-7.7328076">
        <time>2021-11-27T09:14:59Z</time>
      </trkpt>
      <trkpt lat="42.407955" lon="-7.7328224">
        <time>2021-11-27T09:15:00Z</time>
      </trkpt>
      <trkpt lat="42.407948" lon="-7.7328324">
        <time>2021-11-27T09:15:01Z</time>
      </trkpt>
      <trkpt lat="42.407932" lon="-7.7328405">
        <time>2021-11-27T09:15:02Z</time>
      </trkpt>
      <trkpt lat="42.40792" lon="-7.732847">
        <time>2021-11-27T09:15:03Z</time>
      </trkpt>
      <trkpt lat="42.40791" lon="-7.732855">
        <time>2021-11-27T09:15:04Z</time>
      </trkpt>
      <trkpt lat="42.407898" lon="-7.732864">
        <time>2021-11-27T09:15:05Z</time>
      </trkpt>
      <trkpt lat="42.407887" lon="-7.7328734">
        <time>2021-11-27T09:15:06Z</time>
      </trkpt>
      <trkpt lat="42.40788" lon="-7.732885">
        <time>2021-11-27T09:15:07Z</time>
      </trkpt>
      <trkpt lat="42.40787" lon="-7.7328954">
        <time>2021-11-27T09:15:08Z</time>
      </trkpt>
      <trkpt lat="42.407864" lon="-7.7329035">
        <time>2021-11-27T09:15:09Z</time>
      </trkpt>
      <trkpt lat="42.407856" lon="-7.7329116">
        <time>2021-11-27T09:15:10Z</time>
      </trkpt>
      <trkpt lat="42.40785" lon="-7.732919">
        <time>2021-11-27T09:15:11Z</time>
      </trkpt>
      <trkpt lat="42.407837" lon="-7.732927">
        <time>2021-11-27T09:15:12Z</time>
      </trkpt>
      <trkpt lat="42.40783" lon="-7.7329364">
        <time>2021-11-27T09:15:13Z</time>
      </trkpt>
      <trkpt lat="42.407818" lon="-7.732948">
        <time>2021-11-27T09:15:14Z</time>
      </trkpt>
      <trkpt lat="42.407806" lon="-7.7329593">
        <time>2021-11-27T09:15:15Z</time>
      </trkpt>
      <trkpt lat="42.40779" lon="-7.732972">
        <time>2021-11-27T09:15:16Z</time>
      </trkpt>
      <trkpt lat="42.407784" lon="-7.7329855">
        <time>2021-11-27T09:15:17Z</time>
      </trkpt>
      <trkpt lat="42.40777" lon="-7.733">
        <time>2021-11-27T09:15:18Z</time>
      </trkpt>
      <trkpt lat="42.40776" lon="-7.733013">
        <time>2021-11-27T09:15:19Z</time>
      </trkpt>
      <trkpt lat="42.40775" lon="-7.733027">
        <time>2021-11-27T09:15:20Z</time>
      </trkpt>
      <trkpt lat="42.407738" lon="-7.733041">
        <time>2021-11-27T09:15:21Z</time>
      </trkpt>
      <trkpt lat="42.40773" lon="-7.7330527">
        <time>2021-11-27T09:15:22Z</time>
      </trkpt>
      <trkpt lat="42.407715" lon="-7.733066">
        <time>2021-11-27T09:15:23Z</time>
      </trkpt>
      <trkpt lat="42.407707" lon="-7.733079">
        <time>2021-11-27T09:15:24Z</time>
      </trkpt>
      <trkpt lat="42.407696" lon="-7.733092">
        <time>2021-11-27T09:15:25Z</time>
      </trkpt>
      <trkpt lat="42.407684" lon="-7.733106">
        <time>2021-11-27T09:15:26Z</time>
      </trkpt>
      <trkpt lat="42.40767" lon="-7.733125">
        <time>2021-11-27T09:15:27Z</time>
      </trkpt>
      <trkpt lat="42.407658" lon="-7.733143">
        <time>2021-11-27T09:15:28Z</time>
      </trkpt>
      <trkpt lat="42.407642" lon="-7.7331605">
        <time>2021-11-27T09:15:29Z</time>
      </trkpt>
      <trkpt lat="42.40763" lon="-7.7331743">
        <time>2021-11-27T09:15:30Z</time>
      </trkpt>
      <trkpt lat="42.40762" lon="-7.7331886">
        <time>2021-11-27T09:15:31Z</time>
      </trkpt>
      <trkpt lat="42.407608" lon="-7.7332015">
        <time>2021-11-27T09:15:32Z</time>
      </trkpt>
      <trkpt lat="42.4076" lon="-7.733212">
        <time>2021-11-27T09:15:33Z</time>
      </trkpt>
      <trkpt lat="42.40759" lon="-7.7332225">
        <time>2021-11-27T09:15:34Z</time>
      </trkpt>
      <trkpt lat="42.40758" lon="-7.7332344">
        <time>2021-11-27T09:15:35Z</time>
      </trkpt>
      <trkpt lat="42.407574" lon="-7.733248">
        <time>2021-11-27T09:15:36Z</time>
      </trkpt>
      <trkpt lat="42.407566" lon="-7.7332635">
        <time>2021-11-27T09:15:37Z</time>
      </trkpt>
      <trkpt lat="42.40756" lon="-7.73328">
        <time>2021-11-27T09:15:38Z</time>
      </trkpt>
      <trkpt lat="42.40755" lon="-7.733299">
        <time>2021-11-27T09:15:39Z</time>
      </trkpt>
      <trkpt lat="42.407543" lon="-7.733318">
        <time>2021-11-27T09:15:40Z</time>
      </trkpt>
      <trkpt lat="42.40754" lon="-7.733337">
        <time>2021-11-27T09:15:41Z</time>
      </trkpt>
      <trkpt lat="42.407536" lon="-7.733353">
        <time>2021-11-27T09:15:42Z</time>
      </trkpt>
      <trkpt lat="42.407536" lon="-7.7333684">
        <time>2021-11-27T09:15:43Z</time>
      </trkpt>
      <trkpt lat="42.407536" lon="-7.7333803">
        <time>2021-11-27T09:15:44Z</time>
      </trkpt>
      <trkpt lat="42.40754" lon="-7.733392">
        <time>2021-11-27T09:15:45Z</time>
      </trkpt>
      <trkpt lat="42.407543" lon="-7.733404">
        <time>2021-11-27T09:15:46Z</time>
      </trkpt>
      <trkpt lat="42.407543" lon="-7.7334185">
        <time>2021-11-27T09:15:47Z</time>
      </trkpt>
      <trkpt lat="42.407547" lon="-7.733433">
        <time>2021-11-27T09:15:48Z</time>
      </trkpt>
      <trkpt lat="42.407543" lon="-7.733447">
        <time>2021-11-27T09:15:49Z</time>
      </trkpt>
      <trkpt lat="42.407543" lon="-7.733459">
        <time>2021-11-27T09:15:50Z</time>
      </trkpt>
      <trkpt lat="42.40754" lon="-7.733471">
        <time>2021-11-27T09:15:51Z</time>
      </trkpt>
      <trkpt lat="42.40753" lon="-7.7334833">
        <time>2021-11-27T09:15:52Z</time>
      </trkpt>
      <trkpt lat="42.407528" lon="-7.733496">
        <time>2021-11-27T09:15:53Z</time>
      </trkpt>
      <trkpt lat="42.40752" lon="-7.7335076">
        <time>2021-11-27T09:15:54Z</time>
      </trkpt>
      <trkpt lat="42.407513" lon="-7.7335186">
        <time>2021-11-27T09:15:55Z</time>
      </trkpt>
      <trkpt lat="42.407505" lon="-7.7335296">
        <time>2021-11-27T09:15:57Z</time>
      </trkpt>
      <trkpt lat="42.4075" lon="-7.73354">
        <time>2021-11-27T09:15:57Z</time>
      </trkpt>
      <trkpt lat="42.407497" lon="-7.73355">
        <time>2021-11-27T09:15:58Z</time>
      </trkpt>
      <trkpt lat="42.407497" lon="-7.733561">
        <time>2021-11-27T09:15:59Z</time>
      </trkpt>
      <trkpt lat="42.407497" lon="-7.733574">
        <time>2021-11-27T09:16:00Z</time>
      </trkpt>
      <trkpt lat="42.407497" lon="-7.733586">
        <time>2021-11-27T09:16:01Z</time>
      </trkpt>
      <trkpt lat="42.407497" lon="-7.7336006">
        <time>2021-11-27T09:16:02Z</time>
      </trkpt>
      <trkpt lat="42.407494" lon="-7.733616">
        <time>2021-11-27T09:16:03Z</time>
      </trkpt>
      <trkpt lat="42.407494" lon="-7.73363">
        <time>2021-11-27T09:16:04Z</time>
      </trkpt>
      <trkpt lat="42.40749" lon="-7.7336454">
        <time>2021-11-27T09:16:05Z</time>
      </trkpt>
      <trkpt lat="42.407486" lon="-7.73366">
        <time>2021-11-27T09:16:06Z</time>
      </trkpt>
      <trkpt lat="42.407482" lon="-7.733674">
        <time>2021-11-27T09:16:07Z</time>
      </trkpt>
      <trkpt lat="42.407475" lon="-7.7336884">
        <time>2021-11-27T09:16:08Z</time>
      </trkpt>
      <trkpt lat="42.40747" lon="-7.733701">
        <time>2021-11-27T09:16:09Z</time>
      </trkpt>
      <trkpt lat="42.407463" lon="-7.7337146">
        <time>2021-11-27T09:16:10Z</time>
      </trkpt>
      <trkpt lat="42.40746" lon="-7.7337313">
        <time>2021-11-27T09:16:11Z</time>
      </trkpt>
      <trkpt lat="42.407455" lon="-7.7337465">
        <time>2021-11-27T09:16:12Z</time>
      </trkpt>
      <trkpt lat="42.407448" lon="-7.7337594">
        <time>2021-11-27T09:16:13Z</time>
      </trkpt>
      <trkpt lat="42.40744" lon="-7.7337713">
        <time>2021-11-27T09:16:14Z</time>
      </trkpt>
      <trkpt lat="42.407433" lon="-7.7337856">
        <time>2021-11-27T09:16:15Z</time>
      </trkpt>
      <trkpt lat="42.407425" lon="-7.7338004">
        <time>2021-11-27T09:16:16Z</time>
      </trkpt>
      <trkpt lat="42.407417" lon="-7.7338157">
        <time>2021-11-27T09:16:17Z</time>
      </trkpt>
      <trkpt lat="42.40741" lon="-7.733831">
        <time>2021-11-27T09:16:18Z</time>
      </trkpt>
      <trkpt lat="42.407402" lon="-7.733847">
        <time>2021-11-27T09:16:19Z</time>
      </trkpt>
      <trkpt lat="42.407394" lon="-7.733864">
        <time>2021-11-27T09:16:20Z</time>
      </trkpt>
      <trkpt lat="42.407387" lon="-7.7338796">
        <time>2021-11-27T09:16:21Z</time>
      </trkpt>
      <trkpt lat="42.40738" lon="-7.7338943">
        <time>2021-11-27T09:16:22Z</time>
      </trkpt>
      <trkpt lat="42.40737" lon="-7.7339077">
        <time>2021-11-27T09:16:23Z</time>
      </trkpt>
      <trkpt lat="42.407364" lon="-7.7339206">
        <time>2021-11-27T09:16:24Z</time>
      </trkpt>
      <trkpt lat="42.407356" lon="-7.7339334">
        <time>2021-11-27T09:16:25Z</time>
      </trkpt>
      <trkpt lat="42.407352" lon="-7.733947">
        <time>2021-11-27T09:16:26Z</time>
      </trkpt>
      <trkpt lat="42.407345" lon="-7.73396">
        <time>2021-11-27T09:16:27Z</time>
      </trkpt>
      <trkpt lat="42.40734" lon="-7.733975">
        <time>2021-11-27T09:16:28Z</time>
      </trkpt>
      <trkpt lat="42.407333" lon="-7.7339916">
        <time>2021-11-27T09:16:29Z</time>
      </trkpt>
      <trkpt lat="42.407326" lon="-7.7340064">
        <time>2021-11-27T09:16:30Z</time>
      </trkpt>
      <trkpt lat="42.40732" lon="-7.7340207">
        <time>2021-11-27T09:16:31Z</time>
      </trkpt>
      <trkpt lat="42.407314" lon="-7.734033">
        <time>2021-11-27T09:16:32Z</time>
      </trkpt>
      <trkpt lat="42.40731" lon="-7.734046">
        <time>2021-11-27T09:16:33Z</time>
      </trkpt>
      <trkpt lat="42.407307" lon="-7.734061">
        <time>2021-11-27T09:16:34Z</time>
      </trkpt>
      <trkpt lat="42.407303" lon="-7.734077">
        <time>2021-11-27T09:16:35Z</time>
      </trkpt>
      <trkpt lat="42.407295" lon="-7.7340937">
        <time>2021-11-27T09:16:36Z</time>
      </trkpt>
      <trkpt lat="42.407288" lon="-7.734108">
        <time>2021-11-27T09:16:37Z</time>
      </trkpt>
      <trkpt lat="42.40728" lon="-7.734122">
        <time>2021-11-27T09:16:38Z</time>
      </trkpt>
      <trkpt lat="42.407272" lon="-7.734134">
        <time>2021-11-27T09:16:39Z</time>
      </trkpt>
      <trkpt lat="42.407265" lon="-7.734147">
        <time>2021-11-27T09:16:40Z</time>
      </trkpt>
      <trkpt lat="42.407257" lon="-7.7341623">
        <time>2021-11-27T09:16:41Z</time>
      </trkpt>
      <trkpt lat="42.40725" lon="-7.73418">
        <time>2021-11-27T09:16:42Z</time>
      </trkpt>
      <trkpt lat="42.407246" lon="-7.734195">
        <time>2021-11-27T09:16:43Z</time>
      </trkpt>
      <trkpt lat="42.407238" lon="-7.7342105">
        <time>2021-11-27T09:16:44Z</time>
      </trkpt>
      <trkpt lat="42.40723" lon="-7.734224">
        <time>2021-11-27T09:16:45Z</time>
      </trkpt>
      <trkpt lat="42.407223" lon="-7.7342353">
        <time>2021-11-27T09:16:46Z</time>
      </trkpt>
      <trkpt lat="42.407215" lon="-7.7342463">
        <time>2021-11-27T09:16:47Z</time>
      </trkpt>
      <trkpt lat="42.407207" lon="-7.734256">
        <time>2021-11-27T09:16:48Z</time>
      </trkpt>
      <trkpt lat="42.4072" lon="-7.7342644">
        <time>2021-11-27T09:16:49Z</time>
      </trkpt>
      <trkpt lat="42.40719" lon="-7.734272">
        <time>2021-11-27T09:16:50Z</time>
      </trkpt>
      <trkpt lat="42.407177" lon="-7.734279">
        <time>2021-11-27T09:16:51Z</time>
      </trkpt>
      <trkpt lat="42.40716" lon="-7.7342854">
        <time>2021-11-27T09:16:52Z</time>
      </trkpt>
      <trkpt lat="42.407146" lon="-7.734291">
        <time>2021-11-27T09:16:53Z</time>
      </trkpt>
      <trkpt lat="42.407135" lon="-7.734297">
        <time>2021-11-27T09:16:54Z</time>
      </trkpt>
      <trkpt lat="42.407124" lon="-7.7343025">
        <time>2021-11-27T09:16:55Z</time>
      </trkpt>
      <trkpt lat="42.40711" lon="-7.734308">
        <time>2021-11-27T09:16:56Z</time>
      </trkpt>
      <trkpt lat="42.407097" lon="-7.7343106">
        <time>2021-11-27T09:16:57Z</time>
      </trkpt>
      <trkpt lat="42.407085" lon="-7.7343125">
        <time>2021-11-27T09:16:58Z</time>
      </trkpt>
      <trkpt lat="42.407074" lon="-7.7343144">
        <time>2021-11-27T09:16:59Z</time>
      </trkpt>
      <trkpt lat="42.40706" lon="-7.734317">
        <time>2021-11-27T09:17:00Z</time>
      </trkpt>
      <trkpt lat="42.40705" lon="-7.73432">
        <time>2021-11-27T09:17:01Z</time>
      </trkpt>
      <trkpt lat="42.407036" lon="-7.734325">
        <time>2021-11-27T09:17:02Z</time>
      </trkpt>
      <trkpt lat="42.40703" lon="-7.7343316">
        <time>2021-11-27T09:17:03Z</time>
      </trkpt>
      <trkpt lat="42.407013" lon="-7.7343388">
        <time>2021-11-27T09:17:04Z</time>
      </trkpt>
      <trkpt lat="42.407005" lon="-7.7343464">
        <time>2021-11-27T09:17:05Z</time>
      </trkpt>
      <trkpt lat="42.40699" lon="-7.734353">
        <time>2021-11-27T09:17:06Z</time>
      </trkpt>
      <trkpt lat="42.40698" lon="-7.7343593">
        <time>2021-11-27T09:17:07Z</time>
      </trkpt>
      <trkpt lat="42.406967" lon="-7.7343655">
        <time>2021-11-27T09:17:08Z</time>
      </trkpt>
      <trkpt lat="42.406956" lon="-7.734371">
        <time>2021-11-27T09:17:09Z</time>
      </trkpt>
      <trkpt lat="42.406944" lon="-7.734379">
        <time>2021-11-27T09:17:10Z</time>
      </trkpt>
      <trkpt lat="42.406937" lon="-7.7343874">
        <time>2021-11-27T09:17:11Z</time>
      </trkpt>
      <trkpt lat="42.406925" lon="-7.734395">
        <time>2021-11-27T09:17:12Z</time>
      </trkpt>
      <trkpt lat="42.406914" lon="-7.7344007">
        <time>2021-11-27T09:17:13Z</time>
      </trkpt>
      <trkpt lat="42.406906" lon="-7.7344036">
        <time>2021-11-27T09:17:14Z</time>
      </trkpt>
      <trkpt lat="42.40689" lon="-7.7344046">
        <time>2021-11-27T09:17:15Z</time>
      </trkpt>
      <trkpt lat="42.40688" lon="-7.734406">
        <time>2021-11-27T09:17:16Z</time>
      </trkpt>
      <trkpt lat="42.406864" lon="-7.734407">
        <time>2021-11-27T09:17:17Z</time>
      </trkpt>
      <trkpt lat="42.40685" lon="-7.73441">
        <time>2021-11-27T09:17:18Z</time>
      </trkpt>
      <trkpt lat="42.406834" lon="-7.734412">
        <time>2021-11-27T09:17:19Z</time>
      </trkpt>
      <trkpt lat="42.40682" lon="-7.7344193">
        <time>2021-11-27T09:17:20Z</time>
      </trkpt>
      <trkpt lat="42.406803" lon="-7.734428">
        <time>2021-11-27T09:17:21Z</time>
      </trkpt>
      <trkpt lat="42.40679" lon="-7.734439">
        <time>2021-11-27T09:17:22Z</time>
      </trkpt>
      <trkpt lat="42.40678" lon="-7.734448">
        <time>2021-11-27T09:17:23Z</time>
      </trkpt>
      <trkpt lat="42.406765" lon="-7.734457">
        <time>2021-11-27T09:17:24Z</time>
      </trkpt>
      <trkpt lat="42.406754" lon="-7.734465">
        <time>2021-11-27T09:17:25Z</time>
      </trkpt>
      <trkpt lat="42.406742" lon="-7.7344737">
        <time>2021-11-27T09:17:26Z</time>
      </trkpt>
      <trkpt lat="42.40673" lon="-7.734482">
        <time>2021-11-27T09:17:27Z</time>
      </trkpt>
      <trkpt lat="42.40672" lon="-7.7344904">
        <time>2021-11-27T09:17:28Z</time>
      </trkpt>
      <trkpt lat="42.406708" lon="-7.7344985">
        <time>2021-11-27T09:17:29Z</time>
      </trkpt>
      <trkpt lat="42.406693" lon="-7.734506">
        <time>2021-11-27T09:17:30Z</time>
      </trkpt>
      <trkpt lat="42.40668" lon="-7.7345147">
        <time>2021-11-27T09:17:31Z</time>
      </trkpt>
      <trkpt lat="42.40667" lon="-7.734525">
        <time>2021-11-27T09:17:32Z</time>
      </trkpt>
      <trkpt lat="42.40666" lon="-7.7345376">
        <time>2021-11-27T09:17:33Z</time>
      </trkpt>
      <trkpt lat="42.406647" lon="-7.7345495">
        <time>2021-11-27T09:17:34Z</time>
      </trkpt>
      <trkpt lat="42.40664" lon="-7.7345624">
        <time>2021-11-27T09:17:35Z</time>
      </trkpt>
      <trkpt lat="42.40663" lon="-7.7345743">
        <time>2021-11-27T09:17:36Z</time>
      </trkpt>
      <trkpt lat="42.406624" lon="-7.734586">
        <time>2021-11-27T09:17:37Z</time>
      </trkpt>
      <trkpt lat="42.406612" lon="-7.734597">
        <time>2021-11-27T09:17:38Z</time>
      </trkpt>
      <trkpt lat="42.406605" lon="-7.734607">
        <time>2021-11-27T09:17:39Z</time>
      </trkpt>
      <trkpt lat="42.406593" lon="-7.734614">
        <time>2021-11-27T09:17:40Z</time>
      </trkpt>
      <trkpt lat="42.406586" lon="-7.7346215">
        <time>2021-11-27T09:17:41Z</time>
      </trkpt>
      <trkpt lat="42.406574" lon="-7.734629">
        <time>2021-11-27T09:17:42Z</time>
      </trkpt>
      <trkpt lat="42.406563" lon="-7.7346344">
        <time>2021-11-27T09:17:43Z</time>
      </trkpt>
      <trkpt lat="42.406548" lon="-7.734637">
        <time>2021-11-27T09:17:44Z</time>
      </trkpt>
      <trkpt lat="42.406536" lon="-7.734638">
        <time>2021-11-27T09:17:45Z</time>
      </trkpt>
      <trkpt lat="42.406525" lon="-7.73464">
        <time>2021-11-27T09:17:46Z</time>
      </trkpt>
      <trkpt lat="42.406517" lon="-7.734643">
        <time>2021-11-27T09:17:47Z</time>
      </trkpt>
      <trkpt lat="42.40651" lon="-7.734648">
        <time>2021-11-27T09:17:48Z</time>
      </trkpt>
      <trkpt lat="42.406498" lon="-7.734652">
        <time>2021-11-27T09:17:49Z</time>
      </trkpt>
      <trkpt lat="42.40649" lon="-7.7346554">
        <time>2021-11-27T09:17:50Z</time>
      </trkpt>
      <trkpt lat="42.406475" lon="-7.7346587">
        <time>2021-11-27T09:17:51Z</time>
      </trkpt>
      <trkpt lat="42.406464" lon="-7.734661">
        <time>2021-11-27T09:17:52Z</time>
      </trkpt>
      <trkpt lat="42.406452" lon="-7.7346644">
        <time>2021-11-27T09:17:53Z</time>
      </trkpt>
      <trkpt lat="42.406437" lon="-7.7346687">
        <time>2021-11-27T09:17:54Z</time>
      </trkpt>
      <trkpt lat="42.40642" lon="-7.734672">
        <time>2021-11-27T09:17:55Z</time>
      </trkpt>
      <trkpt lat="42.406414" lon="-7.734679">
        <time>2021-11-27T09:17:56Z</time>
      </trkpt>
      <trkpt lat="42.406403" lon="-7.7346873">
        <time>2021-11-27T09:17:57Z</time>
      </trkpt>
      <trkpt lat="42.40639" lon="-7.734695">
        <time>2021-11-27T09:17:58Z</time>
      </trkpt>
      <trkpt lat="42.406384" lon="-7.7347026">
        <time>2021-11-27T09:17:59Z</time>
      </trkpt>
      <trkpt lat="42.406372" lon="-7.7347083">
        <time>2021-11-27T09:18:00Z</time>
      </trkpt>
      <trkpt lat="42.40636" lon="-7.7347155">
        <time>2021-11-27T09:18:01Z</time>
      </trkpt>
      <trkpt lat="42.40635" lon="-7.734725">
        <time>2021-11-27T09:18:02Z</time>
      </trkpt>
      <trkpt lat="42.406338" lon="-7.734734">
        <time>2021-11-27T09:18:03Z</time>
      </trkpt>
      <trkpt lat="42.40633" lon="-7.7347436">
        <time>2021-11-27T09:18:04Z</time>
      </trkpt>
      <trkpt lat="42.406322" lon="-7.734751">
        <time>2021-11-27T09:18:05Z</time>
      </trkpt>
      <trkpt lat="42.4063" lon="-7.734771">
        <time>2021-11-27T09:18:07Z</time>
      </trkpt>
      <trkpt lat="42.406296" lon="-7.7347717">
        <time>2021-11-27T09:18:08Z</time>
      </trkpt>
      <trkpt lat="42.40629" lon="-7.7347736">
        <time>2021-11-27T09:18:09Z</time>
      </trkpt>
      <trkpt lat="42.40628" lon="-7.734775">
        <time>2021-11-27T09:18:10Z</time>
      </trkpt>
      <trkpt lat="42.406273" lon="-7.7347775">
        <time>2021-11-27T09:18:11Z</time>
      </trkpt>
      <trkpt lat="42.406265" lon="-7.734782">
        <time>2021-11-27T09:18:12Z</time>
      </trkpt>
      <trkpt lat="42.406258" lon="-7.7347903">
        <time>2021-11-27T09:18:13Z</time>
      </trkpt>
      <trkpt lat="42.406254" lon="-7.734802">
        <time>2021-11-27T09:18:14Z</time>
      </trkpt>
      <trkpt lat="42.40625" lon="-7.7348127">
        <time>2021-11-27T09:18:15Z</time>
      </trkpt>
      <trkpt lat="42.406246" lon="-7.73482">
        <time>2021-11-27T09:18:16Z</time>
      </trkpt>
      <trkpt lat="42.406242" lon="-7.734825">
        <time>2021-11-27T09:18:17Z</time>
      </trkpt>
      <trkpt lat="42.40624" lon="-7.73483">
        <time>2021-11-27T09:18:18Z</time>
      </trkpt>
      <trkpt lat="42.406235" lon="-7.7348356">
        <time>2021-11-27T09:18:19Z</time>
      </trkpt>
      <trkpt lat="42.406227" lon="-7.7348423">
        <time>2021-11-27T09:18:19Z</time>
      </trkpt>
      <trkpt lat="42.40622" lon="-7.7348533">
        <time>2021-11-27T09:18:20Z</time>
      </trkpt>
      <trkpt lat="42.40621" lon="-7.7348647">
        <time>2021-11-27T09:18:21Z</time>
      </trkpt>
      <trkpt lat="42.406204" lon="-7.7348785">
        <time>2021-11-27T09:18:22Z</time>
      </trkpt>
      <trkpt lat="42.406197" lon="-7.7348933">
        <time>2021-11-27T09:18:23Z</time>
      </trkpt>
      <trkpt lat="42.40619" lon="-7.7349086">
        <time>2021-11-27T09:18:24Z</time>
      </trkpt>
      <trkpt lat="42.40618" lon="-7.734925">
        <time>2021-11-27T09:18:25Z</time>
      </trkpt>
      <trkpt lat="42.406178" lon="-7.7349377">
        <time>2021-11-27T09:18:26Z</time>
      </trkpt>
      <trkpt lat="42.40617" lon="-7.7349477">
        <time>2021-11-27T09:18:27Z</time>
      </trkpt>
      <trkpt lat="42.40616" lon="-7.7349544">
        <time>2021-11-27T09:18:28Z</time>
      </trkpt>
      <trkpt lat="42.40615" lon="-7.7349615">
        <time>2021-11-27T09:18:29Z</time>
      </trkpt>
      <trkpt lat="42.406143" lon="-7.7349677">
        <time>2021-11-27T09:18:30Z</time>
      </trkpt>
      <trkpt lat="42.40613" lon="-7.734973">
        <time>2021-11-27T09:18:31Z</time>
      </trkpt>
      <trkpt lat="42.40612" lon="-7.734979">
        <time>2021-11-27T09:18:32Z</time>
      </trkpt>
      <trkpt lat="42.40611" lon="-7.7349877">
        <time>2021-11-27T09:18:33Z</time>
      </trkpt>
      <trkpt lat="42.406097" lon="-7.7349973">
        <time>2021-11-27T09:18:34Z</time>
      </trkpt>
      <trkpt lat="42.406082" lon="-7.735004">
        <time>2021-11-27T09:18:35Z</time>
      </trkpt>
      <trkpt lat="42.40607" lon="-7.7350073">
        <time>2021-11-27T09:18:36Z</time>
      </trkpt>
      <trkpt lat="42.406055" lon="-7.735008">
        <time>2021-11-27T09:18:37Z</time>
      </trkpt>
      <trkpt lat="42.40604" lon="-7.735008">
        <time>2021-11-27T09:18:38Z</time>
      </trkpt>
      <trkpt lat="42.406025" lon="-7.7350106">
        <time>2021-11-27T09:18:39Z</time>
      </trkpt>
      <trkpt lat="42.40601" lon="-7.735013">
        <time>2021-11-27T09:18:40Z</time>
      </trkpt>
      <trkpt lat="42.405994" lon="-7.735015">
        <time>2021-11-27T09:18:41Z</time>
      </trkpt>
      <trkpt lat="42.40598" lon="-7.735014">
        <time>2021-11-27T09:18:42Z</time>
      </trkpt>
      <trkpt lat="42.405968" lon="-7.735009">
        <time>2021-11-27T09:18:43Z</time>
      </trkpt>
      <trkpt lat="42.405956" lon="-7.735002">
        <time>2021-11-27T09:18:44Z</time>
      </trkpt>
      <trkpt lat="42.405945" lon="-7.7349935">
        <time>2021-11-27T09:18:45Z</time>
      </trkpt>
      <trkpt lat="42.405933" lon="-7.7349844">
        <time>2021-11-27T09:18:46Z</time>
      </trkpt>
      <trkpt lat="42.40592" lon="-7.734977">
        <time>2021-11-27T09:18:47Z</time>
      </trkpt>
      <trkpt lat="42.405907" lon="-7.73497">
        <time>2021-11-27T09:18:48Z</time>
      </trkpt>
      <trkpt lat="42.405888" lon="-7.7349653">
        <time>2021-11-27T09:18:49Z</time>
      </trkpt>
      <trkpt lat="42.405876" lon="-7.7349634">
        <time>2021-11-27T09:18:50Z</time>
      </trkpt>
      <trkpt lat="42.405872" lon="-7.734964">
        <time>2021-11-27T09:18:51Z</time>
      </trkpt>
      <trkpt lat="42.40587" lon="-7.734962">
        <time>2021-11-27T09:18:52Z</time>
      </trkpt>
      <trkpt lat="42.40586" lon="-7.73496">
        <time>2021-11-27T09:18:53Z</time>
      </trkpt>
      <trkpt lat="42.405853" lon="-7.7349563">
        <time>2021-11-27T09:18:54Z</time>
      </trkpt>
      <trkpt lat="42.405853" lon="-7.7349524">
        <time>2021-11-27T09:18:56Z</time>
      </trkpt>
      <trkpt lat="42.405846" lon="-7.734949">
        <time>2021-11-27T09:18:56Z</time>
      </trkpt>
      <trkpt lat="42.405838" lon="-7.734944">
        <time>2021-11-27T09:18:57Z</time>
      </trkpt>
      <trkpt lat="42.40583" lon="-7.7349377">
        <time>2021-11-27T09:18:58Z</time>
      </trkpt>
      <trkpt lat="42.405823" lon="-7.734931">
        <time>2021-11-27T09:18:59Z</time>
      </trkpt>
      <trkpt lat="42.405807" lon="-7.7349253">
        <time>2021-11-27T09:19:00Z</time>
      </trkpt>
      <trkpt lat="42.405792" lon="-7.7349186">
        <time>2021-11-27T09:19:01Z</time>
      </trkpt>
      <trkpt lat="42.405777" lon="-7.734913">
        <time>2021-11-27T09:19:02Z</time>
      </trkpt>
      <trkpt lat="42.40576" lon="-7.7349057">
        <time>2021-11-27T09:19:03Z</time>
      </trkpt>
      <trkpt lat="42.405746" lon="-7.7349005">
        <time>2021-11-27T09:19:04Z</time>
      </trkpt>
      <trkpt lat="42.40573" lon="-7.7348948">
        <time>2021-11-27T09:19:05Z</time>
      </trkpt>
      <trkpt lat="42.40572" lon="-7.7348876">
        <time>2021-11-27T09:19:06Z</time>
      </trkpt>
      <trkpt lat="42.40571" lon="-7.7348785">
        <time>2021-11-27T09:19:07Z</time>
      </trkpt>
      <trkpt lat="42.4057" lon="-7.7348704">
        <time>2021-11-27T09:19:08Z</time>
      </trkpt>
      <trkpt lat="42.40569" lon="-7.734862">
        <time>2021-11-27T09:19:09Z</time>
      </trkpt>
      <trkpt lat="42.405685" lon="-7.734856">
        <time>2021-11-27T09:19:10Z</time>
      </trkpt>
      <trkpt lat="42.405678" lon="-7.7348495">
        <time>2021-11-27T09:19:11Z</time>
      </trkpt>
      <trkpt lat="42.405666" lon="-7.734841">
        <time>2021-11-27T09:19:12Z</time>
      </trkpt>
      <trkpt lat="42.40566" lon="-7.7348347">
        <time>2021-11-27T09:19:13Z</time>
      </trkpt>
      <trkpt lat="42.40565" lon="-7.7348313">
        <time>2021-11-27T09:19:14Z</time>
      </trkpt>
      <trkpt lat="42.405643" lon="-7.7348256">
        <time>2021-11-27T09:19:15Z</time>
      </trkpt>
      <trkpt lat="42.405636" lon="-7.734818">
        <time>2021-11-27T09:19:16Z</time>
      </trkpt>
      <trkpt lat="42.40563" lon="-7.7348104">
        <time>2021-11-27T09:19:17Z</time>
      </trkpt>
      <trkpt lat="42.405617" lon="-7.7348046">
        <time>2021-11-27T09:19:18Z</time>
      </trkpt>
      <trkpt lat="42.405605" lon="-7.7348">
        <time>2021-11-27T09:19:19Z</time>
      </trkpt>
      <trkpt lat="42.405594" lon="-7.7347956">
        <time>2021-11-27T09:19:20Z</time>
      </trkpt>
      <trkpt lat="42.405582" lon="-7.7347903">
        <time>2021-11-27T09:19:21Z</time>
      </trkpt>
      <trkpt lat="42.40557" lon="-7.734786">
        <time>2021-11-27T09:19:22Z</time>
      </trkpt>
      <trkpt lat="42.40556" lon="-7.7347813">
        <time>2021-11-27T09:19:23Z</time>
      </trkpt>
      <trkpt lat="42.405544" lon="-7.734779">
        <time>2021-11-27T09:19:24Z</time>
      </trkpt>
      <trkpt lat="42.405533" lon="-7.7347717">
        <time>2021-11-27T09:19:25Z</time>
      </trkpt>
      <trkpt lat="42.405525" lon="-7.7347655">
        <time>2021-11-27T09:19:26Z</time>
      </trkpt>
      <trkpt lat="42.405514" lon="-7.7347617">
        <time>2021-11-27T09:19:27Z</time>
      </trkpt>
      <trkpt lat="42.405506" lon="-7.7347565">
        <time>2021-11-27T09:19:28Z</time>
      </trkpt>
      <trkpt lat="42.405495" lon="-7.7347507">
        <time>2021-11-27T09:19:29Z</time>
      </trkpt>
      <trkpt lat="42.405487" lon="-7.734747">
        <time>2021-11-27T09:19:30Z</time>
      </trkpt>
      <trkpt lat="42.40548" lon="-7.7347455">
        <time>2021-11-27T09:19:31Z</time>
      </trkpt>
      <trkpt lat="42.405476" lon="-7.7347465">
        <time>2021-11-27T09:19:32Z</time>
      </trkpt>
      <trkpt lat="42.405468" lon="-7.734745">
        <time>2021-11-27T09:19:33Z</time>
      </trkpt>
      <trkpt lat="42.40546" lon="-7.7347445">
        <time>2021-11-27T09:19:34Z</time>
      </trkpt>
      <trkpt lat="42.405457" lon="-7.7347455">
        <time>2021-11-27T09:19:35Z</time>
      </trkpt>
      <trkpt lat="42.405445" lon="-7.7347474">
        <time>2021-11-27T09:19:36Z</time>
      </trkpt>
      <trkpt lat="42.405434" lon="-7.7347484">
        <time>2021-11-27T09:19:37Z</time>
      </trkpt>
      <trkpt lat="42.405426" lon="-7.7347484">
        <time>2021-11-27T09:19:38Z</time>
      </trkpt>
      <trkpt lat="42.40541" lon="-7.7347455">
        <time>2021-11-27T09:19:39Z</time>
      </trkpt>
      <trkpt lat="42.405403" lon="-7.7347383">
        <time>2021-11-27T09:19:40Z</time>
      </trkpt>
      <trkpt lat="42.405388" lon="-7.7347307">
        <time>2021-11-27T09:19:41Z</time>
      </trkpt>
      <trkpt lat="42.405373" lon="-7.7347245">
        <time>2021-11-27T09:19:42Z</time>
      </trkpt>
      <trkpt lat="42.40536" lon="-7.734717">
        <time>2021-11-27T09:19:43Z</time>
      </trkpt>
      <trkpt lat="42.40535" lon="-7.7347083">
        <time>2021-11-27T09:19:44Z</time>
      </trkpt>
      <trkpt lat="42.40534" lon="-7.7346983">
        <time>2021-11-27T09:19:45Z</time>
      </trkpt>
      <trkpt lat="42.405323" lon="-7.7346873">
        <time>2021-11-27T09:19:46Z</time>
      </trkpt>
      <trkpt lat="42.405315" lon="-7.7346773">
        <time>2021-11-27T09:19:47Z</time>
      </trkpt>
      <trkpt lat="42.4053" lon="-7.734665">
        <time>2021-11-27T09:19:48Z</time>
      </trkpt>
      <trkpt lat="42.405293" lon="-7.734652">
        <time>2021-11-27T09:19:49Z</time>
      </trkpt>
      <trkpt lat="42.405277" lon="-7.734639">
        <time>2021-11-27T09:19:50Z</time>
      </trkpt>
      <trkpt lat="42.405266" lon="-7.7346277">
        <time>2021-11-27T09:19:51Z</time>
      </trkpt>
      <trkpt lat="42.405254" lon="-7.7346177">
        <time>2021-11-27T09:19:52Z</time>
      </trkpt>
      <trkpt lat="42.40524" lon="-7.734607">
        <time>2021-11-27T09:19:53Z</time>
      </trkpt>
      <trkpt lat="42.40523" lon="-7.734596">
        <time>2021-11-27T09:19:54Z</time>
      </trkpt>
      <trkpt lat="42.405224" lon="-7.734582">
        <time>2021-11-27T09:19:55Z</time>
      </trkpt>
      <trkpt lat="42.40521" lon="-7.7345676">
        <time>2021-11-27T09:19:56Z</time>
      </trkpt>
      <trkpt lat="42.405197" lon="-7.734556">
        <time>2021-11-27T09:19:57Z</time>
      </trkpt>
      <trkpt lat="42.405186" lon="-7.7345467">
        <time>2021-11-27T09:19:58Z</time>
      </trkpt>
      <trkpt lat="42.40517" lon="-7.734536">
        <time>2021-11-27T09:19:59Z</time>
      </trkpt>
      <trkpt lat="42.40516" lon="-7.734526">
        <time>2021-11-27T09:20:00Z</time>
      </trkpt>
      <trkpt lat="42.405144" lon="-7.7345166">
        <time>2021-11-27T09:20:01Z</time>
      </trkpt>
      <trkpt lat="42.405132" lon="-7.7345095">
        <time>2021-11-27T09:20:02Z</time>
      </trkpt>
      <trkpt lat="42.40512" lon="-7.734501">
        <time>2021-11-27T09:20:03Z</time>
      </trkpt>
      <trkpt lat="42.40511" lon="-7.7344933">
        <time>2021-11-27T09:20:04Z</time>
      </trkpt>
      <trkpt lat="42.405098" lon="-7.7344856">
        <time>2021-11-27T09:20:05Z</time>
      </trkpt>
      <trkpt lat="42.40509" lon="-7.734478">
        <time>2021-11-27T09:20:06Z</time>
      </trkpt>
      <trkpt lat="42.405075" lon="-7.73447">
        <time>2021-11-27T09:20:07Z</time>
      </trkpt>
      <trkpt lat="42.405064" lon="-7.7344613">
        <time>2021-11-27T09:20:08Z</time>
      </trkpt>
      <trkpt lat="42.40505" lon="-7.734457">
        <time>2021-11-27T09:20:09Z</time>
      </trkpt>
      <trkpt lat="42.405033" lon="-7.7344537">
        <time>2021-11-27T09:20:10Z</time>
      </trkpt>
      <trkpt lat="42.40502" lon="-7.7344513">
        <time>2021-11-27T09:20:11Z</time>
      </trkpt>
      <trkpt lat="42.405006" lon="-7.7344494">
        <time>2021-11-27T09:20:12Z</time>
      </trkpt>
      <trkpt lat="42.404995" lon="-7.7344465">
        <time>2021-11-27T09:20:13Z</time>
      </trkpt>
      <trkpt lat="42.404984" lon="-7.734444">
        <time>2021-11-27T09:20:14Z</time>
      </trkpt>
      <trkpt lat="42.40497" lon="-7.734439">
        <time>2021-11-27T09:20:15Z</time>
      </trkpt>
      <trkpt lat="42.404957" lon="-7.7344327">
        <time>2021-11-27T09:20:16Z</time>
      </trkpt>
      <trkpt lat="42.40495" lon="-7.734424">
        <time>2021-11-27T09:20:17Z</time>
      </trkpt>
      <trkpt lat="42.40494" lon="-7.7344127">
        <time>2021-11-27T09:20:18Z</time>
      </trkpt>
      <trkpt lat="42.40493" lon="-7.7343993">
        <time>2021-11-27T09:20:19Z</time>
      </trkpt>
      <trkpt lat="42.40492" lon="-7.7343874">
        <time>2021-11-27T09:20:20Z</time>
      </trkpt>
      <trkpt lat="42.404907" lon="-7.7343755">
        <time>2021-11-27T09:20:21Z</time>
      </trkpt>
      <trkpt lat="42.404896" lon="-7.734366">
        <time>2021-11-27T09:20:22Z</time>
      </trkpt>
      <trkpt lat="42.404884" lon="-7.73436">
        <time>2021-11-27T09:20:23Z</time>
      </trkpt>
      <trkpt lat="42.404873" lon="-7.7343564">
        <time>2021-11-27T09:20:24Z</time>
      </trkpt>
      <trkpt lat="42.40486" lon="-7.734351">
        <time>2021-11-27T09:20:25Z</time>
      </trkpt>
      <trkpt lat="42.40485" lon="-7.7343435">
        <time>2021-11-27T09:20:26Z</time>
      </trkpt>
      <trkpt lat="42.404842" lon="-7.7343354">
        <time>2021-11-27T09:20:27Z</time>
      </trkpt>
      <trkpt lat="42.404827" lon="-7.734327">
        <time>2021-11-27T09:20:28Z</time>
      </trkpt>
      <trkpt lat="42.40481" lon="-7.734321">
        <time>2021-11-27T09:20:29Z</time>
      </trkpt>
      <trkpt lat="42.404797" lon="-7.7343187">
        <time>2021-11-27T09:20:30Z</time>
      </trkpt>
      <trkpt lat="42.40478" lon="-7.734317">
        <time>2021-11-27T09:20:31Z</time>
      </trkpt>
      <trkpt lat="42.404766" lon="-7.7343173">
        <time>2021-11-27T09:20:32Z</time>
      </trkpt>
      <trkpt lat="42.404755" lon="-7.7343183">
        <time>2021-11-27T09:20:33Z</time>
      </trkpt>
      <trkpt lat="42.404747" lon="-7.734319">
        <time>2021-11-27T09:20:34Z</time>
      </trkpt>
      <trkpt lat="42.40474" lon="-7.734319">
        <time>2021-11-27T09:20:35Z</time>
      </trkpt>
      <trkpt lat="42.40473" lon="-7.7343187">
        <time>2021-11-27T09:20:36Z</time>
      </trkpt>
      <trkpt lat="42.404728" lon="-7.7343173">
        <time>2021-11-27T09:20:37Z</time>
      </trkpt>
      <trkpt lat="42.404716" lon="-7.7343183">
        <time>2021-11-27T09:20:38Z</time>
      </trkpt>
      <trkpt lat="42.40471" lon="-7.7343187">
        <time>2021-11-27T09:20:39Z</time>
      </trkpt>
      <trkpt lat="42.404694" lon="-7.7343187">
        <time>2021-11-27T09:20:40Z</time>
      </trkpt>
      <trkpt lat="42.404682" lon="-7.7343183">
        <time>2021-11-27T09:20:41Z</time>
      </trkpt>
      <trkpt lat="42.40467" lon="-7.7343183">
        <time>2021-11-27T09:20:42Z</time>
      </trkpt>
      <trkpt lat="42.40466" lon="-7.7343183">
        <time>2021-11-27T09:20:43Z</time>
      </trkpt>
      <trkpt lat="42.404648" lon="-7.73432">
        <time>2021-11-27T09:20:44Z</time>
      </trkpt>
      <trkpt lat="42.40464" lon="-7.734322">
        <time>2021-11-27T09:20:45Z</time>
      </trkpt>
      <trkpt lat="42.404633" lon="-7.7343225">
        <time>2021-11-27T09:20:46Z</time>
      </trkpt>
      <trkpt lat="42.40462" lon="-7.73432">
        <time>2021-11-27T09:20:47Z</time>
      </trkpt>
      <trkpt lat="42.40461" lon="-7.734317">
        <time>2021-11-27T09:20:48Z</time>
      </trkpt>
      <trkpt lat="42.4046" lon="-7.7343106">
        <time>2021-11-27T09:20:49Z</time>
      </trkpt>
      <trkpt lat="42.404587" lon="-7.7343044">
        <time>2021-11-27T09:20:50Z</time>
      </trkpt>
      <trkpt lat="42.40458" lon="-7.7343">
        <time>2021-11-27T09:20:51Z</time>
      </trkpt>
      <trkpt lat="42.404568" lon="-7.734296">
        <time>2021-11-27T09:20:52Z</time>
      </trkpt>
      <trkpt lat="42.404552" lon="-7.734293">
        <time>2021-11-27T09:20:53Z</time>
      </trkpt>
      <trkpt lat="42.40454" lon="-7.7342906">
        <time>2021-11-27T09:20:54Z</time>
      </trkpt>
      <trkpt lat="42.404522" lon="-7.7342863">
        <time>2021-11-27T09:20:55Z</time>
      </trkpt>
      <trkpt lat="42.404507" lon="-7.734281">
        <time>2021-11-27T09:20:56Z</time>
      </trkpt>
      <trkpt lat="42.40449" lon="-7.7342734">
        <time>2021-11-27T09:20:57Z</time>
      </trkpt>
      <trkpt lat="42.404476" lon="-7.7342663">
        <time>2021-11-27T09:20:58Z</time>
      </trkpt>
      <trkpt lat="42.40446" lon="-7.734262">
        <time>2021-11-27T09:20:59Z</time>
      </trkpt>
      <trkpt lat="42.40444" lon="-7.7342587">
        <time>2021-11-27T09:21:00Z</time>
      </trkpt>
      <trkpt lat="42.404423" lon="-7.734256">
        <time>2021-11-27T09:21:01Z</time>
      </trkpt>
      <trkpt lat="42.404408" lon="-7.734252">
        <time>2021-11-27T09:21:02Z</time>
      </trkpt>
      <trkpt lat="42.404392" lon="-7.734248">
        <time>2021-11-27T09:21:03Z</time>
      </trkpt>
      <trkpt lat="42.40438" lon="-7.734242">
        <time>2021-11-27T09:21:04Z</time>
      </trkpt>
      <trkpt lat="42.404366" lon="-7.7342334">
        <time>2021-11-27T09:21:05Z</time>
      </trkpt>
      <trkpt lat="42.404354" lon="-7.734225">
        <time>2021-11-27T09:21:06Z</time>
      </trkpt>
      <trkpt lat="42.404343" lon="-7.734217">
        <time>2021-11-27T09:21:07Z</time>
      </trkpt>
      <trkpt lat="42.404335" lon="-7.7342143">
        <time>2021-11-27T09:21:08Z</time>
      </trkpt>
      <trkpt lat="42.404324" lon="-7.734218">
        <time>2021-11-27T09:21:09Z</time>
      </trkpt>
      <trkpt lat="42.404312" lon="-7.734224">
        <time>2021-11-27T09:21:10Z</time>
      </trkpt>
      <trkpt lat="42.404297" lon="-7.7342315">
        <time>2021-11-27T09:21:11Z</time>
      </trkpt>
      <trkpt lat="42.40428" lon="-7.734238">
        <time>2021-11-27T09:21:12Z</time>
      </trkpt>
      <trkpt lat="42.404266" lon="-7.7342463">
        <time>2021-11-27T09:21:13Z</time>
      </trkpt>
      <trkpt lat="42.40426" lon="-7.734254">
        <time>2021-11-27T09:21:14Z</time>
      </trkpt>
      <trkpt lat="42.404243" lon="-7.734262">
        <time>2021-11-27T09:21:15Z</time>
      </trkpt>
      <trkpt lat="42.404232" lon="-7.7342696">
        <time>2021-11-27T09:21:16Z</time>
      </trkpt>
      <trkpt lat="42.40422" lon="-7.734278">
        <time>2021-11-27T09:21:17Z</time>
      </trkpt>
      <trkpt lat="42.40421" lon="-7.7342863">
        <time>2021-11-27T09:21:18Z</time>
      </trkpt>
      <trkpt lat="42.404198" lon="-7.734294">
        <time>2021-11-27T09:21:19Z</time>
      </trkpt>
      <trkpt lat="42.404186" lon="-7.7343016">
        <time>2021-11-27T09:21:20Z</time>
      </trkpt>
      <trkpt lat="42.40417" lon="-7.7343082">
        <time>2021-11-27T09:21:21Z</time>
      </trkpt>
      <trkpt lat="42.404163" lon="-7.7343144">
        <time>2021-11-27T09:21:22Z</time>
      </trkpt>
      <trkpt lat="42.40415" lon="-7.7343187">
        <time>2021-11-27T09:21:23Z</time>
      </trkpt>
      <trkpt lat="42.404137" lon="-7.734322">
        <time>2021-11-27T09:21:24Z</time>
      </trkpt>
      <trkpt lat="42.404125" lon="-7.734325">
        <time>2021-11-27T09:21:25Z</time>
      </trkpt>
      <trkpt lat="42.404114" lon="-7.7343283">
        <time>2021-11-27T09:21:26Z</time>
      </trkpt>
      <trkpt lat="42.404102" lon="-7.7343335">
        <time>2021-11-27T09:21:27Z</time>
      </trkpt>
      <trkpt lat="42.404087" lon="-7.734339">
        <time>2021-11-27T09:21:28Z</time>
      </trkpt>
      <trkpt lat="42.404076" lon="-7.734347">
        <time>2021-11-27T09:21:29Z</time>
      </trkpt>
      <trkpt lat="42.404064" lon="-7.7343574">
        <time>2021-11-27T09:21:30Z</time>
      </trkpt>
      <trkpt lat="42.404053" lon="-7.7343698">
        <time>2021-11-27T09:21:31Z</time>
      </trkpt>
      <trkpt lat="42.40404" lon="-7.734384">
        <time>2021-11-27T09:21:32Z</time>
      </trkpt>
      <trkpt lat="42.404034" lon="-7.7344017">
        <time>2021-11-27T09:21:33Z</time>
      </trkpt>
      <trkpt lat="42.40403" lon="-7.734422">
        <time>2021-11-27T09:21:34Z</time>
      </trkpt>
      <trkpt lat="42.40403" lon="-7.7344403">
        <time>2021-11-27T09:21:35Z</time>
      </trkpt>
      <trkpt lat="42.404034" lon="-7.734457">
        <time>2021-11-27T09:21:36Z</time>
      </trkpt>
      <trkpt lat="42.404037" lon="-7.7344737">
        <time>2021-11-27T09:21:37Z</time>
      </trkpt>
      <trkpt lat="42.40404" lon="-7.7344875">
        <time>2021-11-27T09:21:38Z</time>
      </trkpt>
      <trkpt lat="42.40405" lon="-7.734502">
        <time>2021-11-27T09:21:39Z</time>
      </trkpt>
      <trkpt lat="42.404053" lon="-7.7345147">
        <time>2021-11-27T09:21:40Z</time>
      </trkpt>
      <trkpt lat="42.40406" lon="-7.734528">
        <time>2021-11-27T09:21:41Z</time>
      </trkpt>
      <trkpt lat="42.404068" lon="-7.734543">
        <time>2021-11-27T09:21:42Z</time>
      </trkpt>
      <trkpt lat="42.40407" lon="-7.7345543">
        <time>2021-11-27T09:21:43Z</time>
      </trkpt>
      <trkpt lat="42.404076" lon="-7.7345695">
        <time>2021-11-27T09:21:44Z</time>
      </trkpt>
      <trkpt lat="42.404076" lon="-7.7345867">
        <time>2021-11-27T09:21:45Z</time>
      </trkpt>
      <trkpt lat="42.404076" lon="-7.7346063">
        <time>2021-11-27T09:21:46Z</time>
      </trkpt>
      <trkpt lat="42.40408" lon="-7.734626">
        <time>2021-11-27T09:21:47Z</time>
      </trkpt>
      <trkpt lat="42.404087" lon="-7.734644">
        <time>2021-11-27T09:21:48Z</time>
      </trkpt>
      <trkpt lat="42.404087" lon="-7.7346597">
        <time>2021-11-27T09:21:49Z</time>
      </trkpt>
      <trkpt lat="42.404095" lon="-7.7346783">
        <time>2021-11-27T09:21:50Z</time>
      </trkpt>
      <trkpt lat="42.404095" lon="-7.734699">
        <time>2021-11-27T09:21:51Z</time>
      </trkpt>
      <trkpt lat="42.404102" lon="-7.7347207">
        <time>2021-11-27T09:21:52Z</time>
      </trkpt>
      <trkpt lat="42.404102" lon="-7.734745">
        <time>2021-11-27T09:21:53Z</time>
      </trkpt>
      <trkpt lat="42.404102" lon="-7.7347693">
        <time>2021-11-27T09:21:54Z</time>
      </trkpt>
      <trkpt lat="42.404102" lon="-7.7347918">
        <time>2021-11-27T09:21:56Z</time>
      </trkpt>
      <trkpt lat="42.404106" lon="-7.734814">
        <time>2021-11-27T09:21:56Z</time>
      </trkpt>
      <trkpt lat="42.40411" lon="-7.734835">
        <time>2021-11-27T09:21:57Z</time>
      </trkpt>
      <trkpt lat="42.404118" lon="-7.7348557">
        <time>2021-11-27T09:21:58Z</time>
      </trkpt>
      <trkpt lat="42.40412" lon="-7.734874">
        <time>2021-11-27T09:21:59Z</time>
      </trkpt>
      <trkpt lat="42.404133" lon="-7.7348905">
        <time>2021-11-27T09:22:00Z</time>
      </trkpt>
      <trkpt lat="42.404137" lon="-7.7349076">
        <time>2021-11-27T09:22:01Z</time>
      </trkpt>
      <trkpt lat="42.404144" lon="-7.7349286">
        <time>2021-11-27T09:22:02Z</time>
      </trkpt>
      <trkpt lat="42.40415" lon="-7.7349496">
        <time>2021-11-27T09:22:03Z</time>
      </trkpt>
      <trkpt lat="42.404156" lon="-7.7349734">
        <time>2021-11-27T09:22:04Z</time>
      </trkpt>
      <trkpt lat="42.404163" lon="-7.7349963">
        <time>2021-11-27T09:22:05Z</time>
      </trkpt>
      <trkpt lat="42.404167" lon="-7.7350197">
        <time>2021-11-27T09:22:06Z</time>
      </trkpt>
      <trkpt lat="42.40417" lon="-7.7350426">
        <time>2021-11-27T09:22:07Z</time>
      </trkpt>
      <trkpt lat="42.404175" lon="-7.7350626">
        <time>2021-11-27T09:22:08Z</time>
      </trkpt>
      <trkpt lat="42.40418" lon="-7.735081">
        <time>2021-11-27T09:22:09Z</time>
      </trkpt>
      <trkpt lat="42.404182" lon="-7.7350984">
        <time>2021-11-27T09:22:10Z</time>
      </trkpt>
      <trkpt lat="42.40419" lon="-7.7351136">
        <time>2021-11-27T09:22:11Z</time>
      </trkpt>
      <trkpt lat="42.40419" lon="-7.7351284">
        <time>2021-11-27T09:22:12Z</time>
      </trkpt>
      <trkpt lat="42.404194" lon="-7.7351418">
        <time>2021-11-27T09:22:13Z</time>
      </trkpt>
      <trkpt lat="42.404198" lon="-7.7351565">
        <time>2021-11-27T09:22:14Z</time>
      </trkpt>
      <trkpt lat="42.4042" lon="-7.7351704">
        <time>2021-11-27T09:22:15Z</time>
      </trkpt>
      <trkpt lat="42.404205" lon="-7.735184">
        <time>2021-11-27T09:22:16Z</time>
      </trkpt>
      <trkpt lat="42.40421" lon="-7.7351985">
        <time>2021-11-27T09:22:17Z</time>
      </trkpt>
      <trkpt lat="42.404213" lon="-7.735214">
        <time>2021-11-27T09:22:18Z</time>
      </trkpt>
      <trkpt lat="42.404213" lon="-7.735231">
        <time>2021-11-27T09:22:19Z</time>
      </trkpt>
      <trkpt lat="42.404213" lon="-7.7352486">
        <time>2021-11-27T09:22:20Z</time>
      </trkpt>
      <trkpt lat="42.404213" lon="-7.7352686">
        <time>2021-11-27T09:22:21Z</time>
      </trkpt>
      <trkpt lat="42.404213" lon="-7.735287">
        <time>2021-11-27T09:22:22Z</time>
      </trkpt>
      <trkpt lat="42.404213" lon="-7.7353067">
        <time>2021-11-27T09:22:23Z</time>
      </trkpt>
      <trkpt lat="42.404213" lon="-7.7353272">
        <time>2021-11-27T09:22:24Z</time>
      </trkpt>
      <trkpt lat="42.404213" lon="-7.7353497">
        <time>2021-11-27T09:22:25Z</time>
      </trkpt>
      <trkpt lat="42.40421" lon="-7.735373">
        <time>2021-11-27T09:22:26Z</time>
      </trkpt>
      <trkpt lat="42.40421" lon="-7.7353945">
        <time>2021-11-27T09:22:27Z</time>
      </trkpt>
      <trkpt lat="42.40421" lon="-7.7354155">
        <time>2021-11-27T09:22:28Z</time>
      </trkpt>
      <trkpt lat="42.404213" lon="-7.7354355">
        <time>2021-11-27T09:22:29Z</time>
      </trkpt>
      <trkpt lat="42.404217" lon="-7.735454">
        <time>2021-11-27T09:22:30Z</time>
      </trkpt>
      <trkpt lat="42.40422" lon="-7.735472">
        <time>2021-11-27T09:22:31Z</time>
      </trkpt>
      <trkpt lat="42.404224" lon="-7.73549">
        <time>2021-11-27T09:22:32Z</time>
      </trkpt>
      <trkpt lat="42.40423" lon="-7.735504">
        <time>2021-11-27T09:22:33Z</time>
      </trkpt>
      <trkpt lat="42.404236" lon="-7.7355175">
        <time>2021-11-27T09:22:34Z</time>
      </trkpt>
      <trkpt lat="42.40424" lon="-7.735531">
        <time>2021-11-27T09:22:34Z</time>
      </trkpt>
      <trkpt lat="42.404243" lon="-7.7355456">
        <time>2021-11-27T09:22:35Z</time>
      </trkpt>
      <trkpt lat="42.404247" lon="-7.735557">
        <time>2021-11-27T09:22:36Z</time>
      </trkpt>
      <trkpt lat="42.40425" lon="-7.7355723">
        <time>2021-11-27T09:22:37Z</time>
      </trkpt>
      <trkpt lat="42.40425" lon="-7.735596">
        <time>2021-11-27T09:22:38Z</time>
      </trkpt>
      <trkpt lat="42.40425" lon="-7.735619">
        <time>2021-11-27T09:22:39Z</time>
      </trkpt>
      <trkpt lat="42.404255" lon="-7.7356434">
        <time>2021-11-27T09:22:40Z</time>
      </trkpt>
      <trkpt lat="42.40426" lon="-7.7356715">
        <time>2021-11-27T09:22:41Z</time>
      </trkpt>
      <trkpt lat="42.40426" lon="-7.7357006">
        <time>2021-11-27T09:22:42Z</time>
      </trkpt>
      <trkpt lat="42.40426" lon="-7.735728">
        <time>2021-11-27T09:22:43Z</time>
      </trkpt>
      <trkpt lat="42.404263" lon="-7.735754">
        <time>2021-11-27T09:22:44Z</time>
      </trkpt>
      <trkpt lat="42.404266" lon="-7.7357764">
        <time>2021-11-27T09:22:45Z</time>
      </trkpt>
      <trkpt lat="42.404274" lon="-7.735795">
        <time>2021-11-27T09:22:46Z</time>
      </trkpt>
      <trkpt lat="42.40428" lon="-7.7358108">
        <time>2021-11-27T09:22:47Z</time>
      </trkpt>
      <trkpt lat="42.40429" lon="-7.7358265">
        <time>2021-11-27T09:22:48Z</time>
      </trkpt>
      <trkpt lat="42.40429" lon="-7.7358456">
        <time>2021-11-27T09:22:49Z</time>
      </trkpt>
      <trkpt lat="42.40429" lon="-7.735869">
        <time>2021-11-27T09:22:50Z</time>
      </trkpt>
      <trkpt lat="42.40429" lon="-7.7358923">
        <time>2021-11-27T09:22:51Z</time>
      </trkpt>
      <trkpt lat="42.40429" lon="-7.7359147">
        <time>2021-11-27T09:22:52Z</time>
      </trkpt>
      <trkpt lat="42.40429" lon="-7.735936">
        <time>2021-11-27T09:22:53Z</time>
      </trkpt>
      <trkpt lat="42.404293" lon="-7.7359548">
        <time>2021-11-27T09:22:54Z</time>
      </trkpt>
      <trkpt lat="42.404297" lon="-7.735972">
        <time>2021-11-27T09:22:55Z</time>
      </trkpt>
      <trkpt lat="42.404305" lon="-7.735989">
        <time>2021-11-27T09:22:56Z</time>
      </trkpt>
      <trkpt lat="42.40431" lon="-7.736004">
        <time>2021-11-27T09:22:57Z</time>
      </trkpt>
      <trkpt lat="42.404312" lon="-7.736017">
        <time>2021-11-27T09:22:58Z</time>
      </trkpt>
      <trkpt lat="42.40432" lon="-7.73603">
        <time>2021-11-27T09:22:59Z</time>
      </trkpt>
      <trkpt lat="42.404327" lon="-7.736044">
        <time>2021-11-27T09:23:00Z</time>
      </trkpt>
      <trkpt lat="42.40433" lon="-7.7360587">
        <time>2021-11-27T09:23:01Z</time>
      </trkpt>
      <trkpt lat="42.404335" lon="-7.7360725">
        <time>2021-11-27T09:23:02Z</time>
      </trkpt>
      <trkpt lat="42.404343" lon="-7.7360883">
        <time>2021-11-27T09:23:03Z</time>
      </trkpt>
      <trkpt lat="42.404346" lon="-7.7361045">
        <time>2021-11-27T09:23:04Z</time>
      </trkpt>
      <trkpt lat="42.40435" lon="-7.7361193">
        <time>2021-11-27T09:23:05Z</time>
      </trkpt>
      <trkpt lat="42.404358" lon="-7.736131">
        <time>2021-11-27T09:23:06Z</time>
      </trkpt>
      <trkpt lat="42.404366" lon="-7.736144">
        <time>2021-11-27T09:23:07Z</time>
      </trkpt>
      <trkpt lat="42.40437" lon="-7.73616">
        <time>2021-11-27T09:23:08Z</time>
      </trkpt>
      <trkpt lat="42.404373" lon="-7.736178">
        <time>2021-11-27T09:23:09Z</time>
      </trkpt>
      <trkpt lat="42.404377" lon="-7.7361984">
        <time>2021-11-27T09:23:10Z</time>
      </trkpt>
      <trkpt lat="42.404385" lon="-7.7362165">
        <time>2021-11-27T09:23:11Z</time>
      </trkpt>
      <trkpt lat="42.404392" lon="-7.7362356">
        <time>2021-11-27T09:23:12Z</time>
      </trkpt>
      <trkpt lat="42.4044" lon="-7.7362566">
        <time>2021-11-27T09:23:13Z</time>
      </trkpt>
      <trkpt lat="42.4044" lon="-7.736277">
        <time>2021-11-27T09:23:14Z</time>
      </trkpt>
      <trkpt lat="42.404408" lon="-7.736297">
        <time>2021-11-27T09:23:15Z</time>
      </trkpt>
      <trkpt lat="42.404408" lon="-7.7363186">
        <time>2021-11-27T09:23:16Z</time>
      </trkpt>
      <trkpt lat="42.404415" lon="-7.7363424">
        <time>2021-11-27T09:23:17Z</time>
      </trkpt>
      <trkpt lat="42.404415" lon="-7.736368">
        <time>2021-11-27T09:23:18Z</time>
      </trkpt>
      <trkpt lat="42.404415" lon="-7.736393">
        <time>2021-11-27T09:23:19Z</time>
      </trkpt>
      <trkpt lat="42.404423" lon="-7.7364135">
        <time>2021-11-27T09:23:20Z</time>
      </trkpt>
      <trkpt lat="42.40443" lon="-7.7364326">
        <time>2021-11-27T09:23:21Z</time>
      </trkpt>
      <trkpt lat="42.40444" lon="-7.736455">
        <time>2021-11-27T09:23:22Z</time>
      </trkpt>
      <trkpt lat="42.404453" lon="-7.7364807">
        <time>2021-11-27T09:23:23Z</time>
      </trkpt>
      <trkpt lat="42.40446" lon="-7.7365084">
        <time>2021-11-27T09:23:24Z</time>
      </trkpt>
      <trkpt lat="42.40447" lon="-7.7365355">
        <time>2021-11-27T09:23:25Z</time>
      </trkpt>
      <trkpt lat="42.404476" lon="-7.7365613">
        <time>2021-11-27T09:23:26Z</time>
      </trkpt>
      <trkpt lat="42.404476" lon="-7.7365875">
        <time>2021-11-27T09:23:27Z</time>
      </trkpt>
      <trkpt lat="42.40447" lon="-7.7366133">
        <time>2021-11-27T09:23:28Z</time>
      </trkpt>
      <trkpt lat="42.404465" lon="-7.7366343">
        <time>2021-11-27T09:23:29Z</time>
      </trkpt>
      <trkpt lat="42.40446" lon="-7.736649">
        <time>2021-11-27T09:23:30Z</time>
      </trkpt>
      <trkpt lat="42.404457" lon="-7.73666">
        <time>2021-11-27T09:23:31Z</time>
      </trkpt>
      <trkpt lat="42.404457" lon="-7.7366695">
        <time>2021-11-27T09:23:32Z</time>
      </trkpt>
      <trkpt lat="42.404453" lon="-7.7366805">
        <time>2021-11-27T09:23:33Z</time>
      </trkpt>
      <trkpt lat="42.404453" lon="-7.736689">
        <time>2021-11-27T09:23:34Z</time>
      </trkpt>
      <trkpt lat="42.404453" lon="-7.7366962">
        <time>2021-11-27T09:23:35Z</time>
      </trkpt>
      <trkpt lat="42.404453" lon="-7.7367053">
        <time>2021-11-27T09:23:36Z</time>
      </trkpt>
      <trkpt lat="42.404453" lon="-7.7367163">
        <time>2021-11-27T09:23:37Z</time>
      </trkpt>
      <trkpt lat="42.404453" lon="-7.7367277">
        <time>2021-11-27T09:23:38Z</time>
      </trkpt>
      <trkpt lat="42.404457" lon="-7.7367415">
        <time>2021-11-27T09:23:39Z</time>
      </trkpt>
      <trkpt lat="42.404457" lon="-7.7367525">
        <time>2021-11-27T09:23:40Z</time>
      </trkpt>
      <trkpt lat="42.40446" lon="-7.7367673">
        <time>2021-11-27T09:23:41Z</time>
      </trkpt>
      <trkpt lat="42.404465" lon="-7.7367835">
        <time>2021-11-27T09:23:42Z</time>
      </trkpt>
      <trkpt lat="42.40447" lon="-7.7367992">
        <time>2021-11-27T09:23:43Z</time>
      </trkpt>
      <trkpt lat="42.404476" lon="-7.736814">
        <time>2021-11-27T09:23:44Z</time>
      </trkpt>
      <trkpt lat="42.40448" lon="-7.7368264">
        <time>2021-11-27T09:23:45Z</time>
      </trkpt>
      <trkpt lat="42.404484" lon="-7.736837">
        <time>2021-11-27T09:23:46Z</time>
      </trkpt>
      <trkpt lat="42.40449" lon="-7.736846">
        <time>2021-11-27T09:23:47Z</time>
      </trkpt>
      <trkpt lat="42.404495" lon="-7.736853">
        <time>2021-11-27T09:23:48Z</time>
      </trkpt>
      <trkpt lat="42.4045" lon="-7.7368608">
        <time>2021-11-27T09:23:49Z</time>
      </trkpt>
      <trkpt lat="42.404503" lon="-7.7368703">
        <time>2021-11-27T09:23:50Z</time>
      </trkpt>
      <trkpt lat="42.404503" lon="-7.7368836">
        <time>2021-11-27T09:23:51Z</time>
      </trkpt>
      <trkpt lat="42.404503" lon="-7.7369">
        <time>2021-11-27T09:23:52Z</time>
      </trkpt>
      <trkpt lat="42.404503" lon="-7.7369165">
        <time>2021-11-27T09:23:53Z</time>
      </trkpt>
      <trkpt lat="42.404503" lon="-7.736935">
        <time>2021-11-27T09:23:55Z</time>
      </trkpt>
      <trkpt lat="42.404503" lon="-7.7369537">
        <time>2021-11-27T09:23:55Z</time>
      </trkpt>
      <trkpt lat="42.4045" lon="-7.7369747">
        <time>2021-11-27T09:23:56Z</time>
      </trkpt>
      <trkpt lat="42.404503" lon="-7.7369957">
        <time>2021-11-27T09:23:57Z</time>
      </trkpt>
      <trkpt lat="42.404503" lon="-7.737017">
        <time>2021-11-27T09:23:58Z</time>
      </trkpt>
      <trkpt lat="42.404507" lon="-7.7370386">
        <time>2021-11-27T09:23:59Z</time>
      </trkpt>
      <trkpt lat="42.404507" lon="-7.737062">
        <time>2021-11-27T09:24:00Z</time>
      </trkpt>
      <trkpt lat="42.404514" lon="-7.7370834">
        <time>2021-11-27T09:24:01Z</time>
      </trkpt>
      <trkpt lat="42.40452" lon="-7.7371006">
        <time>2021-11-27T09:24:02Z</time>
      </trkpt>
      <trkpt lat="42.40453" lon="-7.7371144">
        <time>2021-11-27T09:24:03Z</time>
      </trkpt>
      <trkpt lat="42.404537" lon="-7.737126">
        <time>2021-11-27T09:24:04Z</time>
      </trkpt>
      <trkpt lat="42.404545" lon="-7.737136">
        <time>2021-11-27T09:24:05Z</time>
      </trkpt>
      <trkpt lat="42.404556" lon="-7.7371454">
        <time>2021-11-27T09:24:06Z</time>
      </trkpt>
      <trkpt lat="42.404564" lon="-7.737154">
        <time>2021-11-27T09:24:07Z</time>
      </trkpt>
      <trkpt lat="42.40458" lon="-7.737161">
        <time>2021-11-27T09:24:08Z</time>
      </trkpt>
      <trkpt lat="42.404594" lon="-7.7371674">
        <time>2021-11-27T09:24:09Z</time>
      </trkpt>
      <trkpt lat="42.40461" lon="-7.7371745">
        <time>2021-11-27T09:24:10Z</time>
      </trkpt>
      <trkpt lat="42.404617" lon="-7.7371836">
        <time>2021-11-27T09:24:11Z</time>
      </trkpt>
      <trkpt lat="42.404625" lon="-7.737195">
        <time>2021-11-27T09:24:12Z</time>
      </trkpt>
      <trkpt lat="42.404633" lon="-7.737208">
        <time>2021-11-27T09:24:13Z</time>
      </trkpt>
      <trkpt lat="42.40464" lon="-7.7372184">
        <time>2021-11-27T09:24:14Z</time>
      </trkpt>
      <trkpt lat="42.404648" lon="-7.7372274">
        <time>2021-11-27T09:24:15Z</time>
      </trkpt>
      <trkpt lat="42.404655" lon="-7.737237">
        <time>2021-11-27T09:24:16Z</time>
      </trkpt>
      <trkpt lat="42.40466" lon="-7.7372475">
        <time>2021-11-27T09:24:17Z</time>
      </trkpt>
      <trkpt lat="42.404667" lon="-7.737259">
        <time>2021-11-27T09:24:18Z</time>
      </trkpt>
      <trkpt lat="42.404675" lon="-7.737272">
        <time>2021-11-27T09:24:19Z</time>
      </trkpt>
      <trkpt lat="42.404686" lon="-7.737283">
        <time>2021-11-27T09:24:20Z</time>
      </trkpt>
      <trkpt lat="42.404694" lon="-7.737296">
        <time>2021-11-27T09:24:21Z</time>
      </trkpt>
      <trkpt lat="42.404705" lon="-7.73731">
        <time>2021-11-27T09:24:22Z</time>
      </trkpt>
      <trkpt lat="42.404716" lon="-7.7373285">
        <time>2021-11-27T09:24:23Z</time>
      </trkpt>
      <trkpt lat="42.404728" lon="-7.737344">
        <time>2021-11-27T09:24:24Z</time>
      </trkpt>
      <trkpt lat="42.40474" lon="-7.7373605">
        <time>2021-11-27T09:24:25Z</time>
      </trkpt>
      <trkpt lat="42.404755" lon="-7.73738">
        <time>2021-11-27T09:24:26Z</time>
      </trkpt>
      <trkpt lat="42.404766" lon="-7.7373986">
        <time>2021-11-27T09:24:27Z</time>
      </trkpt>
      <trkpt lat="42.40478" lon="-7.737418">
        <time>2021-11-27T09:24:28Z</time>
      </trkpt>
      <trkpt lat="42.40479" lon="-7.737437">
        <time>2021-11-27T09:24:29Z</time>
      </trkpt>
      <trkpt lat="42.4048" lon="-7.737453">
        <time>2021-11-27T09:24:30Z</time>
      </trkpt>
      <trkpt lat="42.40481" lon="-7.7374682">
        <time>2021-11-27T09:24:31Z</time>
      </trkpt>
      <trkpt lat="42.404823" lon="-7.737484">
        <time>2021-11-27T09:24:32Z</time>
      </trkpt>
      <trkpt lat="42.404835" lon="-7.7374988">
        <time>2021-11-27T09:24:33Z</time>
      </trkpt>
      <trkpt lat="42.404846" lon="-7.737511">
        <time>2021-11-27T09:24:34Z</time>
      </trkpt>
      <trkpt lat="42.404858" lon="-7.7375226">
        <time>2021-11-27T09:24:35Z</time>
      </trkpt>
      <trkpt lat="42.40487" lon="-7.7375364">
        <time>2021-11-27T09:24:36Z</time>
      </trkpt>
      <trkpt lat="42.40488" lon="-7.737551">
        <time>2021-11-27T09:24:37Z</time>
      </trkpt>
      <trkpt lat="42.40489" lon="-7.737567">
        <time>2021-11-27T09:24:38Z</time>
      </trkpt>
      <trkpt lat="42.404896" lon="-7.737583">
        <time>2021-11-27T09:24:39Z</time>
      </trkpt>
      <trkpt lat="42.4049" lon="-7.7375994">
        <time>2021-11-27T09:24:40Z</time>
      </trkpt>
      <trkpt lat="42.404903" lon="-7.7376137">
        <time>2021-11-27T09:24:41Z</time>
      </trkpt>
      <trkpt lat="42.40491" lon="-7.73763">
        <time>2021-11-27T09:24:42Z</time>
      </trkpt>
      <trkpt lat="42.404915" lon="-7.7376523">
        <time>2021-11-27T09:24:43Z</time>
      </trkpt>
      <trkpt lat="42.40492" lon="-7.7376785">
        <time>2021-11-27T09:24:44Z</time>
      </trkpt>
      <trkpt lat="42.404926" lon="-7.737704">
        <time>2021-11-27T09:24:45Z</time>
      </trkpt>
      <trkpt lat="42.40493" lon="-7.7377253">
        <time>2021-11-27T09:24:46Z</time>
      </trkpt>
      <trkpt lat="42.404934" lon="-7.7377486">
        <time>2021-11-27T09:24:47Z</time>
      </trkpt>
      <trkpt lat="42.404938" lon="-7.737771">
        <time>2021-11-27T09:24:48Z</time>
      </trkpt>
      <trkpt lat="42.40494" lon="-7.7377906">
        <time>2021-11-27T09:24:49Z</time>
      </trkpt>
      <trkpt lat="42.40494" lon="-7.737807">
        <time>2021-11-27T09:24:50Z</time>
      </trkpt>
      <trkpt lat="42.404945" lon="-7.73782">
        <time>2021-11-27T09:24:51Z</time>
      </trkpt>
      <trkpt lat="42.40495" lon="-7.7378316">
        <time>2021-11-27T09:24:52Z</time>
      </trkpt>
      <trkpt lat="42.40496" lon="-7.7378407">
        <time>2021-11-27T09:24:53Z</time>
      </trkpt>
      <trkpt lat="42.404972" lon="-7.737852">
        <time>2021-11-27T09:24:54Z</time>
      </trkpt>
      <trkpt lat="42.40498" lon="-7.7378654">
        <time>2021-11-27T09:24:55Z</time>
      </trkpt>
      <trkpt lat="42.404987" lon="-7.73788">
        <time>2021-11-27T09:24:56Z</time>
      </trkpt>
      <trkpt lat="42.404995" lon="-7.7378983">
        <time>2021-11-27T09:24:57Z</time>
      </trkpt>
      <trkpt lat="42.405" lon="-7.737919">
        <time>2021-11-27T09:24:58Z</time>
      </trkpt>
      <trkpt lat="42.405003" lon="-7.7379384">
        <time>2021-11-27T09:24:59Z</time>
      </trkpt>
      <trkpt lat="42.405006" lon="-7.7379565">
        <time>2021-11-27T09:25:00Z</time>
      </trkpt>
      <trkpt lat="42.405006" lon="-7.737973">
        <time>2021-11-27T09:25:01Z</time>
      </trkpt>
      <trkpt lat="42.405006" lon="-7.737992">
        <time>2021-11-27T09:25:02Z</time>
      </trkpt>
      <trkpt lat="42.405006" lon="-7.738011">
        <time>2021-11-27T09:25:03Z</time>
      </trkpt>
      <trkpt lat="42.405003" lon="-7.738029">
        <time>2021-11-27T09:25:04Z</time>
      </trkpt>
      <trkpt lat="42.405" lon="-7.738048">
        <time>2021-11-27T09:25:05Z</time>
      </trkpt>
      <trkpt lat="42.405" lon="-7.738067">
        <time>2021-11-27T09:25:06Z</time>
      </trkpt>
      <trkpt lat="42.405" lon="-7.7380877">
        <time>2021-11-27T09:25:07Z</time>
      </trkpt>
      <trkpt lat="42.405" lon="-7.7381063">
        <time>2021-11-27T09:25:08Z</time>
      </trkpt>
      <trkpt lat="42.405003" lon="-7.738125">
        <time>2021-11-27T09:25:09Z</time>
      </trkpt>
      <trkpt lat="42.405003" lon="-7.738142">
        <time>2021-11-27T09:25:10Z</time>
      </trkpt>
      <trkpt lat="42.405006" lon="-7.7381587">
        <time>2021-11-27T09:25:11Z</time>
      </trkpt>
      <trkpt lat="42.40501" lon="-7.738175">
        <time>2021-11-27T09:25:12Z</time>
      </trkpt>
      <trkpt lat="42.405018" lon="-7.738191">
        <time>2021-11-27T09:25:13Z</time>
      </trkpt>
      <trkpt lat="42.40502" lon="-7.7382073">
        <time>2021-11-27T09:25:14Z</time>
      </trkpt>
      <trkpt lat="42.405025" lon="-7.738226">
        <time>2021-11-27T09:25:15Z</time>
      </trkpt>
      <trkpt lat="42.40503" lon="-7.738242">
        <time>2021-11-27T09:25:16Z</time>
      </trkpt>
      <trkpt lat="42.405037" lon="-7.738258">
        <time>2021-11-27T09:25:17Z</time>
      </trkpt>
      <trkpt lat="42.40504" lon="-7.7382727">
        <time>2021-11-27T09:25:18Z</time>
      </trkpt>
      <trkpt lat="42.40505" lon="-7.7382855">
        <time>2021-11-27T09:25:19Z</time>
      </trkpt>
      <trkpt lat="42.405052" lon="-7.738299">
        <time>2021-11-27T09:25:20Z</time>
      </trkpt>
      <trkpt lat="42.405056" lon="-7.738314">
        <time>2021-11-27T09:25:21Z</time>
      </trkpt>
      <trkpt lat="42.405056" lon="-7.7383327">
        <time>2021-11-27T09:25:22Z</time>
      </trkpt>
      <trkpt lat="42.405052" lon="-7.738352">
        <time>2021-11-27T09:25:23Z</time>
      </trkpt>
      <trkpt lat="42.405052" lon="-7.738368">
        <time>2021-11-27T09:25:24Z</time>
      </trkpt>
      <trkpt lat="42.40505" lon="-7.7383814">
        <time>2021-11-27T09:25:25Z</time>
      </trkpt>
      <trkpt lat="42.405045" lon="-7.738396">
        <time>2021-11-27T09:25:26Z</time>
      </trkpt>
      <trkpt lat="42.405045" lon="-7.7384114">
        <time>2021-11-27T09:25:27Z</time>
      </trkpt>
      <trkpt lat="42.40504" lon="-7.7384257">
        <time>2021-11-27T09:25:28Z</time>
      </trkpt>
      <trkpt lat="42.405037" lon="-7.738439">
        <time>2021-11-27T09:25:29Z</time>
      </trkpt>
      <trkpt lat="42.40503" lon="-7.738452">
        <time>2021-11-27T09:25:30Z</time>
      </trkpt>
      <trkpt lat="42.40502" lon="-7.738464">
        <time>2021-11-27T09:25:31Z</time>
      </trkpt>
      <trkpt lat="42.405014" lon="-7.7384744">
        <time>2021-11-27T09:25:32Z</time>
      </trkpt>
      <trkpt lat="42.405006" lon="-7.7384844">
        <time>2021-11-27T09:25:33Z</time>
      </trkpt>
      <trkpt lat="42.404995" lon="-7.7384953">
        <time>2021-11-27T09:25:34Z</time>
      </trkpt>
      <trkpt lat="42.404984" lon="-7.7385077">
        <time>2021-11-27T09:25:35Z</time>
      </trkpt>
      <trkpt lat="42.404976" lon="-7.73852">
        <time>2021-11-27T09:25:36Z</time>
      </trkpt>
      <trkpt lat="42.40497" lon="-7.7385325">
        <time>2021-11-27T09:25:37Z</time>
      </trkpt>
      <trkpt lat="42.404957" lon="-7.738544">
        <time>2021-11-27T09:25:38Z</time>
      </trkpt>
      <trkpt lat="42.40495" lon="-7.738555">
        <time>2021-11-27T09:25:39Z</time>
      </trkpt>
      <trkpt lat="42.40494" lon="-7.7385664">
        <time>2021-11-27T09:25:40Z</time>
      </trkpt>
      <trkpt lat="42.404934" lon="-7.7385817">
        <time>2021-11-27T09:25:41Z</time>
      </trkpt>
      <trkpt lat="42.404926" lon="-7.7386">
        <time>2021-11-27T09:25:42Z</time>
      </trkpt>
      <trkpt lat="42.40492" lon="-7.7386174">
        <time>2021-11-27T09:25:43Z</time>
      </trkpt>
      <trkpt lat="42.404915" lon="-7.7386355">
        <time>2021-11-27T09:25:44Z</time>
      </trkpt>
      <trkpt lat="42.40491" lon="-7.738654">
        <time>2021-11-27T09:25:45Z</time>
      </trkpt>
      <trkpt lat="42.40491" lon="-7.7386737">
        <time>2021-11-27T09:25:46Z</time>
      </trkpt>
      <trkpt lat="42.40491" lon="-7.738693">
        <time>2021-11-27T09:25:47Z</time>
      </trkpt>
      <trkpt lat="42.404915" lon="-7.738709">
        <time>2021-11-27T09:25:48Z</time>
      </trkpt>
      <trkpt lat="42.40492" lon="-7.7387247">
        <time>2021-11-27T09:25:49Z</time>
      </trkpt>
      <trkpt lat="42.404926" lon="-7.7387404">
        <time>2021-11-27T09:25:50Z</time>
      </trkpt>
      <trkpt lat="42.40493" lon="-7.7387586">
        <time>2021-11-27T09:25:51Z</time>
      </trkpt>
      <trkpt lat="42.404934" lon="-7.7387757">
        <time>2021-11-27T09:25:52Z</time>
      </trkpt>
      <trkpt lat="42.40494" lon="-7.7387924">
        <time>2021-11-27T09:25:53Z</time>
      </trkpt>
      <trkpt lat="42.404945" lon="-7.7388077">
        <time>2021-11-27T09:25:54Z</time>
      </trkpt>
      <trkpt lat="42.404953" lon="-7.7388225">
        <time>2021-11-27T09:25:55Z</time>
      </trkpt>
      <trkpt lat="42.404957" lon="-7.738838">
        <time>2021-11-27T09:25:56Z</time>
      </trkpt>
      <trkpt lat="42.404957" lon="-7.738856">
        <time>2021-11-27T09:25:57Z</time>
      </trkpt>
      <trkpt lat="42.40496" lon="-7.7388725">
        <time>2021-11-27T09:25:58Z</time>
      </trkpt>
      <trkpt lat="42.40497" lon="-7.7388897">
        <time>2021-11-27T09:25:59Z</time>
      </trkpt>
      <trkpt lat="42.404976" lon="-7.7389064">
        <time>2021-11-27T09:26:00Z</time>
      </trkpt>
      <trkpt lat="42.40498" lon="-7.738925">
        <time>2021-11-27T09:26:01Z</time>
      </trkpt>
      <trkpt lat="42.404984" lon="-7.738944">
        <time>2021-11-27T09:26:02Z</time>
      </trkpt>
      <trkpt lat="42.40499" lon="-7.738963">
        <time>2021-11-27T09:26:03Z</time>
      </trkpt>
      <trkpt lat="42.404995" lon="-7.7389812">
        <time>2021-11-27T09:26:04Z</time>
      </trkpt>
      <trkpt lat="42.405003" lon="-7.738998">
        <time>2021-11-27T09:26:05Z</time>
      </trkpt>
      <trkpt lat="42.405006" lon="-7.739015">
        <time>2021-11-27T09:26:06Z</time>
      </trkpt>
      <trkpt lat="42.405014" lon="-7.7390323">
        <time>2021-11-27T09:26:07Z</time>
      </trkpt>
      <trkpt lat="42.405018" lon="-7.739053">
        <time>2021-11-27T09:26:08Z</time>
      </trkpt>
      <trkpt lat="42.40502" lon="-7.739073">
        <time>2021-11-27T09:26:09Z</time>
      </trkpt>
      <trkpt lat="42.405025" lon="-7.7390885">
        <time>2021-11-27T09:26:10Z</time>
      </trkpt>
      <trkpt lat="42.40503" lon="-7.7391033">
        <time>2021-11-27T09:26:11Z</time>
      </trkpt>
      <trkpt lat="42.405033" lon="-7.7391176">
        <time>2021-11-27T09:26:12Z</time>
      </trkpt>
      <trkpt lat="42.405037" lon="-7.739133">
        <time>2021-11-27T09:26:13Z</time>
      </trkpt>
      <trkpt lat="42.405045" lon="-7.7391477">
        <time>2021-11-27T09:26:14Z</time>
      </trkpt>
      <trkpt lat="42.40505" lon="-7.7391624">
        <time>2021-11-27T09:26:15Z</time>
      </trkpt>
      <trkpt lat="42.405052" lon="-7.739176">
        <time>2021-11-27T09:26:16Z</time>
      </trkpt>
      <trkpt lat="42.40506" lon="-7.739191">
        <time>2021-11-27T09:26:17Z</time>
      </trkpt>
      <trkpt lat="42.405064" lon="-7.7392063">
        <time>2021-11-27T09:26:18Z</time>
      </trkpt>
      <trkpt lat="42.40507" lon="-7.739221">
        <time>2021-11-27T09:26:19Z</time>
      </trkpt>
      <trkpt lat="42.405083" lon="-7.7392335">
        <time>2021-11-27T09:26:20Z</time>
      </trkpt>
      <trkpt lat="42.40509" lon="-7.739243">
        <time>2021-11-27T09:26:21Z</time>
      </trkpt>
      <trkpt lat="42.4051" lon="-7.7392516">
        <time>2021-11-27T09:26:22Z</time>
      </trkpt>
      <trkpt lat="42.405113" lon="-7.7392616">
        <time>2021-11-27T09:26:23Z</time>
      </trkpt>
      <trkpt lat="42.40512" lon="-7.7392683">
        <time>2021-11-27T09:26:24Z</time>
      </trkpt>
      <trkpt lat="42.405136" lon="-7.739275">
        <time>2021-11-27T09:26:25Z</time>
      </trkpt>
      <trkpt lat="42.405148" lon="-7.739281">
        <time>2021-11-27T09:26:26Z</time>
      </trkpt>
      <trkpt lat="42.405163" lon="-7.739288">
        <time>2021-11-27T09:26:27Z</time>
      </trkpt>
      <trkpt lat="42.40517" lon="-7.7392936">
        <time>2021-11-27T09:26:28Z</time>
      </trkpt>
      <trkpt lat="42.40518" lon="-7.7393003">
        <time>2021-11-27T09:26:29Z</time>
      </trkpt>
      <trkpt lat="42.405197" lon="-7.7393107">
        <time>2021-11-27T09:26:30Z</time>
      </trkpt>
      <trkpt lat="42.40521" lon="-7.7393236">
        <time>2021-11-27T09:26:31Z</time>
      </trkpt>
      <trkpt lat="42.405216" lon="-7.7393374">
        <time>2021-11-27T09:26:32Z</time>
      </trkpt>
      <trkpt lat="42.405224" lon="-7.73935">
        <time>2021-11-27T09:26:33Z</time>
      </trkpt>
      <trkpt lat="42.40523" lon="-7.7393627">
        <time>2021-11-27T09:26:34Z</time>
      </trkpt>
      <trkpt lat="42.405235" lon="-7.7393756">
        <time>2021-11-27T09:26:35Z</time>
      </trkpt>
      <trkpt lat="42.40524" lon="-7.739387">
        <time>2021-11-27T09:26:36Z</time>
      </trkpt>
      <trkpt lat="42.405247" lon="-7.7393956">
        <time>2021-11-27T09:26:37Z</time>
      </trkpt>
      <trkpt lat="42.405262" lon="-7.739403">
        <time>2021-11-27T09:26:38Z</time>
      </trkpt>
      <trkpt lat="42.40527" lon="-7.739412">
        <time>2021-11-27T09:26:39Z</time>
      </trkpt>
      <trkpt lat="42.40528" lon="-7.739422">
        <time>2021-11-27T09:26:40Z</time>
      </trkpt>
      <trkpt lat="42.405293" lon="-7.739434">
        <time>2021-11-27T09:26:41Z</time>
      </trkpt>
      <trkpt lat="42.4053" lon="-7.7394443">
        <time>2021-11-27T09:26:42Z</time>
      </trkpt>
      <trkpt lat="42.405308" lon="-7.739455">
        <time>2021-11-27T09:26:43Z</time>
      </trkpt>
      <trkpt lat="42.40532" lon="-7.739466">
        <time>2021-11-27T09:26:44Z</time>
      </trkpt>
      <trkpt lat="42.405327" lon="-7.7394767">
        <time>2021-11-27T09:26:45Z</time>
      </trkpt>
      <trkpt lat="42.405334" lon="-7.739486">
        <time>2021-11-27T09:26:46Z</time>
      </trkpt>
      <trkpt lat="42.405342" lon="-7.7394958">
        <time>2021-11-27T09:26:47Z</time>
      </trkpt>
      <trkpt lat="42.40535" lon="-7.7395086">
        <time>2021-11-27T09:26:48Z</time>
      </trkpt>
      <trkpt lat="42.405357" lon="-7.739522">
        <time>2021-11-27T09:26:49Z</time>
      </trkpt>
      <trkpt lat="42.40536" lon="-7.7395353">
        <time>2021-11-27T09:26:49Z</time>
      </trkpt>
      <trkpt lat="42.40537" lon="-7.7395463">
        <time>2021-11-27T09:26:50Z</time>
      </trkpt>
      <trkpt lat="42.405373" lon="-7.7395554">
        <time>2021-11-27T09:26:51Z</time>
      </trkpt>
      <trkpt lat="42.40538" lon="-7.739564">
        <time>2021-11-27T09:26:52Z</time>
      </trkpt>
      <trkpt lat="42.405388" lon="-7.739573">
        <time>2021-11-27T09:26:54Z</time>
      </trkpt>
      <trkpt lat="42.40539" lon="-7.73958">
        <time>2021-11-27T09:26:54Z</time>
      </trkpt>
      <trkpt lat="42.405396" lon="-7.7395883">
        <time>2021-11-27T09:26:55Z</time>
      </trkpt>
      <trkpt lat="42.4054" lon="-7.7395973">
        <time>2021-11-27T09:26:56Z</time>
      </trkpt>
      <trkpt lat="42.405403" lon="-7.7396083">
        <time>2021-11-27T09:26:57Z</time>
      </trkpt>
      <trkpt lat="42.405407" lon="-7.739621">
        <time>2021-11-27T09:26:58Z</time>
      </trkpt>
      <trkpt lat="42.40541" lon="-7.7396345">
        <time>2021-11-27T09:26:59Z</time>
      </trkpt>
      <trkpt lat="42.40541" lon="-7.7396507">
        <time>2021-11-27T09:27:00Z</time>
      </trkpt>
      <trkpt lat="42.405415" lon="-7.7396693">
        <time>2021-11-27T09:27:01Z</time>
      </trkpt>
      <trkpt lat="42.40542" lon="-7.739689">
        <time>2021-11-27T09:27:02Z</time>
      </trkpt>
      <trkpt lat="42.40542" lon="-7.7397094">
        <time>2021-11-27T09:27:03Z</time>
      </trkpt>
      <trkpt lat="42.405426" lon="-7.7397323">
        <time>2021-11-27T09:27:04Z</time>
      </trkpt>
      <trkpt lat="42.405426" lon="-7.7397547">
        <time>2021-11-27T09:27:05Z</time>
      </trkpt>
      <trkpt lat="42.405434" lon="-7.739777">
        <time>2021-11-27T09:27:06Z</time>
      </trkpt>
      <trkpt lat="42.405437" lon="-7.739794">
        <time>2021-11-27T09:27:07Z</time>
      </trkpt>
      <trkpt lat="42.40544" lon="-7.7398086">
        <time>2021-11-27T09:27:08Z</time>
      </trkpt>
      <trkpt lat="42.40545" lon="-7.739824">
        <time>2021-11-27T09:27:09Z</time>
      </trkpt>
      <trkpt lat="42.405457" lon="-7.7398386">
        <time>2021-11-27T09:27:10Z</time>
      </trkpt>
      <trkpt lat="42.405464" lon="-7.739853">
        <time>2021-11-27T09:27:11Z</time>
      </trkpt>
      <trkpt lat="42.405464" lon="-7.73987">
        <time>2021-11-27T09:27:12Z</time>
      </trkpt>
      <trkpt lat="42.405464" lon="-7.739888">
        <time>2021-11-27T09:27:13Z</time>
      </trkpt>
      <trkpt lat="42.405464" lon="-7.739906">
        <time>2021-11-27T09:27:14Z</time>
      </trkpt>
      <trkpt lat="42.405464" lon="-7.739922">
        <time>2021-11-27T09:27:15Z</time>
      </trkpt>
      <trkpt lat="42.405464" lon="-7.739936">
        <time>2021-11-27T09:27:16Z</time>
      </trkpt>
      <trkpt lat="42.405468" lon="-7.739949">
        <time>2021-11-27T09:27:17Z</time>
      </trkpt>
      <trkpt lat="42.40547" lon="-7.739965">
        <time>2021-11-27T09:27:18Z</time>
      </trkpt>
      <trkpt lat="42.40548" lon="-7.7399826">
        <time>2021-11-27T09:27:19Z</time>
      </trkpt>
      <trkpt lat="42.405487" lon="-7.740002">
        <time>2021-11-27T09:27:20Z</time>
      </trkpt>
      <trkpt lat="42.40549" lon="-7.740021">
        <time>2021-11-27T09:27:21Z</time>
      </trkpt>
      <trkpt lat="42.405495" lon="-7.740035">
        <time>2021-11-27T09:27:22Z</time>
      </trkpt>
      <trkpt lat="42.405502" lon="-7.7400465">
        <time>2021-11-27T09:27:23Z</time>
      </trkpt>
      <trkpt lat="42.40551" lon="-7.7400565">
        <time>2021-11-27T09:27:24Z</time>
      </trkpt>
      <trkpt lat="42.405518" lon="-7.7400684">
        <time>2021-11-27T09:27:25Z</time>
      </trkpt>
      <trkpt lat="42.405525" lon="-7.740078">
        <time>2021-11-27T09:27:26Z</time>
      </trkpt>
      <trkpt lat="42.405533" lon="-7.7400904">
        <time>2021-11-27T09:27:27Z</time>
      </trkpt>
      <trkpt lat="42.40554" lon="-7.740102">
        <time>2021-11-27T09:27:28Z</time>
      </trkpt>
      <trkpt lat="42.40555" lon="-7.7401147">
        <time>2021-11-27T09:27:29Z</time>
      </trkpt>
      <trkpt lat="42.405552" lon="-7.7401285">
        <time>2021-11-27T09:27:30Z</time>
      </trkpt>
      <trkpt lat="42.40556" lon="-7.740142">
        <time>2021-11-27T09:27:31Z</time>
      </trkpt>
      <trkpt lat="42.40556" lon="-7.740156">
        <time>2021-11-27T09:27:32Z</time>
      </trkpt>
      <trkpt lat="42.405563" lon="-7.7401695">
        <time>2021-11-27T09:27:33Z</time>
      </trkpt>
      <trkpt lat="42.405567" lon="-7.740185">
        <time>2021-11-27T09:27:34Z</time>
      </trkpt>
      <trkpt lat="42.40557" lon="-7.7402005">
        <time>2021-11-27T09:27:35Z</time>
      </trkpt>
      <trkpt lat="42.405575" lon="-7.740216">
        <time>2021-11-27T09:27:36Z</time>
      </trkpt>
      <trkpt lat="42.40558" lon="-7.7402334">
        <time>2021-11-27T09:27:37Z</time>
      </trkpt>
      <trkpt lat="42.405582" lon="-7.7402534">
        <time>2021-11-27T09:27:38Z</time>
      </trkpt>
      <trkpt lat="42.405582" lon="-7.7402725">
        <time>2021-11-27T09:27:39Z</time>
      </trkpt>
      <trkpt lat="42.405582" lon="-7.7402925">
        <time>2021-11-27T09:27:40Z</time>
      </trkpt>
      <trkpt lat="42.40558" lon="-7.740314">
        <time>2021-11-27T09:27:41Z</time>
      </trkpt>
      <trkpt lat="42.405575" lon="-7.740334">
        <time>2021-11-27T09:27:42Z</time>
      </trkpt>
      <trkpt lat="42.40557" lon="-7.740352">
        <time>2021-11-27T09:27:43Z</time>
      </trkpt>
      <trkpt lat="42.405567" lon="-7.740367">
        <time>2021-11-27T09:27:44Z</time>
      </trkpt>
      <trkpt lat="42.40556" lon="-7.740382">
        <time>2021-11-27T09:27:45Z</time>
      </trkpt>
      <trkpt lat="42.405556" lon="-7.740399">
        <time>2021-11-27T09:27:46Z</time>
      </trkpt>
      <trkpt lat="42.405552" lon="-7.7404165">
        <time>2021-11-27T09:27:47Z</time>
      </trkpt>
      <trkpt lat="42.40555" lon="-7.7404346">
        <time>2021-11-27T09:27:48Z</time>
      </trkpt>
      <trkpt lat="42.405544" lon="-7.740452">
        <time>2021-11-27T09:27:49Z</time>
      </trkpt>
      <trkpt lat="42.405544" lon="-7.740468">
        <time>2021-11-27T09:27:50Z</time>
      </trkpt>
      <trkpt lat="42.40554" lon="-7.7404804">
        <time>2021-11-27T09:27:51Z</time>
      </trkpt>
      <trkpt lat="42.405537" lon="-7.7404914">
        <time>2021-11-27T09:27:52Z</time>
      </trkpt>
      <trkpt lat="42.405537" lon="-7.7405005">
        <time>2021-11-27T09:27:53Z</time>
      </trkpt>
      <trkpt lat="42.405533" lon="-7.7405095">
        <time>2021-11-27T09:27:54Z</time>
      </trkpt>
      <trkpt lat="42.40553" lon="-7.7405205">
        <time>2021-11-27T09:27:55Z</time>
      </trkpt>
      <trkpt lat="42.40552" lon="-7.7405334">
        <time>2021-11-27T09:27:56Z</time>
      </trkpt>
      <trkpt lat="42.405518" lon="-7.7405477">
        <time>2021-11-27T09:27:57Z</time>
      </trkpt>
      <trkpt lat="42.40551" lon="-7.740564">
        <time>2021-11-27T09:27:58Z</time>
      </trkpt>
      <trkpt lat="42.405502" lon="-7.740579">
        <time>2021-11-27T09:27:59Z</time>
      </trkpt>
      <trkpt lat="42.405495" lon="-7.7405953">
        <time>2021-11-27T09:28:00Z</time>
      </trkpt>
      <trkpt lat="42.405487" lon="-7.740613">
        <time>2021-11-27T09:28:01Z</time>
      </trkpt>
      <trkpt lat="42.405483" lon="-7.7406325">
        <time>2021-11-27T09:28:02Z</time>
      </trkpt>
      <trkpt lat="42.405476" lon="-7.7406516">
        <time>2021-11-27T09:28:03Z</time>
      </trkpt>
      <trkpt lat="42.405468" lon="-7.740673">
        <time>2021-11-27T09:28:04Z</time>
      </trkpt>
      <trkpt lat="42.405457" lon="-7.740695">
        <time>2021-11-27T09:28:05Z</time>
      </trkpt>
      <trkpt lat="42.40545" lon="-7.7407174">
        <time>2021-11-27T09:28:06Z</time>
      </trkpt>
      <trkpt lat="42.40544" lon="-7.7407413">
        <time>2021-11-27T09:28:07Z</time>
      </trkpt>
      <trkpt lat="42.405434" lon="-7.740761">
        <time>2021-11-27T09:28:08Z</time>
      </trkpt>
      <trkpt lat="42.40543" lon="-7.7407813">
        <time>2021-11-27T09:28:09Z</time>
      </trkpt>
      <trkpt lat="42.405426" lon="-7.740799">
        <time>2021-11-27T09:28:10Z</time>
      </trkpt>
      <trkpt lat="42.405426" lon="-7.740815">
        <time>2021-11-27T09:28:11Z</time>
      </trkpt>
      <trkpt lat="42.405426" lon="-7.74083">
        <time>2021-11-27T09:28:12Z</time>
      </trkpt>
      <trkpt lat="42.405426" lon="-7.740845">
        <time>2021-11-27T09:28:13Z</time>
      </trkpt>
      <trkpt lat="42.405426" lon="-7.740856">
        <time>2021-11-27T09:28:14Z</time>
      </trkpt>
      <trkpt lat="42.405434" lon="-7.7408648">
        <time>2021-11-27T09:28:15Z</time>
      </trkpt>
      <trkpt lat="42.405437" lon="-7.7408724">
        <time>2021-11-27T09:28:16Z</time>
      </trkpt>
      <trkpt lat="42.405445" lon="-7.7408814">
        <time>2021-11-27T09:28:17Z</time>
      </trkpt>
      <trkpt lat="42.405453" lon="-7.7408934">
        <time>2021-11-27T09:28:18Z</time>
      </trkpt>
      <trkpt lat="42.405464" lon="-7.740906">
        <time>2021-11-27T09:28:19Z</time>
      </trkpt>
      <trkpt lat="42.405476" lon="-7.7409186">
        <time>2021-11-27T09:28:20Z</time>
      </trkpt>
      <trkpt lat="42.405487" lon="-7.740931">
        <time>2021-11-27T09:28:21Z</time>
      </trkpt>
      <trkpt lat="42.405495" lon="-7.740944">
        <time>2021-11-27T09:28:22Z</time>
      </trkpt>
      <trkpt lat="42.405506" lon="-7.7409563">
        <time>2021-11-27T09:28:23Z</time>
      </trkpt>
      <trkpt lat="42.405518" lon="-7.740963">
        <time>2021-11-27T09:28:24Z</time>
      </trkpt>
      <trkpt lat="42.40553" lon="-7.7409673">
        <time>2021-11-27T09:28:25Z</time>
      </trkpt>
      <trkpt lat="42.405544" lon="-7.740969">
        <time>2021-11-27T09:28:26Z</time>
      </trkpt>
      <trkpt lat="42.405552" lon="-7.7409716">
        <time>2021-11-27T09:28:27Z</time>
      </trkpt>
      <trkpt lat="42.405563" lon="-7.740975">
        <time>2021-11-27T09:28:28Z</time>
      </trkpt>
      <trkpt lat="42.405575" lon="-7.7409773">
        <time>2021-11-27T09:28:29Z</time>
      </trkpt>
      <trkpt lat="42.40559" lon="-7.7409797">
        <time>2021-11-27T09:28:30Z</time>
      </trkpt>
      <trkpt lat="42.4056" lon="-7.740981">
        <time>2021-11-27T09:28:31Z</time>
      </trkpt>
      <trkpt lat="42.405617" lon="-7.7409825">
        <time>2021-11-27T09:28:32Z</time>
      </trkpt>
      <trkpt lat="42.405632" lon="-7.7409825">
        <time>2021-11-27T09:28:33Z</time>
      </trkpt>
      <trkpt lat="42.405643" lon="-7.7409825">
        <time>2021-11-27T09:28:34Z</time>
      </trkpt>
      <trkpt lat="42.40566" lon="-7.740981">
        <time>2021-11-27T09:28:35Z</time>
      </trkpt>
      <trkpt lat="42.40567" lon="-7.740981">
        <time>2021-11-27T09:28:36Z</time>
      </trkpt>
      <trkpt lat="42.40568" lon="-7.740981">
        <time>2021-11-27T09:28:37Z</time>
      </trkpt>
      <trkpt lat="42.405693" lon="-7.740983">
        <time>2021-11-27T09:28:38Z</time>
      </trkpt>
      <trkpt lat="42.405704" lon="-7.7409835">
        <time>2021-11-27T09:28:39Z</time>
      </trkpt>
      <trkpt lat="42.40572" lon="-7.7409854">
        <time>2021-11-27T09:28:40Z</time>
      </trkpt>
      <trkpt lat="42.40573" lon="-7.740987">
        <time>2021-11-27T09:28:41Z</time>
      </trkpt>
      <trkpt lat="42.405746" lon="-7.7409873">
        <time>2021-11-27T09:28:42Z</time>
      </trkpt>
      <trkpt lat="42.405766" lon="-7.7409854">
        <time>2021-11-27T09:28:43Z</time>
      </trkpt>
      <trkpt lat="42.405777" lon="-7.7409863">
        <time>2021-11-27T09:28:44Z</time>
      </trkpt>
      <trkpt lat="42.405792" lon="-7.7409883">
        <time>2021-11-27T09:28:45Z</time>
      </trkpt>
      <trkpt lat="42.405804" lon="-7.7409925">
        <time>2021-11-27T09:28:46Z</time>
      </trkpt>
      <trkpt lat="42.405815" lon="-7.740999">
        <time>2021-11-27T09:28:47Z</time>
      </trkpt>
      <trkpt lat="42.405823" lon="-7.7410088">
        <time>2021-11-27T09:28:48Z</time>
      </trkpt>
      <trkpt lat="42.405834" lon="-7.7410197">
        <time>2021-11-27T09:28:49Z</time>
      </trkpt>
      <trkpt lat="42.405846" lon="-7.7410316">
        <time>2021-11-27T09:28:50Z</time>
      </trkpt>
      <trkpt lat="42.405853" lon="-7.741045">
        <time>2021-11-27T09:28:51Z</time>
      </trkpt>
      <trkpt lat="42.405865" lon="-7.74106">
        <time>2021-11-27T09:28:52Z</time>
      </trkpt>
      <trkpt lat="42.405876" lon="-7.741074">
        <time>2021-11-27T09:28:54Z</time>
      </trkpt>
      <trkpt lat="42.405884" lon="-7.74109">
        <time>2021-11-27T09:28:54Z</time>
      </trkpt>
      <trkpt lat="42.405895" lon="-7.7411065">
        <time>2021-11-27T09:28:55Z</time>
      </trkpt>
      <trkpt lat="42.4059" lon="-7.741122">
        <time>2021-11-27T09:28:56Z</time>
      </trkpt>
      <trkpt lat="42.405903" lon="-7.7411375">
        <time>2021-11-27T09:28:57Z</time>
      </trkpt>
      <trkpt lat="42.405907" lon="-7.7411532">
        <time>2021-11-27T09:28:58Z</time>
      </trkpt>
      <trkpt lat="42.40591" lon="-7.7411695">
        <time>2021-11-27T09:28:59Z</time>
      </trkpt>
      <trkpt lat="42.405914" lon="-7.741186">
        <time>2021-11-27T09:29:00Z</time>
      </trkpt>
      <trkpt lat="42.405922" lon="-7.7412033">
        <time>2021-11-27T09:29:01Z</time>
      </trkpt>
      <trkpt lat="42.405926" lon="-7.741221">
        <time>2021-11-27T09:29:02Z</time>
      </trkpt>
      <trkpt lat="42.405933" lon="-7.741237">
        <time>2021-11-27T09:29:03Z</time>
      </trkpt>
      <trkpt lat="42.405937" lon="-7.741255">
        <time>2021-11-27T09:29:04Z</time>
      </trkpt>
      <trkpt lat="42.40594" lon="-7.7412715">
        <time>2021-11-27T09:29:05Z</time>
      </trkpt>
      <trkpt lat="42.40595" lon="-7.74129">
        <time>2021-11-27T09:29:06Z</time>
      </trkpt>
      <trkpt lat="42.405956" lon="-7.741308">
        <time>2021-11-27T09:29:07Z</time>
      </trkpt>
      <trkpt lat="42.405956" lon="-7.7413254">
        <time>2021-11-27T09:29:08Z</time>
      </trkpt>
      <trkpt lat="42.40596" lon="-7.7413416">
        <time>2021-11-27T09:29:09Z</time>
      </trkpt>
      <trkpt lat="42.405964" lon="-7.7413583">
        <time>2021-11-27T09:29:10Z</time>
      </trkpt>
      <trkpt lat="42.405964" lon="-7.7413735">
        <time>2021-11-27T09:29:11Z</time>
      </trkpt>
      <trkpt lat="42.40596" lon="-7.7413893">
        <time>2021-11-27T09:29:12Z</time>
      </trkpt>
      <trkpt lat="42.405956" lon="-7.7414055">
        <time>2021-11-27T09:29:13Z</time>
      </trkpt>
      <trkpt lat="42.405952" lon="-7.7414207">
        <time>2021-11-27T09:29:14Z</time>
      </trkpt>
      <trkpt lat="42.40595" lon="-7.741436">
        <time>2021-11-27T09:29:15Z</time>
      </trkpt>
      <trkpt lat="42.40594" lon="-7.7414527">
        <time>2021-11-27T09:29:16Z</time>
      </trkpt>
      <trkpt lat="42.405937" lon="-7.741469">
        <time>2021-11-27T09:29:17Z</time>
      </trkpt>
      <trkpt lat="42.40593" lon="-7.7414837">
        <time>2021-11-27T09:29:18Z</time>
      </trkpt>
      <trkpt lat="42.405922" lon="-7.7414985">
        <time>2021-11-27T09:29:19Z</time>
      </trkpt>
      <trkpt lat="42.405914" lon="-7.7415137">
        <time>2021-11-27T09:29:20Z</time>
      </trkpt>
      <trkpt lat="42.405907" lon="-7.741529">
        <time>2021-11-27T09:29:21Z</time>
      </trkpt>
      <trkpt lat="42.405903" lon="-7.741544">
        <time>2021-11-27T09:29:22Z</time>
      </trkpt>
      <trkpt lat="42.4059" lon="-7.741561">
        <time>2021-11-27T09:29:23Z</time>
      </trkpt>
      <trkpt lat="42.40589" lon="-7.741578">
        <time>2021-11-27T09:29:24Z</time>
      </trkpt>
      <trkpt lat="42.40589" lon="-7.7415977">
        <time>2021-11-27T09:29:25Z</time>
      </trkpt>
      <trkpt lat="42.405884" lon="-7.7416153">
        <time>2021-11-27T09:29:26Z</time>
      </trkpt>
      <trkpt lat="42.405884" lon="-7.741634">
        <time>2021-11-27T09:29:27Z</time>
      </trkpt>
      <trkpt lat="42.405884" lon="-7.7416525">
        <time>2021-11-27T09:29:28Z</time>
      </trkpt>
      <trkpt lat="42.405884" lon="-7.741669">
        <time>2021-11-27T09:29:29Z</time>
      </trkpt>
      <trkpt lat="42.405888" lon="-7.741688">
        <time>2021-11-27T09:29:30Z</time>
      </trkpt>
      <trkpt lat="42.40589" lon="-7.741707">
        <time>2021-11-27T09:29:31Z</time>
      </trkpt>
      <trkpt lat="42.40589" lon="-7.741727">
        <time>2021-11-27T09:29:32Z</time>
      </trkpt>
      <trkpt lat="42.405895" lon="-7.7417474">
        <time>2021-11-27T09:29:33Z</time>
      </trkpt>
      <trkpt lat="42.4059" lon="-7.74177">
        <time>2021-11-27T09:29:34Z</time>
      </trkpt>
      <trkpt lat="42.4059" lon="-7.7417912">
        <time>2021-11-27T09:29:35Z</time>
      </trkpt>
      <trkpt lat="42.405907" lon="-7.7418113">
        <time>2021-11-27T09:29:36Z</time>
      </trkpt>
      <trkpt lat="42.405914" lon="-7.74183">
        <time>2021-11-27T09:29:37Z</time>
      </trkpt>
      <trkpt lat="42.405922" lon="-7.7418437">
        <time>2021-11-27T09:29:38Z</time>
      </trkpt>
      <trkpt lat="42.40593" lon="-7.741856">
        <time>2021-11-27T09:29:39Z</time>
      </trkpt>
      <trkpt lat="42.40594" lon="-7.741867">
        <time>2021-11-27T09:29:40Z</time>
      </trkpt>
      <trkpt lat="42.40595" lon="-7.741877">
        <time>2021-11-27T09:29:41Z</time>
      </trkpt>
      <trkpt lat="42.405956" lon="-7.7418866">
        <time>2021-11-27T09:29:42Z</time>
      </trkpt>
      <trkpt lat="42.40597" lon="-7.7418942">
        <time>2021-11-27T09:29:43Z</time>
      </trkpt>
      <trkpt lat="42.40598" lon="-7.741903">
        <time>2021-11-27T09:29:44Z</time>
      </trkpt>
      <trkpt lat="42.405994" lon="-7.74191">
        <time>2021-11-27T09:29:45Z</time>
      </trkpt>
      <trkpt lat="42.406002" lon="-7.7419157">
        <time>2021-11-27T09:29:46Z</time>
      </trkpt>
      <trkpt lat="42.406013" lon="-7.741924">
        <time>2021-11-27T09:29:47Z</time>
      </trkpt>
      <trkpt lat="42.406025" lon="-7.7419324">
        <time>2021-11-27T09:29:48Z</time>
      </trkpt>
      <trkpt lat="42.406036" lon="-7.741941">
        <time>2021-11-27T09:29:49Z</time>
      </trkpt>
      <trkpt lat="42.406048" lon="-7.7419524">
        <time>2021-11-27T09:29:50Z</time>
      </trkpt>
      <trkpt lat="42.406055" lon="-7.7419624">
        <time>2021-11-27T09:29:51Z</time>
      </trkpt>
      <trkpt lat="42.40607" lon="-7.7419705">
        <time>2021-11-27T09:29:52Z</time>
      </trkpt>
      <trkpt lat="42.406082" lon="-7.7419777">
        <time>2021-11-27T09:29:54Z</time>
      </trkpt>
      <trkpt lat="42.406094" lon="-7.7419853">
        <time>2021-11-27T09:29:54Z</time>
      </trkpt>
      <trkpt lat="42.40611" lon="-7.7419944">
        <time>2021-11-27T09:29:55Z</time>
      </trkpt>
      <trkpt lat="42.406124" lon="-7.7420025">
        <time>2021-11-27T09:29:56Z</time>
      </trkpt>
      <trkpt lat="42.40614" lon="-7.7420096">
        <time>2021-11-27T09:29:57Z</time>
      </trkpt>
      <trkpt lat="42.406155" lon="-7.7420177">
        <time>2021-11-27T09:29:58Z</time>
      </trkpt>
      <trkpt lat="42.40617" lon="-7.7420273">
        <time>2021-11-27T09:29:59Z</time>
      </trkpt>
      <trkpt lat="42.406185" lon="-7.742036">
        <time>2021-11-27T09:30:00Z</time>
      </trkpt>
      <trkpt lat="42.4062" lon="-7.7420435">
        <time>2021-11-27T09:30:01Z</time>
      </trkpt>
      <trkpt lat="42.40621" lon="-7.742052">
        <time>2021-11-27T09:30:02Z</time>
      </trkpt>
      <trkpt lat="42.406227" lon="-7.742058">
        <time>2021-11-27T09:30:03Z</time>
      </trkpt>
      <trkpt lat="42.40624" lon="-7.7420626">
        <time>2021-11-27T09:30:04Z</time>
      </trkpt>
      <trkpt lat="42.40625" lon="-7.74207">
        <time>2021-11-27T09:30:05Z</time>
      </trkpt>
      <trkpt lat="42.40626" lon="-7.742083">
        <time>2021-11-27T09:30:06Z</time>
      </trkpt>
      <trkpt lat="42.40627" lon="-7.742098">
        <time>2021-11-27T09:30:07Z</time>
      </trkpt>
      <trkpt lat="42.406273" lon="-7.742111">
        <time>2021-11-27T09:30:08Z</time>
      </trkpt>
      <trkpt lat="42.40628" lon="-7.7421236">
        <time>2021-11-27T09:30:09Z</time>
      </trkpt>
      <trkpt lat="42.40629" lon="-7.7421346">
        <time>2021-11-27T09:30:10Z</time>
      </trkpt>
      <trkpt lat="42.40629" lon="-7.7421494">
        <time>2021-11-27T09:30:11Z</time>
      </trkpt>
      <trkpt lat="42.406292" lon="-7.7421646">
        <time>2021-11-27T09:30:12Z</time>
      </trkpt>
      <trkpt lat="42.406296" lon="-7.7421813">
        <time>2021-11-27T09:30:13Z</time>
      </trkpt>
      <trkpt lat="42.406296" lon="-7.7422">
        <time>2021-11-27T09:30:14Z</time>
      </trkpt>
      <trkpt lat="42.406296" lon="-7.7422194">
        <time>2021-11-27T09:30:15Z</time>
      </trkpt>
      <trkpt lat="42.406296" lon="-7.7422385">
        <time>2021-11-27T09:30:16Z</time>
      </trkpt>
      <trkpt lat="42.406296" lon="-7.742256">
        <time>2021-11-27T09:30:17Z</time>
      </trkpt>
      <trkpt lat="42.406296" lon="-7.742272">
        <time>2021-11-27T09:30:18Z</time>
      </trkpt>
      <trkpt lat="42.406296" lon="-7.742286">
        <time>2021-11-27T09:30:19Z</time>
      </trkpt>
      <trkpt lat="42.406296" lon="-7.742298">
        <time>2021-11-27T09:30:20Z</time>
      </trkpt>
      <trkpt lat="42.406292" lon="-7.7423096">
        <time>2021-11-27T09:30:21Z</time>
      </trkpt>
      <trkpt lat="42.40629" lon="-7.7423215">
        <time>2021-11-27T09:30:22Z</time>
      </trkpt>
      <trkpt lat="42.40628" lon="-7.742334">
        <time>2021-11-27T09:30:23Z</time>
      </trkpt>
      <trkpt lat="42.406273" lon="-7.742348">
        <time>2021-11-27T09:30:24Z</time>
      </trkpt>
      <trkpt lat="42.406265" lon="-7.7423615">
        <time>2021-11-27T09:30:25Z</time>
      </trkpt>
      <trkpt lat="42.406258" lon="-7.7423763">
        <time>2021-11-27T09:30:26Z</time>
      </trkpt>
      <trkpt lat="42.40625" lon="-7.7423897">
        <time>2021-11-27T09:30:27Z</time>
      </trkpt>
      <trkpt lat="42.40625" lon="-7.7424006">
        <time>2021-11-27T09:30:28Z</time>
      </trkpt>
      <trkpt lat="42.406242" lon="-7.7424097">
        <time>2021-11-27T09:30:29Z</time>
      </trkpt>
      <trkpt lat="42.406242" lon="-7.7424173">
        <time>2021-11-27T09:30:30Z</time>
      </trkpt>
      <trkpt lat="42.406242" lon="-7.742427">
        <time>2021-11-27T09:30:31Z</time>
      </trkpt>
      <trkpt lat="42.406235" lon="-7.7424383">
        <time>2021-11-27T09:30:32Z</time>
      </trkpt>
      <trkpt lat="42.406235" lon="-7.7424545">
        <time>2021-11-27T09:30:33Z</time>
      </trkpt>
      <trkpt lat="42.406235" lon="-7.7424736">
        <time>2021-11-27T09:30:34Z</time>
      </trkpt>
      <trkpt lat="42.406235" lon="-7.7424955">
        <time>2021-11-27T09:30:35Z</time>
      </trkpt>
      <trkpt lat="42.406235" lon="-7.7425165">
        <time>2021-11-27T09:30:36Z</time>
      </trkpt>
      <trkpt lat="42.40623" lon="-7.7425337">
        <time>2021-11-27T09:30:37Z</time>
      </trkpt>
      <trkpt lat="42.406227" lon="-7.7425485">
        <time>2021-11-27T09:30:38Z</time>
      </trkpt>
      <trkpt lat="42.40622" lon="-7.742562">
        <time>2021-11-27T09:30:39Z</time>
      </trkpt>
      <trkpt lat="42.406208" lon="-7.742571">
        <time>2021-11-27T09:30:40Z</time>
      </trkpt>
      <trkpt lat="42.406197" lon="-7.742576">
        <time>2021-11-27T09:30:41Z</time>
      </trkpt>
      <trkpt lat="42.406185" lon="-7.742578">
        <time>2021-11-27T09:30:42Z</time>
      </trkpt>
      <trkpt lat="42.406174" lon="-7.7425785">
        <time>2021-11-27T09:30:43Z</time>
      </trkpt>
      <trkpt lat="42.406162" lon="-7.7425785">
        <time>2021-11-27T09:30:44Z</time>
      </trkpt>
      <trkpt lat="42.40615" lon="-7.742579">
        <time>2021-11-27T09:30:45Z</time>
      </trkpt>
      <trkpt lat="42.40614" lon="-7.7425804">
        <time>2021-11-27T09:30:46Z</time>
      </trkpt>
      <trkpt lat="42.406128" lon="-7.742582">
        <time>2021-11-27T09:30:47Z</time>
      </trkpt>
      <trkpt lat="42.406116" lon="-7.742581">
        <time>2021-11-27T09:30:48Z</time>
      </trkpt>
      <trkpt lat="42.4061" lon="-7.7425766">
        <time>2021-11-27T09:30:49Z</time>
      </trkpt>
      <trkpt lat="42.40609" lon="-7.7425704">
        <time>2021-11-27T09:30:50Z</time>
      </trkpt>
      <trkpt lat="42.406075" lon="-7.7425632">
        <time>2021-11-27T09:30:51Z</time>
      </trkpt>
      <trkpt lat="42.40606" lon="-7.7425575">
        <time>2021-11-27T09:30:52Z</time>
      </trkpt>
      <trkpt lat="42.406044" lon="-7.742551">
        <time>2021-11-27T09:30:53Z</time>
      </trkpt>
      <trkpt lat="42.40603" lon="-7.742546">
        <time>2021-11-27T09:30:54Z</time>
      </trkpt>
      <trkpt lat="42.406017" lon="-7.7425423">
        <time>2021-11-27T09:30:55Z</time>
      </trkpt>
      <trkpt lat="42.406002" lon="-7.742539">
        <time>2021-11-27T09:30:56Z</time>
      </trkpt>
      <trkpt lat="42.405994" lon="-7.7425375">
        <time>2021-11-27T09:30:57Z</time>
      </trkpt>
      <trkpt lat="42.40598" lon="-7.7425375">
        <time>2021-11-27T09:30:58Z</time>
      </trkpt>
      <trkpt lat="42.40597" lon="-7.7425404">
        <time>2021-11-27T09:30:59Z</time>
      </trkpt>
      <trkpt lat="42.405956" lon="-7.742548">
        <time>2021-11-27T09:31:00Z</time>
      </trkpt>
      <trkpt lat="42.40595" lon="-7.7425594">
        <time>2021-11-27T09:31:01Z</time>
      </trkpt>
      <trkpt lat="42.40594" lon="-7.742574">
        <time>2021-11-27T09:31:02Z</time>
      </trkpt>
      <trkpt lat="42.405933" lon="-7.742588">
        <time>2021-11-27T09:31:03Z</time>
      </trkpt>
      <trkpt lat="42.40593" lon="-7.742601">
        <time>2021-11-27T09:31:04Z</time>
      </trkpt>
      <trkpt lat="42.405922" lon="-7.7426133">
        <time>2021-11-27T09:31:04Z</time>
      </trkpt>
      <trkpt lat="42.405914" lon="-7.7426276">
        <time>2021-11-27T09:31:05Z</time>
      </trkpt>
      <trkpt lat="42.405914" lon="-7.742644">
        <time>2021-11-27T09:31:06Z</time>
      </trkpt>
      <trkpt lat="42.405907" lon="-7.742662">
        <time>2021-11-27T09:31:07Z</time>
      </trkpt>
      <trkpt lat="42.405907" lon="-7.742681">
        <time>2021-11-27T09:31:08Z</time>
      </trkpt>
      <trkpt lat="42.405903" lon="-7.7426987">
        <time>2021-11-27T09:31:09Z</time>
      </trkpt>
      <trkpt lat="42.405903" lon="-7.742717">
        <time>2021-11-27T09:31:10Z</time>
      </trkpt>
      <trkpt lat="42.4059" lon="-7.742735">
        <time>2021-11-27T09:31:11Z</time>
      </trkpt>
      <trkpt lat="42.4059" lon="-7.7427506">
        <time>2021-11-27T09:31:12Z</time>
      </trkpt>
      <trkpt lat="42.4059" lon="-7.742766">
        <time>2021-11-27T09:31:13Z</time>
      </trkpt>
      <trkpt lat="42.4059" lon="-7.7427816">
        <time>2021-11-27T09:31:14Z</time>
      </trkpt>
      <trkpt lat="42.405895" lon="-7.742798">
        <time>2021-11-27T09:31:15Z</time>
      </trkpt>
      <trkpt lat="42.405895" lon="-7.742814">
        <time>2021-11-27T09:31:16Z</time>
      </trkpt>
      <trkpt lat="42.405895" lon="-7.7428308">
        <time>2021-11-27T09:31:17Z</time>
      </trkpt>
      <trkpt lat="42.405895" lon="-7.7428465">
        <time>2021-11-27T09:31:18Z</time>
      </trkpt>
      <trkpt lat="42.40589" lon="-7.7428627">
        <time>2021-11-27T09:31:19Z</time>
      </trkpt>
      <trkpt lat="42.40589" lon="-7.742881">
        <time>2021-11-27T09:31:20Z</time>
      </trkpt>
      <trkpt lat="42.405884" lon="-7.7428994">
        <time>2021-11-27T09:31:21Z</time>
      </trkpt>
      <trkpt lat="42.40588" lon="-7.742919">
        <time>2021-11-27T09:31:22Z</time>
      </trkpt>
      <trkpt lat="42.405876" lon="-7.742938">
        <time>2021-11-27T09:31:23Z</time>
      </trkpt>
      <trkpt lat="42.40587" lon="-7.7429576">
        <time>2021-11-27T09:31:24Z</time>
      </trkpt>
      <trkpt lat="42.405865" lon="-7.742976">
        <time>2021-11-27T09:31:25Z</time>
      </trkpt>
      <trkpt lat="42.40586" lon="-7.742994">
        <time>2021-11-27T09:31:26Z</time>
      </trkpt>
      <trkpt lat="42.405857" lon="-7.743013">
        <time>2021-11-27T09:31:27Z</time>
      </trkpt>
      <trkpt lat="42.405853" lon="-7.743031">
        <time>2021-11-27T09:31:28Z</time>
      </trkpt>
      <trkpt lat="42.405853" lon="-7.743047">
        <time>2021-11-27T09:31:29Z</time>
      </trkpt>
      <trkpt lat="42.40585" lon="-7.743061">
        <time>2021-11-27T09:31:30Z</time>
      </trkpt>
      <trkpt lat="42.405846" lon="-7.7430754">
        <time>2021-11-27T09:31:31Z</time>
      </trkpt>
      <trkpt lat="42.40584" lon="-7.743092">
        <time>2021-11-27T09:31:32Z</time>
      </trkpt>
      <trkpt lat="42.405838" lon="-7.743109">
        <time>2021-11-27T09:31:33Z</time>
      </trkpt>
      <trkpt lat="42.40583" lon="-7.7431264">
        <time>2021-11-27T09:31:34Z</time>
      </trkpt>
      <trkpt lat="42.405823" lon="-7.7431426">
        <time>2021-11-27T09:31:35Z</time>
      </trkpt>
      <trkpt lat="42.405815" lon="-7.7431583">
        <time>2021-11-27T09:31:36Z</time>
      </trkpt>
      <trkpt lat="42.40581" lon="-7.7431736">
        <time>2021-11-27T09:31:37Z</time>
      </trkpt>
      <trkpt lat="42.405804" lon="-7.743188">
        <time>2021-11-27T09:31:38Z</time>
      </trkpt>
      <trkpt lat="42.4058" lon="-7.7432">
        <time>2021-11-27T09:31:39Z</time>
      </trkpt>
      <trkpt lat="42.405792" lon="-7.7432117">
        <time>2021-11-27T09:31:40Z</time>
      </trkpt>
      <trkpt lat="42.405785" lon="-7.7432218">
        <time>2021-11-27T09:31:41Z</time>
      </trkpt>
      <trkpt lat="42.40578" lon="-7.7432327">
        <time>2021-11-27T09:31:42Z</time>
      </trkpt>
      <trkpt lat="42.405773" lon="-7.743246">
        <time>2021-11-27T09:31:43Z</time>
      </trkpt>
      <trkpt lat="42.405766" lon="-7.7432604">
        <time>2021-11-27T09:31:44Z</time>
      </trkpt>
      <trkpt lat="42.405754" lon="-7.743272">
        <time>2021-11-27T09:31:45Z</time>
      </trkpt>
      <trkpt lat="42.40574" lon="-7.7432804">
        <time>2021-11-27T09:31:46Z</time>
      </trkpt>
      <trkpt lat="42.405727" lon="-7.7432904">
        <time>2021-11-27T09:31:47Z</time>
      </trkpt>
      <trkpt lat="42.405716" lon="-7.7433">
        <time>2021-11-27T09:31:48Z</time>
      </trkpt>
      <trkpt lat="42.405704" lon="-7.743309">
        <time>2021-11-27T09:31:49Z</time>
      </trkpt>
      <trkpt lat="42.405697" lon="-7.7433195">
        <time>2021-11-27T09:31:50Z</time>
      </trkpt>
      <trkpt lat="42.40569" lon="-7.7433305">
        <time>2021-11-27T09:31:51Z</time>
      </trkpt>
      <trkpt lat="42.40568" lon="-7.7433414">
        <time>2021-11-27T09:31:53Z</time>
      </trkpt>
      <trkpt lat="42.40567" lon="-7.743356">
        <time>2021-11-27T09:31:53Z</time>
      </trkpt>
      <trkpt lat="42.40566" lon="-7.743371">
        <time>2021-11-27T09:31:54Z</time>
      </trkpt>
      <trkpt lat="42.40565" lon="-7.743386">
        <time>2021-11-27T09:31:55Z</time>
      </trkpt>
      <trkpt lat="42.40564" lon="-7.7433996">
        <time>2021-11-27T09:31:56Z</time>
      </trkpt>
      <trkpt lat="42.40563" lon="-7.7434125">
        <time>2021-11-27T09:31:57Z</time>
      </trkpt>
      <trkpt lat="42.405617" lon="-7.743426">
        <time>2021-11-27T09:31:58Z</time>
      </trkpt>
      <trkpt lat="42.405605" lon="-7.743439">
        <time>2021-11-27T09:31:59Z</time>
      </trkpt>
      <trkpt lat="42.405598" lon="-7.743452">
        <time>2021-11-27T09:32:00Z</time>
      </trkpt>
      <trkpt lat="42.40559" lon="-7.7434664">
        <time>2021-11-27T09:32:01Z</time>
      </trkpt>
      <trkpt lat="42.405582" lon="-7.7434793">
        <time>2021-11-27T09:32:02Z</time>
      </trkpt>
      <trkpt lat="42.405575" lon="-7.7434907">
        <time>2021-11-27T09:32:03Z</time>
      </trkpt>
      <trkpt lat="42.405567" lon="-7.7435026">
        <time>2021-11-27T09:32:04Z</time>
      </trkpt>
      <trkpt lat="42.40556" lon="-7.7435174">
        <time>2021-11-27T09:32:05Z</time>
      </trkpt>
      <trkpt lat="42.405552" lon="-7.743534">
        <time>2021-11-27T09:32:06Z</time>
      </trkpt>
      <trkpt lat="42.405552" lon="-7.743551">
        <time>2021-11-27T09:32:07Z</time>
      </trkpt>
      <trkpt lat="42.405544" lon="-7.743566">
        <time>2021-11-27T09:32:08Z</time>
      </trkpt>
      <trkpt lat="42.40555" lon="-7.743579">
        <time>2021-11-27T09:32:09Z</time>
      </trkpt>
      <trkpt lat="42.405552" lon="-7.7435884">
        <time>2021-11-27T09:32:10Z</time>
      </trkpt>
      <trkpt lat="42.405556" lon="-7.743597">
        <time>2021-11-27T09:32:11Z</time>
      </trkpt>
      <trkpt lat="42.405567" lon="-7.7436037">
        <time>2021-11-27T09:32:12Z</time>
      </trkpt>
      <trkpt lat="42.405575" lon="-7.7436104">
        <time>2021-11-27T09:32:13Z</time>
      </trkpt>
      <trkpt lat="42.405582" lon="-7.743618">
        <time>2021-11-27T09:32:14Z</time>
      </trkpt>
      <trkpt lat="42.405586" lon="-7.743627">
        <time>2021-11-27T09:32:15Z</time>
      </trkpt>
      <trkpt lat="42.405594" lon="-7.7436395">
        <time>2021-11-27T09:32:16Z</time>
      </trkpt>
      <trkpt lat="42.4056" lon="-7.743654">
        <time>2021-11-27T09:32:17Z</time>
      </trkpt>
      <trkpt lat="42.40561" lon="-7.7436676">
        <time>2021-11-27T09:32:18Z</time>
      </trkpt>
      <trkpt lat="42.405617" lon="-7.7436814">
        <time>2021-11-27T09:32:19Z</time>
      </trkpt>
      <trkpt lat="42.40563" lon="-7.743693">
        <time>2021-11-27T09:32:20Z</time>
      </trkpt>
      <trkpt lat="42.405636" lon="-7.7437024">
        <time>2021-11-27T09:32:21Z</time>
      </trkpt>
      <trkpt lat="42.405643" lon="-7.743714">
        <time>2021-11-27T09:32:22Z</time>
      </trkpt>
      <trkpt lat="42.405655" lon="-7.7437267">
        <time>2021-11-27T09:32:23Z</time>
      </trkpt>
      <trkpt lat="42.405666" lon="-7.7437396">
        <time>2021-11-27T09:32:24Z</time>
      </trkpt>
      <trkpt lat="42.405674" lon="-7.7437572">
        <time>2021-11-27T09:32:25Z</time>
      </trkpt>
      <trkpt lat="42.405678" lon="-7.7437773">
        <time>2021-11-27T09:32:26Z</time>
      </trkpt>
      <trkpt lat="42.405685" lon="-7.7437935">
        <time>2021-11-27T09:32:27Z</time>
      </trkpt>
      <trkpt lat="42.40569" lon="-7.7438087">
        <time>2021-11-27T09:32:28Z</time>
      </trkpt>
      <trkpt lat="42.405693" lon="-7.7438207">
        <time>2021-11-27T09:32:29Z</time>
      </trkpt>
      <trkpt lat="42.40569" lon="-7.743831">
        <time>2021-11-27T09:32:30Z</time>
      </trkpt>
      <trkpt lat="42.405685" lon="-7.743837">
        <time>2021-11-27T09:32:31Z</time>
      </trkpt>
      <trkpt lat="42.405678" lon="-7.743842">
        <time>2021-11-27T09:32:32Z</time>
      </trkpt>
      <trkpt lat="42.40567" lon="-7.7438445">
        <time>2021-11-27T09:32:33Z</time>
      </trkpt>
      <trkpt lat="42.40566" lon="-7.743848">
        <time>2021-11-27T09:32:34Z</time>
      </trkpt>
      <trkpt lat="42.40565" lon="-7.743852">
        <time>2021-11-27T09:32:35Z</time>
      </trkpt>
      <trkpt lat="42.405636" lon="-7.7438545">
        <time>2021-11-27T09:32:36Z</time>
      </trkpt>
      <trkpt lat="42.40562" lon="-7.7438564">
        <time>2021-11-27T09:32:37Z</time>
      </trkpt>
      <trkpt lat="42.405605" lon="-7.7438602">
        <time>2021-11-27T09:32:38Z</time>
      </trkpt>
      <trkpt lat="42.405594" lon="-7.743865">
        <time>2021-11-27T09:32:39Z</time>
      </trkpt>
      <trkpt lat="42.405582" lon="-7.7438703">
        <time>2021-11-27T09:32:40Z</time>
      </trkpt>
      <trkpt lat="42.405567" lon="-7.743875">
        <time>2021-11-27T09:32:41Z</time>
      </trkpt>
      <trkpt lat="42.405556" lon="-7.743882">
        <time>2021-11-27T09:32:42Z</time>
      </trkpt>
      <trkpt lat="42.405544" lon="-7.74389">
        <time>2021-11-27T09:32:43Z</time>
      </trkpt>
      <trkpt lat="42.405533" lon="-7.7438974">
        <time>2021-11-27T09:32:44Z</time>
      </trkpt>
      <trkpt lat="42.405518" lon="-7.743908">
        <time>2021-11-27T09:32:45Z</time>
      </trkpt>
      <trkpt lat="42.40551" lon="-7.743918">
        <time>2021-11-27T09:32:46Z</time>
      </trkpt>
      <trkpt lat="42.405495" lon="-7.7439303">
        <time>2021-11-27T09:32:47Z</time>
      </trkpt>
      <trkpt lat="42.405487" lon="-7.7439437">
        <time>2021-11-27T09:32:48Z</time>
      </trkpt>
      <trkpt lat="42.40547" lon="-7.7439547">
        <time>2021-11-27T09:32:49Z</time>
      </trkpt>
      <trkpt lat="42.40546" lon="-7.7439637">
        <time>2021-11-27T09:32:50Z</time>
      </trkpt>
      <trkpt lat="42.40545" lon="-7.7439713">
        <time>2021-11-27T09:32:51Z</time>
      </trkpt>
      <trkpt lat="42.405434" lon="-7.743978">
        <time>2021-11-27T09:32:52Z</time>
      </trkpt>
      <trkpt lat="42.405426" lon="-7.743984">
        <time>2021-11-27T09:32:54Z</time>
      </trkpt>
      <trkpt lat="42.405415" lon="-7.7439904">
        <time>2021-11-27T09:32:54Z</time>
      </trkpt>
      <trkpt lat="42.405403" lon="-7.743994">
        <time>2021-11-27T09:32:55Z</time>
      </trkpt>
      <trkpt lat="42.40539" lon="-7.7439985">
        <time>2021-11-27T09:32:56Z</time>
      </trkpt>
      <trkpt lat="42.40538" lon="-7.7440042">
        <time>2021-11-27T09:32:57Z</time>
      </trkpt>
      <trkpt lat="42.405373" lon="-7.7440104">
        <time>2021-11-27T09:32:58Z</time>
      </trkpt>
      <trkpt lat="42.405365" lon="-7.744016">
        <time>2021-11-27T09:32:59Z</time>
      </trkpt>
      <trkpt lat="42.40535" lon="-7.744022">
        <time>2021-11-27T09:33:00Z</time>
      </trkpt>
      <trkpt lat="42.40534" lon="-7.744028">
        <time>2021-11-27T09:33:01Z</time>
      </trkpt>
      <trkpt lat="42.405323" lon="-7.744034">
        <time>2021-11-27T09:33:02Z</time>
      </trkpt>
      <trkpt lat="42.405315" lon="-7.744039">
        <time>2021-11-27T09:33:03Z</time>
      </trkpt>
      <trkpt lat="42.405304" lon="-7.7440434">
        <time>2021-11-27T09:33:04Z</time>
      </trkpt>
      <trkpt lat="42.405293" lon="-7.7440467">
        <time>2021-11-27T09:33:05Z</time>
      </trkpt>
      <trkpt lat="42.40528" lon="-7.74405">
        <time>2021-11-27T09:33:06Z</time>
      </trkpt>
      <trkpt lat="42.40527" lon="-7.744054">
        <time>2021-11-27T09:33:07Z</time>
      </trkpt>
      <trkpt lat="42.405254" lon="-7.744056">
        <time>2021-11-27T09:33:08Z</time>
      </trkpt>
      <trkpt lat="42.405243" lon="-7.74406">
        <time>2021-11-27T09:33:09Z</time>
      </trkpt>
      <trkpt lat="42.40523" lon="-7.7440634">
        <time>2021-11-27T09:33:10Z</time>
      </trkpt>
      <trkpt lat="42.405224" lon="-7.7440658">
        <time>2021-11-27T09:33:11Z</time>
      </trkpt>
      <trkpt lat="42.405216" lon="-7.7440677">
        <time>2021-11-27T09:33:12Z</time>
      </trkpt>
      <trkpt lat="42.4052" lon="-7.744071">
        <time>2021-11-27T09:33:13Z</time>
      </trkpt>
      <trkpt lat="42.40519" lon="-7.7440763">
        <time>2021-11-27T09:33:14Z</time>
      </trkpt>
      <trkpt lat="42.405174" lon="-7.7440834">
        <time>2021-11-27T09:33:15Z</time>
      </trkpt>
      <trkpt lat="42.405155" lon="-7.74409">
        <time>2021-11-27T09:33:16Z</time>
      </trkpt>
      <trkpt lat="42.405136" lon="-7.744097">
        <time>2021-11-27T09:33:17Z</time>
      </trkpt>
      <trkpt lat="42.40512" lon="-7.744106">
        <time>2021-11-27T09:33:18Z</time>
      </trkpt>
      <trkpt lat="42.4051" lon="-7.744112">
        <time>2021-11-27T09:33:19Z</time>
      </trkpt>
      <trkpt lat="42.405087" lon="-7.7441144">
        <time>2021-11-27T09:33:20Z</time>
      </trkpt>
      <trkpt lat="42.405075" lon="-7.7441144">
        <time>2021-11-27T09:33:21Z</time>
      </trkpt>
      <trkpt lat="42.405064" lon="-7.7441125">
        <time>2021-11-27T09:33:22Z</time>
      </trkpt>
      <trkpt lat="42.405052" lon="-7.7441106">
        <time>2021-11-27T09:33:23Z</time>
      </trkpt>
      <trkpt lat="42.405037" lon="-7.7441106">
        <time>2021-11-27T09:33:24Z</time>
      </trkpt>
      <trkpt lat="42.40502" lon="-7.7441106">
        <time>2021-11-27T09:33:25Z</time>
      </trkpt>
      <trkpt lat="42.40501" lon="-7.7441106">
        <time>2021-11-27T09:33:26Z</time>
      </trkpt>
      <trkpt lat="42.405" lon="-7.7441125">
        <time>2021-11-27T09:33:27Z</time>
      </trkpt>
      <trkpt lat="42.404987" lon="-7.744116">
        <time>2021-11-27T09:33:28Z</time>
      </trkpt>
      <trkpt lat="42.404976" lon="-7.7441235">
        <time>2021-11-27T09:33:29Z</time>
      </trkpt>
      <trkpt lat="42.40496" lon="-7.744133">
        <time>2021-11-27T09:33:30Z</time>
      </trkpt>
      <trkpt lat="42.40495" lon="-7.7441454">
        <time>2021-11-27T09:33:31Z</time>
      </trkpt>
      <trkpt lat="42.404938" lon="-7.744155">
        <time>2021-11-27T09:33:32Z</time>
      </trkpt>
      <trkpt lat="42.404926" lon="-7.7441626">
        <time>2021-11-27T09:33:33Z</time>
      </trkpt>
      <trkpt lat="42.40492" lon="-7.74417">
        <time>2021-11-27T09:33:34Z</time>
      </trkpt>
      <trkpt lat="42.40491" lon="-7.744177">
        <time>2021-11-27T09:33:35Z</time>
      </trkpt>
      <trkpt lat="42.404903" lon="-7.744185">
        <time>2021-11-27T09:33:36Z</time>
      </trkpt>
      <trkpt lat="42.404892" lon="-7.744191">
        <time>2021-11-27T09:33:37Z</time>
      </trkpt>
      <trkpt lat="42.40488" lon="-7.744196">
        <time>2021-11-27T09:33:38Z</time>
      </trkpt>
      <trkpt lat="42.404865" lon="-7.7442036">
        <time>2021-11-27T09:33:39Z</time>
      </trkpt>
      <trkpt lat="42.40485" lon="-7.744213">
        <time>2021-11-27T09:33:40Z</time>
      </trkpt>
      <trkpt lat="42.404835" lon="-7.744224">
        <time>2021-11-27T09:33:41Z</time>
      </trkpt>
      <trkpt lat="42.40482" lon="-7.7442355">
        <time>2021-11-27T09:33:42Z</time>
      </trkpt>
      <trkpt lat="42.4048" lon="-7.7442465">
        <time>2021-11-27T09:33:43Z</time>
      </trkpt>
      <trkpt lat="42.40479" lon="-7.7442584">
        <time>2021-11-27T09:33:44Z</time>
      </trkpt>
      <trkpt lat="42.404778" lon="-7.7442713">
        <time>2021-11-27T09:33:45Z</time>
      </trkpt>
      <trkpt lat="42.40477" lon="-7.744281">
        <time>2021-11-27T09:33:46Z</time>
      </trkpt>
      <trkpt lat="42.40476" lon="-7.744288">
        <time>2021-11-27T09:33:47Z</time>
      </trkpt>
      <trkpt lat="42.40475" lon="-7.7442937">
        <time>2021-11-27T09:33:48Z</time>
      </trkpt>
      <trkpt lat="42.404743" lon="-7.744301">
        <time>2021-11-27T09:33:49Z</time>
      </trkpt>
      <trkpt lat="42.40473" lon="-7.74431">
        <time>2021-11-27T09:33:50Z</time>
      </trkpt>
      <trkpt lat="42.404724" lon="-7.74432">
        <time>2021-11-27T09:33:51Z</time>
      </trkpt>
      <trkpt lat="42.40472" lon="-7.744331">
        <time>2021-11-27T09:33:52Z</time>
      </trkpt>
      <trkpt lat="42.40471" lon="-7.7443385">
        <time>2021-11-27T09:33:53Z</time>
      </trkpt>
      <trkpt lat="42.4047" lon="-7.7443438">
        <time>2021-11-27T09:33:54Z</time>
      </trkpt>
      <trkpt lat="42.404694" lon="-7.744351">
        <time>2021-11-27T09:33:55Z</time>
      </trkpt>
      <trkpt lat="42.404682" lon="-7.7443557">
        <time>2021-11-27T09:33:56Z</time>
      </trkpt>
      <trkpt lat="42.404675" lon="-7.7443633">
        <time>2021-11-27T09:33:57Z</time>
      </trkpt>
      <trkpt lat="42.404667" lon="-7.7443733">
        <time>2021-11-27T09:33:58Z</time>
      </trkpt>
      <trkpt lat="42.40466" lon="-7.744383">
        <time>2021-11-27T09:33:59Z</time>
      </trkpt>
      <trkpt lat="42.40465" lon="-7.744395">
        <time>2021-11-27T09:34:00Z</time>
      </trkpt>
      <trkpt lat="42.404644" lon="-7.74441">
        <time>2021-11-27T09:34:01Z</time>
      </trkpt>
      <trkpt lat="42.404633" lon="-7.744424">
        <time>2021-11-27T09:34:02Z</time>
      </trkpt>
      <trkpt lat="42.404625" lon="-7.744438">
        <time>2021-11-27T09:34:03Z</time>
      </trkpt>
      <trkpt lat="42.404617" lon="-7.7444544">
        <time>2021-11-27T09:34:04Z</time>
      </trkpt>
      <trkpt lat="42.404606" lon="-7.7444696">
        <time>2021-11-27T09:34:05Z</time>
      </trkpt>
      <trkpt lat="42.404594" lon="-7.7444806">
        <time>2021-11-27T09:34:06Z</time>
      </trkpt>
      <trkpt lat="42.404583" lon="-7.744491">
        <time>2021-11-27T09:34:07Z</time>
      </trkpt>
      <trkpt lat="42.40458" lon="-7.7445006">
        <time>2021-11-27T09:34:08Z</time>
      </trkpt>
      <trkpt lat="42.404575" lon="-7.74451">
        <time>2021-11-27T09:34:09Z</time>
      </trkpt>
      <trkpt lat="42.404575" lon="-7.744521">
        <time>2021-11-27T09:34:10Z</time>
      </trkpt>
      <trkpt lat="42.404568" lon="-7.7445326">
        <time>2021-11-27T09:34:11Z</time>
      </trkpt>
      <trkpt lat="42.40456" lon="-7.7445464">
        <time>2021-11-27T09:34:12Z</time>
      </trkpt>
      <trkpt lat="42.40455" lon="-7.7445626">
        <time>2021-11-27T09:34:13Z</time>
      </trkpt>
      <trkpt lat="42.404533" lon="-7.7445784">
        <time>2021-11-27T09:34:14Z</time>
      </trkpt>
      <trkpt lat="42.40452" lon="-7.744592">
        <time>2021-11-27T09:34:15Z</time>
      </trkpt>
      <trkpt lat="42.404503" lon="-7.7446027">
        <time>2021-11-27T09:34:16Z</time>
      </trkpt>
      <trkpt lat="42.40449" lon="-7.7446094">
        <time>2021-11-27T09:34:17Z</time>
      </trkpt>
      <trkpt lat="42.40448" lon="-7.744615">
        <time>2021-11-27T09:34:18Z</time>
      </trkpt>
      <trkpt lat="42.40447" lon="-7.7446227">
        <time>2021-11-27T09:34:19Z</time>
      </trkpt>
      <trkpt lat="42.404457" lon="-7.744634">
        <time>2021-11-27T09:34:20Z</time>
      </trkpt>
      <trkpt lat="42.40445" lon="-7.7446437">
        <time>2021-11-27T09:34:21Z</time>
      </trkpt>
      <trkpt lat="42.404438" lon="-7.744654">
        <time>2021-11-27T09:34:22Z</time>
      </trkpt>
      <trkpt lat="42.404423" lon="-7.744664">
        <time>2021-11-27T09:34:23Z</time>
      </trkpt>
      <trkpt lat="42.404408" lon="-7.744675">
        <time>2021-11-27T09:34:24Z</time>
      </trkpt>
      <trkpt lat="42.404392" lon="-7.7446876">
        <time>2021-11-27T09:34:25Z</time>
      </trkpt>
      <trkpt lat="42.404377" lon="-7.7446976">
        <time>2021-11-27T09:34:26Z</time>
      </trkpt>
      <trkpt lat="42.40436" lon="-7.744706">
        <time>2021-11-27T09:34:27Z</time>
      </trkpt>
      <trkpt lat="42.404346" lon="-7.744714">
        <time>2021-11-27T09:34:28Z</time>
      </trkpt>
      <trkpt lat="42.404327" lon="-7.7447186">
        <time>2021-11-27T09:34:29Z</time>
      </trkpt>
      <trkpt lat="42.404312" lon="-7.7447233">
        <time>2021-11-27T09:34:30Z</time>
      </trkpt>
      <trkpt lat="42.404297" lon="-7.7447305">
        <time>2021-11-27T09:34:31Z</time>
      </trkpt>
      <trkpt lat="42.40429" lon="-7.7447352">
        <time>2021-11-27T09:34:32Z</time>
      </trkpt>
      <trkpt lat="42.404274" lon="-7.74474">
        <time>2021-11-27T09:34:33Z</time>
      </trkpt>
      <trkpt lat="42.404263" lon="-7.744745">
        <time>2021-11-27T09:34:34Z</time>
      </trkpt>
      <trkpt lat="42.40425" lon="-7.744752">
        <time>2021-11-27T09:34:35Z</time>
      </trkpt>
      <trkpt lat="42.40424" lon="-7.7447586">
        <time>2021-11-27T09:34:36Z</time>
      </trkpt>
      <trkpt lat="42.40423" lon="-7.7447653">
        <time>2021-11-27T09:34:37Z</time>
      </trkpt>
      <trkpt lat="42.404213" lon="-7.744775">
        <time>2021-11-27T09:34:38Z</time>
      </trkpt>
      <trkpt lat="42.404205" lon="-7.7447867">
        <time>2021-11-27T09:34:39Z</time>
      </trkpt>
      <trkpt lat="42.404194" lon="-7.7447987">
        <time>2021-11-27T09:34:40Z</time>
      </trkpt>
      <trkpt lat="42.40418" lon="-7.744811">
        <time>2021-11-27T09:34:41Z</time>
      </trkpt>
      <trkpt lat="42.40417" lon="-7.7448206">
        <time>2021-11-27T09:34:42Z</time>
      </trkpt>
      <trkpt lat="42.40416" lon="-7.744828">
        <time>2021-11-27T09:34:43Z</time>
      </trkpt>
      <trkpt lat="42.404152" lon="-7.7448344">
        <time>2021-11-27T09:34:44Z</time>
      </trkpt>
      <trkpt lat="42.404144" lon="-7.74484">
        <time>2021-11-27T09:34:45Z</time>
      </trkpt>
      <trkpt lat="42.40414" lon="-7.7448454">
        <time>2021-11-27T09:34:46Z</time>
      </trkpt>
      <trkpt lat="42.404137" lon="-7.744852">
        <time>2021-11-27T09:34:47Z</time>
      </trkpt>
      <trkpt lat="42.404133" lon="-7.7448587">
        <time>2021-11-27T09:34:48Z</time>
      </trkpt>
      <trkpt lat="42.404125" lon="-7.744868">
        <time>2021-11-27T09:34:49Z</time>
      </trkpt>
      <trkpt lat="42.40412" lon="-7.7448783">
        <time>2021-11-27T09:34:50Z</time>
      </trkpt>
      <trkpt lat="42.404118" lon="-7.7448916">
        <time>2021-11-27T09:34:51Z</time>
      </trkpt>
      <trkpt lat="42.40411" lon="-7.7449074">
        <time>2021-11-27T09:34:53Z</time>
      </trkpt>
      <trkpt lat="42.404102" lon="-7.744922">
        <time>2021-11-27T09:34:53Z</time>
      </trkpt>
      <trkpt lat="42.40409" lon="-7.7449327">
        <time>2021-11-27T09:34:54Z</time>
      </trkpt>
      <trkpt lat="42.40408" lon="-7.7449384">
        <time>2021-11-27T09:34:55Z</time>
      </trkpt>
      <trkpt lat="42.40407" lon="-7.744945">
        <time>2021-11-27T09:34:56Z</time>
      </trkpt>
      <trkpt lat="42.40406" lon="-7.7449555">
        <time>2021-11-27T09:34:57Z</time>
      </trkpt>
      <trkpt lat="42.40405" lon="-7.7449656">
        <time>2021-11-27T09:34:58Z</time>
      </trkpt>
      <trkpt lat="42.404034" lon="-7.7449746">
        <time>2021-11-27T09:34:59Z</time>
      </trkpt>
      <trkpt lat="42.404026" lon="-7.7449822">
        <time>2021-11-27T09:35:00Z</time>
      </trkpt>
      <trkpt lat="42.404015" lon="-7.744992">
        <time>2021-11-27T09:35:01Z</time>
      </trkpt>
      <trkpt lat="42.404007" lon="-7.7450056">
        <time>2021-11-27T09:35:02Z</time>
      </trkpt>
      <trkpt lat="42.404003" lon="-7.7450194">
        <time>2021-11-27T09:35:03Z</time>
      </trkpt>
      <trkpt lat="42.40399" lon="-7.7450323">
        <time>2021-11-27T09:35:04Z</time>
      </trkpt>
      <trkpt lat="42.403984" lon="-7.7450438">
        <time>2021-11-27T09:35:05Z</time>
      </trkpt>
      <trkpt lat="42.403976" lon="-7.745053">
        <time>2021-11-27T09:35:06Z</time>
      </trkpt>
      <trkpt lat="42.40396" lon="-7.7450604">
        <time>2021-11-27T09:35:07Z</time>
      </trkpt>
      <trkpt lat="42.403954" lon="-7.7450666">
        <time>2021-11-27T09:35:08Z</time>
      </trkpt>
      <trkpt lat="42.403946" lon="-7.745073">
        <time>2021-11-27T09:35:09Z</time>
      </trkpt>
      <trkpt lat="42.403934" lon="-7.7450786">
        <time>2021-11-27T09:35:10Z</time>
      </trkpt>
      <trkpt lat="42.403923" lon="-7.7450843">
        <time>2021-11-27T09:35:11Z</time>
      </trkpt>
      <trkpt lat="42.403915" lon="-7.74509">
        <time>2021-11-27T09:35:12Z</time>
      </trkpt>
      <trkpt lat="42.403904" lon="-7.7450943">
        <time>2021-11-27T09:35:13Z</time>
      </trkpt>
      <trkpt lat="42.40389" lon="-7.745098">
        <time>2021-11-27T09:35:14Z</time>
      </trkpt>
      <trkpt lat="42.403873" lon="-7.7451057">
        <time>2021-11-27T09:35:15Z</time>
      </trkpt>
      <trkpt lat="42.403862" lon="-7.7451143">
        <time>2021-11-27T09:35:16Z</time>
      </trkpt>
      <trkpt lat="42.40385" lon="-7.745124">
        <time>2021-11-27T09:35:17Z</time>
      </trkpt>
      <trkpt lat="42.40384" lon="-7.745135">
        <time>2021-11-27T09:35:18Z</time>
      </trkpt>
      <trkpt lat="42.403828" lon="-7.745143">
        <time>2021-11-27T09:35:19Z</time>
      </trkpt>
      <trkpt lat="42.403816" lon="-7.7451534">
        <time>2021-11-27T09:35:19Z</time>
      </trkpt>
      <trkpt lat="42.403805" lon="-7.745163">
        <time>2021-11-27T09:35:20Z</time>
      </trkpt>
      <trkpt lat="42.403793" lon="-7.7451706">
        <time>2021-11-27T09:35:21Z</time>
      </trkpt>
      <trkpt lat="42.40378" lon="-7.7451763">
        <time>2021-11-27T09:35:22Z</time>
      </trkpt>
      <trkpt lat="42.403774" lon="-7.7451835">
        <time>2021-11-27T09:35:23Z</time>
      </trkpt>
      <trkpt lat="42.403763" lon="-7.7451897">
        <time>2021-11-27T09:35:24Z</time>
      </trkpt>
      <trkpt lat="42.40375" lon="-7.745195">
        <time>2021-11-27T09:35:25Z</time>
      </trkpt>
      <trkpt lat="42.403744" lon="-7.745202">
        <time>2021-11-27T09:35:26Z</time>
      </trkpt>
      <trkpt lat="42.40373" lon="-7.74521">
        <time>2021-11-27T09:35:27Z</time>
      </trkpt>
      <trkpt lat="42.40372" lon="-7.7452188">
        <time>2021-11-27T09:35:28Z</time>
      </trkpt>
      <trkpt lat="42.403713" lon="-7.7452254">
        <time>2021-11-27T09:35:29Z</time>
      </trkpt>
      <trkpt lat="42.4037" lon="-7.745233">
        <time>2021-11-27T09:35:30Z</time>
      </trkpt>
      <trkpt lat="42.40369" lon="-7.745241">
        <time>2021-11-27T09:35:31Z</time>
      </trkpt>
      <trkpt lat="42.403683" lon="-7.745249">
        <time>2021-11-27T09:35:32Z</time>
      </trkpt>
      <trkpt lat="42.403675" lon="-7.7452555">
        <time>2021-11-27T09:35:33Z</time>
      </trkpt>
      <trkpt lat="42.403667" lon="-7.745264">
        <time>2021-11-27T09:35:34Z</time>
      </trkpt>
      <trkpt lat="42.40366" lon="-7.745273">
        <time>2021-11-27T09:35:35Z</time>
      </trkpt>
      <trkpt lat="42.403652" lon="-7.7452826">
        <time>2021-11-27T09:35:36Z</time>
      </trkpt>
      <trkpt lat="42.403645" lon="-7.7452936">
        <time>2021-11-27T09:35:37Z</time>
      </trkpt>
      <trkpt lat="42.403633" lon="-7.7453036">
        <time>2021-11-27T09:35:38Z</time>
      </trkpt>
      <trkpt lat="42.40362" lon="-7.7453146">
        <time>2021-11-27T09:35:39Z</time>
      </trkpt>
      <trkpt lat="42.403614" lon="-7.7453256">
        <time>2021-11-27T09:35:40Z</time>
      </trkpt>
      <trkpt lat="42.403606" lon="-7.745337">
        <time>2021-11-27T09:35:41Z</time>
      </trkpt>
      <trkpt lat="42.4036" lon="-7.745348">
        <time>2021-11-27T09:35:42Z</time>
      </trkpt>
      <trkpt lat="42.40359" lon="-7.74536">
        <time>2021-11-27T09:35:43Z</time>
      </trkpt>
      <trkpt lat="42.403584" lon="-7.745371">
        <time>2021-11-27T09:35:44Z</time>
      </trkpt>
      <trkpt lat="42.403576" lon="-7.745379">
        <time>2021-11-27T09:35:45Z</time>
      </trkpt>
      <trkpt lat="42.403564" lon="-7.7453837">
        <time>2021-11-27T09:35:46Z</time>
      </trkpt>
      <trkpt lat="42.403557" lon="-7.745388">
        <time>2021-11-27T09:35:47Z</time>
      </trkpt>
      <trkpt lat="42.40354" lon="-7.7453938">
        <time>2021-11-27T09:35:48Z</time>
      </trkpt>
      <trkpt lat="42.403534" lon="-7.7454023">
        <time>2021-11-27T09:35:49Z</time>
      </trkpt>
      <trkpt lat="42.403522" lon="-7.7454104">
        <time>2021-11-27T09:35:50Z</time>
      </trkpt>
      <trkpt lat="42.40351" lon="-7.745418">
        <time>2021-11-27T09:35:51Z</time>
      </trkpt>
      <trkpt lat="42.4035" lon="-7.7454257">
        <time>2021-11-27T09:35:52Z</time>
      </trkpt>
      <trkpt lat="42.40349" lon="-7.7454348">
        <time>2021-11-27T09:35:53Z</time>
      </trkpt>
      <trkpt lat="42.40348" lon="-7.7454443">
        <time>2021-11-27T09:35:54Z</time>
      </trkpt>
      <trkpt lat="42.40347" lon="-7.745455">
        <time>2021-11-27T09:35:55Z</time>
      </trkpt>
      <trkpt lat="42.40346" lon="-7.745462">
        <time>2021-11-27T09:35:56Z</time>
      </trkpt>
      <trkpt lat="42.403454" lon="-7.7454686">
        <time>2021-11-27T09:35:57Z</time>
      </trkpt>
      <trkpt lat="42.403446" lon="-7.745477">
        <time>2021-11-27T09:35:58Z</time>
      </trkpt>
      <trkpt lat="42.403435" lon="-7.7454853">
        <time>2021-11-27T09:35:59Z</time>
      </trkpt>
      <trkpt lat="42.403427" lon="-7.7454906">
        <time>2021-11-27T09:36:00Z</time>
      </trkpt>
      <trkpt lat="42.40341" lon="-7.7454925">
        <time>2021-11-27T09:36:01Z</time>
      </trkpt>
      <trkpt lat="42.4034" lon="-7.7454944">
        <time>2021-11-27T09:36:02Z</time>
      </trkpt>
      <trkpt lat="42.403393" lon="-7.7454963">
        <time>2021-11-27T09:36:03Z</time>
      </trkpt>
      <trkpt lat="42.403378" lon="-7.7454967">
        <time>2021-11-27T09:36:04Z</time>
      </trkpt>
      <trkpt lat="42.403366" lon="-7.745498">
        <time>2021-11-27T09:36:05Z</time>
      </trkpt>
      <trkpt lat="42.40335" lon="-7.7455">
        <time>2021-11-27T09:36:06Z</time>
      </trkpt>
      <trkpt lat="42.40333" lon="-7.745503">
        <time>2021-11-27T09:36:07Z</time>
      </trkpt>
      <trkpt lat="42.403316" lon="-7.7455034">
        <time>2021-11-27T09:36:08Z</time>
      </trkpt>
      <trkpt lat="42.403305" lon="-7.7455006">
        <time>2021-11-27T09:36:09Z</time>
      </trkpt>
      <trkpt lat="42.403294" lon="-7.7454963">
        <time>2021-11-27T09:36:10Z</time>
      </trkpt>
      <trkpt lat="42.403286" lon="-7.745492">
        <time>2021-11-27T09:36:11Z</time>
      </trkpt>
      <trkpt lat="42.403275" lon="-7.7454906">
        <time>2021-11-27T09:36:12Z</time>
      </trkpt>
      <trkpt lat="42.403263" lon="-7.74549">
        <time>2021-11-27T09:36:13Z</time>
      </trkpt>
      <trkpt lat="42.40325" lon="-7.7454906">
        <time>2021-11-27T09:36:14Z</time>
      </trkpt>
      <trkpt lat="42.40324" lon="-7.745493">
        <time>2021-11-27T09:36:15Z</time>
      </trkpt>
      <trkpt lat="42.40323" lon="-7.745496">
        <time>2021-11-27T09:36:16Z</time>
      </trkpt>
      <trkpt lat="42.403217" lon="-7.745498">
        <time>2021-11-27T09:36:17Z</time>
      </trkpt>
      <trkpt lat="42.403206" lon="-7.7455">
        <time>2021-11-27T09:36:18Z</time>
      </trkpt>
      <trkpt lat="42.40319" lon="-7.745504">
        <time>2021-11-27T09:36:19Z</time>
      </trkpt>
      <trkpt lat="42.403183" lon="-7.7455077">
        <time>2021-11-27T09:36:20Z</time>
      </trkpt>
      <trkpt lat="42.403168" lon="-7.7455125">
        <time>2021-11-27T09:36:21Z</time>
      </trkpt>
      <trkpt lat="42.40316" lon="-7.7455153">
        <time>2021-11-27T09:36:22Z</time>
      </trkpt>
      <trkpt lat="42.403145" lon="-7.745518">
        <time>2021-11-27T09:36:23Z</time>
      </trkpt>
      <trkpt lat="42.403133" lon="-7.745519">
        <time>2021-11-27T09:36:24Z</time>
      </trkpt>
      <trkpt lat="42.40312" lon="-7.7455206">
        <time>2021-11-27T09:36:25Z</time>
      </trkpt>
      <trkpt lat="42.403107" lon="-7.7455206">
        <time>2021-11-27T09:36:26Z</time>
      </trkpt>
      <trkpt lat="42.40309" lon="-7.74552">
        <time>2021-11-27T09:36:27Z</time>
      </trkpt>
      <trkpt lat="42.40308" lon="-7.7455173">
        <time>2021-11-27T09:36:28Z</time>
      </trkpt>
      <trkpt lat="42.40307" lon="-7.7455144">
        <time>2021-11-27T09:36:29Z</time>
      </trkpt>
      <trkpt lat="42.403053" lon="-7.7455115">
        <time>2021-11-27T09:36:30Z</time>
      </trkpt>
      <trkpt lat="42.40304" lon="-7.7455106">
        <time>2021-11-27T09:36:31Z</time>
      </trkpt>
      <trkpt lat="42.403027" lon="-7.745511">
        <time>2021-11-27T09:36:32Z</time>
      </trkpt>
      <trkpt lat="42.40302" lon="-7.7455144">
        <time>2021-11-27T09:36:33Z</time>
      </trkpt>
      <trkpt lat="42.403004" lon="-7.74552">
        <time>2021-11-27T09:36:34Z</time>
      </trkpt>
      <trkpt lat="42.402996" lon="-7.745526">
        <time>2021-11-27T09:36:35Z</time>
      </trkpt>
      <trkpt lat="42.40298" lon="-7.7455316">
        <time>2021-11-27T09:36:36Z</time>
      </trkpt>
      <trkpt lat="42.40297" lon="-7.745536">
        <time>2021-11-27T09:36:37Z</time>
      </trkpt>
      <trkpt lat="42.402958" lon="-7.745541">
        <time>2021-11-27T09:36:38Z</time>
      </trkpt>
      <trkpt lat="42.402946" lon="-7.745545">
        <time>2021-11-27T09:36:39Z</time>
      </trkpt>
      <trkpt lat="42.402935" lon="-7.7455487">
        <time>2021-11-27T09:36:40Z</time>
      </trkpt>
      <trkpt lat="42.40292" lon="-7.7455525">
        <time>2021-11-27T09:36:41Z</time>
      </trkpt>
      <trkpt lat="42.402905" lon="-7.7455564">
        <time>2021-11-27T09:36:42Z</time>
      </trkpt>
      <trkpt lat="42.402893" lon="-7.74556">
        <time>2021-11-27T09:36:43Z</time>
      </trkpt>
      <trkpt lat="42.402878" lon="-7.745566">
        <time>2021-11-27T09:36:44Z</time>
      </trkpt>
      <trkpt lat="42.402863" lon="-7.745574">
        <time>2021-11-27T09:36:45Z</time>
      </trkpt>
      <trkpt lat="42.40285" lon="-7.7455826">
        <time>2021-11-27T09:36:46Z</time>
      </trkpt>
      <trkpt lat="42.402836" lon="-7.745591">
        <time>2021-11-27T09:36:47Z</time>
      </trkpt>
      <trkpt lat="42.402824" lon="-7.7456">
        <time>2021-11-27T09:36:48Z</time>
      </trkpt>
      <trkpt lat="42.402813" lon="-7.74561">
        <time>2021-11-27T09:36:49Z</time>
      </trkpt>
      <trkpt lat="42.402805" lon="-7.7456217">
        <time>2021-11-27T09:36:50Z</time>
      </trkpt>
      <trkpt lat="42.402794" lon="-7.745633">
        <time>2021-11-27T09:36:51Z</time>
      </trkpt>
      <trkpt lat="42.402782" lon="-7.745644">
        <time>2021-11-27T09:36:52Z</time>
      </trkpt>
      <trkpt lat="42.40277" lon="-7.7456536">
        <time>2021-11-27T09:36:53Z</time>
      </trkpt>
      <trkpt lat="42.402756" lon="-7.745663">
        <time>2021-11-27T09:36:54Z</time>
      </trkpt>
      <trkpt lat="42.40275" lon="-7.7456737">
        <time>2021-11-27T09:36:55Z</time>
      </trkpt>
      <trkpt lat="42.402733" lon="-7.7456846">
        <time>2021-11-27T09:36:56Z</time>
      </trkpt>
      <trkpt lat="42.40272" lon="-7.7456923">
        <time>2021-11-27T09:36:57Z</time>
      </trkpt>
      <trkpt lat="42.40271" lon="-7.7456994">
        <time>2021-11-27T09:36:58Z</time>
      </trkpt>
      <trkpt lat="42.402695" lon="-7.745705">
        <time>2021-11-27T09:36:59Z</time>
      </trkpt>
      <trkpt lat="42.40268" lon="-7.74571">
        <time>2021-11-27T09:37:00Z</time>
      </trkpt>
      <trkpt lat="42.402664" lon="-7.745717">
        <time>2021-11-27T09:37:01Z</time>
      </trkpt>
      <trkpt lat="42.40265" lon="-7.745724">
        <time>2021-11-27T09:37:02Z</time>
      </trkpt>
      <trkpt lat="42.402637" lon="-7.745732">
        <time>2021-11-27T09:37:03Z</time>
      </trkpt>
      <trkpt lat="42.402622" lon="-7.7457395">
        <time>2021-11-27T09:37:04Z</time>
      </trkpt>
      <trkpt lat="42.40261" lon="-7.745748">
        <time>2021-11-27T09:37:05Z</time>
      </trkpt>
      <trkpt lat="42.4026" lon="-7.7457542">
        <time>2021-11-27T09:37:06Z</time>
      </trkpt>
      <trkpt lat="42.402584" lon="-7.7457614">
        <time>2021-11-27T09:37:07Z</time>
      </trkpt>
      <trkpt lat="42.402573" lon="-7.7457657">
        <time>2021-11-27T09:37:08Z</time>
      </trkpt>
      <trkpt lat="42.40256" lon="-7.7457724">
        <time>2021-11-27T09:37:09Z</time>
      </trkpt>
      <trkpt lat="42.402546" lon="-7.745779">
        <time>2021-11-27T09:37:10Z</time>
      </trkpt>
      <trkpt lat="42.40253" lon="-7.7457857">
        <time>2021-11-27T09:37:11Z</time>
      </trkpt>
      <trkpt lat="42.402515" lon="-7.745792">
        <time>2021-11-27T09:37:12Z</time>
      </trkpt>
      <trkpt lat="42.4025" lon="-7.7457952">
        <time>2021-11-27T09:37:13Z</time>
      </trkpt>
      <trkpt lat="42.402485" lon="-7.745794">
        <time>2021-11-27T09:37:14Z</time>
      </trkpt>
      <trkpt lat="42.40247" lon="-7.7457886">
        <time>2021-11-27T09:37:15Z</time>
      </trkpt>
      <trkpt lat="42.40246" lon="-7.745782">
        <time>2021-11-27T09:37:16Z</time>
      </trkpt>
      <trkpt lat="42.402443" lon="-7.7457733">
        <time>2021-11-27T09:37:17Z</time>
      </trkpt>
      <trkpt lat="42.40243" lon="-7.7457633">
        <time>2021-11-27T09:37:18Z</time>
      </trkpt>
      <trkpt lat="42.40242" lon="-7.7457523">
        <time>2021-11-27T09:37:19Z</time>
      </trkpt>
      <trkpt lat="42.40241" lon="-7.7457395">
        <time>2021-11-27T09:37:20Z</time>
      </trkpt>
      <trkpt lat="42.402397" lon="-7.7457266">
        <time>2021-11-27T09:37:21Z</time>
      </trkpt>
      <trkpt lat="42.40239" lon="-7.745713">
        <time>2021-11-27T09:37:22Z</time>
      </trkpt>
      <trkpt lat="42.40238" lon="-7.7457">
        <time>2021-11-27T09:37:23Z</time>
      </trkpt>
      <trkpt lat="42.402374" lon="-7.7456875">
        <time>2021-11-27T09:37:24Z</time>
      </trkpt>
      <trkpt lat="42.402367" lon="-7.7456737">
        <time>2021-11-27T09:37:25Z</time>
      </trkpt>
      <trkpt lat="42.40236" lon="-7.7456574">
        <time>2021-11-27T09:37:26Z</time>
      </trkpt>
      <trkpt lat="42.40235" lon="-7.745642">
        <time>2021-11-27T09:37:27Z</time>
      </trkpt>
      <trkpt lat="42.402344" lon="-7.7456264">
        <time>2021-11-27T09:37:28Z</time>
      </trkpt>
      <trkpt lat="42.402336" lon="-7.7456117">
        <time>2021-11-27T09:37:29Z</time>
      </trkpt>
      <trkpt lat="42.40233" lon="-7.7455974">
        <time>2021-11-27T09:37:30Z</time>
      </trkpt>
      <trkpt lat="42.40232" lon="-7.745584">
        <time>2021-11-27T09:37:31Z</time>
      </trkpt>
      <trkpt lat="42.402317" lon="-7.7455697">
        <time>2021-11-27T09:37:32Z</time>
      </trkpt>
      <trkpt lat="42.40231" lon="-7.745556">
        <time>2021-11-27T09:37:33Z</time>
      </trkpt>
      <trkpt lat="42.402306" lon="-7.7455425">
        <time>2021-11-27T09:37:34Z</time>
      </trkpt>
      <trkpt lat="42.402298" lon="-7.7455273">
        <time>2021-11-27T09:37:35Z</time>
      </trkpt>
      <trkpt lat="42.40229" lon="-7.7455125">
        <time>2021-11-27T09:37:36Z</time>
      </trkpt>
      <trkpt lat="42.402283" lon="-7.745496">
        <time>2021-11-27T09:37:37Z</time>
      </trkpt>
      <trkpt lat="42.402275" lon="-7.7454805">
        <time>2021-11-27T09:37:38Z</time>
      </trkpt>
      <trkpt lat="42.402267" lon="-7.745465">
        <time>2021-11-27T09:37:39Z</time>
      </trkpt>
      <trkpt lat="42.402256" lon="-7.7454515">
        <time>2021-11-27T09:37:40Z</time>
      </trkpt>
      <trkpt lat="42.402245" lon="-7.745438">
        <time>2021-11-27T09:37:41Z</time>
      </trkpt>
      <trkpt lat="42.402233" lon="-7.7454247">
        <time>2021-11-27T09:37:42Z</time>
      </trkpt>
      <trkpt lat="42.402225" lon="-7.7454104">
        <time>2021-11-27T09:37:43Z</time>
      </trkpt>
      <trkpt lat="42.402214" lon="-7.7453985">
        <time>2021-11-27T09:37:44Z</time>
      </trkpt>
      <trkpt lat="42.402203" lon="-7.7453876">
        <time>2021-11-27T09:37:45Z</time>
      </trkpt>
      <trkpt lat="42.402195" lon="-7.745375">
        <time>2021-11-27T09:37:46Z</time>
      </trkpt>
      <trkpt lat="42.402187" lon="-7.745363">
        <time>2021-11-27T09:37:47Z</time>
      </trkpt>
      <trkpt lat="42.402176" lon="-7.7453504">
        <time>2021-11-27T09:37:48Z</time>
      </trkpt>
      <trkpt lat="42.40217" lon="-7.745337">
        <time>2021-11-27T09:37:49Z</time>
      </trkpt>
      <trkpt lat="42.402157" lon="-7.745322">
        <time>2021-11-27T09:37:50Z</time>
      </trkpt>
      <trkpt lat="42.40215" lon="-7.745307">
        <time>2021-11-27T09:37:52Z</time>
      </trkpt>
      <trkpt lat="42.402134" lon="-7.7452908">
        <time>2021-11-27T09:37:52Z</time>
      </trkpt>
      <trkpt lat="42.402126" lon="-7.7452755">
        <time>2021-11-27T09:37:53Z</time>
      </trkpt>
      <trkpt lat="42.402115" lon="-7.7452593">
        <time>2021-11-27T09:37:54Z</time>
      </trkpt>
      <trkpt lat="42.402103" lon="-7.745244">
        <time>2021-11-27T09:37:55Z</time>
      </trkpt>
      <trkpt lat="42.402092" lon="-7.74523">
        <time>2021-11-27T09:37:56Z</time>
      </trkpt>
      <trkpt lat="42.402084" lon="-7.745217">
        <time>2021-11-27T09:37:57Z</time>
      </trkpt>
      <trkpt lat="42.402073" lon="-7.7452025">
        <time>2021-11-27T09:37:58Z</time>
      </trkpt>
      <trkpt lat="42.402065" lon="-7.7451878">
        <time>2021-11-27T09:37:59Z</time>
      </trkpt>
      <trkpt lat="42.402054" lon="-7.745174">
        <time>2021-11-27T09:38:00Z</time>
      </trkpt>
      <trkpt lat="42.402046" lon="-7.745158">
        <time>2021-11-27T09:38:01Z</time>
      </trkpt>
      <trkpt lat="42.40204" lon="-7.7451406">
        <time>2021-11-27T09:38:02Z</time>
      </trkpt>
      <trkpt lat="42.40203" lon="-7.745124">
        <time>2021-11-27T09:38:03Z</time>
      </trkpt>
      <trkpt lat="42.402023" lon="-7.7451067">
        <time>2021-11-27T09:38:04Z</time>
      </trkpt>
      <trkpt lat="42.402016" lon="-7.7450905">
        <time>2021-11-27T09:38:05Z</time>
      </trkpt>
      <trkpt lat="42.402008" lon="-7.7450757">
        <time>2021-11-27T09:38:06Z</time>
      </trkpt>
      <trkpt lat="42.401997" lon="-7.7450624">
        <time>2021-11-27T09:38:07Z</time>
      </trkpt>
      <trkpt lat="42.401985" lon="-7.745049">
        <time>2021-11-27T09:38:08Z</time>
      </trkpt>
      <trkpt lat="42.401978" lon="-7.7450366">
        <time>2021-11-27T09:38:09Z</time>
      </trkpt>
      <trkpt lat="42.401962" lon="-7.745025">
        <time>2021-11-27T09:38:10Z</time>
      </trkpt>
      <trkpt lat="42.40195" lon="-7.7450137">
        <time>2021-11-27T09:38:11Z</time>
      </trkpt>
      <trkpt lat="42.40194" lon="-7.7450037">
        <time>2021-11-27T09:38:12Z</time>
      </trkpt>
      <trkpt lat="42.401928" lon="-7.7449946">
        <time>2021-11-27T09:38:13Z</time>
      </trkpt>
      <trkpt lat="42.401917" lon="-7.744986">
        <time>2021-11-27T09:38:14Z</time>
      </trkpt>
      <trkpt lat="42.4019" lon="-7.7449794">
        <time>2021-11-27T09:38:15Z</time>
      </trkpt>
      <trkpt lat="42.40189" lon="-7.7449727">
        <time>2021-11-27T09:38:16Z</time>
      </trkpt>
      <trkpt lat="42.40188" lon="-7.744969">
        <time>2021-11-27T09:38:17Z</time>
      </trkpt>
      <trkpt lat="42.401863" lon="-7.7449675">
        <time>2021-11-27T09:38:18Z</time>
      </trkpt>
      <trkpt lat="42.40185" lon="-7.7449656">
        <time>2021-11-27T09:38:19Z</time>
      </trkpt>
      <trkpt lat="42.401836" lon="-7.7449636">
        <time>2021-11-27T09:38:20Z</time>
      </trkpt>
      <trkpt lat="42.401825" lon="-7.7449617">
        <time>2021-11-27T09:38:21Z</time>
      </trkpt>
      <trkpt lat="42.401814" lon="-7.744961">
        <time>2021-11-27T09:38:22Z</time>
      </trkpt>
      <trkpt lat="42.4018" lon="-7.74496">
        <time>2021-11-27T09:38:23Z</time>
      </trkpt>
      <trkpt lat="42.401787" lon="-7.744959">
        <time>2021-11-27T09:38:24Z</time>
      </trkpt>
      <trkpt lat="42.401775" lon="-7.744957">
        <time>2021-11-27T09:38:25Z</time>
      </trkpt>
      <trkpt lat="42.401764" lon="-7.744959">
        <time>2021-11-27T09:38:26Z</time>
      </trkpt>
      <trkpt lat="42.401752" lon="-7.74496">
        <time>2021-11-27T09:38:27Z</time>
      </trkpt>
      <trkpt lat="42.401745" lon="-7.744965">
        <time>2021-11-27T09:38:28Z</time>
      </trkpt>
      <trkpt lat="42.40173" lon="-7.7449703">
        <time>2021-11-27T09:38:29Z</time>
      </trkpt>
      <trkpt lat="42.40172" lon="-7.7449727">
        <time>2021-11-27T09:38:30Z</time>
      </trkpt>
      <trkpt lat="42.401703" lon="-7.7449746">
        <time>2021-11-27T09:38:31Z</time>
      </trkpt>
      <trkpt lat="42.40169" lon="-7.7449756">
        <time>2021-11-27T09:38:32Z</time>
      </trkpt>
      <trkpt lat="42.401676" lon="-7.7449775">
        <time>2021-11-27T09:38:33Z</time>
      </trkpt>
      <trkpt lat="42.401665" lon="-7.7449813">
        <time>2021-11-27T09:38:34Z</time>
      </trkpt>
      <trkpt lat="42.40165" lon="-7.744987">
        <time>2021-11-27T09:38:35Z</time>
      </trkpt>
      <trkpt lat="42.401638" lon="-7.7449927">
        <time>2021-11-27T09:38:36Z</time>
      </trkpt>
      <trkpt lat="42.401627" lon="-7.7449985">
        <time>2021-11-27T09:38:37Z</time>
      </trkpt>
      <trkpt lat="42.40161" lon="-7.7450027">
        <time>2021-11-27T09:38:38Z</time>
      </trkpt>
      <trkpt lat="42.401596" lon="-7.7450085">
        <time>2021-11-27T09:38:39Z</time>
      </trkpt>
      <trkpt lat="42.401585" lon="-7.745017">
        <time>2021-11-27T09:38:40Z</time>
      </trkpt>
      <trkpt lat="42.401573" lon="-7.745025">
        <time>2021-11-27T09:38:41Z</time>
      </trkpt>
      <trkpt lat="42.401558" lon="-7.745034">
        <time>2021-11-27T09:38:42Z</time>
      </trkpt>
      <trkpt lat="42.40155" lon="-7.7450423">
        <time>2021-11-27T09:38:43Z</time>
      </trkpt>
      <trkpt lat="42.40154" lon="-7.7450514">
        <time>2021-11-27T09:38:44Z</time>
      </trkpt>
      <trkpt lat="42.401527" lon="-7.745062">
        <time>2021-11-27T09:38:45Z</time>
      </trkpt>
      <trkpt lat="42.40152" lon="-7.7450733">
        <time>2021-11-27T09:38:46Z</time>
      </trkpt>
      <trkpt lat="42.40151" lon="-7.745085">
        <time>2021-11-27T09:38:47Z</time>
      </trkpt>
      <trkpt lat="42.401497" lon="-7.745097">
        <time>2021-11-27T09:38:48Z</time>
      </trkpt>
      <trkpt lat="42.401485" lon="-7.7451086">
        <time>2021-11-27T09:38:49Z</time>
      </trkpt>
      <trkpt lat="42.401474" lon="-7.7451186">
        <time>2021-11-27T09:38:50Z</time>
      </trkpt>
      <trkpt lat="42.401463" lon="-7.745129">
        <time>2021-11-27T09:38:51Z</time>
      </trkpt>
      <trkpt lat="42.40145" lon="-7.745136">
        <time>2021-11-27T09:38:52Z</time>
      </trkpt>
      <trkpt lat="42.40144" lon="-7.745143">
        <time>2021-11-27T09:38:53Z</time>
      </trkpt>
      <trkpt lat="42.40143" lon="-7.74515">
        <time>2021-11-27T09:38:54Z</time>
      </trkpt>
      <trkpt lat="42.40142" lon="-7.74516">
        <time>2021-11-27T09:38:55Z</time>
      </trkpt>
      <trkpt lat="42.40141" lon="-7.74517">
        <time>2021-11-27T09:38:56Z</time>
      </trkpt>
      <trkpt lat="42.4014" lon="-7.7451816">
        <time>2021-11-27T09:38:57Z</time>
      </trkpt>
      <trkpt lat="42.401394" lon="-7.745193">
        <time>2021-11-27T09:38:58Z</time>
      </trkpt>
      <trkpt lat="42.401386" lon="-7.745206">
        <time>2021-11-27T09:38:59Z</time>
      </trkpt>
      <trkpt lat="42.40137" lon="-7.7452197">
        <time>2021-11-27T09:39:00Z</time>
      </trkpt>
      <trkpt lat="42.401363" lon="-7.745232">
        <time>2021-11-27T09:39:01Z</time>
      </trkpt>
      <trkpt lat="42.401352" lon="-7.7452435">
        <time>2021-11-27T09:39:02Z</time>
      </trkpt>
      <trkpt lat="42.40134" lon="-7.7452555">
        <time>2021-11-27T09:39:03Z</time>
      </trkpt>
      <trkpt lat="42.401333" lon="-7.74527">
        <time>2021-11-27T09:39:04Z</time>
      </trkpt>
      <trkpt lat="42.401325" lon="-7.745285">
        <time>2021-11-27T09:39:05Z</time>
      </trkpt>
      <trkpt lat="42.401318" lon="-7.7453">
        <time>2021-11-27T09:39:06Z</time>
      </trkpt>
      <trkpt lat="42.40131" lon="-7.745314">
        <time>2021-11-27T09:39:07Z</time>
      </trkpt>
      <trkpt lat="42.4013" lon="-7.7453275">
        <time>2021-11-27T09:39:08Z</time>
      </trkpt>
      <trkpt lat="42.401287" lon="-7.7453403">
        <time>2021-11-27T09:39:09Z</time>
      </trkpt>
      <trkpt lat="42.401276" lon="-7.745352">
        <time>2021-11-27T09:39:10Z</time>
      </trkpt>
      <trkpt lat="42.401264" lon="-7.7453637">
        <time>2021-11-27T09:39:11Z</time>
      </trkpt>
      <trkpt lat="42.401253" lon="-7.745375">
        <time>2021-11-27T09:39:12Z</time>
      </trkpt>
      <trkpt lat="42.401237" lon="-7.7453876">
        <time>2021-11-27T09:39:13Z</time>
      </trkpt>
      <trkpt lat="42.40123" lon="-7.7453976">
        <time>2021-11-27T09:39:14Z</time>
      </trkpt>
      <trkpt lat="42.40122" lon="-7.7454095">
        <time>2021-11-27T09:39:15Z</time>
      </trkpt>
      <trkpt lat="42.401207" lon="-7.74542">
        <time>2021-11-27T09:39:16Z</time>
      </trkpt>
      <trkpt lat="42.4012" lon="-7.74543">
        <time>2021-11-27T09:39:17Z</time>
      </trkpt>
      <trkpt lat="42.40119" lon="-7.7454395">
        <time>2021-11-27T09:39:18Z</time>
      </trkpt>
      <trkpt lat="42.401184" lon="-7.745449">
        <time>2021-11-27T09:39:19Z</time>
      </trkpt>
      <trkpt lat="42.401173" lon="-7.745456">
        <time>2021-11-27T09:39:20Z</time>
      </trkpt>
      <trkpt lat="42.40116" lon="-7.745464">
        <time>2021-11-27T09:39:21Z</time>
      </trkpt>
      <trkpt lat="42.401154" lon="-7.74547">
        <time>2021-11-27T09:39:22Z</time>
      </trkpt>
      <trkpt lat="42.40114" lon="-7.7454753">
        <time>2021-11-27T09:39:23Z</time>
      </trkpt>
      <trkpt lat="42.401127" lon="-7.7454805">
        <time>2021-11-27T09:39:24Z</time>
      </trkpt>
      <trkpt lat="42.401115" lon="-7.7454853">
        <time>2021-11-27T09:39:25Z</time>
      </trkpt>
      <trkpt lat="42.4011" lon="-7.7454906">
        <time>2021-11-27T09:39:26Z</time>
      </trkpt>
      <trkpt lat="42.401085" lon="-7.745496">
        <time>2021-11-27T09:39:27Z</time>
      </trkpt>
      <trkpt lat="42.401073" lon="-7.7455">
        <time>2021-11-27T09:39:28Z</time>
      </trkpt>
      <trkpt lat="42.401062" lon="-7.745503">
        <time>2021-11-27T09:39:29Z</time>
      </trkpt>
      <trkpt lat="42.40105" lon="-7.7455053">
        <time>2021-11-27T09:39:30Z</time>
      </trkpt>
      <trkpt lat="42.401035" lon="-7.745507">
        <time>2021-11-27T09:39:31Z</time>
      </trkpt>
      <trkpt lat="42.401024" lon="-7.7455077">
        <time>2021-11-27T09:39:32Z</time>
      </trkpt>
      <trkpt lat="42.40101" lon="-7.745509">
        <time>2021-11-27T09:39:33Z</time>
      </trkpt>
      <trkpt lat="42.400997" lon="-7.7455106">
        <time>2021-11-27T09:39:34Z</time>
      </trkpt>
      <trkpt lat="42.40098" lon="-7.7455115">
        <time>2021-11-27T09:39:34Z</time>
      </trkpt>
      <trkpt lat="42.40097" lon="-7.7455125">
        <time>2021-11-27T09:39:35Z</time>
      </trkpt>
      <trkpt lat="42.40096" lon="-7.745513">
        <time>2021-11-27T09:39:36Z</time>
      </trkpt>
      <trkpt lat="42.400948" lon="-7.7455144">
        <time>2021-11-27T09:39:37Z</time>
      </trkpt>
      <trkpt lat="42.400936" lon="-7.7455173">
        <time>2021-11-27T09:39:38Z</time>
      </trkpt>
      <trkpt lat="42.40092" lon="-7.7455206">
        <time>2021-11-27T09:39:39Z</time>
      </trkpt>
      <trkpt lat="42.400906" lon="-7.745523">
        <time>2021-11-27T09:39:40Z</time>
      </trkpt>
      <trkpt lat="42.40089" lon="-7.7455244">
        <time>2021-11-27T09:39:41Z</time>
      </trkpt>
      <trkpt lat="42.400875" lon="-7.7455277">
        <time>2021-11-27T09:39:42Z</time>
      </trkpt>
      <trkpt lat="42.40086" lon="-7.745531">
        <time>2021-11-27T09:39:43Z</time>
      </trkpt>
      <trkpt lat="42.40084" lon="-7.7455354">
        <time>2021-11-27T09:39:44Z</time>
      </trkpt>
      <trkpt lat="42.400826" lon="-7.7455373">
        <time>2021-11-27T09:39:45Z</time>
      </trkpt>
      <trkpt lat="42.400814" lon="-7.745539">
        <time>2021-11-27T09:39:46Z</time>
      </trkpt>
      <trkpt lat="42.400795" lon="-7.7455378">
        <time>2021-11-27T09:39:47Z</time>
      </trkpt>
      <trkpt lat="42.40078" lon="-7.7455397">
        <time>2021-11-27T09:39:48Z</time>
      </trkpt>
      <trkpt lat="42.400764" lon="-7.7455425">
        <time>2021-11-27T09:39:49Z</time>
      </trkpt>
      <trkpt lat="42.40075" lon="-7.7455454">
        <time>2021-11-27T09:39:50Z</time>
      </trkpt>
      <trkpt lat="42.400734" lon="-7.7455473">
        <time>2021-11-27T09:39:51Z</time>
      </trkpt>
      <trkpt lat="42.400715" lon="-7.7455487">
        <time>2021-11-27T09:39:52Z</time>
      </trkpt>
      <trkpt lat="42.4007" lon="-7.7455487">
        <time>2021-11-27T09:39:53Z</time>
      </trkpt>
      <trkpt lat="42.400692" lon="-7.7455487">
        <time>2021-11-27T09:39:54Z</time>
      </trkpt>
      <trkpt lat="42.400677" lon="-7.7455482">
        <time>2021-11-27T09:39:55Z</time>
      </trkpt>
      <trkpt lat="42.400665" lon="-7.7455454">
        <time>2021-11-27T09:39:56Z</time>
      </trkpt>
      <trkpt lat="42.40065" lon="-7.7455416">
        <time>2021-11-27T09:39:57Z</time>
      </trkpt>
      <trkpt lat="42.40064" lon="-7.745534">
        <time>2021-11-27T09:39:58Z</time>
      </trkpt>
      <trkpt lat="42.400623" lon="-7.7455263">
        <time>2021-11-27T09:39:59Z</time>
      </trkpt>
      <trkpt lat="42.400608" lon="-7.7455187">
        <time>2021-11-27T09:40:00Z</time>
      </trkpt>
      <trkpt lat="42.400593" lon="-7.745509">
        <time>2021-11-27T09:40:01Z</time>
      </trkpt>
      <trkpt lat="42.400578" lon="-7.745495">
        <time>2021-11-27T09:40:02Z</time>
      </trkpt>
      <trkpt lat="42.40057" lon="-7.7454834">
        <time>2021-11-27T09:40:03Z</time>
      </trkpt>
      <trkpt lat="42.40056" lon="-7.745474">
        <time>2021-11-27T09:40:04Z</time>
      </trkpt>
      <trkpt lat="42.400547" lon="-7.7454667">
        <time>2021-11-27T09:40:05Z</time>
      </trkpt>
      <trkpt lat="42.40053" lon="-7.745461">
        <time>2021-11-27T09:40:06Z</time>
      </trkpt>
      <trkpt lat="42.400517" lon="-7.7454567">
        <time>2021-11-27T09:40:07Z</time>
      </trkpt>
      <trkpt lat="42.400505" lon="-7.7454515">
        <time>2021-11-27T09:40:08Z</time>
      </trkpt>
      <trkpt lat="42.400494" lon="-7.7454453">
        <time>2021-11-27T09:40:09Z</time>
      </trkpt>
      <trkpt lat="42.400482" lon="-7.745438">
        <time>2021-11-27T09:40:10Z</time>
      </trkpt>
      <trkpt lat="42.400467" lon="-7.745431">
        <time>2021-11-27T09:40:11Z</time>
      </trkpt>
      <trkpt lat="42.40045" lon="-7.7454247">
        <time>2021-11-27T09:40:12Z</time>
      </trkpt>
      <trkpt lat="42.400436" lon="-7.745418">
        <time>2021-11-27T09:40:13Z</time>
      </trkpt>
      <trkpt lat="42.40043" lon="-7.745414">
        <time>2021-11-27T09:40:14Z</time>
      </trkpt>
      <trkpt lat="42.400417" lon="-7.7454085">
        <time>2021-11-27T09:40:15Z</time>
      </trkpt>
      <trkpt lat="42.400406" lon="-7.7454042">
        <time>2021-11-27T09:40:16Z</time>
      </trkpt>
      <trkpt lat="42.4004" lon="-7.7453995">
        <time>2021-11-27T09:40:17Z</time>
      </trkpt>
      <trkpt lat="42.40039" lon="-7.7453938">
        <time>2021-11-27T09:40:18Z</time>
      </trkpt>
      <trkpt lat="42.40038" lon="-7.74539">
        <time>2021-11-27T09:40:19Z</time>
      </trkpt>
      <trkpt lat="42.400368" lon="-7.745384">
        <time>2021-11-27T09:40:20Z</time>
      </trkpt>
      <trkpt lat="42.40036" lon="-7.745376">
        <time>2021-11-27T09:40:21Z</time>
      </trkpt>
      <trkpt lat="42.400352" lon="-7.7453704">
        <time>2021-11-27T09:40:22Z</time>
      </trkpt>
      <trkpt lat="42.40034" lon="-7.745363">
        <time>2021-11-27T09:40:23Z</time>
      </trkpt>
      <trkpt lat="42.40033" lon="-7.745356">
        <time>2021-11-27T09:40:24Z</time>
      </trkpt>
      <trkpt lat="42.40032" lon="-7.7453446">
        <time>2021-11-27T09:40:25Z</time>
      </trkpt>
      <trkpt lat="42.400307" lon="-7.7453303">
        <time>2021-11-27T09:40:26Z</time>
      </trkpt>
      <trkpt lat="42.4003" lon="-7.7453127">
        <time>2021-11-27T09:40:27Z</time>
      </trkpt>
      <trkpt lat="42.400288" lon="-7.7452984">
        <time>2021-11-27T09:40:28Z</time>
      </trkpt>
      <trkpt lat="42.400276" lon="-7.745285">
        <time>2021-11-27T09:40:29Z</time>
      </trkpt>
      <trkpt lat="42.400265" lon="-7.745273">
        <time>2021-11-27T09:40:30Z</time>
      </trkpt>
      <trkpt lat="42.400253" lon="-7.7452607">
        <time>2021-11-27T09:40:31Z</time>
      </trkpt>
      <trkpt lat="42.40024" lon="-7.745249">
        <time>2021-11-27T09:40:32Z</time>
      </trkpt>
      <trkpt lat="42.400234" lon="-7.7452383">
        <time>2021-11-27T09:40:33Z</time>
      </trkpt>
      <trkpt lat="42.40022" lon="-7.745225">
        <time>2021-11-27T09:40:34Z</time>
      </trkpt>
      <trkpt lat="42.40021" lon="-7.7452116">
        <time>2021-11-27T09:40:35Z</time>
      </trkpt>
      <trkpt lat="42.4002" lon="-7.7451963">
        <time>2021-11-27T09:40:36Z</time>
      </trkpt>
      <trkpt lat="42.400192" lon="-7.7451797">
        <time>2021-11-27T09:40:37Z</time>
      </trkpt>
      <trkpt lat="42.40018" lon="-7.7451634">
        <time>2021-11-27T09:40:38Z</time>
      </trkpt>
      <trkpt lat="42.400173" lon="-7.745145">
        <time>2021-11-27T09:40:39Z</time>
      </trkpt>
      <trkpt lat="42.400166" lon="-7.745126">
        <time>2021-11-27T09:40:40Z</time>
      </trkpt>
      <trkpt lat="42.400158" lon="-7.745107">
        <time>2021-11-27T09:40:41Z</time>
      </trkpt>
      <trkpt lat="42.400154" lon="-7.7450867">
        <time>2021-11-27T09:40:42Z</time>
      </trkpt>
      <trkpt lat="42.400146" lon="-7.745066">
        <time>2021-11-27T09:40:43Z</time>
      </trkpt>
      <trkpt lat="42.40014" lon="-7.7450485">
        <time>2021-11-27T09:40:44Z</time>
      </trkpt>
      <trkpt lat="42.400127" lon="-7.745032">
        <time>2021-11-27T09:40:45Z</time>
      </trkpt>
      <trkpt lat="42.400116" lon="-7.7450175">
        <time>2021-11-27T09:40:46Z</time>
      </trkpt>
      <trkpt lat="42.400105" lon="-7.7450056">
        <time>2021-11-27T09:40:47Z</time>
      </trkpt>
      <trkpt lat="42.400093" lon="-7.7449946">
        <time>2021-11-27T09:40:48Z</time>
      </trkpt>
      <trkpt lat="42.400085" lon="-7.744983">
        <time>2021-11-27T09:40:49Z</time>
      </trkpt>
      <trkpt lat="42.400078" lon="-7.7449718">
        <time>2021-11-27T09:40:50Z</time>
      </trkpt>
      <trkpt lat="42.400066" lon="-7.7449627">
        <time>2021-11-27T09:40:51Z</time>
      </trkpt>
      <trkpt lat="42.400055" lon="-7.744954">
        <time>2021-11-27T09:40:52Z</time>
      </trkpt>
      <trkpt lat="42.40004" lon="-7.7449474">
        <time>2021-11-27T09:40:53Z</time>
      </trkpt>
      <trkpt lat="42.40003" lon="-7.7449403">
        <time>2021-11-27T09:40:54Z</time>
      </trkpt>
      <trkpt lat="42.400017" lon="-7.7449336">
        <time>2021-11-27T09:40:55Z</time>
      </trkpt>
      <trkpt lat="42.400005" lon="-7.7449255">
        <time>2021-11-27T09:40:56Z</time>
      </trkpt>
      <trkpt lat="42.399994" lon="-7.7449145">
        <time>2021-11-27T09:40:57Z</time>
      </trkpt>
      <trkpt lat="42.399982" lon="-7.7449017">
        <time>2021-11-27T09:40:58Z</time>
      </trkpt>
      <trkpt lat="42.39997" lon="-7.7448883">
        <time>2021-11-27T09:40:59Z</time>
      </trkpt>
      <trkpt lat="42.399963" lon="-7.7448764">
        <time>2021-11-27T09:41:00Z</time>
      </trkpt>
      <trkpt lat="42.399956" lon="-7.744868">
        <time>2021-11-27T09:41:01Z</time>
      </trkpt>
      <trkpt lat="42.39995" lon="-7.7448635">
        <time>2021-11-27T09:41:02Z</time>
      </trkpt>
      <trkpt lat="42.399937" lon="-7.7448616">
        <time>2021-11-27T09:41:03Z</time>
      </trkpt>
      <trkpt lat="42.399925" lon="-7.744864">
        <time>2021-11-27T09:41:04Z</time>
      </trkpt>
      <trkpt lat="42.39991" lon="-7.744868">
        <time>2021-11-27T09:41:05Z</time>
      </trkpt>
      <trkpt lat="42.399895" lon="-7.744873">
        <time>2021-11-27T09:41:06Z</time>
      </trkpt>
      <trkpt lat="42.399876" lon="-7.7448807">
        <time>2021-11-27T09:41:07Z</time>
      </trkpt>
      <trkpt lat="42.39986" lon="-7.744889">
        <time>2021-11-27T09:41:08Z</time>
      </trkpt>
      <trkpt lat="42.399845" lon="-7.744894">
        <time>2021-11-27T09:41:09Z</time>
      </trkpt>
      <trkpt lat="42.39983" lon="-7.7449007">
        <time>2021-11-27T09:41:10Z</time>
      </trkpt>
      <trkpt lat="42.399822" lon="-7.7449093">
        <time>2021-11-27T09:41:11Z</time>
      </trkpt>
      <trkpt lat="42.39981" lon="-7.7449203">
        <time>2021-11-27T09:41:12Z</time>
      </trkpt>
      <trkpt lat="42.3998" lon="-7.7449307">
        <time>2021-11-27T09:41:13Z</time>
      </trkpt>
      <trkpt lat="42.39979" lon="-7.744943">
        <time>2021-11-27T09:41:14Z</time>
      </trkpt>
      <trkpt lat="42.39978" lon="-7.744957">
        <time>2021-11-27T09:41:15Z</time>
      </trkpt>
      <trkpt lat="42.39977" lon="-7.7449727">
        <time>2021-11-27T09:41:16Z</time>
      </trkpt>
      <trkpt lat="42.399765" lon="-7.744988">
        <time>2021-11-27T09:41:17Z</time>
      </trkpt>
      <trkpt lat="42.39976" lon="-7.745006">
        <time>2021-11-27T09:41:18Z</time>
      </trkpt>
      <trkpt lat="42.399754" lon="-7.7450233">
        <time>2021-11-27T09:41:19Z</time>
      </trkpt>
      <trkpt lat="42.39975" lon="-7.7450423">
        <time>2021-11-27T09:41:20Z</time>
      </trkpt>
      <trkpt lat="42.399742" lon="-7.7450604">
        <time>2021-11-27T09:41:21Z</time>
      </trkpt>
      <trkpt lat="42.399742" lon="-7.745077">
        <time>2021-11-27T09:41:22Z</time>
      </trkpt>
      <trkpt lat="42.399734" lon="-7.7450933">
        <time>2021-11-27T09:41:23Z</time>
      </trkpt>
      <trkpt lat="42.39973" lon="-7.7451124">
        <time>2021-11-27T09:41:24Z</time>
      </trkpt>
      <trkpt lat="42.39973" lon="-7.745134">
        <time>2021-11-27T09:41:25Z</time>
      </trkpt>
      <trkpt lat="42.399727" lon="-7.7451553">
        <time>2021-11-27T09:41:26Z</time>
      </trkpt>
      <trkpt lat="42.399727" lon="-7.745177">
        <time>2021-11-27T09:41:27Z</time>
      </trkpt>
      <trkpt lat="42.399723" lon="-7.7452">
        <time>2021-11-27T09:41:28Z</time>
      </trkpt>
      <trkpt lat="42.399723" lon="-7.7452235">
        <time>2021-11-27T09:41:29Z</time>
      </trkpt>
      <trkpt lat="42.399723" lon="-7.7452455">
        <time>2021-11-27T09:41:30Z</time>
      </trkpt>
      <trkpt lat="42.399727" lon="-7.7452693">
        <time>2021-11-27T09:41:31Z</time>
      </trkpt>
      <trkpt lat="42.399727" lon="-7.7452917">
        <time>2021-11-27T09:41:32Z</time>
      </trkpt>
      <trkpt lat="42.399723" lon="-7.7453127">
        <time>2021-11-27T09:41:33Z</time>
      </trkpt>
      <trkpt lat="42.399723" lon="-7.745332">
        <time>2021-11-27T09:41:34Z</time>
      </trkpt>
      <trkpt lat="42.399723" lon="-7.745347">
        <time>2021-11-27T09:41:35Z</time>
      </trkpt>
      <trkpt lat="42.39972" lon="-7.7453628">
        <time>2021-11-27T09:41:36Z</time>
      </trkpt>
      <trkpt lat="42.399715" lon="-7.7453785">
        <time>2021-11-27T09:41:37Z</time>
      </trkpt>
      <trkpt lat="42.39971" lon="-7.745393">
        <time>2021-11-27T09:41:38Z</time>
      </trkpt>
      <trkpt lat="42.39971" lon="-7.745406">
        <time>2021-11-27T09:41:39Z</time>
      </trkpt>
      <trkpt lat="42.399708" lon="-7.74542">
        <time>2021-11-27T09:41:40Z</time>
      </trkpt>
      <trkpt lat="42.399704" lon="-7.745434">
        <time>2021-11-27T09:41:41Z</time>
      </trkpt>
      <trkpt lat="42.399696" lon="-7.7454476">
        <time>2021-11-27T09:41:42Z</time>
      </trkpt>
      <trkpt lat="42.39969" lon="-7.745461">
        <time>2021-11-27T09:41:43Z</time>
      </trkpt>
      <trkpt lat="42.399685" lon="-7.7454753">
        <time>2021-11-27T09:41:44Z</time>
      </trkpt>
      <trkpt lat="42.399677" lon="-7.745491">
        <time>2021-11-27T09:41:45Z</time>
      </trkpt>
      <trkpt lat="42.399673" lon="-7.7455106">
        <time>2021-11-27T09:41:46Z</time>
      </trkpt>
      <trkpt lat="42.399673" lon="-7.745531">
        <time>2021-11-27T09:41:47Z</time>
      </trkpt>
      <trkpt lat="42.399673" lon="-7.74555">
        <time>2021-11-27T09:41:48Z</time>
      </trkpt>
      <trkpt lat="42.399673" lon="-7.745568">
        <time>2021-11-27T09:41:49Z</time>
      </trkpt>
      <trkpt lat="42.399666" lon="-7.7455864">
        <time>2021-11-27T09:41:51Z</time>
      </trkpt>
      <trkpt lat="42.39966" lon="-7.7456045">
        <time>2021-11-27T09:41:51Z</time>
      </trkpt>
      <trkpt lat="42.39965" lon="-7.7456226">
        <time>2021-11-27T09:41:52Z</time>
      </trkpt>
      <trkpt lat="42.39964" lon="-7.7456403">
        <time>2021-11-27T09:41:53Z</time>
      </trkpt>
      <trkpt lat="42.399628" lon="-7.7456574">
        <time>2021-11-27T09:41:54Z</time>
      </trkpt>
      <trkpt lat="42.39962" lon="-7.745674">
        <time>2021-11-27T09:41:55Z</time>
      </trkpt>
      <trkpt lat="42.399616" lon="-7.745691">
        <time>2021-11-27T09:41:56Z</time>
      </trkpt>
      <trkpt lat="42.399612" lon="-7.7457056">
        <time>2021-11-27T09:41:57Z</time>
      </trkpt>
      <trkpt lat="42.399605" lon="-7.74572">
        <time>2021-11-27T09:41:58Z</time>
      </trkpt>
      <trkpt lat="42.399597" lon="-7.745732">
        <time>2021-11-27T09:41:59Z</time>
      </trkpt>
      <trkpt lat="42.39959" lon="-7.745745">
        <time>2021-11-27T09:42:00Z</time>
      </trkpt>
      <trkpt lat="42.399582" lon="-7.7457566">
        <time>2021-11-27T09:42:01Z</time>
      </trkpt>
      <trkpt lat="42.399574" lon="-7.7457705">
        <time>2021-11-27T09:42:02Z</time>
      </trkpt>
      <trkpt lat="42.399567" lon="-7.745784">
        <time>2021-11-27T09:42:03Z</time>
      </trkpt>
      <trkpt lat="42.399555" lon="-7.7457995">
        <time>2021-11-27T09:42:04Z</time>
      </trkpt>
      <trkpt lat="42.399544" lon="-7.7458158">
        <time>2021-11-27T09:42:05Z</time>
      </trkpt>
      <trkpt lat="42.399532" lon="-7.745833">
        <time>2021-11-27T09:42:06Z</time>
      </trkpt>
      <trkpt lat="42.39952" lon="-7.7458496">
        <time>2021-11-27T09:42:07Z</time>
      </trkpt>
      <trkpt lat="42.39951" lon="-7.7458696">
        <time>2021-11-27T09:42:08Z</time>
      </trkpt>
      <trkpt lat="42.3995" lon="-7.7458873">
        <time>2021-11-27T09:42:09Z</time>
      </trkpt>
      <trkpt lat="42.399494" lon="-7.745904">
        <time>2021-11-27T09:42:10Z</time>
      </trkpt>
      <trkpt lat="42.399487" lon="-7.7459207">
        <time>2021-11-27T09:42:11Z</time>
      </trkpt>
      <trkpt lat="42.399483" lon="-7.745939">
        <time>2021-11-27T09:42:12Z</time>
      </trkpt>
      <trkpt lat="42.39948" lon="-7.745956">
        <time>2021-11-27T09:42:13Z</time>
      </trkpt>
      <trkpt lat="42.39948" lon="-7.7459745">
        <time>2021-11-27T09:42:14Z</time>
      </trkpt>
      <trkpt lat="42.399475" lon="-7.7459903">
        <time>2021-11-27T09:42:15Z</time>
      </trkpt>
      <trkpt lat="42.39947" lon="-7.746007">
        <time>2021-11-27T09:42:16Z</time>
      </trkpt>
      <trkpt lat="42.399467" lon="-7.746023">
        <time>2021-11-27T09:42:17Z</time>
      </trkpt>
      <trkpt lat="42.399464" lon="-7.746039">
        <time>2021-11-27T09:42:18Z</time>
      </trkpt>
      <trkpt lat="42.39946" lon="-7.746055">
        <time>2021-11-27T09:42:19Z</time>
      </trkpt>
      <trkpt lat="42.399456" lon="-7.746074">
        <time>2021-11-27T09:42:20Z</time>
      </trkpt>
      <trkpt lat="42.39945" lon="-7.746094">
        <time>2021-11-27T09:42:21Z</time>
      </trkpt>
      <trkpt lat="42.399445" lon="-7.746112">
        <time>2021-11-27T09:42:22Z</time>
      </trkpt>
      <trkpt lat="42.39944" lon="-7.74613">
        <time>2021-11-27T09:42:23Z</time>
      </trkpt>
      <trkpt lat="42.399437" lon="-7.746149">
        <time>2021-11-27T09:42:24Z</time>
      </trkpt>
      <trkpt lat="42.399437" lon="-7.746169">
        <time>2021-11-27T09:42:25Z</time>
      </trkpt>
      <trkpt lat="42.399437" lon="-7.7461867">
        <time>2021-11-27T09:42:26Z</time>
      </trkpt>
      <trkpt lat="42.399437" lon="-7.7462044">
        <time>2021-11-27T09:42:27Z</time>
      </trkpt>
      <trkpt lat="42.399437" lon="-7.7462206">
        <time>2021-11-27T09:42:28Z</time>
      </trkpt>
      <trkpt lat="42.399433" lon="-7.746237">
        <time>2021-11-27T09:42:29Z</time>
      </trkpt>
      <trkpt lat="42.399433" lon="-7.746253">
        <time>2021-11-27T09:42:30Z</time>
      </trkpt>
      <trkpt lat="42.39943" lon="-7.746269">
        <time>2021-11-27T09:42:31Z</time>
      </trkpt>
      <trkpt lat="42.399426" lon="-7.7462854">
        <time>2021-11-27T09:42:32Z</time>
      </trkpt>
      <trkpt lat="42.399426" lon="-7.746304">
        <time>2021-11-27T09:42:33Z</time>
      </trkpt>
      <trkpt lat="42.39942" lon="-7.74632">
        <time>2021-11-27T09:42:34Z</time>
      </trkpt>
      <trkpt lat="42.399418" lon="-7.7463365">
        <time>2021-11-27T09:42:35Z</time>
      </trkpt>
      <trkpt lat="42.39941" lon="-7.7463503">
        <time>2021-11-27T09:42:36Z</time>
      </trkpt>
      <trkpt lat="42.399403" lon="-7.746361">
        <time>2021-11-27T09:42:37Z</time>
      </trkpt>
      <trkpt lat="42.399395" lon="-7.746371">
        <time>2021-11-27T09:42:38Z</time>
      </trkpt>
      <trkpt lat="42.399384" lon="-7.746382">
        <time>2021-11-27T09:42:39Z</time>
      </trkpt>
      <trkpt lat="42.399376" lon="-7.7463923">
        <time>2021-11-27T09:42:40Z</time>
      </trkpt>
      <trkpt lat="42.39936" lon="-7.7464013">
        <time>2021-11-27T09:42:41Z</time>
      </trkpt>
      <trkpt lat="42.399353" lon="-7.7464085">
        <time>2021-11-27T09:42:42Z</time>
      </trkpt>
      <trkpt lat="42.399338" lon="-7.746413">
        <time>2021-11-27T09:42:43Z</time>
      </trkpt>
      <trkpt lat="42.399326" lon="-7.746418">
        <time>2021-11-27T09:42:44Z</time>
      </trkpt>
      <trkpt lat="42.399315" lon="-7.7464237">
        <time>2021-11-27T09:42:45Z</time>
      </trkpt>
      <trkpt lat="42.399303" lon="-7.746429">
        <time>2021-11-27T09:42:46Z</time>
      </trkpt>
      <trkpt lat="42.399292" lon="-7.7464314">
        <time>2021-11-27T09:42:47Z</time>
      </trkpt>
      <trkpt lat="42.399277" lon="-7.746432">
        <time>2021-11-27T09:42:48Z</time>
      </trkpt>
      <trkpt lat="42.399265" lon="-7.7464356">
        <time>2021-11-27T09:42:49Z</time>
      </trkpt>
      <trkpt lat="42.399254" lon="-7.7464385">
        <time>2021-11-27T09:42:50Z</time>
      </trkpt>
      <trkpt lat="42.399246" lon="-7.7464423">
        <time>2021-11-27T09:42:51Z</time>
      </trkpt>
      <trkpt lat="42.39923" lon="-7.7464495">
        <time>2021-11-27T09:42:52Z</time>
      </trkpt>
      <trkpt lat="42.39922" lon="-7.746457">
        <time>2021-11-27T09:42:53Z</time>
      </trkpt>
      <trkpt lat="42.399208" lon="-7.7464633">
        <time>2021-11-27T09:42:54Z</time>
      </trkpt>
      <trkpt lat="42.399197" lon="-7.74647">
        <time>2021-11-27T09:42:55Z</time>
      </trkpt>
      <trkpt lat="42.399185" lon="-7.7464776">
        <time>2021-11-27T09:42:56Z</time>
      </trkpt>
      <trkpt lat="42.399178" lon="-7.7464843">
        <time>2021-11-27T09:42:57Z</time>
      </trkpt>
      <trkpt lat="42.399166" lon="-7.7464914">
        <time>2021-11-27T09:42:58Z</time>
      </trkpt>
      <trkpt lat="42.39916" lon="-7.746499">
        <time>2021-11-27T09:42:59Z</time>
      </trkpt>
      <trkpt lat="42.39915" lon="-7.7465043">
        <time>2021-11-27T09:43:00Z</time>
      </trkpt>
      <trkpt lat="42.39914" lon="-7.7465086">
        <time>2021-11-27T09:43:01Z</time>
      </trkpt>
      <trkpt lat="42.399128" lon="-7.7465115">
        <time>2021-11-27T09:43:02Z</time>
      </trkpt>
      <trkpt lat="42.399117" lon="-7.746515">
        <time>2021-11-27T09:43:03Z</time>
      </trkpt>
      <trkpt lat="42.399105" lon="-7.7465196">
        <time>2021-11-27T09:43:04Z</time>
      </trkpt>
      <trkpt lat="42.399097" lon="-7.7465234">
        <time>2021-11-27T09:43:05Z</time>
      </trkpt>
      <trkpt lat="42.399086" lon="-7.7465267">
        <time>2021-11-27T09:43:06Z</time>
      </trkpt>
      <trkpt lat="42.399075" lon="-7.746531">
        <time>2021-11-27T09:43:07Z</time>
      </trkpt>
      <trkpt lat="42.39906" lon="-7.746535">
        <time>2021-11-27T09:43:08Z</time>
      </trkpt>
      <trkpt lat="42.39905" lon="-7.746538">
        <time>2021-11-27T09:43:09Z</time>
      </trkpt>
      <trkpt lat="42.39904" lon="-7.74654">
        <time>2021-11-27T09:43:10Z</time>
      </trkpt>
      <trkpt lat="42.39903" lon="-7.7465415">
        <time>2021-11-27T09:43:11Z</time>
      </trkpt>
      <trkpt lat="42.39902" lon="-7.746543">
        <time>2021-11-27T09:43:12Z</time>
      </trkpt>
      <trkpt lat="42.39901" lon="-7.746545">
        <time>2021-11-27T09:43:13Z</time>
      </trkpt>
      <trkpt lat="42.399002" lon="-7.7465453">
        <time>2021-11-27T09:43:14Z</time>
      </trkpt>
      <trkpt lat="42.39899" lon="-7.746545">
        <time>2021-11-27T09:43:15Z</time>
      </trkpt>
      <trkpt lat="42.398983" lon="-7.746542">
        <time>2021-11-27T09:43:16Z</time>
      </trkpt>
      <trkpt lat="42.398975" lon="-7.7465396">
        <time>2021-11-27T09:43:17Z</time>
      </trkpt>
      <trkpt lat="42.398964" lon="-7.7465377">
        <time>2021-11-27T09:43:18Z</time>
      </trkpt>
      <trkpt lat="42.398952" lon="-7.746539">
        <time>2021-11-27T09:43:19Z</time>
      </trkpt>
      <trkpt lat="42.39894" lon="-7.7465415">
        <time>2021-11-27T09:43:20Z</time>
      </trkpt>
      <trkpt lat="42.398926" lon="-7.746543">
        <time>2021-11-27T09:43:21Z</time>
      </trkpt>
      <trkpt lat="42.39892" lon="-7.746545">
        <time>2021-11-27T09:43:22Z</time>
      </trkpt>
      <trkpt lat="42.398903" lon="-7.7465467">
        <time>2021-11-27T09:43:23Z</time>
      </trkpt>
      <trkpt lat="42.398888" lon="-7.746547">
        <time>2021-11-27T09:43:24Z</time>
      </trkpt>
      <trkpt lat="42.398876" lon="-7.746547">
        <time>2021-11-27T09:43:25Z</time>
      </trkpt>
      <trkpt lat="42.39886" lon="-7.7465467">
        <time>2021-11-27T09:43:26Z</time>
      </trkpt>
      <trkpt lat="42.39885" lon="-7.746545">
        <time>2021-11-27T09:43:27Z</time>
      </trkpt>
      <trkpt lat="42.398834" lon="-7.7465415">
        <time>2021-11-27T09:43:28Z</time>
      </trkpt>
      <trkpt lat="42.398827" lon="-7.746538">
        <time>2021-11-27T09:43:29Z</time>
      </trkpt>
      <trkpt lat="42.398815" lon="-7.7465324">
        <time>2021-11-27T09:43:30Z</time>
      </trkpt>
      <trkpt lat="42.398808" lon="-7.7465243">
        <time>2021-11-27T09:43:31Z</time>
      </trkpt>
      <trkpt lat="42.3988" lon="-7.7465134">
        <time>2021-11-27T09:43:32Z</time>
      </trkpt>
      <trkpt lat="42.39879" lon="-7.7465024">
        <time>2021-11-27T09:43:33Z</time>
      </trkpt>
      <trkpt lat="42.398777" lon="-7.746491">
        <time>2021-11-27T09:43:34Z</time>
      </trkpt>
      <trkpt lat="42.39877" lon="-7.74648">
        <time>2021-11-27T09:43:35Z</time>
      </trkpt>
      <trkpt lat="42.39876" lon="-7.7464685">
        <time>2021-11-27T09:43:36Z</time>
      </trkpt>
      <trkpt lat="42.398754" lon="-7.74646">
        <time>2021-11-27T09:43:37Z</time>
      </trkpt>
      <trkpt lat="42.398746" lon="-7.746452">
        <time>2021-11-27T09:43:38Z</time>
      </trkpt>
      <trkpt lat="42.39874" lon="-7.746443">
        <time>2021-11-27T09:43:39Z</time>
      </trkpt>
      <trkpt lat="42.39873" lon="-7.7464347">
        <time>2021-11-27T09:43:40Z</time>
      </trkpt>
      <trkpt lat="42.39872" lon="-7.7464275">
        <time>2021-11-27T09:43:41Z</time>
      </trkpt>
      <trkpt lat="42.39871" lon="-7.74642">
        <time>2021-11-27T09:43:42Z</time>
      </trkpt>
      <trkpt lat="42.398697" lon="-7.7464123">
        <time>2021-11-27T09:43:43Z</time>
      </trkpt>
      <trkpt lat="42.398685" lon="-7.7464066">
        <time>2021-11-27T09:43:44Z</time>
      </trkpt>
      <trkpt lat="42.39867" lon="-7.746399">
        <time>2021-11-27T09:43:45Z</time>
      </trkpt>
      <trkpt lat="42.398655" lon="-7.7463923">
        <time>2021-11-27T09:43:46Z</time>
      </trkpt>
      <trkpt lat="42.398643" lon="-7.7463846">
        <time>2021-11-27T09:43:47Z</time>
      </trkpt>
      <trkpt lat="42.39863" lon="-7.7463756">
        <time>2021-11-27T09:43:48Z</time>
      </trkpt>
      <trkpt lat="42.398613" lon="-7.7463655">
        <time>2021-11-27T09:43:49Z</time>
      </trkpt>
      <trkpt lat="42.398598" lon="-7.7463527">
        <time>2021-11-27T09:43:50Z</time>
      </trkpt>
      <trkpt lat="42.398582" lon="-7.746344">
        <time>2021-11-27T09:43:50Z</time>
      </trkpt>
      <trkpt lat="42.398563" lon="-7.7463374">
        <time>2021-11-27T09:43:51Z</time>
      </trkpt>
      <trkpt lat="42.398544" lon="-7.7463303">
        <time>2021-11-27T09:43:52Z</time>
      </trkpt>
      <trkpt lat="42.39853" lon="-7.746322">
        <time>2021-11-27T09:43:53Z</time>
      </trkpt>
      <trkpt lat="42.39851" lon="-7.7463174">
        <time>2021-11-27T09:43:54Z</time>
      </trkpt>
      <trkpt lat="42.39849" lon="-7.746314">
        <time>2021-11-27T09:43:55Z</time>
      </trkpt>
      <trkpt lat="42.398476" lon="-7.7463117">
        <time>2021-11-27T09:43:56Z</time>
      </trkpt>
      <trkpt lat="42.398457" lon="-7.7463074">
        <time>2021-11-27T09:43:57Z</time>
      </trkpt>
      <trkpt lat="42.398438" lon="-7.7463036">
        <time>2021-11-27T09:43:58Z</time>
      </trkpt>
      <trkpt lat="42.398422" lon="-7.7463007">
        <time>2021-11-27T09:43:59Z</time>
      </trkpt>
      <trkpt lat="42.398407" lon="-7.7462983">
        <time>2021-11-27T09:44:00Z</time>
      </trkpt>
      <trkpt lat="42.39839" lon="-7.7462964">
        <time>2021-11-27T09:44:01Z</time>
      </trkpt>
      <trkpt lat="42.398376" lon="-7.7462955">
        <time>2021-11-27T09:44:02Z</time>
      </trkpt>
      <trkpt lat="42.398365" lon="-7.746295">
        <time>2021-11-27T09:44:03Z</time>
      </trkpt>
      <trkpt lat="42.39835" lon="-7.746293">
        <time>2021-11-27T09:44:04Z</time>
      </trkpt>
      <trkpt lat="42.39834" lon="-7.7462907">
        <time>2021-11-27T09:44:05Z</time>
      </trkpt>
      <trkpt lat="42.398327" lon="-7.746289">
        <time>2021-11-27T09:44:06Z</time>
      </trkpt>
      <trkpt lat="42.39831" lon="-7.7462873">
        <time>2021-11-27T09:44:07Z</time>
      </trkpt>
      <trkpt lat="42.398296" lon="-7.746285">
        <time>2021-11-27T09:44:08Z</time>
      </trkpt>
      <trkpt lat="42.39828" lon="-7.7462835">
        <time>2021-11-27T09:44:09Z</time>
      </trkpt>
      <trkpt lat="42.398266" lon="-7.746282">
        <time>2021-11-27T09:44:10Z</time>
      </trkpt>
      <trkpt lat="42.39825" lon="-7.746281">
        <time>2021-11-27T09:44:11Z</time>
      </trkpt>
      <trkpt lat="42.398235" lon="-7.7462754">
        <time>2021-11-27T09:44:12Z</time>
      </trkpt>
      <trkpt lat="42.398224" lon="-7.7462673">
        <time>2021-11-27T09:44:13Z</time>
      </trkpt>
      <trkpt lat="42.398212" lon="-7.7462597">
        <time>2021-11-27T09:44:14Z</time>
      </trkpt>
      <trkpt lat="42.3982" lon="-7.746253">
        <time>2021-11-27T09:44:15Z</time>
      </trkpt>
      <trkpt lat="42.398186" lon="-7.7462444">
        <time>2021-11-27T09:44:16Z</time>
      </trkpt>
      <trkpt lat="42.39817" lon="-7.7462354">
        <time>2021-11-27T09:44:17Z</time>
      </trkpt>
      <trkpt lat="42.398155" lon="-7.7462273">
        <time>2021-11-27T09:44:18Z</time>
      </trkpt>
      <trkpt lat="42.39814" lon="-7.7462196">
        <time>2021-11-27T09:44:19Z</time>
      </trkpt>
      <trkpt lat="42.398125" lon="-7.746211">
        <time>2021-11-27T09:44:20Z</time>
      </trkpt>
      <trkpt lat="42.39811" lon="-7.746203">
        <time>2021-11-27T09:44:21Z</time>
      </trkpt>
      <trkpt lat="42.398098" lon="-7.7461925">
        <time>2021-11-27T09:44:22Z</time>
      </trkpt>
      <trkpt lat="42.39809" lon="-7.746177">
        <time>2021-11-27T09:44:23Z</time>
      </trkpt>
      <trkpt lat="42.398083" lon="-7.7461567">
        <time>2021-11-27T09:44:24Z</time>
      </trkpt>
      <trkpt lat="42.398075" lon="-7.7461376">
        <time>2021-11-27T09:44:25Z</time>
      </trkpt>
      <trkpt lat="42.39807" lon="-7.746121">
        <time>2021-11-27T09:44:26Z</time>
      </trkpt>
      <trkpt lat="42.398064" lon="-7.7461057">
        <time>2021-11-27T09:44:27Z</time>
      </trkpt>
      <trkpt lat="42.398056" lon="-7.746091">
        <time>2021-11-27T09:44:28Z</time>
      </trkpt>
      <trkpt lat="42.39804" lon="-7.746078">
        <time>2021-11-27T09:44:29Z</time>
      </trkpt>
      <trkpt lat="42.39803" lon="-7.746071">
        <time>2021-11-27T09:44:30Z</time>
      </trkpt>
      <trkpt lat="42.398018" lon="-7.746066">
        <time>2021-11-27T09:44:31Z</time>
      </trkpt>
      <trkpt lat="42.398003" lon="-7.7460604">
        <time>2021-11-27T09:44:32Z</time>
      </trkpt>
      <trkpt lat="42.39799" lon="-7.7460556">
        <time>2021-11-27T09:44:33Z</time>
      </trkpt>
      <trkpt lat="42.397976" lon="-7.7460494">
        <time>2021-11-27T09:44:34Z</time>
      </trkpt>
      <trkpt lat="42.397964" lon="-7.7460423">
        <time>2021-11-27T09:44:35Z</time>
      </trkpt>
      <trkpt lat="42.397953" lon="-7.746035">
        <time>2021-11-27T09:44:36Z</time>
      </trkpt>
      <trkpt lat="42.397938" lon="-7.74603">
        <time>2021-11-27T09:44:37Z</time>
      </trkpt>
      <trkpt lat="42.397923" lon="-7.7460256">
        <time>2021-11-27T09:44:38Z</time>
      </trkpt>
      <trkpt lat="42.397907" lon="-7.7460194">
        <time>2021-11-27T09:44:39Z</time>
      </trkpt>
      <trkpt lat="42.397892" lon="-7.7460117">
        <time>2021-11-27T09:44:40Z</time>
      </trkpt>
      <trkpt lat="42.397884" lon="-7.7460046">
        <time>2021-11-27T09:44:41Z</time>
      </trkpt>
      <trkpt lat="42.39787" lon="-7.745997">
        <time>2021-11-27T09:44:42Z</time>
      </trkpt>
      <trkpt lat="42.39786" lon="-7.7459893">
        <time>2021-11-27T09:44:43Z</time>
      </trkpt>
      <trkpt lat="42.397846" lon="-7.745984">
        <time>2021-11-27T09:44:44Z</time>
      </trkpt>
      <trkpt lat="42.39783" lon="-7.7459793">
        <time>2021-11-27T09:44:45Z</time>
      </trkpt>
      <trkpt lat="42.39782" lon="-7.7459784">
        <time>2021-11-27T09:44:46Z</time>
      </trkpt>
      <trkpt lat="42.397804" lon="-7.7459784">
        <time>2021-11-27T09:44:47Z</time>
      </trkpt>
      <trkpt lat="42.39779" lon="-7.745979">
        <time>2021-11-27T09:44:48Z</time>
      </trkpt>
      <trkpt lat="42.397774" lon="-7.7459807">
        <time>2021-11-27T09:44:49Z</time>
      </trkpt>
      <trkpt lat="42.39776" lon="-7.745984">
        <time>2021-11-27T09:44:51Z</time>
      </trkpt>
      <trkpt lat="42.397743" lon="-7.7459865">
        <time>2021-11-27T09:44:51Z</time>
      </trkpt>
      <trkpt lat="42.39773" lon="-7.7459903">
        <time>2021-11-27T09:44:52Z</time>
      </trkpt>
      <trkpt lat="42.39772" lon="-7.745995">
        <time>2021-11-27T09:44:53Z</time>
      </trkpt>
      <trkpt lat="42.397705" lon="-7.7460017">
        <time>2021-11-27T09:44:54Z</time>
      </trkpt>
      <trkpt lat="42.39769" lon="-7.746009">
        <time>2021-11-27T09:44:55Z</time>
      </trkpt>
      <trkpt lat="42.39768" lon="-7.746016">
        <time>2021-11-27T09:44:56Z</time>
      </trkpt>
      <trkpt lat="42.397663" lon="-7.746025">
        <time>2021-11-27T09:44:57Z</time>
      </trkpt>
      <trkpt lat="42.39765" lon="-7.7460346">
        <time>2021-11-27T09:44:58Z</time>
      </trkpt>
      <trkpt lat="42.39764" lon="-7.7460446">
        <time>2021-11-27T09:44:59Z</time>
      </trkpt>
      <trkpt lat="42.39763" lon="-7.7460566">
        <time>2021-11-27T09:45:00Z</time>
      </trkpt>
      <trkpt lat="42.397617" lon="-7.7460666">
        <time>2021-11-27T09:45:01Z</time>
      </trkpt>
      <trkpt lat="42.397606" lon="-7.7460756">
        <time>2021-11-27T09:45:02Z</time>
      </trkpt>
      <trkpt lat="42.397594" lon="-7.746083">
        <time>2021-11-27T09:45:03Z</time>
      </trkpt>
      <trkpt lat="42.397587" lon="-7.7460895">
        <time>2021-11-27T09:45:04Z</time>
      </trkpt>
      <trkpt lat="42.39758" lon="-7.7460985">
        <time>2021-11-27T09:45:05Z</time>
      </trkpt>
      <trkpt lat="42.39757" lon="-7.7461076">
        <time>2021-11-27T09:45:06Z</time>
      </trkpt>
      <trkpt lat="42.397564" lon="-7.746115">
        <time>2021-11-27T09:45:07Z</time>
      </trkpt>
      <trkpt lat="42.397556" lon="-7.746123">
        <time>2021-11-27T09:45:08Z</time>
      </trkpt>
      <trkpt lat="42.39755" lon="-7.74613">
        <time>2021-11-27T09:45:09Z</time>
      </trkpt>
      <trkpt lat="42.397537" lon="-7.746138">
        <time>2021-11-27T09:45:10Z</time>
      </trkpt>
      <trkpt lat="42.397526" lon="-7.7461476">
        <time>2021-11-27T09:45:11Z</time>
      </trkpt>
      <trkpt lat="42.39752" lon="-7.746158">
        <time>2021-11-27T09:45:12Z</time>
      </trkpt>
      <trkpt lat="42.397503" lon="-7.746172">
        <time>2021-11-27T09:45:13Z</time>
      </trkpt>
      <trkpt lat="42.397495" lon="-7.746188">
        <time>2021-11-27T09:45:14Z</time>
      </trkpt>
      <trkpt lat="42.397484" lon="-7.746205">
        <time>2021-11-27T09:45:15Z</time>
      </trkpt>
      <trkpt lat="42.397472" lon="-7.74622">
        <time>2021-11-27T09:45:16Z</time>
      </trkpt>
      <trkpt lat="42.397465" lon="-7.746235">
        <time>2021-11-27T09:45:17Z</time>
      </trkpt>
      <trkpt lat="42.397453" lon="-7.7462444">
        <time>2021-11-27T09:45:18Z</time>
      </trkpt>
      <trkpt lat="42.39744" lon="-7.7462535">
        <time>2021-11-27T09:45:19Z</time>
      </trkpt>
      <trkpt lat="42.397423" lon="-7.7462645">
        <time>2021-11-27T09:45:20Z</time>
      </trkpt>
      <trkpt lat="42.397408" lon="-7.7462754">
        <time>2021-11-27T09:45:21Z</time>
      </trkpt>
      <trkpt lat="42.39739" lon="-7.7462854">
        <time>2021-11-27T09:45:22Z</time>
      </trkpt>
      <trkpt lat="42.397373" lon="-7.746295">
        <time>2021-11-27T09:45:23Z</time>
      </trkpt>
      <trkpt lat="42.397358" lon="-7.7463026">
        <time>2021-11-27T09:45:24Z</time>
      </trkpt>
      <trkpt lat="42.397343" lon="-7.7463117">
        <time>2021-11-27T09:45:25Z</time>
      </trkpt>
      <trkpt lat="42.397327" lon="-7.746324">
        <time>2021-11-27T09:45:26Z</time>
      </trkpt>
      <trkpt lat="42.397312" lon="-7.7463346">
        <time>2021-11-27T09:45:27Z</time>
      </trkpt>
      <trkpt lat="42.3973" lon="-7.746347">
        <time>2021-11-27T09:45:28Z</time>
      </trkpt>
      <trkpt lat="42.397285" lon="-7.7463617">
        <time>2021-11-27T09:45:29Z</time>
      </trkpt>
      <trkpt lat="42.39727" lon="-7.7463737">
        <time>2021-11-27T09:45:30Z</time>
      </trkpt>
      <trkpt lat="42.397255" lon="-7.746382">
        <time>2021-11-27T09:45:31Z</time>
      </trkpt>
      <trkpt lat="42.397236" lon="-7.74639">
        <time>2021-11-27T09:45:32Z</time>
      </trkpt>
      <trkpt lat="42.39722" lon="-7.746398">
        <time>2021-11-27T09:45:33Z</time>
      </trkpt>
      <trkpt lat="42.397205" lon="-7.7464056">
        <time>2021-11-27T09:45:34Z</time>
      </trkpt>
      <trkpt lat="42.397194" lon="-7.746415">
        <time>2021-11-27T09:45:35Z</time>
      </trkpt>
      <trkpt lat="42.397182" lon="-7.7464256">
        <time>2021-11-27T09:45:36Z</time>
      </trkpt>
      <trkpt lat="42.39717" lon="-7.7464356">
        <time>2021-11-27T09:45:37Z</time>
      </trkpt>
      <trkpt lat="42.39716" lon="-7.7464476">
        <time>2021-11-27T09:45:38Z</time>
      </trkpt>
      <trkpt lat="42.397152" lon="-7.746457">
        <time>2021-11-27T09:45:39Z</time>
      </trkpt>
      <trkpt lat="42.39715" lon="-7.7464647">
        <time>2021-11-27T09:45:40Z</time>
      </trkpt>
      <trkpt lat="42.39714" lon="-7.7464795">
        <time>2021-11-27T09:45:43Z</time>
      </trkpt>
      <trkpt lat="42.397137" lon="-7.7464805">
        <time>2021-11-27T09:45:44Z</time>
      </trkpt>
      <trkpt lat="42.397137" lon="-7.7464805">
        <time>2021-11-27T09:45:45Z</time>
      </trkpt>
      <trkpt lat="42.397133" lon="-7.74648">
        <time>2021-11-27T09:45:46Z</time>
      </trkpt>
      <trkpt lat="42.39713" lon="-7.7464814">
        <time>2021-11-27T09:45:48Z</time>
      </trkpt>
      <trkpt lat="42.39713" lon="-7.746482">
        <time>2021-11-27T09:45:49Z</time>
      </trkpt>
      <trkpt lat="42.39713" lon="-7.7464843">
        <time>2021-11-27T09:45:50Z</time>
      </trkpt>
      <trkpt lat="42.397125" lon="-7.74649">
        <time>2021-11-27T09:45:51Z</time>
      </trkpt>
      <trkpt lat="42.39712" lon="-7.7464986">
        <time>2021-11-27T09:45:52Z</time>
      </trkpt>
      <trkpt lat="42.397114" lon="-7.7465115">
        <time>2021-11-27T09:45:53Z</time>
      </trkpt>
      <trkpt lat="42.397106" lon="-7.7465243">
        <time>2021-11-27T09:45:54Z</time>
      </trkpt>
      <trkpt lat="42.3971" lon="-7.746535">
        <time>2021-11-27T09:45:55Z</time>
      </trkpt>
      <trkpt lat="42.39709" lon="-7.746544">
        <time>2021-11-27T09:45:56Z</time>
      </trkpt>
      <trkpt lat="42.39708" lon="-7.7465525">
        <time>2021-11-27T09:45:57Z</time>
      </trkpt>
      <trkpt lat="42.397068" lon="-7.74656">
        <time>2021-11-27T09:45:58Z</time>
      </trkpt>
      <trkpt lat="42.397053" lon="-7.7465672">
        <time>2021-11-27T09:45:59Z</time>
      </trkpt>
      <trkpt lat="42.39704" lon="-7.746573">
        <time>2021-11-27T09:46:00Z</time>
      </trkpt>
      <trkpt lat="42.397026" lon="-7.7465796">
        <time>2021-11-27T09:46:01Z</time>
      </trkpt>
      <trkpt lat="42.39701" lon="-7.7465854">
        <time>2021-11-27T09:46:02Z</time>
      </trkpt>
      <trkpt lat="42.396996" lon="-7.7465887">
        <time>2021-11-27T09:46:03Z</time>
      </trkpt>
      <trkpt lat="42.396984" lon="-7.7465916">
        <time>2021-11-27T09:46:04Z</time>
      </trkpt>
      <trkpt lat="42.396973" lon="-7.7465925">
        <time>2021-11-27T09:46:05Z</time>
      </trkpt>
      <trkpt lat="42.396965" lon="-7.7465944">
        <time>2021-11-27T09:46:06Z</time>
      </trkpt>
      <trkpt lat="42.39695" lon="-7.7465973">
        <time>2021-11-27T09:46:07Z</time>
      </trkpt>
      <trkpt lat="42.39694" lon="-7.746599">
        <time>2021-11-27T09:46:08Z</time>
      </trkpt>
      <trkpt lat="42.396927" lon="-7.7465997">
        <time>2021-11-27T09:46:09Z</time>
      </trkpt>
      <trkpt lat="42.39691" lon="-7.7465997">
        <time>2021-11-27T09:46:10Z</time>
      </trkpt>
      <trkpt lat="42.396896" lon="-7.7465982">
        <time>2021-11-27T09:46:11Z</time>
      </trkpt>
      <trkpt lat="42.39689" lon="-7.7465997">
        <time>2021-11-27T09:46:12Z</time>
      </trkpt>
      <trkpt lat="42.396873" lon="-7.746601">
        <time>2021-11-27T09:46:13Z</time>
      </trkpt>
      <trkpt lat="42.39686" lon="-7.746603">
        <time>2021-11-27T09:46:14Z</time>
      </trkpt>
      <trkpt lat="42.396847" lon="-7.746605">
        <time>2021-11-27T09:46:15Z</time>
      </trkpt>
      <trkpt lat="42.39683" lon="-7.746606">
        <time>2021-11-27T09:46:16Z</time>
      </trkpt>
      <trkpt lat="42.39682" lon="-7.7466087">
        <time>2021-11-27T09:46:17Z</time>
      </trkpt>
      <trkpt lat="42.39681" lon="-7.7466125">
        <time>2021-11-27T09:46:18Z</time>
      </trkpt>
      <trkpt lat="42.396797" lon="-7.746615">
        <time>2021-11-27T09:46:19Z</time>
      </trkpt>
      <trkpt lat="42.396786" lon="-7.746618">
        <time>2021-11-27T09:46:20Z</time>
      </trkpt>
      <trkpt lat="42.39677" lon="-7.7466197">
        <time>2021-11-27T09:46:21Z</time>
      </trkpt>
      <trkpt lat="42.396763" lon="-7.74662">
        <time>2021-11-27T09:46:22Z</time>
      </trkpt>
      <trkpt lat="42.39675" lon="-7.7466216">
        <time>2021-11-27T09:46:23Z</time>
      </trkpt>
      <trkpt lat="42.39674" lon="-7.7466226">
        <time>2021-11-27T09:46:24Z</time>
      </trkpt>
      <trkpt lat="42.396732" lon="-7.746626">
        <time>2021-11-27T09:46:25Z</time>
      </trkpt>
      <trkpt lat="42.39672" lon="-7.7466297">
        <time>2021-11-27T09:46:26Z</time>
      </trkpt>
      <trkpt lat="42.39671" lon="-7.7466335">
        <time>2021-11-27T09:46:27Z</time>
      </trkpt>
      <trkpt lat="42.396698" lon="-7.7466335">
        <time>2021-11-27T09:46:28Z</time>
      </trkpt>
      <trkpt lat="42.396687" lon="-7.746632">
        <time>2021-11-27T09:46:29Z</time>
      </trkpt>
      <trkpt lat="42.39667" lon="-7.746631">
        <time>2021-11-27T09:46:30Z</time>
      </trkpt>
      <trkpt lat="42.396652" lon="-7.746632">
        <time>2021-11-27T09:46:31Z</time>
      </trkpt>
      <trkpt lat="42.39664" lon="-7.746635">
        <time>2021-11-27T09:46:32Z</time>
      </trkpt>
      <trkpt lat="42.39663" lon="-7.746637">
        <time>2021-11-27T09:46:33Z</time>
      </trkpt>
      <trkpt lat="42.396614" lon="-7.74664">
        <time>2021-11-27T09:46:34Z</time>
      </trkpt>
      <trkpt lat="42.3966" lon="-7.746644">
        <time>2021-11-27T09:46:35Z</time>
      </trkpt>
      <trkpt lat="42.396587" lon="-7.746648">
        <time>2021-11-27T09:46:36Z</time>
      </trkpt>
      <trkpt lat="42.396576" lon="-7.746652">
        <time>2021-11-27T09:46:37Z</time>
      </trkpt>
      <trkpt lat="42.39656" lon="-7.7466593">
        <time>2021-11-27T09:46:38Z</time>
      </trkpt>
      <trkpt lat="42.39655" lon="-7.746667">
        <time>2021-11-27T09:46:39Z</time>
      </trkpt>
      <trkpt lat="42.396538" lon="-7.7466745">
        <time>2021-11-27T09:46:40Z</time>
      </trkpt>
      <trkpt lat="42.39653" lon="-7.7466836">
        <time>2021-11-27T09:46:41Z</time>
      </trkpt>
      <trkpt lat="42.39652" lon="-7.7466917">
        <time>2021-11-27T09:46:42Z</time>
      </trkpt>
      <trkpt lat="42.396507" lon="-7.7466965">
        <time>2021-11-27T09:46:43Z</time>
      </trkpt>
      <trkpt lat="42.3965" lon="-7.746702">
        <time>2021-11-27T09:46:44Z</time>
      </trkpt>
      <trkpt lat="42.39649" lon="-7.7467065">
        <time>2021-11-27T09:46:45Z</time>
      </trkpt>
      <trkpt lat="42.396477" lon="-7.746708">
        <time>2021-11-27T09:46:46Z</time>
      </trkpt>
      <trkpt lat="42.396465" lon="-7.7467084">
        <time>2021-11-27T09:46:47Z</time>
      </trkpt>
      <trkpt lat="42.396458" lon="-7.7467093">
        <time>2021-11-27T09:46:48Z</time>
      </trkpt>
      <trkpt lat="42.39645" lon="-7.746708">
        <time>2021-11-27T09:46:49Z</time>
      </trkpt>
      <trkpt lat="42.39644" lon="-7.746706">
        <time>2021-11-27T09:46:50Z</time>
      </trkpt>
      <trkpt lat="42.39643" lon="-7.746703">
        <time>2021-11-27T09:46:51Z</time>
      </trkpt>
      <trkpt lat="42.396427" lon="-7.746702">
        <time>2021-11-27T09:46:52Z</time>
      </trkpt>
      <trkpt lat="42.39641" lon="-7.7466946">
        <time>2021-11-27T09:46:55Z</time>
      </trkpt>
      <trkpt lat="42.396408" lon="-7.7466946">
        <time>2021-11-27T09:46:56Z</time>
      </trkpt>
      <trkpt lat="42.396404" lon="-7.7466974">
        <time>2021-11-27T09:46:57Z</time>
      </trkpt>
      <trkpt lat="42.396397" lon="-7.746702">
        <time>2021-11-27T09:46:58Z</time>
      </trkpt>
      <trkpt lat="42.39639" lon="-7.746707">
        <time>2021-11-27T09:46:59Z</time>
      </trkpt>
      <trkpt lat="42.396374" lon="-7.746712">
        <time>2021-11-27T09:47:00Z</time>
      </trkpt>
      <trkpt lat="42.396362" lon="-7.746715">
        <time>2021-11-27T09:47:01Z</time>
      </trkpt>
      <trkpt lat="42.396347" lon="-7.7467136">
        <time>2021-11-27T09:47:02Z</time>
      </trkpt>
      <trkpt lat="42.39633" lon="-7.7467136">
        <time>2021-11-27T09:47:03Z</time>
      </trkpt>
      <trkpt lat="42.39632" lon="-7.746719">
        <time>2021-11-27T09:47:04Z</time>
      </trkpt>
      <trkpt lat="42.39631" lon="-7.7467256">
        <time>2021-11-27T09:47:05Z</time>
      </trkpt>
      <trkpt lat="42.396297" lon="-7.7467318">
        <time>2021-11-27T09:47:06Z</time>
      </trkpt>
      <trkpt lat="42.396282" lon="-7.746738">
        <time>2021-11-27T09:47:07Z</time>
      </trkpt>
      <trkpt lat="42.396267" lon="-7.746744">
        <time>2021-11-27T09:47:08Z</time>
      </trkpt>
      <trkpt lat="42.39625" lon="-7.746751">
        <time>2021-11-27T09:47:09Z</time>
      </trkpt>
      <trkpt lat="42.39624" lon="-7.746756">
        <time>2021-11-27T09:47:10Z</time>
      </trkpt>
      <trkpt lat="42.396225" lon="-7.7467623">
        <time>2021-11-27T09:47:11Z</time>
      </trkpt>
      <trkpt lat="42.39621" lon="-7.746768">
        <time>2021-11-27T09:47:12Z</time>
      </trkpt>
      <trkpt lat="42.396194" lon="-7.7467704">
        <time>2021-11-27T09:47:13Z</time>
      </trkpt>
      <trkpt lat="42.396183" lon="-7.746774">
        <time>2021-11-27T09:47:14Z</time>
      </trkpt>
      <trkpt lat="42.39617" lon="-7.7467804">
        <time>2021-11-27T09:47:15Z</time>
      </trkpt>
      <trkpt lat="42.39616" lon="-7.746786">
        <time>2021-11-27T09:47:16Z</time>
      </trkpt>
      <trkpt lat="42.39615" lon="-7.746793">
        <time>2021-11-27T09:47:17Z</time>
      </trkpt>
      <trkpt lat="42.396137" lon="-7.7467995">
        <time>2021-11-27T09:47:18Z</time>
      </trkpt>
      <trkpt lat="42.396126" lon="-7.7468085">
        <time>2021-11-27T09:47:19Z</time>
      </trkpt>
      <trkpt lat="42.39611" lon="-7.746815">
        <time>2021-11-27T09:47:20Z</time>
      </trkpt>
      <trkpt lat="42.3961" lon="-7.7468243">
        <time>2021-11-27T09:47:21Z</time>
      </trkpt>
      <trkpt lat="42.396088" lon="-7.7468348">
        <time>2021-11-27T09:47:22Z</time>
      </trkpt>
      <trkpt lat="42.396072" lon="-7.746845">
        <time>2021-11-27T09:47:23Z</time>
      </trkpt>
      <trkpt lat="42.39606" lon="-7.7468534">
        <time>2021-11-27T09:47:24Z</time>
      </trkpt>
      <trkpt lat="42.396046" lon="-7.74686">
        <time>2021-11-27T09:47:25Z</time>
      </trkpt>
      <trkpt lat="42.39603" lon="-7.7468657">
        <time>2021-11-27T09:47:26Z</time>
      </trkpt>
      <trkpt lat="42.39601" lon="-7.7468734">
        <time>2021-11-27T09:47:27Z</time>
      </trkpt>
      <trkpt lat="42.395996" lon="-7.7468805">
        <time>2021-11-27T09:47:28Z</time>
      </trkpt>
      <trkpt lat="42.39598" lon="-7.7468877">
        <time>2021-11-27T09:47:29Z</time>
      </trkpt>
      <trkpt lat="42.39597" lon="-7.746895">
        <time>2021-11-27T09:47:30Z</time>
      </trkpt>
      <trkpt lat="42.395954" lon="-7.7469025">
        <time>2021-11-27T09:47:31Z</time>
      </trkpt>
      <trkpt lat="42.39594" lon="-7.746908">
        <time>2021-11-27T09:47:32Z</time>
      </trkpt>
      <trkpt lat="42.395924" lon="-7.7469125">
        <time>2021-11-27T09:47:33Z</time>
      </trkpt>
      <trkpt lat="42.39591" lon="-7.746918">
        <time>2021-11-27T09:47:34Z</time>
      </trkpt>
      <trkpt lat="42.395897" lon="-7.7469273">
        <time>2021-11-27T09:47:35Z</time>
      </trkpt>
      <trkpt lat="42.39588" lon="-7.746937">
        <time>2021-11-27T09:47:36Z</time>
      </trkpt>
      <trkpt lat="42.395866" lon="-7.7469473">
        <time>2021-11-27T09:47:37Z</time>
      </trkpt>
      <trkpt lat="42.395855" lon="-7.746957">
        <time>2021-11-27T09:47:38Z</time>
      </trkpt>
      <trkpt lat="42.395844" lon="-7.746968">
        <time>2021-11-27T09:47:39Z</time>
      </trkpt>
      <trkpt lat="42.395836" lon="-7.746977">
        <time>2021-11-27T09:47:40Z</time>
      </trkpt>
      <trkpt lat="42.39582" lon="-7.7469826">
        <time>2021-11-27T09:47:41Z</time>
      </trkpt>
      <trkpt lat="42.395813" lon="-7.746987">
        <time>2021-11-27T09:47:42Z</time>
      </trkpt>
      <trkpt lat="42.395798" lon="-7.7469907">
        <time>2021-11-27T09:47:43Z</time>
      </trkpt>
      <trkpt lat="42.395782" lon="-7.746996">
        <time>2021-11-27T09:47:44Z</time>
      </trkpt>
      <trkpt lat="42.395767" lon="-7.747002">
        <time>2021-11-27T09:47:45Z</time>
      </trkpt>
      <trkpt lat="42.395752" lon="-7.747007">
        <time>2021-11-27T09:47:46Z</time>
      </trkpt>
      <trkpt lat="42.395737" lon="-7.7470098">
        <time>2021-11-27T09:47:47Z</time>
      </trkpt>
      <trkpt lat="42.39572" lon="-7.7470098">
        <time>2021-11-27T09:47:48Z</time>
      </trkpt>
      <trkpt lat="42.395706" lon="-7.7470074">
        <time>2021-11-27T09:47:50Z</time>
      </trkpt>
      <trkpt lat="42.395695" lon="-7.7470016">
        <time>2021-11-27T09:47:50Z</time>
      </trkpt>
      <trkpt lat="42.395683" lon="-7.746996">
        <time>2021-11-27T09:47:51Z</time>
      </trkpt>
      <trkpt lat="42.395668" lon="-7.7469907">
        <time>2021-11-27T09:47:52Z</time>
      </trkpt>
      <trkpt lat="42.39565" lon="-7.7469835">
        <time>2021-11-27T09:47:53Z</time>
      </trkpt>
      <trkpt lat="42.395626" lon="-7.746976">
        <time>2021-11-27T09:47:54Z</time>
      </trkpt>
      <trkpt lat="42.395603" lon="-7.7469716">
        <time>2021-11-27T09:47:55Z</time>
      </trkpt>
      <trkpt lat="42.39558" lon="-7.7469716">
        <time>2021-11-27T09:47:56Z</time>
      </trkpt>
      <trkpt lat="42.395565" lon="-7.746973">
        <time>2021-11-27T09:47:57Z</time>
      </trkpt>
      <trkpt lat="42.39555" lon="-7.746974">
        <time>2021-11-27T09:47:58Z</time>
      </trkpt>
      <trkpt lat="42.39553" lon="-7.746975">
        <time>2021-11-27T09:47:59Z</time>
      </trkpt>
      <trkpt lat="42.395515" lon="-7.746976">
        <time>2021-11-27T09:48:00Z</time>
      </trkpt>
      <trkpt lat="42.395493" lon="-7.746977">
        <time>2021-11-27T09:48:01Z</time>
      </trkpt>
      <trkpt lat="42.395477" lon="-7.7469773">
        <time>2021-11-27T09:48:02Z</time>
      </trkpt>
      <trkpt lat="42.39546" lon="-7.7469797">
        <time>2021-11-27T09:48:03Z</time>
      </trkpt>
      <trkpt lat="42.395443" lon="-7.7469816">
        <time>2021-11-27T09:48:04Z</time>
      </trkpt>
      <trkpt lat="42.39543" lon="-7.7469864">
        <time>2021-11-27T09:48:04Z</time>
      </trkpt>
      <trkpt lat="42.39542" lon="-7.7469907">
        <time>2021-11-27T09:48:05Z</time>
      </trkpt>
      <trkpt lat="42.39541" lon="-7.746996">
        <time>2021-11-27T09:48:06Z</time>
      </trkpt>
      <trkpt lat="42.3954" lon="-7.7470016">
        <time>2021-11-27T09:48:07Z</time>
      </trkpt>
      <trkpt lat="42.395386" lon="-7.7470055">
        <time>2021-11-27T09:48:08Z</time>
      </trkpt>
      <trkpt lat="42.39537" lon="-7.7470107">
        <time>2021-11-27T09:48:09Z</time>
      </trkpt>
      <trkpt lat="42.395355" lon="-7.7470155">
        <time>2021-11-27T09:48:10Z</time>
      </trkpt>
      <trkpt lat="42.39534" lon="-7.7470217">
        <time>2021-11-27T09:48:11Z</time>
      </trkpt>
      <trkpt lat="42.395325" lon="-7.7470284">
        <time>2021-11-27T09:48:12Z</time>
      </trkpt>
      <trkpt lat="42.395306" lon="-7.747035">
        <time>2021-11-27T09:48:13Z</time>
      </trkpt>
      <trkpt lat="42.39529" lon="-7.7470417">
        <time>2021-11-27T09:48:14Z</time>
      </trkpt>
      <trkpt lat="42.39528" lon="-7.747047">
        <time>2021-11-27T09:48:15Z</time>
      </trkpt>
      <trkpt lat="42.395264" lon="-7.7470517">
        <time>2021-11-27T09:48:16Z</time>
      </trkpt>
      <trkpt lat="42.39525" lon="-7.7470546">
        <time>2021-11-27T09:48:17Z</time>
      </trkpt>
      <trkpt lat="42.395233" lon="-7.7470584">
        <time>2021-11-27T09:48:18Z</time>
      </trkpt>
      <trkpt lat="42.395218" lon="-7.7470603">
        <time>2021-11-27T09:48:19Z</time>
      </trkpt>
      <trkpt lat="42.395203" lon="-7.747062">
        <time>2021-11-27T09:48:20Z</time>
      </trkpt>
      <trkpt lat="42.395187" lon="-7.747066">
        <time>2021-11-27T09:48:21Z</time>
      </trkpt>
      <trkpt lat="42.395172" lon="-7.7470713">
        <time>2021-11-27T09:48:22Z</time>
      </trkpt>
      <trkpt lat="42.395157" lon="-7.747076">
        <time>2021-11-27T09:48:23Z</time>
      </trkpt>
      <trkpt lat="42.39514" lon="-7.74708">
        <time>2021-11-27T09:48:24Z</time>
      </trkpt>
      <trkpt lat="42.39513" lon="-7.7470846">
        <time>2021-11-27T09:48:25Z</time>
      </trkpt>
      <trkpt lat="42.395123" lon="-7.7470884">
        <time>2021-11-27T09:48:26Z</time>
      </trkpt>
      <trkpt lat="42.39511" lon="-7.7470922">
        <time>2021-11-27T09:48:27Z</time>
      </trkpt>
      <trkpt lat="42.395096" lon="-7.7470946">
        <time>2021-11-27T09:48:28Z</time>
      </trkpt>
      <trkpt lat="42.39509" lon="-7.747097">
        <time>2021-11-27T09:48:29Z</time>
      </trkpt>
      <trkpt lat="42.395073" lon="-7.7471013">
        <time>2021-11-27T09:48:30Z</time>
      </trkpt>
      <trkpt lat="42.395058" lon="-7.7471066">
        <time>2021-11-27T09:48:31Z</time>
      </trkpt>
      <trkpt lat="42.395042" lon="-7.7471128">
        <time>2021-11-27T09:48:32Z</time>
      </trkpt>
      <trkpt lat="42.395027" lon="-7.7471213">
        <time>2021-11-27T09:48:33Z</time>
      </trkpt>
      <trkpt lat="42.39501" lon="-7.7471313">
        <time>2021-11-27T09:48:34Z</time>
      </trkpt>
      <trkpt lat="42.395" lon="-7.7471433">
        <time>2021-11-27T09:48:35Z</time>
      </trkpt>
      <trkpt lat="42.394985" lon="-7.7471557">
        <time>2021-11-27T09:48:36Z</time>
      </trkpt>
      <trkpt lat="42.394966" lon="-7.7471647">
        <time>2021-11-27T09:48:37Z</time>
      </trkpt>
      <trkpt lat="42.394955" lon="-7.7471695">
        <time>2021-11-27T09:48:38Z</time>
      </trkpt>
      <trkpt lat="42.394943" lon="-7.7471743">
        <time>2021-11-27T09:48:39Z</time>
      </trkpt>
      <trkpt lat="42.394928" lon="-7.747179">
        <time>2021-11-27T09:48:40Z</time>
      </trkpt>
      <trkpt lat="42.394917" lon="-7.7471848">
        <time>2021-11-27T09:48:41Z</time>
      </trkpt>
      <trkpt lat="42.3949" lon="-7.747193">
        <time>2021-11-27T09:48:42Z</time>
      </trkpt>
      <trkpt lat="42.394886" lon="-7.7472034">
        <time>2021-11-27T09:48:43Z</time>
      </trkpt>
      <trkpt lat="42.39487" lon="-7.747215">
        <time>2021-11-27T09:48:44Z</time>
      </trkpt>
      <trkpt lat="42.394855" lon="-7.7472258">
        <time>2021-11-27T09:48:45Z</time>
      </trkpt>
      <trkpt lat="42.394848" lon="-7.747236">
        <time>2021-11-27T09:48:46Z</time>
      </trkpt>
      <trkpt lat="42.394833" lon="-7.7472453">
        <time>2021-11-27T09:48:47Z</time>
      </trkpt>
      <trkpt lat="42.394825" lon="-7.7472544">
        <time>2021-11-27T09:48:49Z</time>
      </trkpt>
      <trkpt lat="42.39481" lon="-7.7472615">
        <time>2021-11-27T09:48:49Z</time>
      </trkpt>
      <trkpt lat="42.3948" lon="-7.747269">
        <time>2021-11-27T09:48:50Z</time>
      </trkpt>
      <trkpt lat="42.394783" lon="-7.7472773">
        <time>2021-11-27T09:48:51Z</time>
      </trkpt>
      <trkpt lat="42.394768" lon="-7.7472863">
        <time>2021-11-27T09:48:52Z</time>
      </trkpt>
      <trkpt lat="42.394753" lon="-7.74729">
        <time>2021-11-27T09:48:53Z</time>
      </trkpt>
      <trkpt lat="42.39474" lon="-7.747294">
        <time>2021-11-27T09:48:54Z</time>
      </trkpt>
      <trkpt lat="42.394722" lon="-7.747299">
        <time>2021-11-27T09:48:55Z</time>
      </trkpt>
      <trkpt lat="42.394707" lon="-7.747305">
        <time>2021-11-27T09:48:56Z</time>
      </trkpt>
      <trkpt lat="42.394695" lon="-7.747312">
        <time>2021-11-27T09:48:57Z</time>
      </trkpt>
      <trkpt lat="42.394684" lon="-7.74732">
        <time>2021-11-27T09:48:58Z</time>
      </trkpt>
      <trkpt lat="42.39467" lon="-7.7473297">
        <time>2021-11-27T09:48:59Z</time>
      </trkpt>
      <trkpt lat="42.394657" lon="-7.747339">
        <time>2021-11-27T09:49:00Z</time>
      </trkpt>
      <trkpt lat="42.394646" lon="-7.7473493">
        <time>2021-11-27T09:49:01Z</time>
      </trkpt>
      <trkpt lat="42.394638" lon="-7.747359">
        <time>2021-11-27T09:49:02Z</time>
      </trkpt>
      <trkpt lat="42.394627" lon="-7.747367">
        <time>2021-11-27T09:49:03Z</time>
      </trkpt>
      <trkpt lat="42.394615" lon="-7.7473755">
        <time>2021-11-27T09:49:04Z</time>
      </trkpt>
      <trkpt lat="42.394608" lon="-7.7473874">
        <time>2021-11-27T09:49:05Z</time>
      </trkpt>
      <trkpt lat="42.394596" lon="-7.7474027">
        <time>2021-11-27T09:49:06Z</time>
      </trkpt>
      <trkpt lat="42.394585" lon="-7.7474203">
        <time>2021-11-27T09:49:07Z</time>
      </trkpt>
      <trkpt lat="42.394577" lon="-7.747437">
        <time>2021-11-27T09:49:08Z</time>
      </trkpt>
      <trkpt lat="42.39456" lon="-7.747454">
        <time>2021-11-27T09:49:09Z</time>
      </trkpt>
      <trkpt lat="42.39455" lon="-7.74747">
        <time>2021-11-27T09:49:10Z</time>
      </trkpt>
      <trkpt lat="42.394535" lon="-7.747483">
        <time>2021-11-27T09:49:11Z</time>
      </trkpt>
      <trkpt lat="42.394527" lon="-7.747494">
        <time>2021-11-27T09:49:12Z</time>
      </trkpt>
      <trkpt lat="42.39452" lon="-7.747509">
        <time>2021-11-27T09:49:13Z</time>
      </trkpt>
      <trkpt lat="42.39451" lon="-7.7475233">
        <time>2021-11-27T09:49:14Z</time>
      </trkpt>
      <trkpt lat="42.3945" lon="-7.747538">
        <time>2021-11-27T09:49:15Z</time>
      </trkpt>
      <trkpt lat="42.394497" lon="-7.747554">
        <time>2021-11-27T09:49:16Z</time>
      </trkpt>
      <trkpt lat="42.39449" lon="-7.7475724">
        <time>2021-11-27T09:49:17Z</time>
      </trkpt>
      <trkpt lat="42.394485" lon="-7.7475896">
        <time>2021-11-27T09:49:18Z</time>
      </trkpt>
      <trkpt lat="42.39448" lon="-7.7476044">
        <time>2021-11-27T09:49:19Z</time>
      </trkpt>
      <trkpt lat="42.39448" lon="-7.747617">
        <time>2021-11-27T09:49:20Z</time>
      </trkpt>
      <trkpt lat="42.394474" lon="-7.7476277">
        <time>2021-11-27T09:49:21Z</time>
      </trkpt>
      <trkpt lat="42.394466" lon="-7.747638">
        <time>2021-11-27T09:49:22Z</time>
      </trkpt>
      <trkpt lat="42.39446" lon="-7.74765">
        <time>2021-11-27T09:49:23Z</time>
      </trkpt>
      <trkpt lat="42.39445" lon="-7.7476635">
        <time>2021-11-27T09:49:24Z</time>
      </trkpt>
      <trkpt lat="42.394444" lon="-7.7476788">
        <time>2021-11-27T09:49:25Z</time>
      </trkpt>
      <trkpt lat="42.394436" lon="-7.7476974">
        <time>2021-11-27T09:49:26Z</time>
      </trkpt>
      <trkpt lat="42.39443" lon="-7.7477164">
        <time>2021-11-27T09:49:27Z</time>
      </trkpt>
      <trkpt lat="42.39442" lon="-7.7477345">
        <time>2021-11-27T09:49:28Z</time>
      </trkpt>
      <trkpt lat="42.39441" lon="-7.747751">
        <time>2021-11-27T09:49:29Z</time>
      </trkpt>
      <trkpt lat="42.394398" lon="-7.7477674">
        <time>2021-11-27T09:49:30Z</time>
      </trkpt>
      <trkpt lat="42.39439" lon="-7.747784">
        <time>2021-11-27T09:49:31Z</time>
      </trkpt>
      <trkpt lat="42.394382" lon="-7.7478">
        <time>2021-11-27T09:49:32Z</time>
      </trkpt>
      <trkpt lat="42.39437" lon="-7.747814">
        <time>2021-11-27T09:49:33Z</time>
      </trkpt>
      <trkpt lat="42.39436" lon="-7.747827">
        <time>2021-11-27T09:49:34Z</time>
      </trkpt>
      <trkpt lat="42.394352" lon="-7.7478395">
        <time>2021-11-27T09:49:35Z</time>
      </trkpt>
      <trkpt lat="42.39434" lon="-7.747858">
        <time>2021-11-27T09:49:36Z</time>
      </trkpt>
      <trkpt lat="42.394333" lon="-7.747874">
        <time>2021-11-27T09:49:37Z</time>
      </trkpt>
      <trkpt lat="42.394325" lon="-7.7478914">
        <time>2021-11-27T09:49:38Z</time>
      </trkpt>
      <trkpt lat="42.39432" lon="-7.7479076">
        <time>2021-11-27T09:49:39Z</time>
      </trkpt>
      <trkpt lat="42.394318" lon="-7.7479277">
        <time>2021-11-27T09:49:40Z</time>
      </trkpt>
      <trkpt lat="42.39431" lon="-7.7479477">
        <time>2021-11-27T09:49:41Z</time>
      </trkpt>
      <trkpt lat="42.39431" lon="-7.747963">
        <time>2021-11-27T09:49:42Z</time>
      </trkpt>
      <trkpt lat="42.394306" lon="-7.7479763">
        <time>2021-11-27T09:49:43Z</time>
      </trkpt>
      <trkpt lat="42.394302" lon="-7.7479906">
        <time>2021-11-27T09:49:44Z</time>
      </trkpt>
      <trkpt lat="42.394295" lon="-7.748005">
        <time>2021-11-27T09:49:45Z</time>
      </trkpt>
      <trkpt lat="42.394287" lon="-7.7480197">
        <time>2021-11-27T09:49:46Z</time>
      </trkpt>
      <trkpt lat="42.39428" lon="-7.748034">
        <time>2021-11-27T09:49:47Z</time>
      </trkpt>
      <trkpt lat="42.394268" lon="-7.748047">
        <time>2021-11-27T09:49:49Z</time>
      </trkpt>
      <trkpt lat="42.39426" lon="-7.7480607">
        <time>2021-11-27T09:49:49Z</time>
      </trkpt>
      <trkpt lat="42.394253" lon="-7.748078">
        <time>2021-11-27T09:49:50Z</time>
      </trkpt>
      <trkpt lat="42.39424" lon="-7.748098">
        <time>2021-11-27T09:49:51Z</time>
      </trkpt>
      <trkpt lat="42.39423" lon="-7.748118">
        <time>2021-11-27T09:49:52Z</time>
      </trkpt>
      <trkpt lat="42.39422" lon="-7.748133">
        <time>2021-11-27T09:49:53Z</time>
      </trkpt>
      <trkpt lat="42.39421" lon="-7.748144">
        <time>2021-11-27T09:49:54Z</time>
      </trkpt>
      <trkpt lat="42.3942" lon="-7.74815">
        <time>2021-11-27T09:49:55Z</time>
      </trkpt>
      <trkpt lat="42.394188" lon="-7.748152">
        <time>2021-11-27T09:49:56Z</time>
      </trkpt>
      <trkpt lat="42.39418" lon="-7.748151">
        <time>2021-11-27T09:49:57Z</time>
      </trkpt>
      <trkpt lat="42.394173" lon="-7.748147">
        <time>2021-11-27T09:49:58Z</time>
      </trkpt>
      <trkpt lat="42.394165" lon="-7.7481427">
        <time>2021-11-27T09:49:59Z</time>
      </trkpt>
      <trkpt lat="42.39416" lon="-7.748137">
        <time>2021-11-27T09:50:00Z</time>
      </trkpt>
      <trkpt lat="42.394157" lon="-7.74813">
        <time>2021-11-27T09:50:01Z</time>
      </trkpt>
      <trkpt lat="42.394146" lon="-7.7481217">
        <time>2021-11-27T09:50:02Z</time>
      </trkpt>
      <trkpt lat="42.39414" lon="-7.7481112">
        <time>2021-11-27T09:50:03Z</time>
      </trkpt>
      <trkpt lat="42.394135" lon="-7.7481017">
        <time>2021-11-27T09:50:04Z</time>
      </trkpt>
      <trkpt lat="42.394127" lon="-7.748092">
        <time>2021-11-27T09:50:05Z</time>
      </trkpt>
      <trkpt lat="42.394115" lon="-7.7480793">
        <time>2021-11-27T09:50:06Z</time>
      </trkpt>
      <trkpt lat="42.394108" lon="-7.7480617">
        <time>2021-11-27T09:50:07Z</time>
      </trkpt>
      <trkpt lat="42.3941" lon="-7.748043">
        <time>2021-11-27T09:50:08Z</time>
      </trkpt>
      <trkpt lat="42.394093" lon="-7.7480235">
        <time>2021-11-27T09:50:09Z</time>
      </trkpt>
      <trkpt lat="42.39409" lon="-7.748005">
        <time>2021-11-27T09:50:10Z</time>
      </trkpt>
      <trkpt lat="42.39408" lon="-7.7479873">
        <time>2021-11-27T09:50:11Z</time>
      </trkpt>
      <trkpt lat="42.394073" lon="-7.7479706">
        <time>2021-11-27T09:50:12Z</time>
      </trkpt>
      <trkpt lat="42.394066" lon="-7.7479544">
        <time>2021-11-27T09:50:13Z</time>
      </trkpt>
      <trkpt lat="42.39406" lon="-7.747939">
        <time>2021-11-27T09:50:14Z</time>
      </trkpt>
      <trkpt lat="42.39405" lon="-7.7479253">
        <time>2021-11-27T09:50:15Z</time>
      </trkpt>
      <trkpt lat="42.394043" lon="-7.747911">
        <time>2021-11-27T09:50:16Z</time>
      </trkpt>
      <trkpt lat="42.39404" lon="-7.747897">
        <time>2021-11-27T09:50:17Z</time>
      </trkpt>
      <trkpt lat="42.39403" lon="-7.7478824">
        <time>2021-11-27T09:50:18Z</time>
      </trkpt>
      <trkpt lat="42.39403" lon="-7.747866">
        <time>2021-11-27T09:50:19Z</time>
      </trkpt>
      <trkpt lat="42.394028" lon="-7.7478485">
        <time>2021-11-27T09:50:20Z</time>
      </trkpt>
      <trkpt lat="42.394024" lon="-7.747831">
        <time>2021-11-27T09:50:21Z</time>
      </trkpt>
      <trkpt lat="42.394024" lon="-7.7478123">
        <time>2021-11-27T09:50:22Z</time>
      </trkpt>
      <trkpt lat="42.39402" lon="-7.747794">
        <time>2021-11-27T09:50:23Z</time>
      </trkpt>
      <trkpt lat="42.394016" lon="-7.7477746">
        <time>2021-11-27T09:50:24Z</time>
      </trkpt>
      <trkpt lat="42.394016" lon="-7.7477555">
        <time>2021-11-27T09:50:25Z</time>
      </trkpt>
      <trkpt lat="42.39401" lon="-7.7477374">
        <time>2021-11-27T09:50:26Z</time>
      </trkpt>
      <trkpt lat="42.39401" lon="-7.7477217">
        <time>2021-11-27T09:50:27Z</time>
      </trkpt>
      <trkpt lat="42.39401" lon="-7.747707">
        <time>2021-11-27T09:50:28Z</time>
      </trkpt>
      <trkpt lat="42.394005" lon="-7.7476916">
        <time>2021-11-27T09:50:29Z</time>
      </trkpt>
      <trkpt lat="42.39401" lon="-7.7476754">
        <time>2021-11-27T09:50:30Z</time>
      </trkpt>
      <trkpt lat="42.39401" lon="-7.7476616">
        <time>2021-11-27T09:50:31Z</time>
      </trkpt>
      <trkpt lat="42.39401" lon="-7.7476454">
        <time>2021-11-27T09:50:32Z</time>
      </trkpt>
      <trkpt lat="42.39401" lon="-7.7476277">
        <time>2021-11-27T09:50:33Z</time>
      </trkpt>
      <trkpt lat="42.39401" lon="-7.74761">
        <time>2021-11-27T09:50:34Z</time>
      </trkpt>
      <trkpt lat="42.394005" lon="-7.7475953">
        <time>2021-11-27T09:50:35Z</time>
      </trkpt>
      <trkpt lat="42.394005" lon="-7.747581">
        <time>2021-11-27T09:50:36Z</time>
      </trkpt>
      <trkpt lat="42.394005" lon="-7.7475643">
        <time>2021-11-27T09:50:37Z</time>
      </trkpt>
      <trkpt lat="42.394005" lon="-7.7475476">
        <time>2021-11-27T09:50:38Z</time>
      </trkpt>
      <trkpt lat="42.394" lon="-7.7475276">
        <time>2021-11-27T09:50:39Z</time>
      </trkpt>
      <trkpt lat="42.394" lon="-7.7475085">
        <time>2021-11-27T09:50:40Z</time>
      </trkpt>
      <trkpt lat="42.393997" lon="-7.7474914">
        <time>2021-11-27T09:50:41Z</time>
      </trkpt>
      <trkpt lat="42.39399" lon="-7.7474766">
        <time>2021-11-27T09:50:42Z</time>
      </trkpt>
      <trkpt lat="42.393982" lon="-7.747463">
        <time>2021-11-27T09:50:43Z</time>
      </trkpt>
      <trkpt lat="42.39398" lon="-7.7474504">
        <time>2021-11-27T09:50:44Z</time>
      </trkpt>
      <trkpt lat="42.39397" lon="-7.7474356">
        <time>2021-11-27T09:50:45Z</time>
      </trkpt>
      <trkpt lat="42.393963" lon="-7.7474203">
        <time>2021-11-27T09:50:46Z</time>
      </trkpt>
      <trkpt lat="42.39396" lon="-7.7474074">
        <time>2021-11-27T09:50:47Z</time>
      </trkpt>
      <trkpt lat="42.39395" lon="-7.747393">
        <time>2021-11-27T09:50:48Z</time>
      </trkpt>
      <trkpt lat="42.393948" lon="-7.747378">
        <time>2021-11-27T09:50:50Z</time>
      </trkpt>
      <trkpt lat="42.393944" lon="-7.747361">
        <time>2021-11-27T09:50:50Z</time>
      </trkpt>
      <trkpt lat="42.393936" lon="-7.7473435">
        <time>2021-11-27T09:50:51Z</time>
      </trkpt>
      <trkpt lat="42.39393" lon="-7.747326">
        <time>2021-11-27T09:50:52Z</time>
      </trkpt>
      <trkpt lat="42.393925" lon="-7.7473087">
        <time>2021-11-27T09:50:53Z</time>
      </trkpt>
      <trkpt lat="42.39392" lon="-7.7472916">
        <time>2021-11-27T09:50:54Z</time>
      </trkpt>
      <trkpt lat="42.393913" lon="-7.7472696">
        <time>2021-11-27T09:50:55Z</time>
      </trkpt>
      <trkpt lat="42.393906" lon="-7.747247">
        <time>2021-11-27T09:50:56Z</time>
      </trkpt>
      <trkpt lat="42.3939" lon="-7.747226">
        <time>2021-11-27T09:50:57Z</time>
      </trkpt>
      <trkpt lat="42.393898" lon="-7.747208">
        <time>2021-11-27T09:50:58Z</time>
      </trkpt>
      <trkpt lat="42.393894" lon="-7.7471905">
        <time>2021-11-27T09:50:59Z</time>
      </trkpt>
      <trkpt lat="42.39389" lon="-7.747174">
        <time>2021-11-27T09:51:00Z</time>
      </trkpt>
      <trkpt lat="42.393883" lon="-7.7471604">
        <time>2021-11-27T09:51:01Z</time>
      </trkpt>
      <trkpt lat="42.393875" lon="-7.747148">
        <time>2021-11-27T09:51:02Z</time>
      </trkpt>
      <trkpt lat="42.393867" lon="-7.747138">
        <time>2021-11-27T09:51:03Z</time>
      </trkpt>
      <trkpt lat="42.393864" lon="-7.7471266">
        <time>2021-11-27T09:51:04Z</time>
      </trkpt>
      <trkpt lat="42.39386" lon="-7.747112">
        <time>2021-11-27T09:51:05Z</time>
      </trkpt>
      <trkpt lat="42.39386" lon="-7.7470956">
        <time>2021-11-27T09:51:06Z</time>
      </trkpt>
      <trkpt lat="42.393852" lon="-7.7470803">
        <time>2021-11-27T09:51:07Z</time>
      </trkpt>
      <trkpt lat="42.393852" lon="-7.747064">
        <time>2021-11-27T09:51:08Z</time>
      </trkpt>
      <trkpt lat="42.393845" lon="-7.7470465">
        <time>2021-11-27T09:51:09Z</time>
      </trkpt>
      <trkpt lat="42.39384" lon="-7.747026">
        <time>2021-11-27T09:51:10Z</time>
      </trkpt>
      <trkpt lat="42.393833" lon="-7.747005">
        <time>2021-11-27T09:51:11Z</time>
      </trkpt>
      <trkpt lat="42.393826" lon="-7.7469788">
        <time>2021-11-27T09:51:12Z</time>
      </trkpt>
      <trkpt lat="42.39382" lon="-7.7469544">
        <time>2021-11-27T09:51:13Z</time>
      </trkpt>
      <trkpt lat="42.393818" lon="-7.746932">
        <time>2021-11-27T09:51:14Z</time>
      </trkpt>
      <trkpt lat="42.393814" lon="-7.7469115">
        <time>2021-11-27T09:51:15Z</time>
      </trkpt>
      <trkpt lat="42.393814" lon="-7.746893">
        <time>2021-11-27T09:51:16Z</time>
      </trkpt>
      <trkpt lat="42.39381" lon="-7.7468743">
        <time>2021-11-27T09:51:17Z</time>
      </trkpt>
      <trkpt lat="42.393806" lon="-7.746856">
        <time>2021-11-27T09:51:18Z</time>
      </trkpt>
      <trkpt lat="42.393803" lon="-7.746837">
        <time>2021-11-27T09:51:19Z</time>
      </trkpt>
      <trkpt lat="42.3938" lon="-7.746817">
        <time>2021-11-27T09:51:20Z</time>
      </trkpt>
      <trkpt lat="42.3938" lon="-7.746796">
        <time>2021-11-27T09:51:21Z</time>
      </trkpt>
      <trkpt lat="42.39379" lon="-7.7467732">
        <time>2021-11-27T09:51:22Z</time>
      </trkpt>
      <trkpt lat="42.393787" lon="-7.7467475">
        <time>2021-11-27T09:51:23Z</time>
      </trkpt>
      <trkpt lat="42.39378" lon="-7.7467213">
        <time>2021-11-27T09:51:24Z</time>
      </trkpt>
      <trkpt lat="42.393776" lon="-7.7466955">
        <time>2021-11-27T09:51:25Z</time>
      </trkpt>
      <trkpt lat="42.39377" lon="-7.7466693">
        <time>2021-11-27T09:51:26Z</time>
      </trkpt>
      <trkpt lat="42.393764" lon="-7.7466445">
        <time>2021-11-27T09:51:27Z</time>
      </trkpt>
      <trkpt lat="42.39376" lon="-7.7466216">
        <time>2021-11-27T09:51:28Z</time>
      </trkpt>
      <trkpt lat="42.393757" lon="-7.7466">
        <time>2021-11-27T09:51:29Z</time>
      </trkpt>
      <trkpt lat="42.393757" lon="-7.7465806">
        <time>2021-11-27T09:51:30Z</time>
      </trkpt>
      <trkpt lat="42.393757" lon="-7.74656">
        <time>2021-11-27T09:51:31Z</time>
      </trkpt>
      <trkpt lat="42.393753" lon="-7.746541">
        <time>2021-11-27T09:51:32Z</time>
      </trkpt>
      <trkpt lat="42.39375" lon="-7.7465224">
        <time>2021-11-27T09:51:33Z</time>
      </trkpt>
      <trkpt lat="42.39375" lon="-7.7465043">
        <time>2021-11-27T09:51:34Z</time>
      </trkpt>
      <trkpt lat="42.39375" lon="-7.7464876">
        <time>2021-11-27T09:51:35Z</time>
      </trkpt>
      <trkpt lat="42.393745" lon="-7.7464724">
        <time>2021-11-27T09:51:36Z</time>
      </trkpt>
      <trkpt lat="42.39374" lon="-7.746457">
        <time>2021-11-27T09:51:37Z</time>
      </trkpt>
      <trkpt lat="42.393738" lon="-7.7464423">
        <time>2021-11-27T09:51:38Z</time>
      </trkpt>
      <trkpt lat="42.393734" lon="-7.746427">
        <time>2021-11-27T09:51:39Z</time>
      </trkpt>
      <trkpt lat="42.39373" lon="-7.746414">
        <time>2021-11-27T09:51:40Z</time>
      </trkpt>
      <trkpt lat="42.393726" lon="-7.746399">
        <time>2021-11-27T09:51:41Z</time>
      </trkpt>
      <trkpt lat="42.393726" lon="-7.746383">
        <time>2021-11-27T09:51:42Z</time>
      </trkpt>
      <trkpt lat="42.393723" lon="-7.7463675">
        <time>2021-11-27T09:51:43Z</time>
      </trkpt>
      <trkpt lat="42.393723" lon="-7.746352">
        <time>2021-11-27T09:51:44Z</time>
      </trkpt>
      <trkpt lat="42.39372" lon="-7.746338">
        <time>2021-11-27T09:51:45Z</time>
      </trkpt>
      <trkpt lat="42.39372" lon="-7.7463245">
        <time>2021-11-27T09:51:46Z</time>
      </trkpt>
      <trkpt lat="42.393723" lon="-7.7463093">
        <time>2021-11-27T09:51:47Z</time>
      </trkpt>
      <trkpt lat="42.393723" lon="-7.7462907">
        <time>2021-11-27T09:51:48Z</time>
      </trkpt>
      <trkpt lat="42.393723" lon="-7.7462687">
        <time>2021-11-27T09:51:49Z</time>
      </trkpt>
      <trkpt lat="42.393723" lon="-7.7462444">
        <time>2021-11-27T09:51:50Z</time>
      </trkpt>
      <trkpt lat="42.393723" lon="-7.7462215">
        <time>2021-11-27T09:51:51Z</time>
      </trkpt>
      <trkpt lat="42.39372" lon="-7.7461963">
        <time>2021-11-27T09:51:52Z</time>
      </trkpt>
      <trkpt lat="42.393715" lon="-7.74617">
        <time>2021-11-27T09:51:53Z</time>
      </trkpt>
      <trkpt lat="42.39371" lon="-7.7461476">
        <time>2021-11-27T09:51:54Z</time>
      </trkpt>
      <trkpt lat="42.393707" lon="-7.74613">
        <time>2021-11-27T09:51:55Z</time>
      </trkpt>
      <trkpt lat="42.393703" lon="-7.7461157">
        <time>2021-11-27T09:51:56Z</time>
      </trkpt>
      <trkpt lat="42.393703" lon="-7.746105">
        <time>2021-11-27T09:51:57Z</time>
      </trkpt>
      <trkpt lat="42.3937" lon="-7.7460933">
        <time>2021-11-27T09:51:58Z</time>
      </trkpt>
      <trkpt lat="42.393696" lon="-7.746082">
        <time>2021-11-27T09:51:59Z</time>
      </trkpt>
      <trkpt lat="42.393696" lon="-7.746068">
        <time>2021-11-27T09:52:00Z</time>
      </trkpt>
      <trkpt lat="42.393696" lon="-7.746052">
        <time>2021-11-27T09:52:01Z</time>
      </trkpt>
      <trkpt lat="42.393692" lon="-7.746034">
        <time>2021-11-27T09:52:02Z</time>
      </trkpt>
      <trkpt lat="42.393692" lon="-7.7460136">
        <time>2021-11-27T09:52:03Z</time>
      </trkpt>
      <trkpt lat="42.39369" lon="-7.745992">
        <time>2021-11-27T09:52:04Z</time>
      </trkpt>
      <trkpt lat="42.39369" lon="-7.7459707">
        <time>2021-11-27T09:52:05Z</time>
      </trkpt>
      <trkpt lat="42.39368" lon="-7.7459474">
        <time>2021-11-27T09:52:06Z</time>
      </trkpt>
      <trkpt lat="42.39368" lon="-7.745926">
        <time>2021-11-27T09:52:07Z</time>
      </trkpt>
      <trkpt lat="42.393673" lon="-7.7459035">
        <time>2021-11-27T09:52:08Z</time>
      </trkpt>
      <trkpt lat="42.393673" lon="-7.745882">
        <time>2021-11-27T09:52:09Z</time>
      </trkpt>
      <trkpt lat="42.39367" lon="-7.7458606">
        <time>2021-11-27T09:52:10Z</time>
      </trkpt>
      <trkpt lat="42.393665" lon="-7.7458386">
        <time>2021-11-27T09:52:11Z</time>
      </trkpt>
      <trkpt lat="42.393665" lon="-7.7458153">
        <time>2021-11-27T09:52:12Z</time>
      </trkpt>
      <trkpt lat="42.393665" lon="-7.7457876">
        <time>2021-11-27T09:52:13Z</time>
      </trkpt>
      <trkpt lat="42.393665" lon="-7.7457604">
        <time>2021-11-27T09:52:14Z</time>
      </trkpt>
      <trkpt lat="42.393665" lon="-7.745734">
        <time>2021-11-27T09:52:15Z</time>
      </trkpt>
      <trkpt lat="42.393665" lon="-7.745711">
        <time>2021-11-27T09:52:16Z</time>
      </trkpt>
      <trkpt lat="42.39366" lon="-7.7456894">
        <time>2021-11-27T09:52:17Z</time>
      </trkpt>
      <trkpt lat="42.393658" lon="-7.7456703">
        <time>2021-11-27T09:52:18Z</time>
      </trkpt>
      <trkpt lat="42.39365" lon="-7.7456493">
        <time>2021-11-27T09:52:19Z</time>
      </trkpt>
      <trkpt lat="42.39364" lon="-7.7456264">
        <time>2021-11-27T09:52:19Z</time>
      </trkpt>
      <trkpt lat="42.39363" lon="-7.745603">
        <time>2021-11-27T09:52:20Z</time>
      </trkpt>
      <trkpt lat="42.39362" lon="-7.745584">
        <time>2021-11-27T09:52:21Z</time>
      </trkpt>
      <trkpt lat="42.393612" lon="-7.745567">
        <time>2021-11-27T09:52:22Z</time>
      </trkpt>
      <trkpt lat="42.393604" lon="-7.7455482">
        <time>2021-11-27T09:52:23Z</time>
      </trkpt>
      <trkpt lat="42.3936" lon="-7.745528">
        <time>2021-11-27T09:52:24Z</time>
      </trkpt>
      <trkpt lat="42.393597" lon="-7.7455087">
        <time>2021-11-27T09:52:25Z</time>
      </trkpt>
      <trkpt lat="42.39359" lon="-7.745488">
        <time>2021-11-27T09:52:26Z</time>
      </trkpt>
      <trkpt lat="42.393585" lon="-7.7454696">
        <time>2021-11-27T09:52:27Z</time>
      </trkpt>
      <trkpt lat="42.39358" lon="-7.7454515">
        <time>2021-11-27T09:52:28Z</time>
      </trkpt>
      <trkpt lat="42.393574" lon="-7.745434">
        <time>2021-11-27T09:52:29Z</time>
      </trkpt>
      <trkpt lat="42.39357" lon="-7.745415">
        <time>2021-11-27T09:52:30Z</time>
      </trkpt>
      <trkpt lat="42.39357" lon="-7.7453947">
        <time>2021-11-27T09:52:31Z</time>
      </trkpt>
      <trkpt lat="42.393566" lon="-7.7453747">
        <time>2021-11-27T09:52:32Z</time>
      </trkpt>
      <trkpt lat="42.39356" lon="-7.7453575">
        <time>2021-11-27T09:52:33Z</time>
      </trkpt>
      <trkpt lat="42.393555" lon="-7.7453427">
        <time>2021-11-27T09:52:34Z</time>
      </trkpt>
      <trkpt lat="42.393543" lon="-7.7453294">
        <time>2021-11-27T09:52:35Z</time>
      </trkpt>
      <trkpt lat="42.39354" lon="-7.745315">
        <time>2021-11-27T09:52:36Z</time>
      </trkpt>
      <trkpt lat="42.39353" lon="-7.745298">
        <time>2021-11-27T09:52:37Z</time>
      </trkpt>
      <trkpt lat="42.393528" lon="-7.7452774">
        <time>2021-11-27T09:52:38Z</time>
      </trkpt>
      <trkpt lat="42.39352" lon="-7.7452564">
        <time>2021-11-27T09:52:39Z</time>
      </trkpt>
      <trkpt lat="42.393513" lon="-7.7452364">
        <time>2021-11-27T09:52:40Z</time>
      </trkpt>
      <trkpt lat="42.39351" lon="-7.745215">
        <time>2021-11-27T09:52:41Z</time>
      </trkpt>
      <trkpt lat="42.3935" lon="-7.745193">
        <time>2021-11-27T09:52:42Z</time>
      </trkpt>
      <trkpt lat="42.393494" lon="-7.745174">
        <time>2021-11-27T09:52:43Z</time>
      </trkpt>
      <trkpt lat="42.39349" lon="-7.745156">
        <time>2021-11-27T09:52:44Z</time>
      </trkpt>
      <trkpt lat="42.393486" lon="-7.74514">
        <time>2021-11-27T09:52:45Z</time>
      </trkpt>
      <trkpt lat="42.39348" lon="-7.7451224">
        <time>2021-11-27T09:52:46Z</time>
      </trkpt>
      <trkpt lat="42.393475" lon="-7.745101">
        <time>2021-11-27T09:52:47Z</time>
      </trkpt>
      <trkpt lat="42.39347" lon="-7.7450786">
        <time>2021-11-27T09:52:48Z</time>
      </trkpt>
      <trkpt lat="42.393463" lon="-7.745055">
        <time>2021-11-27T09:52:49Z</time>
      </trkpt>
      <trkpt lat="42.39346" lon="-7.745034">
        <time>2021-11-27T09:52:50Z</time>
      </trkpt>
      <trkpt lat="42.393456" lon="-7.7450123">
        <time>2021-11-27T09:52:51Z</time>
      </trkpt>
      <trkpt lat="42.393448" lon="-7.7449913">
        <time>2021-11-27T09:52:52Z</time>
      </trkpt>
      <trkpt lat="42.393448" lon="-7.7449727">
        <time>2021-11-27T09:52:53Z</time>
      </trkpt>
      <trkpt lat="42.39344" lon="-7.744955">
        <time>2021-11-27T09:52:54Z</time>
      </trkpt>
      <trkpt lat="42.393433" lon="-7.7449374">
        <time>2021-11-27T09:52:55Z</time>
      </trkpt>
      <trkpt lat="42.393425" lon="-7.7449203">
        <time>2021-11-27T09:52:56Z</time>
      </trkpt>
      <trkpt lat="42.393417" lon="-7.744901">
        <time>2021-11-27T09:52:57Z</time>
      </trkpt>
      <trkpt lat="42.39341" lon="-7.7448807">
        <time>2021-11-27T09:52:58Z</time>
      </trkpt>
      <trkpt lat="42.393406" lon="-7.7448606">
        <time>2021-11-27T09:52:59Z</time>
      </trkpt>
      <trkpt lat="42.3934" lon="-7.744841">
        <time>2021-11-27T09:53:00Z</time>
      </trkpt>
      <trkpt lat="42.393394" lon="-7.744821">
        <time>2021-11-27T09:53:01Z</time>
      </trkpt>
      <trkpt lat="42.393387" lon="-7.744802">
        <time>2021-11-27T09:53:02Z</time>
      </trkpt>
      <trkpt lat="42.393375" lon="-7.744782">
        <time>2021-11-27T09:53:03Z</time>
      </trkpt>
      <trkpt lat="42.39337" lon="-7.7447615">
        <time>2021-11-27T09:53:04Z</time>
      </trkpt>
      <trkpt lat="42.393368" lon="-7.744743">
        <time>2021-11-27T09:53:05Z</time>
      </trkpt>
      <trkpt lat="42.393364" lon="-7.7447224">
        <time>2021-11-27T09:53:06Z</time>
      </trkpt>
      <trkpt lat="42.39336" lon="-7.744701">
        <time>2021-11-27T09:53:07Z</time>
      </trkpt>
      <trkpt lat="42.39336" lon="-7.744681">
        <time>2021-11-27T09:53:08Z</time>
      </trkpt>
      <trkpt lat="42.393364" lon="-7.74466">
        <time>2021-11-27T09:53:09Z</time>
      </trkpt>
      <trkpt lat="42.39336" lon="-7.744639">
        <time>2021-11-27T09:53:10Z</time>
      </trkpt>
      <trkpt lat="42.39336" lon="-7.7446175">
        <time>2021-11-27T09:53:11Z</time>
      </trkpt>
      <trkpt lat="42.393353" lon="-7.744599">
        <time>2021-11-27T09:53:12Z</time>
      </trkpt>
      <trkpt lat="42.39335" lon="-7.7445803">
        <time>2021-11-27T09:53:13Z</time>
      </trkpt>
      <trkpt lat="42.39334" lon="-7.744564">
        <time>2021-11-27T09:53:14Z</time>
      </trkpt>
      <trkpt lat="42.39333" lon="-7.7445464">
        <time>2021-11-27T09:53:15Z</time>
      </trkpt>
      <trkpt lat="42.393322" lon="-7.7445297">
        <time>2021-11-27T09:53:16Z</time>
      </trkpt>
      <trkpt lat="42.39332" lon="-7.7445145">
        <time>2021-11-27T09:53:17Z</time>
      </trkpt>
      <trkpt lat="42.39331" lon="-7.7444973">
        <time>2021-11-27T09:53:18Z</time>
      </trkpt>
      <trkpt lat="42.393303" lon="-7.744479">
        <time>2021-11-27T09:53:19Z</time>
      </trkpt>
      <trkpt lat="42.393295" lon="-7.744465">
        <time>2021-11-27T09:53:20Z</time>
      </trkpt>
      <trkpt lat="42.393284" lon="-7.744453">
        <time>2021-11-27T09:53:21Z</time>
      </trkpt>
      <trkpt lat="42.393276" lon="-7.7444444">
        <time>2021-11-27T09:53:22Z</time>
      </trkpt>
      <trkpt lat="42.393265" lon="-7.7444353">
        <time>2021-11-27T09:53:23Z</time>
      </trkpt>
      <trkpt lat="42.393253" lon="-7.744425">
        <time>2021-11-27T09:53:24Z</time>
      </trkpt>
      <trkpt lat="42.39324" lon="-7.744413">
        <time>2021-11-27T09:53:25Z</time>
      </trkpt>
      <trkpt lat="42.39323" lon="-7.744398">
        <time>2021-11-27T09:53:26Z</time>
      </trkpt>
      <trkpt lat="42.39322" lon="-7.744382">
        <time>2021-11-27T09:53:27Z</time>
      </trkpt>
      <trkpt lat="42.393208" lon="-7.744365">
        <time>2021-11-27T09:53:28Z</time>
      </trkpt>
      <trkpt lat="42.3932" lon="-7.7443495">
        <time>2021-11-27T09:53:29Z</time>
      </trkpt>
      <trkpt lat="42.393192" lon="-7.744334">
        <time>2021-11-27T09:53:30Z</time>
      </trkpt>
      <trkpt lat="42.39318" lon="-7.7443194">
        <time>2021-11-27T09:53:31Z</time>
      </trkpt>
      <trkpt lat="42.393173" lon="-7.744306">
        <time>2021-11-27T09:53:32Z</time>
      </trkpt>
      <trkpt lat="42.39316" lon="-7.7442923">
        <time>2021-11-27T09:53:33Z</time>
      </trkpt>
      <trkpt lat="42.39315" lon="-7.744279">
        <time>2021-11-27T09:53:34Z</time>
      </trkpt>
      <trkpt lat="42.393143" lon="-7.744265">
        <time>2021-11-27T09:53:35Z</time>
      </trkpt>
      <trkpt lat="42.39313" lon="-7.74425">
        <time>2021-11-27T09:53:36Z</time>
      </trkpt>
      <trkpt lat="42.39312" lon="-7.744232">
        <time>2021-11-27T09:53:37Z</time>
      </trkpt>
      <trkpt lat="42.39311" lon="-7.7442117">
        <time>2021-11-27T09:53:38Z</time>
      </trkpt>
      <trkpt lat="42.3931" lon="-7.7441926">
        <time>2021-11-27T09:53:39Z</time>
      </trkpt>
      <trkpt lat="42.393093" lon="-7.744176">
        <time>2021-11-27T09:53:40Z</time>
      </trkpt>
      <trkpt lat="42.393085" lon="-7.7441607">
        <time>2021-11-27T09:53:41Z</time>
      </trkpt>
      <trkpt lat="42.393074" lon="-7.7441463">
        <time>2021-11-27T09:53:42Z</time>
      </trkpt>
      <trkpt lat="42.393066" lon="-7.744131">
        <time>2021-11-27T09:53:43Z</time>
      </trkpt>
      <trkpt lat="42.39306" lon="-7.7441134">
        <time>2021-11-27T09:53:44Z</time>
      </trkpt>
      <trkpt lat="42.39305" lon="-7.744096">
        <time>2021-11-27T09:53:45Z</time>
      </trkpt>
      <trkpt lat="42.393044" lon="-7.7440786">
        <time>2021-11-27T09:53:46Z</time>
      </trkpt>
      <trkpt lat="42.393036" lon="-7.744059">
        <time>2021-11-27T09:53:48Z</time>
      </trkpt>
      <trkpt lat="42.39303" lon="-7.744039">
        <time>2021-11-27T09:53:48Z</time>
      </trkpt>
      <trkpt lat="42.393017" lon="-7.74402">
        <time>2021-11-27T09:53:49Z</time>
      </trkpt>
      <trkpt lat="42.393005" lon="-7.7440033">
        <time>2021-11-27T09:53:50Z</time>
      </trkpt>
      <trkpt lat="42.392998" lon="-7.743987">
        <time>2021-11-27T09:53:51Z</time>
      </trkpt>
      <trkpt lat="42.39299" lon="-7.7439713">
        <time>2021-11-27T09:53:52Z</time>
      </trkpt>
      <trkpt lat="42.392986" lon="-7.7439556">
        <time>2021-11-27T09:53:53Z</time>
      </trkpt>
      <trkpt lat="42.39298" lon="-7.743945">
        <time>2021-11-27T09:53:54Z</time>
      </trkpt>
      <trkpt lat="42.39297" lon="-7.7439346">
        <time>2021-11-27T09:53:55Z</time>
      </trkpt>
      <trkpt lat="42.392963" lon="-7.7439227">
        <time>2021-11-27T09:53:56Z</time>
      </trkpt>
      <trkpt lat="42.392952" lon="-7.7439084">
        <time>2021-11-27T09:53:57Z</time>
      </trkpt>
      <trkpt lat="42.39294" lon="-7.7438984">
        <time>2021-11-27T09:53:58Z</time>
      </trkpt>
      <trkpt lat="42.392925" lon="-7.743891">
        <time>2021-11-27T09:53:59Z</time>
      </trkpt>
      <trkpt lat="42.392918" lon="-7.7438807">
        <time>2021-11-27T09:54:00Z</time>
      </trkpt>
      <trkpt lat="42.392902" lon="-7.7438693">
        <time>2021-11-27T09:54:01Z</time>
      </trkpt>
      <trkpt lat="42.392887" lon="-7.7438583">
        <time>2021-11-27T09:54:02Z</time>
      </trkpt>
      <trkpt lat="42.39287" lon="-7.7438498">
        <time>2021-11-27T09:54:03Z</time>
      </trkpt>
      <trkpt lat="42.392857" lon="-7.743841">
        <time>2021-11-27T09:54:04Z</time>
      </trkpt>
      <trkpt lat="42.39285" lon="-7.743833">
        <time>2021-11-27T09:54:05Z</time>
      </trkpt>
      <trkpt lat="42.392838" lon="-7.7438245">
        <time>2021-11-27T09:54:06Z</time>
      </trkpt>
      <trkpt lat="42.39283" lon="-7.7438164">
        <time>2021-11-27T09:54:07Z</time>
      </trkpt>
      <trkpt lat="42.39282" lon="-7.7438087">
        <time>2021-11-27T09:54:08Z</time>
      </trkpt>
      <trkpt lat="42.39281" lon="-7.7438016">
        <time>2021-11-27T09:54:09Z</time>
      </trkpt>
      <trkpt lat="42.3928" lon="-7.7437973">
        <time>2021-11-27T09:54:10Z</time>
      </trkpt>
      <trkpt lat="42.392784" lon="-7.7437954">
        <time>2021-11-27T09:54:11Z</time>
      </trkpt>
      <trkpt lat="42.392773" lon="-7.7437925">
        <time>2021-11-27T09:54:12Z</time>
      </trkpt>
      <trkpt lat="42.392757" lon="-7.7437897">
        <time>2021-11-27T09:54:13Z</time>
      </trkpt>
      <trkpt lat="42.392746" lon="-7.7437887">
        <time>2021-11-27T09:54:14Z</time>
      </trkpt>
      <trkpt lat="42.392735" lon="-7.7437873">
        <time>2021-11-27T09:54:15Z</time>
      </trkpt>
      <trkpt lat="42.392727" lon="-7.7437816">
        <time>2021-11-27T09:54:16Z</time>
      </trkpt>
      <trkpt lat="42.39272" lon="-7.743777">
        <time>2021-11-27T09:54:17Z</time>
      </trkpt>
      <trkpt lat="42.39271" lon="-7.7437696">
        <time>2021-11-27T09:54:18Z</time>
      </trkpt>
      <trkpt lat="42.392708" lon="-7.743764">
        <time>2021-11-27T09:54:19Z</time>
      </trkpt>
      <trkpt lat="42.392696" lon="-7.743759">
        <time>2021-11-27T09:54:20Z</time>
      </trkpt>
      <trkpt lat="42.392685" lon="-7.743757">
        <time>2021-11-27T09:54:21Z</time>
      </trkpt>
      <trkpt lat="42.39267" lon="-7.7437563">
        <time>2021-11-27T09:54:22Z</time>
      </trkpt>
      <trkpt lat="42.39266" lon="-7.743758">
        <time>2021-11-27T09:54:23Z</time>
      </trkpt>
      <trkpt lat="42.392643" lon="-7.743759">
        <time>2021-11-27T09:54:24Z</time>
      </trkpt>
      <trkpt lat="42.392628" lon="-7.743759">
        <time>2021-11-27T09:54:25Z</time>
      </trkpt>
      <trkpt lat="42.392616" lon="-7.743757">
        <time>2021-11-27T09:54:26Z</time>
      </trkpt>
      <trkpt lat="42.3926" lon="-7.7437525">
        <time>2021-11-27T09:54:27Z</time>
      </trkpt>
      <trkpt lat="42.39259" lon="-7.743747">
        <time>2021-11-27T09:54:28Z</time>
      </trkpt>
      <trkpt lat="42.392574" lon="-7.743743">
        <time>2021-11-27T09:54:29Z</time>
      </trkpt>
      <trkpt lat="42.39256" lon="-7.7437387">
        <time>2021-11-27T09:54:30Z</time>
      </trkpt>
      <trkpt lat="42.392544" lon="-7.743735">
        <time>2021-11-27T09:54:31Z</time>
      </trkpt>
      <trkpt lat="42.39253" lon="-7.743731">
        <time>2021-11-27T09:54:32Z</time>
      </trkpt>
      <trkpt lat="42.392513" lon="-7.74373">
        <time>2021-11-27T09:54:33Z</time>
      </trkpt>
      <trkpt lat="42.392494" lon="-7.7437267">
        <time>2021-11-27T09:54:34Z</time>
      </trkpt>
      <trkpt lat="42.392475" lon="-7.7437224">
        <time>2021-11-27T09:54:35Z</time>
      </trkpt>
      <trkpt lat="42.392456" lon="-7.743716">
        <time>2021-11-27T09:54:36Z</time>
      </trkpt>
      <trkpt lat="42.392437" lon="-7.7437077">
        <time>2021-11-27T09:54:37Z</time>
      </trkpt>
      <trkpt lat="42.39242" lon="-7.743697">
        <time>2021-11-27T09:54:38Z</time>
      </trkpt>
      <trkpt lat="42.392403" lon="-7.743687">
        <time>2021-11-27T09:54:39Z</time>
      </trkpt>
      <trkpt lat="42.392384" lon="-7.743678">
        <time>2021-11-27T09:54:40Z</time>
      </trkpt>
      <trkpt lat="42.39237" lon="-7.7436686">
        <time>2021-11-27T09:54:41Z</time>
      </trkpt>
      <trkpt lat="42.39235" lon="-7.743662">
        <time>2021-11-27T09:54:42Z</time>
      </trkpt>
      <trkpt lat="42.39233" lon="-7.7436557">
        <time>2021-11-27T09:54:43Z</time>
      </trkpt>
      <trkpt lat="42.39231" lon="-7.7436466">
        <time>2021-11-27T09:54:44Z</time>
      </trkpt>
      <trkpt lat="42.392296" lon="-7.7436366">
        <time>2021-11-27T09:54:45Z</time>
      </trkpt>
      <trkpt lat="42.392277" lon="-7.743625">
        <time>2021-11-27T09:54:46Z</time>
      </trkpt>
      <trkpt lat="42.39226" lon="-7.743616">
        <time>2021-11-27T09:54:48Z</time>
      </trkpt>
      <trkpt lat="42.39225" lon="-7.7436094">
        <time>2021-11-27T09:54:48Z</time>
      </trkpt>
      <trkpt lat="42.392235" lon="-7.743603">
        <time>2021-11-27T09:54:49Z</time>
      </trkpt>
      <trkpt lat="42.392216" lon="-7.743597">
        <time>2021-11-27T09:54:50Z</time>
      </trkpt>
      <trkpt lat="42.3922" lon="-7.743589">
        <time>2021-11-27T09:54:51Z</time>
      </trkpt>
      <trkpt lat="42.392185" lon="-7.743583">
        <time>2021-11-27T09:54:52Z</time>
      </trkpt>
      <trkpt lat="42.39217" lon="-7.743577">
        <time>2021-11-27T09:54:53Z</time>
      </trkpt>
      <trkpt lat="42.39216" lon="-7.7435703">
        <time>2021-11-27T09:54:54Z</time>
      </trkpt>
      <trkpt lat="42.392147" lon="-7.7435637">
        <time>2021-11-27T09:54:55Z</time>
      </trkpt>
      <trkpt lat="42.39214" lon="-7.743554">
        <time>2021-11-27T09:54:56Z</time>
      </trkpt>
      <trkpt lat="42.39213" lon="-7.743544">
        <time>2021-11-27T09:54:57Z</time>
      </trkpt>
      <trkpt lat="42.392124" lon="-7.74353">
        <time>2021-11-27T09:54:58Z</time>
      </trkpt>
      <trkpt lat="42.392117" lon="-7.7435136">
        <time>2021-11-27T09:54:59Z</time>
      </trkpt>
      <trkpt lat="42.39211" lon="-7.7434974">
        <time>2021-11-27T09:55:00Z</time>
      </trkpt>
      <trkpt lat="42.392105" lon="-7.743481">
        <time>2021-11-27T09:55:01Z</time>
      </trkpt>
      <trkpt lat="42.392097" lon="-7.743463">
        <time>2021-11-27T09:55:02Z</time>
      </trkpt>
      <trkpt lat="42.39209" lon="-7.743445">
        <time>2021-11-27T09:55:03Z</time>
      </trkpt>
      <trkpt lat="42.39208" lon="-7.743426">
        <time>2021-11-27T09:55:04Z</time>
      </trkpt>
      <trkpt lat="42.39207" lon="-7.7434044">
        <time>2021-11-27T09:55:05Z</time>
      </trkpt>
      <trkpt lat="42.392067" lon="-7.743379">
        <time>2021-11-27T09:55:06Z</time>
      </trkpt>
      <trkpt lat="42.39206" lon="-7.7433558">
        <time>2021-11-27T09:55:07Z</time>
      </trkpt>
      <trkpt lat="42.39205" lon="-7.743334">
        <time>2021-11-27T09:55:08Z</time>
      </trkpt>
      <trkpt lat="42.392044" lon="-7.7433147">
        <time>2021-11-27T09:55:09Z</time>
      </trkpt>
      <trkpt lat="42.39204" lon="-7.743297">
        <time>2021-11-27T09:55:10Z</time>
      </trkpt>
      <trkpt lat="42.392033" lon="-7.7432814">
        <time>2021-11-27T09:55:11Z</time>
      </trkpt>
      <trkpt lat="42.392025" lon="-7.743264">
        <time>2021-11-27T09:55:12Z</time>
      </trkpt>
      <trkpt lat="42.392017" lon="-7.7432504">
        <time>2021-11-27T09:55:13Z</time>
      </trkpt>
      <trkpt lat="42.392014" lon="-7.7432346">
        <time>2021-11-27T09:55:14Z</time>
      </trkpt>
      <trkpt lat="42.392002" lon="-7.74322">
        <time>2021-11-27T09:55:15Z</time>
      </trkpt>
      <trkpt lat="42.391994" lon="-7.7432017">
        <time>2021-11-27T09:55:16Z</time>
      </trkpt>
      <trkpt lat="42.391983" lon="-7.7431808">
        <time>2021-11-27T09:55:17Z</time>
      </trkpt>
      <trkpt lat="42.391975" lon="-7.74316">
        <time>2021-11-27T09:55:18Z</time>
      </trkpt>
      <trkpt lat="42.391968" lon="-7.7431374">
        <time>2021-11-27T09:55:19Z</time>
      </trkpt>
      <trkpt lat="42.39196" lon="-7.743115">
        <time>2021-11-27T09:55:20Z</time>
      </trkpt>
      <trkpt lat="42.391953" lon="-7.743093">
        <time>2021-11-27T09:55:21Z</time>
      </trkpt>
      <trkpt lat="42.391953" lon="-7.7430706">
        <time>2021-11-27T09:55:22Z</time>
      </trkpt>
      <trkpt lat="42.39195" lon="-7.743049">
        <time>2021-11-27T09:55:23Z</time>
      </trkpt>
      <trkpt lat="42.391945" lon="-7.743027">
        <time>2021-11-27T09:55:24Z</time>
      </trkpt>
      <trkpt lat="42.39195" lon="-7.743007">
        <time>2021-11-27T09:55:25Z</time>
      </trkpt>
      <trkpt lat="42.39195" lon="-7.74299">
        <time>2021-11-27T09:55:26Z</time>
      </trkpt>
      <trkpt lat="42.391945" lon="-7.7429743">
        <time>2021-11-27T09:55:27Z</time>
      </trkpt>
      <trkpt lat="42.391945" lon="-7.742958">
        <time>2021-11-27T09:55:28Z</time>
      </trkpt>
      <trkpt lat="42.39194" lon="-7.742942">
        <time>2021-11-27T09:55:29Z</time>
      </trkpt>
      <trkpt lat="42.39194" lon="-7.7429266">
        <time>2021-11-27T09:55:30Z</time>
      </trkpt>
      <trkpt lat="42.391937" lon="-7.742911">
        <time>2021-11-27T09:55:31Z</time>
      </trkpt>
      <trkpt lat="42.391937" lon="-7.7428927">
        <time>2021-11-27T09:55:32Z</time>
      </trkpt>
      <trkpt lat="42.391933" lon="-7.742875">
        <time>2021-11-27T09:55:33Z</time>
      </trkpt>
      <trkpt lat="42.39193" lon="-7.7428555">
        <time>2021-11-27T09:55:34Z</time>
      </trkpt>
      <trkpt lat="42.391922" lon="-7.742835">
        <time>2021-11-27T09:55:35Z</time>
      </trkpt>
      <trkpt lat="42.391914" lon="-7.7428126">
        <time>2021-11-27T09:55:36Z</time>
      </trkpt>
      <trkpt lat="42.391914" lon="-7.742792">
        <time>2021-11-27T09:55:37Z</time>
      </trkpt>
      <trkpt lat="42.39191" lon="-7.7427716">
        <time>2021-11-27T09:55:38Z</time>
      </trkpt>
      <trkpt lat="42.391907" lon="-7.7427506">
        <time>2021-11-27T09:55:39Z</time>
      </trkpt>
      <trkpt lat="42.3919" lon="-7.7427297">
        <time>2021-11-27T09:55:40Z</time>
      </trkpt>
      <trkpt lat="42.39189" lon="-7.7427096">
        <time>2021-11-27T09:55:41Z</time>
      </trkpt>
      <trkpt lat="42.391888" lon="-7.74269">
        <time>2021-11-27T09:55:42Z</time>
      </trkpt>
      <trkpt lat="42.391884" lon="-7.74267">
        <time>2021-11-27T09:55:43Z</time>
      </trkpt>
      <trkpt lat="42.391876" lon="-7.7426515">
        <time>2021-11-27T09:55:44Z</time>
      </trkpt>
      <trkpt lat="42.391872" lon="-7.742632">
        <time>2021-11-27T09:55:45Z</time>
      </trkpt>
      <trkpt lat="42.39187" lon="-7.7426133">
        <time>2021-11-27T09:55:46Z</time>
      </trkpt>
      <trkpt lat="42.39187" lon="-7.742594">
        <time>2021-11-27T09:55:48Z</time>
      </trkpt>
      <trkpt lat="42.391865" lon="-7.7425733">
        <time>2021-11-27T09:55:48Z</time>
      </trkpt>
      <trkpt lat="42.39186" lon="-7.7425528">
        <time>2021-11-27T09:55:49Z</time>
      </trkpt>
      <trkpt lat="42.39186" lon="-7.742532">
        <time>2021-11-27T09:55:50Z</time>
      </trkpt>
      <trkpt lat="42.391857" lon="-7.742511">
        <time>2021-11-27T09:55:51Z</time>
      </trkpt>
      <trkpt lat="42.391857" lon="-7.742489">
        <time>2021-11-27T09:55:52Z</time>
      </trkpt>
      <trkpt lat="42.391853" lon="-7.7424693">
        <time>2021-11-27T09:55:53Z</time>
      </trkpt>
      <trkpt lat="42.391853" lon="-7.7424507">
        <time>2021-11-27T09:55:54Z</time>
      </trkpt>
      <trkpt lat="42.391857" lon="-7.742434">
        <time>2021-11-27T09:55:55Z</time>
      </trkpt>
      <trkpt lat="42.39186" lon="-7.7424192">
        <time>2021-11-27T09:55:56Z</time>
      </trkpt>
      <trkpt lat="42.39186" lon="-7.742403">
        <time>2021-11-27T09:55:57Z</time>
      </trkpt>
      <trkpt lat="42.39186" lon="-7.7423854">
        <time>2021-11-27T09:55:58Z</time>
      </trkpt>
      <trkpt lat="42.39186" lon="-7.7423673">
        <time>2021-11-27T09:55:59Z</time>
      </trkpt>
      <trkpt lat="42.391865" lon="-7.7423477">
        <time>2021-11-27T09:56:00Z</time>
      </trkpt>
      <trkpt lat="42.391865" lon="-7.742327">
        <time>2021-11-27T09:56:01Z</time>
      </trkpt>
      <trkpt lat="42.391865" lon="-7.7423067">
        <time>2021-11-27T09:56:02Z</time>
      </trkpt>
      <trkpt lat="42.39187" lon="-7.7422867">
        <time>2021-11-27T09:56:03Z</time>
      </trkpt>
      <trkpt lat="42.391872" lon="-7.7422667">
        <time>2021-11-27T09:56:04Z</time>
      </trkpt>
      <trkpt lat="42.391876" lon="-7.7422476">
        <time>2021-11-27T09:56:05Z</time>
      </trkpt>
      <trkpt lat="42.391876" lon="-7.7422285">
        <time>2021-11-27T09:56:06Z</time>
      </trkpt>
      <trkpt lat="42.391876" lon="-7.7422075">
        <time>2021-11-27T09:56:07Z</time>
      </trkpt>
      <trkpt lat="42.39188" lon="-7.742188">
        <time>2021-11-27T09:56:08Z</time>
      </trkpt>
      <trkpt lat="42.391884" lon="-7.7421694">
        <time>2021-11-27T09:56:09Z</time>
      </trkpt>
      <trkpt lat="42.391884" lon="-7.7421513">
        <time>2021-11-27T09:56:10Z</time>
      </trkpt>
      <trkpt lat="42.391888" lon="-7.7421327">
        <time>2021-11-27T09:56:11Z</time>
      </trkpt>
      <trkpt lat="42.39189" lon="-7.7421126">
        <time>2021-11-27T09:56:12Z</time>
      </trkpt>
      <trkpt lat="42.39189" lon="-7.7420926">
        <time>2021-11-27T09:56:13Z</time>
      </trkpt>
      <trkpt lat="42.391888" lon="-7.7420716">
        <time>2021-11-27T09:56:14Z</time>
      </trkpt>
      <trkpt lat="42.391884" lon="-7.742052">
        <time>2021-11-27T09:56:15Z</time>
      </trkpt>
      <trkpt lat="42.391884" lon="-7.7420325">
        <time>2021-11-27T09:56:16Z</time>
      </trkpt>
      <trkpt lat="42.391876" lon="-7.7420115">
        <time>2021-11-27T09:56:17Z</time>
      </trkpt>
      <trkpt lat="42.39187" lon="-7.7419915">
        <time>2021-11-27T09:56:18Z</time>
      </trkpt>
      <trkpt lat="42.39186" lon="-7.7419724">
        <time>2021-11-27T09:56:19Z</time>
      </trkpt>
      <trkpt lat="42.391853" lon="-7.741954">
        <time>2021-11-27T09:56:20Z</time>
      </trkpt>
      <trkpt lat="42.391846" lon="-7.741936">
        <time>2021-11-27T09:56:21Z</time>
      </trkpt>
      <trkpt lat="42.391834" lon="-7.7419167">
        <time>2021-11-27T09:56:22Z</time>
      </trkpt>
      <trkpt lat="42.39183" lon="-7.741899">
        <time>2021-11-27T09:56:23Z</time>
      </trkpt>
      <trkpt lat="42.391823" lon="-7.7418814">
        <time>2021-11-27T09:56:24Z</time>
      </trkpt>
      <trkpt lat="42.391815" lon="-7.741865">
        <time>2021-11-27T09:56:25Z</time>
      </trkpt>
      <trkpt lat="42.391808" lon="-7.7418485">
        <time>2021-11-27T09:56:26Z</time>
      </trkpt>
      <trkpt lat="42.3918" lon="-7.7418337">
        <time>2021-11-27T09:56:27Z</time>
      </trkpt>
      <trkpt lat="42.391792" lon="-7.7418194">
        <time>2021-11-27T09:56:28Z</time>
      </trkpt>
      <trkpt lat="42.391785" lon="-7.7418065">
        <time>2021-11-27T09:56:29Z</time>
      </trkpt>
      <trkpt lat="42.391777" lon="-7.741794">
        <time>2021-11-27T09:56:30Z</time>
      </trkpt>
      <trkpt lat="42.39177" lon="-7.7417817">
        <time>2021-11-27T09:56:31Z</time>
      </trkpt>
      <trkpt lat="42.39176" lon="-7.7417707">
        <time>2021-11-27T09:56:32Z</time>
      </trkpt>
      <trkpt lat="42.391754" lon="-7.7417607">
        <time>2021-11-27T09:56:33Z</time>
      </trkpt>
      <trkpt lat="42.391743" lon="-7.7417517">
        <time>2021-11-27T09:56:34Z</time>
      </trkpt>
      <trkpt lat="42.391735" lon="-7.7417426">
        <time>2021-11-27T09:56:34Z</time>
      </trkpt>
      <trkpt lat="42.391724" lon="-7.7417316">
        <time>2021-11-27T09:56:35Z</time>
      </trkpt>
      <trkpt lat="42.391712" lon="-7.7417192">
        <time>2021-11-27T09:56:36Z</time>
      </trkpt>
      <trkpt lat="42.391697" lon="-7.7417064">
        <time>2021-11-27T09:56:37Z</time>
      </trkpt>
      <trkpt lat="42.391685" lon="-7.741693">
        <time>2021-11-27T09:56:38Z</time>
      </trkpt>
      <trkpt lat="42.391674" lon="-7.7416754">
        <time>2021-11-27T09:56:39Z</time>
      </trkpt>
      <trkpt lat="42.39166" lon="-7.7416587">
        <time>2021-11-27T09:56:40Z</time>
      </trkpt>
      <trkpt lat="42.391644" lon="-7.7416415">
        <time>2021-11-27T09:56:41Z</time>
      </trkpt>
      <trkpt lat="42.39163" lon="-7.741626">
        <time>2021-11-27T09:56:42Z</time>
      </trkpt>
      <trkpt lat="42.391617" lon="-7.7416077">
        <time>2021-11-27T09:56:43Z</time>
      </trkpt>
      <trkpt lat="42.3916" lon="-7.7415905">
        <time>2021-11-27T09:56:44Z</time>
      </trkpt>
      <trkpt lat="42.39159" lon="-7.741574">
        <time>2021-11-27T09:56:45Z</time>
      </trkpt>
      <trkpt lat="42.39158" lon="-7.741555">
        <time>2021-11-27T09:56:46Z</time>
      </trkpt>
      <trkpt lat="42.391563" lon="-7.741538">
        <time>2021-11-27T09:56:47Z</time>
      </trkpt>
      <trkpt lat="42.391556" lon="-7.741522">
        <time>2021-11-27T09:56:48Z</time>
      </trkpt>
      <trkpt lat="42.391544" lon="-7.741507">
        <time>2021-11-27T09:56:49Z</time>
      </trkpt>
      <trkpt lat="42.391533" lon="-7.741494">
        <time>2021-11-27T09:56:50Z</time>
      </trkpt>
      <trkpt lat="42.391525" lon="-7.7414837">
        <time>2021-11-27T09:56:51Z</time>
      </trkpt>
      <trkpt lat="42.39151" lon="-7.741474">
        <time>2021-11-27T09:56:52Z</time>
      </trkpt>
      <trkpt lat="42.391502" lon="-7.7414656">
        <time>2021-11-27T09:56:53Z</time>
      </trkpt>
      <trkpt lat="42.39149" lon="-7.741458">
        <time>2021-11-27T09:56:54Z</time>
      </trkpt>
      <trkpt lat="42.39148" lon="-7.74145">
        <time>2021-11-27T09:56:55Z</time>
      </trkpt>
      <trkpt lat="42.391468" lon="-7.74144">
        <time>2021-11-27T09:56:56Z</time>
      </trkpt>
      <trkpt lat="42.391457" lon="-7.74143">
        <time>2021-11-27T09:56:57Z</time>
      </trkpt>
      <trkpt lat="42.391445" lon="-7.741417">
        <time>2021-11-27T09:56:58Z</time>
      </trkpt>
      <trkpt lat="42.391434" lon="-7.741403">
        <time>2021-11-27T09:56:59Z</time>
      </trkpt>
      <trkpt lat="42.391422" lon="-7.74139">
        <time>2021-11-27T09:57:00Z</time>
      </trkpt>
      <trkpt lat="42.391415" lon="-7.741378">
        <time>2021-11-27T09:57:01Z</time>
      </trkpt>
      <trkpt lat="42.3914" lon="-7.741365">
        <time>2021-11-27T09:57:02Z</time>
      </trkpt>
      <trkpt lat="42.39139" lon="-7.7413516">
        <time>2021-11-27T09:57:03Z</time>
      </trkpt>
      <trkpt lat="42.39138" lon="-7.7413383">
        <time>2021-11-27T09:57:04Z</time>
      </trkpt>
      <trkpt lat="42.39137" lon="-7.741324">
        <time>2021-11-27T09:57:05Z</time>
      </trkpt>
      <trkpt lat="42.391357" lon="-7.741308">
        <time>2021-11-27T09:57:06Z</time>
      </trkpt>
      <trkpt lat="42.391346" lon="-7.741292">
        <time>2021-11-27T09:57:07Z</time>
      </trkpt>
      <trkpt lat="42.39134" lon="-7.7412767">
        <time>2021-11-27T09:57:08Z</time>
      </trkpt>
      <trkpt lat="42.391327" lon="-7.741262">
        <time>2021-11-27T09:57:09Z</time>
      </trkpt>
      <trkpt lat="42.39132" lon="-7.741247">
        <time>2021-11-27T09:57:10Z</time>
      </trkpt>
      <trkpt lat="42.391308" lon="-7.7412314">
        <time>2021-11-27T09:57:11Z</time>
      </trkpt>
      <trkpt lat="42.3913" lon="-7.741216">
        <time>2021-11-27T09:57:12Z</time>
      </trkpt>
      <trkpt lat="42.391293" lon="-7.7412004">
        <time>2021-11-27T09:57:13Z</time>
      </trkpt>
      <trkpt lat="42.39129" lon="-7.741185">
        <time>2021-11-27T09:57:14Z</time>
      </trkpt>
      <trkpt lat="42.391277" lon="-7.7411695">
        <time>2021-11-27T09:57:15Z</time>
      </trkpt>
      <trkpt lat="42.39127" lon="-7.741153">
        <time>2021-11-27T09:57:16Z</time>
      </trkpt>
      <trkpt lat="42.391262" lon="-7.7411356">
        <time>2021-11-27T09:57:17Z</time>
      </trkpt>
      <trkpt lat="42.391254" lon="-7.741119">
        <time>2021-11-27T09:57:18Z</time>
      </trkpt>
      <trkpt lat="42.39125" lon="-7.741103">
        <time>2021-11-27T09:57:19Z</time>
      </trkpt>
      <trkpt lat="42.391243" lon="-7.74109">
        <time>2021-11-27T09:57:20Z</time>
      </trkpt>
      <trkpt lat="42.391235" lon="-7.741078">
        <time>2021-11-27T09:57:21Z</time>
      </trkpt>
      <trkpt lat="42.391228" lon="-7.7410636">
        <time>2021-11-27T09:57:22Z</time>
      </trkpt>
      <trkpt lat="42.39122" lon="-7.7410502">
        <time>2021-11-27T09:57:23Z</time>
      </trkpt>
      <trkpt lat="42.39121" lon="-7.741037">
        <time>2021-11-27T09:57:24Z</time>
      </trkpt>
      <trkpt lat="42.391197" lon="-7.741024">
        <time>2021-11-27T09:57:25Z</time>
      </trkpt>
      <trkpt lat="42.39119" lon="-7.7410116">
        <time>2021-11-27T09:57:26Z</time>
      </trkpt>
      <trkpt lat="42.39118" lon="-7.741">
        <time>2021-11-27T09:57:27Z</time>
      </trkpt>
      <trkpt lat="42.391167" lon="-7.7409887">
        <time>2021-11-27T09:57:28Z</time>
      </trkpt>
      <trkpt lat="42.391155" lon="-7.7409797">
        <time>2021-11-27T09:57:29Z</time>
      </trkpt>
      <trkpt lat="42.39114" lon="-7.7409697">
        <time>2021-11-27T09:57:30Z</time>
      </trkpt>
      <trkpt lat="42.39113" lon="-7.740959">
        <time>2021-11-27T09:57:31Z</time>
      </trkpt>
      <trkpt lat="42.391113" lon="-7.7409506">
        <time>2021-11-27T09:57:32Z</time>
      </trkpt>
      <trkpt lat="42.391098" lon="-7.7409415">
        <time>2021-11-27T09:57:33Z</time>
      </trkpt>
      <trkpt lat="42.391087" lon="-7.740933">
        <time>2021-11-27T09:57:34Z</time>
      </trkpt>
      <trkpt lat="42.391075" lon="-7.7409244">
        <time>2021-11-27T09:57:35Z</time>
      </trkpt>
      <trkpt lat="42.39106" lon="-7.740917">
        <time>2021-11-27T09:57:36Z</time>
      </trkpt>
      <trkpt lat="42.39105" lon="-7.7409067">
        <time>2021-11-27T09:57:37Z</time>
      </trkpt>
      <trkpt lat="42.391037" lon="-7.740897">
        <time>2021-11-27T09:57:38Z</time>
      </trkpt>
      <trkpt lat="42.39102" lon="-7.740889">
        <time>2021-11-27T09:57:39Z</time>
      </trkpt>
      <trkpt lat="42.39101" lon="-7.74088">
        <time>2021-11-27T09:57:40Z</time>
      </trkpt>
      <trkpt lat="42.391" lon="-7.740872">
        <time>2021-11-27T09:57:41Z</time>
      </trkpt>
      <trkpt lat="42.390984" lon="-7.7408614">
        <time>2021-11-27T09:57:42Z</time>
      </trkpt>
      <trkpt lat="42.390972" lon="-7.7408514">
        <time>2021-11-27T09:57:43Z</time>
      </trkpt>
      <trkpt lat="42.39096" lon="-7.7408423">
        <time>2021-11-27T09:57:44Z</time>
      </trkpt>
      <trkpt lat="42.39095" lon="-7.740837">
        <time>2021-11-27T09:57:45Z</time>
      </trkpt>
      <trkpt lat="42.390938" lon="-7.740835">
        <time>2021-11-27T09:57:46Z</time>
      </trkpt>
      <trkpt lat="42.390926" lon="-7.7408357">
        <time>2021-11-27T09:57:47Z</time>
      </trkpt>
      <trkpt lat="42.390915" lon="-7.7408395">
        <time>2021-11-27T09:57:48Z</time>
      </trkpt>
      <trkpt lat="42.390903" lon="-7.740843">
        <time>2021-11-27T09:57:49Z</time>
      </trkpt>
      <trkpt lat="42.39089" lon="-7.7408447">
        <time>2021-11-27T09:57:50Z</time>
      </trkpt>
      <trkpt lat="42.390873" lon="-7.7408476">
        <time>2021-11-27T09:57:51Z</time>
      </trkpt>
      <trkpt lat="42.39086" lon="-7.7408485">
        <time>2021-11-27T09:57:52Z</time>
      </trkpt>
      <trkpt lat="42.390846" lon="-7.7408485">
        <time>2021-11-27T09:57:53Z</time>
      </trkpt>
      <trkpt lat="42.39083" lon="-7.7408504">
        <time>2021-11-27T09:57:54Z</time>
      </trkpt>
      <trkpt lat="42.39082" lon="-7.7408514">
        <time>2021-11-27T09:57:55Z</time>
      </trkpt>
      <trkpt lat="42.39081" lon="-7.7408504">
        <time>2021-11-27T09:57:56Z</time>
      </trkpt>
      <trkpt lat="42.390793" lon="-7.74085">
        <time>2021-11-27T09:57:57Z</time>
      </trkpt>
      <trkpt lat="42.39078" lon="-7.740846">
        <time>2021-11-27T09:57:58Z</time>
      </trkpt>
      <trkpt lat="42.390766" lon="-7.7408423">
        <time>2021-11-27T09:57:59Z</time>
      </trkpt>
      <trkpt lat="42.390755" lon="-7.7408385">
        <time>2021-11-27T09:58:00Z</time>
      </trkpt>
      <trkpt lat="42.39074" lon="-7.7408357">
        <time>2021-11-27T09:58:01Z</time>
      </trkpt>
      <trkpt lat="42.390724" lon="-7.740833">
        <time>2021-11-27T09:58:02Z</time>
      </trkpt>
      <trkpt lat="42.39071" lon="-7.740831">
        <time>2021-11-27T09:58:03Z</time>
      </trkpt>
      <trkpt lat="42.390694" lon="-7.7408295">
        <time>2021-11-27T09:58:04Z</time>
      </trkpt>
      <trkpt lat="42.39068" lon="-7.7408295">
        <time>2021-11-27T09:58:05Z</time>
      </trkpt>
      <trkpt lat="42.390667" lon="-7.740831">
        <time>2021-11-27T09:58:06Z</time>
      </trkpt>
      <trkpt lat="42.39065" lon="-7.740832">
        <time>2021-11-27T09:58:07Z</time>
      </trkpt>
      <trkpt lat="42.390636" lon="-7.740833">
        <time>2021-11-27T09:58:08Z</time>
      </trkpt>
      <trkpt lat="42.39063" lon="-7.7408338">
        <time>2021-11-27T09:58:09Z</time>
      </trkpt>
      <trkpt lat="42.390625" lon="-7.740837">
        <time>2021-11-27T09:58:10Z</time>
      </trkpt>
      <trkpt lat="42.39062" lon="-7.7408414">
        <time>2021-11-27T09:58:11Z</time>
      </trkpt>
      <trkpt lat="42.390617" lon="-7.740845">
        <time>2021-11-27T09:58:12Z</time>
      </trkpt>
      <trkpt lat="42.390614" lon="-7.7408504">
        <time>2021-11-27T09:58:13Z</time>
      </trkpt>
      <trkpt lat="42.390606" lon="-7.740857">
        <time>2021-11-27T09:58:14Z</time>
      </trkpt>
      <trkpt lat="42.39059" lon="-7.7408657">
        <time>2021-11-27T09:58:15Z</time>
      </trkpt>
      <trkpt lat="42.390575" lon="-7.7408743">
        <time>2021-11-27T09:58:16Z</time>
      </trkpt>
      <trkpt lat="42.39056" lon="-7.740878">
        <time>2021-11-27T09:58:17Z</time>
      </trkpt>
      <trkpt lat="42.390545" lon="-7.7408795">
        <time>2021-11-27T09:58:18Z</time>
      </trkpt>
      <trkpt lat="42.39053" lon="-7.7408767">
        <time>2021-11-27T09:58:19Z</time>
      </trkpt>
      <trkpt lat="42.39051" lon="-7.740872">
        <time>2021-11-27T09:58:20Z</time>
      </trkpt>
      <trkpt lat="42.390495" lon="-7.7408648">
        <time>2021-11-27T09:58:21Z</time>
      </trkpt>
      <trkpt lat="42.39048" lon="-7.7408557">
        <time>2021-11-27T09:58:22Z</time>
      </trkpt>
      <trkpt lat="42.390465" lon="-7.7408466">
        <time>2021-11-27T09:58:23Z</time>
      </trkpt>
      <trkpt lat="42.39045" lon="-7.740837">
        <time>2021-11-27T09:58:24Z</time>
      </trkpt>
      <trkpt lat="42.390434" lon="-7.740825">
        <time>2021-11-27T09:58:25Z</time>
      </trkpt>
      <trkpt lat="42.390423" lon="-7.7408133">
        <time>2021-11-27T09:58:26Z</time>
      </trkpt>
      <trkpt lat="42.39041" lon="-7.740802">
        <time>2021-11-27T09:58:27Z</time>
      </trkpt>
      <trkpt lat="42.3904" lon="-7.7407904">
        <time>2021-11-27T09:58:28Z</time>
      </trkpt>
      <trkpt lat="42.39039" lon="-7.7407804">
        <time>2021-11-27T09:58:29Z</time>
      </trkpt>
      <trkpt lat="42.390377" lon="-7.74077">
        <time>2021-11-27T09:58:30Z</time>
      </trkpt>
      <trkpt lat="42.39037" lon="-7.74076">
        <time>2021-11-27T09:58:31Z</time>
      </trkpt>
      <trkpt lat="42.390358" lon="-7.7407475">
        <time>2021-11-27T09:58:32Z</time>
      </trkpt>
      <trkpt lat="42.39035" lon="-7.7407374">
        <time>2021-11-27T09:58:33Z</time>
      </trkpt>
      <trkpt lat="42.39033" lon="-7.7407207">
        <time>2021-11-27T09:58:35Z</time>
      </trkpt>
      <trkpt lat="42.39033" lon="-7.74072">
        <time>2021-11-27T09:58:36Z</time>
      </trkpt>
      <trkpt lat="42.390327" lon="-7.7407193">
        <time>2021-11-27T09:58:37Z</time>
      </trkpt>
      <trkpt lat="42.390327" lon="-7.740716">
        <time>2021-11-27T09:58:38Z</time>
      </trkpt>
      <trkpt lat="42.390327" lon="-7.7407136">
        <time>2021-11-27T09:58:39Z</time>
      </trkpt>
      <trkpt lat="42.39032" lon="-7.7407117">
        <time>2021-11-27T09:58:40Z</time>
      </trkpt>
      <trkpt lat="42.39031" lon="-7.7407007">
        <time>2021-11-27T09:58:42Z</time>
      </trkpt>
      <trkpt lat="42.39031" lon="-7.740699">
        <time>2021-11-27T09:58:43Z</time>
      </trkpt>
      <trkpt lat="42.39031" lon="-7.7406964">
        <time>2021-11-27T09:58:44Z</time>
      </trkpt>
      <trkpt lat="42.390305" lon="-7.7406926">
        <time>2021-11-27T09:58:50Z</time>
      </trkpt>
      <trkpt lat="42.390305" lon="-7.7406955">
        <time>2021-11-27T09:58:55Z</time>
      </trkpt>
      <trkpt lat="42.390305" lon="-7.740697">
        <time>2021-11-27T09:58:56Z</time>
      </trkpt>
      <trkpt lat="42.390305" lon="-7.7407002">
        <time>2021-11-27T09:58:57Z</time>
      </trkpt>
      <trkpt lat="42.390305" lon="-7.7407045">
        <time>2021-11-27T09:58:58Z</time>
      </trkpt>
      <trkpt lat="42.390297" lon="-7.7407136">
        <time>2021-11-27T09:58:59Z</time>
      </trkpt>
      <trkpt lat="42.390293" lon="-7.740721">
        <time>2021-11-27T09:59:00Z</time>
      </trkpt>
      <trkpt lat="42.39029" lon="-7.740727">
        <time>2021-11-27T09:59:01Z</time>
      </trkpt>
      <trkpt lat="42.390285" lon="-7.740732">
        <time>2021-11-27T09:59:02Z</time>
      </trkpt>
      <trkpt lat="42.39028" lon="-7.740736">
        <time>2021-11-27T09:59:03Z</time>
      </trkpt>
      <trkpt lat="42.390278" lon="-7.740738">
        <time>2021-11-27T09:59:04Z</time>
      </trkpt>
      <trkpt lat="42.390278" lon="-7.7407393">
        <time>2021-11-27T09:59:05Z</time>
      </trkpt>
      <trkpt lat="42.390263" lon="-7.7407403">
        <time>2021-11-27T09:59:07Z</time>
      </trkpt>
      <trkpt lat="42.390263" lon="-7.7407413">
        <time>2021-11-27T09:59:08Z</time>
      </trkpt>
      <trkpt lat="42.390263" lon="-7.740742">
        <time>2021-11-27T09:59:09Z</time>
      </trkpt>
      <trkpt lat="42.39026" lon="-7.7407475">
        <time>2021-11-27T09:59:10Z</time>
      </trkpt>
      <trkpt lat="42.390255" lon="-7.7407513">
        <time>2021-11-27T09:59:11Z</time>
      </trkpt>
      <trkpt lat="42.390255" lon="-7.740755">
        <time>2021-11-27T09:59:12Z</time>
      </trkpt>
      <trkpt lat="42.39025" lon="-7.740764">
        <time>2021-11-27T09:59:14Z</time>
      </trkpt>
      <trkpt lat="42.390247" lon="-7.7407646">
        <time>2021-11-27T09:59:15Z</time>
      </trkpt>
      <trkpt lat="42.390247" lon="-7.7407646">
        <time>2021-11-27T09:59:16Z</time>
      </trkpt>
      <trkpt lat="42.39024" lon="-7.7407637">
        <time>2021-11-27T09:59:17Z</time>
      </trkpt>
      <trkpt lat="42.390232" lon="-7.7407603">
        <time>2021-11-27T09:59:18Z</time>
      </trkpt>
      <trkpt lat="42.390224" lon="-7.740756">
        <time>2021-11-27T09:59:19Z</time>
      </trkpt>
      <trkpt lat="42.390217" lon="-7.7407513">
        <time>2021-11-27T09:59:20Z</time>
      </trkpt>
      <trkpt lat="42.39021" lon="-7.7407475">
        <time>2021-11-27T09:59:21Z</time>
      </trkpt>
      <trkpt lat="42.3902" lon="-7.740745">
        <time>2021-11-27T09:59:22Z</time>
      </trkpt>
      <trkpt lat="42.390198" lon="-7.740742">
        <time>2021-11-27T09:59:23Z</time>
      </trkpt>
      <trkpt lat="42.390194" lon="-7.7407413">
        <time>2021-11-27T09:59:24Z</time>
      </trkpt>
      <trkpt lat="42.390194" lon="-7.7407417">
        <time>2021-11-27T09:59:25Z</time>
      </trkpt>
      <trkpt lat="42.390186" lon="-7.7407374">
        <time>2021-11-27T09:59:27Z</time>
      </trkpt>
      <trkpt lat="42.390186" lon="-7.7407365">
        <time>2021-11-27T09:59:28Z</time>
      </trkpt>
      <trkpt lat="42.390186" lon="-7.740736">
        <time>2021-11-27T09:59:29Z</time>
      </trkpt>
      <trkpt lat="42.390182" lon="-7.7407346">
        <time>2021-11-27T09:59:30Z</time>
      </trkpt>
      <trkpt lat="42.390182" lon="-7.740728">
        <time>2021-11-27T09:59:32Z</time>
      </trkpt>
      <trkpt lat="42.390182" lon="-7.740728">
        <time>2021-11-27T09:59:33Z</time>
      </trkpt>
      <trkpt lat="42.39018" lon="-7.740728">
        <time>2021-11-27T09:59:34Z</time>
      </trkpt>
      <trkpt lat="42.39018" lon="-7.740731">
        <time>2021-11-27T09:59:36Z</time>
      </trkpt>
      <trkpt lat="42.39017" lon="-7.740729">
        <time>2021-11-27T09:59:57Z</time>
      </trkpt>
      <trkpt lat="42.390163" lon="-7.7407227">
        <time>2021-11-27T10:00:07Z</time>
      </trkpt>
      <trkpt lat="42.390156" lon="-7.7407193">
        <time>2021-11-27T10:00:13Z</time>
      </trkpt>
      <trkpt lat="42.390152" lon="-7.740719">
        <time>2021-11-27T10:00:14Z</time>
      </trkpt>
      <trkpt lat="42.390144" lon="-7.740718">
        <time>2021-11-27T10:00:15Z</time>
      </trkpt>
      <trkpt lat="42.390133" lon="-7.740719">
        <time>2021-11-27T10:00:16Z</time>
      </trkpt>
      <trkpt lat="42.390118" lon="-7.740718">
        <time>2021-11-27T10:00:17Z</time>
      </trkpt>
      <trkpt lat="42.390102" lon="-7.740717">
        <time>2021-11-27T10:00:18Z</time>
      </trkpt>
      <trkpt lat="42.39009" lon="-7.740715">
        <time>2021-11-27T10:00:19Z</time>
      </trkpt>
      <trkpt lat="42.390083" lon="-7.740713">
        <time>2021-11-27T10:00:20Z</time>
      </trkpt>
      <trkpt lat="42.39007" lon="-7.740711">
        <time>2021-11-27T10:00:21Z</time>
      </trkpt>
      <trkpt lat="42.39006" lon="-7.740708">
        <time>2021-11-27T10:00:22Z</time>
      </trkpt>
      <trkpt lat="42.390045" lon="-7.740704">
        <time>2021-11-27T10:00:23Z</time>
      </trkpt>
      <trkpt lat="42.390034" lon="-7.740702">
        <time>2021-11-27T10:00:24Z</time>
      </trkpt>
      <trkpt lat="42.390022" lon="-7.740702">
        <time>2021-11-27T10:00:25Z</time>
      </trkpt>
      <trkpt lat="42.390015" lon="-7.740702">
        <time>2021-11-27T10:00:26Z</time>
      </trkpt>
      <trkpt lat="42.390007" lon="-7.7407007">
        <time>2021-11-27T10:00:27Z</time>
      </trkpt>
      <trkpt lat="42.39" lon="-7.740699">
        <time>2021-11-27T10:00:28Z</time>
      </trkpt>
      <trkpt lat="42.38999" lon="-7.7406917">
        <time>2021-11-27T10:00:29Z</time>
      </trkpt>
      <trkpt lat="42.38999" lon="-7.74068">
        <time>2021-11-27T10:00:30Z</time>
      </trkpt>
      <trkpt lat="42.389984" lon="-7.7406673">
        <time>2021-11-27T10:00:31Z</time>
      </trkpt>
      <trkpt lat="42.389973" lon="-7.740624">
        <time>2021-11-27T10:00:32Z</time>
      </trkpt>
      <trkpt lat="42.389973" lon="-7.74062">
        <time>2021-11-27T10:00:33Z</time>
      </trkpt>
      <trkpt lat="42.389973" lon="-7.740614">
        <time>2021-11-27T10:00:34Z</time>
      </trkpt>
      <trkpt lat="42.389973" lon="-7.7406054">
        <time>2021-11-27T10:00:35Z</time>
      </trkpt>
      <trkpt lat="42.38997" lon="-7.7405944">
        <time>2021-11-27T10:00:36Z</time>
      </trkpt>
      <trkpt lat="42.38997" lon="-7.7405825">
        <time>2021-11-27T10:00:37Z</time>
      </trkpt>
      <trkpt lat="42.38997" lon="-7.740566">
        <time>2021-11-27T10:00:38Z</time>
      </trkpt>
      <trkpt lat="42.38996" lon="-7.7405477">
        <time>2021-11-27T10:00:39Z</time>
      </trkpt>
      <trkpt lat="42.38996" lon="-7.740529">
        <time>2021-11-27T10:00:40Z</time>
      </trkpt>
      <trkpt lat="42.389957" lon="-7.7405114">
        <time>2021-11-27T10:00:41Z</time>
      </trkpt>
      <trkpt lat="42.389957" lon="-7.7404947">
        <time>2021-11-27T10:00:42Z</time>
      </trkpt>
      <trkpt lat="42.389954" lon="-7.740478">
        <time>2021-11-27T10:00:43Z</time>
      </trkpt>
      <trkpt lat="42.389954" lon="-7.7404613">
        <time>2021-11-27T10:00:44Z</time>
      </trkpt>
      <trkpt lat="42.389954" lon="-7.7404456">
        <time>2021-11-27T10:00:45Z</time>
      </trkpt>
      <trkpt lat="42.38995" lon="-7.7404294">
        <time>2021-11-27T10:00:49Z</time>
      </trkpt>
      <trkpt lat="42.389946" lon="-7.7404156">
        <time>2021-11-27T10:00:49Z</time>
      </trkpt>
      <trkpt lat="42.38994" lon="-7.7404013">
        <time>2021-11-27T10:00:49Z</time>
      </trkpt>
      <trkpt lat="42.38993" lon="-7.740387">
        <time>2021-11-27T10:00:49Z</time>
      </trkpt>
      <trkpt lat="42.389923" lon="-7.7403717">
        <time>2021-11-27T10:00:49Z</time>
      </trkpt>
      <trkpt lat="42.389915" lon="-7.740357">
        <time>2021-11-27T10:00:50Z</time>
      </trkpt>
      <trkpt lat="42.38991" lon="-7.740343">
        <time>2021-11-27T10:00:51Z</time>
      </trkpt>
      <trkpt lat="42.389904" lon="-7.74033">
        <time>2021-11-27T10:00:52Z</time>
      </trkpt>
      <trkpt lat="42.389904" lon="-7.7403193">
        <time>2021-11-27T10:00:53Z</time>
      </trkpt>
      <trkpt lat="42.389896" lon="-7.7403064">
        <time>2021-11-27T10:00:54Z</time>
      </trkpt>
      <trkpt lat="42.389896" lon="-7.7402925">
        <time>2021-11-27T10:00:55Z</time>
      </trkpt>
      <trkpt lat="42.389893" lon="-7.7402797">
        <time>2021-11-27T10:00:56Z</time>
      </trkpt>
      <trkpt lat="42.38989" lon="-7.74027">
        <time>2021-11-27T10:00:57Z</time>
      </trkpt>
      <trkpt lat="42.38988" lon="-7.7402596">
        <time>2021-11-27T10:00:58Z</time>
      </trkpt>
      <trkpt lat="42.389877" lon="-7.740248">
        <time>2021-11-27T10:00:59Z</time>
      </trkpt>
      <trkpt lat="42.389866" lon="-7.7402368">
        <time>2021-11-27T10:01:00Z</time>
      </trkpt>
      <trkpt lat="42.38986" lon="-7.7402267">
        <time>2021-11-27T10:01:01Z</time>
      </trkpt>
      <trkpt lat="42.389847" lon="-7.7402167">
        <time>2021-11-27T10:01:02Z</time>
      </trkpt>
      <trkpt lat="42.38983" lon="-7.740208">
        <time>2021-11-27T10:01:03Z</time>
      </trkpt>
      <trkpt lat="42.38982" lon="-7.7402005">
        <time>2021-11-27T10:01:04Z</time>
      </trkpt>
      <trkpt lat="42.38981" lon="-7.7401967">
        <time>2021-11-27T10:01:05Z</time>
      </trkpt>
      <trkpt lat="42.389797" lon="-7.740195">
        <time>2021-11-27T10:01:06Z</time>
      </trkpt>
      <trkpt lat="42.38979" lon="-7.740195">
        <time>2021-11-27T10:01:07Z</time>
      </trkpt>
      <trkpt lat="42.38978" lon="-7.7401924">
        <time>2021-11-27T10:01:08Z</time>
      </trkpt>
      <trkpt lat="42.389767" lon="-7.7401896">
        <time>2021-11-27T10:01:09Z</time>
      </trkpt>
      <trkpt lat="42.38976" lon="-7.7401867">
        <time>2021-11-27T10:01:10Z</time>
      </trkpt>
      <trkpt lat="42.389744" lon="-7.740184">
        <time>2021-11-27T10:01:11Z</time>
      </trkpt>
      <trkpt lat="42.389732" lon="-7.7401805">
        <time>2021-11-27T10:01:12Z</time>
      </trkpt>
      <trkpt lat="42.389717" lon="-7.7401767">
        <time>2021-11-27T10:01:13Z</time>
      </trkpt>
      <trkpt lat="42.3897" lon="-7.7401724">
        <time>2021-11-27T10:01:14Z</time>
      </trkpt>
      <trkpt lat="42.389687" lon="-7.740171">
        <time>2021-11-27T10:01:15Z</time>
      </trkpt>
      <trkpt lat="42.389675" lon="-7.740171">
        <time>2021-11-27T10:01:16Z</time>
      </trkpt>
      <trkpt lat="42.389664" lon="-7.740171">
        <time>2021-11-27T10:01:17Z</time>
      </trkpt>
      <trkpt lat="42.389652" lon="-7.7401695">
        <time>2021-11-27T10:01:18Z</time>
      </trkpt>
      <trkpt lat="42.38964" lon="-7.740168">
        <time>2021-11-27T10:01:19Z</time>
      </trkpt>
      <trkpt lat="42.38963" lon="-7.7401633">
        <time>2021-11-27T10:01:20Z</time>
      </trkpt>
      <trkpt lat="42.389618" lon="-7.7401547">
        <time>2021-11-27T10:01:21Z</time>
      </trkpt>
      <trkpt lat="42.389603" lon="-7.740145">
        <time>2021-11-27T10:01:22Z</time>
      </trkpt>
      <trkpt lat="42.38959" lon="-7.740132">
        <time>2021-11-27T10:01:23Z</time>
      </trkpt>
      <trkpt lat="42.38958" lon="-7.7401175">
        <time>2021-11-27T10:01:24Z</time>
      </trkpt>
      <trkpt lat="42.389572" lon="-7.740106">
        <time>2021-11-27T10:01:25Z</time>
      </trkpt>
      <trkpt lat="42.389565" lon="-7.740095">
        <time>2021-11-27T10:01:26Z</time>
      </trkpt>
      <trkpt lat="42.389557" lon="-7.740085">
        <time>2021-11-27T10:01:27Z</time>
      </trkpt>
      <trkpt lat="42.38955" lon="-7.7400723">
        <time>2021-11-27T10:01:28Z</time>
      </trkpt>
      <trkpt lat="42.389545" lon="-7.740057">
        <time>2021-11-27T10:01:29Z</time>
      </trkpt>
      <trkpt lat="42.38954" lon="-7.740042">
        <time>2021-11-27T10:01:30Z</time>
      </trkpt>
      <trkpt lat="42.389534" lon="-7.7400284">
        <time>2021-11-27T10:01:31Z</time>
      </trkpt>
      <trkpt lat="42.389526" lon="-7.7400136">
        <time>2021-11-27T10:01:32Z</time>
      </trkpt>
      <trkpt lat="42.38952" lon="-7.739994">
        <time>2021-11-27T10:01:33Z</time>
      </trkpt>
      <trkpt lat="42.389507" lon="-7.739973">
        <time>2021-11-27T10:01:34Z</time>
      </trkpt>
      <trkpt lat="42.3895" lon="-7.7399545">
        <time>2021-11-27T10:01:35Z</time>
      </trkpt>
      <trkpt lat="42.389492" lon="-7.739937">
        <time>2021-11-27T10:01:36Z</time>
      </trkpt>
      <trkpt lat="42.38948" lon="-7.739921">
        <time>2021-11-27T10:01:37Z</time>
      </trkpt>
      <trkpt lat="42.389473" lon="-7.7399054">
        <time>2021-11-27T10:01:38Z</time>
      </trkpt>
      <trkpt lat="42.38946" lon="-7.73989">
        <time>2021-11-27T10:01:39Z</time>
      </trkpt>
      <trkpt lat="42.389446" lon="-7.7398763">
        <time>2021-11-27T10:01:40Z</time>
      </trkpt>
      <trkpt lat="42.389435" lon="-7.739861">
        <time>2021-11-27T10:01:41Z</time>
      </trkpt>
      <trkpt lat="42.38942" lon="-7.7398453">
        <time>2021-11-27T10:01:42Z</time>
      </trkpt>
      <trkpt lat="42.38941" lon="-7.7398257">
        <time>2021-11-27T10:01:43Z</time>
      </trkpt>
      <trkpt lat="42.389393" lon="-7.73981">
        <time>2021-11-27T10:01:44Z</time>
      </trkpt>
      <trkpt lat="42.389378" lon="-7.7397933">
        <time>2021-11-27T10:01:45Z</time>
      </trkpt>
      <trkpt lat="42.389366" lon="-7.7397785">
        <time>2021-11-27T10:01:47Z</time>
      </trkpt>
      <trkpt lat="42.389355" lon="-7.7397666">
        <time>2021-11-27T10:01:47Z</time>
      </trkpt>
      <trkpt lat="42.389347" lon="-7.739753">
        <time>2021-11-27T10:01:48Z</time>
      </trkpt>
      <trkpt lat="42.38934" lon="-7.7397385">
        <time>2021-11-27T10:01:49Z</time>
      </trkpt>
      <trkpt lat="42.38933" lon="-7.7397227">
        <time>2021-11-27T10:01:50Z</time>
      </trkpt>
      <trkpt lat="42.38932" lon="-7.739705">
        <time>2021-11-27T10:01:51Z</time>
      </trkpt>
      <trkpt lat="42.389313" lon="-7.739687">
        <time>2021-11-27T10:01:52Z</time>
      </trkpt>
      <trkpt lat="42.3893" lon="-7.7396717">
        <time>2021-11-27T10:01:53Z</time>
      </trkpt>
      <trkpt lat="42.38929" lon="-7.739659">
        <time>2021-11-27T10:01:54Z</time>
      </trkpt>
      <trkpt lat="42.38928" lon="-7.7396474">
        <time>2021-11-27T10:01:55Z</time>
      </trkpt>
      <trkpt lat="42.389267" lon="-7.739635">
        <time>2021-11-27T10:01:56Z</time>
      </trkpt>
      <trkpt lat="42.38925" lon="-7.739623">
        <time>2021-11-27T10:01:57Z</time>
      </trkpt>
      <trkpt lat="42.38924" lon="-7.73961">
        <time>2021-11-27T10:01:58Z</time>
      </trkpt>
      <trkpt lat="42.38923" lon="-7.7395973">
        <time>2021-11-27T10:01:59Z</time>
      </trkpt>
      <trkpt lat="42.389217" lon="-7.7395835">
        <time>2021-11-27T10:02:00Z</time>
      </trkpt>
      <trkpt lat="42.389206" lon="-7.73957">
        <time>2021-11-27T10:02:01Z</time>
      </trkpt>
      <trkpt lat="42.3892" lon="-7.739559">
        <time>2021-11-27T10:02:02Z</time>
      </trkpt>
      <trkpt lat="42.38919" lon="-7.7395496">
        <time>2021-11-27T10:02:03Z</time>
      </trkpt>
      <trkpt lat="42.389183" lon="-7.7395406">
        <time>2021-11-27T10:02:04Z</time>
      </trkpt>
      <trkpt lat="42.38917" lon="-7.73953">
        <time>2021-11-27T10:02:05Z</time>
      </trkpt>
      <trkpt lat="42.38916" lon="-7.7395196">
        <time>2021-11-27T10:02:06Z</time>
      </trkpt>
      <trkpt lat="42.38915" lon="-7.7395067">
        <time>2021-11-27T10:02:07Z</time>
      </trkpt>
      <trkpt lat="42.389133" lon="-7.7394958">
        <time>2021-11-27T10:02:08Z</time>
      </trkpt>
      <trkpt lat="42.389126" lon="-7.739485">
        <time>2021-11-27T10:02:09Z</time>
      </trkpt>
      <trkpt lat="42.38912" lon="-7.7394733">
        <time>2021-11-27T10:02:10Z</time>
      </trkpt>
      <trkpt lat="42.389107" lon="-7.739462">
        <time>2021-11-27T10:02:11Z</time>
      </trkpt>
      <trkpt lat="42.3891" lon="-7.7394495">
        <time>2021-11-27T10:02:12Z</time>
      </trkpt>
      <trkpt lat="42.389088" lon="-7.7394357">
        <time>2021-11-27T10:02:13Z</time>
      </trkpt>
      <trkpt lat="42.38908" lon="-7.739422">
        <time>2021-11-27T10:02:14Z</time>
      </trkpt>
      <trkpt lat="42.38907" lon="-7.7394085">
        <time>2021-11-27T10:02:15Z</time>
      </trkpt>
      <trkpt lat="42.389057" lon="-7.7393966">
        <time>2021-11-27T10:02:16Z</time>
      </trkpt>
      <trkpt lat="42.389046" lon="-7.739385">
        <time>2021-11-27T10:02:17Z</time>
      </trkpt>
      <trkpt lat="42.389034" lon="-7.739374">
        <time>2021-11-27T10:02:18Z</time>
      </trkpt>
      <trkpt lat="42.389027" lon="-7.7393665">
        <time>2021-11-27T10:02:19Z</time>
      </trkpt>
      <trkpt lat="42.389015" lon="-7.739359">
        <time>2021-11-27T10:02:20Z</time>
      </trkpt>
      <trkpt lat="42.389004" lon="-7.7393513">
        <time>2021-11-27T10:02:21Z</time>
      </trkpt>
      <trkpt lat="42.388996" lon="-7.739342">
        <time>2021-11-27T10:02:22Z</time>
      </trkpt>
      <trkpt lat="42.38899" lon="-7.7393317">
        <time>2021-11-27T10:02:23Z</time>
      </trkpt>
      <trkpt lat="42.388977" lon="-7.7393217">
        <time>2021-11-27T10:02:24Z</time>
      </trkpt>
      <trkpt lat="42.388966" lon="-7.7393107">
        <time>2021-11-27T10:02:25Z</time>
      </trkpt>
      <trkpt lat="42.388958" lon="-7.7393003">
        <time>2021-11-27T10:02:26Z</time>
      </trkpt>
      <trkpt lat="42.388947" lon="-7.7392898">
        <time>2021-11-27T10:02:27Z</time>
      </trkpt>
      <trkpt lat="42.38893" lon="-7.739279">
        <time>2021-11-27T10:02:28Z</time>
      </trkpt>
      <trkpt lat="42.388924" lon="-7.7392683">
        <time>2021-11-27T10:02:29Z</time>
      </trkpt>
      <trkpt lat="42.388916" lon="-7.7392564">
        <time>2021-11-27T10:02:30Z</time>
      </trkpt>
      <trkpt lat="42.388905" lon="-7.7392435">
        <time>2021-11-27T10:02:31Z</time>
      </trkpt>
      <trkpt lat="42.388897" lon="-7.73923">
        <time>2021-11-27T10:02:32Z</time>
      </trkpt>
      <trkpt lat="42.388885" lon="-7.739217">
        <time>2021-11-27T10:02:33Z</time>
      </trkpt>
      <trkpt lat="42.388874" lon="-7.739201">
        <time>2021-11-27T10:02:34Z</time>
      </trkpt>
      <trkpt lat="42.388863" lon="-7.739186">
        <time>2021-11-27T10:02:35Z</time>
      </trkpt>
      <trkpt lat="42.388847" lon="-7.7391686">
        <time>2021-11-27T10:02:36Z</time>
      </trkpt>
      <trkpt lat="42.388836" lon="-7.73915">
        <time>2021-11-27T10:02:37Z</time>
      </trkpt>
      <trkpt lat="42.388824" lon="-7.739132">
        <time>2021-11-27T10:02:38Z</time>
      </trkpt>
      <trkpt lat="42.388813" lon="-7.7391176">
        <time>2021-11-27T10:02:39Z</time>
      </trkpt>
      <trkpt lat="42.3888" lon="-7.7391047">
        <time>2021-11-27T10:02:40Z</time>
      </trkpt>
      <trkpt lat="42.388794" lon="-7.7390914">
        <time>2021-11-27T10:02:41Z</time>
      </trkpt>
      <trkpt lat="42.388783" lon="-7.7390776">
        <time>2021-11-27T10:02:42Z</time>
      </trkpt>
      <trkpt lat="42.38877" lon="-7.739064">
        <time>2021-11-27T10:02:43Z</time>
      </trkpt>
      <trkpt lat="42.388763" lon="-7.7390523">
        <time>2021-11-27T10:02:44Z</time>
      </trkpt>
      <trkpt lat="42.388756" lon="-7.739042">
        <time>2021-11-27T10:02:46Z</time>
      </trkpt>
      <trkpt lat="42.388744" lon="-7.739034">
        <time>2021-11-27T10:02:46Z</time>
      </trkpt>
      <trkpt lat="42.388737" lon="-7.739025">
        <time>2021-11-27T10:02:47Z</time>
      </trkpt>
      <trkpt lat="42.38873" lon="-7.7390175">
        <time>2021-11-27T10:02:48Z</time>
      </trkpt>
      <trkpt lat="42.38872" lon="-7.7390084">
        <time>2021-11-27T10:02:49Z</time>
      </trkpt>
      <trkpt lat="42.38871" lon="-7.738999">
        <time>2021-11-27T10:02:50Z</time>
      </trkpt>
      <trkpt lat="42.3887" lon="-7.738989">
        <time>2021-11-27T10:02:51Z</time>
      </trkpt>
      <trkpt lat="42.388683" lon="-7.7389803">
        <time>2021-11-27T10:02:52Z</time>
      </trkpt>
      <trkpt lat="42.38867" lon="-7.738974">
        <time>2021-11-27T10:02:53Z</time>
      </trkpt>
      <trkpt lat="42.38866" lon="-7.738969">
        <time>2021-11-27T10:02:54Z</time>
      </trkpt>
      <trkpt lat="42.38865" lon="-7.738963">
        <time>2021-11-27T10:02:55Z</time>
      </trkpt>
      <trkpt lat="42.38864" lon="-7.738959">
        <time>2021-11-27T10:02:56Z</time>
      </trkpt>
      <trkpt lat="42.388634" lon="-7.738954">
        <time>2021-11-27T10:02:57Z</time>
      </trkpt>
      <trkpt lat="42.38863" lon="-7.738951">
        <time>2021-11-27T10:02:58Z</time>
      </trkpt>
      <trkpt lat="42.388626" lon="-7.7389483">
        <time>2021-11-27T10:02:59Z</time>
      </trkpt>
      <trkpt lat="42.388622" lon="-7.7389445">
        <time>2021-11-27T10:03:00Z</time>
      </trkpt>
      <trkpt lat="42.388615" lon="-7.7389402">
        <time>2021-11-27T10:03:01Z</time>
      </trkpt>
      <trkpt lat="42.388607" lon="-7.738937">
        <time>2021-11-27T10:03:02Z</time>
      </trkpt>
      <trkpt lat="42.388596" lon="-7.7389364">
        <time>2021-11-27T10:03:03Z</time>
      </trkpt>
      <trkpt lat="42.388584" lon="-7.738935">
        <time>2021-11-27T10:03:04Z</time>
      </trkpt>
      <trkpt lat="42.38857" lon="-7.7389336">
        <time>2021-11-27T10:03:05Z</time>
      </trkpt>
      <trkpt lat="42.388554" lon="-7.7389307">
        <time>2021-11-27T10:03:06Z</time>
      </trkpt>
      <trkpt lat="42.388542" lon="-7.738927">
        <time>2021-11-27T10:03:07Z</time>
      </trkpt>
      <trkpt lat="42.38853" lon="-7.7389255">
        <time>2021-11-27T10:03:08Z</time>
      </trkpt>
      <trkpt lat="42.38852" lon="-7.738927">
        <time>2021-11-27T10:03:09Z</time>
      </trkpt>
      <trkpt lat="42.388508" lon="-7.7389307">
        <time>2021-11-27T10:03:10Z</time>
      </trkpt>
      <trkpt lat="42.388496" lon="-7.7389364">
        <time>2021-11-27T10:03:11Z</time>
      </trkpt>
      <trkpt lat="42.38849" lon="-7.738942">
        <time>2021-11-27T10:03:12Z</time>
      </trkpt>
      <trkpt lat="42.38848" lon="-7.7389474">
        <time>2021-11-27T10:03:13Z</time>
      </trkpt>
      <trkpt lat="42.388474" lon="-7.738952">
        <time>2021-11-27T10:03:14Z</time>
      </trkpt>
      <trkpt lat="42.38847" lon="-7.738957">
        <time>2021-11-27T10:03:15Z</time>
      </trkpt>
      <trkpt lat="42.388466" lon="-7.73896">
        <time>2021-11-27T10:03:16Z</time>
      </trkpt>
      <trkpt lat="42.388466" lon="-7.7389627">
        <time>2021-11-27T10:03:17Z</time>
      </trkpt>
      <trkpt lat="42.38846" lon="-7.7389717">
        <time>2021-11-27T10:03:20Z</time>
      </trkpt>
      <trkpt lat="42.388454" lon="-7.7389717">
        <time>2021-11-27T10:03:21Z</time>
      </trkpt>
      <trkpt lat="42.38845" lon="-7.738972">
        <time>2021-11-27T10:03:22Z</time>
      </trkpt>
      <trkpt lat="42.38845" lon="-7.738972">
        <time>2021-11-27T10:03:23Z</time>
      </trkpt>
      <trkpt lat="42.388443" lon="-7.7389708">
        <time>2021-11-27T10:03:24Z</time>
      </trkpt>
      <trkpt lat="42.38844" lon="-7.7389717">
        <time>2021-11-27T10:03:25Z</time>
      </trkpt>
      <trkpt lat="42.38843" lon="-7.738974">
        <time>2021-11-27T10:03:26Z</time>
      </trkpt>
      <trkpt lat="42.388424" lon="-7.738976">
        <time>2021-11-27T10:03:27Z</time>
      </trkpt>
      <trkpt lat="42.388412" lon="-7.7389784">
        <time>2021-11-27T10:03:28Z</time>
      </trkpt>
      <trkpt lat="42.388405" lon="-7.7389817">
        <time>2021-11-27T10:03:29Z</time>
      </trkpt>
      <trkpt lat="42.388393" lon="-7.738985">
        <time>2021-11-27T10:03:30Z</time>
      </trkpt>
      <trkpt lat="42.388386" lon="-7.738989">
        <time>2021-11-27T10:03:31Z</time>
      </trkpt>
      <trkpt lat="42.38838" lon="-7.7389913">
        <time>2021-11-27T10:03:32Z</time>
      </trkpt>
      <trkpt lat="42.38837" lon="-7.738994">
        <time>2021-11-27T10:03:33Z</time>
      </trkpt>
      <trkpt lat="42.388367" lon="-7.738998">
        <time>2021-11-27T10:03:34Z</time>
      </trkpt>
      <trkpt lat="42.388355" lon="-7.739002">
        <time>2021-11-27T10:03:35Z</time>
      </trkpt>
      <trkpt lat="42.388348" lon="-7.739008">
        <time>2021-11-27T10:03:36Z</time>
      </trkpt>
      <trkpt lat="42.38834" lon="-7.7390156">
        <time>2021-11-27T10:03:37Z</time>
      </trkpt>
      <trkpt lat="42.388325" lon="-7.7390246">
        <time>2021-11-27T10:03:38Z</time>
      </trkpt>
      <trkpt lat="42.388313" lon="-7.7390337">
        <time>2021-11-27T10:03:39Z</time>
      </trkpt>
      <trkpt lat="42.388298" lon="-7.739041">
        <time>2021-11-27T10:03:40Z</time>
      </trkpt>
      <trkpt lat="42.388287" lon="-7.7390456">
        <time>2021-11-27T10:03:41Z</time>
      </trkpt>
      <trkpt lat="42.388268" lon="-7.7390513">
        <time>2021-11-27T10:03:42Z</time>
      </trkpt>
      <trkpt lat="42.388252" lon="-7.739055">
        <time>2021-11-27T10:03:43Z</time>
      </trkpt>
      <trkpt lat="42.388233" lon="-7.7390614">
        <time>2021-11-27T10:03:44Z</time>
      </trkpt>
      <trkpt lat="42.38822" lon="-7.739068">
        <time>2021-11-27T10:03:46Z</time>
      </trkpt>
      <trkpt lat="42.388206" lon="-7.739075">
        <time>2021-11-27T10:03:46Z</time>
      </trkpt>
      <trkpt lat="42.388195" lon="-7.7390804">
        <time>2021-11-27T10:03:47Z</time>
      </trkpt>
      <trkpt lat="42.38818" lon="-7.7390823">
        <time>2021-11-27T10:03:48Z</time>
      </trkpt>
      <trkpt lat="42.388165" lon="-7.7390876">
        <time>2021-11-27T10:03:49Z</time>
      </trkpt>
      <trkpt lat="42.38815" lon="-7.73909">
        <time>2021-11-27T10:03:50Z</time>
      </trkpt>
      <trkpt lat="42.388134" lon="-7.739092">
        <time>2021-11-27T10:03:51Z</time>
      </trkpt>
      <trkpt lat="42.388123" lon="-7.739096">
        <time>2021-11-27T10:03:52Z</time>
      </trkpt>
      <trkpt lat="42.388107" lon="-7.7391">
        <time>2021-11-27T10:03:53Z</time>
      </trkpt>
      <trkpt lat="42.3881" lon="-7.739107">
        <time>2021-11-27T10:03:54Z</time>
      </trkpt>
      <trkpt lat="42.388092" lon="-7.7391157">
        <time>2021-11-27T10:03:55Z</time>
      </trkpt>
      <trkpt lat="42.38808" lon="-7.7391233">
        <time>2021-11-27T10:03:56Z</time>
      </trkpt>
      <trkpt lat="42.38807" lon="-7.7391295">
        <time>2021-11-27T10:03:57Z</time>
      </trkpt>
      <trkpt lat="42.388054" lon="-7.7391334">
        <time>2021-11-27T10:03:58Z</time>
      </trkpt>
      <trkpt lat="42.38804" lon="-7.739137">
        <time>2021-11-27T10:03:59Z</time>
      </trkpt>
      <trkpt lat="42.388023" lon="-7.739144">
        <time>2021-11-27T10:04:00Z</time>
      </trkpt>
      <trkpt lat="42.388016" lon="-7.7391486">
        <time>2021-11-27T10:04:01Z</time>
      </trkpt>
      <trkpt lat="42.388" lon="-7.7391505">
        <time>2021-11-27T10:04:02Z</time>
      </trkpt>
      <trkpt lat="42.387993" lon="-7.739148">
        <time>2021-11-27T10:04:03Z</time>
      </trkpt>
      <trkpt lat="42.387985" lon="-7.7391443">
        <time>2021-11-27T10:04:04Z</time>
      </trkpt>
      <trkpt lat="42.387974" lon="-7.7391405">
        <time>2021-11-27T10:04:05Z</time>
      </trkpt>
      <trkpt lat="42.387966" lon="-7.7391353">
        <time>2021-11-27T10:04:06Z</time>
      </trkpt>
      <trkpt lat="42.387955" lon="-7.7391315">
        <time>2021-11-27T10:04:07Z</time>
      </trkpt>
      <trkpt lat="42.387943" lon="-7.7391276">
        <time>2021-11-27T10:04:08Z</time>
      </trkpt>
      <trkpt lat="42.387928" lon="-7.739122">
        <time>2021-11-27T10:04:09Z</time>
      </trkpt>
      <trkpt lat="42.387913" lon="-7.739114">
        <time>2021-11-27T10:04:10Z</time>
      </trkpt>
      <trkpt lat="42.387897" lon="-7.739102">
        <time>2021-11-27T10:04:11Z</time>
      </trkpt>
      <trkpt lat="42.387882" lon="-7.73909">
        <time>2021-11-27T10:04:12Z</time>
      </trkpt>
      <trkpt lat="42.387867" lon="-7.7390776">
        <time>2021-11-27T10:04:13Z</time>
      </trkpt>
      <trkpt lat="42.387856" lon="-7.739066">
        <time>2021-11-27T10:04:14Z</time>
      </trkpt>
      <trkpt lat="42.387844" lon="-7.739056">
        <time>2021-11-27T10:04:15Z</time>
      </trkpt>
      <trkpt lat="42.38783" lon="-7.7390456">
        <time>2021-11-27T10:04:16Z</time>
      </trkpt>
      <trkpt lat="42.38782" lon="-7.7390356">
        <time>2021-11-27T10:04:17Z</time>
      </trkpt>
      <trkpt lat="42.387806" lon="-7.7390246">
        <time>2021-11-27T10:04:18Z</time>
      </trkpt>
      <trkpt lat="42.3878" lon="-7.7390146">
        <time>2021-11-27T10:04:19Z</time>
      </trkpt>
      <trkpt lat="42.387787" lon="-7.739004">
        <time>2021-11-27T10:04:20Z</time>
      </trkpt>
      <trkpt lat="42.387775" lon="-7.7389965">
        <time>2021-11-27T10:04:21Z</time>
      </trkpt>
      <trkpt lat="42.387764" lon="-7.7389874">
        <time>2021-11-27T10:04:22Z</time>
      </trkpt>
      <trkpt lat="42.38775" lon="-7.7389793">
        <time>2021-11-27T10:04:23Z</time>
      </trkpt>
      <trkpt lat="42.387733" lon="-7.7389703">
        <time>2021-11-27T10:04:24Z</time>
      </trkpt>
      <trkpt lat="42.387722" lon="-7.7389593">
        <time>2021-11-27T10:04:25Z</time>
      </trkpt>
      <trkpt lat="42.38771" lon="-7.7389474">
        <time>2021-11-27T10:04:26Z</time>
      </trkpt>
      <trkpt lat="42.387695" lon="-7.7389355">
        <time>2021-11-27T10:04:27Z</time>
      </trkpt>
      <trkpt lat="42.387688" lon="-7.738924">
        <time>2021-11-27T10:04:28Z</time>
      </trkpt>
      <trkpt lat="42.387676" lon="-7.7389164">
        <time>2021-11-27T10:04:29Z</time>
      </trkpt>
      <trkpt lat="42.38767" lon="-7.738911">
        <time>2021-11-27T10:04:30Z</time>
      </trkpt>
      <trkpt lat="42.38766" lon="-7.738907">
        <time>2021-11-27T10:04:31Z</time>
      </trkpt>
      <trkpt lat="42.38765" lon="-7.738901">
        <time>2021-11-27T10:04:32Z</time>
      </trkpt>
      <trkpt lat="42.38764" lon="-7.738894">
        <time>2021-11-27T10:04:33Z</time>
      </trkpt>
      <trkpt lat="42.387627" lon="-7.7388825">
        <time>2021-11-27T10:04:34Z</time>
      </trkpt>
      <trkpt lat="42.38761" lon="-7.7388673">
        <time>2021-11-27T10:04:35Z</time>
      </trkpt>
      <trkpt lat="42.3876" lon="-7.738854">
        <time>2021-11-27T10:04:36Z</time>
      </trkpt>
      <trkpt lat="42.387585" lon="-7.738841">
        <time>2021-11-27T10:04:37Z</time>
      </trkpt>
      <trkpt lat="42.38757" lon="-7.7388325">
        <time>2021-11-27T10:04:38Z</time>
      </trkpt>
      <trkpt lat="42.38756" lon="-7.738825">
        <time>2021-11-27T10:04:39Z</time>
      </trkpt>
      <trkpt lat="42.387554" lon="-7.738819">
        <time>2021-11-27T10:04:40Z</time>
      </trkpt>
      <trkpt lat="42.387547" lon="-7.738814">
        <time>2021-11-27T10:04:41Z</time>
      </trkpt>
      <trkpt lat="42.38754" lon="-7.7388096">
        <time>2021-11-27T10:04:42Z</time>
      </trkpt>
      <trkpt lat="42.38753" lon="-7.738804">
        <time>2021-11-27T10:04:43Z</time>
      </trkpt>
      <trkpt lat="42.387524" lon="-7.7387967">
        <time>2021-11-27T10:04:44Z</time>
      </trkpt>
      <trkpt lat="42.387512" lon="-7.7387867">
        <time>2021-11-27T10:04:46Z</time>
      </trkpt>
      <trkpt lat="42.387505" lon="-7.7387743">
        <time>2021-11-27T10:04:46Z</time>
      </trkpt>
      <trkpt lat="42.387493" lon="-7.7387614">
        <time>2021-11-27T10:04:47Z</time>
      </trkpt>
      <trkpt lat="42.387486" lon="-7.7387514">
        <time>2021-11-27T10:04:48Z</time>
      </trkpt>
      <trkpt lat="42.387478" lon="-7.7387424">
        <time>2021-11-27T10:04:49Z</time>
      </trkpt>
      <trkpt lat="42.387466" lon="-7.7387333">
        <time>2021-11-27T10:04:50Z</time>
      </trkpt>
      <trkpt lat="42.38746" lon="-7.7387233">
        <time>2021-11-27T10:04:51Z</time>
      </trkpt>
      <trkpt lat="42.387447" lon="-7.738711">
        <time>2021-11-27T10:04:52Z</time>
      </trkpt>
      <trkpt lat="42.38744" lon="-7.7386975">
        <time>2021-11-27T10:04:53Z</time>
      </trkpt>
      <trkpt lat="42.387432" lon="-7.7386827">
        <time>2021-11-27T10:04:54Z</time>
      </trkpt>
      <trkpt lat="42.38742" lon="-7.7386656">
        <time>2021-11-27T10:04:55Z</time>
      </trkpt>
      <trkpt lat="42.38741" lon="-7.7386465">
        <time>2021-11-27T10:04:56Z</time>
      </trkpt>
      <trkpt lat="42.3874" lon="-7.738633">
        <time>2021-11-27T10:04:57Z</time>
      </trkpt>
      <trkpt lat="42.38739" lon="-7.738624">
        <time>2021-11-27T10:04:58Z</time>
      </trkpt>
      <trkpt lat="42.387383" lon="-7.7386193">
        <time>2021-11-27T10:04:59Z</time>
      </trkpt>
      <trkpt lat="42.387375" lon="-7.7386146">
        <time>2021-11-27T10:05:00Z</time>
      </trkpt>
      <trkpt lat="42.387363" lon="-7.738611">
        <time>2021-11-27T10:05:01Z</time>
      </trkpt>
      <trkpt lat="42.387352" lon="-7.7386074">
        <time>2021-11-27T10:05:02Z</time>
      </trkpt>
      <trkpt lat="42.387344" lon="-7.738604">
        <time>2021-11-27T10:05:03Z</time>
      </trkpt>
      <trkpt lat="42.387318" lon="-7.7385983">
        <time>2021-11-27T10:05:04Z</time>
      </trkpt>
      <trkpt lat="42.387314" lon="-7.738596">
        <time>2021-11-27T10:05:05Z</time>
      </trkpt>
      <trkpt lat="42.38731" lon="-7.738593">
        <time>2021-11-27T10:05:06Z</time>
      </trkpt>
      <trkpt lat="42.387302" lon="-7.738591">
        <time>2021-11-27T10:05:07Z</time>
      </trkpt>
      <trkpt lat="42.38729" lon="-7.738591">
        <time>2021-11-27T10:05:08Z</time>
      </trkpt>
      <trkpt lat="42.38728" lon="-7.738593">
        <time>2021-11-27T10:05:09Z</time>
      </trkpt>
      <trkpt lat="42.387268" lon="-7.7385964">
        <time>2021-11-27T10:05:10Z</time>
      </trkpt>
      <trkpt lat="42.387257" lon="-7.7386007">
        <time>2021-11-27T10:05:11Z</time>
      </trkpt>
      <trkpt lat="42.387245" lon="-7.738608">
        <time>2021-11-27T10:05:12Z</time>
      </trkpt>
      <trkpt lat="42.38723" lon="-7.7386146">
        <time>2021-11-27T10:05:13Z</time>
      </trkpt>
      <trkpt lat="42.387215" lon="-7.738621">
        <time>2021-11-27T10:05:14Z</time>
      </trkpt>
      <trkpt lat="42.387196" lon="-7.7386274">
        <time>2021-11-27T10:05:15Z</time>
      </trkpt>
      <trkpt lat="42.38718" lon="-7.7386293">
        <time>2021-11-27T10:05:16Z</time>
      </trkpt>
      <trkpt lat="42.387165" lon="-7.7386284">
        <time>2021-11-27T10:05:17Z</time>
      </trkpt>
      <trkpt lat="42.387157" lon="-7.7386274">
        <time>2021-11-27T10:05:18Z</time>
      </trkpt>
      <trkpt lat="42.387142" lon="-7.7386227">
        <time>2021-11-27T10:05:19Z</time>
      </trkpt>
      <trkpt lat="42.387127" lon="-7.7386184">
        <time>2021-11-27T10:05:20Z</time>
      </trkpt>
      <trkpt lat="42.387108" lon="-7.7386136">
        <time>2021-11-27T10:05:21Z</time>
      </trkpt>
      <trkpt lat="42.38709" lon="-7.7386117">
        <time>2021-11-27T10:05:22Z</time>
      </trkpt>
      <trkpt lat="42.387066" lon="-7.7386074">
        <time>2021-11-27T10:05:23Z</time>
      </trkpt>
      <trkpt lat="42.387043" lon="-7.738604">
        <time>2021-11-27T10:05:24Z</time>
      </trkpt>
      <trkpt lat="42.387028" lon="-7.7386017">
        <time>2021-11-27T10:05:25Z</time>
      </trkpt>
      <trkpt lat="42.38701" lon="-7.7386">
        <time>2021-11-27T10:05:26Z</time>
      </trkpt>
      <trkpt lat="42.386993" lon="-7.7385983">
        <time>2021-11-27T10:05:27Z</time>
      </trkpt>
      <trkpt lat="42.386982" lon="-7.738597">
        <time>2021-11-27T10:05:28Z</time>
      </trkpt>
      <trkpt lat="42.38697" lon="-7.7385983">
        <time>2021-11-27T10:05:29Z</time>
      </trkpt>
      <trkpt lat="42.386955" lon="-7.7386007">
        <time>2021-11-27T10:05:30Z</time>
      </trkpt>
      <trkpt lat="42.38694" lon="-7.738604">
        <time>2021-11-27T10:05:31Z</time>
      </trkpt>
      <trkpt lat="42.38693" lon="-7.738607">
        <time>2021-11-27T10:05:32Z</time>
      </trkpt>
      <trkpt lat="42.386913" lon="-7.738611">
        <time>2021-11-27T10:05:33Z</time>
      </trkpt>
      <trkpt lat="42.3869" lon="-7.7386136">
        <time>2021-11-27T10:05:34Z</time>
      </trkpt>
      <trkpt lat="42.386887" lon="-7.7386155">
        <time>2021-11-27T10:05:35Z</time>
      </trkpt>
      <trkpt lat="42.386875" lon="-7.7386203">
        <time>2021-11-27T10:05:36Z</time>
      </trkpt>
      <trkpt lat="42.386864" lon="-7.738625">
        <time>2021-11-27T10:05:37Z</time>
      </trkpt>
      <trkpt lat="42.38685" lon="-7.7386312">
        <time>2021-11-27T10:05:38Z</time>
      </trkpt>
      <trkpt lat="42.386833" lon="-7.7386355">
        <time>2021-11-27T10:05:39Z</time>
      </trkpt>
      <trkpt lat="42.386818" lon="-7.7386394">
        <time>2021-11-27T10:05:40Z</time>
      </trkpt>
      <trkpt lat="42.386803" lon="-7.7386427">
        <time>2021-11-27T10:05:41Z</time>
      </trkpt>
      <trkpt lat="42.386787" lon="-7.7386456">
        <time>2021-11-27T10:05:42Z</time>
      </trkpt>
      <trkpt lat="42.386776" lon="-7.7386484">
        <time>2021-11-27T10:05:43Z</time>
      </trkpt>
      <trkpt lat="42.38676" lon="-7.738647">
        <time>2021-11-27T10:05:44Z</time>
      </trkpt>
      <trkpt lat="42.38675" lon="-7.738645">
        <time>2021-11-27T10:05:45Z</time>
      </trkpt>
      <trkpt lat="42.386734" lon="-7.7386436">
        <time>2021-11-27T10:05:46Z</time>
      </trkpt>
      <trkpt lat="42.386723" lon="-7.7386427">
        <time>2021-11-27T10:05:47Z</time>
      </trkpt>
      <trkpt lat="42.386707" lon="-7.7386427">
        <time>2021-11-27T10:05:48Z</time>
      </trkpt>
      <trkpt lat="42.386696" lon="-7.7386436">
        <time>2021-11-27T10:05:49Z</time>
      </trkpt>
      <trkpt lat="42.38668" lon="-7.7386465">
        <time>2021-11-27T10:05:50Z</time>
      </trkpt>
      <trkpt lat="42.38667" lon="-7.7386494">
        <time>2021-11-27T10:05:51Z</time>
      </trkpt>
      <trkpt lat="42.386654" lon="-7.7386556">
        <time>2021-11-27T10:05:52Z</time>
      </trkpt>
      <trkpt lat="42.38664" lon="-7.7386622">
        <time>2021-11-27T10:05:53Z</time>
      </trkpt>
      <trkpt lat="42.38662" lon="-7.738669">
        <time>2021-11-27T10:05:54Z</time>
      </trkpt>
      <trkpt lat="42.386604" lon="-7.7386746">
        <time>2021-11-27T10:05:55Z</time>
      </trkpt>
      <trkpt lat="42.38659" lon="-7.738677">
        <time>2021-11-27T10:05:56Z</time>
      </trkpt>
      <trkpt lat="42.38657" lon="-7.7386785">
        <time>2021-11-27T10:05:57Z</time>
      </trkpt>
      <trkpt lat="42.38655" lon="-7.7386804">
        <time>2021-11-27T10:05:58Z</time>
      </trkpt>
      <trkpt lat="42.386536" lon="-7.7386856">
        <time>2021-11-27T10:05:59Z</time>
      </trkpt>
      <trkpt lat="42.38652" lon="-7.73869">
        <time>2021-11-27T10:06:00Z</time>
      </trkpt>
      <trkpt lat="42.3865" lon="-7.7386923">
        <time>2021-11-27T10:06:01Z</time>
      </trkpt>
      <trkpt lat="42.386486" lon="-7.7386923">
        <time>2021-11-27T10:06:02Z</time>
      </trkpt>
      <trkpt lat="42.386467" lon="-7.7386923">
        <time>2021-11-27T10:06:03Z</time>
      </trkpt>
      <trkpt lat="42.386448" lon="-7.738693">
        <time>2021-11-27T10:06:04Z</time>
      </trkpt>
      <trkpt lat="42.38643" lon="-7.7386956">
        <time>2021-11-27T10:06:05Z</time>
      </trkpt>
      <trkpt lat="42.38641" lon="-7.738701">
        <time>2021-11-27T10:06:06Z</time>
      </trkpt>
      <trkpt lat="42.386395" lon="-7.7387066">
        <time>2021-11-27T10:06:07Z</time>
      </trkpt>
      <trkpt lat="42.38638" lon="-7.738711">
        <time>2021-11-27T10:06:08Z</time>
      </trkpt>
      <trkpt lat="42.386364" lon="-7.738716">
        <time>2021-11-27T10:06:09Z</time>
      </trkpt>
      <trkpt lat="42.38635" lon="-7.73872">
        <time>2021-11-27T10:06:10Z</time>
      </trkpt>
      <trkpt lat="42.386333" lon="-7.7387204">
        <time>2021-11-27T10:06:11Z</time>
      </trkpt>
      <trkpt lat="42.386322" lon="-7.7387195">
        <time>2021-11-27T10:06:12Z</time>
      </trkpt>
      <trkpt lat="42.386307" lon="-7.738711">
        <time>2021-11-27T10:06:13Z</time>
      </trkpt>
      <trkpt lat="42.386295" lon="-7.738703">
        <time>2021-11-27T10:06:14Z</time>
      </trkpt>
      <trkpt lat="42.38628" lon="-7.7387004">
        <time>2021-11-27T10:06:15Z</time>
      </trkpt>
      <trkpt lat="42.38627" lon="-7.738698">
        <time>2021-11-27T10:06:16Z</time>
      </trkpt>
      <trkpt lat="42.386257" lon="-7.7386994">
        <time>2021-11-27T10:06:17Z</time>
      </trkpt>
      <trkpt lat="42.386246" lon="-7.7387004">
        <time>2021-11-27T10:06:18Z</time>
      </trkpt>
      <trkpt lat="42.386234" lon="-7.7387013">
        <time>2021-11-27T10:06:19Z</time>
      </trkpt>
      <trkpt lat="42.386223" lon="-7.7387013">
        <time>2021-11-27T10:06:20Z</time>
      </trkpt>
      <trkpt lat="42.38621" lon="-7.7387023">
        <time>2021-11-27T10:06:21Z</time>
      </trkpt>
      <trkpt lat="42.3862" lon="-7.7387047">
        <time>2021-11-27T10:06:22Z</time>
      </trkpt>
      <trkpt lat="42.38619" lon="-7.7387033">
        <time>2021-11-27T10:06:23Z</time>
      </trkpt>
      <trkpt lat="42.386177" lon="-7.7387013">
        <time>2021-11-27T10:06:24Z</time>
      </trkpt>
      <trkpt lat="42.38617" lon="-7.738704">
        <time>2021-11-27T10:06:25Z</time>
      </trkpt>
      <trkpt lat="42.386158" lon="-7.738706">
        <time>2021-11-27T10:06:26Z</time>
      </trkpt>
      <trkpt lat="42.386147" lon="-7.738707">
        <time>2021-11-27T10:06:27Z</time>
      </trkpt>
      <trkpt lat="42.38614" lon="-7.738707">
        <time>2021-11-27T10:06:28Z</time>
      </trkpt>
      <trkpt lat="42.38613" lon="-7.738707">
        <time>2021-11-27T10:06:29Z</time>
      </trkpt>
      <trkpt lat="42.38612" lon="-7.7387085">
        <time>2021-11-27T10:06:30Z</time>
      </trkpt>
      <trkpt lat="42.386112" lon="-7.73871">
        <time>2021-11-27T10:06:31Z</time>
      </trkpt>
      <trkpt lat="42.386105" lon="-7.7387104">
        <time>2021-11-27T10:06:32Z</time>
      </trkpt>
      <trkpt lat="42.386093" lon="-7.7387147">
        <time>2021-11-27T10:06:33Z</time>
      </trkpt>
      <trkpt lat="42.386086" lon="-7.738722">
        <time>2021-11-27T10:06:34Z</time>
      </trkpt>
      <trkpt lat="42.38607" lon="-7.7387276">
        <time>2021-11-27T10:06:35Z</time>
      </trkpt>
      <trkpt lat="42.38606" lon="-7.7387295">
        <time>2021-11-27T10:06:36Z</time>
      </trkpt>
      <trkpt lat="42.386047" lon="-7.7387285">
        <time>2021-11-27T10:06:37Z</time>
      </trkpt>
      <trkpt lat="42.386032" lon="-7.7387285">
        <time>2021-11-27T10:06:38Z</time>
      </trkpt>
      <trkpt lat="42.38602" lon="-7.738729">
        <time>2021-11-27T10:06:39Z</time>
      </trkpt>
      <trkpt lat="42.386005" lon="-7.7387285">
        <time>2021-11-27T10:06:40Z</time>
      </trkpt>
      <trkpt lat="42.385994" lon="-7.7387295">
        <time>2021-11-27T10:06:41Z</time>
      </trkpt>
      <trkpt lat="42.385983" lon="-7.738731">
        <time>2021-11-27T10:06:42Z</time>
      </trkpt>
      <trkpt lat="42.385967" lon="-7.7387295">
        <time>2021-11-27T10:06:43Z</time>
      </trkpt>
      <trkpt lat="42.385952" lon="-7.7387257">
        <time>2021-11-27T10:06:44Z</time>
      </trkpt>
      <trkpt lat="42.38594" lon="-7.738718">
        <time>2021-11-27T10:06:45Z</time>
      </trkpt>
      <trkpt lat="42.38593" lon="-7.7387104">
        <time>2021-11-27T10:06:46Z</time>
      </trkpt>
      <trkpt lat="42.385914" lon="-7.738704">
        <time>2021-11-27T10:06:47Z</time>
      </trkpt>
      <trkpt lat="42.385906" lon="-7.7386975">
        <time>2021-11-27T10:06:48Z</time>
      </trkpt>
      <trkpt lat="42.38589" lon="-7.7386923">
        <time>2021-11-27T10:06:49Z</time>
      </trkpt>
      <trkpt lat="42.385876" lon="-7.738688">
        <time>2021-11-27T10:06:50Z</time>
      </trkpt>
      <trkpt lat="42.38586" lon="-7.7386837">
        <time>2021-11-27T10:06:51Z</time>
      </trkpt>
      <trkpt lat="42.385845" lon="-7.738681">
        <time>2021-11-27T10:06:52Z</time>
      </trkpt>
      <trkpt lat="42.385834" lon="-7.7386804">
        <time>2021-11-27T10:06:53Z</time>
      </trkpt>
      <trkpt lat="42.385822" lon="-7.7386837">
        <time>2021-11-27T10:06:54Z</time>
      </trkpt>
      <trkpt lat="42.385807" lon="-7.7386885">
        <time>2021-11-27T10:06:55Z</time>
      </trkpt>
      <trkpt lat="42.385784" lon="-7.738695">
        <time>2021-11-27T10:06:56Z</time>
      </trkpt>
      <trkpt lat="42.38576" lon="-7.738703">
        <time>2021-11-27T10:06:57Z</time>
      </trkpt>
      <trkpt lat="42.385742" lon="-7.738707">
        <time>2021-11-27T10:06:58Z</time>
      </trkpt>
      <trkpt lat="42.385727" lon="-7.73871">
        <time>2021-11-27T10:06:59Z</time>
      </trkpt>
      <trkpt lat="42.38571" lon="-7.738711">
        <time>2021-11-27T10:07:00Z</time>
      </trkpt>
      <trkpt lat="42.3857" lon="-7.738709">
        <time>2021-11-27T10:07:01Z</time>
      </trkpt>
      <trkpt lat="42.38569" lon="-7.738705">
        <time>2021-11-27T10:07:02Z</time>
      </trkpt>
      <trkpt lat="42.385677" lon="-7.7387033">
        <time>2021-11-27T10:07:03Z</time>
      </trkpt>
      <trkpt lat="42.385666" lon="-7.738701">
        <time>2021-11-27T10:07:04Z</time>
      </trkpt>
      <trkpt lat="42.385654" lon="-7.7386975">
        <time>2021-11-27T10:07:05Z</time>
      </trkpt>
      <trkpt lat="42.385647" lon="-7.7386894">
        <time>2021-11-27T10:07:06Z</time>
      </trkpt>
      <trkpt lat="42.38563" lon="-7.738679">
        <time>2021-11-27T10:07:07Z</time>
      </trkpt>
      <trkpt lat="42.385616" lon="-7.738672">
        <time>2021-11-27T10:07:08Z</time>
      </trkpt>
      <trkpt lat="42.3856" lon="-7.738669">
        <time>2021-11-27T10:07:09Z</time>
      </trkpt>
      <trkpt lat="42.385586" lon="-7.7386613">
        <time>2021-11-27T10:07:10Z</time>
      </trkpt>
      <trkpt lat="42.385567" lon="-7.738651">
        <time>2021-11-27T10:07:11Z</time>
      </trkpt>
      <trkpt lat="42.38555" lon="-7.738643">
        <time>2021-11-27T10:07:12Z</time>
      </trkpt>
      <trkpt lat="42.385536" lon="-7.7386413">
        <time>2021-11-27T10:07:13Z</time>
      </trkpt>
      <trkpt lat="42.38552" lon="-7.7386427">
        <time>2021-11-27T10:07:14Z</time>
      </trkpt>
      <trkpt lat="42.38551" lon="-7.7386456">
        <time>2021-11-27T10:07:15Z</time>
      </trkpt>
      <trkpt lat="42.385498" lon="-7.738649">
        <time>2021-11-27T10:07:16Z</time>
      </trkpt>
      <trkpt lat="42.385487" lon="-7.738649">
        <time>2021-11-27T10:07:17Z</time>
      </trkpt>
      <trkpt lat="42.38547" lon="-7.738651">
        <time>2021-11-27T10:07:18Z</time>
      </trkpt>
      <trkpt lat="42.38546" lon="-7.7386537">
        <time>2021-11-27T10:07:19Z</time>
      </trkpt>
      <trkpt lat="42.385445" lon="-7.7386565">
        <time>2021-11-27T10:07:20Z</time>
      </trkpt>
      <trkpt lat="42.38542" lon="-7.738662">
        <time>2021-11-27T10:07:21Z</time>
      </trkpt>
      <trkpt lat="42.385406" lon="-7.7386675">
        <time>2021-11-27T10:07:22Z</time>
      </trkpt>
      <trkpt lat="42.38539" lon="-7.73867">
        <time>2021-11-27T10:07:23Z</time>
      </trkpt>
      <trkpt lat="42.38538" lon="-7.7386713">
        <time>2021-11-27T10:07:24Z</time>
      </trkpt>
      <trkpt lat="42.38537" lon="-7.73867">
        <time>2021-11-27T10:07:25Z</time>
      </trkpt>
      <trkpt lat="42.385353" lon="-7.738668">
        <time>2021-11-27T10:07:26Z</time>
      </trkpt>
      <trkpt lat="42.38534" lon="-7.738669">
        <time>2021-11-27T10:07:27Z</time>
      </trkpt>
      <trkpt lat="42.38533" lon="-7.738672">
        <time>2021-11-27T10:07:28Z</time>
      </trkpt>
      <trkpt lat="42.385315" lon="-7.738677">
        <time>2021-11-27T10:07:29Z</time>
      </trkpt>
      <trkpt lat="42.3853" lon="-7.738684">
        <time>2021-11-27T10:07:30Z</time>
      </trkpt>
      <trkpt lat="42.38529" lon="-7.738688">
        <time>2021-11-27T10:07:31Z</time>
      </trkpt>
      <trkpt lat="42.385273" lon="-7.7386913">
        <time>2021-11-27T10:07:32Z</time>
      </trkpt>
      <trkpt lat="42.38526" lon="-7.7386956">
        <time>2021-11-27T10:07:33Z</time>
      </trkpt>
      <trkpt lat="42.385246" lon="-7.738701">
        <time>2021-11-27T10:07:34Z</time>
      </trkpt>
      <trkpt lat="42.385235" lon="-7.738706">
        <time>2021-11-27T10:07:35Z</time>
      </trkpt>
      <trkpt lat="42.38522" lon="-7.7387123">
        <time>2021-11-27T10:07:36Z</time>
      </trkpt>
      <trkpt lat="42.38521" lon="-7.7387176">
        <time>2021-11-27T10:07:37Z</time>
      </trkpt>
      <trkpt lat="42.385197" lon="-7.7387223">
        <time>2021-11-27T10:07:38Z</time>
      </trkpt>
      <trkpt lat="42.38518" lon="-7.7387266">
        <time>2021-11-27T10:07:39Z</time>
      </trkpt>
      <trkpt lat="42.38517" lon="-7.7387295">
        <time>2021-11-27T10:07:40Z</time>
      </trkpt>
      <trkpt lat="42.385155" lon="-7.7387333">
        <time>2021-11-27T10:07:41Z</time>
      </trkpt>
      <trkpt lat="42.38514" lon="-7.738737">
        <time>2021-11-27T10:07:42Z</time>
      </trkpt>
      <trkpt lat="42.385124" lon="-7.73874">
        <time>2021-11-27T10:07:43Z</time>
      </trkpt>
      <trkpt lat="42.38511" lon="-7.738744">
        <time>2021-11-27T10:07:45Z</time>
      </trkpt>
      <trkpt lat="42.385094" lon="-7.738748">
        <time>2021-11-27T10:07:45Z</time>
      </trkpt>
      <trkpt lat="42.38508" lon="-7.738752">
        <time>2021-11-27T10:07:46Z</time>
      </trkpt>
      <trkpt lat="42.385067" lon="-7.738753">
        <time>2021-11-27T10:07:47Z</time>
      </trkpt>
      <trkpt lat="42.385056" lon="-7.738749">
        <time>2021-11-27T10:07:48Z</time>
      </trkpt>
      <trkpt lat="42.385048" lon="-7.738744">
        <time>2021-11-27T10:07:49Z</time>
      </trkpt>
      <trkpt lat="42.385036" lon="-7.7387366">
        <time>2021-11-27T10:07:50Z</time>
      </trkpt>
      <trkpt lat="42.38503" lon="-7.7387285">
        <time>2021-11-27T10:07:51Z</time>
      </trkpt>
      <trkpt lat="42.385017" lon="-7.73872">
        <time>2021-11-27T10:07:52Z</time>
      </trkpt>
      <trkpt lat="42.385002" lon="-7.738712">
        <time>2021-11-27T10:07:53Z</time>
      </trkpt>
      <trkpt lat="42.384987" lon="-7.7387047">
        <time>2021-11-27T10:07:54Z</time>
      </trkpt>
      <trkpt lat="42.38498" lon="-7.738697">
        <time>2021-11-27T10:07:55Z</time>
      </trkpt>
      <trkpt lat="42.384964" lon="-7.7386904">
        <time>2021-11-27T10:07:56Z</time>
      </trkpt>
      <trkpt lat="42.384956" lon="-7.7386856">
        <time>2021-11-27T10:07:57Z</time>
      </trkpt>
      <trkpt lat="42.38494" lon="-7.7386823">
        <time>2021-11-27T10:07:58Z</time>
      </trkpt>
      <trkpt lat="42.384933" lon="-7.738682">
        <time>2021-11-27T10:07:59Z</time>
      </trkpt>
      <trkpt lat="42.38492" lon="-7.7386804">
        <time>2021-11-27T10:08:00Z</time>
      </trkpt>
      <trkpt lat="42.384907" lon="-7.73868">
        <time>2021-11-27T10:08:01Z</time>
      </trkpt>
      <trkpt lat="42.38489" lon="-7.7386804">
        <time>2021-11-27T10:08:02Z</time>
      </trkpt>
      <trkpt lat="42.384876" lon="-7.738682">
        <time>2021-11-27T10:08:03Z</time>
      </trkpt>
      <trkpt lat="42.38486" lon="-7.7386847">
        <time>2021-11-27T10:08:04Z</time>
      </trkpt>
      <trkpt lat="42.384853" lon="-7.7386904">
        <time>2021-11-27T10:08:05Z</time>
      </trkpt>
      <trkpt lat="42.384842" lon="-7.738697">
        <time>2021-11-27T10:08:06Z</time>
      </trkpt>
      <trkpt lat="42.38483" lon="-7.7387033">
        <time>2021-11-27T10:08:07Z</time>
      </trkpt>
      <trkpt lat="42.384823" lon="-7.738711">
        <time>2021-11-27T10:08:08Z</time>
      </trkpt>
      <trkpt lat="42.384808" lon="-7.7387195">
        <time>2021-11-27T10:08:09Z</time>
      </trkpt>
      <trkpt lat="42.384796" lon="-7.7387285">
        <time>2021-11-27T10:08:10Z</time>
      </trkpt>
      <trkpt lat="42.38478" lon="-7.738736">
        <time>2021-11-27T10:08:11Z</time>
      </trkpt>
      <trkpt lat="42.38477" lon="-7.73874">
        <time>2021-11-27T10:08:12Z</time>
      </trkpt>
      <trkpt lat="42.384758" lon="-7.7387424">
        <time>2021-11-27T10:08:13Z</time>
      </trkpt>
      <trkpt lat="42.384747" lon="-7.7387443">
        <time>2021-11-27T10:08:14Z</time>
      </trkpt>
      <trkpt lat="42.38474" lon="-7.738742">
        <time>2021-11-27T10:08:15Z</time>
      </trkpt>
      <trkpt lat="42.384724" lon="-7.73874">
        <time>2021-11-27T10:08:16Z</time>
      </trkpt>
      <trkpt lat="42.38471" lon="-7.738739">
        <time>2021-11-27T10:08:17Z</time>
      </trkpt>
      <trkpt lat="42.384697" lon="-7.738738">
        <time>2021-11-27T10:08:18Z</time>
      </trkpt>
      <trkpt lat="42.38468" lon="-7.738738">
        <time>2021-11-27T10:08:19Z</time>
      </trkpt>
      <trkpt lat="42.38467" lon="-7.7387385">
        <time>2021-11-27T10:08:20Z</time>
      </trkpt>
      <trkpt lat="42.38466" lon="-7.73874">
        <time>2021-11-27T10:08:21Z</time>
      </trkpt>
      <trkpt lat="42.384644" lon="-7.738743">
        <time>2021-11-27T10:08:22Z</time>
      </trkpt>
      <trkpt lat="42.384636" lon="-7.7387457">
        <time>2021-11-27T10:08:23Z</time>
      </trkpt>
      <trkpt lat="42.384624" lon="-7.7387476">
        <time>2021-11-27T10:08:24Z</time>
      </trkpt>
      <trkpt lat="42.384617" lon="-7.7387495">
        <time>2021-11-27T10:08:25Z</time>
      </trkpt>
      <trkpt lat="42.384613" lon="-7.738751">
        <time>2021-11-27T10:08:26Z</time>
      </trkpt>
      <trkpt lat="42.384605" lon="-7.738753">
        <time>2021-11-27T10:08:27Z</time>
      </trkpt>
      <trkpt lat="42.38459" lon="-7.738754">
        <time>2021-11-27T10:08:28Z</time>
      </trkpt>
      <trkpt lat="42.38458" lon="-7.7387547">
        <time>2021-11-27T10:08:29Z</time>
      </trkpt>
      <trkpt lat="42.384563" lon="-7.7387557">
        <time>2021-11-27T10:08:30Z</time>
      </trkpt>
      <trkpt lat="42.38455" lon="-7.7387567">
        <time>2021-11-27T10:08:31Z</time>
      </trkpt>
      <trkpt lat="42.384533" lon="-7.738757">
        <time>2021-11-27T10:08:32Z</time>
      </trkpt>
      <trkpt lat="42.384514" lon="-7.7387586">
        <time>2021-11-27T10:08:33Z</time>
      </trkpt>
      <trkpt lat="42.384495" lon="-7.738761">
        <time>2021-11-27T10:08:34Z</time>
      </trkpt>
      <trkpt lat="42.38448" lon="-7.738765">
        <time>2021-11-27T10:08:35Z</time>
      </trkpt>
      <trkpt lat="42.384464" lon="-7.738772">
        <time>2021-11-27T10:08:36Z</time>
      </trkpt>
      <trkpt lat="42.38445" lon="-7.73878">
        <time>2021-11-27T10:08:37Z</time>
      </trkpt>
      <trkpt lat="42.384434" lon="-7.7387877">
        <time>2021-11-27T10:08:38Z</time>
      </trkpt>
      <trkpt lat="42.38442" lon="-7.738795">
        <time>2021-11-27T10:08:39Z</time>
      </trkpt>
      <trkpt lat="42.384403" lon="-7.738804">
        <time>2021-11-27T10:08:40Z</time>
      </trkpt>
      <trkpt lat="42.384396" lon="-7.738814">
        <time>2021-11-27T10:08:41Z</time>
      </trkpt>
      <trkpt lat="42.38438" lon="-7.738823">
        <time>2021-11-27T10:08:42Z</time>
      </trkpt>
      <trkpt lat="42.384373" lon="-7.73883">
        <time>2021-11-27T10:08:43Z</time>
      </trkpt>
      <trkpt lat="42.38436" lon="-7.7388372">
        <time>2021-11-27T10:08:44Z</time>
      </trkpt>
      <trkpt lat="42.384354" lon="-7.7388453">
        <time>2021-11-27T10:08:45Z</time>
      </trkpt>
      <trkpt lat="42.384346" lon="-7.7388525">
        <time>2021-11-27T10:08:46Z</time>
      </trkpt>
      <trkpt lat="42.384342" lon="-7.738856">
        <time>2021-11-27T10:08:47Z</time>
      </trkpt>
      <trkpt lat="42.384335" lon="-7.738858">
        <time>2021-11-27T10:08:48Z</time>
      </trkpt>
      <trkpt lat="42.384327" lon="-7.7388606">
        <time>2021-11-27T10:08:49Z</time>
      </trkpt>
      <trkpt lat="42.38432" lon="-7.7388673">
        <time>2021-11-27T10:08:50Z</time>
      </trkpt>
      <trkpt lat="42.384315" lon="-7.7388754">
        <time>2021-11-27T10:08:51Z</time>
      </trkpt>
      <trkpt lat="42.384308" lon="-7.7388844">
        <time>2021-11-27T10:08:52Z</time>
      </trkpt>
      <trkpt lat="42.384308" lon="-7.7388988">
        <time>2021-11-27T10:08:53Z</time>
      </trkpt>
      <trkpt lat="42.3843" lon="-7.7389064">
        <time>2021-11-27T10:08:54Z</time>
      </trkpt>
      <trkpt lat="42.38429" lon="-7.7389073">
        <time>2021-11-27T10:08:55Z</time>
      </trkpt>
      <trkpt lat="42.384277" lon="-7.7389026">
        <time>2021-11-27T10:08:56Z</time>
      </trkpt>
      <trkpt lat="42.384266" lon="-7.738903">
        <time>2021-11-27T10:08:57Z</time>
      </trkpt>
      <trkpt lat="42.384254" lon="-7.7389026">
        <time>2021-11-27T10:08:58Z</time>
      </trkpt>
      <trkpt lat="42.384247" lon="-7.7389026">
        <time>2021-11-27T10:08:59Z</time>
      </trkpt>
      <trkpt lat="42.38424" lon="-7.738909">
        <time>2021-11-27T10:09:00Z</time>
      </trkpt>
      <trkpt lat="42.384228" lon="-7.7389183">
        <time>2021-11-27T10:09:01Z</time>
      </trkpt>
      <trkpt lat="42.384212" lon="-7.7389297">
        <time>2021-11-27T10:09:02Z</time>
      </trkpt>
      <trkpt lat="42.384197" lon="-7.738942">
        <time>2021-11-27T10:09:03Z</time>
      </trkpt>
      <trkpt lat="42.384186" lon="-7.7389555">
        <time>2021-11-27T10:09:04Z</time>
      </trkpt>
      <trkpt lat="42.38417" lon="-7.738968">
        <time>2021-11-27T10:09:05Z</time>
      </trkpt>
      <trkpt lat="42.38416" lon="-7.73898">
        <time>2021-11-27T10:09:06Z</time>
      </trkpt>
      <trkpt lat="42.384148" lon="-7.7389894">
        <time>2021-11-27T10:09:07Z</time>
      </trkpt>
      <trkpt lat="42.384136" lon="-7.7390003">
        <time>2021-11-27T10:09:08Z</time>
      </trkpt>
      <trkpt lat="42.384125" lon="-7.7390127">
        <time>2021-11-27T10:09:09Z</time>
      </trkpt>
      <trkpt lat="42.384113" lon="-7.739024">
        <time>2021-11-27T10:09:10Z</time>
      </trkpt>
      <trkpt lat="42.3841" lon="-7.739038">
        <time>2021-11-27T10:09:11Z</time>
      </trkpt>
      <trkpt lat="42.38409" lon="-7.7390485">
        <time>2021-11-27T10:09:12Z</time>
      </trkpt>
      <trkpt lat="42.384075" lon="-7.739055">
        <time>2021-11-27T10:09:13Z</time>
      </trkpt>
      <trkpt lat="42.38406" lon="-7.7390604">
        <time>2021-11-27T10:09:14Z</time>
      </trkpt>
      <trkpt lat="42.384045" lon="-7.7390637">
        <time>2021-11-27T10:09:15Z</time>
      </trkpt>
      <trkpt lat="42.38402" lon="-7.739067">
        <time>2021-11-27T10:09:16Z</time>
      </trkpt>
      <trkpt lat="42.384" lon="-7.73907">
        <time>2021-11-27T10:09:17Z</time>
      </trkpt>
      <trkpt lat="42.38398" lon="-7.7390747">
        <time>2021-11-27T10:09:18Z</time>
      </trkpt>
      <trkpt lat="42.38396" lon="-7.739081">
        <time>2021-11-27T10:09:19Z</time>
      </trkpt>
      <trkpt lat="42.38394" lon="-7.739086">
        <time>2021-11-27T10:09:19Z</time>
      </trkpt>
      <trkpt lat="42.383926" lon="-7.7390914">
        <time>2021-11-27T10:09:20Z</time>
      </trkpt>
      <trkpt lat="42.383907" lon="-7.739095">
        <time>2021-11-27T10:09:21Z</time>
      </trkpt>
      <trkpt lat="42.383896" lon="-7.7390976">
        <time>2021-11-27T10:09:22Z</time>
      </trkpt>
      <trkpt lat="42.38388" lon="-7.7390995">
        <time>2021-11-27T10:09:23Z</time>
      </trkpt>
      <trkpt lat="42.383865" lon="-7.739103">
        <time>2021-11-27T10:09:24Z</time>
      </trkpt>
      <trkpt lat="42.38385" lon="-7.739104">
        <time>2021-11-27T10:09:25Z</time>
      </trkpt>
      <trkpt lat="42.38384" lon="-7.7391047">
        <time>2021-11-27T10:09:26Z</time>
      </trkpt>
      <trkpt lat="42.383827" lon="-7.739104">
        <time>2021-11-27T10:09:27Z</time>
      </trkpt>
      <trkpt lat="42.383812" lon="-7.739104">
        <time>2021-11-27T10:09:28Z</time>
      </trkpt>
      <trkpt lat="42.383804" lon="-7.7391057">
        <time>2021-11-27T10:09:29Z</time>
      </trkpt>
      <trkpt lat="42.383785" lon="-7.7391086">
        <time>2021-11-27T10:09:30Z</time>
      </trkpt>
      <trkpt lat="42.383766" lon="-7.7391076">
        <time>2021-11-27T10:09:31Z</time>
      </trkpt>
      <trkpt lat="42.383747" lon="-7.739107">
        <time>2021-11-27T10:09:32Z</time>
      </trkpt>
      <trkpt lat="42.38373" lon="-7.7391057">
        <time>2021-11-27T10:09:33Z</time>
      </trkpt>
      <trkpt lat="42.383717" lon="-7.7391057">
        <time>2021-11-27T10:09:34Z</time>
      </trkpt>
      <trkpt lat="42.383698" lon="-7.7391047">
        <time>2021-11-27T10:09:35Z</time>
      </trkpt>
      <trkpt lat="42.383686" lon="-7.739104">
        <time>2021-11-27T10:09:36Z</time>
      </trkpt>
      <trkpt lat="42.38367" lon="-7.7391067">
        <time>2021-11-27T10:09:37Z</time>
      </trkpt>
      <trkpt lat="42.383656" lon="-7.7391105">
        <time>2021-11-27T10:09:38Z</time>
      </trkpt>
      <trkpt lat="42.383644" lon="-7.739114">
        <time>2021-11-27T10:09:39Z</time>
      </trkpt>
      <trkpt lat="42.383633" lon="-7.739114">
        <time>2021-11-27T10:09:40Z</time>
      </trkpt>
      <trkpt lat="42.383617" lon="-7.73911">
        <time>2021-11-27T10:09:41Z</time>
      </trkpt>
      <trkpt lat="42.383602" lon="-7.7391067">
        <time>2021-11-27T10:09:42Z</time>
      </trkpt>
      <trkpt lat="42.383587" lon="-7.7391047">
        <time>2021-11-27T10:09:43Z</time>
      </trkpt>
      <trkpt lat="42.383568" lon="-7.7391076">
        <time>2021-11-27T10:09:44Z</time>
      </trkpt>
      <trkpt lat="42.38355" lon="-7.739112">
        <time>2021-11-27T10:09:45Z</time>
      </trkpt>
      <trkpt lat="42.38353" lon="-7.7391157">
        <time>2021-11-27T10:09:46Z</time>
      </trkpt>
      <trkpt lat="42.383514" lon="-7.7391214">
        <time>2021-11-27T10:09:47Z</time>
      </trkpt>
      <trkpt lat="42.3835" lon="-7.739129">
        <time>2021-11-27T10:09:48Z</time>
      </trkpt>
      <trkpt lat="42.383484" lon="-7.739138">
        <time>2021-11-27T10:09:49Z</time>
      </trkpt>
      <trkpt lat="42.383472" lon="-7.739145">
        <time>2021-11-27T10:09:50Z</time>
      </trkpt>
      <trkpt lat="42.383465" lon="-7.7391524">
        <time>2021-11-27T10:09:51Z</time>
      </trkpt>
      <trkpt lat="42.383457" lon="-7.7391596">
        <time>2021-11-27T10:09:52Z</time>
      </trkpt>
      <trkpt lat="42.38345" lon="-7.739167">
        <time>2021-11-27T10:09:53Z</time>
      </trkpt>
      <trkpt lat="42.383442" lon="-7.739176">
        <time>2021-11-27T10:09:54Z</time>
      </trkpt>
      <trkpt lat="42.38343" lon="-7.7391806">
        <time>2021-11-27T10:09:55Z</time>
      </trkpt>
      <trkpt lat="42.383423" lon="-7.7391853">
        <time>2021-11-27T10:09:56Z</time>
      </trkpt>
      <trkpt lat="42.38341" lon="-7.7391896">
        <time>2021-11-27T10:09:57Z</time>
      </trkpt>
      <trkpt lat="42.383404" lon="-7.7391934">
        <time>2021-11-27T10:09:58Z</time>
      </trkpt>
      <trkpt lat="42.383392" lon="-7.7392006">
        <time>2021-11-27T10:09:59Z</time>
      </trkpt>
      <trkpt lat="42.383385" lon="-7.7392135">
        <time>2021-11-27T10:10:00Z</time>
      </trkpt>
      <trkpt lat="42.383377" lon="-7.739229">
        <time>2021-11-27T10:10:01Z</time>
      </trkpt>
      <trkpt lat="42.38337" lon="-7.739246">
        <time>2021-11-27T10:10:02Z</time>
      </trkpt>
      <trkpt lat="42.38336" lon="-7.7392607">
        <time>2021-11-27T10:10:03Z</time>
      </trkpt>
      <trkpt lat="42.383354" lon="-7.739274">
        <time>2021-11-27T10:10:04Z</time>
      </trkpt>
      <trkpt lat="42.383343" lon="-7.739288">
        <time>2021-11-27T10:10:05Z</time>
      </trkpt>
      <trkpt lat="42.38333" lon="-7.7393003">
        <time>2021-11-27T10:10:06Z</time>
      </trkpt>
      <trkpt lat="42.383324" lon="-7.7393126">
        <time>2021-11-27T10:10:07Z</time>
      </trkpt>
      <trkpt lat="42.383316" lon="-7.7393246">
        <time>2021-11-27T10:10:08Z</time>
      </trkpt>
      <trkpt lat="42.383312" lon="-7.7393374">
        <time>2021-11-27T10:10:09Z</time>
      </trkpt>
      <trkpt lat="42.38331" lon="-7.7393537">
        <time>2021-11-27T10:10:10Z</time>
      </trkpt>
      <trkpt lat="42.383305" lon="-7.739371">
        <time>2021-11-27T10:10:11Z</time>
      </trkpt>
      <trkpt lat="42.383297" lon="-7.73939">
        <time>2021-11-27T10:10:12Z</time>
      </trkpt>
      <trkpt lat="42.383286" lon="-7.7394114">
        <time>2021-11-27T10:10:13Z</time>
      </trkpt>
      <trkpt lat="42.38328" lon="-7.739428">
        <time>2021-11-27T10:10:14Z</time>
      </trkpt>
      <trkpt lat="42.383278" lon="-7.7394414">
        <time>2021-11-27T10:10:15Z</time>
      </trkpt>
      <trkpt lat="42.383274" lon="-7.739455">
        <time>2021-11-27T10:10:16Z</time>
      </trkpt>
      <trkpt lat="42.383266" lon="-7.7394676">
        <time>2021-11-27T10:10:17Z</time>
      </trkpt>
      <trkpt lat="42.38326" lon="-7.7394786">
        <time>2021-11-27T10:10:18Z</time>
      </trkpt>
      <trkpt lat="42.383244" lon="-7.739488">
        <time>2021-11-27T10:10:19Z</time>
      </trkpt>
      <trkpt lat="42.383236" lon="-7.7394958">
        <time>2021-11-27T10:10:20Z</time>
      </trkpt>
      <trkpt lat="42.38323" lon="-7.739503">
        <time>2021-11-27T10:10:21Z</time>
      </trkpt>
      <trkpt lat="42.383213" lon="-7.739507">
        <time>2021-11-27T10:10:22Z</time>
      </trkpt>
      <trkpt lat="42.383198" lon="-7.7395105">
        <time>2021-11-27T10:10:23Z</time>
      </trkpt>
      <trkpt lat="42.38318" lon="-7.739511">
        <time>2021-11-27T10:10:24Z</time>
      </trkpt>
      <trkpt lat="42.383163" lon="-7.739515">
        <time>2021-11-27T10:10:25Z</time>
      </trkpt>
      <trkpt lat="42.383144" lon="-7.7395153">
        <time>2021-11-27T10:10:26Z</time>
      </trkpt>
      <trkpt lat="42.38313" lon="-7.739515">
        <time>2021-11-27T10:10:27Z</time>
      </trkpt>
      <trkpt lat="42.38311" lon="-7.7395124">
        <time>2021-11-27T10:10:28Z</time>
      </trkpt>
      <trkpt lat="42.383095" lon="-7.739509">
        <time>2021-11-27T10:10:29Z</time>
      </trkpt>
      <trkpt lat="42.38308" lon="-7.739504">
        <time>2021-11-27T10:10:30Z</time>
      </trkpt>
      <trkpt lat="42.383068" lon="-7.739501">
        <time>2021-11-27T10:10:31Z</time>
      </trkpt>
      <trkpt lat="42.383057" lon="-7.7394943">
        <time>2021-11-27T10:10:32Z</time>
      </trkpt>
      <trkpt lat="42.38305" lon="-7.739488">
        <time>2021-11-27T10:10:33Z</time>
      </trkpt>
      <trkpt lat="42.38304" lon="-7.739483">
        <time>2021-11-27T10:10:34Z</time>
      </trkpt>
      <trkpt lat="42.383022" lon="-7.7394695">
        <time>2021-11-27T10:10:36Z</time>
      </trkpt>
      <trkpt lat="42.38302" lon="-7.7394667">
        <time>2021-11-27T10:10:37Z</time>
      </trkpt>
      <trkpt lat="42.383015" lon="-7.739461">
        <time>2021-11-27T10:10:38Z</time>
      </trkpt>
      <trkpt lat="42.383007" lon="-7.7394533">
        <time>2021-11-27T10:10:39Z</time>
      </trkpt>
      <trkpt lat="42.383" lon="-7.739449">
        <time>2021-11-27T10:10:40Z</time>
      </trkpt>
      <trkpt lat="42.382988" lon="-7.7394443">
        <time>2021-11-27T10:10:41Z</time>
      </trkpt>
      <trkpt lat="42.38298" lon="-7.7394376">
        <time>2021-11-27T10:10:42Z</time>
      </trkpt>
      <trkpt lat="42.382965" lon="-7.7394304">
        <time>2021-11-27T10:10:44Z</time>
      </trkpt>
      <trkpt lat="42.382946" lon="-7.7394266">
        <time>2021-11-27T10:10:44Z</time>
      </trkpt>
      <trkpt lat="42.38293" lon="-7.739424">
        <time>2021-11-27T10:10:45Z</time>
      </trkpt>
      <trkpt lat="42.382923" lon="-7.739424">
        <time>2021-11-27T10:10:46Z</time>
      </trkpt>
      <trkpt lat="42.382908" lon="-7.7394247">
        <time>2021-11-27T10:10:47Z</time>
      </trkpt>
      <trkpt lat="42.3829" lon="-7.7394247">
        <time>2021-11-27T10:10:48Z</time>
      </trkpt>
      <trkpt lat="42.38289" lon="-7.7394247">
        <time>2021-11-27T10:10:49Z</time>
      </trkpt>
      <trkpt lat="42.38288" lon="-7.7394214">
        <time>2021-11-27T10:10:50Z</time>
      </trkpt>
      <trkpt lat="42.38287" lon="-7.7394156">
        <time>2021-11-27T10:10:51Z</time>
      </trkpt>
      <trkpt lat="42.38286" lon="-7.7394075">
        <time>2021-11-27T10:10:52Z</time>
      </trkpt>
      <trkpt lat="42.382847" lon="-7.7394004">
        <time>2021-11-27T10:10:53Z</time>
      </trkpt>
      <trkpt lat="42.382835" lon="-7.7393928">
        <time>2021-11-27T10:10:54Z</time>
      </trkpt>
      <trkpt lat="42.382824" lon="-7.739384">
        <time>2021-11-27T10:10:55Z</time>
      </trkpt>
      <trkpt lat="42.382812" lon="-7.7393775">
        <time>2021-11-27T10:10:56Z</time>
      </trkpt>
      <trkpt lat="42.3828" lon="-7.7393727">
        <time>2021-11-27T10:10:57Z</time>
      </trkpt>
      <trkpt lat="42.38279" lon="-7.7393727">
        <time>2021-11-27T10:10:58Z</time>
      </trkpt>
      <trkpt lat="42.38278" lon="-7.739373">
        <time>2021-11-27T10:10:59Z</time>
      </trkpt>
      <trkpt lat="42.38277" lon="-7.7393756">
        <time>2021-11-27T10:11:00Z</time>
      </trkpt>
      <trkpt lat="42.38276" lon="-7.7393775">
        <time>2021-11-27T10:11:01Z</time>
      </trkpt>
      <trkpt lat="42.382748" lon="-7.7393804">
        <time>2021-11-27T10:11:02Z</time>
      </trkpt>
      <trkpt lat="42.382736" lon="-7.7393837">
        <time>2021-11-27T10:11:03Z</time>
      </trkpt>
      <trkpt lat="42.38273" lon="-7.7393823">
        <time>2021-11-27T10:11:04Z</time>
      </trkpt>
      <trkpt lat="42.38272" lon="-7.7393804">
        <time>2021-11-27T10:11:05Z</time>
      </trkpt>
      <trkpt lat="42.382713" lon="-7.739378">
        <time>2021-11-27T10:11:06Z</time>
      </trkpt>
      <trkpt lat="42.382706" lon="-7.739376">
        <time>2021-11-27T10:11:07Z</time>
      </trkpt>
      <trkpt lat="42.382694" lon="-7.739373">
        <time>2021-11-27T10:11:08Z</time>
      </trkpt>
      <trkpt lat="42.382683" lon="-7.739371">
        <time>2021-11-27T10:11:09Z</time>
      </trkpt>
      <trkpt lat="42.382675" lon="-7.739367">
        <time>2021-11-27T10:11:10Z</time>
      </trkpt>
      <trkpt lat="42.382664" lon="-7.7393613">
        <time>2021-11-27T10:11:11Z</time>
      </trkpt>
      <trkpt lat="42.382652" lon="-7.739354">
        <time>2021-11-27T10:11:12Z</time>
      </trkpt>
      <trkpt lat="42.38264" lon="-7.739346">
        <time>2021-11-27T10:11:13Z</time>
      </trkpt>
      <trkpt lat="42.38263" lon="-7.739339">
        <time>2021-11-27T10:11:14Z</time>
      </trkpt>
      <trkpt lat="42.38262" lon="-7.739333">
        <time>2021-11-27T10:11:15Z</time>
      </trkpt>
      <trkpt lat="42.382607" lon="-7.739327">
        <time>2021-11-27T10:11:16Z</time>
      </trkpt>
      <trkpt lat="42.38259" lon="-7.73932">
        <time>2021-11-27T10:11:17Z</time>
      </trkpt>
      <trkpt lat="42.38258" lon="-7.7393103">
        <time>2021-11-27T10:11:18Z</time>
      </trkpt>
      <trkpt lat="42.38256" lon="-7.739301">
        <time>2021-11-27T10:11:19Z</time>
      </trkpt>
      <trkpt lat="42.38255" lon="-7.739292">
        <time>2021-11-27T10:11:20Z</time>
      </trkpt>
      <trkpt lat="42.382534" lon="-7.7392826">
        <time>2021-11-27T10:11:21Z</time>
      </trkpt>
      <trkpt lat="42.382526" lon="-7.739271">
        <time>2021-11-27T10:11:22Z</time>
      </trkpt>
      <trkpt lat="42.382523" lon="-7.73926">
        <time>2021-11-27T10:11:23Z</time>
      </trkpt>
      <trkpt lat="42.38252" lon="-7.7392497">
        <time>2021-11-27T10:11:24Z</time>
      </trkpt>
      <trkpt lat="42.38252" lon="-7.7392397">
        <time>2021-11-27T10:11:25Z</time>
      </trkpt>
      <trkpt lat="42.382523" lon="-7.7392263">
        <time>2021-11-27T10:11:26Z</time>
      </trkpt>
      <trkpt lat="42.382526" lon="-7.739208">
        <time>2021-11-27T10:11:27Z</time>
      </trkpt>
      <trkpt lat="42.382534" lon="-7.7391872">
        <time>2021-11-27T10:11:28Z</time>
      </trkpt>
      <trkpt lat="42.382534" lon="-7.7391663">
        <time>2021-11-27T10:11:29Z</time>
      </trkpt>
      <trkpt lat="42.38254" lon="-7.739146">
        <time>2021-11-27T10:11:30Z</time>
      </trkpt>
      <trkpt lat="42.382545" lon="-7.739128">
        <time>2021-11-27T10:11:31Z</time>
      </trkpt>
      <trkpt lat="42.38255" lon="-7.739111">
        <time>2021-11-27T10:11:32Z</time>
      </trkpt>
      <trkpt lat="42.382553" lon="-7.7390957">
        <time>2021-11-27T10:11:33Z</time>
      </trkpt>
      <trkpt lat="42.382557" lon="-7.739077">
        <time>2021-11-27T10:11:34Z</time>
      </trkpt>
      <trkpt lat="42.38256" lon="-7.7390614">
        <time>2021-11-27T10:11:35Z</time>
      </trkpt>
      <trkpt lat="42.38256" lon="-7.739047">
        <time>2021-11-27T10:11:36Z</time>
      </trkpt>
      <trkpt lat="42.38256" lon="-7.739037">
        <time>2021-11-27T10:11:37Z</time>
      </trkpt>
      <trkpt lat="42.38256" lon="-7.7390285">
        <time>2021-11-27T10:11:38Z</time>
      </trkpt>
      <trkpt lat="42.38256" lon="-7.7390194">
        <time>2021-11-27T10:11:39Z</time>
      </trkpt>
      <trkpt lat="42.38256" lon="-7.739013">
        <time>2021-11-27T10:11:40Z</time>
      </trkpt>
      <trkpt lat="42.382557" lon="-7.73901">
        <time>2021-11-27T10:11:41Z</time>
      </trkpt>
      <trkpt lat="42.382557" lon="-7.7390094">
        <time>2021-11-27T10:11:42Z</time>
      </trkpt>
      <trkpt lat="42.382553" lon="-7.7390075">
        <time>2021-11-27T10:11:43Z</time>
      </trkpt>
      <trkpt lat="42.38255" lon="-7.7390056">
        <time>2021-11-27T10:11:44Z</time>
      </trkpt>
      <trkpt lat="42.38252" lon="-7.7389946">
        <time>2021-11-27T10:11:46Z</time>
      </trkpt>
      <trkpt lat="42.38251" lon="-7.738996">
        <time>2021-11-27T10:11:47Z</time>
      </trkpt>
      <trkpt lat="42.382504" lon="-7.7390003">
        <time>2021-11-27T10:11:48Z</time>
      </trkpt>
      <trkpt lat="42.38249" lon="-7.7390037">
        <time>2021-11-27T10:11:49Z</time>
      </trkpt>
      <trkpt lat="42.382473" lon="-7.739002">
        <time>2021-11-27T10:11:50Z</time>
      </trkpt>
      <trkpt lat="42.382465" lon="-7.739">
        <time>2021-11-27T10:11:51Z</time>
      </trkpt>
      <trkpt lat="42.382454" lon="-7.738995">
        <time>2021-11-27T10:11:52Z</time>
      </trkpt>
      <trkpt lat="42.382442" lon="-7.7389894">
        <time>2021-11-27T10:11:53Z</time>
      </trkpt>
      <trkpt lat="42.38243" lon="-7.7389836">
        <time>2021-11-27T10:11:54Z</time>
      </trkpt>
      <trkpt lat="42.382416" lon="-7.7389746">
        <time>2021-11-27T10:11:55Z</time>
      </trkpt>
      <trkpt lat="42.382404" lon="-7.738966">
        <time>2021-11-27T10:11:56Z</time>
      </trkpt>
      <trkpt lat="42.38239" lon="-7.738958">
        <time>2021-11-27T10:11:57Z</time>
      </trkpt>
      <trkpt lat="42.38237" lon="-7.738951">
        <time>2021-11-27T10:11:58Z</time>
      </trkpt>
      <trkpt lat="42.382362" lon="-7.7389455">
        <time>2021-11-27T10:11:59Z</time>
      </trkpt>
      <trkpt lat="42.382347" lon="-7.7389407">
        <time>2021-11-27T10:12:00Z</time>
      </trkpt>
      <trkpt lat="42.38234" lon="-7.7389317">
        <time>2021-11-27T10:12:01Z</time>
      </trkpt>
      <trkpt lat="42.382324" lon="-7.7389183">
        <time>2021-11-27T10:12:02Z</time>
      </trkpt>
      <trkpt lat="42.382313" lon="-7.738903">
        <time>2021-11-27T10:12:03Z</time>
      </trkpt>
      <trkpt lat="42.3823" lon="-7.73889">
        <time>2021-11-27T10:12:04Z</time>
      </trkpt>
      <trkpt lat="42.38229" lon="-7.738882">
        <time>2021-11-27T10:12:05Z</time>
      </trkpt>
      <trkpt lat="42.38228" lon="-7.7388716">
        <time>2021-11-27T10:12:06Z</time>
      </trkpt>
      <trkpt lat="42.382263" lon="-7.7388577">
        <time>2021-11-27T10:12:07Z</time>
      </trkpt>
      <trkpt lat="42.382248" lon="-7.738843">
        <time>2021-11-27T10:12:08Z</time>
      </trkpt>
      <trkpt lat="42.38223" lon="-7.73883">
        <time>2021-11-27T10:12:09Z</time>
      </trkpt>
      <trkpt lat="42.38221" lon="-7.738821">
        <time>2021-11-27T10:12:10Z</time>
      </trkpt>
      <trkpt lat="42.382202" lon="-7.7388153">
        <time>2021-11-27T10:12:11Z</time>
      </trkpt>
      <trkpt lat="42.382187" lon="-7.738811">
        <time>2021-11-27T10:12:12Z</time>
      </trkpt>
      <trkpt lat="42.382175" lon="-7.7388053">
        <time>2021-11-27T10:12:13Z</time>
      </trkpt>
      <trkpt lat="42.382164" lon="-7.7387986">
        <time>2021-11-27T10:12:14Z</time>
      </trkpt>
      <trkpt lat="42.382156" lon="-7.7387905">
        <time>2021-11-27T10:12:15Z</time>
      </trkpt>
      <trkpt lat="42.38215" lon="-7.738779">
        <time>2021-11-27T10:12:16Z</time>
      </trkpt>
      <trkpt lat="42.382145" lon="-7.7387667">
        <time>2021-11-27T10:12:17Z</time>
      </trkpt>
      <trkpt lat="42.382137" lon="-7.738755">
        <time>2021-11-27T10:12:18Z</time>
      </trkpt>
      <trkpt lat="42.382126" lon="-7.738746">
        <time>2021-11-27T10:12:19Z</time>
      </trkpt>
      <trkpt lat="42.382114" lon="-7.738737">
        <time>2021-11-27T10:12:20Z</time>
      </trkpt>
      <trkpt lat="42.3821" lon="-7.7387304">
        <time>2021-11-27T10:12:21Z</time>
      </trkpt>
      <trkpt lat="42.382084" lon="-7.7387223">
        <time>2021-11-27T10:12:22Z</time>
      </trkpt>
      <trkpt lat="42.382072" lon="-7.7387156">
        <time>2021-11-27T10:12:23Z</time>
      </trkpt>
      <trkpt lat="42.38206" lon="-7.738709">
        <time>2021-11-27T10:12:24Z</time>
      </trkpt>
      <trkpt lat="42.382053" lon="-7.738704">
        <time>2021-11-27T10:12:25Z</time>
      </trkpt>
      <trkpt lat="42.382042" lon="-7.738699">
        <time>2021-11-27T10:12:26Z</time>
      </trkpt>
      <trkpt lat="42.38203" lon="-7.738693">
        <time>2021-11-27T10:12:27Z</time>
      </trkpt>
      <trkpt lat="42.382023" lon="-7.7386875">
        <time>2021-11-27T10:12:28Z</time>
      </trkpt>
      <trkpt lat="42.38201" lon="-7.738679">
        <time>2021-11-27T10:12:29Z</time>
      </trkpt>
      <trkpt lat="42.382" lon="-7.7386675">
        <time>2021-11-27T10:12:30Z</time>
      </trkpt>
      <trkpt lat="42.38199" lon="-7.7386584">
        <time>2021-11-27T10:12:31Z</time>
      </trkpt>
      <trkpt lat="42.38198" lon="-7.738656">
        <time>2021-11-27T10:12:32Z</time>
      </trkpt>
      <trkpt lat="42.38197" lon="-7.7386546">
        <time>2021-11-27T10:12:33Z</time>
      </trkpt>
      <trkpt lat="42.381947" lon="-7.7386494">
        <time>2021-11-27T10:12:38Z</time>
      </trkpt>
      <trkpt lat="42.381947" lon="-7.7386446">
        <time>2021-11-27T10:12:40Z</time>
      </trkpt>
      <trkpt lat="42.381947" lon="-7.7386436">
        <time>2021-11-27T10:12:41Z</time>
      </trkpt>
      <trkpt lat="42.381947" lon="-7.7386446">
        <time>2021-11-27T10:12:44Z</time>
      </trkpt>
      <trkpt lat="42.381947" lon="-7.738643">
        <time>2021-11-27T10:12:46Z</time>
      </trkpt>
      <trkpt lat="42.381943" lon="-7.738643">
        <time>2021-11-27T10:12:49Z</time>
      </trkpt>
      <trkpt lat="42.381943" lon="-7.7386427">
        <time>2021-11-27T10:12:50Z</time>
      </trkpt>
      <trkpt lat="42.38195" lon="-7.738637">
        <time>2021-11-27T10:12:52Z</time>
      </trkpt>
      <trkpt lat="42.381943" lon="-7.738638">
        <time>2021-11-27T10:12:55Z</time>
      </trkpt>
      <trkpt lat="42.381943" lon="-7.738639">
        <time>2021-11-27T10:12:56Z</time>
      </trkpt>
      <trkpt lat="42.381943" lon="-7.738641">
        <time>2021-11-27T10:12:57Z</time>
      </trkpt>
      <trkpt lat="42.381935" lon="-7.738643">
        <time>2021-11-27T10:12:59Z</time>
      </trkpt>
      <trkpt lat="42.38194" lon="-7.7386465">
        <time>2021-11-27T10:13:02Z</time>
      </trkpt>
      <trkpt lat="42.381927" lon="-7.7386446">
        <time>2021-11-27T10:13:25Z</time>
      </trkpt>
      <trkpt lat="42.381927" lon="-7.7386465">
        <time>2021-11-27T10:13:27Z</time>
      </trkpt>
      <trkpt lat="42.381916" lon="-7.7386484">
        <time>2021-11-27T10:13:31Z</time>
      </trkpt>
      <trkpt lat="42.38191" lon="-7.7386484">
        <time>2021-11-27T10:13:32Z</time>
      </trkpt>
      <trkpt lat="42.381897" lon="-7.7386484">
        <time>2021-11-27T10:13:33Z</time>
      </trkpt>
      <trkpt lat="42.38188" lon="-7.738649">
        <time>2021-11-27T10:13:34Z</time>
      </trkpt>
      <trkpt lat="42.381863" lon="-7.7386484">
        <time>2021-11-27T10:13:34Z</time>
      </trkpt>
      <trkpt lat="42.38184" lon="-7.738647">
        <time>2021-11-27T10:13:35Z</time>
      </trkpt>
      <trkpt lat="42.381817" lon="-7.738645">
        <time>2021-11-27T10:13:36Z</time>
      </trkpt>
      <trkpt lat="42.381794" lon="-7.7386427">
        <time>2021-11-27T10:13:37Z</time>
      </trkpt>
      <trkpt lat="42.381767" lon="-7.73864">
        <time>2021-11-27T10:13:38Z</time>
      </trkpt>
      <trkpt lat="42.381744" lon="-7.738638">
        <time>2021-11-27T10:13:39Z</time>
      </trkpt>
      <trkpt lat="42.381725" lon="-7.738637">
        <time>2021-11-27T10:13:40Z</time>
      </trkpt>
      <trkpt lat="42.38171" lon="-7.738639">
        <time>2021-11-27T10:13:41Z</time>
      </trkpt>
      <trkpt lat="42.381702" lon="-7.738643">
        <time>2021-11-27T10:13:43Z</time>
      </trkpt>
      <trkpt lat="42.381695" lon="-7.7386475">
        <time>2021-11-27T10:13:43Z</time>
      </trkpt>
      <trkpt lat="42.381687" lon="-7.7386518">
        <time>2021-11-27T10:13:44Z</time>
      </trkpt>
      <trkpt lat="42.381676" lon="-7.738656">
        <time>2021-11-27T10:13:45Z</time>
      </trkpt>
      <trkpt lat="42.381664" lon="-7.7386622">
        <time>2021-11-27T10:13:46Z</time>
      </trkpt>
      <trkpt lat="42.381657" lon="-7.738668">
        <time>2021-11-27T10:13:47Z</time>
      </trkpt>
      <trkpt lat="42.381645" lon="-7.7386737">
        <time>2021-11-27T10:13:48Z</time>
      </trkpt>
      <trkpt lat="42.38163" lon="-7.738679">
        <time>2021-11-27T10:13:49Z</time>
      </trkpt>
      <trkpt lat="42.38161" lon="-7.738681">
        <time>2021-11-27T10:13:50Z</time>
      </trkpt>
      <trkpt lat="42.38159" lon="-7.738681">
        <time>2021-11-27T10:13:51Z</time>
      </trkpt>
      <trkpt lat="42.381577" lon="-7.738682">
        <time>2021-11-27T10:13:52Z</time>
      </trkpt>
      <trkpt lat="42.381557" lon="-7.738681">
        <time>2021-11-27T10:13:53Z</time>
      </trkpt>
      <trkpt lat="42.381546" lon="-7.738682">
        <time>2021-11-27T10:13:54Z</time>
      </trkpt>
      <trkpt lat="42.38153" lon="-7.7386875">
        <time>2021-11-27T10:13:55Z</time>
      </trkpt>
      <trkpt lat="42.381516" lon="-7.738697">
        <time>2021-11-27T10:13:56Z</time>
      </trkpt>
      <trkpt lat="42.3815" lon="-7.738708">
        <time>2021-11-27T10:13:57Z</time>
      </trkpt>
      <trkpt lat="42.381493" lon="-7.7387204">
        <time>2021-11-27T10:13:58Z</time>
      </trkpt>
      <trkpt lat="42.381477" lon="-7.7387347">
        <time>2021-11-27T10:13:59Z</time>
      </trkpt>
      <trkpt lat="42.381466" lon="-7.738748">
        <time>2021-11-27T10:14:00Z</time>
      </trkpt>
      <trkpt lat="42.38145" lon="-7.7387614">
        <time>2021-11-27T10:14:01Z</time>
      </trkpt>
      <trkpt lat="42.38144" lon="-7.738772">
        <time>2021-11-27T10:14:02Z</time>
      </trkpt>
      <trkpt lat="42.38143" lon="-7.73878">
        <time>2021-11-27T10:14:03Z</time>
      </trkpt>
      <trkpt lat="42.381424" lon="-7.738787">
        <time>2021-11-27T10:14:04Z</time>
      </trkpt>
      <trkpt lat="42.381416" lon="-7.738795">
        <time>2021-11-27T10:14:05Z</time>
      </trkpt>
      <trkpt lat="42.38141" lon="-7.738806">
        <time>2021-11-27T10:14:06Z</time>
      </trkpt>
      <trkpt lat="42.3814" lon="-7.738819">
        <time>2021-11-27T10:14:07Z</time>
      </trkpt>
      <trkpt lat="42.381393" lon="-7.7388325">
        <time>2021-11-27T10:14:08Z</time>
      </trkpt>
      <trkpt lat="42.381382" lon="-7.7388434">
        <time>2021-11-27T10:14:09Z</time>
      </trkpt>
      <trkpt lat="42.381374" lon="-7.738851">
        <time>2021-11-27T10:14:10Z</time>
      </trkpt>
      <trkpt lat="42.381367" lon="-7.73886">
        <time>2021-11-27T10:14:11Z</time>
      </trkpt>
      <trkpt lat="42.38135" lon="-7.7388697">
        <time>2021-11-27T10:14:12Z</time>
      </trkpt>
      <trkpt lat="42.381344" lon="-7.7388825">
        <time>2021-11-27T10:14:13Z</time>
      </trkpt>
      <trkpt lat="42.38133" lon="-7.738895">
        <time>2021-11-27T10:14:14Z</time>
      </trkpt>
      <trkpt lat="42.381313" lon="-7.7389054">
        <time>2021-11-27T10:14:15Z</time>
      </trkpt>
      <trkpt lat="42.381306" lon="-7.7389164">
        <time>2021-11-27T10:14:16Z</time>
      </trkpt>
      <trkpt lat="42.38129" lon="-7.7389297">
        <time>2021-11-27T10:14:17Z</time>
      </trkpt>
      <trkpt lat="42.381283" lon="-7.738944">
        <time>2021-11-27T10:14:18Z</time>
      </trkpt>
      <trkpt lat="42.381268" lon="-7.7389593">
        <time>2021-11-27T10:14:19Z</time>
      </trkpt>
      <trkpt lat="42.38126" lon="-7.738974">
        <time>2021-11-27T10:14:20Z</time>
      </trkpt>
      <trkpt lat="42.381252" lon="-7.738987">
        <time>2021-11-27T10:14:21Z</time>
      </trkpt>
      <trkpt lat="42.381245" lon="-7.739">
        <time>2021-11-27T10:14:22Z</time>
      </trkpt>
      <trkpt lat="42.381237" lon="-7.739013">
        <time>2021-11-27T10:14:23Z</time>
      </trkpt>
      <trkpt lat="42.381226" lon="-7.739027">
        <time>2021-11-27T10:14:24Z</time>
      </trkpt>
      <trkpt lat="42.381218" lon="-7.739038">
        <time>2021-11-27T10:14:25Z</time>
      </trkpt>
      <trkpt lat="42.381207" lon="-7.739049">
        <time>2021-11-27T10:14:26Z</time>
      </trkpt>
      <trkpt lat="42.3812" lon="-7.7390604">
        <time>2021-11-27T10:14:27Z</time>
      </trkpt>
      <trkpt lat="42.381187" lon="-7.7390714">
        <time>2021-11-27T10:14:28Z</time>
      </trkpt>
      <trkpt lat="42.38118" lon="-7.7390833">
        <time>2021-11-27T10:14:29Z</time>
      </trkpt>
      <trkpt lat="42.38117" lon="-7.7390943">
        <time>2021-11-27T10:14:30Z</time>
      </trkpt>
      <trkpt lat="42.381157" lon="-7.7391076">
        <time>2021-11-27T10:14:31Z</time>
      </trkpt>
      <trkpt lat="42.38115" lon="-7.739124">
        <time>2021-11-27T10:14:32Z</time>
      </trkpt>
      <trkpt lat="42.381138" lon="-7.7391424">
        <time>2021-11-27T10:14:33Z</time>
      </trkpt>
      <trkpt lat="42.381126" lon="-7.7391624">
        <time>2021-11-27T10:14:34Z</time>
      </trkpt>
      <trkpt lat="42.38112" lon="-7.7391806">
        <time>2021-11-27T10:14:35Z</time>
      </trkpt>
      <trkpt lat="42.38111" lon="-7.7391987">
        <time>2021-11-27T10:14:36Z</time>
      </trkpt>
      <trkpt lat="42.381107" lon="-7.739216">
        <time>2021-11-27T10:14:37Z</time>
      </trkpt>
      <trkpt lat="42.381104" lon="-7.739234">
        <time>2021-11-27T10:14:38Z</time>
      </trkpt>
      <trkpt lat="42.381096" lon="-7.739254">
        <time>2021-11-27T10:14:39Z</time>
      </trkpt>
      <trkpt lat="42.38109" lon="-7.739274">
        <time>2021-11-27T10:14:40Z</time>
      </trkpt>
      <trkpt lat="42.38108" lon="-7.739296">
        <time>2021-11-27T10:14:41Z</time>
      </trkpt>
      <trkpt lat="42.381077" lon="-7.739318">
        <time>2021-11-27T10:14:42Z</time>
      </trkpt>
      <trkpt lat="42.38107" lon="-7.7393403">
        <time>2021-11-27T10:14:43Z</time>
      </trkpt>
      <trkpt lat="42.38106" lon="-7.739361">
        <time>2021-11-27T10:14:44Z</time>
      </trkpt>
      <trkpt lat="42.381058" lon="-7.7393794">
        <time>2021-11-27T10:14:45Z</time>
      </trkpt>
      <trkpt lat="42.381054" lon="-7.739397">
        <time>2021-11-27T10:14:46Z</time>
      </trkpt>
      <trkpt lat="42.38105" lon="-7.739414">
        <time>2021-11-27T10:14:47Z</time>
      </trkpt>
      <trkpt lat="42.38105" lon="-7.7394323">
        <time>2021-11-27T10:14:48Z</time>
      </trkpt>
      <trkpt lat="42.38105" lon="-7.739449">
        <time>2021-11-27T10:14:49Z</time>
      </trkpt>
      <trkpt lat="42.38105" lon="-7.7394648">
        <time>2021-11-27T10:14:50Z</time>
      </trkpt>
      <trkpt lat="42.38105" lon="-7.7394776">
        <time>2021-11-27T10:14:51Z</time>
      </trkpt>
      <trkpt lat="42.38105" lon="-7.739491">
        <time>2021-11-27T10:14:52Z</time>
      </trkpt>
      <trkpt lat="42.38105" lon="-7.739506">
        <time>2021-11-27T10:14:53Z</time>
      </trkpt>
      <trkpt lat="42.381046" lon="-7.7395215">
        <time>2021-11-27T10:14:54Z</time>
      </trkpt>
      <trkpt lat="42.381046" lon="-7.7395372">
        <time>2021-11-27T10:14:55Z</time>
      </trkpt>
      <trkpt lat="42.38105" lon="-7.7395506">
        <time>2021-11-27T10:14:56Z</time>
      </trkpt>
      <trkpt lat="42.38105" lon="-7.73956">
        <time>2021-11-27T10:14:57Z</time>
      </trkpt>
      <trkpt lat="42.38105" lon="-7.7395725">
        <time>2021-11-27T10:14:58Z</time>
      </trkpt>
      <trkpt lat="42.38105" lon="-7.739591">
        <time>2021-11-27T10:14:59Z</time>
      </trkpt>
      <trkpt lat="42.38105" lon="-7.739605">
        <time>2021-11-27T10:15:00Z</time>
      </trkpt>
      <trkpt lat="42.38105" lon="-7.7396207">
        <time>2021-11-27T10:15:01Z</time>
      </trkpt>
      <trkpt lat="42.381046" lon="-7.739635">
        <time>2021-11-27T10:15:02Z</time>
      </trkpt>
      <trkpt lat="42.381042" lon="-7.739647">
        <time>2021-11-27T10:15:03Z</time>
      </trkpt>
      <trkpt lat="42.381042" lon="-7.7396593">
        <time>2021-11-27T10:15:04Z</time>
      </trkpt>
      <trkpt lat="42.381035" lon="-7.7396736">
        <time>2021-11-27T10:15:05Z</time>
      </trkpt>
      <trkpt lat="42.381027" lon="-7.739691">
        <time>2021-11-27T10:15:06Z</time>
      </trkpt>
      <trkpt lat="42.38102" lon="-7.7397094">
        <time>2021-11-27T10:15:07Z</time>
      </trkpt>
      <trkpt lat="42.38101" lon="-7.7397285">
        <time>2021-11-27T10:15:08Z</time>
      </trkpt>
      <trkpt lat="42.381" lon="-7.739747">
        <time>2021-11-27T10:15:09Z</time>
      </trkpt>
      <trkpt lat="42.38099" lon="-7.7397676">
        <time>2021-11-27T10:15:10Z</time>
      </trkpt>
      <trkpt lat="42.380974" lon="-7.7397876">
        <time>2021-11-27T10:15:11Z</time>
      </trkpt>
      <trkpt lat="42.380962" lon="-7.7398067">
        <time>2021-11-27T10:15:12Z</time>
      </trkpt>
      <trkpt lat="42.380955" lon="-7.7398257">
        <time>2021-11-27T10:15:13Z</time>
      </trkpt>
      <trkpt lat="42.380947" lon="-7.7398453">
        <time>2021-11-27T10:15:14Z</time>
      </trkpt>
      <trkpt lat="42.38094" lon="-7.739868">
        <time>2021-11-27T10:15:15Z</time>
      </trkpt>
      <trkpt lat="42.38093" lon="-7.739888">
        <time>2021-11-27T10:15:16Z</time>
      </trkpt>
      <trkpt lat="42.380928" lon="-7.739906">
        <time>2021-11-27T10:15:17Z</time>
      </trkpt>
      <trkpt lat="42.38092" lon="-7.7399225">
        <time>2021-11-27T10:15:18Z</time>
      </trkpt>
      <trkpt lat="42.380913" lon="-7.7399406">
        <time>2021-11-27T10:15:19Z</time>
      </trkpt>
      <trkpt lat="42.38091" lon="-7.739962">
        <time>2021-11-27T10:15:20Z</time>
      </trkpt>
      <trkpt lat="42.3809" lon="-7.739982">
        <time>2021-11-27T10:15:21Z</time>
      </trkpt>
      <trkpt lat="42.38089" lon="-7.740001">
        <time>2021-11-27T10:15:22Z</time>
      </trkpt>
      <trkpt lat="42.38088" lon="-7.740021">
        <time>2021-11-27T10:15:23Z</time>
      </trkpt>
      <trkpt lat="42.380867" lon="-7.740037">
        <time>2021-11-27T10:15:24Z</time>
      </trkpt>
      <trkpt lat="42.380856" lon="-7.7400513">
        <time>2021-11-27T10:15:25Z</time>
      </trkpt>
      <trkpt lat="42.380848" lon="-7.740064">
        <time>2021-11-27T10:15:26Z</time>
      </trkpt>
      <trkpt lat="42.38084" lon="-7.740074">
        <time>2021-11-27T10:15:27Z</time>
      </trkpt>
      <trkpt lat="42.38083" lon="-7.7400827">
        <time>2021-11-27T10:15:28Z</time>
      </trkpt>
      <trkpt lat="42.38082" lon="-7.7400923">
        <time>2021-11-27T10:15:29Z</time>
      </trkpt>
      <trkpt lat="42.380817" lon="-7.7401013">
        <time>2021-11-27T10:15:30Z</time>
      </trkpt>
      <trkpt lat="42.38081" lon="-7.740111">
        <time>2021-11-27T10:15:31Z</time>
      </trkpt>
      <trkpt lat="42.380802" lon="-7.7401257">
        <time>2021-11-27T10:15:32Z</time>
      </trkpt>
      <trkpt lat="42.380795" lon="-7.74014">
        <time>2021-11-27T10:15:33Z</time>
      </trkpt>
      <trkpt lat="42.380783" lon="-7.7401557">
        <time>2021-11-27T10:15:34Z</time>
      </trkpt>
      <trkpt lat="42.380775" lon="-7.7401714">
        <time>2021-11-27T10:15:35Z</time>
      </trkpt>
      <trkpt lat="42.380768" lon="-7.74019">
        <time>2021-11-27T10:15:36Z</time>
      </trkpt>
      <trkpt lat="42.380764" lon="-7.740208">
        <time>2021-11-27T10:15:37Z</time>
      </trkpt>
      <trkpt lat="42.38076" lon="-7.7402267">
        <time>2021-11-27T10:15:38Z</time>
      </trkpt>
      <trkpt lat="42.380756" lon="-7.7402444">
        <time>2021-11-27T10:15:39Z</time>
      </trkpt>
      <trkpt lat="42.380756" lon="-7.7402587">
        <time>2021-11-27T10:15:40Z</time>
      </trkpt>
      <trkpt lat="42.380756" lon="-7.740272">
        <time>2021-11-27T10:15:41Z</time>
      </trkpt>
      <trkpt lat="42.380753" lon="-7.740287">
        <time>2021-11-27T10:15:43Z</time>
      </trkpt>
      <trkpt lat="42.380756" lon="-7.7403016">
        <time>2021-11-27T10:15:43Z</time>
      </trkpt>
      <trkpt lat="42.380753" lon="-7.740317">
        <time>2021-11-27T10:15:44Z</time>
      </trkpt>
      <trkpt lat="42.380753" lon="-7.740332">
        <time>2021-11-27T10:15:45Z</time>
      </trkpt>
      <trkpt lat="42.380745" lon="-7.740349">
        <time>2021-11-27T10:15:46Z</time>
      </trkpt>
      <trkpt lat="42.380737" lon="-7.7403655">
        <time>2021-11-27T10:15:47Z</time>
      </trkpt>
      <trkpt lat="42.380737" lon="-7.7403812">
        <time>2021-11-27T10:15:48Z</time>
      </trkpt>
      <trkpt lat="42.38073" lon="-7.740399">
        <time>2021-11-27T10:15:49Z</time>
      </trkpt>
      <trkpt lat="42.380722" lon="-7.7404184">
        <time>2021-11-27T10:15:50Z</time>
      </trkpt>
      <trkpt lat="42.380714" lon="-7.7404366">
        <time>2021-11-27T10:15:51Z</time>
      </trkpt>
      <trkpt lat="42.38071" lon="-7.7404523">
        <time>2021-11-27T10:15:52Z</time>
      </trkpt>
      <trkpt lat="42.380707" lon="-7.740468">
        <time>2021-11-27T10:15:53Z</time>
      </trkpt>
      <trkpt lat="42.3807" lon="-7.7404847">
        <time>2021-11-27T10:15:54Z</time>
      </trkpt>
      <trkpt lat="42.38069" lon="-7.7405024">
        <time>2021-11-27T10:15:55Z</time>
      </trkpt>
      <trkpt lat="42.380684" lon="-7.7405205">
        <time>2021-11-27T10:15:56Z</time>
      </trkpt>
      <trkpt lat="42.380676" lon="-7.740536">
        <time>2021-11-27T10:15:57Z</time>
      </trkpt>
      <trkpt lat="42.380672" lon="-7.7405515">
        <time>2021-11-27T10:15:58Z</time>
      </trkpt>
      <trkpt lat="42.38067" lon="-7.740566">
        <time>2021-11-27T10:15:59Z</time>
      </trkpt>
      <trkpt lat="42.38066" lon="-7.7405753">
        <time>2021-11-27T10:16:00Z</time>
      </trkpt>
      <trkpt lat="42.380653" lon="-7.740585">
        <time>2021-11-27T10:16:01Z</time>
      </trkpt>
      <trkpt lat="42.380642" lon="-7.7405944">
        <time>2021-11-27T10:16:02Z</time>
      </trkpt>
      <trkpt lat="42.380634" lon="-7.7406073">
        <time>2021-11-27T10:16:03Z</time>
      </trkpt>
      <trkpt lat="42.380627" lon="-7.7406187">
        <time>2021-11-27T10:16:04Z</time>
      </trkpt>
      <trkpt lat="42.380623" lon="-7.740629">
        <time>2021-11-27T10:16:05Z</time>
      </trkpt>
      <trkpt lat="42.380615" lon="-7.7406387">
        <time>2021-11-27T10:16:06Z</time>
      </trkpt>
      <trkpt lat="42.380608" lon="-7.7406483">
        <time>2021-11-27T10:16:07Z</time>
      </trkpt>
      <trkpt lat="42.3806" lon="-7.7406573">
        <time>2021-11-27T10:16:08Z</time>
      </trkpt>
      <trkpt lat="42.380592" lon="-7.740671">
        <time>2021-11-27T10:16:09Z</time>
      </trkpt>
      <trkpt lat="42.38058" lon="-7.7406898">
        <time>2021-11-27T10:16:10Z</time>
      </trkpt>
      <trkpt lat="42.380573" lon="-7.7407093">
        <time>2021-11-27T10:16:11Z</time>
      </trkpt>
      <trkpt lat="42.38056" lon="-7.740729">
        <time>2021-11-27T10:16:12Z</time>
      </trkpt>
      <trkpt lat="42.38055" lon="-7.740749">
        <time>2021-11-27T10:16:13Z</time>
      </trkpt>
      <trkpt lat="42.380543" lon="-7.7407675">
        <time>2021-11-27T10:16:14Z</time>
      </trkpt>
      <trkpt lat="42.38053" lon="-7.740783">
        <time>2021-11-27T10:16:15Z</time>
      </trkpt>
      <trkpt lat="42.38052" lon="-7.7407975">
        <time>2021-11-27T10:16:16Z</time>
      </trkpt>
      <trkpt lat="42.380505" lon="-7.7408133">
        <time>2021-11-27T10:16:17Z</time>
      </trkpt>
      <trkpt lat="42.380497" lon="-7.7408276">
        <time>2021-11-27T10:16:18Z</time>
      </trkpt>
      <trkpt lat="42.38049" lon="-7.7408414">
        <time>2021-11-27T10:16:19Z</time>
      </trkpt>
      <trkpt lat="42.38048" lon="-7.7408557">
        <time>2021-11-27T10:16:20Z</time>
      </trkpt>
      <trkpt lat="42.38047" lon="-7.7408676">
        <time>2021-11-27T10:16:21Z</time>
      </trkpt>
      <trkpt lat="42.38046" lon="-7.7408814">
        <time>2021-11-27T10:16:22Z</time>
      </trkpt>
      <trkpt lat="42.38045" lon="-7.7408934">
        <time>2021-11-27T10:16:23Z</time>
      </trkpt>
      <trkpt lat="42.380444" lon="-7.7409067">
        <time>2021-11-27T10:16:24Z</time>
      </trkpt>
      <trkpt lat="42.380432" lon="-7.740919">
        <time>2021-11-27T10:16:25Z</time>
      </trkpt>
      <trkpt lat="42.380424" lon="-7.7409306">
        <time>2021-11-27T10:16:26Z</time>
      </trkpt>
      <trkpt lat="42.380413" lon="-7.7409415">
        <time>2021-11-27T10:16:27Z</time>
      </trkpt>
      <trkpt lat="42.3804" lon="-7.7409534">
        <time>2021-11-27T10:16:28Z</time>
      </trkpt>
      <trkpt lat="42.380394" lon="-7.740966">
        <time>2021-11-27T10:16:29Z</time>
      </trkpt>
      <trkpt lat="42.380386" lon="-7.7409806">
        <time>2021-11-27T10:16:30Z</time>
      </trkpt>
      <trkpt lat="42.380375" lon="-7.740996">
        <time>2021-11-27T10:16:31Z</time>
      </trkpt>
      <trkpt lat="42.380367" lon="-7.741013">
        <time>2021-11-27T10:16:32Z</time>
      </trkpt>
      <trkpt lat="42.38036" lon="-7.74103">
        <time>2021-11-27T10:16:33Z</time>
      </trkpt>
      <trkpt lat="42.38035" lon="-7.7410464">
        <time>2021-11-27T10:16:34Z</time>
      </trkpt>
      <trkpt lat="42.38034" lon="-7.7410603">
        <time>2021-11-27T10:16:35Z</time>
      </trkpt>
      <trkpt lat="42.38033" lon="-7.741072">
        <time>2021-11-27T10:16:36Z</time>
      </trkpt>
      <trkpt lat="42.380318" lon="-7.741084">
        <time>2021-11-27T10:16:37Z</time>
      </trkpt>
      <trkpt lat="42.380306" lon="-7.7410955">
        <time>2021-11-27T10:16:38Z</time>
      </trkpt>
      <trkpt lat="42.380295" lon="-7.7411118">
        <time>2021-11-27T10:16:39Z</time>
      </trkpt>
      <trkpt lat="42.380287" lon="-7.7411294">
        <time>2021-11-27T10:16:40Z</time>
      </trkpt>
      <trkpt lat="42.38028" lon="-7.741151">
        <time>2021-11-27T10:16:41Z</time>
      </trkpt>
      <trkpt lat="42.380272" lon="-7.7411737">
        <time>2021-11-27T10:16:43Z</time>
      </trkpt>
      <trkpt lat="42.38027" lon="-7.7411976">
        <time>2021-11-27T10:16:43Z</time>
      </trkpt>
      <trkpt lat="42.380264" lon="-7.74122">
        <time>2021-11-27T10:16:44Z</time>
      </trkpt>
      <trkpt lat="42.380253" lon="-7.7412405">
        <time>2021-11-27T10:16:45Z</time>
      </trkpt>
      <trkpt lat="42.380245" lon="-7.741258">
        <time>2021-11-27T10:16:46Z</time>
      </trkpt>
      <trkpt lat="42.380238" lon="-7.7412753">
        <time>2021-11-27T10:16:47Z</time>
      </trkpt>
      <trkpt lat="42.380226" lon="-7.741295">
        <time>2021-11-27T10:16:48Z</time>
      </trkpt>
      <trkpt lat="42.380215" lon="-7.741314">
        <time>2021-11-27T10:16:49Z</time>
      </trkpt>
      <trkpt lat="42.380207" lon="-7.7413344">
        <time>2021-11-27T10:16:50Z</time>
      </trkpt>
      <trkpt lat="42.380196" lon="-7.7413545">
        <time>2021-11-27T10:16:51Z</time>
      </trkpt>
      <trkpt lat="42.380184" lon="-7.7413754">
        <time>2021-11-27T10:16:52Z</time>
      </trkpt>
      <trkpt lat="42.380177" lon="-7.7413983">
        <time>2021-11-27T10:16:53Z</time>
      </trkpt>
      <trkpt lat="42.38017" lon="-7.741419">
        <time>2021-11-27T10:16:54Z</time>
      </trkpt>
      <trkpt lat="42.380157" lon="-7.7414355">
        <time>2021-11-27T10:16:55Z</time>
      </trkpt>
      <trkpt lat="42.38015" lon="-7.741449">
        <time>2021-11-27T10:16:56Z</time>
      </trkpt>
      <trkpt lat="42.380142" lon="-7.7414603">
        <time>2021-11-27T10:16:57Z</time>
      </trkpt>
      <trkpt lat="42.38014" lon="-7.741471">
        <time>2021-11-27T10:16:58Z</time>
      </trkpt>
      <trkpt lat="42.38014" lon="-7.7414804">
        <time>2021-11-27T10:16:59Z</time>
      </trkpt>
      <trkpt lat="42.380135" lon="-7.7414913">
        <time>2021-11-27T10:17:00Z</time>
      </trkpt>
      <trkpt lat="42.38013" lon="-7.741504">
        <time>2021-11-27T10:17:01Z</time>
      </trkpt>
      <trkpt lat="42.38013" lon="-7.741518">
        <time>2021-11-27T10:17:02Z</time>
      </trkpt>
      <trkpt lat="42.38013" lon="-7.7415314">
        <time>2021-11-27T10:17:03Z</time>
      </trkpt>
      <trkpt lat="42.38013" lon="-7.7415447">
        <time>2021-11-27T10:17:04Z</time>
      </trkpt>
      <trkpt lat="42.380127" lon="-7.741559">
        <time>2021-11-27T10:17:05Z</time>
      </trkpt>
      <trkpt lat="42.380127" lon="-7.7415733">
        <time>2021-11-27T10:17:06Z</time>
      </trkpt>
      <trkpt lat="42.380123" lon="-7.7415876">
        <time>2021-11-27T10:17:07Z</time>
      </trkpt>
      <trkpt lat="42.38012" lon="-7.7416015">
        <time>2021-11-27T10:17:08Z</time>
      </trkpt>
      <trkpt lat="42.380116" lon="-7.7416153">
        <time>2021-11-27T10:17:09Z</time>
      </trkpt>
      <trkpt lat="42.380108" lon="-7.7416286">
        <time>2021-11-27T10:17:10Z</time>
      </trkpt>
      <trkpt lat="42.3801" lon="-7.7416415">
        <time>2021-11-27T10:17:11Z</time>
      </trkpt>
      <trkpt lat="42.380093" lon="-7.741653">
        <time>2021-11-27T10:17:12Z</time>
      </trkpt>
      <trkpt lat="42.380085" lon="-7.741666">
        <time>2021-11-27T10:17:13Z</time>
      </trkpt>
      <trkpt lat="42.380077" lon="-7.74168">
        <time>2021-11-27T10:17:14Z</time>
      </trkpt>
      <trkpt lat="42.38007" lon="-7.741697">
        <time>2021-11-27T10:17:15Z</time>
      </trkpt>
      <trkpt lat="42.380066" lon="-7.7417145">
        <time>2021-11-27T10:17:16Z</time>
      </trkpt>
      <trkpt lat="42.38006" lon="-7.7417336">
        <time>2021-11-27T10:17:17Z</time>
      </trkpt>
      <trkpt lat="42.38005" lon="-7.7417536">
        <time>2021-11-27T10:17:18Z</time>
      </trkpt>
      <trkpt lat="42.380043" lon="-7.7417717">
        <time>2021-11-27T10:17:19Z</time>
      </trkpt>
      <trkpt lat="42.38003" lon="-7.7417884">
        <time>2021-11-27T10:17:20Z</time>
      </trkpt>
      <trkpt lat="42.380028" lon="-7.741806">
        <time>2021-11-27T10:17:21Z</time>
      </trkpt>
      <trkpt lat="42.380028" lon="-7.7418265">
        <time>2021-11-27T10:17:22Z</time>
      </trkpt>
      <trkpt lat="42.380028" lon="-7.741849">
        <time>2021-11-27T10:17:23Z</time>
      </trkpt>
      <trkpt lat="42.380024" lon="-7.7418675">
        <time>2021-11-27T10:17:24Z</time>
      </trkpt>
      <trkpt lat="42.380024" lon="-7.7418847">
        <time>2021-11-27T10:17:25Z</time>
      </trkpt>
      <trkpt lat="42.380024" lon="-7.741901">
        <time>2021-11-27T10:17:26Z</time>
      </trkpt>
      <trkpt lat="42.38002" lon="-7.7419147">
        <time>2021-11-27T10:17:27Z</time>
      </trkpt>
      <trkpt lat="42.380016" lon="-7.7419333">
        <time>2021-11-27T10:17:28Z</time>
      </trkpt>
      <trkpt lat="42.38001" lon="-7.7419543">
        <time>2021-11-27T10:17:29Z</time>
      </trkpt>
      <trkpt lat="42.380005" lon="-7.7419763">
        <time>2021-11-27T10:17:30Z</time>
      </trkpt>
      <trkpt lat="42.379997" lon="-7.7419987">
        <time>2021-11-27T10:17:31Z</time>
      </trkpt>
      <trkpt lat="42.379986" lon="-7.7420216">
        <time>2021-11-27T10:17:32Z</time>
      </trkpt>
      <trkpt lat="42.37998" lon="-7.742043">
        <time>2021-11-27T10:17:33Z</time>
      </trkpt>
      <trkpt lat="42.37997" lon="-7.7420607">
        <time>2021-11-27T10:17:34Z</time>
      </trkpt>
      <trkpt lat="42.37996" lon="-7.7420774">
        <time>2021-11-27T10:17:35Z</time>
      </trkpt>
      <trkpt lat="42.37995" lon="-7.7420936">
        <time>2021-11-27T10:17:36Z</time>
      </trkpt>
      <trkpt lat="42.379944" lon="-7.7421093">
        <time>2021-11-27T10:17:37Z</time>
      </trkpt>
      <trkpt lat="42.379936" lon="-7.7421274">
        <time>2021-11-27T10:17:38Z</time>
      </trkpt>
      <trkpt lat="42.37993" lon="-7.742144">
        <time>2021-11-27T10:17:39Z</time>
      </trkpt>
      <trkpt lat="42.37992" lon="-7.742159">
        <time>2021-11-27T10:17:40Z</time>
      </trkpt>
      <trkpt lat="42.379913" lon="-7.7421722">
        <time>2021-11-27T10:17:41Z</time>
      </trkpt>
      <trkpt lat="42.379906" lon="-7.742185">
        <time>2021-11-27T10:17:43Z</time>
      </trkpt>
      <trkpt lat="42.379898" lon="-7.742198">
        <time>2021-11-27T10:17:43Z</time>
      </trkpt>
      <trkpt lat="42.37989" lon="-7.74221">
        <time>2021-11-27T10:17:44Z</time>
      </trkpt>
      <trkpt lat="42.379883" lon="-7.742223">
        <time>2021-11-27T10:17:45Z</time>
      </trkpt>
      <trkpt lat="42.379875" lon="-7.742238">
        <time>2021-11-27T10:17:46Z</time>
      </trkpt>
      <trkpt lat="42.379868" lon="-7.742255">
        <time>2021-11-27T10:17:47Z</time>
      </trkpt>
      <trkpt lat="42.379856" lon="-7.742272">
        <time>2021-11-27T10:17:48Z</time>
      </trkpt>
      <trkpt lat="42.37985" lon="-7.742288">
        <time>2021-11-27T10:17:49Z</time>
      </trkpt>
      <trkpt lat="42.37984" lon="-7.742304">
        <time>2021-11-27T10:17:49Z</time>
      </trkpt>
      <trkpt lat="42.379833" lon="-7.7423224">
        <time>2021-11-27T10:17:50Z</time>
      </trkpt>
      <trkpt lat="42.379826" lon="-7.7423396">
        <time>2021-11-27T10:17:51Z</time>
      </trkpt>
      <trkpt lat="42.379818" lon="-7.7423544">
        <time>2021-11-27T10:17:52Z</time>
      </trkpt>
      <trkpt lat="42.37981" lon="-7.7423687">
        <time>2021-11-27T10:17:53Z</time>
      </trkpt>
      <trkpt lat="42.379803" lon="-7.7423825">
        <time>2021-11-27T10:17:54Z</time>
      </trkpt>
      <trkpt lat="42.3798" lon="-7.7423983">
        <time>2021-11-27T10:17:55Z</time>
      </trkpt>
      <trkpt lat="42.379795" lon="-7.7424135">
        <time>2021-11-27T10:17:56Z</time>
      </trkpt>
      <trkpt lat="42.379787" lon="-7.742427">
        <time>2021-11-27T10:17:57Z</time>
      </trkpt>
      <trkpt lat="42.379784" lon="-7.7424393">
        <time>2021-11-27T10:17:58Z</time>
      </trkpt>
      <trkpt lat="42.37978" lon="-7.7424498">
        <time>2021-11-27T10:17:59Z</time>
      </trkpt>
      <trkpt lat="42.379772" lon="-7.742462">
        <time>2021-11-27T10:18:00Z</time>
      </trkpt>
      <trkpt lat="42.379765" lon="-7.742475">
        <time>2021-11-27T10:18:01Z</time>
      </trkpt>
      <trkpt lat="42.379757" lon="-7.742488">
        <time>2021-11-27T10:18:02Z</time>
      </trkpt>
      <trkpt lat="42.37975" lon="-7.742498">
        <time>2021-11-27T10:18:03Z</time>
      </trkpt>
      <trkpt lat="42.37974" lon="-7.7425113">
        <time>2021-11-27T10:18:04Z</time>
      </trkpt>
      <trkpt lat="42.379726" lon="-7.7425256">
        <time>2021-11-27T10:18:05Z</time>
      </trkpt>
      <trkpt lat="42.37972" lon="-7.7425356">
        <time>2021-11-27T10:18:06Z</time>
      </trkpt>
      <trkpt lat="42.37971" lon="-7.7425466">
        <time>2021-11-27T10:18:07Z</time>
      </trkpt>
      <trkpt lat="42.379707" lon="-7.742559">
        <time>2021-11-27T10:18:08Z</time>
      </trkpt>
      <trkpt lat="42.379704" lon="-7.7425704">
        <time>2021-11-27T10:18:09Z</time>
      </trkpt>
      <trkpt lat="42.379704" lon="-7.742581">
        <time>2021-11-27T10:18:10Z</time>
      </trkpt>
      <trkpt lat="42.3797" lon="-7.7425947">
        <time>2021-11-27T10:18:11Z</time>
      </trkpt>
      <trkpt lat="42.379696" lon="-7.7426105">
        <time>2021-11-27T10:18:12Z</time>
      </trkpt>
      <trkpt lat="42.37969" lon="-7.742627">
        <time>2021-11-27T10:18:13Z</time>
      </trkpt>
      <trkpt lat="42.37968" lon="-7.7426424">
        <time>2021-11-27T10:18:14Z</time>
      </trkpt>
      <trkpt lat="42.37967" lon="-7.742658">
        <time>2021-11-27T10:18:15Z</time>
      </trkpt>
      <trkpt lat="42.37966" lon="-7.7426715">
        <time>2021-11-27T10:18:16Z</time>
      </trkpt>
      <trkpt lat="42.37965" lon="-7.7426834">
        <time>2021-11-27T10:18:17Z</time>
      </trkpt>
      <trkpt lat="42.37964" lon="-7.742695">
        <time>2021-11-27T10:18:18Z</time>
      </trkpt>
      <trkpt lat="42.379627" lon="-7.742706">
        <time>2021-11-27T10:18:19Z</time>
      </trkpt>
      <trkpt lat="42.379616" lon="-7.7427173">
        <time>2021-11-27T10:18:20Z</time>
      </trkpt>
      <trkpt lat="42.379604" lon="-7.742729">
        <time>2021-11-27T10:18:21Z</time>
      </trkpt>
      <trkpt lat="42.379593" lon="-7.7427406">
        <time>2021-11-27T10:18:22Z</time>
      </trkpt>
      <trkpt lat="42.379585" lon="-7.7427554">
        <time>2021-11-27T10:18:23Z</time>
      </trkpt>
      <trkpt lat="42.37958" lon="-7.742771">
        <time>2021-11-27T10:18:24Z</time>
      </trkpt>
      <trkpt lat="42.379578" lon="-7.7427864">
        <time>2021-11-27T10:18:25Z</time>
      </trkpt>
      <trkpt lat="42.379578" lon="-7.7428">
        <time>2021-11-27T10:18:26Z</time>
      </trkpt>
      <trkpt lat="42.379574" lon="-7.7428136">
        <time>2021-11-27T10:18:27Z</time>
      </trkpt>
      <trkpt lat="42.379574" lon="-7.742827">
        <time>2021-11-27T10:18:28Z</time>
      </trkpt>
      <trkpt lat="42.379574" lon="-7.742841">
        <time>2021-11-27T10:18:29Z</time>
      </trkpt>
      <trkpt lat="42.37957" lon="-7.7428546">
        <time>2021-11-27T10:18:30Z</time>
      </trkpt>
      <trkpt lat="42.37957" lon="-7.742866">
        <time>2021-11-27T10:18:31Z</time>
      </trkpt>
      <trkpt lat="42.379562" lon="-7.742877">
        <time>2021-11-27T10:18:32Z</time>
      </trkpt>
      <trkpt lat="42.379555" lon="-7.742889">
        <time>2021-11-27T10:18:33Z</time>
      </trkpt>
      <trkpt lat="42.37954" lon="-7.7429004">
        <time>2021-11-27T10:18:34Z</time>
      </trkpt>
      <trkpt lat="42.379528" lon="-7.742915">
        <time>2021-11-27T10:18:35Z</time>
      </trkpt>
      <trkpt lat="42.379517" lon="-7.74293">
        <time>2021-11-27T10:18:36Z</time>
      </trkpt>
      <trkpt lat="42.379505" lon="-7.7429433">
        <time>2021-11-27T10:18:37Z</time>
      </trkpt>
      <trkpt lat="42.379498" lon="-7.7429614">
        <time>2021-11-27T10:18:38Z</time>
      </trkpt>
      <trkpt lat="42.379494" lon="-7.742977">
        <time>2021-11-27T10:18:39Z</time>
      </trkpt>
      <trkpt lat="42.379486" lon="-7.742994">
        <time>2021-11-27T10:18:40Z</time>
      </trkpt>
      <trkpt lat="42.37948" lon="-7.743009">
        <time>2021-11-27T10:18:41Z</time>
      </trkpt>
      <trkpt lat="42.379475" lon="-7.743025">
        <time>2021-11-27T10:18:43Z</time>
      </trkpt>
      <trkpt lat="42.379467" lon="-7.743039">
        <time>2021-11-27T10:18:43Z</time>
      </trkpt>
      <trkpt lat="42.37946" lon="-7.743055">
        <time>2021-11-27T10:18:44Z</time>
      </trkpt>
      <trkpt lat="42.37945" lon="-7.7430696">
        <time>2021-11-27T10:18:45Z</time>
      </trkpt>
      <trkpt lat="42.379444" lon="-7.743083">
        <time>2021-11-27T10:18:46Z</time>
      </trkpt>
      <trkpt lat="42.379436" lon="-7.743095">
        <time>2021-11-27T10:18:47Z</time>
      </trkpt>
      <trkpt lat="42.37943" lon="-7.7431083">
        <time>2021-11-27T10:18:48Z</time>
      </trkpt>
      <trkpt lat="42.37942" lon="-7.7431226">
        <time>2021-11-27T10:18:49Z</time>
      </trkpt>
      <trkpt lat="42.37941" lon="-7.743138">
        <time>2021-11-27T10:18:50Z</time>
      </trkpt>
      <trkpt lat="42.379402" lon="-7.7431564">
        <time>2021-11-27T10:18:51Z</time>
      </trkpt>
      <trkpt lat="42.37939" lon="-7.7431746">
        <time>2021-11-27T10:18:52Z</time>
      </trkpt>
      <trkpt lat="42.379383" lon="-7.7431912">
        <time>2021-11-27T10:18:53Z</time>
      </trkpt>
      <trkpt lat="42.379375" lon="-7.743205">
        <time>2021-11-27T10:18:54Z</time>
      </trkpt>
      <trkpt lat="42.379368" lon="-7.7432165">
        <time>2021-11-27T10:18:55Z</time>
      </trkpt>
      <trkpt lat="42.37936" lon="-7.7432256">
        <time>2021-11-27T10:18:56Z</time>
      </trkpt>
      <trkpt lat="42.379353" lon="-7.7432346">
        <time>2021-11-27T10:18:57Z</time>
      </trkpt>
      <trkpt lat="42.379345" lon="-7.7432423">
        <time>2021-11-27T10:18:58Z</time>
      </trkpt>
      <trkpt lat="42.37934" lon="-7.7432485">
        <time>2021-11-27T10:18:59Z</time>
      </trkpt>
      <trkpt lat="42.379333" lon="-7.743253">
        <time>2021-11-27T10:19:00Z</time>
      </trkpt>
      <trkpt lat="42.379326" lon="-7.743254">
        <time>2021-11-27T10:19:01Z</time>
      </trkpt>
      <trkpt lat="42.379322" lon="-7.7432556">
        <time>2021-11-27T10:19:02Z</time>
      </trkpt>
      <trkpt lat="42.379314" lon="-7.7432575">
        <time>2021-11-27T10:19:03Z</time>
      </trkpt>
      <trkpt lat="42.379307" lon="-7.7432594">
        <time>2021-11-27T10:19:04Z</time>
      </trkpt>
      <trkpt lat="42.37929" lon="-7.743261">
        <time>2021-11-27T10:19:05Z</time>
      </trkpt>
      <trkpt lat="42.379272" lon="-7.7432613">
        <time>2021-11-27T10:19:06Z</time>
      </trkpt>
      <trkpt lat="42.379257" lon="-7.7432594">
        <time>2021-11-27T10:19:07Z</time>
      </trkpt>
      <trkpt lat="42.379242" lon="-7.743259">
        <time>2021-11-27T10:19:08Z</time>
      </trkpt>
      <trkpt lat="42.379227" lon="-7.7432613">
        <time>2021-11-27T10:19:09Z</time>
      </trkpt>
      <trkpt lat="42.379215" lon="-7.7432647">
        <time>2021-11-27T10:19:10Z</time>
      </trkpt>
      <trkpt lat="42.379208" lon="-7.7432685">
        <time>2021-11-27T10:19:11Z</time>
      </trkpt>
      <trkpt lat="42.3792" lon="-7.743276">
        <time>2021-11-27T10:19:12Z</time>
      </trkpt>
      <trkpt lat="42.379185" lon="-7.7432885">
        <time>2021-11-27T10:19:13Z</time>
      </trkpt>
      <trkpt lat="42.379166" lon="-7.743303">
        <time>2021-11-27T10:19:14Z</time>
      </trkpt>
      <trkpt lat="42.37915" lon="-7.7433176">
        <time>2021-11-27T10:19:15Z</time>
      </trkpt>
      <trkpt lat="42.379135" lon="-7.7433314">
        <time>2021-11-27T10:19:16Z</time>
      </trkpt>
      <trkpt lat="42.37912" lon="-7.7433457">
        <time>2021-11-27T10:19:17Z</time>
      </trkpt>
      <trkpt lat="42.379105" lon="-7.7433605">
        <time>2021-11-27T10:19:18Z</time>
      </trkpt>
      <trkpt lat="42.379093" lon="-7.743373">
        <time>2021-11-27T10:19:19Z</time>
      </trkpt>
      <trkpt lat="42.37908" lon="-7.743384">
        <time>2021-11-27T10:19:20Z</time>
      </trkpt>
      <trkpt lat="42.37907" lon="-7.7433915">
        <time>2021-11-27T10:19:21Z</time>
      </trkpt>
      <trkpt lat="42.379055" lon="-7.743396">
        <time>2021-11-27T10:19:22Z</time>
      </trkpt>
      <trkpt lat="42.379044" lon="-7.7434015">
        <time>2021-11-27T10:19:23Z</time>
      </trkpt>
      <trkpt lat="42.379032" lon="-7.7434072">
        <time>2021-11-27T10:19:24Z</time>
      </trkpt>
      <trkpt lat="42.37902" lon="-7.743414">
        <time>2021-11-27T10:19:25Z</time>
      </trkpt>
      <trkpt lat="42.37901" lon="-7.743418">
        <time>2021-11-27T10:19:26Z</time>
      </trkpt>
      <trkpt lat="42.378998" lon="-7.7434206">
        <time>2021-11-27T10:19:27Z</time>
      </trkpt>
      <trkpt lat="42.378986" lon="-7.7434196">
        <time>2021-11-27T10:19:28Z</time>
      </trkpt>
      <trkpt lat="42.37897" lon="-7.743416">
        <time>2021-11-27T10:19:29Z</time>
      </trkpt>
      <trkpt lat="42.37896" lon="-7.743418">
        <time>2021-11-27T10:19:30Z</time>
      </trkpt>
      <trkpt lat="42.37895" lon="-7.743424">
        <time>2021-11-27T10:19:31Z</time>
      </trkpt>
      <trkpt lat="42.37894" lon="-7.7434297">
        <time>2021-11-27T10:19:32Z</time>
      </trkpt>
      <trkpt lat="42.378933" lon="-7.743439">
        <time>2021-11-27T10:19:33Z</time>
      </trkpt>
      <trkpt lat="42.378925" lon="-7.7434506">
        <time>2021-11-27T10:19:34Z</time>
      </trkpt>
      <trkpt lat="42.378918" lon="-7.743465">
        <time>2021-11-27T10:19:35Z</time>
      </trkpt>
      <trkpt lat="42.37891" lon="-7.7434793">
        <time>2021-11-27T10:19:36Z</time>
      </trkpt>
      <trkpt lat="42.378902" lon="-7.7434926">
        <time>2021-11-27T10:19:37Z</time>
      </trkpt>
      <trkpt lat="42.378895" lon="-7.7435017">
        <time>2021-11-27T10:19:38Z</time>
      </trkpt>
      <trkpt lat="42.378883" lon="-7.7435083">
        <time>2021-11-27T10:19:39Z</time>
      </trkpt>
      <trkpt lat="42.378872" lon="-7.7435155">
        <time>2021-11-27T10:19:40Z</time>
      </trkpt>
      <trkpt lat="42.37886" lon="-7.743524">
        <time>2021-11-27T10:19:41Z</time>
      </trkpt>
      <trkpt lat="42.378853" lon="-7.743534">
        <time>2021-11-27T10:19:42Z</time>
      </trkpt>
      <trkpt lat="42.37884" lon="-7.743544">
        <time>2021-11-27T10:19:43Z</time>
      </trkpt>
      <trkpt lat="42.378834" lon="-7.743555">
        <time>2021-11-27T10:19:44Z</time>
      </trkpt>
      <trkpt lat="42.378826" lon="-7.743564">
        <time>2021-11-27T10:19:45Z</time>
      </trkpt>
      <trkpt lat="42.37882" lon="-7.743575">
        <time>2021-11-27T10:19:46Z</time>
      </trkpt>
      <trkpt lat="42.37881" lon="-7.743588">
        <time>2021-11-27T10:19:47Z</time>
      </trkpt>
      <trkpt lat="42.378803" lon="-7.743601">
        <time>2021-11-27T10:19:48Z</time>
      </trkpt>
      <trkpt lat="42.37879" lon="-7.743611">
        <time>2021-11-27T10:19:49Z</time>
      </trkpt>
      <trkpt lat="42.37878" lon="-7.743619">
        <time>2021-11-27T10:19:50Z</time>
      </trkpt>
      <trkpt lat="42.37877" lon="-7.7436275">
        <time>2021-11-27T10:19:51Z</time>
      </trkpt>
      <trkpt lat="42.378754" lon="-7.7436366">
        <time>2021-11-27T10:19:52Z</time>
      </trkpt>
      <trkpt lat="42.378746" lon="-7.7436457">
        <time>2021-11-27T10:19:53Z</time>
      </trkpt>
      <trkpt lat="42.37873" lon="-7.7436557">
        <time>2021-11-27T10:19:54Z</time>
      </trkpt>
      <trkpt lat="42.378723" lon="-7.7436666">
        <time>2021-11-27T10:19:55Z</time>
      </trkpt>
      <trkpt lat="42.378708" lon="-7.743678">
        <time>2021-11-27T10:19:56Z</time>
      </trkpt>
      <trkpt lat="42.378696" lon="-7.74369">
        <time>2021-11-27T10:19:57Z</time>
      </trkpt>
      <trkpt lat="42.378685" lon="-7.743703">
        <time>2021-11-27T10:19:58Z</time>
      </trkpt>
      <trkpt lat="42.378677" lon="-7.7437134">
        <time>2021-11-27T10:19:59Z</time>
      </trkpt>
      <trkpt lat="42.378674" lon="-7.7437243">
        <time>2021-11-27T10:20:00Z</time>
      </trkpt>
      <trkpt lat="42.378666" lon="-7.743734">
        <time>2021-11-27T10:20:01Z</time>
      </trkpt>
      <trkpt lat="42.378654" lon="-7.743744">
        <time>2021-11-27T10:20:02Z</time>
      </trkpt>
      <trkpt lat="42.378643" lon="-7.7437534">
        <time>2021-11-27T10:20:03Z</time>
      </trkpt>
      <trkpt lat="42.378635" lon="-7.743764">
        <time>2021-11-27T10:20:04Z</time>
      </trkpt>
      <trkpt lat="42.37862" lon="-7.7437735">
        <time>2021-11-27T10:20:05Z</time>
      </trkpt>
      <trkpt lat="42.378605" lon="-7.7437825">
        <time>2021-11-27T10:20:06Z</time>
      </trkpt>
      <trkpt lat="42.378593" lon="-7.743792">
        <time>2021-11-27T10:20:07Z</time>
      </trkpt>
      <trkpt lat="42.37858" lon="-7.7438016">
        <time>2021-11-27T10:20:08Z</time>
      </trkpt>
      <trkpt lat="42.378567" lon="-7.7438107">
        <time>2021-11-27T10:20:09Z</time>
      </trkpt>
      <trkpt lat="42.37855" lon="-7.7438164">
        <time>2021-11-27T10:20:10Z</time>
      </trkpt>
      <trkpt lat="42.378544" lon="-7.7438226">
        <time>2021-11-27T10:20:11Z</time>
      </trkpt>
      <trkpt lat="42.378536" lon="-7.7438283">
        <time>2021-11-27T10:20:12Z</time>
      </trkpt>
      <trkpt lat="42.37853" lon="-7.743835">
        <time>2021-11-27T10:20:13Z</time>
      </trkpt>
      <trkpt lat="42.378517" lon="-7.7438426">
        <time>2021-11-27T10:20:14Z</time>
      </trkpt>
      <trkpt lat="42.37851" lon="-7.7438483">
        <time>2021-11-27T10:20:15Z</time>
      </trkpt>
      <trkpt lat="42.378506" lon="-7.7438526">
        <time>2021-11-27T10:20:16Z</time>
      </trkpt>
      <trkpt lat="42.3785" lon="-7.7438574">
        <time>2021-11-27T10:20:17Z</time>
      </trkpt>
      <trkpt lat="42.378498" lon="-7.7438626">
        <time>2021-11-27T10:20:18Z</time>
      </trkpt>
      <trkpt lat="42.378494" lon="-7.7438664">
        <time>2021-11-27T10:20:19Z</time>
      </trkpt>
      <trkpt lat="42.378487" lon="-7.7438684">
        <time>2021-11-27T10:20:20Z</time>
      </trkpt>
      <trkpt lat="42.37848" lon="-7.7438703">
        <time>2021-11-27T10:20:21Z</time>
      </trkpt>
      <trkpt lat="42.37847" lon="-7.743871">
        <time>2021-11-27T10:20:22Z</time>
      </trkpt>
      <trkpt lat="42.378464" lon="-7.743873">
        <time>2021-11-27T10:20:23Z</time>
      </trkpt>
      <trkpt lat="42.378456" lon="-7.743876">
        <time>2021-11-27T10:20:24Z</time>
      </trkpt>
      <trkpt lat="42.37845" lon="-7.7438784">
        <time>2021-11-27T10:20:25Z</time>
      </trkpt>
      <trkpt lat="42.378433" lon="-7.7438836">
        <time>2021-11-27T10:20:26Z</time>
      </trkpt>
      <trkpt lat="42.378418" lon="-7.74389">
        <time>2021-11-27T10:20:27Z</time>
      </trkpt>
      <trkpt lat="42.378407" lon="-7.743897">
        <time>2021-11-27T10:20:28Z</time>
      </trkpt>
      <trkpt lat="42.378395" lon="-7.743905">
        <time>2021-11-27T10:20:29Z</time>
      </trkpt>
      <trkpt lat="42.37838" lon="-7.743914">
        <time>2021-11-27T10:20:30Z</time>
      </trkpt>
      <trkpt lat="42.37837" lon="-7.7439246">
        <time>2021-11-27T10:20:31Z</time>
      </trkpt>
      <trkpt lat="42.378353" lon="-7.743936">
        <time>2021-11-27T10:20:32Z</time>
      </trkpt>
      <trkpt lat="42.378334" lon="-7.743948">
        <time>2021-11-27T10:20:33Z</time>
      </trkpt>
      <trkpt lat="42.37831" lon="-7.743959">
        <time>2021-11-27T10:20:34Z</time>
      </trkpt>
      <trkpt lat="42.378292" lon="-7.7439647">
        <time>2021-11-27T10:20:35Z</time>
      </trkpt>
      <trkpt lat="42.37827" lon="-7.7439704">
        <time>2021-11-27T10:20:36Z</time>
      </trkpt>
      <trkpt lat="42.378254" lon="-7.743975">
        <time>2021-11-27T10:20:37Z</time>
      </trkpt>
      <trkpt lat="42.37824" lon="-7.74398">
        <time>2021-11-27T10:20:38Z</time>
      </trkpt>
      <trkpt lat="42.378227" lon="-7.7439847">
        <time>2021-11-27T10:20:39Z</time>
      </trkpt>
      <trkpt lat="42.378216" lon="-7.743988">
        <time>2021-11-27T10:20:40Z</time>
      </trkpt>
      <trkpt lat="42.378204" lon="-7.74399">
        <time>2021-11-27T10:20:42Z</time>
      </trkpt>
      <trkpt lat="42.378197" lon="-7.7439938">
        <time>2021-11-27T10:20:42Z</time>
      </trkpt>
      <trkpt lat="42.378193" lon="-7.7439976">
        <time>2021-11-27T10:20:43Z</time>
      </trkpt>
      <trkpt lat="42.37818" lon="-7.744018">
        <time>2021-11-27T10:20:45Z</time>
      </trkpt>
      <trkpt lat="42.378174" lon="-7.744019">
        <time>2021-11-27T10:20:47Z</time>
      </trkpt>
      <trkpt lat="42.37817" lon="-7.744017">
        <time>2021-11-27T10:20:48Z</time>
      </trkpt>
      <trkpt lat="42.378162" lon="-7.7440147">
        <time>2021-11-27T10:20:49Z</time>
      </trkpt>
      <trkpt lat="42.378155" lon="-7.7440124">
        <time>2021-11-27T10:20:50Z</time>
      </trkpt>
      <trkpt lat="42.37814" lon="-7.7440114">
        <time>2021-11-27T10:20:51Z</time>
      </trkpt>
      <trkpt lat="42.378128" lon="-7.7440104">
        <time>2021-11-27T10:20:52Z</time>
      </trkpt>
      <trkpt lat="42.378113" lon="-7.7440095">
        <time>2021-11-27T10:20:53Z</time>
      </trkpt>
      <trkpt lat="42.378098" lon="-7.7440095">
        <time>2021-11-27T10:20:54Z</time>
      </trkpt>
      <trkpt lat="42.37809" lon="-7.7440133">
        <time>2021-11-27T10:20:55Z</time>
      </trkpt>
      <trkpt lat="42.37808" lon="-7.744017">
        <time>2021-11-27T10:20:56Z</time>
      </trkpt>
      <trkpt lat="42.37807" lon="-7.744016">
        <time>2021-11-27T10:20:57Z</time>
      </trkpt>
      <trkpt lat="42.37806" lon="-7.744013">
        <time>2021-11-27T10:20:58Z</time>
      </trkpt>
      <trkpt lat="42.378048" lon="-7.7440076">
        <time>2021-11-27T10:20:59Z</time>
      </trkpt>
      <trkpt lat="42.378036" lon="-7.744007">
        <time>2021-11-27T10:21:00Z</time>
      </trkpt>
      <trkpt lat="42.37802" lon="-7.7440076">
        <time>2021-11-27T10:21:01Z</time>
      </trkpt>
      <trkpt lat="42.378006" lon="-7.744009">
        <time>2021-11-27T10:21:02Z</time>
      </trkpt>
      <trkpt lat="42.377995" lon="-7.744007">
        <time>2021-11-27T10:21:03Z</time>
      </trkpt>
      <trkpt lat="42.377983" lon="-7.7440014">
        <time>2021-11-27T10:21:04Z</time>
      </trkpt>
      <trkpt lat="42.37797" lon="-7.743998">
        <time>2021-11-27T10:21:05Z</time>
      </trkpt>
      <trkpt lat="42.37796" lon="-7.7439947">
        <time>2021-11-27T10:21:06Z</time>
      </trkpt>
      <trkpt lat="42.37795" lon="-7.7439938">
        <time>2021-11-27T10:21:07Z</time>
      </trkpt>
      <trkpt lat="42.377937" lon="-7.7439938">
        <time>2021-11-27T10:21:08Z</time>
      </trkpt>
      <trkpt lat="42.377926" lon="-7.7439957">
        <time>2021-11-27T10:21:09Z</time>
      </trkpt>
      <trkpt lat="42.37792" lon="-7.7439966">
        <time>2021-11-27T10:21:10Z</time>
      </trkpt>
      <trkpt lat="42.37791" lon="-7.743998">
        <time>2021-11-27T10:21:11Z</time>
      </trkpt>
      <trkpt lat="42.377903" lon="-7.7439995">
        <time>2021-11-27T10:21:12Z</time>
      </trkpt>
      <trkpt lat="42.377895" lon="-7.744002">
        <time>2021-11-27T10:21:13Z</time>
      </trkpt>
      <trkpt lat="42.377888" lon="-7.744004">
        <time>2021-11-27T10:21:14Z</time>
      </trkpt>
      <trkpt lat="42.37788" lon="-7.7440066">
        <time>2021-11-27T10:21:15Z</time>
      </trkpt>
      <trkpt lat="42.37788" lon="-7.7440076">
        <time>2021-11-27T10:21:16Z</time>
      </trkpt>
      <trkpt lat="42.377853" lon="-7.744018">
        <time>2021-11-27T10:21:18Z</time>
      </trkpt>
      <trkpt lat="42.377846" lon="-7.7440205">
        <time>2021-11-27T10:21:19Z</time>
      </trkpt>
      <trkpt lat="42.37784" lon="-7.7440267">
        <time>2021-11-27T10:21:20Z</time>
      </trkpt>
      <trkpt lat="42.377827" lon="-7.744032">
        <time>2021-11-27T10:21:21Z</time>
      </trkpt>
      <trkpt lat="42.377815" lon="-7.7440376">
        <time>2021-11-27T10:21:22Z</time>
      </trkpt>
      <trkpt lat="42.377804" lon="-7.7440434">
        <time>2021-11-27T10:21:23Z</time>
      </trkpt>
      <trkpt lat="42.377796" lon="-7.7440486">
        <time>2021-11-27T10:21:24Z</time>
      </trkpt>
      <trkpt lat="42.37778" lon="-7.744053">
        <time>2021-11-27T10:21:25Z</time>
      </trkpt>
      <trkpt lat="42.377766" lon="-7.7440543">
        <time>2021-11-27T10:21:26Z</time>
      </trkpt>
      <trkpt lat="42.377747" lon="-7.7440557">
        <time>2021-11-27T10:21:27Z</time>
      </trkpt>
      <trkpt lat="42.377728" lon="-7.744059">
        <time>2021-11-27T10:21:28Z</time>
      </trkpt>
      <trkpt lat="42.37771" lon="-7.744061">
        <time>2021-11-27T10:21:29Z</time>
      </trkpt>
      <trkpt lat="42.377697" lon="-7.7440634">
        <time>2021-11-27T10:21:30Z</time>
      </trkpt>
      <trkpt lat="42.37768" lon="-7.744064">
        <time>2021-11-27T10:21:31Z</time>
      </trkpt>
      <trkpt lat="42.37767" lon="-7.7440667">
        <time>2021-11-27T10:21:32Z</time>
      </trkpt>
      <trkpt lat="42.377655" lon="-7.744069">
        <time>2021-11-27T10:21:33Z</time>
      </trkpt>
      <trkpt lat="42.377647" lon="-7.744071">
        <time>2021-11-27T10:21:34Z</time>
      </trkpt>
      <trkpt lat="42.37764" lon="-7.7440724">
        <time>2021-11-27T10:21:35Z</time>
      </trkpt>
      <trkpt lat="42.377632" lon="-7.7440753">
        <time>2021-11-27T10:21:36Z</time>
      </trkpt>
      <trkpt lat="42.377625" lon="-7.7440796">
        <time>2021-11-27T10:21:37Z</time>
      </trkpt>
      <trkpt lat="42.377613" lon="-7.7440853">
        <time>2021-11-27T10:21:38Z</time>
      </trkpt>
      <trkpt lat="42.3776" lon="-7.744093">
        <time>2021-11-27T10:21:39Z</time>
      </trkpt>
      <trkpt lat="42.377586" lon="-7.7441006">
        <time>2021-11-27T10:21:40Z</time>
      </trkpt>
      <trkpt lat="42.377575" lon="-7.7441087">
        <time>2021-11-27T10:21:41Z</time>
      </trkpt>
      <trkpt lat="42.377563" lon="-7.7441173">
        <time>2021-11-27T10:21:42Z</time>
      </trkpt>
      <trkpt lat="42.37755" lon="-7.7441254">
        <time>2021-11-27T10:21:43Z</time>
      </trkpt>
      <trkpt lat="42.377533" lon="-7.744135">
        <time>2021-11-27T10:21:44Z</time>
      </trkpt>
      <trkpt lat="42.37752" lon="-7.744146">
        <time>2021-11-27T10:21:45Z</time>
      </trkpt>
      <trkpt lat="42.37751" lon="-7.7441583">
        <time>2021-11-27T10:21:46Z</time>
      </trkpt>
      <trkpt lat="42.3775" lon="-7.7441716">
        <time>2021-11-27T10:21:47Z</time>
      </trkpt>
      <trkpt lat="42.37749" lon="-7.7441826">
        <time>2021-11-27T10:21:48Z</time>
      </trkpt>
      <trkpt lat="42.377476" lon="-7.744194">
        <time>2021-11-27T10:21:49Z</time>
      </trkpt>
      <trkpt lat="42.37746" lon="-7.744206">
        <time>2021-11-27T10:21:50Z</time>
      </trkpt>
      <trkpt lat="42.377445" lon="-7.744217">
        <time>2021-11-27T10:21:51Z</time>
      </trkpt>
      <trkpt lat="42.37743" lon="-7.7442274">
        <time>2021-11-27T10:21:52Z</time>
      </trkpt>
      <trkpt lat="42.377422" lon="-7.7442355">
        <time>2021-11-27T10:21:53Z</time>
      </trkpt>
      <trkpt lat="42.377415" lon="-7.7442427">
        <time>2021-11-27T10:21:54Z</time>
      </trkpt>
      <trkpt lat="42.377407" lon="-7.744249">
        <time>2021-11-27T10:21:55Z</time>
      </trkpt>
      <trkpt lat="42.377407" lon="-7.7442555">
        <time>2021-11-27T10:21:56Z</time>
      </trkpt>
      <trkpt lat="42.3774" lon="-7.7442617">
        <time>2021-11-27T10:21:57Z</time>
      </trkpt>
      <trkpt lat="42.37739" lon="-7.7442675">
        <time>2021-11-27T10:21:58Z</time>
      </trkpt>
      <trkpt lat="42.377388" lon="-7.744276">
        <time>2021-11-27T10:21:59Z</time>
      </trkpt>
      <trkpt lat="42.37738" lon="-7.744284">
        <time>2021-11-27T10:22:00Z</time>
      </trkpt>
      <trkpt lat="42.377373" lon="-7.744294">
        <time>2021-11-27T10:22:01Z</time>
      </trkpt>
      <trkpt lat="42.37737" lon="-7.744304">
        <time>2021-11-27T10:22:02Z</time>
      </trkpt>
      <trkpt lat="42.377357" lon="-7.7443137">
        <time>2021-11-27T10:22:03Z</time>
      </trkpt>
      <trkpt lat="42.37735" lon="-7.744325">
        <time>2021-11-27T10:22:04Z</time>
      </trkpt>
      <trkpt lat="42.377346" lon="-7.744336">
        <time>2021-11-27T10:22:04Z</time>
      </trkpt>
      <trkpt lat="42.377342" lon="-7.744347">
        <time>2021-11-27T10:22:05Z</time>
      </trkpt>
      <trkpt lat="42.37734" lon="-7.7443566">
        <time>2021-11-27T10:22:06Z</time>
      </trkpt>
      <trkpt lat="42.377335" lon="-7.7443647">
        <time>2021-11-27T10:22:07Z</time>
      </trkpt>
      <trkpt lat="42.37733" lon="-7.744372">
        <time>2021-11-27T10:22:08Z</time>
      </trkpt>
      <trkpt lat="42.377327" lon="-7.7443776">
        <time>2021-11-27T10:22:09Z</time>
      </trkpt>
      <trkpt lat="42.37732" lon="-7.744384">
        <time>2021-11-27T10:22:10Z</time>
      </trkpt>
      <trkpt lat="42.377308" lon="-7.7443905">
        <time>2021-11-27T10:22:11Z</time>
      </trkpt>
      <trkpt lat="42.377296" lon="-7.7443986">
        <time>2021-11-27T10:22:12Z</time>
      </trkpt>
      <trkpt lat="42.377285" lon="-7.7444077">
        <time>2021-11-27T10:22:13Z</time>
      </trkpt>
      <trkpt lat="42.377274" lon="-7.744415">
        <time>2021-11-27T10:22:14Z</time>
      </trkpt>
      <trkpt lat="42.37726" lon="-7.744425">
        <time>2021-11-27T10:22:15Z</time>
      </trkpt>
      <trkpt lat="42.377247" lon="-7.7444353">
        <time>2021-11-27T10:22:16Z</time>
      </trkpt>
      <trkpt lat="42.377235" lon="-7.744445">
        <time>2021-11-27T10:22:17Z</time>
      </trkpt>
      <trkpt lat="42.377228" lon="-7.744455">
        <time>2021-11-27T10:22:18Z</time>
      </trkpt>
      <trkpt lat="42.37722" lon="-7.744465">
        <time>2021-11-27T10:22:19Z</time>
      </trkpt>
      <trkpt lat="42.377205" lon="-7.7444754">
        <time>2021-11-27T10:22:20Z</time>
      </trkpt>
      <trkpt lat="42.37719" lon="-7.7444863">
        <time>2021-11-27T10:22:21Z</time>
      </trkpt>
      <trkpt lat="42.377174" lon="-7.7444954">
        <time>2021-11-27T10:22:22Z</time>
      </trkpt>
      <trkpt lat="42.37715" lon="-7.7445025">
        <time>2021-11-27T10:22:23Z</time>
      </trkpt>
      <trkpt lat="42.377132" lon="-7.7445073">
        <time>2021-11-27T10:22:24Z</time>
      </trkpt>
      <trkpt lat="42.377117" lon="-7.744511">
        <time>2021-11-27T10:22:25Z</time>
      </trkpt>
      <trkpt lat="42.3771" lon="-7.7445145">
        <time>2021-11-27T10:22:26Z</time>
      </trkpt>
      <trkpt lat="42.377087" lon="-7.7445173">
        <time>2021-11-27T10:22:27Z</time>
      </trkpt>
      <trkpt lat="42.37708" lon="-7.7445216">
        <time>2021-11-27T10:22:28Z</time>
      </trkpt>
      <trkpt lat="42.377068" lon="-7.7445254">
        <time>2021-11-27T10:22:29Z</time>
      </trkpt>
      <trkpt lat="42.377056" lon="-7.744533">
        <time>2021-11-27T10:22:30Z</time>
      </trkpt>
      <trkpt lat="42.377045" lon="-7.7445436">
        <time>2021-11-27T10:22:31Z</time>
      </trkpt>
      <trkpt lat="42.377033" lon="-7.7445555">
        <time>2021-11-27T10:22:32Z</time>
      </trkpt>
      <trkpt lat="42.377026" lon="-7.744566">
        <time>2021-11-27T10:22:33Z</time>
      </trkpt>
      <trkpt lat="42.37701" lon="-7.7445765">
        <time>2021-11-27T10:22:34Z</time>
      </trkpt>
      <trkpt lat="42.377003" lon="-7.744589">
        <time>2021-11-27T10:22:35Z</time>
      </trkpt>
      <trkpt lat="42.376987" lon="-7.7446017">
        <time>2021-11-27T10:22:36Z</time>
      </trkpt>
      <trkpt lat="42.37698" lon="-7.7446136">
        <time>2021-11-27T10:22:37Z</time>
      </trkpt>
      <trkpt lat="42.37697" lon="-7.744625">
        <time>2021-11-27T10:22:38Z</time>
      </trkpt>
      <trkpt lat="42.37696" lon="-7.744636">
        <time>2021-11-27T10:22:39Z</time>
      </trkpt>
      <trkpt lat="42.376953" lon="-7.7446465">
        <time>2021-11-27T10:22:40Z</time>
      </trkpt>
      <trkpt lat="42.376945" lon="-7.7446566">
        <time>2021-11-27T10:22:41Z</time>
      </trkpt>
      <trkpt lat="42.376938" lon="-7.744667">
        <time>2021-11-27T10:22:42Z</time>
      </trkpt>
      <trkpt lat="42.376926" lon="-7.7446775">
        <time>2021-11-27T10:22:43Z</time>
      </trkpt>
      <trkpt lat="42.376915" lon="-7.7446895">
        <time>2021-11-27T10:22:44Z</time>
      </trkpt>
      <trkpt lat="42.376907" lon="-7.744706">
        <time>2021-11-27T10:22:45Z</time>
      </trkpt>
      <trkpt lat="42.376892" lon="-7.744722">
        <time>2021-11-27T10:22:46Z</time>
      </trkpt>
      <trkpt lat="42.376877" lon="-7.744735">
        <time>2021-11-27T10:22:47Z</time>
      </trkpt>
      <trkpt lat="42.37686" lon="-7.7447443">
        <time>2021-11-27T10:22:48Z</time>
      </trkpt>
      <trkpt lat="42.37685" lon="-7.7447534">
        <time>2021-11-27T10:22:49Z</time>
      </trkpt>
      <trkpt lat="42.37684" lon="-7.7447643">
        <time>2021-11-27T10:22:50Z</time>
      </trkpt>
      <trkpt lat="42.37683" lon="-7.744775">
        <time>2021-11-27T10:22:51Z</time>
      </trkpt>
      <trkpt lat="42.376816" lon="-7.7447886">
        <time>2021-11-27T10:22:52Z</time>
      </trkpt>
      <trkpt lat="42.376804" lon="-7.7448025">
        <time>2021-11-27T10:22:53Z</time>
      </trkpt>
      <trkpt lat="42.376793" lon="-7.7448115">
        <time>2021-11-27T10:22:54Z</time>
      </trkpt>
      <trkpt lat="42.376785" lon="-7.7448173">
        <time>2021-11-27T10:22:55Z</time>
      </trkpt>
      <trkpt lat="42.376778" lon="-7.7448206">
        <time>2021-11-27T10:22:56Z</time>
      </trkpt>
      <trkpt lat="42.376774" lon="-7.7448215">
        <time>2021-11-27T10:22:57Z</time>
      </trkpt>
      <trkpt lat="42.376766" lon="-7.7448215">
        <time>2021-11-27T10:22:58Z</time>
      </trkpt>
      <trkpt lat="42.37676" lon="-7.7448215">
        <time>2021-11-27T10:22:59Z</time>
      </trkpt>
      <trkpt lat="42.37675" lon="-7.7448235">
        <time>2021-11-27T10:23:00Z</time>
      </trkpt>
      <trkpt lat="42.376743" lon="-7.7448277">
        <time>2021-11-27T10:23:01Z</time>
      </trkpt>
      <trkpt lat="42.376736" lon="-7.74483">
        <time>2021-11-27T10:23:02Z</time>
      </trkpt>
      <trkpt lat="42.376724" lon="-7.7448335">
        <time>2021-11-27T10:23:03Z</time>
      </trkpt>
      <trkpt lat="42.376713" lon="-7.7448378">
        <time>2021-11-27T10:23:04Z</time>
      </trkpt>
      <trkpt lat="42.376705" lon="-7.7448435">
        <time>2021-11-27T10:23:05Z</time>
      </trkpt>
      <trkpt lat="42.37669" lon="-7.7448497">
        <time>2021-11-27T10:23:06Z</time>
      </trkpt>
      <trkpt lat="42.376675" lon="-7.7448583">
        <time>2021-11-27T10:23:07Z</time>
      </trkpt>
      <trkpt lat="42.37666" lon="-7.744868">
        <time>2021-11-27T10:23:08Z</time>
      </trkpt>
      <trkpt lat="42.376648" lon="-7.744877">
        <time>2021-11-27T10:23:09Z</time>
      </trkpt>
      <trkpt lat="42.37663" lon="-7.7448936">
        <time>2021-11-27T10:23:11Z</time>
      </trkpt>
      <trkpt lat="42.37662" lon="-7.7449007">
        <time>2021-11-27T10:23:12Z</time>
      </trkpt>
      <trkpt lat="42.37661" lon="-7.7449055">
        <time>2021-11-27T10:23:13Z</time>
      </trkpt>
      <trkpt lat="42.3766" lon="-7.7449102">
        <time>2021-11-27T10:23:14Z</time>
      </trkpt>
      <trkpt lat="42.37659" lon="-7.744915">
        <time>2021-11-27T10:23:15Z</time>
      </trkpt>
      <trkpt lat="42.37658" lon="-7.7449217">
        <time>2021-11-27T10:23:16Z</time>
      </trkpt>
      <trkpt lat="42.376568" lon="-7.744925">
        <time>2021-11-27T10:23:17Z</time>
      </trkpt>
      <trkpt lat="42.376553" lon="-7.744927">
        <time>2021-11-27T10:23:18Z</time>
      </trkpt>
      <trkpt lat="42.376537" lon="-7.744929">
        <time>2021-11-27T10:23:19Z</time>
      </trkpt>
      <trkpt lat="42.376526" lon="-7.7449307">
        <time>2021-11-27T10:23:20Z</time>
      </trkpt>
      <trkpt lat="42.37651" lon="-7.7449346">
        <time>2021-11-27T10:23:21Z</time>
      </trkpt>
      <trkpt lat="42.376503" lon="-7.744937">
        <time>2021-11-27T10:23:22Z</time>
      </trkpt>
      <trkpt lat="42.37649" lon="-7.7449403">
        <time>2021-11-27T10:23:23Z</time>
      </trkpt>
      <trkpt lat="42.37648" lon="-7.7449446">
        <time>2021-11-27T10:23:24Z</time>
      </trkpt>
      <trkpt lat="42.376472" lon="-7.7449517">
        <time>2021-11-27T10:23:25Z</time>
      </trkpt>
      <trkpt lat="42.376457" lon="-7.7449627">
        <time>2021-11-27T10:23:26Z</time>
      </trkpt>
      <trkpt lat="42.37645" lon="-7.7449756">
        <time>2021-11-27T10:23:27Z</time>
      </trkpt>
      <trkpt lat="42.376434" lon="-7.74499">
        <time>2021-11-27T10:23:28Z</time>
      </trkpt>
      <trkpt lat="42.376427" lon="-7.745001">
        <time>2021-11-27T10:23:29Z</time>
      </trkpt>
      <trkpt lat="42.376415" lon="-7.7450094">
        <time>2021-11-27T10:23:30Z</time>
      </trkpt>
      <trkpt lat="42.376404" lon="-7.7450175">
        <time>2021-11-27T10:23:31Z</time>
      </trkpt>
      <trkpt lat="42.376392" lon="-7.745026">
        <time>2021-11-27T10:23:32Z</time>
      </trkpt>
      <trkpt lat="42.376385" lon="-7.745034">
        <time>2021-11-27T10:23:33Z</time>
      </trkpt>
      <trkpt lat="42.376373" lon="-7.745042">
        <time>2021-11-27T10:23:34Z</time>
      </trkpt>
      <trkpt lat="42.37636" lon="-7.7450495">
        <time>2021-11-27T10:23:35Z</time>
      </trkpt>
      <trkpt lat="42.376347" lon="-7.745057">
        <time>2021-11-27T10:23:36Z</time>
      </trkpt>
      <trkpt lat="42.376335" lon="-7.7450647">
        <time>2021-11-27T10:23:37Z</time>
      </trkpt>
      <trkpt lat="42.376324" lon="-7.745074">
        <time>2021-11-27T10:23:38Z</time>
      </trkpt>
      <trkpt lat="42.376312" lon="-7.745081">
        <time>2021-11-27T10:23:39Z</time>
      </trkpt>
      <trkpt lat="42.376297" lon="-7.745089">
        <time>2021-11-27T10:23:40Z</time>
      </trkpt>
      <trkpt lat="42.376286" lon="-7.7450976">
        <time>2021-11-27T10:23:41Z</time>
      </trkpt>
      <trkpt lat="42.37627" lon="-7.745104">
        <time>2021-11-27T10:23:42Z</time>
      </trkpt>
      <trkpt lat="42.376255" lon="-7.745109">
        <time>2021-11-27T10:23:43Z</time>
      </trkpt>
      <trkpt lat="42.37624" lon="-7.745115">
        <time>2021-11-27T10:23:44Z</time>
      </trkpt>
      <trkpt lat="42.37623" lon="-7.7451186">
        <time>2021-11-27T10:23:45Z</time>
      </trkpt>
      <trkpt lat="42.37622" lon="-7.7451186">
        <time>2021-11-27T10:23:46Z</time>
      </trkpt>
      <trkpt lat="42.376213" lon="-7.7451177">
        <time>2021-11-27T10:23:47Z</time>
      </trkpt>
      <trkpt lat="42.376205" lon="-7.7451177">
        <time>2021-11-27T10:23:48Z</time>
      </trkpt>
      <trkpt lat="42.376198" lon="-7.745118">
        <time>2021-11-27T10:23:49Z</time>
      </trkpt>
      <trkpt lat="42.37619" lon="-7.7451167">
        <time>2021-11-27T10:23:50Z</time>
      </trkpt>
      <trkpt lat="42.376186" lon="-7.745113">
        <time>2021-11-27T10:23:51Z</time>
      </trkpt>
      <trkpt lat="42.376183" lon="-7.745111">
        <time>2021-11-27T10:23:52Z</time>
      </trkpt>
      <trkpt lat="42.376175" lon="-7.7451105">
        <time>2021-11-27T10:23:53Z</time>
      </trkpt>
      <trkpt lat="42.376167" lon="-7.745111">
        <time>2021-11-27T10:23:54Z</time>
      </trkpt>
      <trkpt lat="42.37616" lon="-7.7451115">
        <time>2021-11-27T10:23:55Z</time>
      </trkpt>
      <trkpt lat="42.376152" lon="-7.7451115">
        <time>2021-11-27T10:23:56Z</time>
      </trkpt>
      <trkpt lat="42.376144" lon="-7.7451115">
        <time>2021-11-27T10:23:57Z</time>
      </trkpt>
      <trkpt lat="42.376137" lon="-7.745113">
        <time>2021-11-27T10:23:58Z</time>
      </trkpt>
      <trkpt lat="42.37613" lon="-7.745116">
        <time>2021-11-27T10:23:59Z</time>
      </trkpt>
      <trkpt lat="42.376118" lon="-7.7451205">
        <time>2021-11-27T10:24:00Z</time>
      </trkpt>
      <trkpt lat="42.37611" lon="-7.7451262">
        <time>2021-11-27T10:24:01Z</time>
      </trkpt>
      <trkpt lat="42.3761" lon="-7.745132">
        <time>2021-11-27T10:24:02Z</time>
      </trkpt>
      <trkpt lat="42.37609" lon="-7.745137">
        <time>2021-11-27T10:24:03Z</time>
      </trkpt>
      <trkpt lat="42.376083" lon="-7.745143">
        <time>2021-11-27T10:24:04Z</time>
      </trkpt>
      <trkpt lat="42.376072" lon="-7.7451506">
        <time>2021-11-27T10:24:05Z</time>
      </trkpt>
      <trkpt lat="42.37606" lon="-7.7451596">
        <time>2021-11-27T10:24:06Z</time>
      </trkpt>
      <trkpt lat="42.37605" lon="-7.745171">
        <time>2021-11-27T10:24:07Z</time>
      </trkpt>
      <trkpt lat="42.376038" lon="-7.7451835">
        <time>2021-11-27T10:24:08Z</time>
      </trkpt>
      <trkpt lat="42.376026" lon="-7.745195">
        <time>2021-11-27T10:24:09Z</time>
      </trkpt>
      <trkpt lat="42.37601" lon="-7.7452064">
        <time>2021-11-27T10:24:10Z</time>
      </trkpt>
      <trkpt lat="42.375996" lon="-7.7452197">
        <time>2021-11-27T10:24:11Z</time>
      </trkpt>
      <trkpt lat="42.375988" lon="-7.745232">
        <time>2021-11-27T10:24:12Z</time>
      </trkpt>
      <trkpt lat="42.375973" lon="-7.745243">
        <time>2021-11-27T10:24:13Z</time>
      </trkpt>
      <trkpt lat="42.375965" lon="-7.745257">
        <time>2021-11-27T10:24:14Z</time>
      </trkpt>
      <trkpt lat="42.375954" lon="-7.745271">
        <time>2021-11-27T10:24:15Z</time>
      </trkpt>
      <trkpt lat="42.375942" lon="-7.7452826">
        <time>2021-11-27T10:24:16Z</time>
      </trkpt>
      <trkpt lat="42.375935" lon="-7.745298">
        <time>2021-11-27T10:24:17Z</time>
      </trkpt>
      <trkpt lat="42.375923" lon="-7.7453165">
        <time>2021-11-27T10:24:18Z</time>
      </trkpt>
      <trkpt lat="42.37591" lon="-7.7453365">
        <time>2021-11-27T10:24:19Z</time>
      </trkpt>
      <trkpt lat="42.375904" lon="-7.7453594">
        <time>2021-11-27T10:24:20Z</time>
      </trkpt>
      <trkpt lat="42.375893" lon="-7.7453837">
        <time>2021-11-27T10:24:21Z</time>
      </trkpt>
      <trkpt lat="42.37589" lon="-7.7454057">
        <time>2021-11-27T10:24:22Z</time>
      </trkpt>
      <trkpt lat="42.37588" lon="-7.7454247">
        <time>2021-11-27T10:24:23Z</time>
      </trkpt>
      <trkpt lat="42.375874" lon="-7.7454414">
        <time>2021-11-27T10:24:24Z</time>
      </trkpt>
      <trkpt lat="42.37587" lon="-7.7454553">
        <time>2021-11-27T10:24:25Z</time>
      </trkpt>
      <trkpt lat="42.375866" lon="-7.745468">
        <time>2021-11-27T10:24:26Z</time>
      </trkpt>
      <trkpt lat="42.37586" lon="-7.7454815">
        <time>2021-11-27T10:24:27Z</time>
      </trkpt>
      <trkpt lat="42.375854" lon="-7.745495">
        <time>2021-11-27T10:24:28Z</time>
      </trkpt>
      <trkpt lat="42.37585" lon="-7.7455106">
        <time>2021-11-27T10:24:29Z</time>
      </trkpt>
      <trkpt lat="42.375847" lon="-7.7455263">
        <time>2021-11-27T10:24:30Z</time>
      </trkpt>
      <trkpt lat="42.375843" lon="-7.7455416">
        <time>2021-11-27T10:24:31Z</time>
      </trkpt>
      <trkpt lat="42.375835" lon="-7.745558">
        <time>2021-11-27T10:24:32Z</time>
      </trkpt>
      <trkpt lat="42.375835" lon="-7.745574">
        <time>2021-11-27T10:24:33Z</time>
      </trkpt>
      <trkpt lat="42.37583" lon="-7.7455897">
        <time>2021-11-27T10:24:34Z</time>
      </trkpt>
      <trkpt lat="42.37583" lon="-7.745605">
        <time>2021-11-27T10:24:35Z</time>
      </trkpt>
      <trkpt lat="42.375828" lon="-7.7456203">
        <time>2021-11-27T10:24:36Z</time>
      </trkpt>
      <trkpt lat="42.375828" lon="-7.745635">
        <time>2021-11-27T10:24:37Z</time>
      </trkpt>
      <trkpt lat="42.37582" lon="-7.7456517">
        <time>2021-11-27T10:24:38Z</time>
      </trkpt>
      <trkpt lat="42.375816" lon="-7.74567">
        <time>2021-11-27T10:24:39Z</time>
      </trkpt>
      <trkpt lat="42.37581" lon="-7.7456875">
        <time>2021-11-27T10:24:41Z</time>
      </trkpt>
      <trkpt lat="42.3758" lon="-7.745704">
        <time>2021-11-27T10:24:41Z</time>
      </trkpt>
      <trkpt lat="42.375793" lon="-7.745723">
        <time>2021-11-27T10:24:42Z</time>
      </trkpt>
      <trkpt lat="42.375786" lon="-7.7457414">
        <time>2021-11-27T10:24:43Z</time>
      </trkpt>
      <trkpt lat="42.37578" lon="-7.74576">
        <time>2021-11-27T10:24:44Z</time>
      </trkpt>
      <trkpt lat="42.375767" lon="-7.745783">
        <time>2021-11-27T10:24:45Z</time>
      </trkpt>
      <trkpt lat="42.37576" lon="-7.7458034">
        <time>2021-11-27T10:24:46Z</time>
      </trkpt>
      <trkpt lat="42.375755" lon="-7.7458253">
        <time>2021-11-27T10:24:47Z</time>
      </trkpt>
      <trkpt lat="42.37575" lon="-7.745847">
        <time>2021-11-27T10:24:48Z</time>
      </trkpt>
      <trkpt lat="42.375748" lon="-7.7458687">
        <time>2021-11-27T10:24:49Z</time>
      </trkpt>
      <trkpt lat="42.37574" lon="-7.7458906">
        <time>2021-11-27T10:24:50Z</time>
      </trkpt>
      <trkpt lat="42.375736" lon="-7.745915">
        <time>2021-11-27T10:24:51Z</time>
      </trkpt>
      <trkpt lat="42.375732" lon="-7.745938">
        <time>2021-11-27T10:24:52Z</time>
      </trkpt>
      <trkpt lat="42.375725" lon="-7.7459617">
        <time>2021-11-27T10:24:53Z</time>
      </trkpt>
      <trkpt lat="42.375717" lon="-7.745984">
        <time>2021-11-27T10:24:54Z</time>
      </trkpt>
      <trkpt lat="42.375713" lon="-7.7460046">
        <time>2021-11-27T10:24:55Z</time>
      </trkpt>
      <trkpt lat="42.37571" lon="-7.7460217">
        <time>2021-11-27T10:24:56Z</time>
      </trkpt>
      <trkpt lat="42.375706" lon="-7.7460403">
        <time>2021-11-27T10:24:57Z</time>
      </trkpt>
      <trkpt lat="42.3757" lon="-7.7460575">
        <time>2021-11-27T10:24:58Z</time>
      </trkpt>
      <trkpt lat="42.3757" lon="-7.746073">
        <time>2021-11-27T10:24:59Z</time>
      </trkpt>
      <trkpt lat="42.375698" lon="-7.7460876">
        <time>2021-11-27T10:25:00Z</time>
      </trkpt>
      <trkpt lat="42.375694" lon="-7.746102">
        <time>2021-11-27T10:25:01Z</time>
      </trkpt>
      <trkpt lat="42.375687" lon="-7.7461157">
        <time>2021-11-27T10:25:02Z</time>
      </trkpt>
      <trkpt lat="42.375683" lon="-7.7461314">
        <time>2021-11-27T10:25:03Z</time>
      </trkpt>
      <trkpt lat="42.37568" lon="-7.746147">
        <time>2021-11-27T10:25:04Z</time>
      </trkpt>
      <trkpt lat="42.375675" lon="-7.7461634">
        <time>2021-11-27T10:25:05Z</time>
      </trkpt>
      <trkpt lat="42.37567" lon="-7.74618">
        <time>2021-11-27T10:25:06Z</time>
      </trkpt>
      <trkpt lat="42.375668" lon="-7.746198">
        <time>2021-11-27T10:25:07Z</time>
      </trkpt>
      <trkpt lat="42.375664" lon="-7.746216">
        <time>2021-11-27T10:25:08Z</time>
      </trkpt>
      <trkpt lat="42.375664" lon="-7.7462344">
        <time>2021-11-27T10:25:09Z</time>
      </trkpt>
      <trkpt lat="42.37566" lon="-7.746254">
        <time>2021-11-27T10:25:10Z</time>
      </trkpt>
      <trkpt lat="42.375656" lon="-7.746272">
        <time>2021-11-27T10:25:11Z</time>
      </trkpt>
      <trkpt lat="42.375656" lon="-7.7462873">
        <time>2021-11-27T10:25:12Z</time>
      </trkpt>
      <trkpt lat="42.375652" lon="-7.746302">
        <time>2021-11-27T10:25:13Z</time>
      </trkpt>
      <trkpt lat="42.375645" lon="-7.7463155">
        <time>2021-11-27T10:25:14Z</time>
      </trkpt>
      <trkpt lat="42.375637" lon="-7.746329">
        <time>2021-11-27T10:25:15Z</time>
      </trkpt>
      <trkpt lat="42.375626" lon="-7.7463417">
        <time>2021-11-27T10:25:16Z</time>
      </trkpt>
      <trkpt lat="42.375618" lon="-7.7463546">
        <time>2021-11-27T10:25:17Z</time>
      </trkpt>
      <trkpt lat="42.375614" lon="-7.7463655">
        <time>2021-11-27T10:25:18Z</time>
      </trkpt>
      <trkpt lat="42.375614" lon="-7.7463756">
        <time>2021-11-27T10:25:19Z</time>
      </trkpt>
      <trkpt lat="42.375607" lon="-7.746388">
        <time>2021-11-27T10:25:20Z</time>
      </trkpt>
      <trkpt lat="42.375603" lon="-7.7463994">
        <time>2021-11-27T10:25:21Z</time>
      </trkpt>
      <trkpt lat="42.375595" lon="-7.7464113">
        <time>2021-11-27T10:25:22Z</time>
      </trkpt>
      <trkpt lat="42.375587" lon="-7.7464213">
        <time>2021-11-27T10:25:23Z</time>
      </trkpt>
      <trkpt lat="42.37558" lon="-7.74643">
        <time>2021-11-27T10:25:24Z</time>
      </trkpt>
      <trkpt lat="42.375572" lon="-7.7464375">
        <time>2021-11-27T10:25:25Z</time>
      </trkpt>
      <trkpt lat="42.37556" lon="-7.746444">
        <time>2021-11-27T10:25:26Z</time>
      </trkpt>
      <trkpt lat="42.375553" lon="-7.7464485">
        <time>2021-11-27T10:25:27Z</time>
      </trkpt>
      <trkpt lat="42.375546" lon="-7.746457">
        <time>2021-11-27T10:25:28Z</time>
      </trkpt>
      <trkpt lat="42.375538" lon="-7.7464657">
        <time>2021-11-27T10:25:29Z</time>
      </trkpt>
      <trkpt lat="42.375523" lon="-7.7464767">
        <time>2021-11-27T10:25:30Z</time>
      </trkpt>
      <trkpt lat="42.375515" lon="-7.746488">
        <time>2021-11-27T10:25:31Z</time>
      </trkpt>
      <trkpt lat="42.3755" lon="-7.7465043">
        <time>2021-11-27T10:25:32Z</time>
      </trkpt>
      <trkpt lat="42.375484" lon="-7.7465205">
        <time>2021-11-27T10:25:33Z</time>
      </trkpt>
      <trkpt lat="42.37547" lon="-7.7465343">
        <time>2021-11-27T10:25:34Z</time>
      </trkpt>
      <trkpt lat="42.375458" lon="-7.746546">
        <time>2021-11-27T10:25:35Z</time>
      </trkpt>
      <trkpt lat="42.375454" lon="-7.7465568">
        <time>2021-11-27T10:25:36Z</time>
      </trkpt>
      <trkpt lat="42.375446" lon="-7.7465672">
        <time>2021-11-27T10:25:37Z</time>
      </trkpt>
      <trkpt lat="42.375435" lon="-7.746581">
        <time>2021-11-27T10:25:38Z</time>
      </trkpt>
      <trkpt lat="42.375423" lon="-7.746598">
        <time>2021-11-27T10:25:39Z</time>
      </trkpt>
      <trkpt lat="42.375416" lon="-7.7466145">
        <time>2021-11-27T10:25:40Z</time>
      </trkpt>
      <trkpt lat="42.37541" lon="-7.74663">
        <time>2021-11-27T10:25:41Z</time>
      </trkpt>
      <trkpt lat="42.3754" lon="-7.7466464">
        <time>2021-11-27T10:25:42Z</time>
      </trkpt>
      <trkpt lat="42.375397" lon="-7.7466645">
        <time>2021-11-27T10:25:43Z</time>
      </trkpt>
      <trkpt lat="42.37539" lon="-7.7466836">
        <time>2021-11-27T10:25:44Z</time>
      </trkpt>
      <trkpt lat="42.375385" lon="-7.7467027">
        <time>2021-11-27T10:25:45Z</time>
      </trkpt>
      <trkpt lat="42.37538" lon="-7.7467227">
        <time>2021-11-27T10:25:46Z</time>
      </trkpt>
      <trkpt lat="42.375374" lon="-7.7467422">
        <time>2021-11-27T10:25:47Z</time>
      </trkpt>
      <trkpt lat="42.37537" lon="-7.7467628">
        <time>2021-11-27T10:25:48Z</time>
      </trkpt>
      <trkpt lat="42.375366" lon="-7.746783">
        <time>2021-11-27T10:25:49Z</time>
      </trkpt>
      <trkpt lat="42.37536" lon="-7.7468014">
        <time>2021-11-27T10:25:50Z</time>
      </trkpt>
      <trkpt lat="42.375355" lon="-7.746821">
        <time>2021-11-27T10:25:51Z</time>
      </trkpt>
      <trkpt lat="42.37535" lon="-7.746843">
        <time>2021-11-27T10:25:52Z</time>
      </trkpt>
      <trkpt lat="42.375343" lon="-7.746865">
        <time>2021-11-27T10:25:53Z</time>
      </trkpt>
      <trkpt lat="42.375336" lon="-7.7468853">
        <time>2021-11-27T10:25:54Z</time>
      </trkpt>
      <trkpt lat="42.37533" lon="-7.7469077">
        <time>2021-11-27T10:25:55Z</time>
      </trkpt>
      <trkpt lat="42.375324" lon="-7.7469306">
        <time>2021-11-27T10:25:56Z</time>
      </trkpt>
      <trkpt lat="42.37532" lon="-7.746953">
        <time>2021-11-27T10:25:57Z</time>
      </trkpt>
      <trkpt lat="42.375313" lon="-7.7469735">
        <time>2021-11-27T10:25:58Z</time>
      </trkpt>
      <trkpt lat="42.37531" lon="-7.746994">
        <time>2021-11-27T10:25:59Z</time>
      </trkpt>
      <trkpt lat="42.375305" lon="-7.7470117">
        <time>2021-11-27T10:26:00Z</time>
      </trkpt>
      <trkpt lat="42.375298" lon="-7.7470303">
        <time>2021-11-27T10:26:01Z</time>
      </trkpt>
      <trkpt lat="42.375294" lon="-7.747049">
        <time>2021-11-27T10:26:02Z</time>
      </trkpt>
      <trkpt lat="42.37529" lon="-7.747066">
        <time>2021-11-27T10:26:03Z</time>
      </trkpt>
      <trkpt lat="42.375282" lon="-7.7470827">
        <time>2021-11-27T10:26:04Z</time>
      </trkpt>
      <trkpt lat="42.37528" lon="-7.747099">
        <time>2021-11-27T10:26:05Z</time>
      </trkpt>
      <trkpt lat="42.375275" lon="-7.7471128">
        <time>2021-11-27T10:26:06Z</time>
      </trkpt>
      <trkpt lat="42.375267" lon="-7.7471285">
        <time>2021-11-27T10:26:07Z</time>
      </trkpt>
      <trkpt lat="42.37526" lon="-7.747147">
        <time>2021-11-27T10:26:08Z</time>
      </trkpt>
      <trkpt lat="42.37525" lon="-7.747165">
        <time>2021-11-27T10:26:09Z</time>
      </trkpt>
      <trkpt lat="42.37525" lon="-7.747187">
        <time>2021-11-27T10:26:10Z</time>
      </trkpt>
      <trkpt lat="42.375248" lon="-7.747206">
        <time>2021-11-27T10:26:11Z</time>
      </trkpt>
      <trkpt lat="42.375248" lon="-7.7472243">
        <time>2021-11-27T10:26:12Z</time>
      </trkpt>
      <trkpt lat="42.37525" lon="-7.7472415">
        <time>2021-11-27T10:26:13Z</time>
      </trkpt>
      <trkpt lat="42.37525" lon="-7.7472587">
        <time>2021-11-27T10:26:14Z</time>
      </trkpt>
      <trkpt lat="42.37526" lon="-7.7472763">
        <time>2021-11-27T10:26:15Z</time>
      </trkpt>
      <trkpt lat="42.375267" lon="-7.747293">
        <time>2021-11-27T10:26:16Z</time>
      </trkpt>
      <trkpt lat="42.375275" lon="-7.74731">
        <time>2021-11-27T10:26:17Z</time>
      </trkpt>
      <trkpt lat="42.375282" lon="-7.747329">
        <time>2021-11-27T10:26:18Z</time>
      </trkpt>
      <trkpt lat="42.37529" lon="-7.74735">
        <time>2021-11-27T10:26:19Z</time>
      </trkpt>
      <trkpt lat="42.375298" lon="-7.7473707">
        <time>2021-11-27T10:26:19Z</time>
      </trkpt>
      <trkpt lat="42.375298" lon="-7.7473907">
        <time>2021-11-27T10:26:20Z</time>
      </trkpt>
      <trkpt lat="42.375294" lon="-7.74741">
        <time>2021-11-27T10:26:21Z</time>
      </trkpt>
      <trkpt lat="42.37529" lon="-7.7474284">
        <time>2021-11-27T10:26:22Z</time>
      </trkpt>
      <trkpt lat="42.375282" lon="-7.747447">
        <time>2021-11-27T10:26:23Z</time>
      </trkpt>
      <trkpt lat="42.375275" lon="-7.7474623">
        <time>2021-11-27T10:26:24Z</time>
      </trkpt>
      <trkpt lat="42.375267" lon="-7.7474766">
        <time>2021-11-27T10:26:25Z</time>
      </trkpt>
      <trkpt lat="42.37526" lon="-7.747488">
        <time>2021-11-27T10:26:26Z</time>
      </trkpt>
      <trkpt lat="42.375244" lon="-7.7474976">
        <time>2021-11-27T10:26:27Z</time>
      </trkpt>
      <trkpt lat="42.375233" lon="-7.747506">
        <time>2021-11-27T10:26:28Z</time>
      </trkpt>
      <trkpt lat="42.37522" lon="-7.747514">
        <time>2021-11-27T10:26:29Z</time>
      </trkpt>
      <trkpt lat="42.37521" lon="-7.74752">
        <time>2021-11-27T10:26:30Z</time>
      </trkpt>
      <trkpt lat="42.375195" lon="-7.747525">
        <time>2021-11-27T10:26:31Z</time>
      </trkpt>
      <trkpt lat="42.375183" lon="-7.747531">
        <time>2021-11-27T10:26:32Z</time>
      </trkpt>
      <trkpt lat="42.375175" lon="-7.747537">
        <time>2021-11-27T10:26:33Z</time>
      </trkpt>
      <trkpt lat="42.375164" lon="-7.747546">
        <time>2021-11-27T10:26:34Z</time>
      </trkpt>
      <trkpt lat="42.375156" lon="-7.7475557">
        <time>2021-11-27T10:26:35Z</time>
      </trkpt>
      <trkpt lat="42.375145" lon="-7.7475624">
        <time>2021-11-27T10:26:36Z</time>
      </trkpt>
      <trkpt lat="42.375134" lon="-7.747568">
        <time>2021-11-27T10:26:37Z</time>
      </trkpt>
      <trkpt lat="42.375126" lon="-7.747574">
        <time>2021-11-27T10:26:38Z</time>
      </trkpt>
      <trkpt lat="42.37511" lon="-7.747579">
        <time>2021-11-27T10:26:39Z</time>
      </trkpt>
      <trkpt lat="42.375103" lon="-7.747583">
        <time>2021-11-27T10:26:40Z</time>
      </trkpt>
      <trkpt lat="42.375088" lon="-7.747587">
        <time>2021-11-27T10:26:41Z</time>
      </trkpt>
      <trkpt lat="42.375076" lon="-7.7475905">
        <time>2021-11-27T10:26:42Z</time>
      </trkpt>
      <trkpt lat="42.375065" lon="-7.7475944">
        <time>2021-11-27T10:26:43Z</time>
      </trkpt>
      <trkpt lat="42.375057" lon="-7.747598">
        <time>2021-11-27T10:26:44Z</time>
      </trkpt>
      <trkpt lat="42.375042" lon="-7.747602">
        <time>2021-11-27T10:26:45Z</time>
      </trkpt>
      <trkpt lat="42.37503" lon="-7.747609">
        <time>2021-11-27T10:26:46Z</time>
      </trkpt>
      <trkpt lat="42.375023" lon="-7.747615">
        <time>2021-11-27T10:26:47Z</time>
      </trkpt>
      <trkpt lat="42.375015" lon="-7.7476187">
        <time>2021-11-27T10:26:48Z</time>
      </trkpt>
      <trkpt lat="42.374992" lon="-7.7476177">
        <time>2021-11-27T10:26:50Z</time>
      </trkpt>
      <trkpt lat="42.37499" lon="-7.747616">
        <time>2021-11-27T10:26:51Z</time>
      </trkpt>
      <trkpt lat="42.374985" lon="-7.747615">
        <time>2021-11-27T10:26:52Z</time>
      </trkpt>
      <trkpt lat="42.374977" lon="-7.7476134">
        <time>2021-11-27T10:26:53Z</time>
      </trkpt>
      <trkpt lat="42.37497" lon="-7.747613">
        <time>2021-11-27T10:26:54Z</time>
      </trkpt>
      <trkpt lat="42.37496" lon="-7.747613">
        <time>2021-11-27T10:26:55Z</time>
      </trkpt>
      <trkpt lat="42.374954" lon="-7.7476134">
        <time>2021-11-27T10:26:56Z</time>
      </trkpt>
      <trkpt lat="42.374943" lon="-7.747614">
        <time>2021-11-27T10:26:57Z</time>
      </trkpt>
      <trkpt lat="42.374935" lon="-7.7476153">
        <time>2021-11-27T10:26:58Z</time>
      </trkpt>
      <trkpt lat="42.374928" lon="-7.7476177">
        <time>2021-11-27T10:26:59Z</time>
      </trkpt>
      <trkpt lat="42.374924" lon="-7.7476206">
        <time>2021-11-27T10:27:00Z</time>
      </trkpt>
      <trkpt lat="42.374916" lon="-7.747623">
        <time>2021-11-27T10:27:01Z</time>
      </trkpt>
      <trkpt lat="42.37491" lon="-7.7476377">
        <time>2021-11-27T10:27:04Z</time>
      </trkpt>
      <trkpt lat="42.37491" lon="-7.7476377">
        <time>2021-11-27T10:27:05Z</time>
      </trkpt>
      <trkpt lat="42.37491" lon="-7.7476377">
        <time>2021-11-27T10:27:06Z</time>
      </trkpt>
      <trkpt lat="42.3749" lon="-7.7476373">
        <time>2021-11-27T10:27:07Z</time>
      </trkpt>
      <trkpt lat="42.374897" lon="-7.7476373">
        <time>2021-11-27T10:27:08Z</time>
      </trkpt>
      <trkpt lat="42.374886" lon="-7.7476373">
        <time>2021-11-27T10:27:09Z</time>
      </trkpt>
      <trkpt lat="42.374878" lon="-7.747638">
        <time>2021-11-27T10:27:10Z</time>
      </trkpt>
      <trkpt lat="42.37487" lon="-7.7476397">
        <time>2021-11-27T10:27:11Z</time>
      </trkpt>
      <trkpt lat="42.374863" lon="-7.74764">
        <time>2021-11-27T10:27:12Z</time>
      </trkpt>
      <trkpt lat="42.37485" lon="-7.74764">
        <time>2021-11-27T10:27:13Z</time>
      </trkpt>
      <trkpt lat="42.374847" lon="-7.747641">
        <time>2021-11-27T10:27:14Z</time>
      </trkpt>
      <trkpt lat="42.374844" lon="-7.747642">
        <time>2021-11-27T10:27:15Z</time>
      </trkpt>
      <trkpt lat="42.374836" lon="-7.7476416">
        <time>2021-11-27T10:27:16Z</time>
      </trkpt>
      <trkpt lat="42.374832" lon="-7.747642">
        <time>2021-11-27T10:27:17Z</time>
      </trkpt>
      <trkpt lat="42.37483" lon="-7.7476435">
        <time>2021-11-27T10:27:18Z</time>
      </trkpt>
      <trkpt lat="42.37482" lon="-7.747645">
        <time>2021-11-27T10:27:19Z</time>
      </trkpt>
      <trkpt lat="42.374813" lon="-7.747647">
        <time>2021-11-27T10:27:20Z</time>
      </trkpt>
      <trkpt lat="42.374805" lon="-7.7476487">
        <time>2021-11-27T10:27:21Z</time>
      </trkpt>
      <trkpt lat="42.374794" lon="-7.7476525">
        <time>2021-11-27T10:27:22Z</time>
      </trkpt>
      <trkpt lat="42.374767" lon="-7.747666">
        <time>2021-11-27T10:27:23Z</time>
      </trkpt>
      <trkpt lat="42.374767" lon="-7.7476664">
        <time>2021-11-27T10:27:24Z</time>
      </trkpt>
      <trkpt lat="42.374763" lon="-7.7476673">
        <time>2021-11-27T10:27:25Z</time>
      </trkpt>
      <trkpt lat="42.374756" lon="-7.7476683">
        <time>2021-11-27T10:27:26Z</time>
      </trkpt>
      <trkpt lat="42.374744" lon="-7.747669">
        <time>2021-11-27T10:27:27Z</time>
      </trkpt>
      <trkpt lat="42.374737" lon="-7.74767">
        <time>2021-11-27T10:27:28Z</time>
      </trkpt>
      <trkpt lat="42.374725" lon="-7.747671">
        <time>2021-11-27T10:27:29Z</time>
      </trkpt>
      <trkpt lat="42.374714" lon="-7.7476716">
        <time>2021-11-27T10:27:30Z</time>
      </trkpt>
      <trkpt lat="42.374702" lon="-7.7476726">
        <time>2021-11-27T10:27:31Z</time>
      </trkpt>
      <trkpt lat="42.37469" lon="-7.7476726">
        <time>2021-11-27T10:27:32Z</time>
      </trkpt>
      <trkpt lat="42.37468" lon="-7.7476716">
        <time>2021-11-27T10:27:33Z</time>
      </trkpt>
      <trkpt lat="42.37467" lon="-7.747671">
        <time>2021-11-27T10:27:34Z</time>
      </trkpt>
      <trkpt lat="42.374657" lon="-7.7476697">
        <time>2021-11-27T10:27:35Z</time>
      </trkpt>
      <trkpt lat="42.374645" lon="-7.747669">
        <time>2021-11-27T10:27:36Z</time>
      </trkpt>
      <trkpt lat="42.37463" lon="-7.7476683">
        <time>2021-11-27T10:27:37Z</time>
      </trkpt>
      <trkpt lat="42.37462" lon="-7.7476673">
        <time>2021-11-27T10:27:38Z</time>
      </trkpt>
      <trkpt lat="42.374603" lon="-7.747666">
        <time>2021-11-27T10:27:39Z</time>
      </trkpt>
      <trkpt lat="42.374588" lon="-7.7476654">
        <time>2021-11-27T10:27:40Z</time>
      </trkpt>
      <trkpt lat="42.374577" lon="-7.7476654">
        <time>2021-11-27T10:27:41Z</time>
      </trkpt>
      <trkpt lat="42.37456" lon="-7.7476664">
        <time>2021-11-27T10:27:42Z</time>
      </trkpt>
      <trkpt lat="42.37455" lon="-7.747668">
        <time>2021-11-27T10:27:43Z</time>
      </trkpt>
      <trkpt lat="42.374535" lon="-7.747669">
        <time>2021-11-27T10:27:44Z</time>
      </trkpt>
      <trkpt lat="42.374523" lon="-7.747671">
        <time>2021-11-27T10:27:45Z</time>
      </trkpt>
      <trkpt lat="42.37451" lon="-7.747671">
        <time>2021-11-27T10:27:46Z</time>
      </trkpt>
      <trkpt lat="42.374496" lon="-7.747671">
        <time>2021-11-27T10:27:47Z</time>
      </trkpt>
      <trkpt lat="42.374485" lon="-7.7476726">
        <time>2021-11-27T10:27:48Z</time>
      </trkpt>
      <trkpt lat="42.374474" lon="-7.747673">
        <time>2021-11-27T10:27:49Z</time>
      </trkpt>
      <trkpt lat="42.374454" lon="-7.7476735">
        <time>2021-11-27T10:27:50Z</time>
      </trkpt>
      <trkpt lat="42.374443" lon="-7.7476726">
        <time>2021-11-27T10:27:51Z</time>
      </trkpt>
      <trkpt lat="42.374428" lon="-7.747669">
        <time>2021-11-27T10:27:52Z</time>
      </trkpt>
      <trkpt lat="42.374413" lon="-7.747666">
        <time>2021-11-27T10:27:53Z</time>
      </trkpt>
      <trkpt lat="42.3744" lon="-7.7476635">
        <time>2021-11-27T10:27:54Z</time>
      </trkpt>
      <trkpt lat="42.374393" lon="-7.7476616">
        <time>2021-11-27T10:27:55Z</time>
      </trkpt>
      <trkpt lat="42.374374" lon="-7.747651">
        <time>2021-11-27T10:27:58Z</time>
      </trkpt>
      <trkpt lat="42.374374" lon="-7.7476506">
        <time>2021-11-27T10:27:59Z</time>
      </trkpt>
      <trkpt lat="42.374363" lon="-7.747649">
        <time>2021-11-27T10:28:02Z</time>
      </trkpt>
      <trkpt lat="42.374363" lon="-7.747648">
        <time>2021-11-27T10:28:03Z</time>
      </trkpt>
      <trkpt lat="42.374355" lon="-7.747644">
        <time>2021-11-27T10:28:04Z</time>
      </trkpt>
      <trkpt lat="42.374348" lon="-7.7476397">
        <time>2021-11-27T10:28:05Z</time>
      </trkpt>
      <trkpt lat="42.37434" lon="-7.7476354">
        <time>2021-11-27T10:28:06Z</time>
      </trkpt>
      <trkpt lat="42.374325" lon="-7.7476315">
        <time>2021-11-27T10:28:07Z</time>
      </trkpt>
      <trkpt lat="42.374317" lon="-7.7476277">
        <time>2021-11-27T10:28:08Z</time>
      </trkpt>
      <trkpt lat="42.374302" lon="-7.7476234">
        <time>2021-11-27T10:28:09Z</time>
      </trkpt>
      <trkpt lat="42.374294" lon="-7.7476187">
        <time>2021-11-27T10:28:10Z</time>
      </trkpt>
      <trkpt lat="42.374283" lon="-7.747612">
        <time>2021-11-27T10:28:11Z</time>
      </trkpt>
      <trkpt lat="42.374268" lon="-7.747604">
        <time>2021-11-27T10:28:12Z</time>
      </trkpt>
      <trkpt lat="42.37426" lon="-7.7475944">
        <time>2021-11-27T10:28:13Z</time>
      </trkpt>
      <trkpt lat="42.374252" lon="-7.747583">
        <time>2021-11-27T10:28:14Z</time>
      </trkpt>
      <trkpt lat="42.374245" lon="-7.7475705">
        <time>2021-11-27T10:28:15Z</time>
      </trkpt>
      <trkpt lat="42.374237" lon="-7.747557">
        <time>2021-11-27T10:28:16Z</time>
      </trkpt>
      <trkpt lat="42.37423" lon="-7.7475443">
        <time>2021-11-27T10:28:17Z</time>
      </trkpt>
      <trkpt lat="42.374226" lon="-7.747531">
        <time>2021-11-27T10:28:18Z</time>
      </trkpt>
      <trkpt lat="42.374218" lon="-7.7475176">
        <time>2021-11-27T10:28:19Z</time>
      </trkpt>
      <trkpt lat="42.374214" lon="-7.747504">
        <time>2021-11-27T10:28:20Z</time>
      </trkpt>
      <trkpt lat="42.37421" lon="-7.7474904">
        <time>2021-11-27T10:28:21Z</time>
      </trkpt>
      <trkpt lat="42.374207" lon="-7.7474747">
        <time>2021-11-27T10:28:22Z</time>
      </trkpt>
      <trkpt lat="42.374203" lon="-7.7474566">
        <time>2021-11-27T10:28:23Z</time>
      </trkpt>
      <trkpt lat="42.3742" lon="-7.747439">
        <time>2021-11-27T10:28:24Z</time>
      </trkpt>
      <trkpt lat="42.3742" lon="-7.7474213">
        <time>2021-11-27T10:28:25Z</time>
      </trkpt>
      <trkpt lat="42.374195" lon="-7.7474027">
        <time>2021-11-27T10:28:26Z</time>
      </trkpt>
      <trkpt lat="42.37419" lon="-7.7473855">
        <time>2021-11-27T10:28:27Z</time>
      </trkpt>
      <trkpt lat="42.37419" lon="-7.747368">
        <time>2021-11-27T10:28:28Z</time>
      </trkpt>
      <trkpt lat="42.37419" lon="-7.7473497">
        <time>2021-11-27T10:28:29Z</time>
      </trkpt>
      <trkpt lat="42.374187" lon="-7.7473297">
        <time>2021-11-27T10:28:30Z</time>
      </trkpt>
      <trkpt lat="42.374184" lon="-7.74731">
        <time>2021-11-27T10:28:31Z</time>
      </trkpt>
      <trkpt lat="42.374184" lon="-7.747288">
        <time>2021-11-27T10:28:32Z</time>
      </trkpt>
      <trkpt lat="42.37418" lon="-7.747267">
        <time>2021-11-27T10:28:33Z</time>
      </trkpt>
      <trkpt lat="42.374176" lon="-7.747245">
        <time>2021-11-27T10:28:34Z</time>
      </trkpt>
      <trkpt lat="42.37417" lon="-7.747226">
        <time>2021-11-27T10:28:35Z</time>
      </trkpt>
      <trkpt lat="42.374165" lon="-7.7472095">
        <time>2021-11-27T10:28:36Z</time>
      </trkpt>
      <trkpt lat="42.374157" lon="-7.7471924">
        <time>2021-11-27T10:28:37Z</time>
      </trkpt>
      <trkpt lat="42.37415" lon="-7.747174">
        <time>2021-11-27T10:28:38Z</time>
      </trkpt>
      <trkpt lat="42.374146" lon="-7.747152">
        <time>2021-11-27T10:28:40Z</time>
      </trkpt>
      <trkpt lat="42.37414" lon="-7.7471294">
        <time>2021-11-27T10:28:40Z</time>
      </trkpt>
      <trkpt lat="42.374138" lon="-7.747108">
        <time>2021-11-27T10:28:41Z</time>
      </trkpt>
      <trkpt lat="42.37413" lon="-7.7470865">
        <time>2021-11-27T10:28:42Z</time>
      </trkpt>
      <trkpt lat="42.374123" lon="-7.747063">
        <time>2021-11-27T10:28:43Z</time>
      </trkpt>
      <trkpt lat="42.374115" lon="-7.74704">
        <time>2021-11-27T10:28:44Z</time>
      </trkpt>
      <trkpt lat="42.374107" lon="-7.747019">
        <time>2021-11-27T10:28:45Z</time>
      </trkpt>
      <trkpt lat="42.374107" lon="-7.7469993">
        <time>2021-11-27T10:28:46Z</time>
      </trkpt>
      <trkpt lat="42.3741" lon="-7.7469807">
        <time>2021-11-27T10:28:47Z</time>
      </trkpt>
      <trkpt lat="42.374092" lon="-7.746962">
        <time>2021-11-27T10:28:48Z</time>
      </trkpt>
      <trkpt lat="42.374084" lon="-7.7469435">
        <time>2021-11-27T10:28:49Z</time>
      </trkpt>
      <trkpt lat="42.374077" lon="-7.746925">
        <time>2021-11-27T10:28:50Z</time>
      </trkpt>
      <trkpt lat="42.37407" lon="-7.7469087">
        <time>2021-11-27T10:28:51Z</time>
      </trkpt>
      <trkpt lat="42.37406" lon="-7.7468934">
        <time>2021-11-27T10:28:52Z</time>
      </trkpt>
      <trkpt lat="42.37405" lon="-7.746878">
        <time>2021-11-27T10:28:53Z</time>
      </trkpt>
      <trkpt lat="42.374043" lon="-7.746862">
        <time>2021-11-27T10:28:54Z</time>
      </trkpt>
      <trkpt lat="42.37403" lon="-7.746846">
        <time>2021-11-27T10:28:55Z</time>
      </trkpt>
      <trkpt lat="42.37402" lon="-7.746828">
        <time>2021-11-27T10:28:56Z</time>
      </trkpt>
      <trkpt lat="42.374012" lon="-7.7468114">
        <time>2021-11-27T10:28:57Z</time>
      </trkpt>
      <trkpt lat="42.373997" lon="-7.746798">
        <time>2021-11-27T10:28:58Z</time>
      </trkpt>
      <trkpt lat="42.373985" lon="-7.746786">
        <time>2021-11-27T10:28:59Z</time>
      </trkpt>
      <trkpt lat="42.373974" lon="-7.7467737">
        <time>2021-11-27T10:29:00Z</time>
      </trkpt>
      <trkpt lat="42.373962" lon="-7.746761">
        <time>2021-11-27T10:29:01Z</time>
      </trkpt>
      <trkpt lat="42.37395" lon="-7.746745">
        <time>2021-11-27T10:29:02Z</time>
      </trkpt>
      <trkpt lat="42.373943" lon="-7.746731">
        <time>2021-11-27T10:29:03Z</time>
      </trkpt>
      <trkpt lat="42.37393" lon="-7.746719">
        <time>2021-11-27T10:29:04Z</time>
      </trkpt>
      <trkpt lat="42.37392" lon="-7.746708">
        <time>2021-11-27T10:29:05Z</time>
      </trkpt>
      <trkpt lat="42.37391" lon="-7.7466955">
        <time>2021-11-27T10:29:06Z</time>
      </trkpt>
      <trkpt lat="42.373898" lon="-7.7466836">
        <time>2021-11-27T10:29:08Z</time>
      </trkpt>
      <trkpt lat="42.373882" lon="-7.746667">
        <time>2021-11-27T10:29:09Z</time>
      </trkpt>
      <trkpt lat="42.37387" lon="-7.746649">
        <time>2021-11-27T10:29:10Z</time>
      </trkpt>
      <trkpt lat="42.373856" lon="-7.746632">
        <time>2021-11-27T10:29:11Z</time>
      </trkpt>
      <trkpt lat="42.373844" lon="-7.7466164">
        <time>2021-11-27T10:29:12Z</time>
      </trkpt>
      <trkpt lat="42.37383" lon="-7.746604">
        <time>2021-11-27T10:29:13Z</time>
      </trkpt>
      <trkpt lat="42.373814" lon="-7.7465982">
        <time>2021-11-27T10:29:14Z</time>
      </trkpt>
      <trkpt lat="42.373802" lon="-7.7465916">
        <time>2021-11-27T10:29:15Z</time>
      </trkpt>
      <trkpt lat="42.373787" lon="-7.746583">
        <time>2021-11-27T10:29:16Z</time>
      </trkpt>
      <trkpt lat="42.37378" lon="-7.746572">
        <time>2021-11-27T10:29:17Z</time>
      </trkpt>
      <trkpt lat="42.373768" lon="-7.746562">
        <time>2021-11-27T10:29:18Z</time>
      </trkpt>
      <trkpt lat="42.373756" lon="-7.746553">
        <time>2021-11-27T10:29:19Z</time>
      </trkpt>
      <trkpt lat="42.37375" lon="-7.746542">
        <time>2021-11-27T10:29:20Z</time>
      </trkpt>
      <trkpt lat="42.37374" lon="-7.74653">
        <time>2021-11-27T10:29:21Z</time>
      </trkpt>
      <trkpt lat="42.373734" lon="-7.7465167">
        <time>2021-11-27T10:29:22Z</time>
      </trkpt>
      <trkpt lat="42.373726" lon="-7.7465043">
        <time>2021-11-27T10:29:23Z</time>
      </trkpt>
      <trkpt lat="42.373714" lon="-7.74649">
        <time>2021-11-27T10:29:24Z</time>
      </trkpt>
      <trkpt lat="42.373703" lon="-7.7464757">
        <time>2021-11-27T10:29:25Z</time>
      </trkpt>
      <trkpt lat="42.373695" lon="-7.746463">
        <time>2021-11-27T10:29:26Z</time>
      </trkpt>
      <trkpt lat="42.373684" lon="-7.7464485">
        <time>2021-11-27T10:29:27Z</time>
      </trkpt>
      <trkpt lat="42.373676" lon="-7.7464347">
        <time>2021-11-27T10:29:29Z</time>
      </trkpt>
      <trkpt lat="42.373665" lon="-7.746424">
        <time>2021-11-27T10:29:30Z</time>
      </trkpt>
      <trkpt lat="42.373653" lon="-7.7464066">
        <time>2021-11-27T10:29:31Z</time>
      </trkpt>
      <trkpt lat="42.373646" lon="-7.746389">
        <time>2021-11-27T10:29:32Z</time>
      </trkpt>
      <trkpt lat="42.37364" lon="-7.7463727">
        <time>2021-11-27T10:29:34Z</time>
      </trkpt>
      <trkpt lat="42.37363" lon="-7.7463527">
        <time>2021-11-27T10:29:35Z</time>
      </trkpt>
      <trkpt lat="42.373623" lon="-7.7463365">
        <time>2021-11-27T10:29:36Z</time>
      </trkpt>
      <trkpt lat="42.37361" lon="-7.746321">
        <time>2021-11-27T10:29:37Z</time>
      </trkpt>
      <trkpt lat="42.3736" lon="-7.7463093">
        <time>2021-11-27T10:29:38Z</time>
      </trkpt>
      <trkpt lat="42.373592" lon="-7.746298">
        <time>2021-11-27T10:29:40Z</time>
      </trkpt>
      <trkpt lat="42.37358" lon="-7.746285">
        <time>2021-11-27T10:29:40Z</time>
      </trkpt>
      <trkpt lat="42.373577" lon="-7.7462707">
        <time>2021-11-27T10:29:41Z</time>
      </trkpt>
      <trkpt lat="42.37357" lon="-7.746256">
        <time>2021-11-27T10:29:42Z</time>
      </trkpt>
      <trkpt lat="42.37356" lon="-7.746239">
        <time>2021-11-27T10:29:43Z</time>
      </trkpt>
      <trkpt lat="42.373554" lon="-7.746224">
        <time>2021-11-27T10:29:44Z</time>
      </trkpt>
      <trkpt lat="42.37355" lon="-7.7462087">
        <time>2021-11-27T10:29:45Z</time>
      </trkpt>
      <trkpt lat="42.373543" lon="-7.746194">
        <time>2021-11-27T10:29:46Z</time>
      </trkpt>
      <trkpt lat="42.37354" lon="-7.74618">
        <time>2021-11-27T10:29:47Z</time>
      </trkpt>
      <trkpt lat="42.373528" lon="-7.7461653">
        <time>2021-11-27T10:29:48Z</time>
      </trkpt>
      <trkpt lat="42.37352" lon="-7.746151">
        <time>2021-11-27T10:29:49Z</time>
      </trkpt>
      <trkpt lat="42.373512" lon="-7.7461357">
        <time>2021-11-27T10:29:50Z</time>
      </trkpt>
      <trkpt lat="42.37351" lon="-7.7461195">
        <time>2021-11-27T10:29:51Z</time>
      </trkpt>
      <trkpt lat="42.373497" lon="-7.746104">
        <time>2021-11-27T10:29:52Z</time>
      </trkpt>
      <trkpt lat="42.373497" lon="-7.7460866">
        <time>2021-11-27T10:29:53Z</time>
      </trkpt>
      <trkpt lat="42.373497" lon="-7.746068">
        <time>2021-11-27T10:29:54Z</time>
      </trkpt>
      <trkpt lat="42.373497" lon="-7.7460475">
        <time>2021-11-27T10:29:55Z</time>
      </trkpt>
      <trkpt lat="42.373505" lon="-7.7460213">
        <time>2021-11-27T10:29:56Z</time>
      </trkpt>
      <trkpt lat="42.37351" lon="-7.745996">
        <time>2021-11-27T10:29:57Z</time>
      </trkpt>
      <trkpt lat="42.37351" lon="-7.74597">
        <time>2021-11-27T10:29:58Z</time>
      </trkpt>
      <trkpt lat="42.373512" lon="-7.745945">
        <time>2021-11-27T10:29:59Z</time>
      </trkpt>
      <trkpt lat="42.373516" lon="-7.7459226">
        <time>2021-11-27T10:30:01Z</time>
      </trkpt>
      <trkpt lat="42.37352" lon="-7.745892">
        <time>2021-11-27T10:30:03Z</time>
      </trkpt>
      <trkpt lat="42.37352" lon="-7.7458534">
        <time>2021-11-27T10:30:04Z</time>
      </trkpt>
      <trkpt lat="42.373516" lon="-7.745821">
        <time>2021-11-27T10:30:05Z</time>
      </trkpt>
      <trkpt lat="42.373516" lon="-7.745713">
        <time>2021-11-27T10:30:07Z</time>
      </trkpt>
      <trkpt lat="42.373505" lon="-7.745663">
        <time>2021-11-27T10:30:10Z</time>
      </trkpt>
      <trkpt lat="42.3735" lon="-7.7456512">
        <time>2021-11-27T10:30:11Z</time>
      </trkpt>
      <trkpt lat="42.373497" lon="-7.745634">
        <time>2021-11-27T10:30:12Z</time>
      </trkpt>
      <trkpt lat="42.37349" lon="-7.745614">
        <time>2021-11-27T10:30:13Z</time>
      </trkpt>
      <trkpt lat="42.37349" lon="-7.745594">
        <time>2021-11-27T10:30:14Z</time>
      </trkpt>
      <trkpt lat="42.373463" lon="-7.745517">
        <time>2021-11-27T10:30:16Z</time>
      </trkpt>
      <trkpt lat="42.373447" lon="-7.7454753">
        <time>2021-11-27T10:30:18Z</time>
      </trkpt>
      <trkpt lat="42.373447" lon="-7.7454715">
        <time>2021-11-27T10:30:19Z</time>
      </trkpt>
      <trkpt lat="42.373432" lon="-7.7454233">
        <time>2021-11-27T10:30:21Z</time>
      </trkpt>
      <trkpt lat="42.373425" lon="-7.745388">
        <time>2021-11-27T10:30:23Z</time>
      </trkpt>
      <trkpt lat="42.37342" lon="-7.7453856">
        <time>2021-11-27T10:30:24Z</time>
      </trkpt>
      <trkpt lat="42.373417" lon="-7.7453218">
        <time>2021-11-27T10:30:27Z</time>
      </trkpt>
      <trkpt lat="42.373417" lon="-7.745316">
        <time>2021-11-27T10:30:28Z</time>
      </trkpt>
      <trkpt lat="42.373417" lon="-7.745304">
        <time>2021-11-27T10:30:29Z</time>
      </trkpt>
      <trkpt lat="42.37342" lon="-7.74529">
        <time>2021-11-27T10:30:30Z</time>
      </trkpt>
      <trkpt lat="42.373417" lon="-7.745272">
        <time>2021-11-27T10:30:31Z</time>
      </trkpt>
      <trkpt lat="42.373413" lon="-7.7452536">
        <time>2021-11-27T10:30:33Z</time>
      </trkpt>
      <trkpt lat="42.373413" lon="-7.7452307">
        <time>2021-11-27T10:30:34Z</time>
      </trkpt>
      <trkpt lat="42.37341" lon="-7.745208">
        <time>2021-11-27T10:30:34Z</time>
      </trkpt>
      <trkpt lat="42.373405" lon="-7.745186">
        <time>2021-11-27T10:30:35Z</time>
      </trkpt>
      <trkpt lat="42.373405" lon="-7.745162">
        <time>2021-11-27T10:30:36Z</time>
      </trkpt>
      <trkpt lat="42.373405" lon="-7.7451406">
        <time>2021-11-27T10:30:37Z</time>
      </trkpt>
      <trkpt lat="42.373405" lon="-7.7451186">
        <time>2021-11-27T10:30:38Z</time>
      </trkpt>
      <trkpt lat="42.373405" lon="-7.745097">
        <time>2021-11-27T10:30:40Z</time>
      </trkpt>
      <trkpt lat="42.373383" lon="-7.7449837">
        <time>2021-11-27T10:30:43Z</time>
      </trkpt>
      <trkpt lat="42.373383" lon="-7.7449794">
        <time>2021-11-27T10:30:44Z</time>
      </trkpt>
      <trkpt lat="42.373383" lon="-7.744969">
        <time>2021-11-27T10:30:45Z</time>
      </trkpt>
      <trkpt lat="42.373386" lon="-7.744953">
        <time>2021-11-27T10:30:46Z</time>
      </trkpt>
      <trkpt lat="42.373386" lon="-7.7449336">
        <time>2021-11-27T10:30:47Z</time>
      </trkpt>
      <trkpt lat="42.373383" lon="-7.744915">
        <time>2021-11-27T10:30:48Z</time>
      </trkpt>
      <trkpt lat="42.373383" lon="-7.7448964">
        <time>2021-11-27T10:30:49Z</time>
      </trkpt>
      <trkpt lat="42.373375" lon="-7.744879">
        <time>2021-11-27T10:30:50Z</time>
      </trkpt>
      <trkpt lat="42.373367" lon="-7.7448606">
        <time>2021-11-27T10:30:51Z</time>
      </trkpt>
      <trkpt lat="42.37336" lon="-7.744843">
        <time>2021-11-27T10:30:52Z</time>
      </trkpt>
      <trkpt lat="42.373356" lon="-7.7448244">
        <time>2021-11-27T10:30:53Z</time>
      </trkpt>
      <trkpt lat="42.37335" lon="-7.744806">
        <time>2021-11-27T10:30:54Z</time>
      </trkpt>
      <trkpt lat="42.37334" lon="-7.7447886">
        <time>2021-11-27T10:30:55Z</time>
      </trkpt>
      <trkpt lat="42.373333" lon="-7.7447724">
        <time>2021-11-27T10:30:56Z</time>
      </trkpt>
      <trkpt lat="42.37332" lon="-7.7447577">
        <time>2021-11-27T10:30:57Z</time>
      </trkpt>
      <trkpt lat="42.373306" lon="-7.7447476">
        <time>2021-11-27T10:30:58Z</time>
      </trkpt>
      <trkpt lat="42.373295" lon="-7.744741">
        <time>2021-11-27T10:30:59Z</time>
      </trkpt>
      <trkpt lat="42.373276" lon="-7.7447386">
        <time>2021-11-27T10:31:00Z</time>
      </trkpt>
      <trkpt lat="42.373257" lon="-7.744743">
        <time>2021-11-27T10:31:01Z</time>
      </trkpt>
      <trkpt lat="42.37324" lon="-7.7447515">
        <time>2021-11-27T10:31:02Z</time>
      </trkpt>
      <trkpt lat="42.373226" lon="-7.7447634">
        <time>2021-11-27T10:31:03Z</time>
      </trkpt>
      <trkpt lat="42.37318" lon="-7.7448287">
        <time>2021-11-27T10:31:06Z</time>
      </trkpt>
      <trkpt lat="42.373177" lon="-7.7448378">
        <time>2021-11-27T10:31:07Z</time>
      </trkpt>
      <trkpt lat="42.373165" lon="-7.7448506">
        <time>2021-11-27T10:31:08Z</time>
      </trkpt>
      <trkpt lat="42.37316" lon="-7.7448664">
        <time>2021-11-27T10:31:09Z</time>
      </trkpt>
      <trkpt lat="42.373154" lon="-7.744883">
        <time>2021-11-27T10:31:10Z</time>
      </trkpt>
      <trkpt lat="42.373127" lon="-7.7449536">
        <time>2021-11-27T10:31:12Z</time>
      </trkpt>
      <trkpt lat="42.373123" lon="-7.744958">
        <time>2021-11-27T10:31:13Z</time>
      </trkpt>
      <trkpt lat="42.37312" lon="-7.7449684">
        <time>2021-11-27T10:31:14Z</time>
      </trkpt>
      <trkpt lat="42.373116" lon="-7.7449822">
        <time>2021-11-27T10:31:15Z</time>
      </trkpt>
      <trkpt lat="42.37311" lon="-7.744998">
        <time>2021-11-27T10:31:16Z</time>
      </trkpt>
      <trkpt lat="42.373108" lon="-7.7450137">
        <time>2021-11-27T10:31:17Z</time>
      </trkpt>
      <trkpt lat="42.3731" lon="-7.7450304">
        <time>2021-11-27T10:31:18Z</time>
      </trkpt>
      <trkpt lat="42.3731" lon="-7.7450476">
        <time>2021-11-27T10:31:19Z</time>
      </trkpt>
      <trkpt lat="42.373093" lon="-7.7450657">
        <time>2021-11-27T10:31:20Z</time>
      </trkpt>
      <trkpt lat="42.37309" lon="-7.745083">
        <time>2021-11-27T10:31:21Z</time>
      </trkpt>
      <trkpt lat="42.373085" lon="-7.745103">
        <time>2021-11-27T10:31:22Z</time>
      </trkpt>
      <trkpt lat="42.373077" lon="-7.7451196">
        <time>2021-11-27T10:31:23Z</time>
      </trkpt>
      <trkpt lat="42.37307" lon="-7.7451367">
        <time>2021-11-27T10:31:24Z</time>
      </trkpt>
      <trkpt lat="42.373066" lon="-7.7451544">
        <time>2021-11-27T10:31:25Z</time>
      </trkpt>
      <trkpt lat="42.37306" lon="-7.745174">
        <time>2021-11-27T10:31:26Z</time>
      </trkpt>
      <trkpt lat="42.373055" lon="-7.745193">
        <time>2021-11-27T10:31:27Z</time>
      </trkpt>
      <trkpt lat="42.37305" lon="-7.745214">
        <time>2021-11-27T10:31:28Z</time>
      </trkpt>
      <trkpt lat="42.373047" lon="-7.745234">
        <time>2021-11-27T10:31:29Z</time>
      </trkpt>
      <trkpt lat="42.37304" lon="-7.745253">
        <time>2021-11-27T10:31:30Z</time>
      </trkpt>
      <trkpt lat="42.37304" lon="-7.745271">
        <time>2021-11-27T10:31:31Z</time>
      </trkpt>
      <trkpt lat="42.37303" lon="-7.745289">
        <time>2021-11-27T10:31:32Z</time>
      </trkpt>
      <trkpt lat="42.37303" lon="-7.7453055">
        <time>2021-11-27T10:31:33Z</time>
      </trkpt>
      <trkpt lat="42.37303" lon="-7.7453237">
        <time>2021-11-27T10:31:34Z</time>
      </trkpt>
      <trkpt lat="42.373028" lon="-7.7453403">
        <time>2021-11-27T10:31:35Z</time>
      </trkpt>
      <trkpt lat="42.373024" lon="-7.745358">
        <time>2021-11-27T10:31:36Z</time>
      </trkpt>
      <trkpt lat="42.37302" lon="-7.745376">
        <time>2021-11-27T10:31:37Z</time>
      </trkpt>
      <trkpt lat="42.373016" lon="-7.7453938">
        <time>2021-11-27T10:31:38Z</time>
      </trkpt>
      <trkpt lat="42.37301" lon="-7.745412">
        <time>2021-11-27T10:31:39Z</time>
      </trkpt>
      <trkpt lat="42.373005" lon="-7.745429">
        <time>2021-11-27T10:31:40Z</time>
      </trkpt>
      <trkpt lat="42.372997" lon="-7.745446">
        <time>2021-11-27T10:31:41Z</time>
      </trkpt>
      <trkpt lat="42.372993" lon="-7.745465">
        <time>2021-11-27T10:31:42Z</time>
      </trkpt>
      <trkpt lat="42.372986" lon="-7.7454815">
        <time>2021-11-27T10:31:43Z</time>
      </trkpt>
      <trkpt lat="42.372982" lon="-7.7454977">
        <time>2021-11-27T10:31:44Z</time>
      </trkpt>
      <trkpt lat="42.37298" lon="-7.7455153">
        <time>2021-11-27T10:31:45Z</time>
      </trkpt>
      <trkpt lat="42.37297" lon="-7.7455335">
        <time>2021-11-27T10:31:46Z</time>
      </trkpt>
      <trkpt lat="42.372967" lon="-7.7455535">
        <time>2021-11-27T10:31:47Z</time>
      </trkpt>
      <trkpt lat="42.372963" lon="-7.7455697">
        <time>2021-11-27T10:31:48Z</time>
      </trkpt>
      <trkpt lat="42.372955" lon="-7.7455893">
        <time>2021-11-27T10:31:49Z</time>
      </trkpt>
      <trkpt lat="42.37295" lon="-7.745608">
        <time>2021-11-27T10:31:50Z</time>
      </trkpt>
      <trkpt lat="42.372948" lon="-7.7456255">
        <time>2021-11-27T10:31:51Z</time>
      </trkpt>
      <trkpt lat="42.372948" lon="-7.7456455">
        <time>2021-11-27T10:31:52Z</time>
      </trkpt>
      <trkpt lat="42.372944" lon="-7.745666">
        <time>2021-11-27T10:31:53Z</time>
      </trkpt>
      <trkpt lat="42.372944" lon="-7.7456865">
        <time>2021-11-27T10:31:54Z</time>
      </trkpt>
      <trkpt lat="42.372944" lon="-7.745708">
        <time>2021-11-27T10:31:55Z</time>
      </trkpt>
      <trkpt lat="42.372944" lon="-7.7457285">
        <time>2021-11-27T10:31:56Z</time>
      </trkpt>
      <trkpt lat="42.372948" lon="-7.7457466">
        <time>2021-11-27T10:31:57Z</time>
      </trkpt>
      <trkpt lat="42.372948" lon="-7.745767">
        <time>2021-11-27T10:31:58Z</time>
      </trkpt>
      <trkpt lat="42.37295" lon="-7.7457876">
        <time>2021-11-27T10:31:59Z</time>
      </trkpt>
      <trkpt lat="42.372955" lon="-7.745809">
        <time>2021-11-27T10:32:00Z</time>
      </trkpt>
      <trkpt lat="42.372963" lon="-7.745829">
        <time>2021-11-27T10:32:01Z</time>
      </trkpt>
      <trkpt lat="42.372963" lon="-7.74585">
        <time>2021-11-27T10:32:02Z</time>
      </trkpt>
      <trkpt lat="42.37297" lon="-7.7458687">
        <time>2021-11-27T10:32:03Z</time>
      </trkpt>
      <trkpt lat="42.37298" lon="-7.7458854">
        <time>2021-11-27T10:32:04Z</time>
      </trkpt>
      <trkpt lat="42.372986" lon="-7.7459016">
        <time>2021-11-27T10:32:05Z</time>
      </trkpt>
      <trkpt lat="42.372993" lon="-7.7459173">
        <time>2021-11-27T10:32:06Z</time>
      </trkpt>
      <trkpt lat="42.373" lon="-7.745934">
        <time>2021-11-27T10:32:07Z</time>
      </trkpt>
      <trkpt lat="42.37301" lon="-7.745953">
        <time>2021-11-27T10:32:08Z</time>
      </trkpt>
      <trkpt lat="42.373016" lon="-7.7459726">
        <time>2021-11-27T10:32:09Z</time>
      </trkpt>
      <trkpt lat="42.373024" lon="-7.7459936">
        <time>2021-11-27T10:32:10Z</time>
      </trkpt>
      <trkpt lat="42.373028" lon="-7.7460136">
        <time>2021-11-27T10:32:11Z</time>
      </trkpt>
      <trkpt lat="42.373066" lon="-7.7460885">
        <time>2021-11-27T10:32:14Z</time>
      </trkpt>
      <trkpt lat="42.37307" lon="-7.746096">
        <time>2021-11-27T10:32:15Z</time>
      </trkpt>
      <trkpt lat="42.37307" lon="-7.746107">
        <time>2021-11-27T10:32:16Z</time>
      </trkpt>
      <trkpt lat="42.373077" lon="-7.7461205">
        <time>2021-11-27T10:32:18Z</time>
      </trkpt>
      <trkpt lat="42.373085" lon="-7.746143">
        <time>2021-11-27T10:32:19Z</time>
      </trkpt>
      <trkpt lat="42.373116" lon="-7.746227">
        <time>2021-11-27T10:32:22Z</time>
      </trkpt>
      <trkpt lat="42.373116" lon="-7.746239">
        <time>2021-11-27T10:32:23Z</time>
      </trkpt>
      <trkpt lat="42.37311" lon="-7.746259">
        <time>2021-11-27T10:32:24Z</time>
      </trkpt>
      <trkpt lat="42.37311" lon="-7.7462816">
        <time>2021-11-27T10:32:25Z</time>
      </trkpt>
      <trkpt lat="42.373108" lon="-7.7463045">
        <time>2021-11-27T10:32:26Z</time>
      </trkpt>
      <trkpt lat="42.37311" lon="-7.7463264">
        <time>2021-11-27T10:32:27Z</time>
      </trkpt>
      <trkpt lat="42.373108" lon="-7.746347">
        <time>2021-11-27T10:32:28Z</time>
      </trkpt>
      <trkpt lat="42.373108" lon="-7.746364">
        <time>2021-11-27T10:32:29Z</time>
      </trkpt>
      <trkpt lat="42.3731" lon="-7.7463813">
        <time>2021-11-27T10:32:31Z</time>
      </trkpt>
      <trkpt lat="42.373093" lon="-7.746405">
        <time>2021-11-27T10:32:33Z</time>
      </trkpt>
      <trkpt lat="42.373077" lon="-7.7464275">
        <time>2021-11-27T10:32:35Z</time>
      </trkpt>
      <trkpt lat="42.373062" lon="-7.7464476">
        <time>2021-11-27T10:32:36Z</time>
      </trkpt>
      <trkpt lat="42.373047" lon="-7.7464614">
        <time>2021-11-27T10:32:37Z</time>
      </trkpt>
      <trkpt lat="42.37303" lon="-7.746472">
        <time>2021-11-27T10:32:38Z</time>
      </trkpt>
      <trkpt lat="42.373016" lon="-7.74648">
        <time>2021-11-27T10:32:39Z</time>
      </trkpt>
      <trkpt lat="42.373" lon="-7.7464895">
        <time>2021-11-27T10:32:40Z</time>
      </trkpt>
      <trkpt lat="42.372986" lon="-7.746498">
        <time>2021-11-27T10:32:41Z</time>
      </trkpt>
      <trkpt lat="42.37297" lon="-7.746506">
        <time>2021-11-27T10:32:42Z</time>
      </trkpt>
      <trkpt lat="42.372955" lon="-7.746515">
        <time>2021-11-27T10:32:43Z</time>
      </trkpt>
      <trkpt lat="42.372944" lon="-7.7465205">
        <time>2021-11-27T10:32:44Z</time>
      </trkpt>
      <trkpt lat="42.37293" lon="-7.7465253">
        <time>2021-11-27T10:32:45Z</time>
      </trkpt>
      <trkpt lat="42.372913" lon="-7.7465286">
        <time>2021-11-27T10:32:46Z</time>
      </trkpt>
      <trkpt lat="42.372894" lon="-7.746531">
        <time>2021-11-27T10:32:47Z</time>
      </trkpt>
      <trkpt lat="42.37288" lon="-7.7465343">
        <time>2021-11-27T10:32:48Z</time>
      </trkpt>
      <trkpt lat="42.37286" lon="-7.746538">
        <time>2021-11-27T10:32:49Z</time>
      </trkpt>
      <trkpt lat="42.372845" lon="-7.746543">
        <time>2021-11-27T10:32:50Z</time>
      </trkpt>
      <trkpt lat="42.37283" lon="-7.7465453">
        <time>2021-11-27T10:32:51Z</time>
      </trkpt>
      <trkpt lat="42.372814" lon="-7.7465477">
        <time>2021-11-27T10:32:52Z</time>
      </trkpt>
      <trkpt lat="42.372803" lon="-7.746551">
        <time>2021-11-27T10:32:53Z</time>
      </trkpt>
      <trkpt lat="42.372787" lon="-7.746553">
        <time>2021-11-27T10:32:54Z</time>
      </trkpt>
      <trkpt lat="42.372772" lon="-7.746555">
        <time>2021-11-27T10:32:55Z</time>
      </trkpt>
      <trkpt lat="42.372757" lon="-7.7465563">
        <time>2021-11-27T10:32:56Z</time>
      </trkpt>
      <trkpt lat="42.372738" lon="-7.7465563">
        <time>2021-11-27T10:32:57Z</time>
      </trkpt>
      <trkpt lat="42.37272" lon="-7.7465553">
        <time>2021-11-27T10:32:58Z</time>
      </trkpt>
      <trkpt lat="42.372704" lon="-7.7465553">
        <time>2021-11-27T10:32:59Z</time>
      </trkpt>
      <trkpt lat="42.372684" lon="-7.7465553">
        <time>2021-11-27T10:33:00Z</time>
      </trkpt>
      <trkpt lat="42.37267" lon="-7.7465553">
        <time>2021-11-27T10:33:01Z</time>
      </trkpt>
      <trkpt lat="42.372654" lon="-7.746553">
        <time>2021-11-27T10:33:02Z</time>
      </trkpt>
      <trkpt lat="42.372643" lon="-7.7465477">
        <time>2021-11-27T10:33:03Z</time>
      </trkpt>
      <trkpt lat="42.372627" lon="-7.746544">
        <time>2021-11-27T10:33:04Z</time>
      </trkpt>
      <trkpt lat="42.372612" lon="-7.7465415">
        <time>2021-11-27T10:33:05Z</time>
      </trkpt>
      <trkpt lat="42.3726" lon="-7.74654">
        <time>2021-11-27T10:33:06Z</time>
      </trkpt>
      <trkpt lat="42.37259" lon="-7.746539">
        <time>2021-11-27T10:33:07Z</time>
      </trkpt>
      <trkpt lat="42.372578" lon="-7.7465396">
        <time>2021-11-27T10:33:08Z</time>
      </trkpt>
      <trkpt lat="42.372566" lon="-7.7465396">
        <time>2021-11-27T10:33:09Z</time>
      </trkpt>
      <trkpt lat="42.372555" lon="-7.746538">
        <time>2021-11-27T10:33:10Z</time>
      </trkpt>
      <trkpt lat="42.372543" lon="-7.7465324">
        <time>2021-11-27T10:33:11Z</time>
      </trkpt>
      <trkpt lat="42.372528" lon="-7.7465243">
        <time>2021-11-27T10:33:12Z</time>
      </trkpt>
      <trkpt lat="42.372513" lon="-7.7465153">
        <time>2021-11-27T10:33:13Z</time>
      </trkpt>
      <trkpt lat="42.372494" lon="-7.7465057">
        <time>2021-11-27T10:33:14Z</time>
      </trkpt>
      <trkpt lat="42.37248" lon="-7.7464967">
        <time>2021-11-27T10:33:15Z</time>
      </trkpt>
      <trkpt lat="42.372467" lon="-7.7464895">
        <time>2021-11-27T10:33:16Z</time>
      </trkpt>
      <trkpt lat="42.372456" lon="-7.7464824">
        <time>2021-11-27T10:33:17Z</time>
      </trkpt>
      <trkpt lat="42.372448" lon="-7.746476">
        <time>2021-11-27T10:33:18Z</time>
      </trkpt>
      <trkpt lat="42.372437" lon="-7.7464724">
        <time>2021-11-27T10:33:19Z</time>
      </trkpt>
      <trkpt lat="42.372425" lon="-7.746473">
        <time>2021-11-27T10:33:20Z</time>
      </trkpt>
      <trkpt lat="42.372417" lon="-7.746474">
        <time>2021-11-27T10:33:21Z</time>
      </trkpt>
      <trkpt lat="42.372406" lon="-7.7464743">
        <time>2021-11-27T10:33:22Z</time>
      </trkpt>
      <trkpt lat="42.372395" lon="-7.7464743">
        <time>2021-11-27T10:33:23Z</time>
      </trkpt>
      <trkpt lat="42.37238" lon="-7.746472">
        <time>2021-11-27T10:33:24Z</time>
      </trkpt>
      <trkpt lat="42.372368" lon="-7.746468">
        <time>2021-11-27T10:33:25Z</time>
      </trkpt>
      <trkpt lat="42.372356" lon="-7.746464">
        <time>2021-11-27T10:33:26Z</time>
      </trkpt>
      <trkpt lat="42.372345" lon="-7.746462">
        <time>2021-11-27T10:33:27Z</time>
      </trkpt>
      <trkpt lat="42.372334" lon="-7.7464614">
        <time>2021-11-27T10:33:28Z</time>
      </trkpt>
      <trkpt lat="42.372322" lon="-7.74646">
        <time>2021-11-27T10:33:29Z</time>
      </trkpt>
      <trkpt lat="42.372314" lon="-7.746459">
        <time>2021-11-27T10:33:30Z</time>
      </trkpt>
      <trkpt lat="42.3723" lon="-7.746456">
        <time>2021-11-27T10:33:31Z</time>
      </trkpt>
      <trkpt lat="42.372288" lon="-7.7464533">
        <time>2021-11-27T10:33:32Z</time>
      </trkpt>
      <trkpt lat="42.37227" lon="-7.746452">
        <time>2021-11-27T10:33:33Z</time>
      </trkpt>
      <trkpt lat="42.372253" lon="-7.7464504">
        <time>2021-11-27T10:33:34Z</time>
      </trkpt>
      <trkpt lat="42.37224" lon="-7.746448">
        <time>2021-11-27T10:33:35Z</time>
      </trkpt>
      <trkpt lat="42.372223" lon="-7.746446">
        <time>2021-11-27T10:33:36Z</time>
      </trkpt>
      <trkpt lat="42.372208" lon="-7.746444">
        <time>2021-11-27T10:33:37Z</time>
      </trkpt>
      <trkpt lat="42.372192" lon="-7.7464414">
        <time>2021-11-27T10:33:39Z</time>
      </trkpt>
      <trkpt lat="42.372177" lon="-7.7464404">
        <time>2021-11-27T10:33:39Z</time>
      </trkpt>
      <trkpt lat="42.37216" lon="-7.746441">
        <time>2021-11-27T10:33:40Z</time>
      </trkpt>
      <trkpt lat="42.37215" lon="-7.746443">
        <time>2021-11-27T10:33:41Z</time>
      </trkpt>
      <trkpt lat="42.372135" lon="-7.746444">
        <time>2021-11-27T10:33:42Z</time>
      </trkpt>
      <trkpt lat="42.37212" lon="-7.746444">
        <time>2021-11-27T10:33:43Z</time>
      </trkpt>
      <trkpt lat="42.37211" lon="-7.7464404">
        <time>2021-11-27T10:33:44Z</time>
      </trkpt>
      <trkpt lat="42.372093" lon="-7.7464366">
        <time>2021-11-27T10:33:45Z</time>
      </trkpt>
      <trkpt lat="42.37208" lon="-7.7464333">
        <time>2021-11-27T10:33:46Z</time>
      </trkpt>
      <trkpt lat="42.372066" lon="-7.74643">
        <time>2021-11-27T10:33:47Z</time>
      </trkpt>
      <trkpt lat="42.372055" lon="-7.746429">
        <time>2021-11-27T10:33:48Z</time>
      </trkpt>
      <trkpt lat="42.372044" lon="-7.746428">
        <time>2021-11-27T10:33:49Z</time>
      </trkpt>
      <trkpt lat="42.37203" lon="-7.746427">
        <time>2021-11-27T10:33:50Z</time>
      </trkpt>
      <trkpt lat="42.372013" lon="-7.746426">
        <time>2021-11-27T10:33:51Z</time>
      </trkpt>
      <trkpt lat="42.372" lon="-7.7464275">
        <time>2021-11-27T10:33:52Z</time>
      </trkpt>
      <trkpt lat="42.37199" lon="-7.7464294">
        <time>2021-11-27T10:33:53Z</time>
      </trkpt>
      <trkpt lat="42.371975" lon="-7.7464333">
        <time>2021-11-27T10:33:54Z</time>
      </trkpt>
      <trkpt lat="42.371964" lon="-7.7464366">
        <time>2021-11-27T10:33:55Z</time>
      </trkpt>
      <trkpt lat="42.371944" lon="-7.7464414">
        <time>2021-11-27T10:33:56Z</time>
      </trkpt>
      <trkpt lat="42.371925" lon="-7.746446">
        <time>2021-11-27T10:33:57Z</time>
      </trkpt>
      <trkpt lat="42.371906" lon="-7.7464504">
        <time>2021-11-27T10:33:58Z</time>
      </trkpt>
      <trkpt lat="42.371887" lon="-7.746454">
        <time>2021-11-27T10:33:59Z</time>
      </trkpt>
      <trkpt lat="42.371872" lon="-7.746456">
        <time>2021-11-27T10:34:00Z</time>
      </trkpt>
      <trkpt lat="42.371857" lon="-7.746461">
        <time>2021-11-27T10:34:01Z</time>
      </trkpt>
      <trkpt lat="42.37184" lon="-7.746465">
        <time>2021-11-27T10:34:02Z</time>
      </trkpt>
      <trkpt lat="42.371826" lon="-7.746469">
        <time>2021-11-27T10:34:03Z</time>
      </trkpt>
      <trkpt lat="42.37181" lon="-7.7464743">
        <time>2021-11-27T10:34:04Z</time>
      </trkpt>
      <trkpt lat="42.371796" lon="-7.7464786">
        <time>2021-11-27T10:34:05Z</time>
      </trkpt>
      <trkpt lat="42.37178" lon="-7.7464843">
        <time>2021-11-27T10:34:06Z</time>
      </trkpt>
      <trkpt lat="42.37176" lon="-7.746493">
        <time>2021-11-27T10:34:07Z</time>
      </trkpt>
      <trkpt lat="42.371746" lon="-7.7465">
        <time>2021-11-27T10:34:08Z</time>
      </trkpt>
      <trkpt lat="42.37173" lon="-7.746508">
        <time>2021-11-27T10:34:09Z</time>
      </trkpt>
      <trkpt lat="42.371716" lon="-7.7465158">
        <time>2021-11-27T10:34:10Z</time>
      </trkpt>
      <trkpt lat="42.371704" lon="-7.7465215">
        <time>2021-11-27T10:34:11Z</time>
      </trkpt>
      <trkpt lat="42.37169" lon="-7.7465267">
        <time>2021-11-27T10:34:12Z</time>
      </trkpt>
      <trkpt lat="42.371677" lon="-7.74653">
        <time>2021-11-27T10:34:13Z</time>
      </trkpt>
      <trkpt lat="42.371662" lon="-7.7465343">
        <time>2021-11-27T10:34:14Z</time>
      </trkpt>
      <trkpt lat="42.371647" lon="-7.7465363">
        <time>2021-11-27T10:34:15Z</time>
      </trkpt>
      <trkpt lat="42.37163" lon="-7.746538">
        <time>2021-11-27T10:34:16Z</time>
      </trkpt>
      <trkpt lat="42.371616" lon="-7.74654">
        <time>2021-11-27T10:34:17Z</time>
      </trkpt>
      <trkpt lat="42.3716" lon="-7.746543">
        <time>2021-11-27T10:34:18Z</time>
      </trkpt>
      <trkpt lat="42.37159" lon="-7.7465477">
        <time>2021-11-27T10:34:19Z</time>
      </trkpt>
      <trkpt lat="42.37158" lon="-7.7465525">
        <time>2021-11-27T10:34:20Z</time>
      </trkpt>
      <trkpt lat="42.371563" lon="-7.7465563">
        <time>2021-11-27T10:34:21Z</time>
      </trkpt>
      <trkpt lat="42.37155" lon="-7.74656">
        <time>2021-11-27T10:34:22Z</time>
      </trkpt>
      <trkpt lat="42.37154" lon="-7.7465644">
        <time>2021-11-27T10:34:23Z</time>
      </trkpt>
      <trkpt lat="42.37153" lon="-7.746569">
        <time>2021-11-27T10:34:24Z</time>
      </trkpt>
      <trkpt lat="42.371517" lon="-7.746574">
        <time>2021-11-27T10:34:25Z</time>
      </trkpt>
      <trkpt lat="42.371506" lon="-7.746579">
        <time>2021-11-27T10:34:26Z</time>
      </trkpt>
      <trkpt lat="42.371494" lon="-7.7465854">
        <time>2021-11-27T10:34:27Z</time>
      </trkpt>
      <trkpt lat="42.371483" lon="-7.7465916">
        <time>2021-11-27T10:34:28Z</time>
      </trkpt>
      <trkpt lat="42.371468" lon="-7.7465944">
        <time>2021-11-27T10:34:29Z</time>
      </trkpt>
      <trkpt lat="42.371456" lon="-7.746596">
        <time>2021-11-27T10:34:30Z</time>
      </trkpt>
      <trkpt lat="42.37144" lon="-7.746596">
        <time>2021-11-27T10:34:31Z</time>
      </trkpt>
      <trkpt lat="42.371426" lon="-7.7465982">
        <time>2021-11-27T10:34:32Z</time>
      </trkpt>
      <trkpt lat="42.37141" lon="-7.746602">
        <time>2021-11-27T10:34:33Z</time>
      </trkpt>
      <trkpt lat="42.371395" lon="-7.7466073">
        <time>2021-11-27T10:34:34Z</time>
      </trkpt>
      <trkpt lat="42.371376" lon="-7.746612">
        <time>2021-11-27T10:34:35Z</time>
      </trkpt>
      <trkpt lat="42.37136" lon="-7.7466164">
        <time>2021-11-27T10:34:36Z</time>
      </trkpt>
      <trkpt lat="42.37134" lon="-7.746622">
        <time>2021-11-27T10:34:37Z</time>
      </trkpt>
      <trkpt lat="42.371326" lon="-7.7466283">
        <time>2021-11-27T10:34:38Z</time>
      </trkpt>
      <trkpt lat="42.37131" lon="-7.7466364">
        <time>2021-11-27T10:34:39Z</time>
      </trkpt>
      <trkpt lat="42.371296" lon="-7.7466426">
        <time>2021-11-27T10:34:40Z</time>
      </trkpt>
      <trkpt lat="42.37128" lon="-7.746648">
        <time>2021-11-27T10:34:41Z</time>
      </trkpt>
      <trkpt lat="42.371265" lon="-7.746652">
        <time>2021-11-27T10:34:42Z</time>
      </trkpt>
      <trkpt lat="42.37125" lon="-7.7466564">
        <time>2021-11-27T10:34:43Z</time>
      </trkpt>
      <trkpt lat="42.371235" lon="-7.746661">
        <time>2021-11-27T10:34:44Z</time>
      </trkpt>
      <trkpt lat="42.371223" lon="-7.7466636">
        <time>2021-11-27T10:34:45Z</time>
      </trkpt>
      <trkpt lat="42.371212" lon="-7.7466664">
        <time>2021-11-27T10:34:46Z</time>
      </trkpt>
      <trkpt lat="42.3712" lon="-7.7466674">
        <time>2021-11-27T10:34:47Z</time>
      </trkpt>
      <trkpt lat="42.371185" lon="-7.7466683">
        <time>2021-11-27T10:34:48Z</time>
      </trkpt>
      <trkpt lat="42.371174" lon="-7.746669">
        <time>2021-11-27T10:34:49Z</time>
      </trkpt>
      <trkpt lat="42.371155" lon="-7.7466702">
        <time>2021-11-27T10:34:49Z</time>
      </trkpt>
      <trkpt lat="42.37114" lon="-7.746672">
        <time>2021-11-27T10:34:50Z</time>
      </trkpt>
      <trkpt lat="42.371124" lon="-7.746674">
        <time>2021-11-27T10:34:51Z</time>
      </trkpt>
      <trkpt lat="42.37111" lon="-7.746676">
        <time>2021-11-27T10:34:52Z</time>
      </trkpt>
      <trkpt lat="42.371094" lon="-7.746678">
        <time>2021-11-27T10:34:53Z</time>
      </trkpt>
      <trkpt lat="42.371082" lon="-7.7466807">
        <time>2021-11-27T10:34:54Z</time>
      </trkpt>
      <trkpt lat="42.37107" lon="-7.746684">
        <time>2021-11-27T10:34:55Z</time>
      </trkpt>
      <trkpt lat="42.371056" lon="-7.7466874">
        <time>2021-11-27T10:34:56Z</time>
      </trkpt>
      <trkpt lat="42.371044" lon="-7.7466908">
        <time>2021-11-27T10:34:57Z</time>
      </trkpt>
      <trkpt lat="42.371033" lon="-7.746693">
        <time>2021-11-27T10:34:58Z</time>
      </trkpt>
      <trkpt lat="42.371014" lon="-7.7466955">
        <time>2021-11-27T10:34:59Z</time>
      </trkpt>
      <trkpt lat="42.371" lon="-7.7466984">
        <time>2021-11-27T10:35:00Z</time>
      </trkpt>
      <trkpt lat="42.370983" lon="-7.746701">
        <time>2021-11-27T10:35:01Z</time>
      </trkpt>
      <trkpt lat="42.370964" lon="-7.746704">
        <time>2021-11-27T10:35:02Z</time>
      </trkpt>
      <trkpt lat="42.370953" lon="-7.746706">
        <time>2021-11-27T10:35:03Z</time>
      </trkpt>
      <trkpt lat="42.370937" lon="-7.746707">
        <time>2021-11-27T10:35:04Z</time>
      </trkpt>
      <trkpt lat="42.370922" lon="-7.746707">
        <time>2021-11-27T10:35:05Z</time>
      </trkpt>
      <trkpt lat="42.370907" lon="-7.746704">
        <time>2021-11-27T10:35:06Z</time>
      </trkpt>
      <trkpt lat="42.37089" lon="-7.7466993">
        <time>2021-11-27T10:35:07Z</time>
      </trkpt>
      <trkpt lat="42.37088" lon="-7.7466946">
        <time>2021-11-27T10:35:08Z</time>
      </trkpt>
      <trkpt lat="42.37087" lon="-7.746688">
        <time>2021-11-27T10:35:09Z</time>
      </trkpt>
      <trkpt lat="42.370857" lon="-7.7466826">
        <time>2021-11-27T10:35:10Z</time>
      </trkpt>
      <trkpt lat="42.370846" lon="-7.7466764">
        <time>2021-11-27T10:35:11Z</time>
      </trkpt>
      <trkpt lat="42.37083" lon="-7.7466707">
        <time>2021-11-27T10:35:12Z</time>
      </trkpt>
      <trkpt lat="42.370815" lon="-7.7466655">
        <time>2021-11-27T10:35:13Z</time>
      </trkpt>
      <trkpt lat="42.370804" lon="-7.7466598">
        <time>2021-11-27T10:35:14Z</time>
      </trkpt>
      <trkpt lat="42.37079" lon="-7.746654">
        <time>2021-11-27T10:35:15Z</time>
      </trkpt>
      <trkpt lat="42.370773" lon="-7.7466483">
        <time>2021-11-27T10:35:16Z</time>
      </trkpt>
      <trkpt lat="42.37076" lon="-7.746641">
        <time>2021-11-27T10:35:17Z</time>
      </trkpt>
      <trkpt lat="42.370747" lon="-7.7466335">
        <time>2021-11-27T10:35:18Z</time>
      </trkpt>
      <trkpt lat="42.370735" lon="-7.7466264">
        <time>2021-11-27T10:35:19Z</time>
      </trkpt>
      <trkpt lat="42.37072" lon="-7.74662">
        <time>2021-11-27T10:35:20Z</time>
      </trkpt>
      <trkpt lat="42.370705" lon="-7.7466145">
        <time>2021-11-27T10:35:21Z</time>
      </trkpt>
      <trkpt lat="42.37069" lon="-7.746609">
        <time>2021-11-27T10:35:22Z</time>
      </trkpt>
      <trkpt lat="42.370674" lon="-7.7466016">
        <time>2021-11-27T10:35:23Z</time>
      </trkpt>
      <trkpt lat="42.37066" lon="-7.746592">
        <time>2021-11-27T10:35:24Z</time>
      </trkpt>
      <trkpt lat="42.37064" lon="-7.7465777">
        <time>2021-11-27T10:35:25Z</time>
      </trkpt>
      <trkpt lat="42.370625" lon="-7.7465644">
        <time>2021-11-27T10:35:26Z</time>
      </trkpt>
      <trkpt lat="42.37061" lon="-7.7465515">
        <time>2021-11-27T10:35:27Z</time>
      </trkpt>
      <trkpt lat="42.370594" lon="-7.746539">
        <time>2021-11-27T10:35:28Z</time>
      </trkpt>
      <trkpt lat="42.37058" lon="-7.746528">
        <time>2021-11-27T10:35:29Z</time>
      </trkpt>
      <trkpt lat="42.370567" lon="-7.746517">
        <time>2021-11-27T10:35:30Z</time>
      </trkpt>
      <trkpt lat="42.370556" lon="-7.746505">
        <time>2021-11-27T10:35:31Z</time>
      </trkpt>
      <trkpt lat="42.37055" lon="-7.7464943">
        <time>2021-11-27T10:35:32Z</time>
      </trkpt>
      <trkpt lat="42.370533" lon="-7.746486">
        <time>2021-11-27T10:35:33Z</time>
      </trkpt>
      <trkpt lat="42.370525" lon="-7.746482">
        <time>2021-11-27T10:35:34Z</time>
      </trkpt>
      <trkpt lat="42.37051" lon="-7.7464767">
        <time>2021-11-27T10:35:35Z</time>
      </trkpt>
      <trkpt lat="42.3705" lon="-7.746468">
        <time>2021-11-27T10:35:36Z</time>
      </trkpt>
      <trkpt lat="42.370487" lon="-7.746457">
        <time>2021-11-27T10:35:37Z</time>
      </trkpt>
      <trkpt lat="42.370476" lon="-7.746446">
        <time>2021-11-27T10:35:38Z</time>
      </trkpt>
      <trkpt lat="42.370464" lon="-7.7464333">
        <time>2021-11-27T10:35:39Z</time>
      </trkpt>
      <trkpt lat="42.37045" lon="-7.7464204">
        <time>2021-11-27T10:35:40Z</time>
      </trkpt>
      <trkpt lat="42.370438" lon="-7.7464104">
        <time>2021-11-27T10:35:41Z</time>
      </trkpt>
      <trkpt lat="42.370426" lon="-7.7463994">
        <time>2021-11-27T10:35:42Z</time>
      </trkpt>
      <trkpt lat="42.37041" lon="-7.7463884">
        <time>2021-11-27T10:35:43Z</time>
      </trkpt>
      <trkpt lat="42.3704" lon="-7.7463756">
        <time>2021-11-27T10:35:44Z</time>
      </trkpt>
      <trkpt lat="42.37039" lon="-7.746364">
        <time>2021-11-27T10:35:45Z</time>
      </trkpt>
      <trkpt lat="42.37038" lon="-7.7463565">
        <time>2021-11-27T10:35:46Z</time>
      </trkpt>
      <trkpt lat="42.370365" lon="-7.7463417">
        <time>2021-11-27T10:35:48Z</time>
      </trkpt>
      <trkpt lat="42.370365" lon="-7.746341">
        <time>2021-11-27T10:35:49Z</time>
      </trkpt>
      <trkpt lat="42.37037" lon="-7.74634">
        <time>2021-11-27T10:35:50Z</time>
      </trkpt>
      <trkpt lat="42.37037" lon="-7.7463374">
        <time>2021-11-27T10:35:51Z</time>
      </trkpt>
      <trkpt lat="42.37037" lon="-7.7463346">
        <time>2021-11-27T10:35:53Z</time>
      </trkpt>
      <trkpt lat="42.370365" lon="-7.7463346">
        <time>2021-11-27T10:35:55Z</time>
      </trkpt>
      <trkpt lat="42.37036" lon="-7.746334">
        <time>2021-11-27T10:35:56Z</time>
      </trkpt>
      <trkpt lat="42.370358" lon="-7.7463317">
        <time>2021-11-27T10:35:57Z</time>
      </trkpt>
      <trkpt lat="42.370354" lon="-7.746327">
        <time>2021-11-27T10:35:58Z</time>
      </trkpt>
      <trkpt lat="42.370346" lon="-7.746324">
        <time>2021-11-27T10:35:59Z</time>
      </trkpt>
      <trkpt lat="42.370342" lon="-7.746319">
        <time>2021-11-27T10:36:00Z</time>
      </trkpt>
      <trkpt lat="42.37034" lon="-7.746312">
        <time>2021-11-27T10:36:01Z</time>
      </trkpt>
      <trkpt lat="42.370335" lon="-7.746304">
        <time>2021-11-27T10:36:02Z</time>
      </trkpt>
      <trkpt lat="42.37033" lon="-7.7462945">
        <time>2021-11-27T10:36:03Z</time>
      </trkpt>
      <trkpt lat="42.37033" lon="-7.746284">
        <time>2021-11-27T10:36:04Z</time>
      </trkpt>
      <trkpt lat="42.370323" lon="-7.7462745">
        <time>2021-11-27T10:36:05Z</time>
      </trkpt>
      <trkpt lat="42.37032" lon="-7.746265">
        <time>2021-11-27T10:36:06Z</time>
      </trkpt>
      <trkpt lat="42.370316" lon="-7.746254">
        <time>2021-11-27T10:36:07Z</time>
      </trkpt>
      <trkpt lat="42.370308" lon="-7.7462444">
        <time>2021-11-27T10:36:08Z</time>
      </trkpt>
      <trkpt lat="42.370304" lon="-7.746235">
        <time>2021-11-27T10:36:09Z</time>
      </trkpt>
      <trkpt lat="42.3703" lon="-7.7462244">
        <time>2021-11-27T10:36:10Z</time>
      </trkpt>
      <trkpt lat="42.3703" lon="-7.7462144">
        <time>2021-11-27T10:36:11Z</time>
      </trkpt>
      <trkpt lat="42.3703" lon="-7.7462063">
        <time>2021-11-27T10:36:12Z</time>
      </trkpt>
      <trkpt lat="42.3703" lon="-7.74618">
        <time>2021-11-27T10:36:14Z</time>
      </trkpt>
      <trkpt lat="42.3703" lon="-7.746179">
        <time>2021-11-27T10:36:15Z</time>
      </trkpt>
      <trkpt lat="42.3703" lon="-7.746178">
        <time>2021-11-27T10:36:16Z</time>
      </trkpt>
      <trkpt lat="42.3703" lon="-7.7461634">
        <time>2021-11-27T10:36:18Z</time>
      </trkpt>
      <trkpt lat="42.3703" lon="-7.7461605">
        <time>2021-11-27T10:36:19Z</time>
      </trkpt>
      <trkpt lat="42.3703" lon="-7.7461557">
        <time>2021-11-27T10:36:20Z</time>
      </trkpt>
      <trkpt lat="42.3703" lon="-7.7461486">
        <time>2021-11-27T10:36:21Z</time>
      </trkpt>
      <trkpt lat="42.3703" lon="-7.746141">
        <time>2021-11-27T10:36:22Z</time>
      </trkpt>
      <trkpt lat="42.3703" lon="-7.746134">
        <time>2021-11-27T10:36:23Z</time>
      </trkpt>
      <trkpt lat="42.3703" lon="-7.7461247">
        <time>2021-11-27T10:36:24Z</time>
      </trkpt>
      <trkpt lat="42.3703" lon="-7.7461166">
        <time>2021-11-27T10:36:25Z</time>
      </trkpt>
      <trkpt lat="42.3703" lon="-7.7460947">
        <time>2021-11-27T10:36:27Z</time>
      </trkpt>
      <trkpt lat="42.3703" lon="-7.7460923">
        <time>2021-11-27T10:36:28Z</time>
      </trkpt>
      <trkpt lat="42.3703" lon="-7.7460856">
        <time>2021-11-27T10:36:29Z</time>
      </trkpt>
      <trkpt lat="42.3703" lon="-7.7460756">
        <time>2021-11-27T10:36:30Z</time>
      </trkpt>
      <trkpt lat="42.370296" lon="-7.7460623">
        <time>2021-11-27T10:36:31Z</time>
      </trkpt>
      <trkpt lat="42.370293" lon="-7.7460456">
        <time>2021-11-27T10:36:32Z</time>
      </trkpt>
      <trkpt lat="42.37028" lon="-7.746028">
        <time>2021-11-27T10:36:33Z</time>
      </trkpt>
      <trkpt lat="42.370274" lon="-7.7460084">
        <time>2021-11-27T10:36:34Z</time>
      </trkpt>
      <trkpt lat="42.370266" lon="-7.7459884">
        <time>2021-11-27T10:36:35Z</time>
      </trkpt>
      <trkpt lat="42.37026" lon="-7.74597">
        <time>2021-11-27T10:36:36Z</time>
      </trkpt>
      <trkpt lat="42.370255" lon="-7.7459507">
        <time>2021-11-27T10:36:37Z</time>
      </trkpt>
      <trkpt lat="42.370247" lon="-7.7459297">
        <time>2021-11-27T10:36:38Z</time>
      </trkpt>
      <trkpt lat="42.37024" lon="-7.74591">
        <time>2021-11-27T10:36:39Z</time>
      </trkpt>
      <trkpt lat="42.37023" lon="-7.745893">
        <time>2021-11-27T10:36:40Z</time>
      </trkpt>
      <trkpt lat="42.37022" lon="-7.745878">
        <time>2021-11-27T10:36:41Z</time>
      </trkpt>
      <trkpt lat="42.370213" lon="-7.7458644">
        <time>2021-11-27T10:36:42Z</time>
      </trkpt>
      <trkpt lat="42.370205" lon="-7.745849">
        <time>2021-11-27T10:36:43Z</time>
      </trkpt>
      <trkpt lat="42.370197" lon="-7.7458334">
        <time>2021-11-27T10:36:44Z</time>
      </trkpt>
      <trkpt lat="42.37019" lon="-7.745816">
        <time>2021-11-27T10:36:45Z</time>
      </trkpt>
      <trkpt lat="42.370186" lon="-7.745797">
        <time>2021-11-27T10:36:46Z</time>
      </trkpt>
      <trkpt lat="42.370182" lon="-7.7457786">
        <time>2021-11-27T10:36:47Z</time>
      </trkpt>
      <trkpt lat="42.370174" lon="-7.7457623">
        <time>2021-11-27T10:36:48Z</time>
      </trkpt>
      <trkpt lat="42.370167" lon="-7.7457466">
        <time>2021-11-27T10:36:49Z</time>
      </trkpt>
      <trkpt lat="42.370163" lon="-7.745732">
        <time>2021-11-27T10:36:50Z</time>
      </trkpt>
      <trkpt lat="42.37016" lon="-7.745719">
        <time>2021-11-27T10:36:51Z</time>
      </trkpt>
      <trkpt lat="42.37015" lon="-7.7457094">
        <time>2021-11-27T10:36:52Z</time>
      </trkpt>
      <trkpt lat="42.37015" lon="-7.7456994">
        <time>2021-11-27T10:36:53Z</time>
      </trkpt>
      <trkpt lat="42.37015" lon="-7.7456875">
        <time>2021-11-27T10:36:54Z</time>
      </trkpt>
      <trkpt lat="42.37015" lon="-7.7456756">
        <time>2021-11-27T10:36:55Z</time>
      </trkpt>
      <trkpt lat="42.370144" lon="-7.745662">
        <time>2021-11-27T10:36:56Z</time>
      </trkpt>
      <trkpt lat="42.37014" lon="-7.745648">
        <time>2021-11-27T10:36:57Z</time>
      </trkpt>
      <trkpt lat="42.370136" lon="-7.745636">
        <time>2021-11-27T10:36:58Z</time>
      </trkpt>
      <trkpt lat="42.37013" lon="-7.745623">
        <time>2021-11-27T10:36:59Z</time>
      </trkpt>
      <trkpt lat="42.37012" lon="-7.745609">
        <time>2021-11-27T10:37:00Z</time>
      </trkpt>
      <trkpt lat="42.370117" lon="-7.7455935">
        <time>2021-11-27T10:37:01Z</time>
      </trkpt>
      <trkpt lat="42.370113" lon="-7.7455783">
        <time>2021-11-27T10:37:02Z</time>
      </trkpt>
      <trkpt lat="42.370106" lon="-7.745563">
        <time>2021-11-27T10:37:03Z</time>
      </trkpt>
      <trkpt lat="42.370106" lon="-7.745549">
        <time>2021-11-27T10:37:04Z</time>
      </trkpt>
      <trkpt lat="42.3701" lon="-7.7455378">
        <time>2021-11-27T10:37:05Z</time>
      </trkpt>
      <trkpt lat="42.3701" lon="-7.7455263">
        <time>2021-11-27T10:37:06Z</time>
      </trkpt>
      <trkpt lat="42.37009" lon="-7.7455115">
        <time>2021-11-27T10:37:07Z</time>
      </trkpt>
      <trkpt lat="42.370087" lon="-7.7454977">
        <time>2021-11-27T10:37:08Z</time>
      </trkpt>
      <trkpt lat="42.370083" lon="-7.745485">
        <time>2021-11-27T10:37:09Z</time>
      </trkpt>
      <trkpt lat="42.370075" lon="-7.7454743">
        <time>2021-11-27T10:37:10Z</time>
      </trkpt>
      <trkpt lat="42.370075" lon="-7.7454624">
        <time>2021-11-27T10:37:11Z</time>
      </trkpt>
      <trkpt lat="42.370075" lon="-7.745453">
        <time>2021-11-27T10:37:12Z</time>
      </trkpt>
      <trkpt lat="42.370075" lon="-7.745442">
        <time>2021-11-27T10:37:13Z</time>
      </trkpt>
      <trkpt lat="42.37008" lon="-7.745432">
        <time>2021-11-27T10:37:14Z</time>
      </trkpt>
      <trkpt lat="42.370083" lon="-7.745422">
        <time>2021-11-27T10:37:15Z</time>
      </trkpt>
      <trkpt lat="42.370087" lon="-7.7454114">
        <time>2021-11-27T10:37:16Z</time>
      </trkpt>
      <trkpt lat="42.37009" lon="-7.745401">
        <time>2021-11-27T10:37:17Z</time>
      </trkpt>
      <trkpt lat="42.37009" lon="-7.7453914">
        <time>2021-11-27T10:37:18Z</time>
      </trkpt>
      <trkpt lat="42.370087" lon="-7.74538">
        <time>2021-11-27T10:37:19Z</time>
      </trkpt>
      <trkpt lat="42.370083" lon="-7.7453666">
        <time>2021-11-27T10:37:20Z</time>
      </trkpt>
      <trkpt lat="42.37008" lon="-7.745351">
        <time>2021-11-27T10:37:21Z</time>
      </trkpt>
      <trkpt lat="42.37007" lon="-7.7453365">
        <time>2021-11-27T10:37:22Z</time>
      </trkpt>
      <trkpt lat="42.370068" lon="-7.7453227">
        <time>2021-11-27T10:37:23Z</time>
      </trkpt>
      <trkpt lat="42.370064" lon="-7.745306">
        <time>2021-11-27T10:37:24Z</time>
      </trkpt>
      <trkpt lat="42.370068" lon="-7.745289">
        <time>2021-11-27T10:37:25Z</time>
      </trkpt>
      <trkpt lat="42.370075" lon="-7.745271">
        <time>2021-11-27T10:37:26Z</time>
      </trkpt>
      <trkpt lat="42.370083" lon="-7.7452555">
        <time>2021-11-27T10:37:27Z</time>
      </trkpt>
      <trkpt lat="42.370087" lon="-7.745243">
        <time>2021-11-27T10:37:28Z</time>
      </trkpt>
      <trkpt lat="42.37009" lon="-7.74523">
        <time>2021-11-27T10:37:29Z</time>
      </trkpt>
      <trkpt lat="42.3701" lon="-7.745214">
        <time>2021-11-27T10:37:30Z</time>
      </trkpt>
      <trkpt lat="42.3701" lon="-7.7451963">
        <time>2021-11-27T10:37:31Z</time>
      </trkpt>
      <trkpt lat="42.370094" lon="-7.7451777">
        <time>2021-11-27T10:37:32Z</time>
      </trkpt>
      <trkpt lat="42.370094" lon="-7.7451577">
        <time>2021-11-27T10:37:33Z</time>
      </trkpt>
      <trkpt lat="42.3701" lon="-7.7451377">
        <time>2021-11-27T10:37:34Z</time>
      </trkpt>
      <trkpt lat="42.370106" lon="-7.7451167">
        <time>2021-11-27T10:37:35Z</time>
      </trkpt>
      <trkpt lat="42.370113" lon="-7.7450976">
        <time>2021-11-27T10:37:36Z</time>
      </trkpt>
      <trkpt lat="42.370117" lon="-7.745079">
        <time>2021-11-27T10:37:38Z</time>
      </trkpt>
      <trkpt lat="42.37013" lon="-7.7450624">
        <time>2021-11-27T10:37:38Z</time>
      </trkpt>
      <trkpt lat="42.370136" lon="-7.7450485">
        <time>2021-11-27T10:37:39Z</time>
      </trkpt>
      <trkpt lat="42.370144" lon="-7.7450347">
        <time>2021-11-27T10:37:40Z</time>
      </trkpt>
      <trkpt lat="42.370155" lon="-7.7450204">
        <time>2021-11-27T10:37:41Z</time>
      </trkpt>
      <trkpt lat="42.370163" lon="-7.7450037">
        <time>2021-11-27T10:37:42Z</time>
      </trkpt>
      <trkpt lat="42.370167" lon="-7.7449875">
        <time>2021-11-27T10:37:43Z</time>
      </trkpt>
      <trkpt lat="42.370174" lon="-7.744971">
        <time>2021-11-27T10:37:44Z</time>
      </trkpt>
      <trkpt lat="42.37018" lon="-7.7449536">
        <time>2021-11-27T10:37:45Z</time>
      </trkpt>
      <trkpt lat="42.370182" lon="-7.744935">
        <time>2021-11-27T10:37:46Z</time>
      </trkpt>
      <trkpt lat="42.370182" lon="-7.744914">
        <time>2021-11-27T10:37:47Z</time>
      </trkpt>
      <trkpt lat="42.370186" lon="-7.7448907">
        <time>2021-11-27T10:37:48Z</time>
      </trkpt>
      <trkpt lat="42.37019" lon="-7.7448673">
        <time>2021-11-27T10:37:49Z</time>
      </trkpt>
      <trkpt lat="42.370197" lon="-7.744843">
        <time>2021-11-27T10:37:50Z</time>
      </trkpt>
      <trkpt lat="42.370205" lon="-7.7448177">
        <time>2021-11-27T10:37:51Z</time>
      </trkpt>
      <trkpt lat="42.370216" lon="-7.7447915">
        <time>2021-11-27T10:37:52Z</time>
      </trkpt>
      <trkpt lat="42.370224" lon="-7.744765">
        <time>2021-11-27T10:37:53Z</time>
      </trkpt>
      <trkpt lat="42.37023" lon="-7.744741">
        <time>2021-11-27T10:37:54Z</time>
      </trkpt>
      <trkpt lat="42.37024" lon="-7.74472">
        <time>2021-11-27T10:37:55Z</time>
      </trkpt>
      <trkpt lat="42.370243" lon="-7.744701">
        <time>2021-11-27T10:37:56Z</time>
      </trkpt>
      <trkpt lat="42.37025" lon="-7.7446856">
        <time>2021-11-27T10:37:57Z</time>
      </trkpt>
      <trkpt lat="42.370255" lon="-7.744673">
        <time>2021-11-27T10:37:58Z</time>
      </trkpt>
      <trkpt lat="42.37026" lon="-7.74466">
        <time>2021-11-27T10:37:59Z</time>
      </trkpt>
      <trkpt lat="42.370266" lon="-7.744647">
        <time>2021-11-27T10:38:00Z</time>
      </trkpt>
      <trkpt lat="42.370274" lon="-7.7446337">
        <time>2021-11-27T10:38:01Z</time>
      </trkpt>
      <trkpt lat="42.37028" lon="-7.7446184">
        <time>2021-11-27T10:38:02Z</time>
      </trkpt>
      <trkpt lat="42.370285" lon="-7.7446027">
        <time>2021-11-27T10:38:03Z</time>
      </trkpt>
      <trkpt lat="42.370293" lon="-7.7445874">
        <time>2021-11-27T10:38:04Z</time>
      </trkpt>
      <trkpt lat="42.370296" lon="-7.7445736">
        <time>2021-11-27T10:38:05Z</time>
      </trkpt>
      <trkpt lat="42.370308" lon="-7.744562">
        <time>2021-11-27T10:38:06Z</time>
      </trkpt>
      <trkpt lat="42.370316" lon="-7.744551">
        <time>2021-11-27T10:38:07Z</time>
      </trkpt>
      <trkpt lat="42.370323" lon="-7.744538">
        <time>2021-11-27T10:38:08Z</time>
      </trkpt>
      <trkpt lat="42.37033" lon="-7.7445216">
        <time>2021-11-27T10:38:09Z</time>
      </trkpt>
      <trkpt lat="42.37034" lon="-7.744503">
        <time>2021-11-27T10:38:10Z</time>
      </trkpt>
      <trkpt lat="42.370342" lon="-7.744482">
        <time>2021-11-27T10:38:11Z</time>
      </trkpt>
      <trkpt lat="42.370346" lon="-7.7444596">
        <time>2021-11-27T10:38:12Z</time>
      </trkpt>
      <trkpt lat="42.37035" lon="-7.7444377">
        <time>2021-11-27T10:38:13Z</time>
      </trkpt>
      <trkpt lat="42.370354" lon="-7.7444186">
        <time>2021-11-27T10:38:14Z</time>
      </trkpt>
      <trkpt lat="42.37036" lon="-7.7444005">
        <time>2021-11-27T10:38:15Z</time>
      </trkpt>
      <trkpt lat="42.370365" lon="-7.7443833">
        <time>2021-11-27T10:38:16Z</time>
      </trkpt>
      <trkpt lat="42.37037" lon="-7.7443666">
        <time>2021-11-27T10:38:17Z</time>
      </trkpt>
      <trkpt lat="42.370377" lon="-7.744351">
        <time>2021-11-27T10:38:18Z</time>
      </trkpt>
      <trkpt lat="42.370384" lon="-7.744335">
        <time>2021-11-27T10:38:19Z</time>
      </trkpt>
      <trkpt lat="42.37039" lon="-7.744321">
        <time>2021-11-27T10:38:20Z</time>
      </trkpt>
      <trkpt lat="42.3704" lon="-7.7443066">
        <time>2021-11-27T10:38:21Z</time>
      </trkpt>
      <trkpt lat="42.370407" lon="-7.7442923">
        <time>2021-11-27T10:38:22Z</time>
      </trkpt>
      <trkpt lat="42.370415" lon="-7.7442765">
        <time>2021-11-27T10:38:23Z</time>
      </trkpt>
      <trkpt lat="42.370415" lon="-7.7442584">
        <time>2021-11-27T10:38:24Z</time>
      </trkpt>
      <trkpt lat="42.37042" lon="-7.744239">
        <time>2021-11-27T10:38:25Z</time>
      </trkpt>
      <trkpt lat="42.37042" lon="-7.7442203">
        <time>2021-11-27T10:38:26Z</time>
      </trkpt>
      <trkpt lat="42.370415" lon="-7.7441983">
        <time>2021-11-27T10:38:27Z</time>
      </trkpt>
      <trkpt lat="42.370415" lon="-7.7441773">
        <time>2021-11-27T10:38:28Z</time>
      </trkpt>
      <trkpt lat="42.370407" lon="-7.7441587">
        <time>2021-11-27T10:38:29Z</time>
      </trkpt>
      <trkpt lat="42.370403" lon="-7.7441406">
        <time>2021-11-27T10:38:30Z</time>
      </trkpt>
      <trkpt lat="42.3704" lon="-7.744123">
        <time>2021-11-27T10:38:31Z</time>
      </trkpt>
      <trkpt lat="42.370396" lon="-7.7441044">
        <time>2021-11-27T10:38:32Z</time>
      </trkpt>
      <trkpt lat="42.37039" lon="-7.744087">
        <time>2021-11-27T10:38:33Z</time>
      </trkpt>
      <trkpt lat="42.370384" lon="-7.744069">
        <time>2021-11-27T10:38:34Z</time>
      </trkpt>
      <trkpt lat="42.37038" lon="-7.7440505">
        <time>2021-11-27T10:38:35Z</time>
      </trkpt>
      <trkpt lat="42.370377" lon="-7.744031">
        <time>2021-11-27T10:38:36Z</time>
      </trkpt>
      <trkpt lat="42.370373" lon="-7.7440114">
        <time>2021-11-27T10:38:38Z</time>
      </trkpt>
      <trkpt lat="42.37037" lon="-7.7439938">
        <time>2021-11-27T10:38:38Z</time>
      </trkpt>
      <trkpt lat="42.370365" lon="-7.743976">
        <time>2021-11-27T10:38:39Z</time>
      </trkpt>
      <trkpt lat="42.370358" lon="-7.74396">
        <time>2021-11-27T10:38:40Z</time>
      </trkpt>
      <trkpt lat="42.370354" lon="-7.743945">
        <time>2021-11-27T10:38:41Z</time>
      </trkpt>
      <trkpt lat="42.370346" lon="-7.7439313">
        <time>2021-11-27T10:38:42Z</time>
      </trkpt>
      <trkpt lat="42.37034" lon="-7.743916">
        <time>2021-11-27T10:38:43Z</time>
      </trkpt>
      <trkpt lat="42.37033" lon="-7.7438955">
        <time>2021-11-27T10:38:44Z</time>
      </trkpt>
      <trkpt lat="42.370323" lon="-7.743875">
        <time>2021-11-27T10:38:45Z</time>
      </trkpt>
      <trkpt lat="42.370316" lon="-7.743856">
        <time>2021-11-27T10:38:46Z</time>
      </trkpt>
      <trkpt lat="42.370308" lon="-7.743836">
        <time>2021-11-27T10:38:47Z</time>
      </trkpt>
      <trkpt lat="42.3703" lon="-7.7438197">
        <time>2021-11-27T10:38:48Z</time>
      </trkpt>
      <trkpt lat="42.370293" lon="-7.743804">
        <time>2021-11-27T10:38:49Z</time>
      </trkpt>
      <trkpt lat="42.370285" lon="-7.743787">
        <time>2021-11-27T10:38:50Z</time>
      </trkpt>
      <trkpt lat="42.370274" lon="-7.74377">
        <time>2021-11-27T10:38:51Z</time>
      </trkpt>
      <trkpt lat="42.370262" lon="-7.743755">
        <time>2021-11-27T10:38:52Z</time>
      </trkpt>
      <trkpt lat="42.370255" lon="-7.7437415">
        <time>2021-11-27T10:38:53Z</time>
      </trkpt>
      <trkpt lat="42.370247" lon="-7.743728">
        <time>2021-11-27T10:38:54Z</time>
      </trkpt>
      <trkpt lat="42.37024" lon="-7.7437124">
        <time>2021-11-27T10:38:55Z</time>
      </trkpt>
      <trkpt lat="42.37023" lon="-7.7436967">
        <time>2021-11-27T10:38:56Z</time>
      </trkpt>
      <trkpt lat="42.37023" lon="-7.743682">
        <time>2021-11-27T10:38:57Z</time>
      </trkpt>
      <trkpt lat="42.370235" lon="-7.7436686">
        <time>2021-11-27T10:38:58Z</time>
      </trkpt>
      <trkpt lat="42.37024" lon="-7.7436576">
        <time>2021-11-27T10:38:59Z</time>
      </trkpt>
      <trkpt lat="42.370247" lon="-7.743648">
        <time>2021-11-27T10:39:00Z</time>
      </trkpt>
      <trkpt lat="42.37026" lon="-7.743639">
        <time>2021-11-27T10:39:01Z</time>
      </trkpt>
      <trkpt lat="42.370266" lon="-7.7436295">
        <time>2021-11-27T10:39:02Z</time>
      </trkpt>
      <trkpt lat="42.370277" lon="-7.743618">
        <time>2021-11-27T10:39:03Z</time>
      </trkpt>
      <trkpt lat="42.37029" lon="-7.7436104">
        <time>2021-11-27T10:39:04Z</time>
      </trkpt>
      <trkpt lat="42.3703" lon="-7.7436037">
        <time>2021-11-27T10:39:04Z</time>
      </trkpt>
      <trkpt lat="42.370308" lon="-7.743596">
        <time>2021-11-27T10:39:05Z</time>
      </trkpt>
      <trkpt lat="42.370316" lon="-7.743589">
        <time>2021-11-27T10:39:06Z</time>
      </trkpt>
      <trkpt lat="42.37032" lon="-7.7435813">
        <time>2021-11-27T10:39:07Z</time>
      </trkpt>
      <trkpt lat="42.370323" lon="-7.7435746">
        <time>2021-11-27T10:39:08Z</time>
      </trkpt>
      <trkpt lat="42.37033" lon="-7.743568">
        <time>2021-11-27T10:39:09Z</time>
      </trkpt>
      <trkpt lat="42.370342" lon="-7.743561">
        <time>2021-11-27T10:39:10Z</time>
      </trkpt>
      <trkpt lat="42.370354" lon="-7.7435565">
        <time>2021-11-27T10:39:11Z</time>
      </trkpt>
      <trkpt lat="42.37036" lon="-7.7435527">
        <time>2021-11-27T10:39:12Z</time>
      </trkpt>
      <trkpt lat="42.370373" lon="-7.7435503">
        <time>2021-11-27T10:39:13Z</time>
      </trkpt>
      <trkpt lat="42.370384" lon="-7.7435474">
        <time>2021-11-27T10:39:14Z</time>
      </trkpt>
      <trkpt lat="42.370396" lon="-7.743547">
        <time>2021-11-27T10:39:15Z</time>
      </trkpt>
      <trkpt lat="42.370407" lon="-7.7435484">
        <time>2021-11-27T10:39:16Z</time>
      </trkpt>
      <trkpt lat="42.37042" lon="-7.743549">
        <time>2021-11-27T10:39:17Z</time>
      </trkpt>
      <trkpt lat="42.370434" lon="-7.7435503">
        <time>2021-11-27T10:39:18Z</time>
      </trkpt>
      <trkpt lat="42.370445" lon="-7.7435503">
        <time>2021-11-27T10:39:19Z</time>
      </trkpt>
      <trkpt lat="42.370457" lon="-7.7435474">
        <time>2021-11-27T10:39:20Z</time>
      </trkpt>
      <trkpt lat="42.370472" lon="-7.7435412">
        <time>2021-11-27T10:39:21Z</time>
      </trkpt>
      <trkpt lat="42.370483" lon="-7.7435317">
        <time>2021-11-27T10:39:22Z</time>
      </trkpt>
      <trkpt lat="42.370495" lon="-7.7435174">
        <time>2021-11-27T10:39:23Z</time>
      </trkpt>
      <trkpt lat="42.370502" lon="-7.7435026">
        <time>2021-11-27T10:39:24Z</time>
      </trkpt>
      <trkpt lat="42.370518" lon="-7.743488">
        <time>2021-11-27T10:39:25Z</time>
      </trkpt>
      <trkpt lat="42.370525" lon="-7.743476">
        <time>2021-11-27T10:39:26Z</time>
      </trkpt>
      <trkpt lat="42.37054" lon="-7.743463">
        <time>2021-11-27T10:39:27Z</time>
      </trkpt>
      <trkpt lat="42.37055" lon="-7.7434506">
        <time>2021-11-27T10:39:28Z</time>
      </trkpt>
      <trkpt lat="42.37056" lon="-7.7434387">
        <time>2021-11-27T10:39:29Z</time>
      </trkpt>
      <trkpt lat="42.37057" lon="-7.7434278">
        <time>2021-11-27T10:39:30Z</time>
      </trkpt>
      <trkpt lat="42.370583" lon="-7.7434163">
        <time>2021-11-27T10:39:31Z</time>
      </trkpt>
      <trkpt lat="42.37059" lon="-7.7434034">
        <time>2021-11-27T10:39:32Z</time>
      </trkpt>
      <trkpt lat="42.3706" lon="-7.7433896">
        <time>2021-11-27T10:39:33Z</time>
      </trkpt>
      <trkpt lat="42.37061" lon="-7.743375">
        <time>2021-11-27T10:39:34Z</time>
      </trkpt>
      <trkpt lat="42.37062" lon="-7.7433624">
        <time>2021-11-27T10:39:35Z</time>
      </trkpt>
      <trkpt lat="42.37063" lon="-7.7433505">
        <time>2021-11-27T10:39:37Z</time>
      </trkpt>
      <trkpt lat="42.370636" lon="-7.743339">
        <time>2021-11-27T10:39:37Z</time>
      </trkpt>
      <trkpt lat="42.370644" lon="-7.743325">
        <time>2021-11-27T10:39:38Z</time>
      </trkpt>
      <trkpt lat="42.37065" lon="-7.7433133">
        <time>2021-11-27T10:39:39Z</time>
      </trkpt>
      <trkpt lat="42.37066" lon="-7.743301">
        <time>2021-11-27T10:39:40Z</time>
      </trkpt>
      <trkpt lat="42.370667" lon="-7.743289">
        <time>2021-11-27T10:39:41Z</time>
      </trkpt>
      <trkpt lat="42.370674" lon="-7.7432766">
        <time>2021-11-27T10:39:42Z</time>
      </trkpt>
      <trkpt lat="42.37068" lon="-7.743266">
        <time>2021-11-27T10:39:43Z</time>
      </trkpt>
      <trkpt lat="42.37069" lon="-7.743254">
        <time>2021-11-27T10:39:44Z</time>
      </trkpt>
      <trkpt lat="42.370697" lon="-7.743244">
        <time>2021-11-27T10:39:45Z</time>
      </trkpt>
      <trkpt lat="42.370705" lon="-7.7432327">
        <time>2021-11-27T10:39:46Z</time>
      </trkpt>
      <trkpt lat="42.370716" lon="-7.74322">
        <time>2021-11-27T10:39:47Z</time>
      </trkpt>
      <trkpt lat="42.370724" lon="-7.7432065">
        <time>2021-11-27T10:39:48Z</time>
      </trkpt>
      <trkpt lat="42.37073" lon="-7.743192">
        <time>2021-11-27T10:39:49Z</time>
      </trkpt>
      <trkpt lat="42.37074" lon="-7.7431774">
        <time>2021-11-27T10:39:50Z</time>
      </trkpt>
      <trkpt lat="42.370747" lon="-7.743162">
        <time>2021-11-27T10:39:51Z</time>
      </trkpt>
      <trkpt lat="42.37075" lon="-7.743147">
        <time>2021-11-27T10:39:52Z</time>
      </trkpt>
      <trkpt lat="42.370758" lon="-7.743132">
        <time>2021-11-27T10:39:53Z</time>
      </trkpt>
      <trkpt lat="42.370766" lon="-7.743117">
        <time>2021-11-27T10:39:54Z</time>
      </trkpt>
      <trkpt lat="42.370777" lon="-7.743102">
        <time>2021-11-27T10:39:55Z</time>
      </trkpt>
      <trkpt lat="42.37079" lon="-7.7430854">
        <time>2021-11-27T10:39:56Z</time>
      </trkpt>
      <trkpt lat="42.370796" lon="-7.7430687">
        <time>2021-11-27T10:39:57Z</time>
      </trkpt>
      <trkpt lat="42.370808" lon="-7.743053">
        <time>2021-11-27T10:39:58Z</time>
      </trkpt>
      <trkpt lat="42.370815" lon="-7.7430415">
        <time>2021-11-27T10:39:59Z</time>
      </trkpt>
      <trkpt lat="42.370815" lon="-7.7430286">
        <time>2021-11-27T10:40:00Z</time>
      </trkpt>
      <trkpt lat="42.370823" lon="-7.7430162">
        <time>2021-11-27T10:40:01Z</time>
      </trkpt>
      <trkpt lat="42.370834" lon="-7.7429967">
        <time>2021-11-27T10:40:02Z</time>
      </trkpt>
      <trkpt lat="42.370846" lon="-7.7429733">
        <time>2021-11-27T10:40:03Z</time>
      </trkpt>
      <trkpt lat="42.37085" lon="-7.7429523">
        <time>2021-11-27T10:40:04Z</time>
      </trkpt>
      <trkpt lat="42.370853" lon="-7.742932">
        <time>2021-11-27T10:40:05Z</time>
      </trkpt>
      <trkpt lat="42.370857" lon="-7.742913">
        <time>2021-11-27T10:40:06Z</time>
      </trkpt>
      <trkpt lat="42.370853" lon="-7.7428946">
        <time>2021-11-27T10:40:07Z</time>
      </trkpt>
      <trkpt lat="42.370842" lon="-7.742878">
        <time>2021-11-27T10:40:08Z</time>
      </trkpt>
      <trkpt lat="42.37084" lon="-7.742864">
        <time>2021-11-27T10:40:09Z</time>
      </trkpt>
      <trkpt lat="42.37084" lon="-7.7428517">
        <time>2021-11-27T10:40:10Z</time>
      </trkpt>
      <trkpt lat="42.37084" lon="-7.742841">
        <time>2021-11-27T10:40:11Z</time>
      </trkpt>
      <trkpt lat="42.370842" lon="-7.7428327">
        <time>2021-11-27T10:40:12Z</time>
      </trkpt>
      <trkpt lat="42.370846" lon="-7.7428246">
        <time>2021-11-27T10:40:13Z</time>
      </trkpt>
      <trkpt lat="42.370853" lon="-7.7428184">
        <time>2021-11-27T10:40:14Z</time>
      </trkpt>
      <trkpt lat="42.37086" lon="-7.742812">
        <time>2021-11-27T10:40:15Z</time>
      </trkpt>
      <trkpt lat="42.37086" lon="-7.7428064">
        <time>2021-11-27T10:40:16Z</time>
      </trkpt>
      <trkpt lat="42.37086" lon="-7.742801">
        <time>2021-11-27T10:40:17Z</time>
      </trkpt>
      <trkpt lat="42.370857" lon="-7.7427955">
        <time>2021-11-27T10:40:18Z</time>
      </trkpt>
      <trkpt lat="42.370853" lon="-7.7427897">
        <time>2021-11-27T10:40:19Z</time>
      </trkpt>
      <trkpt lat="42.370853" lon="-7.7427845">
        <time>2021-11-27T10:40:20Z</time>
      </trkpt>
      <trkpt lat="42.37085" lon="-7.7427835">
        <time>2021-11-27T10:40:21Z</time>
      </trkpt>
      <trkpt lat="42.370853" lon="-7.742782">
        <time>2021-11-27T10:40:22Z</time>
      </trkpt>
      <trkpt lat="42.370853" lon="-7.742782">
        <time>2021-11-27T10:40:23Z</time>
      </trkpt>
      <trkpt lat="42.370853" lon="-7.7427816">
        <time>2021-11-27T10:40:24Z</time>
      </trkpt>
      <trkpt lat="42.370853" lon="-7.7427826">
        <time>2021-11-27T10:40:25Z</time>
      </trkpt>
      <trkpt lat="42.370853" lon="-7.7427845">
        <time>2021-11-27T10:40:26Z</time>
      </trkpt>
      <trkpt lat="42.370853" lon="-7.7427874">
        <time>2021-11-27T10:40:27Z</time>
      </trkpt>
      <trkpt lat="42.370853" lon="-7.742788">
        <time>2021-11-27T10:40:28Z</time>
      </trkpt>
      <trkpt lat="42.370857" lon="-7.7427893">
        <time>2021-11-27T10:40:29Z</time>
      </trkpt>
      <trkpt lat="42.370857" lon="-7.7427897">
        <time>2021-11-27T10:40:30Z</time>
      </trkpt>
      <trkpt lat="42.370857" lon="-7.742793">
        <time>2021-11-27T10:40:32Z</time>
      </trkpt>
      <trkpt lat="42.37086" lon="-7.742786">
        <time>2021-11-27T10:40:51Z</time>
      </trkpt>
      <trkpt lat="42.37086" lon="-7.7427845">
        <time>2021-11-27T10:40:52Z</time>
      </trkpt>
      <trkpt lat="42.37087" lon="-7.7427816">
        <time>2021-11-27T10:40:53Z</time>
      </trkpt>
      <trkpt lat="42.37087" lon="-7.742776">
        <time>2021-11-27T10:40:54Z</time>
      </trkpt>
      <trkpt lat="42.370876" lon="-7.7427707">
        <time>2021-11-27T10:40:55Z</time>
      </trkpt>
      <trkpt lat="42.370884" lon="-7.742741">
        <time>2021-11-27T10:41:16Z</time>
      </trkpt>
      <trkpt lat="42.370884" lon="-7.742737">
        <time>2021-11-27T10:41:17Z</time>
      </trkpt>
      <trkpt lat="42.37089" lon="-7.7427263">
        <time>2021-11-27T10:41:18Z</time>
      </trkpt>
      <trkpt lat="42.370895" lon="-7.742711">
        <time>2021-11-27T10:41:19Z</time>
      </trkpt>
      <trkpt lat="42.3709" lon="-7.7426925">
        <time>2021-11-27T10:41:20Z</time>
      </trkpt>
      <trkpt lat="42.3709" lon="-7.7426696">
        <time>2021-11-27T10:41:21Z</time>
      </trkpt>
      <trkpt lat="42.370907" lon="-7.7426453">
        <time>2021-11-27T10:41:22Z</time>
      </trkpt>
      <trkpt lat="42.37091" lon="-7.7426195">
        <time>2021-11-27T10:41:23Z</time>
      </trkpt>
      <trkpt lat="42.370914" lon="-7.742592">
        <time>2021-11-27T10:41:24Z</time>
      </trkpt>
      <trkpt lat="42.37092" lon="-7.7425656">
        <time>2021-11-27T10:41:25Z</time>
      </trkpt>
      <trkpt lat="42.370926" lon="-7.7425427">
        <time>2021-11-27T10:41:26Z</time>
      </trkpt>
      <trkpt lat="42.370934" lon="-7.7425203">
        <time>2021-11-27T10:41:27Z</time>
      </trkpt>
      <trkpt lat="42.370937" lon="-7.7425013">
        <time>2021-11-27T10:41:28Z</time>
      </trkpt>
      <trkpt lat="42.370945" lon="-7.742485">
        <time>2021-11-27T10:41:29Z</time>
      </trkpt>
      <trkpt lat="42.370945" lon="-7.7424703">
        <time>2021-11-27T10:41:30Z</time>
      </trkpt>
      <trkpt lat="42.37095" lon="-7.7424574">
        <time>2021-11-27T10:41:31Z</time>
      </trkpt>
      <trkpt lat="42.370953" lon="-7.7424455">
        <time>2021-11-27T10:41:32Z</time>
      </trkpt>
      <trkpt lat="42.370956" lon="-7.742433">
        <time>2021-11-27T10:41:33Z</time>
      </trkpt>
      <trkpt lat="42.370964" lon="-7.742421">
        <time>2021-11-27T10:41:34Z</time>
      </trkpt>
      <trkpt lat="42.37097" lon="-7.742407">
        <time>2021-11-27T10:41:35Z</time>
      </trkpt>
      <trkpt lat="42.37098" lon="-7.7423916">
        <time>2021-11-27T10:41:36Z</time>
      </trkpt>
      <trkpt lat="42.370983" lon="-7.7423706">
        <time>2021-11-27T10:41:37Z</time>
      </trkpt>
      <trkpt lat="42.37099" lon="-7.7423525">
        <time>2021-11-27T10:41:38Z</time>
      </trkpt>
      <trkpt lat="42.37099" lon="-7.742342">
        <time>2021-11-27T10:41:39Z</time>
      </trkpt>
      <trkpt lat="42.37099" lon="-7.742334">
        <time>2021-11-27T10:41:40Z</time>
      </trkpt>
      <trkpt lat="42.37099" lon="-7.742328">
        <time>2021-11-27T10:41:41Z</time>
      </trkpt>
      <trkpt lat="42.37099" lon="-7.742324">
        <time>2021-11-27T10:41:42Z</time>
      </trkpt>
      <trkpt lat="42.370995" lon="-7.7423167">
        <time>2021-11-27T10:41:43Z</time>
      </trkpt>
      <trkpt lat="42.371" lon="-7.742305">
        <time>2021-11-27T10:41:44Z</time>
      </trkpt>
      <trkpt lat="42.371002" lon="-7.7422886">
        <time>2021-11-27T10:41:45Z</time>
      </trkpt>
      <trkpt lat="42.371006" lon="-7.7422695">
        <time>2021-11-27T10:41:46Z</time>
      </trkpt>
      <trkpt lat="42.37101" lon="-7.7422495">
        <time>2021-11-27T10:41:47Z</time>
      </trkpt>
      <trkpt lat="42.37101" lon="-7.74223">
        <time>2021-11-27T10:41:48Z</time>
      </trkpt>
      <trkpt lat="42.371014" lon="-7.7422113">
        <time>2021-11-27T10:41:49Z</time>
      </trkpt>
      <trkpt lat="42.371014" lon="-7.742192">
        <time>2021-11-27T10:41:50Z</time>
      </trkpt>
      <trkpt lat="42.371017" lon="-7.7421727">
        <time>2021-11-27T10:41:51Z</time>
      </trkpt>
      <trkpt lat="42.371017" lon="-7.7421536">
        <time>2021-11-27T10:41:52Z</time>
      </trkpt>
      <trkpt lat="42.371025" lon="-7.742131">
        <time>2021-11-27T10:41:53Z</time>
      </trkpt>
      <trkpt lat="42.371025" lon="-7.7421083">
        <time>2021-11-27T10:41:54Z</time>
      </trkpt>
      <trkpt lat="42.37103" lon="-7.742084">
        <time>2021-11-27T10:41:55Z</time>
      </trkpt>
      <trkpt lat="42.371033" lon="-7.7420616">
        <time>2021-11-27T10:41:56Z</time>
      </trkpt>
      <trkpt lat="42.371033" lon="-7.7420397">
        <time>2021-11-27T10:41:57Z</time>
      </trkpt>
      <trkpt lat="42.371037" lon="-7.742021">
        <time>2021-11-27T10:41:58Z</time>
      </trkpt>
      <trkpt lat="42.37104" lon="-7.7420044">
        <time>2021-11-27T10:41:59Z</time>
      </trkpt>
      <trkpt lat="42.371048" lon="-7.741987">
        <time>2021-11-27T10:42:00Z</time>
      </trkpt>
      <trkpt lat="42.371056" lon="-7.74197">
        <time>2021-11-27T10:42:01Z</time>
      </trkpt>
      <trkpt lat="42.37106" lon="-7.741952">
        <time>2021-11-27T10:42:02Z</time>
      </trkpt>
      <trkpt lat="42.371063" lon="-7.7419343">
        <time>2021-11-27T10:42:03Z</time>
      </trkpt>
      <trkpt lat="42.371063" lon="-7.7419167">
        <time>2021-11-27T10:42:04Z</time>
      </trkpt>
      <trkpt lat="42.371067" lon="-7.7419">
        <time>2021-11-27T10:42:05Z</time>
      </trkpt>
      <trkpt lat="42.37107" lon="-7.7418847">
        <time>2021-11-27T10:42:06Z</time>
      </trkpt>
      <trkpt lat="42.37107" lon="-7.7418694">
        <time>2021-11-27T10:42:07Z</time>
      </trkpt>
      <trkpt lat="42.371075" lon="-7.741853">
        <time>2021-11-27T10:42:08Z</time>
      </trkpt>
      <trkpt lat="42.37108" lon="-7.7418375">
        <time>2021-11-27T10:42:09Z</time>
      </trkpt>
      <trkpt lat="42.371082" lon="-7.7418213">
        <time>2021-11-27T10:42:10Z</time>
      </trkpt>
      <trkpt lat="42.371086" lon="-7.741804">
        <time>2021-11-27T10:42:11Z</time>
      </trkpt>
      <trkpt lat="42.371086" lon="-7.741785">
        <time>2021-11-27T10:42:12Z</time>
      </trkpt>
      <trkpt lat="42.37109" lon="-7.741768">
        <time>2021-11-27T10:42:13Z</time>
      </trkpt>
      <trkpt lat="42.37109" lon="-7.74175">
        <time>2021-11-27T10:42:14Z</time>
      </trkpt>
      <trkpt lat="42.371094" lon="-7.741731">
        <time>2021-11-27T10:42:15Z</time>
      </trkpt>
      <trkpt lat="42.371094" lon="-7.741712">
        <time>2021-11-27T10:42:16Z</time>
      </trkpt>
      <trkpt lat="42.371094" lon="-7.7416916">
        <time>2021-11-27T10:42:17Z</time>
      </trkpt>
      <trkpt lat="42.37109" lon="-7.741669">
        <time>2021-11-27T10:42:18Z</time>
      </trkpt>
      <trkpt lat="42.37109" lon="-7.7416453">
        <time>2021-11-27T10:42:19Z</time>
      </trkpt>
      <trkpt lat="42.371086" lon="-7.7416205">
        <time>2021-11-27T10:42:20Z</time>
      </trkpt>
      <trkpt lat="42.371086" lon="-7.7415957">
        <time>2021-11-27T10:42:21Z</time>
      </trkpt>
      <trkpt lat="42.371086" lon="-7.741572">
        <time>2021-11-27T10:42:22Z</time>
      </trkpt>
      <trkpt lat="42.371082" lon="-7.74155">
        <time>2021-11-27T10:42:23Z</time>
      </trkpt>
      <trkpt lat="42.371082" lon="-7.741531">
        <time>2021-11-27T10:42:24Z</time>
      </trkpt>
      <trkpt lat="42.37108" lon="-7.7415137">
        <time>2021-11-27T10:42:25Z</time>
      </trkpt>
      <trkpt lat="42.371082" lon="-7.7414985">
        <time>2021-11-27T10:42:26Z</time>
      </trkpt>
      <trkpt lat="42.371082" lon="-7.7414823">
        <time>2021-11-27T10:42:27Z</time>
      </trkpt>
      <trkpt lat="42.371086" lon="-7.7414656">
        <time>2021-11-27T10:42:28Z</time>
      </trkpt>
      <trkpt lat="42.371086" lon="-7.741447">
        <time>2021-11-27T10:42:29Z</time>
      </trkpt>
      <trkpt lat="42.371086" lon="-7.7414265">
        <time>2021-11-27T10:42:30Z</time>
      </trkpt>
      <trkpt lat="42.371086" lon="-7.741407">
        <time>2021-11-27T10:42:31Z</time>
      </trkpt>
      <trkpt lat="42.371086" lon="-7.7413883">
        <time>2021-11-27T10:42:32Z</time>
      </trkpt>
      <trkpt lat="42.371086" lon="-7.7413683">
        <time>2021-11-27T10:42:33Z</time>
      </trkpt>
      <trkpt lat="42.371094" lon="-7.741353">
        <time>2021-11-27T10:42:34Z</time>
      </trkpt>
      <trkpt lat="42.3711" lon="-7.7413397">
        <time>2021-11-27T10:42:35Z</time>
      </trkpt>
      <trkpt lat="42.37111" lon="-7.7413287">
        <time>2021-11-27T10:42:37Z</time>
      </trkpt>
      <trkpt lat="42.37112" lon="-7.741318">
        <time>2021-11-27T10:42:37Z</time>
      </trkpt>
      <trkpt lat="42.371128" lon="-7.7413077">
        <time>2021-11-27T10:42:38Z</time>
      </trkpt>
      <trkpt lat="42.37114" lon="-7.7412934">
        <time>2021-11-27T10:42:39Z</time>
      </trkpt>
      <trkpt lat="42.371147" lon="-7.741277">
        <time>2021-11-27T10:42:40Z</time>
      </trkpt>
      <trkpt lat="42.371155" lon="-7.741262">
        <time>2021-11-27T10:42:41Z</time>
      </trkpt>
      <trkpt lat="42.371162" lon="-7.7412453">
        <time>2021-11-27T10:42:42Z</time>
      </trkpt>
      <trkpt lat="42.371174" lon="-7.7412295">
        <time>2021-11-27T10:42:43Z</time>
      </trkpt>
      <trkpt lat="42.37118" lon="-7.741215">
        <time>2021-11-27T10:42:44Z</time>
      </trkpt>
      <trkpt lat="42.371193" lon="-7.741204">
        <time>2021-11-27T10:42:45Z</time>
      </trkpt>
      <trkpt lat="42.3712" lon="-7.741196">
        <time>2021-11-27T10:42:46Z</time>
      </trkpt>
      <trkpt lat="42.371212" lon="-7.7411904">
        <time>2021-11-27T10:42:47Z</time>
      </trkpt>
      <trkpt lat="42.37122" lon="-7.7411866">
        <time>2021-11-27T10:42:48Z</time>
      </trkpt>
      <trkpt lat="42.37123" lon="-7.74118">
        <time>2021-11-27T10:42:49Z</time>
      </trkpt>
      <trkpt lat="42.371243" lon="-7.741172">
        <time>2021-11-27T10:42:50Z</time>
      </trkpt>
      <trkpt lat="42.371258" lon="-7.741163">
        <time>2021-11-27T10:42:51Z</time>
      </trkpt>
      <trkpt lat="42.371265" lon="-7.741155">
        <time>2021-11-27T10:42:52Z</time>
      </trkpt>
      <trkpt lat="42.37128" lon="-7.7411494">
        <time>2021-11-27T10:42:53Z</time>
      </trkpt>
      <trkpt lat="42.371296" lon="-7.7411437">
        <time>2021-11-27T10:42:54Z</time>
      </trkpt>
      <trkpt lat="42.37131" lon="-7.741136">
        <time>2021-11-27T10:42:55Z</time>
      </trkpt>
      <trkpt lat="42.371326" lon="-7.741127">
        <time>2021-11-27T10:42:56Z</time>
      </trkpt>
      <trkpt lat="42.37134" lon="-7.7411175">
        <time>2021-11-27T10:42:57Z</time>
      </trkpt>
      <trkpt lat="42.371357" lon="-7.7411084">
        <time>2021-11-27T10:42:58Z</time>
      </trkpt>
      <trkpt lat="42.371372" lon="-7.741101">
        <time>2021-11-27T10:42:59Z</time>
      </trkpt>
      <trkpt lat="42.371384" lon="-7.7410955">
        <time>2021-11-27T10:43:00Z</time>
      </trkpt>
      <trkpt lat="42.371395" lon="-7.74109">
        <time>2021-11-27T10:43:01Z</time>
      </trkpt>
      <trkpt lat="42.371407" lon="-7.741082">
        <time>2021-11-27T10:43:02Z</time>
      </trkpt>
      <trkpt lat="42.371414" lon="-7.741074">
        <time>2021-11-27T10:43:03Z</time>
      </trkpt>
      <trkpt lat="42.371426" lon="-7.7410665">
        <time>2021-11-27T10:43:04Z</time>
      </trkpt>
      <trkpt lat="42.371433" lon="-7.7410593">
        <time>2021-11-27T10:43:05Z</time>
      </trkpt>
      <trkpt lat="42.37144" lon="-7.7410536">
        <time>2021-11-27T10:43:06Z</time>
      </trkpt>
      <trkpt lat="42.37145" lon="-7.741044">
        <time>2021-11-27T10:43:07Z</time>
      </trkpt>
      <trkpt lat="42.371456" lon="-7.741033">
        <time>2021-11-27T10:43:08Z</time>
      </trkpt>
      <trkpt lat="42.371468" lon="-7.741022">
        <time>2021-11-27T10:43:09Z</time>
      </trkpt>
      <trkpt lat="42.371475" lon="-7.741009">
        <time>2021-11-27T10:43:10Z</time>
      </trkpt>
      <trkpt lat="42.371487" lon="-7.740999">
        <time>2021-11-27T10:43:11Z</time>
      </trkpt>
      <trkpt lat="42.3715" lon="-7.740989">
        <time>2021-11-27T10:43:12Z</time>
      </trkpt>
      <trkpt lat="42.371506" lon="-7.740979">
        <time>2021-11-27T10:43:13Z</time>
      </trkpt>
      <trkpt lat="42.371513" lon="-7.740969">
        <time>2021-11-27T10:43:14Z</time>
      </trkpt>
      <trkpt lat="42.371525" lon="-7.74096">
        <time>2021-11-27T10:43:15Z</time>
      </trkpt>
      <trkpt lat="42.371536" lon="-7.7409515">
        <time>2021-11-27T10:43:16Z</time>
      </trkpt>
      <trkpt lat="42.371548" lon="-7.740944">
        <time>2021-11-27T10:43:17Z</time>
      </trkpt>
      <trkpt lat="42.37156" lon="-7.7409368">
        <time>2021-11-27T10:43:18Z</time>
      </trkpt>
      <trkpt lat="42.371574" lon="-7.7409286">
        <time>2021-11-27T10:43:19Z</time>
      </trkpt>
      <trkpt lat="42.371586" lon="-7.7409205">
        <time>2021-11-27T10:43:19Z</time>
      </trkpt>
      <trkpt lat="42.3716" lon="-7.7409134">
        <time>2021-11-27T10:43:20Z</time>
      </trkpt>
      <trkpt lat="42.37161" lon="-7.740908">
        <time>2021-11-27T10:43:21Z</time>
      </trkpt>
      <trkpt lat="42.371624" lon="-7.740904">
        <time>2021-11-27T10:43:22Z</time>
      </trkpt>
      <trkpt lat="42.371635" lon="-7.740902">
        <time>2021-11-27T10:43:23Z</time>
      </trkpt>
      <trkpt lat="42.371647" lon="-7.7409">
        <time>2021-11-27T10:43:24Z</time>
      </trkpt>
      <trkpt lat="42.371662" lon="-7.7409">
        <time>2021-11-27T10:43:25Z</time>
      </trkpt>
      <trkpt lat="42.37168" lon="-7.7408986">
        <time>2021-11-27T10:43:26Z</time>
      </trkpt>
      <trkpt lat="42.3717" lon="-7.740898">
        <time>2021-11-27T10:43:27Z</time>
      </trkpt>
      <trkpt lat="42.371716" lon="-7.7408967">
        <time>2021-11-27T10:43:28Z</time>
      </trkpt>
      <trkpt lat="42.37173" lon="-7.7408953">
        <time>2021-11-27T10:43:29Z</time>
      </trkpt>
      <trkpt lat="42.371746" lon="-7.7408934">
        <time>2021-11-27T10:43:30Z</time>
      </trkpt>
      <trkpt lat="42.371758" lon="-7.740892">
        <time>2021-11-27T10:43:31Z</time>
      </trkpt>
      <trkpt lat="42.371773" lon="-7.7408876">
        <time>2021-11-27T10:43:32Z</time>
      </trkpt>
      <trkpt lat="42.37178" lon="-7.7408857">
        <time>2021-11-27T10:43:33Z</time>
      </trkpt>
      <trkpt lat="42.371788" lon="-7.740884">
        <time>2021-11-27T10:43:34Z</time>
      </trkpt>
      <trkpt lat="42.371796" lon="-7.740882">
        <time>2021-11-27T10:43:36Z</time>
      </trkpt>
      <trkpt lat="42.371803" lon="-7.740882">
        <time>2021-11-27T10:43:36Z</time>
      </trkpt>
      <trkpt lat="42.371815" lon="-7.7408824">
        <time>2021-11-27T10:43:37Z</time>
      </trkpt>
      <trkpt lat="42.371822" lon="-7.7408834">
        <time>2021-11-27T10:43:38Z</time>
      </trkpt>
      <trkpt lat="42.371834" lon="-7.740882">
        <time>2021-11-27T10:43:39Z</time>
      </trkpt>
      <trkpt lat="42.371845" lon="-7.7408786">
        <time>2021-11-27T10:43:40Z</time>
      </trkpt>
      <trkpt lat="42.371853" lon="-7.740873">
        <time>2021-11-27T10:43:41Z</time>
      </trkpt>
      <trkpt lat="42.371864" lon="-7.740867">
        <time>2021-11-27T10:43:42Z</time>
      </trkpt>
      <trkpt lat="42.371872" lon="-7.740861">
        <time>2021-11-27T10:43:43Z</time>
      </trkpt>
      <trkpt lat="42.37188" lon="-7.7408533">
        <time>2021-11-27T10:43:44Z</time>
      </trkpt>
      <trkpt lat="42.371887" lon="-7.740845">
        <time>2021-11-27T10:43:45Z</time>
      </trkpt>
      <trkpt lat="42.371895" lon="-7.740837">
        <time>2021-11-27T10:43:46Z</time>
      </trkpt>
      <trkpt lat="42.371902" lon="-7.740829">
        <time>2021-11-27T10:43:47Z</time>
      </trkpt>
      <trkpt lat="42.37191" lon="-7.740821">
        <time>2021-11-27T10:43:48Z</time>
      </trkpt>
      <trkpt lat="42.371918" lon="-7.7408133">
        <time>2021-11-27T10:43:49Z</time>
      </trkpt>
      <trkpt lat="42.371925" lon="-7.7408066">
        <time>2021-11-27T10:43:50Z</time>
      </trkpt>
      <trkpt lat="42.371933" lon="-7.740798">
        <time>2021-11-27T10:43:51Z</time>
      </trkpt>
      <trkpt lat="42.37194" lon="-7.740789">
        <time>2021-11-27T10:43:52Z</time>
      </trkpt>
      <trkpt lat="42.371944" lon="-7.740779">
        <time>2021-11-27T10:43:53Z</time>
      </trkpt>
      <trkpt lat="42.371952" lon="-7.7407665">
        <time>2021-11-27T10:43:54Z</time>
      </trkpt>
      <trkpt lat="42.37196" lon="-7.740751">
        <time>2021-11-27T10:43:55Z</time>
      </trkpt>
      <trkpt lat="42.371967" lon="-7.7407336">
        <time>2021-11-27T10:43:56Z</time>
      </trkpt>
      <trkpt lat="42.371967" lon="-7.740716">
        <time>2021-11-27T10:43:57Z</time>
      </trkpt>
      <trkpt lat="42.371967" lon="-7.7406993">
        <time>2021-11-27T10:43:58Z</time>
      </trkpt>
      <trkpt lat="42.371967" lon="-7.7406836">
        <time>2021-11-27T10:43:59Z</time>
      </trkpt>
      <trkpt lat="42.371967" lon="-7.7406673">
        <time>2021-11-27T10:44:00Z</time>
      </trkpt>
      <trkpt lat="42.371967" lon="-7.7406516">
        <time>2021-11-27T10:44:01Z</time>
      </trkpt>
      <trkpt lat="42.371975" lon="-7.740633">
        <time>2021-11-27T10:44:02Z</time>
      </trkpt>
      <trkpt lat="42.37198" lon="-7.740613">
        <time>2021-11-27T10:44:03Z</time>
      </trkpt>
      <trkpt lat="42.371983" lon="-7.740592">
        <time>2021-11-27T10:44:04Z</time>
      </trkpt>
      <trkpt lat="42.371986" lon="-7.7405715">
        <time>2021-11-27T10:44:05Z</time>
      </trkpt>
      <trkpt lat="42.37199" lon="-7.7405515">
        <time>2021-11-27T10:44:06Z</time>
      </trkpt>
      <trkpt lat="42.371998" lon="-7.7405324">
        <time>2021-11-27T10:44:07Z</time>
      </trkpt>
      <trkpt lat="42.371998" lon="-7.740514">
        <time>2021-11-27T10:44:08Z</time>
      </trkpt>
      <trkpt lat="42.372" lon="-7.7404947">
        <time>2021-11-27T10:44:09Z</time>
      </trkpt>
      <trkpt lat="42.372005" lon="-7.740476">
        <time>2021-11-27T10:44:10Z</time>
      </trkpt>
      <trkpt lat="42.372005" lon="-7.740459">
        <time>2021-11-27T10:44:11Z</time>
      </trkpt>
      <trkpt lat="42.372005" lon="-7.7404423">
        <time>2021-11-27T10:44:12Z</time>
      </trkpt>
      <trkpt lat="42.372005" lon="-7.740426">
        <time>2021-11-27T10:44:13Z</time>
      </trkpt>
      <trkpt lat="42.37201" lon="-7.7404084">
        <time>2021-11-27T10:44:14Z</time>
      </trkpt>
      <trkpt lat="42.372013" lon="-7.740387">
        <time>2021-11-27T10:44:15Z</time>
      </trkpt>
      <trkpt lat="42.37202" lon="-7.7403674">
        <time>2021-11-27T10:44:16Z</time>
      </trkpt>
      <trkpt lat="42.37203" lon="-7.7403493">
        <time>2021-11-27T10:44:17Z</time>
      </trkpt>
      <trkpt lat="42.372036" lon="-7.7403336">
        <time>2021-11-27T10:44:18Z</time>
      </trkpt>
      <trkpt lat="42.37204" lon="-7.7403207">
        <time>2021-11-27T10:44:19Z</time>
      </trkpt>
      <trkpt lat="42.372044" lon="-7.740306">
        <time>2021-11-27T10:44:20Z</time>
      </trkpt>
      <trkpt lat="42.37205" lon="-7.7402873">
        <time>2021-11-27T10:44:21Z</time>
      </trkpt>
      <trkpt lat="42.37206" lon="-7.74027">
        <time>2021-11-27T10:44:22Z</time>
      </trkpt>
      <trkpt lat="42.372063" lon="-7.740254">
        <time>2021-11-27T10:44:23Z</time>
      </trkpt>
      <trkpt lat="42.372066" lon="-7.740238">
        <time>2021-11-27T10:44:24Z</time>
      </trkpt>
      <trkpt lat="42.37207" lon="-7.740223">
        <time>2021-11-27T10:44:25Z</time>
      </trkpt>
      <trkpt lat="42.372074" lon="-7.7402086">
        <time>2021-11-27T10:44:26Z</time>
      </trkpt>
      <trkpt lat="42.37208" lon="-7.740194">
        <time>2021-11-27T10:44:27Z</time>
      </trkpt>
      <trkpt lat="42.372086" lon="-7.7401786">
        <time>2021-11-27T10:44:28Z</time>
      </trkpt>
      <trkpt lat="42.37209" lon="-7.7401614">
        <time>2021-11-27T10:44:29Z</time>
      </trkpt>
      <trkpt lat="42.372093" lon="-7.740143">
        <time>2021-11-27T10:44:30Z</time>
      </trkpt>
      <trkpt lat="42.372097" lon="-7.7401237">
        <time>2021-11-27T10:44:31Z</time>
      </trkpt>
      <trkpt lat="42.3721" lon="-7.7401032">
        <time>2021-11-27T10:44:32Z</time>
      </trkpt>
      <trkpt lat="42.372105" lon="-7.7400837">
        <time>2021-11-27T10:44:33Z</time>
      </trkpt>
      <trkpt lat="42.3721" lon="-7.740066">
        <time>2021-11-27T10:44:34Z</time>
      </trkpt>
      <trkpt lat="42.372093" lon="-7.7400527">
        <time>2021-11-27T10:44:36Z</time>
      </trkpt>
      <trkpt lat="42.372086" lon="-7.740041">
        <time>2021-11-27T10:44:36Z</time>
      </trkpt>
      <trkpt lat="42.372078" lon="-7.740032">
        <time>2021-11-27T10:44:37Z</time>
      </trkpt>
      <trkpt lat="42.372066" lon="-7.7400236">
        <time>2021-11-27T10:44:38Z</time>
      </trkpt>
      <trkpt lat="42.372055" lon="-7.7400155">
        <time>2021-11-27T10:44:39Z</time>
      </trkpt>
      <trkpt lat="42.37204" lon="-7.740005">
        <time>2021-11-27T10:44:40Z</time>
      </trkpt>
      <trkpt lat="42.37203" lon="-7.739997">
        <time>2021-11-27T10:44:41Z</time>
      </trkpt>
      <trkpt lat="42.372013" lon="-7.7399874">
        <time>2021-11-27T10:44:42Z</time>
      </trkpt>
      <trkpt lat="42.372" lon="-7.7399755">
        <time>2021-11-27T10:44:43Z</time>
      </trkpt>
      <trkpt lat="42.37199" lon="-7.739963">
        <time>2021-11-27T10:44:44Z</time>
      </trkpt>
      <trkpt lat="42.371983" lon="-7.7399487">
        <time>2021-11-27T10:44:45Z</time>
      </trkpt>
      <trkpt lat="42.371975" lon="-7.739935">
        <time>2021-11-27T10:44:46Z</time>
      </trkpt>
      <trkpt lat="42.371967" lon="-7.739921">
        <time>2021-11-27T10:44:47Z</time>
      </trkpt>
      <trkpt lat="42.371956" lon="-7.7399073">
        <time>2021-11-27T10:44:48Z</time>
      </trkpt>
      <trkpt lat="42.37195" lon="-7.7398925">
        <time>2021-11-27T10:44:49Z</time>
      </trkpt>
      <trkpt lat="42.371937" lon="-7.7398777">
        <time>2021-11-27T10:44:50Z</time>
      </trkpt>
      <trkpt lat="42.371925" lon="-7.739863">
        <time>2021-11-27T10:44:51Z</time>
      </trkpt>
      <trkpt lat="42.371918" lon="-7.7398496">
        <time>2021-11-27T10:44:52Z</time>
      </trkpt>
      <trkpt lat="42.37191" lon="-7.739836">
        <time>2021-11-27T10:44:53Z</time>
      </trkpt>
      <trkpt lat="42.3719" lon="-7.739822">
        <time>2021-11-27T10:44:54Z</time>
      </trkpt>
      <trkpt lat="42.371895" lon="-7.739808">
        <time>2021-11-27T10:44:55Z</time>
      </trkpt>
      <trkpt lat="42.371887" lon="-7.739794">
        <time>2021-11-27T10:44:56Z</time>
      </trkpt>
      <trkpt lat="42.37188" lon="-7.739779">
        <time>2021-11-27T10:44:57Z</time>
      </trkpt>
      <trkpt lat="42.371872" lon="-7.739763">
        <time>2021-11-27T10:44:58Z</time>
      </trkpt>
      <trkpt lat="42.37187" lon="-7.7397447">
        <time>2021-11-27T10:44:59Z</time>
      </trkpt>
      <trkpt lat="42.37186" lon="-7.739726">
        <time>2021-11-27T10:45:00Z</time>
      </trkpt>
      <trkpt lat="42.371853" lon="-7.739709">
        <time>2021-11-27T10:45:01Z</time>
      </trkpt>
      <trkpt lat="42.37185" lon="-7.7396936">
        <time>2021-11-27T10:45:02Z</time>
      </trkpt>
      <trkpt lat="42.37184" lon="-7.739678">
        <time>2021-11-27T10:45:03Z</time>
      </trkpt>
      <trkpt lat="42.371838" lon="-7.739663">
        <time>2021-11-27T10:45:04Z</time>
      </trkpt>
      <trkpt lat="42.371834" lon="-7.739649">
        <time>2021-11-27T10:45:05Z</time>
      </trkpt>
      <trkpt lat="42.371826" lon="-7.739633">
        <time>2021-11-27T10:45:06Z</time>
      </trkpt>
      <trkpt lat="42.371822" lon="-7.739619">
        <time>2021-11-27T10:45:07Z</time>
      </trkpt>
      <trkpt lat="42.37182" lon="-7.739604">
        <time>2021-11-27T10:45:08Z</time>
      </trkpt>
      <trkpt lat="42.37181" lon="-7.739589">
        <time>2021-11-27T10:45:09Z</time>
      </trkpt>
      <trkpt lat="42.371807" lon="-7.73957">
        <time>2021-11-27T10:45:10Z</time>
      </trkpt>
      <trkpt lat="42.371807" lon="-7.7395463">
        <time>2021-11-27T10:45:11Z</time>
      </trkpt>
      <trkpt lat="42.371807" lon="-7.7395225">
        <time>2021-11-27T10:45:12Z</time>
      </trkpt>
      <trkpt lat="42.371807" lon="-7.739499">
        <time>2021-11-27T10:45:13Z</time>
      </trkpt>
      <trkpt lat="42.37181" lon="-7.739477">
        <time>2021-11-27T10:45:14Z</time>
      </trkpt>
      <trkpt lat="42.37181" lon="-7.7394567">
        <time>2021-11-27T10:45:15Z</time>
      </trkpt>
      <trkpt lat="42.37181" lon="-7.7394357">
        <time>2021-11-27T10:45:16Z</time>
      </trkpt>
      <trkpt lat="42.37181" lon="-7.739415">
        <time>2021-11-27T10:45:17Z</time>
      </trkpt>
      <trkpt lat="42.371803" lon="-7.7393975">
        <time>2021-11-27T10:45:18Z</time>
      </trkpt>
      <trkpt lat="42.371796" lon="-7.7393837">
        <time>2021-11-27T10:45:19Z</time>
      </trkpt>
      <trkpt lat="42.371788" lon="-7.739371">
        <time>2021-11-27T10:45:20Z</time>
      </trkpt>
      <trkpt lat="42.371777" lon="-7.739359">
        <time>2021-11-27T10:45:21Z</time>
      </trkpt>
      <trkpt lat="42.37177" lon="-7.7393465">
        <time>2021-11-27T10:45:22Z</time>
      </trkpt>
      <trkpt lat="42.37176" lon="-7.739333">
        <time>2021-11-27T10:45:23Z</time>
      </trkpt>
      <trkpt lat="42.371754" lon="-7.739319">
        <time>2021-11-27T10:45:24Z</time>
      </trkpt>
      <trkpt lat="42.371746" lon="-7.7393064">
        <time>2021-11-27T10:45:25Z</time>
      </trkpt>
      <trkpt lat="42.371742" lon="-7.739294">
        <time>2021-11-27T10:45:26Z</time>
      </trkpt>
      <trkpt lat="42.37174" lon="-7.739282">
        <time>2021-11-27T10:45:27Z</time>
      </trkpt>
      <trkpt lat="42.37174" lon="-7.739268">
        <time>2021-11-27T10:45:28Z</time>
      </trkpt>
      <trkpt lat="42.37173" lon="-7.7392507">
        <time>2021-11-27T10:45:29Z</time>
      </trkpt>
      <trkpt lat="42.37173" lon="-7.7392282">
        <time>2021-11-27T10:45:30Z</time>
      </trkpt>
      <trkpt lat="42.37173" lon="-7.7392006">
        <time>2021-11-27T10:45:31Z</time>
      </trkpt>
      <trkpt lat="42.37173" lon="-7.7391744">
        <time>2021-11-27T10:45:32Z</time>
      </trkpt>
      <trkpt lat="42.37173" lon="-7.7391496">
        <time>2021-11-27T10:45:33Z</time>
      </trkpt>
      <trkpt lat="42.371727" lon="-7.739127">
        <time>2021-11-27T10:45:34Z</time>
      </trkpt>
      <trkpt lat="42.371723" lon="-7.7391086">
        <time>2021-11-27T10:45:35Z</time>
      </trkpt>
      <trkpt lat="42.37171" lon="-7.7390924">
        <time>2021-11-27T10:45:42Z</time>
      </trkpt>
      <trkpt lat="42.371704" lon="-7.739079">
        <time>2021-11-27T10:45:42Z</time>
      </trkpt>
      <trkpt lat="42.371696" lon="-7.7390656">
        <time>2021-11-27T10:45:42Z</time>
      </trkpt>
      <trkpt lat="42.371693" lon="-7.7390532">
        <time>2021-11-27T10:45:42Z</time>
      </trkpt>
      <trkpt lat="42.371685" lon="-7.73904">
        <time>2021-11-27T10:45:42Z</time>
      </trkpt>
      <trkpt lat="42.37168" lon="-7.739027">
        <time>2021-11-27T10:45:42Z</time>
      </trkpt>
      <trkpt lat="42.37167" lon="-7.739015">
        <time>2021-11-27T10:45:42Z</time>
      </trkpt>
      <trkpt lat="42.371662" lon="-7.7390037">
        <time>2021-11-27T10:45:43Z</time>
      </trkpt>
      <trkpt lat="42.371655" lon="-7.738991">
        <time>2021-11-27T10:45:44Z</time>
      </trkpt>
      <trkpt lat="42.371647" lon="-7.7389793">
        <time>2021-11-27T10:45:45Z</time>
      </trkpt>
      <trkpt lat="42.371643" lon="-7.738966">
        <time>2021-11-27T10:45:46Z</time>
      </trkpt>
      <trkpt lat="42.37164" lon="-7.7389503">
        <time>2021-11-27T10:45:47Z</time>
      </trkpt>
      <trkpt lat="42.37163" lon="-7.7389336">
        <time>2021-11-27T10:45:48Z</time>
      </trkpt>
      <trkpt lat="42.371624" lon="-7.7389174">
        <time>2021-11-27T10:45:49Z</time>
      </trkpt>
      <trkpt lat="42.371616" lon="-7.7388997">
        <time>2021-11-27T10:45:50Z</time>
      </trkpt>
      <trkpt lat="42.37161" lon="-7.738884">
        <time>2021-11-27T10:45:51Z</time>
      </trkpt>
      <trkpt lat="42.3716" lon="-7.738869">
        <time>2021-11-27T10:45:52Z</time>
      </trkpt>
      <trkpt lat="42.371593" lon="-7.738854">
        <time>2021-11-27T10:45:53Z</time>
      </trkpt>
      <trkpt lat="42.371586" lon="-7.738838">
        <time>2021-11-27T10:45:54Z</time>
      </trkpt>
      <trkpt lat="42.37158" lon="-7.738824">
        <time>2021-11-27T10:45:55Z</time>
      </trkpt>
      <trkpt lat="42.371567" lon="-7.7388096">
        <time>2021-11-27T10:45:56Z</time>
      </trkpt>
      <trkpt lat="42.37156" lon="-7.7387943">
        <time>2021-11-27T10:45:57Z</time>
      </trkpt>
      <trkpt lat="42.37155" lon="-7.7387795">
        <time>2021-11-27T10:45:58Z</time>
      </trkpt>
      <trkpt lat="42.371544" lon="-7.7387605">
        <time>2021-11-27T10:45:59Z</time>
      </trkpt>
      <trkpt lat="42.371536" lon="-7.738739">
        <time>2021-11-27T10:46:00Z</time>
      </trkpt>
      <trkpt lat="42.37153" lon="-7.738718">
        <time>2021-11-27T10:46:01Z</time>
      </trkpt>
      <trkpt lat="42.37152" lon="-7.738697">
        <time>2021-11-27T10:46:02Z</time>
      </trkpt>
      <trkpt lat="42.371513" lon="-7.7386785">
        <time>2021-11-27T10:46:03Z</time>
      </trkpt>
      <trkpt lat="42.37151" lon="-7.7386622">
        <time>2021-11-27T10:46:04Z</time>
      </trkpt>
      <trkpt lat="42.371506" lon="-7.738647">
        <time>2021-11-27T10:46:05Z</time>
      </trkpt>
      <trkpt lat="42.3715" lon="-7.7386317">
        <time>2021-11-27T10:46:06Z</time>
      </trkpt>
      <trkpt lat="42.371494" lon="-7.738617">
        <time>2021-11-27T10:46:07Z</time>
      </trkpt>
      <trkpt lat="42.37149" lon="-7.7386036">
        <time>2021-11-27T10:46:08Z</time>
      </trkpt>
      <trkpt lat="42.371483" lon="-7.738591">
        <time>2021-11-27T10:46:09Z</time>
      </trkpt>
      <trkpt lat="42.371475" lon="-7.7385807">
        <time>2021-11-27T10:46:10Z</time>
      </trkpt>
      <trkpt lat="42.371468" lon="-7.7385697">
        <time>2021-11-27T10:46:11Z</time>
      </trkpt>
      <trkpt lat="42.37146" lon="-7.7385583">
        <time>2021-11-27T10:46:12Z</time>
      </trkpt>
      <trkpt lat="42.371452" lon="-7.738546">
        <time>2021-11-27T10:46:13Z</time>
      </trkpt>
      <trkpt lat="42.371452" lon="-7.738533">
        <time>2021-11-27T10:46:14Z</time>
      </trkpt>
      <trkpt lat="42.371445" lon="-7.73852">
        <time>2021-11-27T10:46:15Z</time>
      </trkpt>
      <trkpt lat="42.37144" lon="-7.738507">
        <time>2021-11-27T10:46:16Z</time>
      </trkpt>
      <trkpt lat="42.371433" lon="-7.7384934">
        <time>2021-11-27T10:46:17Z</time>
      </trkpt>
      <trkpt lat="42.37143" lon="-7.738479">
        <time>2021-11-27T10:46:18Z</time>
      </trkpt>
      <trkpt lat="42.37142" lon="-7.738465">
        <time>2021-11-27T10:46:19Z</time>
      </trkpt>
      <trkpt lat="42.371418" lon="-7.738449">
        <time>2021-11-27T10:46:20Z</time>
      </trkpt>
      <trkpt lat="42.37141" lon="-7.738434">
        <time>2021-11-27T10:46:21Z</time>
      </trkpt>
      <trkpt lat="42.3714" lon="-7.7384186">
        <time>2021-11-27T10:46:22Z</time>
      </trkpt>
      <trkpt lat="42.371395" lon="-7.7384024">
        <time>2021-11-27T10:46:23Z</time>
      </trkpt>
      <trkpt lat="42.371387" lon="-7.738387">
        <time>2021-11-27T10:46:24Z</time>
      </trkpt>
      <trkpt lat="42.37138" lon="-7.7383723">
        <time>2021-11-27T10:46:25Z</time>
      </trkpt>
      <trkpt lat="42.371372" lon="-7.7383604">
        <time>2021-11-27T10:46:26Z</time>
      </trkpt>
      <trkpt lat="42.37136" lon="-7.738346">
        <time>2021-11-27T10:46:27Z</time>
      </trkpt>
      <trkpt lat="42.371357" lon="-7.738327">
        <time>2021-11-27T10:46:28Z</time>
      </trkpt>
      <trkpt lat="42.37135" lon="-7.738307">
        <time>2021-11-27T10:46:29Z</time>
      </trkpt>
      <trkpt lat="42.371346" lon="-7.738291">
        <time>2021-11-27T10:46:30Z</time>
      </trkpt>
      <trkpt lat="42.37134" lon="-7.738274">
        <time>2021-11-27T10:46:31Z</time>
      </trkpt>
      <trkpt lat="42.371334" lon="-7.7382555">
        <time>2021-11-27T10:46:32Z</time>
      </trkpt>
      <trkpt lat="42.371326" lon="-7.738236">
        <time>2021-11-27T10:46:33Z</time>
      </trkpt>
      <trkpt lat="42.37132" lon="-7.7382164">
        <time>2021-11-27T10:46:34Z</time>
      </trkpt>
      <trkpt lat="42.37131" lon="-7.7381964">
        <time>2021-11-27T10:46:36Z</time>
      </trkpt>
      <trkpt lat="42.371304" lon="-7.738179">
        <time>2021-11-27T10:46:36Z</time>
      </trkpt>
      <trkpt lat="42.371296" lon="-7.738163">
        <time>2021-11-27T10:46:37Z</time>
      </trkpt>
      <trkpt lat="42.37129" lon="-7.738147">
        <time>2021-11-27T10:46:38Z</time>
      </trkpt>
      <trkpt lat="42.37129" lon="-7.73813">
        <time>2021-11-27T10:46:39Z</time>
      </trkpt>
      <trkpt lat="42.371284" lon="-7.738114">
        <time>2021-11-27T10:46:40Z</time>
      </trkpt>
      <trkpt lat="42.371284" lon="-7.7380986">
        <time>2021-11-27T10:46:41Z</time>
      </trkpt>
      <trkpt lat="42.37129" lon="-7.7380843">
        <time>2021-11-27T10:46:42Z</time>
      </trkpt>
      <trkpt lat="42.371296" lon="-7.7380705">
        <time>2021-11-27T10:46:43Z</time>
      </trkpt>
      <trkpt lat="42.371304" lon="-7.738056">
        <time>2021-11-27T10:46:44Z</time>
      </trkpt>
      <trkpt lat="42.37131" lon="-7.7380414">
        <time>2021-11-27T10:46:45Z</time>
      </trkpt>
      <trkpt lat="42.37132" lon="-7.738026">
        <time>2021-11-27T10:46:46Z</time>
      </trkpt>
      <trkpt lat="42.37133" lon="-7.738013">
        <time>2021-11-27T10:46:47Z</time>
      </trkpt>
      <trkpt lat="42.37134" lon="-7.7379985">
        <time>2021-11-27T10:46:48Z</time>
      </trkpt>
      <trkpt lat="42.371353" lon="-7.7379847">
        <time>2021-11-27T10:46:49Z</time>
      </trkpt>
      <trkpt lat="42.371365" lon="-7.7379694">
        <time>2021-11-27T10:46:50Z</time>
      </trkpt>
      <trkpt lat="42.37138" lon="-7.7379527">
        <time>2021-11-27T10:46:51Z</time>
      </trkpt>
      <trkpt lat="42.37139" lon="-7.737936">
        <time>2021-11-27T10:46:52Z</time>
      </trkpt>
      <trkpt lat="42.371407" lon="-7.7379193">
        <time>2021-11-27T10:46:53Z</time>
      </trkpt>
      <trkpt lat="42.371418" lon="-7.737904">
        <time>2021-11-27T10:46:54Z</time>
      </trkpt>
      <trkpt lat="42.37143" lon="-7.73789">
        <time>2021-11-27T10:46:55Z</time>
      </trkpt>
      <trkpt lat="42.371437" lon="-7.7378764">
        <time>2021-11-27T10:46:56Z</time>
      </trkpt>
      <trkpt lat="42.371445" lon="-7.7378635">
        <time>2021-11-27T10:46:57Z</time>
      </trkpt>
      <trkpt lat="42.371456" lon="-7.7378497">
        <time>2021-11-27T10:46:58Z</time>
      </trkpt>
      <trkpt lat="42.371464" lon="-7.7378373">
        <time>2021-11-27T10:46:59Z</time>
      </trkpt>
      <trkpt lat="42.371468" lon="-7.7378297">
        <time>2021-11-27T10:47:00Z</time>
      </trkpt>
      <trkpt lat="42.371475" lon="-7.7378254">
        <time>2021-11-27T10:47:01Z</time>
      </trkpt>
      <trkpt lat="42.371483" lon="-7.7378216">
        <time>2021-11-27T10:47:02Z</time>
      </trkpt>
      <trkpt lat="42.37149" lon="-7.737815">
        <time>2021-11-27T10:47:03Z</time>
      </trkpt>
      <trkpt lat="42.3715" lon="-7.737806">
        <time>2021-11-27T10:47:04Z</time>
      </trkpt>
      <trkpt lat="42.371506" lon="-7.7377954">
        <time>2021-11-27T10:47:05Z</time>
      </trkpt>
      <trkpt lat="42.371513" lon="-7.737784">
        <time>2021-11-27T10:47:06Z</time>
      </trkpt>
      <trkpt lat="42.37152" lon="-7.737771">
        <time>2021-11-27T10:47:07Z</time>
      </trkpt>
      <trkpt lat="42.37153" lon="-7.737757">
        <time>2021-11-27T10:47:08Z</time>
      </trkpt>
      <trkpt lat="42.371532" lon="-7.737745">
        <time>2021-11-27T10:47:09Z</time>
      </trkpt>
      <trkpt lat="42.37154" lon="-7.737732">
        <time>2021-11-27T10:47:10Z</time>
      </trkpt>
      <trkpt lat="42.37155" lon="-7.7377205">
        <time>2021-11-27T10:47:11Z</time>
      </trkpt>
      <trkpt lat="42.371567" lon="-7.7377076">
        <time>2021-11-27T10:47:12Z</time>
      </trkpt>
      <trkpt lat="42.37158" lon="-7.7376943">
        <time>2021-11-27T10:47:13Z</time>
      </trkpt>
      <trkpt lat="42.37159" lon="-7.7376804">
        <time>2021-11-27T10:47:14Z</time>
      </trkpt>
      <trkpt lat="42.371597" lon="-7.7376704">
        <time>2021-11-27T10:47:15Z</time>
      </trkpt>
      <trkpt lat="42.371605" lon="-7.737663">
        <time>2021-11-27T10:47:16Z</time>
      </trkpt>
      <trkpt lat="42.371613" lon="-7.737655">
        <time>2021-11-27T10:47:17Z</time>
      </trkpt>
      <trkpt lat="42.371616" lon="-7.7376423">
        <time>2021-11-27T10:47:18Z</time>
      </trkpt>
      <trkpt lat="42.371624" lon="-7.737629">
        <time>2021-11-27T10:47:19Z</time>
      </trkpt>
      <trkpt lat="42.37163" lon="-7.737616">
        <time>2021-11-27T10:47:20Z</time>
      </trkpt>
      <trkpt lat="42.37164" lon="-7.7376037">
        <time>2021-11-27T10:47:21Z</time>
      </trkpt>
      <trkpt lat="42.371647" lon="-7.7375917">
        <time>2021-11-27T10:47:22Z</time>
      </trkpt>
      <trkpt lat="42.371655" lon="-7.737581">
        <time>2021-11-27T10:47:23Z</time>
      </trkpt>
      <trkpt lat="42.371666" lon="-7.737569">
        <time>2021-11-27T10:47:24Z</time>
      </trkpt>
      <trkpt lat="42.371674" lon="-7.7375546">
        <time>2021-11-27T10:47:25Z</time>
      </trkpt>
      <trkpt lat="42.37168" lon="-7.7375393">
        <time>2021-11-27T10:47:26Z</time>
      </trkpt>
      <trkpt lat="42.37169" lon="-7.737523">
        <time>2021-11-27T10:47:27Z</time>
      </trkpt>
      <trkpt lat="42.371696" lon="-7.7375083">
        <time>2021-11-27T10:47:28Z</time>
      </trkpt>
      <trkpt lat="42.371704" lon="-7.7374945">
        <time>2021-11-27T10:47:29Z</time>
      </trkpt>
      <trkpt lat="42.371708" lon="-7.737482">
        <time>2021-11-27T10:47:30Z</time>
      </trkpt>
      <trkpt lat="42.371716" lon="-7.73747">
        <time>2021-11-27T10:47:31Z</time>
      </trkpt>
      <trkpt lat="42.37172" lon="-7.7374573">
        <time>2021-11-27T10:47:32Z</time>
      </trkpt>
      <trkpt lat="42.371723" lon="-7.7374444">
        <time>2021-11-27T10:47:33Z</time>
      </trkpt>
      <trkpt lat="42.37173" lon="-7.7374306">
        <time>2021-11-27T10:47:34Z</time>
      </trkpt>
      <trkpt lat="42.37174" lon="-7.7374177">
        <time>2021-11-27T10:47:34Z</time>
      </trkpt>
      <trkpt lat="42.371742" lon="-7.7374034">
        <time>2021-11-27T10:47:35Z</time>
      </trkpt>
      <trkpt lat="42.371742" lon="-7.73739">
        <time>2021-11-27T10:47:36Z</time>
      </trkpt>
      <trkpt lat="42.371746" lon="-7.7373767">
        <time>2021-11-27T10:47:37Z</time>
      </trkpt>
      <trkpt lat="42.371754" lon="-7.7373633">
        <time>2021-11-27T10:47:38Z</time>
      </trkpt>
      <trkpt lat="42.371758" lon="-7.7373505">
        <time>2021-11-27T10:47:39Z</time>
      </trkpt>
      <trkpt lat="42.371765" lon="-7.737339">
        <time>2021-11-27T10:47:40Z</time>
      </trkpt>
      <trkpt lat="42.371777" lon="-7.7373276">
        <time>2021-11-27T10:47:41Z</time>
      </trkpt>
      <trkpt lat="42.371788" lon="-7.7373176">
        <time>2021-11-27T10:47:42Z</time>
      </trkpt>
      <trkpt lat="42.3718" lon="-7.737305">
        <time>2021-11-27T10:47:45Z</time>
      </trkpt>
      <trkpt lat="42.37181" lon="-7.7372923">
        <time>2021-11-27T10:47:46Z</time>
      </trkpt>
      <trkpt lat="42.37182" lon="-7.73728">
        <time>2021-11-27T10:47:47Z</time>
      </trkpt>
      <trkpt lat="42.371887" lon="-7.737248">
        <time>2021-11-27T10:47:49Z</time>
      </trkpt>
      <trkpt lat="42.371887" lon="-7.7372465">
        <time>2021-11-27T10:47:50Z</time>
      </trkpt>
      <trkpt lat="42.371895" lon="-7.7372446">
        <time>2021-11-27T10:47:51Z</time>
      </trkpt>
      <trkpt lat="42.371906" lon="-7.737242">
        <time>2021-11-27T10:47:52Z</time>
      </trkpt>
      <trkpt lat="42.371918" lon="-7.737239">
        <time>2021-11-27T10:47:53Z</time>
      </trkpt>
      <trkpt lat="42.37193" lon="-7.737235">
        <time>2021-11-27T10:47:54Z</time>
      </trkpt>
      <trkpt lat="42.37194" lon="-7.7372303">
        <time>2021-11-27T10:47:55Z</time>
      </trkpt>
      <trkpt lat="42.371956" lon="-7.7372236">
        <time>2021-11-27T10:47:56Z</time>
      </trkpt>
      <trkpt lat="42.371967" lon="-7.7372155">
        <time>2021-11-27T10:47:57Z</time>
      </trkpt>
      <trkpt lat="42.37198" lon="-7.7372065">
        <time>2021-11-27T10:47:58Z</time>
      </trkpt>
      <trkpt lat="42.371986" lon="-7.737196">
        <time>2021-11-27T10:47:59Z</time>
      </trkpt>
      <trkpt lat="42.371994" lon="-7.7371845">
        <time>2021-11-27T10:48:00Z</time>
      </trkpt>
      <trkpt lat="42.372" lon="-7.7371716">
        <time>2021-11-27T10:48:01Z</time>
      </trkpt>
      <trkpt lat="42.372005" lon="-7.7371616">
        <time>2021-11-27T10:48:02Z</time>
      </trkpt>
      <trkpt lat="42.372013" lon="-7.7371526">
        <time>2021-11-27T10:48:03Z</time>
      </trkpt>
      <trkpt lat="42.372017" lon="-7.7371445">
        <time>2021-11-27T10:48:04Z</time>
      </trkpt>
      <trkpt lat="42.372025" lon="-7.737134">
        <time>2021-11-27T10:48:05Z</time>
      </trkpt>
      <trkpt lat="42.372032" lon="-7.737123">
        <time>2021-11-27T10:48:06Z</time>
      </trkpt>
      <trkpt lat="42.372044" lon="-7.7371106">
        <time>2021-11-27T10:48:07Z</time>
      </trkpt>
      <trkpt lat="42.37205" lon="-7.7370963">
        <time>2021-11-27T10:48:08Z</time>
      </trkpt>
      <trkpt lat="42.37206" lon="-7.737082">
        <time>2021-11-27T10:48:09Z</time>
      </trkpt>
      <trkpt lat="42.37207" lon="-7.73707">
        <time>2021-11-27T10:48:10Z</time>
      </trkpt>
      <trkpt lat="42.372078" lon="-7.7370605">
        <time>2021-11-27T10:48:11Z</time>
      </trkpt>
      <trkpt lat="42.37209" lon="-7.73705">
        <time>2021-11-27T10:48:12Z</time>
      </trkpt>
      <trkpt lat="42.372097" lon="-7.73704">
        <time>2021-11-27T10:48:13Z</time>
      </trkpt>
      <trkpt lat="42.372105" lon="-7.7370276">
        <time>2021-11-27T10:48:14Z</time>
      </trkpt>
      <trkpt lat="42.37212" lon="-7.7370176">
        <time>2021-11-27T10:48:15Z</time>
      </trkpt>
      <trkpt lat="42.372135" lon="-7.737008">
        <time>2021-11-27T10:48:16Z</time>
      </trkpt>
      <trkpt lat="42.372147" lon="-7.7369986">
        <time>2021-11-27T10:48:17Z</time>
      </trkpt>
      <trkpt lat="42.372166" lon="-7.7369895">
        <time>2021-11-27T10:48:18Z</time>
      </trkpt>
      <trkpt lat="42.372177" lon="-7.7369823">
        <time>2021-11-27T10:48:19Z</time>
      </trkpt>
      <trkpt lat="42.372192" lon="-7.736977">
        <time>2021-11-27T10:48:20Z</time>
      </trkpt>
      <trkpt lat="42.37221" lon="-7.736975">
        <time>2021-11-27T10:48:21Z</time>
      </trkpt>
      <trkpt lat="42.372227" lon="-7.736975">
        <time>2021-11-27T10:48:22Z</time>
      </trkpt>
      <trkpt lat="42.372242" lon="-7.736976">
        <time>2021-11-27T10:48:23Z</time>
      </trkpt>
      <trkpt lat="42.372253" lon="-7.736977">
        <time>2021-11-27T10:48:24Z</time>
      </trkpt>
      <trkpt lat="42.37227" lon="-7.7369804">
        <time>2021-11-27T10:48:25Z</time>
      </trkpt>
      <trkpt lat="42.372288" lon="-7.736983">
        <time>2021-11-27T10:48:26Z</time>
      </trkpt>
      <trkpt lat="42.372307" lon="-7.736987">
        <time>2021-11-27T10:48:27Z</time>
      </trkpt>
      <trkpt lat="42.372322" lon="-7.7369895">
        <time>2021-11-27T10:48:28Z</time>
      </trkpt>
      <trkpt lat="42.372337" lon="-7.736991">
        <time>2021-11-27T10:48:29Z</time>
      </trkpt>
      <trkpt lat="42.372353" lon="-7.73699">
        <time>2021-11-27T10:48:30Z</time>
      </trkpt>
      <trkpt lat="42.372364" lon="-7.736988">
        <time>2021-11-27T10:48:31Z</time>
      </trkpt>
      <trkpt lat="42.37238" lon="-7.7369847">
        <time>2021-11-27T10:48:32Z</time>
      </trkpt>
      <trkpt lat="42.372395" lon="-7.7369804">
        <time>2021-11-27T10:48:33Z</time>
      </trkpt>
      <trkpt lat="42.37241" lon="-7.736975">
        <time>2021-11-27T10:48:34Z</time>
      </trkpt>
      <trkpt lat="42.37242" lon="-7.736969">
        <time>2021-11-27T10:48:35Z</time>
      </trkpt>
      <trkpt lat="42.372437" lon="-7.736963">
        <time>2021-11-27T10:48:36Z</time>
      </trkpt>
      <trkpt lat="42.37245" lon="-7.7369566">
        <time>2021-11-27T10:48:37Z</time>
      </trkpt>
      <trkpt lat="42.372467" lon="-7.736951">
        <time>2021-11-27T10:48:38Z</time>
      </trkpt>
      <trkpt lat="42.37248" lon="-7.736947">
        <time>2021-11-27T10:48:39Z</time>
      </trkpt>
      <trkpt lat="42.372494" lon="-7.7369432">
        <time>2021-11-27T10:48:40Z</time>
      </trkpt>
      <trkpt lat="42.372505" lon="-7.7369404">
        <time>2021-11-27T10:48:41Z</time>
      </trkpt>
      <trkpt lat="42.372517" lon="-7.736937">
        <time>2021-11-27T10:48:42Z</time>
      </trkpt>
      <trkpt lat="42.37253" lon="-7.736933">
        <time>2021-11-27T10:48:43Z</time>
      </trkpt>
      <trkpt lat="42.372543" lon="-7.73693">
        <time>2021-11-27T10:48:44Z</time>
      </trkpt>
      <trkpt lat="42.372555" lon="-7.736924">
        <time>2021-11-27T10:48:45Z</time>
      </trkpt>
      <trkpt lat="42.372566" lon="-7.736919">
        <time>2021-11-27T10:48:46Z</time>
      </trkpt>
      <trkpt lat="42.372578" lon="-7.736915">
        <time>2021-11-27T10:48:47Z</time>
      </trkpt>
      <trkpt lat="42.37259" lon="-7.7369113">
        <time>2021-11-27T10:48:48Z</time>
      </trkpt>
      <trkpt lat="42.372604" lon="-7.7369075">
        <time>2021-11-27T10:48:49Z</time>
      </trkpt>
      <trkpt lat="42.372616" lon="-7.7369018">
        <time>2021-11-27T10:48:50Z</time>
      </trkpt>
      <trkpt lat="42.372627" lon="-7.736896">
        <time>2021-11-27T10:48:51Z</time>
      </trkpt>
      <trkpt lat="42.37264" lon="-7.7368894">
        <time>2021-11-27T10:48:52Z</time>
      </trkpt>
      <trkpt lat="42.372654" lon="-7.7368813">
        <time>2021-11-27T10:48:53Z</time>
      </trkpt>
      <trkpt lat="42.372665" lon="-7.7368717">
        <time>2021-11-27T10:48:54Z</time>
      </trkpt>
      <trkpt lat="42.37268" lon="-7.736861">
        <time>2021-11-27T10:48:55Z</time>
      </trkpt>
      <trkpt lat="42.372692" lon="-7.736851">
        <time>2021-11-27T10:48:56Z</time>
      </trkpt>
      <trkpt lat="42.372704" lon="-7.736842">
        <time>2021-11-27T10:48:57Z</time>
      </trkpt>
      <trkpt lat="42.37271" lon="-7.736834">
        <time>2021-11-27T10:48:58Z</time>
      </trkpt>
      <trkpt lat="42.372723" lon="-7.7368274">
        <time>2021-11-27T10:48:59Z</time>
      </trkpt>
      <trkpt lat="42.372734" lon="-7.736819">
        <time>2021-11-27T10:49:00Z</time>
      </trkpt>
      <trkpt lat="42.372776" lon="-7.7367864">
        <time>2021-11-27T10:49:02Z</time>
      </trkpt>
      <trkpt lat="42.372776" lon="-7.736784">
        <time>2021-11-27T10:49:03Z</time>
      </trkpt>
      <trkpt lat="42.37278" lon="-7.736777">
        <time>2021-11-27T10:49:04Z</time>
      </trkpt>
      <trkpt lat="42.372784" lon="-7.7367687">
        <time>2021-11-27T10:49:06Z</time>
      </trkpt>
      <trkpt lat="42.372795" lon="-7.7367535">
        <time>2021-11-27T10:49:08Z</time>
      </trkpt>
      <trkpt lat="42.372814" lon="-7.7367296">
        <time>2021-11-27T10:49:10Z</time>
      </trkpt>
      <trkpt lat="42.37283" lon="-7.736709">
        <time>2021-11-27T10:49:11Z</time>
      </trkpt>
      <trkpt lat="42.372845" lon="-7.736693">
        <time>2021-11-27T10:49:13Z</time>
      </trkpt>
      <trkpt lat="42.37286" lon="-7.736674">
        <time>2021-11-27T10:49:14Z</time>
      </trkpt>
      <trkpt lat="42.372868" lon="-7.736658">
        <time>2021-11-27T10:49:15Z</time>
      </trkpt>
      <trkpt lat="42.372875" lon="-7.7366433">
        <time>2021-11-27T10:49:16Z</time>
      </trkpt>
      <trkpt lat="42.3729" lon="-7.7365932">
        <time>2021-11-27T10:49:18Z</time>
      </trkpt>
      <trkpt lat="42.3729" lon="-7.736591">
        <time>2021-11-27T10:49:19Z</time>
      </trkpt>
      <trkpt lat="42.372906" lon="-7.736562">
        <time>2021-11-27T10:49:22Z</time>
      </trkpt>
      <trkpt lat="42.37291" lon="-7.736555">
        <time>2021-11-27T10:49:23Z</time>
      </trkpt>
      <trkpt lat="42.372913" lon="-7.736544">
        <time>2021-11-27T10:49:24Z</time>
      </trkpt>
      <trkpt lat="42.37292" lon="-7.7365317">
        <time>2021-11-27T10:49:26Z</time>
      </trkpt>
      <trkpt lat="42.372955" lon="-7.736482">
        <time>2021-11-27T10:49:29Z</time>
      </trkpt>
      <trkpt lat="42.372963" lon="-7.7364717">
        <time>2021-11-27T10:49:30Z</time>
      </trkpt>
      <trkpt lat="42.372974" lon="-7.7364564">
        <time>2021-11-27T10:49:31Z</time>
      </trkpt>
      <trkpt lat="42.373024" lon="-7.736382">
        <time>2021-11-27T10:49:33Z</time>
      </trkpt>
      <trkpt lat="42.373028" lon="-7.736378">
        <time>2021-11-27T10:49:37Z</time>
      </trkpt>
      <trkpt lat="42.373043" lon="-7.7363634">
        <time>2021-11-27T10:49:38Z</time>
      </trkpt>
      <trkpt lat="42.37306" lon="-7.73635">
        <time>2021-11-27T10:49:40Z</time>
      </trkpt>
      <trkpt lat="42.373077" lon="-7.7363405">
        <time>2021-11-27T10:49:41Z</time>
      </trkpt>
      <trkpt lat="42.3731" lon="-7.7363353">
        <time>2021-11-27T10:49:42Z</time>
      </trkpt>
      <trkpt lat="42.373116" lon="-7.736334">
        <time>2021-11-27T10:49:43Z</time>
      </trkpt>
      <trkpt lat="42.373135" lon="-7.736334">
        <time>2021-11-27T10:49:44Z</time>
      </trkpt>
      <trkpt lat="42.373154" lon="-7.736334">
        <time>2021-11-27T10:49:45Z</time>
      </trkpt>
      <trkpt lat="42.373173" lon="-7.736335">
        <time>2021-11-27T10:49:46Z</time>
      </trkpt>
      <trkpt lat="42.373226" lon="-7.7363386">
        <time>2021-11-27T10:49:48Z</time>
      </trkpt>
      <trkpt lat="42.373226" lon="-7.736336">
        <time>2021-11-27T10:49:50Z</time>
      </trkpt>
      <trkpt lat="42.373238" lon="-7.736333">
        <time>2021-11-27T10:49:51Z</time>
      </trkpt>
      <trkpt lat="42.373245" lon="-7.73633">
        <time>2021-11-27T10:49:52Z</time>
      </trkpt>
      <trkpt lat="42.373253" lon="-7.736329">
        <time>2021-11-27T10:49:53Z</time>
      </trkpt>
      <trkpt lat="42.373287" lon="-7.73632">
        <time>2021-11-27T10:49:55Z</time>
      </trkpt>
      <trkpt lat="42.373287" lon="-7.7363205">
        <time>2021-11-27T10:49:56Z</time>
      </trkpt>
      <trkpt lat="42.3733" lon="-7.736322">
        <time>2021-11-27T10:49:57Z</time>
      </trkpt>
      <trkpt lat="42.373375" lon="-7.736315">
        <time>2021-11-27T10:50:01Z</time>
      </trkpt>
      <trkpt lat="42.373375" lon="-7.736314">
        <time>2021-11-27T10:50:03Z</time>
      </trkpt>
      <trkpt lat="42.373383" lon="-7.7363076">
        <time>2021-11-27T10:50:04Z</time>
      </trkpt>
      <trkpt lat="42.37339" lon="-7.7363014">
        <time>2021-11-27T10:50:05Z</time>
      </trkpt>
      <trkpt lat="42.373398" lon="-7.7362957">
        <time>2021-11-27T10:50:07Z</time>
      </trkpt>
      <trkpt lat="42.373413" lon="-7.7362914">
        <time>2021-11-27T10:50:08Z</time>
      </trkpt>
      <trkpt lat="42.373425" lon="-7.7362895">
        <time>2021-11-27T10:50:09Z</time>
      </trkpt>
      <trkpt lat="42.373436" lon="-7.73629">
        <time>2021-11-27T10:50:10Z</time>
      </trkpt>
      <trkpt lat="42.37345" lon="-7.7362933">
        <time>2021-11-27T10:50:11Z</time>
      </trkpt>
      <trkpt lat="42.373466" lon="-7.736296">
        <time>2021-11-27T10:50:12Z</time>
      </trkpt>
      <trkpt lat="42.373478" lon="-7.7362976">
        <time>2021-11-27T10:50:13Z</time>
      </trkpt>
      <trkpt lat="42.373497" lon="-7.736299">
        <time>2021-11-27T10:50:14Z</time>
      </trkpt>
      <trkpt lat="42.37351" lon="-7.736302">
        <time>2021-11-27T10:50:15Z</time>
      </trkpt>
      <trkpt lat="42.373524" lon="-7.7363057">
        <time>2021-11-27T10:50:16Z</time>
      </trkpt>
      <trkpt lat="42.37353" lon="-7.736309">
        <time>2021-11-27T10:50:17Z</time>
      </trkpt>
      <trkpt lat="42.37354" lon="-7.736314">
        <time>2021-11-27T10:50:18Z</time>
      </trkpt>
      <trkpt lat="42.37355" lon="-7.7363186">
        <time>2021-11-27T10:50:20Z</time>
      </trkpt>
      <trkpt lat="42.37357" lon="-7.736316">
        <time>2021-11-27T10:50:21Z</time>
      </trkpt>
      <trkpt lat="42.37359" lon="-7.736313">
        <time>2021-11-27T10:50:22Z</time>
      </trkpt>
      <trkpt lat="42.373604" lon="-7.736309">
        <time>2021-11-27T10:50:23Z</time>
      </trkpt>
      <trkpt lat="42.373615" lon="-7.736304">
        <time>2021-11-27T10:50:24Z</time>
      </trkpt>
      <trkpt lat="42.37363" lon="-7.736301">
        <time>2021-11-27T10:50:25Z</time>
      </trkpt>
      <trkpt lat="42.373646" lon="-7.736301">
        <time>2021-11-27T10:50:26Z</time>
      </trkpt>
      <trkpt lat="42.373657" lon="-7.736301">
        <time>2021-11-27T10:50:27Z</time>
      </trkpt>
      <trkpt lat="42.37367" lon="-7.7363014">
        <time>2021-11-27T10:50:28Z</time>
      </trkpt>
      <trkpt lat="42.373684" lon="-7.736302">
        <time>2021-11-27T10:50:29Z</time>
      </trkpt>
      <trkpt lat="42.37369" lon="-7.7363014">
        <time>2021-11-27T10:50:30Z</time>
      </trkpt>
      <trkpt lat="42.373707" lon="-7.736299">
        <time>2021-11-27T10:50:31Z</time>
      </trkpt>
      <trkpt lat="42.37372" lon="-7.736295">
        <time>2021-11-27T10:50:32Z</time>
      </trkpt>
      <trkpt lat="42.373734" lon="-7.7362905">
        <time>2021-11-27T10:50:33Z</time>
      </trkpt>
      <trkpt lat="42.37375" lon="-7.736285">
        <time>2021-11-27T10:50:34Z</time>
      </trkpt>
      <trkpt lat="42.37376" lon="-7.7362804">
        <time>2021-11-27T10:50:35Z</time>
      </trkpt>
      <trkpt lat="42.37377" lon="-7.7362785">
        <time>2021-11-27T10:50:36Z</time>
      </trkpt>
      <trkpt lat="42.373787" lon="-7.736279">
        <time>2021-11-27T10:50:37Z</time>
      </trkpt>
      <trkpt lat="42.373802" lon="-7.736281">
        <time>2021-11-27T10:50:38Z</time>
      </trkpt>
      <trkpt lat="42.373817" lon="-7.7362795">
        <time>2021-11-27T10:50:39Z</time>
      </trkpt>
      <trkpt lat="42.37383" lon="-7.736274">
        <time>2021-11-27T10:50:40Z</time>
      </trkpt>
      <trkpt lat="42.373844" lon="-7.736271">
        <time>2021-11-27T10:50:41Z</time>
      </trkpt>
      <trkpt lat="42.37386" lon="-7.7362714">
        <time>2021-11-27T10:50:42Z</time>
      </trkpt>
      <trkpt lat="42.37387" lon="-7.7362733">
        <time>2021-11-27T10:50:43Z</time>
      </trkpt>
      <trkpt lat="42.373886" lon="-7.736277">
        <time>2021-11-27T10:50:44Z</time>
      </trkpt>
      <trkpt lat="42.373898" lon="-7.7362804">
        <time>2021-11-27T10:50:45Z</time>
      </trkpt>
      <trkpt lat="42.373913" lon="-7.736285">
        <time>2021-11-27T10:50:46Z</time>
      </trkpt>
      <trkpt lat="42.37392" lon="-7.7362885">
        <time>2021-11-27T10:50:47Z</time>
      </trkpt>
      <trkpt lat="42.37393" lon="-7.7362933">
        <time>2021-11-27T10:50:48Z</time>
      </trkpt>
      <trkpt lat="42.373943" lon="-7.7362957">
        <time>2021-11-27T10:50:49Z</time>
      </trkpt>
      <trkpt lat="42.37395" lon="-7.736297">
        <time>2021-11-27T10:50:50Z</time>
      </trkpt>
      <trkpt lat="42.37396" lon="-7.7362995">
        <time>2021-11-27T10:50:51Z</time>
      </trkpt>
      <trkpt lat="42.373974" lon="-7.736303">
        <time>2021-11-27T10:50:53Z</time>
      </trkpt>
      <trkpt lat="42.373985" lon="-7.736304">
        <time>2021-11-27T10:50:54Z</time>
      </trkpt>
      <trkpt lat="42.373997" lon="-7.736304">
        <time>2021-11-27T10:50:55Z</time>
      </trkpt>
      <trkpt lat="42.374012" lon="-7.7363033">
        <time>2021-11-27T10:50:56Z</time>
      </trkpt>
      <trkpt lat="42.374027" lon="-7.736303">
        <time>2021-11-27T10:50:57Z</time>
      </trkpt>
      <trkpt lat="42.374092" lon="-7.736292">
        <time>2021-11-27T10:50:59Z</time>
      </trkpt>
      <trkpt lat="42.374096" lon="-7.7362895">
        <time>2021-11-27T10:51:00Z</time>
      </trkpt>
      <trkpt lat="42.374104" lon="-7.7362833">
        <time>2021-11-27T10:51:01Z</time>
      </trkpt>
      <trkpt lat="42.37411" lon="-7.7362757">
        <time>2021-11-27T10:51:02Z</time>
      </trkpt>
      <trkpt lat="42.37412" lon="-7.7362676">
        <time>2021-11-27T10:51:03Z</time>
      </trkpt>
      <trkpt lat="42.374126" lon="-7.736258">
        <time>2021-11-27T10:51:04Z</time>
      </trkpt>
      <trkpt lat="42.374138" lon="-7.7362514">
        <time>2021-11-27T10:51:05Z</time>
      </trkpt>
      <trkpt lat="42.374146" lon="-7.736245">
        <time>2021-11-27T10:51:06Z</time>
      </trkpt>
      <trkpt lat="42.37416" lon="-7.7362375">
        <time>2021-11-27T10:51:07Z</time>
      </trkpt>
      <trkpt lat="42.374172" lon="-7.7362304">
        <time>2021-11-27T10:51:08Z</time>
      </trkpt>
      <trkpt lat="42.374184" lon="-7.7362227">
        <time>2021-11-27T10:51:09Z</time>
      </trkpt>
      <trkpt lat="42.374195" lon="-7.7362156">
        <time>2021-11-27T10:51:10Z</time>
      </trkpt>
      <trkpt lat="42.374218" lon="-7.7362003">
        <time>2021-11-27T10:51:12Z</time>
      </trkpt>
      <trkpt lat="42.37422" lon="-7.736199">
        <time>2021-11-27T10:51:13Z</time>
      </trkpt>
      <trkpt lat="42.37423" lon="-7.736185">
        <time>2021-11-27T10:51:15Z</time>
      </trkpt>
      <trkpt lat="42.37423" lon="-7.7361817">
        <time>2021-11-27T10:51:16Z</time>
      </trkpt>
      <trkpt lat="42.374233" lon="-7.736174">
        <time>2021-11-27T10:51:17Z</time>
      </trkpt>
      <trkpt lat="42.374237" lon="-7.7361627">
        <time>2021-11-27T10:51:18Z</time>
      </trkpt>
      <trkpt lat="42.37424" lon="-7.7361503">
        <time>2021-11-27T10:51:19Z</time>
      </trkpt>
      <trkpt lat="42.374245" lon="-7.7361393">
        <time>2021-11-27T10:51:20Z</time>
      </trkpt>
      <trkpt lat="42.374245" lon="-7.736131">
        <time>2021-11-27T10:51:21Z</time>
      </trkpt>
      <trkpt lat="42.37425" lon="-7.736125">
        <time>2021-11-27T10:51:22Z</time>
      </trkpt>
      <trkpt lat="42.374252" lon="-7.736118">
        <time>2021-11-27T10:51:23Z</time>
      </trkpt>
      <trkpt lat="42.374256" lon="-7.7361093">
        <time>2021-11-27T10:51:24Z</time>
      </trkpt>
      <trkpt lat="42.37426" lon="-7.7360992">
        <time>2021-11-27T10:51:25Z</time>
      </trkpt>
      <trkpt lat="42.37426" lon="-7.7360883">
        <time>2021-11-27T10:51:26Z</time>
      </trkpt>
      <trkpt lat="42.374264" lon="-7.7360783">
        <time>2021-11-27T10:51:27Z</time>
      </trkpt>
      <trkpt lat="42.374268" lon="-7.7360673">
        <time>2021-11-27T10:51:28Z</time>
      </trkpt>
      <trkpt lat="42.37427" lon="-7.7360563">
        <time>2021-11-27T10:51:29Z</time>
      </trkpt>
      <trkpt lat="42.37428" lon="-7.7360473">
        <time>2021-11-27T10:51:31Z</time>
      </trkpt>
      <trkpt lat="42.37429" lon="-7.7360325">
        <time>2021-11-27T10:51:32Z</time>
      </trkpt>
      <trkpt lat="42.374348" lon="-7.735972">
        <time>2021-11-27T10:51:34Z</time>
      </trkpt>
      <trkpt lat="42.374355" lon="-7.735968">
        <time>2021-11-27T10:51:35Z</time>
      </trkpt>
      <trkpt lat="42.374363" lon="-7.7359624">
        <time>2021-11-27T10:51:36Z</time>
      </trkpt>
      <trkpt lat="42.37437" lon="-7.735954">
        <time>2021-11-27T10:51:37Z</time>
      </trkpt>
      <trkpt lat="42.374386" lon="-7.7359447">
        <time>2021-11-27T10:51:38Z</time>
      </trkpt>
      <trkpt lat="42.374393" lon="-7.735936">
        <time>2021-11-27T10:51:39Z</time>
      </trkpt>
      <trkpt lat="42.374405" lon="-7.735925">
        <time>2021-11-27T10:51:41Z</time>
      </trkpt>
      <trkpt lat="42.374416" lon="-7.735913">
        <time>2021-11-27T10:51:43Z</time>
      </trkpt>
      <trkpt lat="42.374424" lon="-7.7359014">
        <time>2021-11-27T10:51:44Z</time>
      </trkpt>
      <trkpt lat="42.37444" lon="-7.735892">
        <time>2021-11-27T10:51:45Z</time>
      </trkpt>
      <trkpt lat="42.374447" lon="-7.7358856">
        <time>2021-11-27T10:51:46Z</time>
      </trkpt>
      <trkpt lat="42.374454" lon="-7.735881">
        <time>2021-11-27T10:51:47Z</time>
      </trkpt>
      <trkpt lat="42.374466" lon="-7.735877">
        <time>2021-11-27T10:51:48Z</time>
      </trkpt>
      <trkpt lat="42.374477" lon="-7.7358756">
        <time>2021-11-27T10:51:49Z</time>
      </trkpt>
      <trkpt lat="42.37449" lon="-7.735873">
        <time>2021-11-27T10:51:49Z</time>
      </trkpt>
      <trkpt lat="42.374504" lon="-7.735871">
        <time>2021-11-27T10:51:50Z</time>
      </trkpt>
      <trkpt lat="42.37452" lon="-7.735866">
        <time>2021-11-27T10:51:51Z</time>
      </trkpt>
      <trkpt lat="42.374542" lon="-7.7358603">
        <time>2021-11-27T10:51:52Z</time>
      </trkpt>
      <trkpt lat="42.374557" lon="-7.735856">
        <time>2021-11-27T10:51:53Z</time>
      </trkpt>
      <trkpt lat="42.374577" lon="-7.7358522">
        <time>2021-11-27T10:51:54Z</time>
      </trkpt>
      <trkpt lat="42.374596" lon="-7.7358494">
        <time>2021-11-27T10:51:55Z</time>
      </trkpt>
      <trkpt lat="42.37461" lon="-7.735847">
        <time>2021-11-27T10:51:56Z</time>
      </trkpt>
      <trkpt lat="42.374626" lon="-7.7358427">
        <time>2021-11-27T10:51:57Z</time>
      </trkpt>
      <trkpt lat="42.37464" lon="-7.7358356">
        <time>2021-11-27T10:51:58Z</time>
      </trkpt>
      <trkpt lat="42.37466" lon="-7.7358284">
        <time>2021-11-27T10:51:59Z</time>
      </trkpt>
      <trkpt lat="42.374683" lon="-7.735824">
        <time>2021-11-27T10:52:00Z</time>
      </trkpt>
      <trkpt lat="42.3747" lon="-7.735823">
        <time>2021-11-27T10:52:01Z</time>
      </trkpt>
      <trkpt lat="42.374714" lon="-7.7358265">
        <time>2021-11-27T10:52:02Z</time>
      </trkpt>
      <trkpt lat="42.37473" lon="-7.735833">
        <time>2021-11-27T10:52:03Z</time>
      </trkpt>
      <trkpt lat="42.374744" lon="-7.735841">
        <time>2021-11-27T10:52:04Z</time>
      </trkpt>
      <trkpt lat="42.37476" lon="-7.735851">
        <time>2021-11-27T10:52:05Z</time>
      </trkpt>
      <trkpt lat="42.374767" lon="-7.735858">
        <time>2021-11-27T10:52:06Z</time>
      </trkpt>
      <trkpt lat="42.374783" lon="-7.7358623">
        <time>2021-11-27T10:52:07Z</time>
      </trkpt>
      <trkpt lat="42.37479" lon="-7.735866">
        <time>2021-11-27T10:52:08Z</time>
      </trkpt>
      <trkpt lat="42.374805" lon="-7.7358713">
        <time>2021-11-27T10:52:09Z</time>
      </trkpt>
      <trkpt lat="42.374817" lon="-7.735875">
        <time>2021-11-27T10:52:10Z</time>
      </trkpt>
      <trkpt lat="42.37483" lon="-7.7358766">
        <time>2021-11-27T10:52:11Z</time>
      </trkpt>
      <trkpt lat="42.374844" lon="-7.735875">
        <time>2021-11-27T10:52:12Z</time>
      </trkpt>
      <trkpt lat="42.374855" lon="-7.735873">
        <time>2021-11-27T10:52:13Z</time>
      </trkpt>
      <trkpt lat="42.37487" lon="-7.7358747">
        <time>2021-11-27T10:52:14Z</time>
      </trkpt>
      <trkpt lat="42.37488" lon="-7.735875">
        <time>2021-11-27T10:52:15Z</time>
      </trkpt>
      <trkpt lat="42.374897" lon="-7.7358727">
        <time>2021-11-27T10:52:16Z</time>
      </trkpt>
      <trkpt lat="42.37491" lon="-7.735868">
        <time>2021-11-27T10:52:17Z</time>
      </trkpt>
      <trkpt lat="42.374924" lon="-7.7358623">
        <time>2021-11-27T10:52:18Z</time>
      </trkpt>
      <trkpt lat="42.37494" lon="-7.7358556">
        <time>2021-11-27T10:52:19Z</time>
      </trkpt>
      <trkpt lat="42.37495" lon="-7.7358522">
        <time>2021-11-27T10:52:20Z</time>
      </trkpt>
      <trkpt lat="42.374958" lon="-7.7358513">
        <time>2021-11-27T10:52:21Z</time>
      </trkpt>
      <trkpt lat="42.37497" lon="-7.7358537">
        <time>2021-11-27T10:52:22Z</time>
      </trkpt>
      <trkpt lat="42.37498" lon="-7.7358556">
        <time>2021-11-27T10:52:23Z</time>
      </trkpt>
      <trkpt lat="42.374992" lon="-7.7358584">
        <time>2021-11-27T10:52:24Z</time>
      </trkpt>
      <trkpt lat="42.375004" lon="-7.735863">
        <time>2021-11-27T10:52:25Z</time>
      </trkpt>
      <trkpt lat="42.37502" lon="-7.735866">
        <time>2021-11-27T10:52:26Z</time>
      </trkpt>
      <trkpt lat="42.375034" lon="-7.7358675">
        <time>2021-11-27T10:52:27Z</time>
      </trkpt>
      <trkpt lat="42.375053" lon="-7.7358727">
        <time>2021-11-27T10:52:28Z</time>
      </trkpt>
      <trkpt lat="42.375072" lon="-7.73588">
        <time>2021-11-27T10:52:29Z</time>
      </trkpt>
      <trkpt lat="42.375088" lon="-7.7358866">
        <time>2021-11-27T10:52:30Z</time>
      </trkpt>
      <trkpt lat="42.375103" lon="-7.735895">
        <time>2021-11-27T10:52:31Z</time>
      </trkpt>
      <trkpt lat="42.375122" lon="-7.7359023">
        <time>2021-11-27T10:52:32Z</time>
      </trkpt>
      <trkpt lat="42.375137" lon="-7.73591">
        <time>2021-11-27T10:52:33Z</time>
      </trkpt>
      <trkpt lat="42.37515" lon="-7.7359185">
        <time>2021-11-27T10:52:34Z</time>
      </trkpt>
      <trkpt lat="42.375164" lon="-7.7359276">
        <time>2021-11-27T10:52:35Z</time>
      </trkpt>
      <trkpt lat="42.37517" lon="-7.7359366">
        <time>2021-11-27T10:52:36Z</time>
      </trkpt>
      <trkpt lat="42.375183" lon="-7.7359447">
        <time>2021-11-27T10:52:37Z</time>
      </trkpt>
      <trkpt lat="42.375195" lon="-7.7359548">
        <time>2021-11-27T10:52:38Z</time>
      </trkpt>
      <trkpt lat="42.375206" lon="-7.735966">
        <time>2021-11-27T10:52:39Z</time>
      </trkpt>
      <trkpt lat="42.375217" lon="-7.735979">
        <time>2021-11-27T10:52:40Z</time>
      </trkpt>
      <trkpt lat="42.375233" lon="-7.7359924">
        <time>2021-11-27T10:52:41Z</time>
      </trkpt>
      <trkpt lat="42.375244" lon="-7.736006">
        <time>2021-11-27T10:52:42Z</time>
      </trkpt>
      <trkpt lat="42.37526" lon="-7.7360177">
        <time>2021-11-27T10:52:43Z</time>
      </trkpt>
      <trkpt lat="42.37527" lon="-7.7360277">
        <time>2021-11-27T10:52:44Z</time>
      </trkpt>
      <trkpt lat="42.375282" lon="-7.7360344">
        <time>2021-11-27T10:52:45Z</time>
      </trkpt>
      <trkpt lat="42.375298" lon="-7.7360415">
        <time>2021-11-27T10:52:46Z</time>
      </trkpt>
      <trkpt lat="42.375313" lon="-7.736048">
        <time>2021-11-27T10:52:47Z</time>
      </trkpt>
      <trkpt lat="42.375324" lon="-7.7360525">
        <time>2021-11-27T10:52:48Z</time>
      </trkpt>
      <trkpt lat="42.375336" lon="-7.736056">
        <time>2021-11-27T10:52:49Z</time>
      </trkpt>
      <trkpt lat="42.375343" lon="-7.73606">
        <time>2021-11-27T10:52:50Z</time>
      </trkpt>
      <trkpt lat="42.37536" lon="-7.7360654">
        <time>2021-11-27T10:52:51Z</time>
      </trkpt>
      <trkpt lat="42.37537" lon="-7.736069">
        <time>2021-11-27T10:52:52Z</time>
      </trkpt>
      <trkpt lat="42.37538" lon="-7.7360735">
        <time>2021-11-27T10:52:53Z</time>
      </trkpt>
      <trkpt lat="42.375397" lon="-7.7360754">
        <time>2021-11-27T10:52:54Z</time>
      </trkpt>
      <trkpt lat="42.375412" lon="-7.7360773">
        <time>2021-11-27T10:52:55Z</time>
      </trkpt>
      <trkpt lat="42.375427" lon="-7.7360773">
        <time>2021-11-27T10:52:56Z</time>
      </trkpt>
      <trkpt lat="42.37544" lon="-7.7360744">
        <time>2021-11-27T10:52:57Z</time>
      </trkpt>
      <trkpt lat="42.37545" lon="-7.7360697">
        <time>2021-11-27T10:52:58Z</time>
      </trkpt>
      <trkpt lat="42.375477" lon="-7.73606">
        <time>2021-11-27T10:53:00Z</time>
      </trkpt>
      <trkpt lat="42.375477" lon="-7.7360597">
        <time>2021-11-27T10:53:01Z</time>
      </trkpt>
      <trkpt lat="42.375484" lon="-7.7360544">
        <time>2021-11-27T10:53:02Z</time>
      </trkpt>
      <trkpt lat="42.3755" lon="-7.736047">
        <time>2021-11-27T10:53:03Z</time>
      </trkpt>
      <trkpt lat="42.37551" lon="-7.7360363">
        <time>2021-11-27T10:53:04Z</time>
      </trkpt>
      <trkpt lat="42.375526" lon="-7.7360225">
        <time>2021-11-27T10:53:05Z</time>
      </trkpt>
      <trkpt lat="42.375538" lon="-7.736007">
        <time>2021-11-27T10:53:06Z</time>
      </trkpt>
      <trkpt lat="42.37555" lon="-7.7359905">
        <time>2021-11-27T10:53:07Z</time>
      </trkpt>
      <trkpt lat="42.37556" lon="-7.735974">
        <time>2021-11-27T10:53:08Z</time>
      </trkpt>
      <trkpt lat="42.37557" lon="-7.7359576">
        <time>2021-11-27T10:53:09Z</time>
      </trkpt>
      <trkpt lat="42.375576" lon="-7.7359424">
        <time>2021-11-27T10:53:10Z</time>
      </trkpt>
      <trkpt lat="42.375584" lon="-7.735927">
        <time>2021-11-27T10:53:11Z</time>
      </trkpt>
      <trkpt lat="42.37559" lon="-7.735913">
        <time>2021-11-27T10:53:12Z</time>
      </trkpt>
      <trkpt lat="42.375595" lon="-7.7359">
        <time>2021-11-27T10:53:13Z</time>
      </trkpt>
      <trkpt lat="42.3756" lon="-7.735884">
        <time>2021-11-27T10:53:14Z</time>
      </trkpt>
      <trkpt lat="42.3756" lon="-7.7358675">
        <time>2021-11-27T10:53:15Z</time>
      </trkpt>
      <trkpt lat="42.375607" lon="-7.735849">
        <time>2021-11-27T10:53:16Z</time>
      </trkpt>
      <trkpt lat="42.37561" lon="-7.73583">
        <time>2021-11-27T10:53:17Z</time>
      </trkpt>
      <trkpt lat="42.375618" lon="-7.735809">
        <time>2021-11-27T10:53:18Z</time>
      </trkpt>
      <trkpt lat="42.375626" lon="-7.7357874">
        <time>2021-11-27T10:53:19Z</time>
      </trkpt>
      <trkpt lat="42.375633" lon="-7.735767">
        <time>2021-11-27T10:53:20Z</time>
      </trkpt>
      <trkpt lat="42.375637" lon="-7.735748">
        <time>2021-11-27T10:53:21Z</time>
      </trkpt>
      <trkpt lat="42.37564" lon="-7.735731">
        <time>2021-11-27T10:53:22Z</time>
      </trkpt>
      <trkpt lat="42.375645" lon="-7.735714">
        <time>2021-11-27T10:53:23Z</time>
      </trkpt>
      <trkpt lat="42.37565" lon="-7.7356973">
        <time>2021-11-27T10:53:24Z</time>
      </trkpt>
      <trkpt lat="42.375656" lon="-7.7356806">
        <time>2021-11-27T10:53:25Z</time>
      </trkpt>
      <trkpt lat="42.375656" lon="-7.735664">
        <time>2021-11-27T10:53:26Z</time>
      </trkpt>
      <trkpt lat="42.37566" lon="-7.7356462">
        <time>2021-11-27T10:53:27Z</time>
      </trkpt>
      <trkpt lat="42.37566" lon="-7.7356305">
        <time>2021-11-27T10:53:28Z</time>
      </trkpt>
      <trkpt lat="42.375664" lon="-7.7356153">
        <time>2021-11-27T10:53:29Z</time>
      </trkpt>
      <trkpt lat="42.375664" lon="-7.7355986">
        <time>2021-11-27T10:53:30Z</time>
      </trkpt>
      <trkpt lat="42.375664" lon="-7.735583">
        <time>2021-11-27T10:53:31Z</time>
      </trkpt>
      <trkpt lat="42.375664" lon="-7.735568">
        <time>2021-11-27T10:53:32Z</time>
      </trkpt>
      <trkpt lat="42.37566" lon="-7.7355537">
        <time>2021-11-27T10:53:33Z</time>
      </trkpt>
      <trkpt lat="42.375656" lon="-7.735537">
        <time>2021-11-27T10:53:34Z</time>
      </trkpt>
      <trkpt lat="42.375652" lon="-7.735519">
        <time>2021-11-27T10:53:35Z</time>
      </trkpt>
      <trkpt lat="42.37565" lon="-7.735497">
        <time>2021-11-27T10:53:36Z</time>
      </trkpt>
      <trkpt lat="42.378956" lon="-7.7245746">
        <time>2021-11-27T10:53:38Z</time>
      </trkpt>
      <trkpt lat="42.37895" lon="-7.7219443">
        <time>2021-11-27T10:53:39Z</time>
      </trkpt>
      <trkpt lat="42.378944" lon="-7.7219505">
        <time>2021-11-27T10:53:40Z</time>
      </trkpt>
      <trkpt lat="42.37894" lon="-7.721959">
        <time>2021-11-27T10:53:41Z</time>
      </trkpt>
      <trkpt lat="42.37894" lon="-7.72197">
        <time>2021-11-27T10:53:42Z</time>
      </trkpt>
      <trkpt lat="42.37894" lon="-7.7219796">
        <time>2021-11-27T10:53:43Z</time>
      </trkpt>
      <trkpt lat="42.378937" lon="-7.7219877">
        <time>2021-11-27T10:53:44Z</time>
      </trkpt>
      <trkpt lat="42.37893" lon="-7.7219954">
        <time>2021-11-27T10:53:45Z</time>
      </trkpt>
      <trkpt lat="42.37891" lon="-7.7220254">
        <time>2021-11-27T10:53:47Z</time>
      </trkpt>
      <trkpt lat="42.378918" lon="-7.722056">
        <time>2021-11-27T10:53:49Z</time>
      </trkpt>
      <trkpt lat="42.378918" lon="-7.7220597">
        <time>2021-11-27T10:53:50Z</time>
      </trkpt>
      <trkpt lat="42.378918" lon="-7.7220693">
        <time>2021-11-27T10:53:51Z</time>
      </trkpt>
      <trkpt lat="42.378925" lon="-7.722082">
        <time>2021-11-27T10:53:52Z</time>
      </trkpt>
      <trkpt lat="42.378925" lon="-7.722096">
        <time>2021-11-27T10:53:53Z</time>
      </trkpt>
      <trkpt lat="42.378925" lon="-7.7221103">
        <time>2021-11-27T10:53:54Z</time>
      </trkpt>
      <trkpt lat="42.378918" lon="-7.7221336">
        <time>2021-11-27T10:53:58Z</time>
      </trkpt>
      <trkpt lat="42.378906" lon="-7.7221537">
        <time>2021-11-27T10:53:59Z</time>
      </trkpt>
      <trkpt lat="42.37889" lon="-7.7221704">
        <time>2021-11-27T10:54:00Z</time>
      </trkpt>
      <trkpt lat="42.378876" lon="-7.7221875">
        <time>2021-11-27T10:54:01Z</time>
      </trkpt>
      <trkpt lat="42.37886" lon="-7.7222056">
        <time>2021-11-27T10:54:02Z</time>
      </trkpt>
      <trkpt lat="42.378845" lon="-7.7222247">
        <time>2021-11-27T10:54:03Z</time>
      </trkpt>
      <trkpt lat="42.378834" lon="-7.722244">
        <time>2021-11-27T10:54:04Z</time>
      </trkpt>
      <trkpt lat="42.378822" lon="-7.722263">
        <time>2021-11-27T10:54:05Z</time>
      </trkpt>
      <trkpt lat="42.37881" lon="-7.7222786">
        <time>2021-11-27T10:54:06Z</time>
      </trkpt>
      <trkpt lat="42.3788" lon="-7.722292">
        <time>2021-11-27T10:54:07Z</time>
      </trkpt>
      <trkpt lat="42.37879" lon="-7.722303">
        <time>2021-11-27T10:54:08Z</time>
      </trkpt>
      <trkpt lat="42.378784" lon="-7.7223105">
        <time>2021-11-27T10:54:09Z</time>
      </trkpt>
      <trkpt lat="42.378777" lon="-7.7223163">
        <time>2021-11-27T10:54:10Z</time>
      </trkpt>
      <trkpt lat="42.37877" lon="-7.722319">
        <time>2021-11-27T10:54:11Z</time>
      </trkpt>
      <trkpt lat="42.378765" lon="-7.722322">
        <time>2021-11-27T10:54:12Z</time>
      </trkpt>
      <trkpt lat="42.378757" lon="-7.7223234">
        <time>2021-11-27T10:54:13Z</time>
      </trkpt>
      <trkpt lat="42.37875" lon="-7.722322">
        <time>2021-11-27T10:54:14Z</time>
      </trkpt>
      <trkpt lat="42.378742" lon="-7.7223215">
        <time>2021-11-27T10:54:15Z</time>
      </trkpt>
      <trkpt lat="42.37873" lon="-7.72232">
        <time>2021-11-27T10:54:16Z</time>
      </trkpt>
      <trkpt lat="42.37872" lon="-7.722317">
        <time>2021-11-27T10:54:17Z</time>
      </trkpt>
      <trkpt lat="42.378704" lon="-7.722313">
        <time>2021-11-27T10:54:18Z</time>
      </trkpt>
      <trkpt lat="42.378693" lon="-7.722307">
        <time>2021-11-27T10:54:19Z</time>
      </trkpt>
      <trkpt lat="42.37868" lon="-7.722303">
        <time>2021-11-27T10:54:20Z</time>
      </trkpt>
      <trkpt lat="42.378666" lon="-7.7223015">
        <time>2021-11-27T10:54:21Z</time>
      </trkpt>
      <trkpt lat="42.37866" lon="-7.7223034">
        <time>2021-11-27T10:54:22Z</time>
      </trkpt>
      <trkpt lat="42.37865" lon="-7.722307">
        <time>2021-11-27T10:54:23Z</time>
      </trkpt>
      <trkpt lat="42.37864" lon="-7.722311">
        <time>2021-11-27T10:54:24Z</time>
      </trkpt>
      <trkpt lat="42.37863" lon="-7.7223144">
        <time>2021-11-27T10:54:25Z</time>
      </trkpt>
      <trkpt lat="42.378628" lon="-7.72232">
        <time>2021-11-27T10:54:26Z</time>
      </trkpt>
      <trkpt lat="42.378628" lon="-7.722328">
        <time>2021-11-27T10:54:27Z</time>
      </trkpt>
      <trkpt lat="42.37862" lon="-7.722336">
        <time>2021-11-27T10:54:28Z</time>
      </trkpt>
      <trkpt lat="42.378613" lon="-7.7223444">
        <time>2021-11-27T10:54:29Z</time>
      </trkpt>
      <trkpt lat="42.378605" lon="-7.7223525">
        <time>2021-11-27T10:54:30Z</time>
      </trkpt>
      <trkpt lat="42.378597" lon="-7.722362">
        <time>2021-11-27T10:54:31Z</time>
      </trkpt>
      <trkpt lat="42.37859" lon="-7.7223725">
        <time>2021-11-27T10:54:32Z</time>
      </trkpt>
      <trkpt lat="42.378586" lon="-7.722384">
        <time>2021-11-27T10:54:33Z</time>
      </trkpt>
      <trkpt lat="42.378582" lon="-7.722397">
        <time>2021-11-27T10:54:34Z</time>
      </trkpt>
      <trkpt lat="42.378582" lon="-7.7224083">
        <time>2021-11-27T10:54:35Z</time>
      </trkpt>
      <trkpt lat="42.37858" lon="-7.722419">
        <time>2021-11-27T10:54:36Z</time>
      </trkpt>
      <trkpt lat="42.378574" lon="-7.7224255">
        <time>2021-11-27T10:54:37Z</time>
      </trkpt>
      <trkpt lat="42.37857" lon="-7.722432">
        <time>2021-11-27T10:54:38Z</time>
      </trkpt>
      <trkpt lat="42.378563" lon="-7.7224383">
        <time>2021-11-27T10:54:39Z</time>
      </trkpt>
      <trkpt lat="42.37856" lon="-7.7224474">
        <time>2021-11-27T10:54:40Z</time>
      </trkpt>
      <trkpt lat="42.378555" lon="-7.7224574">
        <time>2021-11-27T10:54:41Z</time>
      </trkpt>
      <trkpt lat="42.37855" lon="-7.7224655">
        <time>2021-11-27T10:54:42Z</time>
      </trkpt>
      <trkpt lat="42.378544" lon="-7.7224717">
        <time>2021-11-27T10:54:43Z</time>
      </trkpt>
      <trkpt lat="42.378536" lon="-7.722478">
        <time>2021-11-27T10:54:44Z</time>
      </trkpt>
      <trkpt lat="42.37853" lon="-7.7224817">
        <time>2021-11-27T10:54:45Z</time>
      </trkpt>
      <trkpt lat="42.378525" lon="-7.7224855">
        <time>2021-11-27T10:54:46Z</time>
      </trkpt>
      <trkpt lat="42.378517" lon="-7.72249">
        <time>2021-11-27T10:54:47Z</time>
      </trkpt>
      <trkpt lat="42.37851" lon="-7.722494">
        <time>2021-11-27T10:54:48Z</time>
      </trkpt>
      <trkpt lat="42.3785" lon="-7.722498">
        <time>2021-11-27T10:54:49Z</time>
      </trkpt>
      <trkpt lat="42.378487" lon="-7.7225013">
        <time>2021-11-27T10:54:50Z</time>
      </trkpt>
      <trkpt lat="42.378475" lon="-7.7225037">
        <time>2021-11-27T10:54:51Z</time>
      </trkpt>
      <trkpt lat="42.378464" lon="-7.722505">
        <time>2021-11-27T10:54:52Z</time>
      </trkpt>
      <trkpt lat="42.37845" lon="-7.722509">
        <time>2021-11-27T10:54:53Z</time>
      </trkpt>
      <trkpt lat="42.378433" lon="-7.722515">
        <time>2021-11-27T10:54:54Z</time>
      </trkpt>
      <trkpt lat="42.378418" lon="-7.7225237">
        <time>2021-11-27T10:54:55Z</time>
      </trkpt>
      <trkpt lat="42.378403" lon="-7.7225304">
        <time>2021-11-27T10:54:56Z</time>
      </trkpt>
      <trkpt lat="42.378395" lon="-7.7225385">
        <time>2021-11-27T10:54:57Z</time>
      </trkpt>
      <trkpt lat="42.378387" lon="-7.722546">
        <time>2021-11-27T10:54:58Z</time>
      </trkpt>
      <trkpt lat="42.378376" lon="-7.722553">
        <time>2021-11-27T10:54:59Z</time>
      </trkpt>
      <trkpt lat="42.37837" lon="-7.722563">
        <time>2021-11-27T10:55:00Z</time>
      </trkpt>
      <trkpt lat="42.378365" lon="-7.7225733">
        <time>2021-11-27T10:55:01Z</time>
      </trkpt>
      <trkpt lat="42.378357" lon="-7.7225804">
        <time>2021-11-27T10:55:02Z</time>
      </trkpt>
      <trkpt lat="42.378357" lon="-7.722586">
        <time>2021-11-27T10:55:03Z</time>
      </trkpt>
      <trkpt lat="42.37834" lon="-7.72259">
        <time>2021-11-27T10:55:06Z</time>
      </trkpt>
      <trkpt lat="42.37834" lon="-7.722589">
        <time>2021-11-27T10:55:07Z</time>
      </trkpt>
      <trkpt lat="42.37834" lon="-7.72259">
        <time>2021-11-27T10:55:08Z</time>
      </trkpt>
      <trkpt lat="42.37834" lon="-7.722592">
        <time>2021-11-27T10:55:09Z</time>
      </trkpt>
      <trkpt lat="42.378338" lon="-7.722595">
        <time>2021-11-27T10:55:10Z</time>
      </trkpt>
      <trkpt lat="42.378334" lon="-7.722597">
        <time>2021-11-27T10:55:11Z</time>
      </trkpt>
      <trkpt lat="42.37833" lon="-7.7225986">
        <time>2021-11-27T10:55:12Z</time>
      </trkpt>
      <trkpt lat="42.378326" lon="-7.7225995">
        <time>2021-11-27T10:55:13Z</time>
      </trkpt>
      <trkpt lat="42.37832" lon="-7.7226033">
        <time>2021-11-27T10:55:17Z</time>
      </trkpt>
      <trkpt lat="42.378315" lon="-7.7226048">
        <time>2021-11-27T10:55:18Z</time>
      </trkpt>
      <trkpt lat="42.378315" lon="-7.7226086">
        <time>2021-11-27T10:55:19Z</time>
      </trkpt>
      <trkpt lat="42.37831" lon="-7.7226143">
        <time>2021-11-27T10:55:20Z</time>
      </trkpt>
      <trkpt lat="42.378307" lon="-7.72262">
        <time>2021-11-27T10:55:21Z</time>
      </trkpt>
      <trkpt lat="42.3783" lon="-7.722625">
        <time>2021-11-27T10:55:22Z</time>
      </trkpt>
      <trkpt lat="42.378292" lon="-7.7226267">
        <time>2021-11-27T10:55:23Z</time>
      </trkpt>
      <trkpt lat="42.37828" lon="-7.7226286">
        <time>2021-11-27T10:55:24Z</time>
      </trkpt>
      <trkpt lat="42.37827" lon="-7.7226286">
        <time>2021-11-27T10:55:25Z</time>
      </trkpt>
      <trkpt lat="42.378254" lon="-7.7226286">
        <time>2021-11-27T10:55:26Z</time>
      </trkpt>
      <trkpt lat="42.378246" lon="-7.722627">
        <time>2021-11-27T10:55:27Z</time>
      </trkpt>
      <trkpt lat="42.37823" lon="-7.7226253">
        <time>2021-11-27T10:55:28Z</time>
      </trkpt>
      <trkpt lat="42.37822" lon="-7.7226253">
        <time>2021-11-27T10:55:29Z</time>
      </trkpt>
      <trkpt lat="42.37818" lon="-7.722618">
        <time>2021-11-27T10:55:31Z</time>
      </trkpt>
      <trkpt lat="42.378178" lon="-7.7226157">
        <time>2021-11-27T10:55:32Z</time>
      </trkpt>
      <trkpt lat="42.378174" lon="-7.72261">
        <time>2021-11-27T10:55:33Z</time>
      </trkpt>
      <trkpt lat="42.378166" lon="-7.7226033">
        <time>2021-11-27T10:55:34Z</time>
      </trkpt>
      <trkpt lat="42.37816" lon="-7.7225966">
        <time>2021-11-27T10:55:35Z</time>
      </trkpt>
      <trkpt lat="42.37815" lon="-7.7225895">
        <time>2021-11-27T10:55:36Z</time>
      </trkpt>
      <trkpt lat="42.37814" lon="-7.722583">
        <time>2021-11-27T10:55:37Z</time>
      </trkpt>
      <trkpt lat="42.378128" lon="-7.7225785">
        <time>2021-11-27T10:55:38Z</time>
      </trkpt>
      <trkpt lat="42.378117" lon="-7.722577">
        <time>2021-11-27T10:55:39Z</time>
      </trkpt>
      <trkpt lat="42.3781" lon="-7.722576">
        <time>2021-11-27T10:55:40Z</time>
      </trkpt>
      <trkpt lat="42.37809" lon="-7.7225685">
        <time>2021-11-27T10:55:41Z</time>
      </trkpt>
      <trkpt lat="42.37808" lon="-7.7225566">
        <time>2021-11-27T10:55:42Z</time>
      </trkpt>
      <trkpt lat="42.378063" lon="-7.722545">
        <time>2021-11-27T10:55:43Z</time>
      </trkpt>
      <trkpt lat="42.378048" lon="-7.722537">
        <time>2021-11-27T10:55:44Z</time>
      </trkpt>
      <trkpt lat="42.378036" lon="-7.7225304">
        <time>2021-11-27T10:55:45Z</time>
      </trkpt>
      <trkpt lat="42.37803" lon="-7.722526">
        <time>2021-11-27T10:55:46Z</time>
      </trkpt>
      <trkpt lat="42.37802" lon="-7.7225223">
        <time>2021-11-27T10:55:47Z</time>
      </trkpt>
      <trkpt lat="42.37801" lon="-7.7225223">
        <time>2021-11-27T10:55:48Z</time>
      </trkpt>
      <trkpt lat="42.378" lon="-7.722528">
        <time>2021-11-27T10:55:49Z</time>
      </trkpt>
      <trkpt lat="42.37799" lon="-7.7225375">
        <time>2021-11-27T10:55:50Z</time>
      </trkpt>
      <trkpt lat="42.377983" lon="-7.722547">
        <time>2021-11-27T10:55:51Z</time>
      </trkpt>
      <trkpt lat="42.377968" lon="-7.722554">
        <time>2021-11-27T10:55:52Z</time>
      </trkpt>
      <trkpt lat="42.377956" lon="-7.722563">
        <time>2021-11-27T10:55:53Z</time>
      </trkpt>
      <trkpt lat="42.377945" lon="-7.722569">
        <time>2021-11-27T10:55:54Z</time>
      </trkpt>
      <trkpt lat="42.37793" lon="-7.722577">
        <time>2021-11-27T10:55:55Z</time>
      </trkpt>
      <trkpt lat="42.37792" lon="-7.722587">
        <time>2021-11-27T10:55:56Z</time>
      </trkpt>
      <trkpt lat="42.37791" lon="-7.7225957">
        <time>2021-11-27T10:55:57Z</time>
      </trkpt>
      <trkpt lat="42.377895" lon="-7.7226043">
        <time>2021-11-27T10:55:58Z</time>
      </trkpt>
      <trkpt lat="42.37788" lon="-7.7226124">
        <time>2021-11-27T10:55:59Z</time>
      </trkpt>
      <trkpt lat="42.37787" lon="-7.7226195">
        <time>2021-11-27T10:56:00Z</time>
      </trkpt>
      <trkpt lat="42.377853" lon="-7.722625">
        <time>2021-11-27T10:56:01Z</time>
      </trkpt>
      <trkpt lat="42.37784" lon="-7.722629">
        <time>2021-11-27T10:56:02Z</time>
      </trkpt>
      <trkpt lat="42.377823" lon="-7.7226357">
        <time>2021-11-27T10:56:03Z</time>
      </trkpt>
      <trkpt lat="42.377804" lon="-7.7226434">
        <time>2021-11-27T10:56:04Z</time>
      </trkpt>
      <trkpt lat="42.37779" lon="-7.7226515">
        <time>2021-11-27T10:56:05Z</time>
      </trkpt>
      <trkpt lat="42.377773" lon="-7.722662">
        <time>2021-11-27T10:56:06Z</time>
      </trkpt>
      <trkpt lat="42.37776" lon="-7.7226744">
        <time>2021-11-27T10:56:07Z</time>
      </trkpt>
      <trkpt lat="42.37775" lon="-7.722687">
        <time>2021-11-27T10:56:08Z</time>
      </trkpt>
      <trkpt lat="42.37774" lon="-7.7226996">
        <time>2021-11-27T10:56:09Z</time>
      </trkpt>
      <trkpt lat="42.37773" lon="-7.7227125">
        <time>2021-11-27T10:56:10Z</time>
      </trkpt>
      <trkpt lat="42.377724" lon="-7.722726">
        <time>2021-11-27T10:56:11Z</time>
      </trkpt>
      <trkpt lat="42.377716" lon="-7.7227407">
        <time>2021-11-27T10:56:12Z</time>
      </trkpt>
      <trkpt lat="42.377712" lon="-7.7227564">
        <time>2021-11-27T10:56:13Z</time>
      </trkpt>
      <trkpt lat="42.37771" lon="-7.7227726">
        <time>2021-11-27T10:56:14Z</time>
      </trkpt>
      <trkpt lat="42.3777" lon="-7.7227883">
        <time>2021-11-27T10:56:15Z</time>
      </trkpt>
      <trkpt lat="42.377693" lon="-7.722806">
        <time>2021-11-27T10:56:16Z</time>
      </trkpt>
      <trkpt lat="42.377686" lon="-7.7228255">
        <time>2021-11-27T10:56:17Z</time>
      </trkpt>
      <trkpt lat="42.37768" lon="-7.7228436">
        <time>2021-11-27T10:56:18Z</time>
      </trkpt>
      <trkpt lat="42.377678" lon="-7.7228603">
        <time>2021-11-27T10:56:19Z</time>
      </trkpt>
      <trkpt lat="42.37767" lon="-7.722877">
        <time>2021-11-27T10:56:20Z</time>
      </trkpt>
      <trkpt lat="42.377663" lon="-7.7228913">
        <time>2021-11-27T10:56:21Z</time>
      </trkpt>
      <trkpt lat="42.37766" lon="-7.722904">
        <time>2021-11-27T10:56:22Z</time>
      </trkpt>
      <trkpt lat="42.377655" lon="-7.7229176">
        <time>2021-11-27T10:56:23Z</time>
      </trkpt>
      <trkpt lat="42.377647" lon="-7.7229314">
        <time>2021-11-27T10:56:24Z</time>
      </trkpt>
      <trkpt lat="42.37764" lon="-7.722944">
        <time>2021-11-27T10:56:25Z</time>
      </trkpt>
      <trkpt lat="42.37763" lon="-7.7229567">
        <time>2021-11-27T10:56:26Z</time>
      </trkpt>
      <trkpt lat="42.377617" lon="-7.7229695">
        <time>2021-11-27T10:56:27Z</time>
      </trkpt>
      <trkpt lat="42.377605" lon="-7.72298">
        <time>2021-11-27T10:56:28Z</time>
      </trkpt>
      <trkpt lat="42.377594" lon="-7.722988">
        <time>2021-11-27T10:56:29Z</time>
      </trkpt>
      <trkpt lat="42.377586" lon="-7.722994">
        <time>2021-11-27T10:56:30Z</time>
      </trkpt>
      <trkpt lat="42.37757" lon="-7.722999">
        <time>2021-11-27T10:56:31Z</time>
      </trkpt>
      <trkpt lat="42.37756" lon="-7.723005">
        <time>2021-11-27T10:56:32Z</time>
      </trkpt>
      <trkpt lat="42.37755" lon="-7.723012">
        <time>2021-11-27T10:56:33Z</time>
      </trkpt>
      <trkpt lat="42.377537" lon="-7.723018">
        <time>2021-11-27T10:56:34Z</time>
      </trkpt>
      <trkpt lat="42.37753" lon="-7.723026">
        <time>2021-11-27T10:56:36Z</time>
      </trkpt>
      <trkpt lat="42.37752" lon="-7.723033">
        <time>2021-11-27T10:56:36Z</time>
      </trkpt>
      <trkpt lat="42.37751" lon="-7.72304">
        <time>2021-11-27T10:56:37Z</time>
      </trkpt>
      <trkpt lat="42.3775" lon="-7.7230463">
        <time>2021-11-27T10:56:38Z</time>
      </trkpt>
      <trkpt lat="42.377483" lon="-7.7230496">
        <time>2021-11-27T10:56:39Z</time>
      </trkpt>
      <trkpt lat="42.37747" lon="-7.723057">
        <time>2021-11-27T10:56:40Z</time>
      </trkpt>
      <trkpt lat="42.377453" lon="-7.7230654">
        <time>2021-11-27T10:56:41Z</time>
      </trkpt>
      <trkpt lat="42.37744" lon="-7.723079">
        <time>2021-11-27T10:56:42Z</time>
      </trkpt>
      <trkpt lat="42.377434" lon="-7.7230926">
        <time>2021-11-27T10:56:43Z</time>
      </trkpt>
      <trkpt lat="42.377422" lon="-7.7231035">
        <time>2021-11-27T10:56:44Z</time>
      </trkpt>
      <trkpt lat="42.377415" lon="-7.7231097">
        <time>2021-11-27T10:56:45Z</time>
      </trkpt>
      <trkpt lat="42.37741" lon="-7.7231116">
        <time>2021-11-27T10:56:46Z</time>
      </trkpt>
      <trkpt lat="42.377403" lon="-7.72311">
        <time>2021-11-27T10:56:47Z</time>
      </trkpt>
      <trkpt lat="42.37739" lon="-7.7231054">
        <time>2021-11-27T10:56:48Z</time>
      </trkpt>
      <trkpt lat="42.377384" lon="-7.7230983">
        <time>2021-11-27T10:56:49Z</time>
      </trkpt>
      <trkpt lat="42.377377" lon="-7.7230916">
        <time>2021-11-27T10:56:50Z</time>
      </trkpt>
      <trkpt lat="42.37737" lon="-7.723084">
        <time>2021-11-27T10:56:51Z</time>
      </trkpt>
      <trkpt lat="42.377365" lon="-7.7230744">
        <time>2021-11-27T10:56:52Z</time>
      </trkpt>
      <trkpt lat="42.377357" lon="-7.7230663">
        <time>2021-11-27T10:56:53Z</time>
      </trkpt>
      <trkpt lat="42.377354" lon="-7.723056">
        <time>2021-11-27T10:56:54Z</time>
      </trkpt>
      <trkpt lat="42.377346" lon="-7.7230463">
        <time>2021-11-27T10:56:55Z</time>
      </trkpt>
      <trkpt lat="42.377342" lon="-7.723038">
        <time>2021-11-27T10:56:56Z</time>
      </trkpt>
      <trkpt lat="42.377335" lon="-7.723031">
        <time>2021-11-27T10:56:58Z</time>
      </trkpt>
      <trkpt lat="42.37732" lon="-7.723023">
        <time>2021-11-27T10:56:59Z</time>
      </trkpt>
      <trkpt lat="42.377308" lon="-7.7230124">
        <time>2021-11-27T10:57:00Z</time>
      </trkpt>
      <trkpt lat="42.377262" lon="-7.72299">
        <time>2021-11-27T10:57:02Z</time>
      </trkpt>
      <trkpt lat="42.377262" lon="-7.72299">
        <time>2021-11-27T10:57:03Z</time>
      </trkpt>
      <trkpt lat="42.37726" lon="-7.7229905">
        <time>2021-11-27T10:57:05Z</time>
      </trkpt>
      <trkpt lat="42.37725" lon="-7.722984">
        <time>2021-11-27T10:57:06Z</time>
      </trkpt>
      <trkpt lat="42.377243" lon="-7.722976">
        <time>2021-11-27T10:57:07Z</time>
      </trkpt>
      <trkpt lat="42.377235" lon="-7.722967">
        <time>2021-11-27T10:57:08Z</time>
      </trkpt>
      <trkpt lat="42.377224" lon="-7.7229576">
        <time>2021-11-27T10:57:09Z</time>
      </trkpt>
      <trkpt lat="42.377213" lon="-7.722949">
        <time>2021-11-27T10:57:10Z</time>
      </trkpt>
      <trkpt lat="42.377205" lon="-7.722939">
        <time>2021-11-27T10:57:11Z</time>
      </trkpt>
      <trkpt lat="42.3772" lon="-7.7229276">
        <time>2021-11-27T10:57:12Z</time>
      </trkpt>
      <trkpt lat="42.377197" lon="-7.722915">
        <time>2021-11-27T10:57:13Z</time>
      </trkpt>
      <trkpt lat="42.377197" lon="-7.7229037">
        <time>2021-11-27T10:57:14Z</time>
      </trkpt>
      <trkpt lat="42.377193" lon="-7.7228928">
        <time>2021-11-27T10:57:15Z</time>
      </trkpt>
      <trkpt lat="42.37719" lon="-7.7228827">
        <time>2021-11-27T10:57:16Z</time>
      </trkpt>
      <trkpt lat="42.37719" lon="-7.7228727">
        <time>2021-11-27T10:57:17Z</time>
      </trkpt>
      <trkpt lat="42.377193" lon="-7.7228627">
        <time>2021-11-27T10:57:18Z</time>
      </trkpt>
      <trkpt lat="42.377197" lon="-7.7228513">
        <time>2021-11-27T10:57:19Z</time>
      </trkpt>
      <trkpt lat="42.377197" lon="-7.7228365">
        <time>2021-11-27T10:57:20Z</time>
      </trkpt>
      <trkpt lat="42.377205" lon="-7.7228217">
        <time>2021-11-27T10:57:21Z</time>
      </trkpt>
      <trkpt lat="42.377213" lon="-7.722809">
        <time>2021-11-27T10:57:22Z</time>
      </trkpt>
      <trkpt lat="42.37722" lon="-7.722797">
        <time>2021-11-27T10:57:23Z</time>
      </trkpt>
      <trkpt lat="42.377224" lon="-7.7227855">
        <time>2021-11-27T10:57:24Z</time>
      </trkpt>
      <trkpt lat="42.377228" lon="-7.7227716">
        <time>2021-11-27T10:57:25Z</time>
      </trkpt>
      <trkpt lat="42.377228" lon="-7.7227573">
        <time>2021-11-27T10:57:26Z</time>
      </trkpt>
      <trkpt lat="42.377228" lon="-7.7227407">
        <time>2021-11-27T10:57:27Z</time>
      </trkpt>
      <trkpt lat="42.377228" lon="-7.722722">
        <time>2021-11-27T10:57:28Z</time>
      </trkpt>
      <trkpt lat="42.37723" lon="-7.7227054">
        <time>2021-11-27T10:57:29Z</time>
      </trkpt>
      <trkpt lat="42.37723" lon="-7.722691">
        <time>2021-11-27T10:57:30Z</time>
      </trkpt>
      <trkpt lat="42.377235" lon="-7.72268">
        <time>2021-11-27T10:57:31Z</time>
      </trkpt>
      <trkpt lat="42.377243" lon="-7.7226677">
        <time>2021-11-27T10:57:32Z</time>
      </trkpt>
      <trkpt lat="42.377247" lon="-7.722653">
        <time>2021-11-27T10:57:33Z</time>
      </trkpt>
      <trkpt lat="42.377254" lon="-7.7226367">
        <time>2021-11-27T10:57:34Z</time>
      </trkpt>
      <trkpt lat="42.37726" lon="-7.7226195">
        <time>2021-11-27T10:57:36Z</time>
      </trkpt>
      <trkpt lat="42.37726" lon="-7.7226048">
        <time>2021-11-27T10:57:36Z</time>
      </trkpt>
      <trkpt lat="42.37726" lon="-7.7225895">
        <time>2021-11-27T10:57:37Z</time>
      </trkpt>
      <trkpt lat="42.37726" lon="-7.722576">
        <time>2021-11-27T10:57:38Z</time>
      </trkpt>
      <trkpt lat="42.377254" lon="-7.7225614">
        <time>2021-11-27T10:57:39Z</time>
      </trkpt>
      <trkpt lat="42.37725" lon="-7.722546">
        <time>2021-11-27T10:57:40Z</time>
      </trkpt>
      <trkpt lat="42.377247" lon="-7.722532">
        <time>2021-11-27T10:57:41Z</time>
      </trkpt>
      <trkpt lat="42.377247" lon="-7.72252">
        <time>2021-11-27T10:57:42Z</time>
      </trkpt>
      <trkpt lat="42.37725" lon="-7.722507">
        <time>2021-11-27T10:57:43Z</time>
      </trkpt>
      <trkpt lat="42.377254" lon="-7.7224917">
        <time>2021-11-27T10:57:44Z</time>
      </trkpt>
      <trkpt lat="42.37726" lon="-7.722475">
        <time>2021-11-27T10:57:45Z</time>
      </trkpt>
      <trkpt lat="42.377262" lon="-7.7224593">
        <time>2021-11-27T10:57:46Z</time>
      </trkpt>
      <trkpt lat="42.377266" lon="-7.722447">
        <time>2021-11-27T10:57:47Z</time>
      </trkpt>
      <trkpt lat="42.37727" lon="-7.722436">
        <time>2021-11-27T10:57:48Z</time>
      </trkpt>
      <trkpt lat="42.377274" lon="-7.7224255">
        <time>2021-11-27T10:57:49Z</time>
      </trkpt>
      <trkpt lat="42.377277" lon="-7.7224154">
        <time>2021-11-27T10:57:50Z</time>
      </trkpt>
      <trkpt lat="42.37728" lon="-7.7224045">
        <time>2021-11-27T10:57:51Z</time>
      </trkpt>
      <trkpt lat="42.37728" lon="-7.722392">
        <time>2021-11-27T10:57:52Z</time>
      </trkpt>
      <trkpt lat="42.37728" lon="-7.72238">
        <time>2021-11-27T10:57:53Z</time>
      </trkpt>
      <trkpt lat="42.37728" lon="-7.722368">
        <time>2021-11-27T10:57:54Z</time>
      </trkpt>
      <trkpt lat="42.377277" lon="-7.722356">
        <time>2021-11-27T10:57:55Z</time>
      </trkpt>
      <trkpt lat="42.377274" lon="-7.7223425">
        <time>2021-11-27T10:57:56Z</time>
      </trkpt>
      <trkpt lat="42.37727" lon="-7.722329">
        <time>2021-11-27T10:57:57Z</time>
      </trkpt>
      <trkpt lat="42.37726" lon="-7.7223163">
        <time>2021-11-27T10:57:58Z</time>
      </trkpt>
      <trkpt lat="42.37725" lon="-7.7223053">
        <time>2021-11-27T10:57:59Z</time>
      </trkpt>
      <trkpt lat="42.377243" lon="-7.722296">
        <time>2021-11-27T10:58:00Z</time>
      </trkpt>
      <trkpt lat="42.377235" lon="-7.722289">
        <time>2021-11-27T10:58:01Z</time>
      </trkpt>
      <trkpt lat="42.377228" lon="-7.7222815">
        <time>2021-11-27T10:58:02Z</time>
      </trkpt>
      <trkpt lat="42.377224" lon="-7.7222733">
        <time>2021-11-27T10:58:03Z</time>
      </trkpt>
      <trkpt lat="42.37722" lon="-7.7222643">
        <time>2021-11-27T10:58:04Z</time>
      </trkpt>
      <trkpt lat="42.377213" lon="-7.722255">
        <time>2021-11-27T10:58:05Z</time>
      </trkpt>
      <trkpt lat="42.377213" lon="-7.7222443">
        <time>2021-11-27T10:58:06Z</time>
      </trkpt>
      <trkpt lat="42.377205" lon="-7.722231">
        <time>2021-11-27T10:58:07Z</time>
      </trkpt>
      <trkpt lat="42.3772" lon="-7.722219">
        <time>2021-11-27T10:58:08Z</time>
      </trkpt>
      <trkpt lat="42.377197" lon="-7.722208">
        <time>2021-11-27T10:58:09Z</time>
      </trkpt>
      <trkpt lat="42.377193" lon="-7.7221966">
        <time>2021-11-27T10:58:10Z</time>
      </trkpt>
      <trkpt lat="42.37719" lon="-7.722184">
        <time>2021-11-27T10:58:11Z</time>
      </trkpt>
      <trkpt lat="42.377182" lon="-7.7221723">
        <time>2021-11-27T10:58:12Z</time>
      </trkpt>
      <trkpt lat="42.377182" lon="-7.722159">
        <time>2021-11-27T10:58:13Z</time>
      </trkpt>
      <trkpt lat="42.37718" lon="-7.722145">
        <time>2021-11-27T10:58:14Z</time>
      </trkpt>
      <trkpt lat="42.377182" lon="-7.7221327">
        <time>2021-11-27T10:58:15Z</time>
      </trkpt>
      <trkpt lat="42.377182" lon="-7.722121">
        <time>2021-11-27T10:58:16Z</time>
      </trkpt>
      <trkpt lat="42.377182" lon="-7.722111">
        <time>2021-11-27T10:58:17Z</time>
      </trkpt>
      <trkpt lat="42.377174" lon="-7.7221017">
        <time>2021-11-27T10:58:18Z</time>
      </trkpt>
      <trkpt lat="42.37717" lon="-7.722092">
        <time>2021-11-27T10:58:19Z</time>
      </trkpt>
      <trkpt lat="42.377167" lon="-7.722081">
        <time>2021-11-27T10:58:20Z</time>
      </trkpt>
      <trkpt lat="42.377163" lon="-7.72207">
        <time>2021-11-27T10:58:21Z</time>
      </trkpt>
      <trkpt lat="42.37716" lon="-7.7220583">
        <time>2021-11-27T10:58:22Z</time>
      </trkpt>
      <trkpt lat="42.377155" lon="-7.7220454">
        <time>2021-11-27T10:58:23Z</time>
      </trkpt>
      <trkpt lat="42.377148" lon="-7.722034">
        <time>2021-11-27T10:58:24Z</time>
      </trkpt>
      <trkpt lat="42.37714" lon="-7.7220206">
        <time>2021-11-27T10:58:25Z</time>
      </trkpt>
      <trkpt lat="42.37714" lon="-7.722005">
        <time>2021-11-27T10:58:26Z</time>
      </trkpt>
      <trkpt lat="42.37714" lon="-7.7219887">
        <time>2021-11-27T10:58:27Z</time>
      </trkpt>
      <trkpt lat="42.377136" lon="-7.721971">
        <time>2021-11-27T10:58:28Z</time>
      </trkpt>
      <trkpt lat="42.377132" lon="-7.7219563">
        <time>2021-11-27T10:58:29Z</time>
      </trkpt>
      <trkpt lat="42.37712" lon="-7.7219424">
        <time>2021-11-27T10:58:30Z</time>
      </trkpt>
      <trkpt lat="42.377113" lon="-7.721929">
        <time>2021-11-27T10:58:31Z</time>
      </trkpt>
      <trkpt lat="42.37711" lon="-7.7219143">
        <time>2021-11-27T10:58:32Z</time>
      </trkpt>
      <trkpt lat="42.3771" lon="-7.721897">
        <time>2021-11-27T10:58:33Z</time>
      </trkpt>
      <trkpt lat="42.3771" lon="-7.7218757">
        <time>2021-11-27T10:58:34Z</time>
      </trkpt>
      <trkpt lat="42.377098" lon="-7.721856">
        <time>2021-11-27T10:58:35Z</time>
      </trkpt>
      <trkpt lat="42.3771" lon="-7.7218366">
        <time>2021-11-27T10:58:36Z</time>
      </trkpt>
      <trkpt lat="42.3771" lon="-7.7218227">
        <time>2021-11-27T10:58:37Z</time>
      </trkpt>
      <trkpt lat="42.37711" lon="-7.7218122">
        <time>2021-11-27T10:58:38Z</time>
      </trkpt>
      <trkpt lat="42.377113" lon="-7.7218018">
        <time>2021-11-27T10:58:39Z</time>
      </trkpt>
      <trkpt lat="42.37712" lon="-7.7217894">
        <time>2021-11-27T10:58:40Z</time>
      </trkpt>
      <trkpt lat="42.377132" lon="-7.7217784">
        <time>2021-11-27T10:58:41Z</time>
      </trkpt>
      <trkpt lat="42.377148" lon="-7.7217717">
        <time>2021-11-27T10:58:42Z</time>
      </trkpt>
      <trkpt lat="42.37716" lon="-7.7217665">
        <time>2021-11-27T10:58:43Z</time>
      </trkpt>
      <trkpt lat="42.377174" lon="-7.721761">
        <time>2021-11-27T10:58:44Z</time>
      </trkpt>
      <trkpt lat="42.377186" lon="-7.721756">
        <time>2021-11-27T10:58:45Z</time>
      </trkpt>
      <trkpt lat="42.377197" lon="-7.72175">
        <time>2021-11-27T10:58:46Z</time>
      </trkpt>
      <trkpt lat="42.377205" lon="-7.7217426">
        <time>2021-11-27T10:58:47Z</time>
      </trkpt>
      <trkpt lat="42.37722" lon="-7.7217345">
        <time>2021-11-27T10:58:48Z</time>
      </trkpt>
      <trkpt lat="42.377228" lon="-7.721725">
        <time>2021-11-27T10:58:49Z</time>
      </trkpt>
      <trkpt lat="42.377243" lon="-7.721716">
        <time>2021-11-27T10:58:50Z</time>
      </trkpt>
      <trkpt lat="42.37726" lon="-7.721705">
        <time>2021-11-27T10:58:51Z</time>
      </trkpt>
      <trkpt lat="42.377274" lon="-7.721694">
        <time>2021-11-27T10:58:52Z</time>
      </trkpt>
      <trkpt lat="42.37729" lon="-7.721683">
        <time>2021-11-27T10:58:53Z</time>
      </trkpt>
      <trkpt lat="42.377304" lon="-7.7216744">
        <time>2021-11-27T10:58:54Z</time>
      </trkpt>
      <trkpt lat="42.37732" lon="-7.7216644">
        <time>2021-11-27T10:58:55Z</time>
      </trkpt>
      <trkpt lat="42.377335" lon="-7.7216544">
        <time>2021-11-27T10:58:56Z</time>
      </trkpt>
      <trkpt lat="42.377342" lon="-7.721645">
        <time>2021-11-27T10:58:57Z</time>
      </trkpt>
      <trkpt lat="42.377354" lon="-7.7216353">
        <time>2021-11-27T10:58:58Z</time>
      </trkpt>
      <trkpt lat="42.377365" lon="-7.721625">
        <time>2021-11-27T10:58:59Z</time>
      </trkpt>
      <trkpt lat="42.377377" lon="-7.721615">
        <time>2021-11-27T10:59:00Z</time>
      </trkpt>
      <trkpt lat="42.377384" lon="-7.7216053">
        <time>2021-11-27T10:59:01Z</time>
      </trkpt>
      <trkpt lat="42.3774" lon="-7.7215953">
        <time>2021-11-27T10:59:02Z</time>
      </trkpt>
      <trkpt lat="42.377407" lon="-7.7215867">
        <time>2021-11-27T10:59:03Z</time>
      </trkpt>
      <trkpt lat="42.37742" lon="-7.7215796">
        <time>2021-11-27T10:59:04Z</time>
      </trkpt>
      <trkpt lat="42.37747" lon="-7.721549">
        <time>2021-11-27T10:59:06Z</time>
      </trkpt>
      <trkpt lat="42.377472" lon="-7.7215466">
        <time>2021-11-27T10:59:08Z</time>
      </trkpt>
      <trkpt lat="42.377483" lon="-7.7215424">
        <time>2021-11-27T10:59:09Z</time>
      </trkpt>
      <trkpt lat="42.377495" lon="-7.721535">
        <time>2021-11-27T10:59:10Z</time>
      </trkpt>
      <trkpt lat="42.377506" lon="-7.7215276">
        <time>2021-11-27T10:59:11Z</time>
      </trkpt>
      <trkpt lat="42.37752" lon="-7.7215185">
        <time>2021-11-27T10:59:13Z</time>
      </trkpt>
      <trkpt lat="42.377537" lon="-7.721509">
        <time>2021-11-27T10:59:14Z</time>
      </trkpt>
      <trkpt lat="42.377552" lon="-7.721499">
        <time>2021-11-27T10:59:15Z</time>
      </trkpt>
      <trkpt lat="42.37757" lon="-7.7214894">
        <time>2021-11-27T10:59:16Z</time>
      </trkpt>
      <trkpt lat="42.377583" lon="-7.7214785">
        <time>2021-11-27T10:59:17Z</time>
      </trkpt>
      <trkpt lat="42.377594" lon="-7.721469">
        <time>2021-11-27T10:59:18Z</time>
      </trkpt>
      <trkpt lat="42.377605" lon="-7.7214594">
        <time>2021-11-27T10:59:19Z</time>
      </trkpt>
      <trkpt lat="42.377617" lon="-7.7214503">
        <time>2021-11-27T10:59:20Z</time>
      </trkpt>
      <trkpt lat="42.37763" lon="-7.7214417">
        <time>2021-11-27T10:59:21Z</time>
      </trkpt>
      <trkpt lat="42.37764" lon="-7.721436">
        <time>2021-11-27T10:59:22Z</time>
      </trkpt>
      <trkpt lat="42.377647" lon="-7.7214317">
        <time>2021-11-27T10:59:23Z</time>
      </trkpt>
      <trkpt lat="42.377655" lon="-7.721425">
        <time>2021-11-27T10:59:24Z</time>
      </trkpt>
      <trkpt lat="42.377666" lon="-7.7214174">
        <time>2021-11-27T10:59:25Z</time>
      </trkpt>
      <trkpt lat="42.377678" lon="-7.72141">
        <time>2021-11-27T10:59:26Z</time>
      </trkpt>
      <trkpt lat="42.377686" lon="-7.7214003">
        <time>2021-11-27T10:59:27Z</time>
      </trkpt>
      <trkpt lat="42.377697" lon="-7.7213874">
        <time>2021-11-27T10:59:28Z</time>
      </trkpt>
      <trkpt lat="42.37771" lon="-7.7213736">
        <time>2021-11-27T10:59:29Z</time>
      </trkpt>
      <trkpt lat="42.377716" lon="-7.721363">
        <time>2021-11-27T10:59:30Z</time>
      </trkpt>
      <trkpt lat="42.377728" lon="-7.721352">
        <time>2021-11-27T10:59:30Z</time>
      </trkpt>
      <trkpt lat="42.377735" lon="-7.7213416">
        <time>2021-11-27T10:59:31Z</time>
      </trkpt>
      <trkpt lat="42.377747" lon="-7.7213287">
        <time>2021-11-27T10:59:32Z</time>
      </trkpt>
      <trkpt lat="42.377754" lon="-7.721316">
        <time>2021-11-27T10:59:33Z</time>
      </trkpt>
      <trkpt lat="42.37776" lon="-7.721303">
        <time>2021-11-27T10:59:35Z</time>
      </trkpt>
      <trkpt lat="42.377773" lon="-7.7212896">
        <time>2021-11-27T10:59:35Z</time>
      </trkpt>
      <trkpt lat="42.37778" lon="-7.721277">
        <time>2021-11-27T10:59:36Z</time>
      </trkpt>
      <trkpt lat="42.37779" lon="-7.721264">
        <time>2021-11-27T10:59:37Z</time>
      </trkpt>
      <trkpt lat="42.377796" lon="-7.721251">
        <time>2021-11-27T10:59:38Z</time>
      </trkpt>
      <trkpt lat="42.3778" lon="-7.7212386">
        <time>2021-11-27T10:59:39Z</time>
      </trkpt>
      <trkpt lat="42.377808" lon="-7.7212257">
        <time>2021-11-27T10:59:40Z</time>
      </trkpt>
      <trkpt lat="42.377815" lon="-7.7212143">
        <time>2021-11-27T10:59:41Z</time>
      </trkpt>
      <trkpt lat="42.37782" lon="-7.721204">
        <time>2021-11-27T10:59:42Z</time>
      </trkpt>
      <trkpt lat="42.377827" lon="-7.7211957">
        <time>2021-11-27T10:59:43Z</time>
      </trkpt>
      <trkpt lat="42.377834" lon="-7.7211885">
        <time>2021-11-27T10:59:44Z</time>
      </trkpt>
      <trkpt lat="42.377846" lon="-7.721183">
        <time>2021-11-27T10:59:45Z</time>
      </trkpt>
      <trkpt lat="42.377853" lon="-7.721176">
        <time>2021-11-27T10:59:46Z</time>
      </trkpt>
      <trkpt lat="42.377865" lon="-7.7211657">
        <time>2021-11-27T10:59:47Z</time>
      </trkpt>
      <trkpt lat="42.377872" lon="-7.7211533">
        <time>2021-11-27T10:59:48Z</time>
      </trkpt>
      <trkpt lat="42.377884" lon="-7.7211413">
        <time>2021-11-27T10:59:49Z</time>
      </trkpt>
      <trkpt lat="42.37789" lon="-7.7211285">
        <time>2021-11-27T10:59:50Z</time>
      </trkpt>
      <trkpt lat="42.377903" lon="-7.721115">
        <time>2021-11-27T10:59:51Z</time>
      </trkpt>
      <trkpt lat="42.377907" lon="-7.7211027">
        <time>2021-11-27T10:59:52Z</time>
      </trkpt>
      <trkpt lat="42.37791" lon="-7.721091">
        <time>2021-11-27T10:59:53Z</time>
      </trkpt>
      <trkpt lat="42.37792" lon="-7.721078">
        <time>2021-11-27T10:59:54Z</time>
      </trkpt>
      <trkpt lat="42.377922" lon="-7.721065">
        <time>2021-11-27T10:59:55Z</time>
      </trkpt>
      <trkpt lat="42.377926" lon="-7.7210526">
        <time>2021-11-27T10:59:56Z</time>
      </trkpt>
      <trkpt lat="42.377934" lon="-7.7210407">
        <time>2021-11-27T10:59:57Z</time>
      </trkpt>
      <trkpt lat="42.377937" lon="-7.7210298">
        <time>2021-11-27T10:59:58Z</time>
      </trkpt>
      <trkpt lat="42.377945" lon="-7.7210217">
        <time>2021-11-27T10:59:59Z</time>
      </trkpt>
      <trkpt lat="42.377953" lon="-7.7210135">
        <time>2021-11-27T11:00:00Z</time>
      </trkpt>
      <trkpt lat="42.37796" lon="-7.7210035">
        <time>2021-11-27T11:00:01Z</time>
      </trkpt>
      <trkpt lat="42.377975" lon="-7.720994">
        <time>2021-11-27T11:00:02Z</time>
      </trkpt>
      <trkpt lat="42.377983" lon="-7.7209854">
        <time>2021-11-27T11:00:03Z</time>
      </trkpt>
      <trkpt lat="42.377995" lon="-7.720975">
        <time>2021-11-27T11:00:04Z</time>
      </trkpt>
      <trkpt lat="42.378006" lon="-7.720963">
        <time>2021-11-27T11:00:05Z</time>
      </trkpt>
      <trkpt lat="42.378014" lon="-7.720951">
        <time>2021-11-27T11:00:06Z</time>
      </trkpt>
      <trkpt lat="42.37802" lon="-7.7209377">
        <time>2021-11-27T11:00:07Z</time>
      </trkpt>
      <trkpt lat="42.37803" lon="-7.720923">
        <time>2021-11-27T11:00:08Z</time>
      </trkpt>
      <trkpt lat="42.37804" lon="-7.72091">
        <time>2021-11-27T11:00:09Z</time>
      </trkpt>
      <trkpt lat="42.37805" lon="-7.7208986">
        <time>2021-11-27T11:00:10Z</time>
      </trkpt>
      <trkpt lat="42.37806" lon="-7.720887">
        <time>2021-11-27T11:00:11Z</time>
      </trkpt>
      <trkpt lat="42.378067" lon="-7.7208743">
        <time>2021-11-27T11:00:12Z</time>
      </trkpt>
      <trkpt lat="42.378075" lon="-7.7208614">
        <time>2021-11-27T11:00:13Z</time>
      </trkpt>
      <trkpt lat="42.378082" lon="-7.720846">
        <time>2021-11-27T11:00:14Z</time>
      </trkpt>
      <trkpt lat="42.378094" lon="-7.720831">
        <time>2021-11-27T11:00:15Z</time>
      </trkpt>
      <trkpt lat="42.378105" lon="-7.7208166">
        <time>2021-11-27T11:00:16Z</time>
      </trkpt>
      <trkpt lat="42.378113" lon="-7.720805">
        <time>2021-11-27T11:00:17Z</time>
      </trkpt>
      <trkpt lat="42.37812" lon="-7.7207947">
        <time>2021-11-27T11:00:18Z</time>
      </trkpt>
      <trkpt lat="42.378128" lon="-7.720783">
        <time>2021-11-27T11:00:19Z</time>
      </trkpt>
      <trkpt lat="42.37814" lon="-7.720772">
        <time>2021-11-27T11:00:20Z</time>
      </trkpt>
      <trkpt lat="42.378147" lon="-7.720758">
        <time>2021-11-27T11:00:21Z</time>
      </trkpt>
      <trkpt lat="42.378155" lon="-7.7207437">
        <time>2021-11-27T11:00:22Z</time>
      </trkpt>
      <trkpt lat="42.378162" lon="-7.720729">
        <time>2021-11-27T11:00:23Z</time>
      </trkpt>
      <trkpt lat="42.37817" lon="-7.7207136">
        <time>2021-11-27T11:00:24Z</time>
      </trkpt>
      <trkpt lat="42.37818" lon="-7.720697">
        <time>2021-11-27T11:00:25Z</time>
      </trkpt>
      <trkpt lat="42.37819" lon="-7.7206817">
        <time>2021-11-27T11:00:26Z</time>
      </trkpt>
      <trkpt lat="42.3782" lon="-7.7206664">
        <time>2021-11-27T11:00:27Z</time>
      </trkpt>
      <trkpt lat="42.37821" lon="-7.7206526">
        <time>2021-11-27T11:00:28Z</time>
      </trkpt>
      <trkpt lat="42.378216" lon="-7.7206388">
        <time>2021-11-27T11:00:29Z</time>
      </trkpt>
      <trkpt lat="42.378227" lon="-7.720626">
        <time>2021-11-27T11:00:30Z</time>
      </trkpt>
      <trkpt lat="42.378235" lon="-7.720612">
        <time>2021-11-27T11:00:31Z</time>
      </trkpt>
      <trkpt lat="42.378246" lon="-7.7205973">
        <time>2021-11-27T11:00:32Z</time>
      </trkpt>
      <trkpt lat="42.378258" lon="-7.720584">
        <time>2021-11-27T11:00:33Z</time>
      </trkpt>
      <trkpt lat="42.37827" lon="-7.720571">
        <time>2021-11-27T11:00:34Z</time>
      </trkpt>
      <trkpt lat="42.378284" lon="-7.7205567">
        <time>2021-11-27T11:00:35Z</time>
      </trkpt>
      <trkpt lat="42.378292" lon="-7.720543">
        <time>2021-11-27T11:00:36Z</time>
      </trkpt>
      <trkpt lat="42.3783" lon="-7.7205267">
        <time>2021-11-27T11:00:37Z</time>
      </trkpt>
      <trkpt lat="42.378304" lon="-7.720512">
        <time>2021-11-27T11:00:38Z</time>
      </trkpt>
      <trkpt lat="42.37831" lon="-7.720498">
        <time>2021-11-27T11:00:39Z</time>
      </trkpt>
      <trkpt lat="42.378323" lon="-7.720484">
        <time>2021-11-27T11:00:40Z</time>
      </trkpt>
      <trkpt lat="42.37833" lon="-7.720468">
        <time>2021-11-27T11:00:41Z</time>
      </trkpt>
      <trkpt lat="42.37834" lon="-7.7204485">
        <time>2021-11-27T11:00:42Z</time>
      </trkpt>
      <trkpt lat="42.37835" lon="-7.720432">
        <time>2021-11-27T11:00:43Z</time>
      </trkpt>
      <trkpt lat="42.378365" lon="-7.720418">
        <time>2021-11-27T11:00:44Z</time>
      </trkpt>
      <trkpt lat="42.378376" lon="-7.7204056">
        <time>2021-11-27T11:00:45Z</time>
      </trkpt>
      <trkpt lat="42.378387" lon="-7.720393">
        <time>2021-11-27T11:00:46Z</time>
      </trkpt>
      <trkpt lat="42.378395" lon="-7.720377">
        <time>2021-11-27T11:00:47Z</time>
      </trkpt>
      <trkpt lat="42.378403" lon="-7.72036">
        <time>2021-11-27T11:00:48Z</time>
      </trkpt>
      <trkpt lat="42.378403" lon="-7.7203445">
        <time>2021-11-27T11:00:49Z</time>
      </trkpt>
      <trkpt lat="42.37841" lon="-7.7203307">
        <time>2021-11-27T11:00:50Z</time>
      </trkpt>
      <trkpt lat="42.37841" lon="-7.720319">
        <time>2021-11-27T11:00:51Z</time>
      </trkpt>
      <trkpt lat="42.37841" lon="-7.7203054">
        <time>2021-11-27T11:00:52Z</time>
      </trkpt>
      <trkpt lat="42.37841" lon="-7.7202907">
        <time>2021-11-27T11:00:53Z</time>
      </trkpt>
      <trkpt lat="42.37841" lon="-7.7202735">
        <time>2021-11-27T11:00:54Z</time>
      </trkpt>
      <trkpt lat="42.378414" lon="-7.720255">
        <time>2021-11-27T11:00:55Z</time>
      </trkpt>
      <trkpt lat="42.378418" lon="-7.720237">
        <time>2021-11-27T11:00:56Z</time>
      </trkpt>
      <trkpt lat="42.378418" lon="-7.7202215">
        <time>2021-11-27T11:00:57Z</time>
      </trkpt>
      <trkpt lat="42.378418" lon="-7.7202067">
        <time>2021-11-27T11:00:58Z</time>
      </trkpt>
      <trkpt lat="42.378418" lon="-7.720192">
        <time>2021-11-27T11:00:59Z</time>
      </trkpt>
      <trkpt lat="42.378418" lon="-7.7201767">
        <time>2021-11-27T11:01:00Z</time>
      </trkpt>
      <trkpt lat="42.378418" lon="-7.7201605">
        <time>2021-11-27T11:01:01Z</time>
      </trkpt>
      <trkpt lat="42.378418" lon="-7.720144">
        <time>2021-11-27T11:01:02Z</time>
      </trkpt>
      <trkpt lat="42.378418" lon="-7.7201285">
        <time>2021-11-27T11:01:03Z</time>
      </trkpt>
      <trkpt lat="42.378426" lon="-7.720115">
        <time>2021-11-27T11:01:04Z</time>
      </trkpt>
      <trkpt lat="42.37843" lon="-7.7201014">
        <time>2021-11-27T11:01:05Z</time>
      </trkpt>
      <trkpt lat="42.378437" lon="-7.7200866">
        <time>2021-11-27T11:01:06Z</time>
      </trkpt>
      <trkpt lat="42.37844" lon="-7.7200723">
        <time>2021-11-27T11:01:07Z</time>
      </trkpt>
      <trkpt lat="42.378445" lon="-7.720055">
        <time>2021-11-27T11:01:08Z</time>
      </trkpt>
      <trkpt lat="42.37845" lon="-7.7200384">
        <time>2021-11-27T11:01:09Z</time>
      </trkpt>
      <trkpt lat="42.378456" lon="-7.720023">
        <time>2021-11-27T11:01:10Z</time>
      </trkpt>
      <trkpt lat="42.37846" lon="-7.7200108">
        <time>2021-11-27T11:01:11Z</time>
      </trkpt>
      <trkpt lat="42.378468" lon="-7.7200017">
        <time>2021-11-27T11:01:12Z</time>
      </trkpt>
      <trkpt lat="42.378475" lon="-7.719993">
        <time>2021-11-27T11:01:13Z</time>
      </trkpt>
      <trkpt lat="42.378483" lon="-7.719982">
        <time>2021-11-27T11:01:14Z</time>
      </trkpt>
      <trkpt lat="42.37849" lon="-7.7199707">
        <time>2021-11-27T11:01:15Z</time>
      </trkpt>
      <trkpt lat="42.3785" lon="-7.7199564">
        <time>2021-11-27T11:01:16Z</time>
      </trkpt>
      <trkpt lat="42.378513" lon="-7.719941">
        <time>2021-11-27T11:01:17Z</time>
      </trkpt>
      <trkpt lat="42.37852" lon="-7.719924">
        <time>2021-11-27T11:01:18Z</time>
      </trkpt>
      <trkpt lat="42.378532" lon="-7.7199073">
        <time>2021-11-27T11:01:19Z</time>
      </trkpt>
      <trkpt lat="42.37854" lon="-7.719893">
        <time>2021-11-27T11:01:20Z</time>
      </trkpt>
      <trkpt lat="42.378548" lon="-7.719879">
        <time>2021-11-27T11:01:21Z</time>
      </trkpt>
      <trkpt lat="42.378555" lon="-7.719865">
        <time>2021-11-27T11:01:22Z</time>
      </trkpt>
      <trkpt lat="42.378563" lon="-7.7198496">
        <time>2021-11-27T11:01:23Z</time>
      </trkpt>
      <trkpt lat="42.37857" lon="-7.7198334">
        <time>2021-11-27T11:01:24Z</time>
      </trkpt>
      <trkpt lat="42.378574" lon="-7.719819">
        <time>2021-11-27T11:01:25Z</time>
      </trkpt>
      <trkpt lat="42.378582" lon="-7.719805">
        <time>2021-11-27T11:01:26Z</time>
      </trkpt>
      <trkpt lat="42.378586" lon="-7.719791">
        <time>2021-11-27T11:01:27Z</time>
      </trkpt>
      <trkpt lat="42.37859" lon="-7.719776">
        <time>2021-11-27T11:01:28Z</time>
      </trkpt>
      <trkpt lat="42.378597" lon="-7.7197604">
        <time>2021-11-27T11:01:29Z</time>
      </trkpt>
      <trkpt lat="42.378605" lon="-7.719747">
        <time>2021-11-27T11:01:30Z</time>
      </trkpt>
      <trkpt lat="42.378613" lon="-7.7197337">
        <time>2021-11-27T11:01:31Z</time>
      </trkpt>
      <trkpt lat="42.37862" lon="-7.7197185">
        <time>2021-11-27T11:01:32Z</time>
      </trkpt>
      <trkpt lat="42.378624" lon="-7.719702">
        <time>2021-11-27T11:01:33Z</time>
      </trkpt>
      <trkpt lat="42.378628" lon="-7.7196813">
        <time>2021-11-27T11:01:34Z</time>
      </trkpt>
      <trkpt lat="42.378628" lon="-7.719662">
        <time>2021-11-27T11:01:35Z</time>
      </trkpt>
      <trkpt lat="42.378635" lon="-7.7196436">
        <time>2021-11-27T11:01:36Z</time>
      </trkpt>
      <trkpt lat="42.378635" lon="-7.7196255">
        <time>2021-11-27T11:01:37Z</time>
      </trkpt>
      <trkpt lat="42.37864" lon="-7.7196083">
        <time>2021-11-27T11:01:38Z</time>
      </trkpt>
      <trkpt lat="42.37864" lon="-7.7195916">
        <time>2021-11-27T11:01:39Z</time>
      </trkpt>
      <trkpt lat="42.378643" lon="-7.719577">
        <time>2021-11-27T11:01:40Z</time>
      </trkpt>
      <trkpt lat="42.378643" lon="-7.7195635">
        <time>2021-11-27T11:01:41Z</time>
      </trkpt>
      <trkpt lat="42.37865" lon="-7.7195497">
        <time>2021-11-27T11:01:42Z</time>
      </trkpt>
      <trkpt lat="42.37866" lon="-7.719534">
        <time>2021-11-27T11:01:43Z</time>
      </trkpt>
      <trkpt lat="42.378666" lon="-7.719518">
        <time>2021-11-27T11:01:44Z</time>
      </trkpt>
      <trkpt lat="42.378674" lon="-7.7195">
        <time>2021-11-27T11:01:45Z</time>
      </trkpt>
      <trkpt lat="42.378677" lon="-7.719483">
        <time>2021-11-27T11:01:46Z</time>
      </trkpt>
      <trkpt lat="42.37868" lon="-7.7194676">
        <time>2021-11-27T11:01:47Z</time>
      </trkpt>
      <trkpt lat="42.378685" lon="-7.7194533">
        <time>2021-11-27T11:01:48Z</time>
      </trkpt>
      <trkpt lat="42.37869" lon="-7.7194405">
        <time>2021-11-27T11:01:49Z</time>
      </trkpt>
      <trkpt lat="42.378693" lon="-7.7194285">
        <time>2021-11-27T11:01:50Z</time>
      </trkpt>
      <trkpt lat="42.378696" lon="-7.719415">
        <time>2021-11-27T11:01:51Z</time>
      </trkpt>
      <trkpt lat="42.378696" lon="-7.719401">
        <time>2021-11-27T11:01:52Z</time>
      </trkpt>
      <trkpt lat="42.378696" lon="-7.719387">
        <time>2021-11-27T11:01:54Z</time>
      </trkpt>
      <trkpt lat="42.378696" lon="-7.7193685">
        <time>2021-11-27T11:01:56Z</time>
      </trkpt>
      <trkpt lat="42.3787" lon="-7.7193527">
        <time>2021-11-27T11:01:58Z</time>
      </trkpt>
      <trkpt lat="42.378704" lon="-7.7193365">
        <time>2021-11-27T11:01:59Z</time>
      </trkpt>
      <trkpt lat="42.37871" lon="-7.7193203">
        <time>2021-11-27T11:02:00Z</time>
      </trkpt>
      <trkpt lat="42.378716" lon="-7.7193065">
        <time>2021-11-27T11:02:01Z</time>
      </trkpt>
      <trkpt lat="42.378723" lon="-7.7192907">
        <time>2021-11-27T11:02:02Z</time>
      </trkpt>
      <trkpt lat="42.378727" lon="-7.719276">
        <time>2021-11-27T11:02:03Z</time>
      </trkpt>
      <trkpt lat="42.37873" lon="-7.719262">
        <time>2021-11-27T11:02:04Z</time>
      </trkpt>
      <trkpt lat="42.378735" lon="-7.7192492">
        <time>2021-11-27T11:02:05Z</time>
      </trkpt>
      <trkpt lat="42.37874" lon="-7.7192345">
        <time>2021-11-27T11:02:06Z</time>
      </trkpt>
      <trkpt lat="42.378746" lon="-7.7192197">
        <time>2021-11-27T11:02:07Z</time>
      </trkpt>
      <trkpt lat="42.378746" lon="-7.719206">
        <time>2021-11-27T11:02:08Z</time>
      </trkpt>
      <trkpt lat="42.37875" lon="-7.719195">
        <time>2021-11-27T11:02:09Z</time>
      </trkpt>
      <trkpt lat="42.378754" lon="-7.719187">
        <time>2021-11-27T11:02:10Z</time>
      </trkpt>
      <trkpt lat="42.378757" lon="-7.71918">
        <time>2021-11-27T11:02:11Z</time>
      </trkpt>
      <trkpt lat="42.37876" lon="-7.719174">
        <time>2021-11-27T11:02:12Z</time>
      </trkpt>
      <trkpt lat="42.37877" lon="-7.719167">
        <time>2021-11-27T11:02:13Z</time>
      </trkpt>
      <trkpt lat="42.378773" lon="-7.719159">
        <time>2021-11-27T11:02:14Z</time>
      </trkpt>
      <trkpt lat="42.37878" lon="-7.7191515">
        <time>2021-11-27T11:02:15Z</time>
      </trkpt>
      <trkpt lat="42.378788" lon="-7.7191443">
        <time>2021-11-27T11:02:16Z</time>
      </trkpt>
      <trkpt lat="42.3788" lon="-7.7191386">
        <time>2021-11-27T11:02:17Z</time>
      </trkpt>
      <trkpt lat="42.378807" lon="-7.71913">
        <time>2021-11-27T11:02:18Z</time>
      </trkpt>
      <trkpt lat="42.378815" lon="-7.7191205">
        <time>2021-11-27T11:02:19Z</time>
      </trkpt>
      <trkpt lat="42.37882" lon="-7.7191114">
        <time>2021-11-27T11:02:20Z</time>
      </trkpt>
      <trkpt lat="42.378822" lon="-7.719103">
        <time>2021-11-27T11:02:21Z</time>
      </trkpt>
      <trkpt lat="42.378845" lon="-7.719083">
        <time>2021-11-27T11:02:23Z</time>
      </trkpt>
      <trkpt lat="42.378845" lon="-7.719079">
        <time>2021-11-27T11:02:24Z</time>
      </trkpt>
      <trkpt lat="42.378845" lon="-7.719071">
        <time>2021-11-27T11:02:25Z</time>
      </trkpt>
      <trkpt lat="42.378853" lon="-7.7190585">
        <time>2021-11-27T11:02:26Z</time>
      </trkpt>
      <trkpt lat="42.37886" lon="-7.719047">
        <time>2021-11-27T11:02:27Z</time>
      </trkpt>
      <trkpt lat="42.37887" lon="-7.7190375">
        <time>2021-11-27T11:02:28Z</time>
      </trkpt>
      <trkpt lat="42.378876" lon="-7.719028">
        <time>2021-11-27T11:02:29Z</time>
      </trkpt>
      <trkpt lat="42.37888" lon="-7.7190166">
        <time>2021-11-27T11:02:30Z</time>
      </trkpt>
      <trkpt lat="42.378883" lon="-7.7190027">
        <time>2021-11-27T11:02:31Z</time>
      </trkpt>
      <trkpt lat="42.37889" lon="-7.71899">
        <time>2021-11-27T11:02:32Z</time>
      </trkpt>
      <trkpt lat="42.3789" lon="-7.7189775">
        <time>2021-11-27T11:02:33Z</time>
      </trkpt>
      <trkpt lat="42.37891" lon="-7.7189646">
        <time>2021-11-27T11:02:34Z</time>
      </trkpt>
      <trkpt lat="42.378918" lon="-7.7189536">
        <time>2021-11-27T11:02:35Z</time>
      </trkpt>
      <trkpt lat="42.378925" lon="-7.718941">
        <time>2021-11-27T11:02:36Z</time>
      </trkpt>
      <trkpt lat="42.378937" lon="-7.718929">
        <time>2021-11-27T11:02:37Z</time>
      </trkpt>
      <trkpt lat="42.37895" lon="-7.718915">
        <time>2021-11-27T11:02:38Z</time>
      </trkpt>
      <trkpt lat="42.378956" lon="-7.7188997">
        <time>2021-11-27T11:02:39Z</time>
      </trkpt>
      <trkpt lat="42.378967" lon="-7.7188845">
        <time>2021-11-27T11:02:40Z</time>
      </trkpt>
      <trkpt lat="42.37898" lon="-7.7188697">
        <time>2021-11-27T11:02:41Z</time>
      </trkpt>
      <trkpt lat="42.37899" lon="-7.7188563">
        <time>2021-11-27T11:02:42Z</time>
      </trkpt>
      <trkpt lat="42.378998" lon="-7.718844">
        <time>2021-11-27T11:02:43Z</time>
      </trkpt>
      <trkpt lat="42.378998" lon="-7.7188306">
        <time>2021-11-27T11:02:44Z</time>
      </trkpt>
      <trkpt lat="42.378994" lon="-7.718816">
        <time>2021-11-27T11:02:45Z</time>
      </trkpt>
      <trkpt lat="42.378998" lon="-7.7188025">
        <time>2021-11-27T11:02:46Z</time>
      </trkpt>
      <trkpt lat="42.379" lon="-7.7187877">
        <time>2021-11-27T11:02:47Z</time>
      </trkpt>
      <trkpt lat="42.379005" lon="-7.7187724">
        <time>2021-11-27T11:02:48Z</time>
      </trkpt>
      <trkpt lat="42.37901" lon="-7.718755">
        <time>2021-11-27T11:02:49Z</time>
      </trkpt>
      <trkpt lat="42.37901" lon="-7.7187366">
        <time>2021-11-27T11:02:50Z</time>
      </trkpt>
      <trkpt lat="42.379013" lon="-7.7187195">
        <time>2021-11-27T11:02:51Z</time>
      </trkpt>
      <trkpt lat="42.379017" lon="-7.7187023">
        <time>2021-11-27T11:02:52Z</time>
      </trkpt>
      <trkpt lat="42.379017" lon="-7.7186856">
        <time>2021-11-27T11:02:53Z</time>
      </trkpt>
      <trkpt lat="42.379017" lon="-7.718669">
        <time>2021-11-27T11:02:54Z</time>
      </trkpt>
      <trkpt lat="42.37902" lon="-7.7186527">
        <time>2021-11-27T11:02:55Z</time>
      </trkpt>
      <trkpt lat="42.379025" lon="-7.718638">
        <time>2021-11-27T11:02:56Z</time>
      </trkpt>
      <trkpt lat="42.379032" lon="-7.718626">
        <time>2021-11-27T11:02:57Z</time>
      </trkpt>
      <trkpt lat="42.37904" lon="-7.7186127">
        <time>2021-11-27T11:02:58Z</time>
      </trkpt>
      <trkpt lat="42.379044" lon="-7.7185965">
        <time>2021-11-27T11:02:59Z</time>
      </trkpt>
      <trkpt lat="42.379047" lon="-7.71858">
        <time>2021-11-27T11:03:00Z</time>
      </trkpt>
      <trkpt lat="42.379055" lon="-7.718563">
        <time>2021-11-27T11:03:01Z</time>
      </trkpt>
      <trkpt lat="42.379063" lon="-7.718548">
        <time>2021-11-27T11:03:02Z</time>
      </trkpt>
      <trkpt lat="42.379066" lon="-7.718533">
        <time>2021-11-27T11:03:03Z</time>
      </trkpt>
      <trkpt lat="42.379074" lon="-7.7185183">
        <time>2021-11-27T11:03:04Z</time>
      </trkpt>
      <trkpt lat="42.37908" lon="-7.7185016">
        <time>2021-11-27T11:03:05Z</time>
      </trkpt>
      <trkpt lat="42.37909" lon="-7.7184844">
        <time>2021-11-27T11:03:06Z</time>
      </trkpt>
      <trkpt lat="42.379097" lon="-7.718465">
        <time>2021-11-27T11:03:07Z</time>
      </trkpt>
      <trkpt lat="42.379105" lon="-7.718445">
        <time>2021-11-27T11:03:08Z</time>
      </trkpt>
      <trkpt lat="42.379116" lon="-7.718424">
        <time>2021-11-27T11:03:09Z</time>
      </trkpt>
      <trkpt lat="42.37912" lon="-7.7184024">
        <time>2021-11-27T11:03:10Z</time>
      </trkpt>
      <trkpt lat="42.379124" lon="-7.718381">
        <time>2021-11-27T11:03:11Z</time>
      </trkpt>
      <trkpt lat="42.379128" lon="-7.7183614">
        <time>2021-11-27T11:03:12Z</time>
      </trkpt>
      <trkpt lat="42.379135" lon="-7.7183423">
        <time>2021-11-27T11:03:13Z</time>
      </trkpt>
      <trkpt lat="42.379143" lon="-7.7183237">
        <time>2021-11-27T11:03:14Z</time>
      </trkpt>
      <trkpt lat="42.37915" lon="-7.7183027">
        <time>2021-11-27T11:03:15Z</time>
      </trkpt>
      <trkpt lat="42.379154" lon="-7.718282">
        <time>2021-11-27T11:03:16Z</time>
      </trkpt>
      <trkpt lat="42.379158" lon="-7.718262">
        <time>2021-11-27T11:03:17Z</time>
      </trkpt>
      <trkpt lat="42.379158" lon="-7.718243">
        <time>2021-11-27T11:03:18Z</time>
      </trkpt>
      <trkpt lat="42.379166" lon="-7.718226">
        <time>2021-11-27T11:03:19Z</time>
      </trkpt>
      <trkpt lat="42.37917" lon="-7.7182093">
        <time>2021-11-27T11:03:20Z</time>
      </trkpt>
      <trkpt lat="42.379173" lon="-7.718193">
        <time>2021-11-27T11:03:21Z</time>
      </trkpt>
      <trkpt lat="42.37918" lon="-7.718179">
        <time>2021-11-27T11:03:22Z</time>
      </trkpt>
      <trkpt lat="42.37919" lon="-7.718165">
        <time>2021-11-27T11:03:23Z</time>
      </trkpt>
      <trkpt lat="42.379196" lon="-7.7181525">
        <time>2021-11-27T11:03:24Z</time>
      </trkpt>
      <trkpt lat="42.379204" lon="-7.718138">
        <time>2021-11-27T11:03:25Z</time>
      </trkpt>
      <trkpt lat="42.379208" lon="-7.718125">
        <time>2021-11-27T11:03:26Z</time>
      </trkpt>
      <trkpt lat="42.37921" lon="-7.7181115">
        <time>2021-11-27T11:03:27Z</time>
      </trkpt>
      <trkpt lat="42.37922" lon="-7.718097">
        <time>2021-11-27T11:03:28Z</time>
      </trkpt>
      <trkpt lat="42.379223" lon="-7.718082">
        <time>2021-11-27T11:03:29Z</time>
      </trkpt>
      <trkpt lat="42.379227" lon="-7.7180653">
        <time>2021-11-27T11:03:30Z</time>
      </trkpt>
      <trkpt lat="42.379234" lon="-7.718048">
        <time>2021-11-27T11:03:31Z</time>
      </trkpt>
      <trkpt lat="42.379234" lon="-7.718033">
        <time>2021-11-27T11:03:32Z</time>
      </trkpt>
      <trkpt lat="42.379242" lon="-7.718017">
        <time>2021-11-27T11:03:33Z</time>
      </trkpt>
      <trkpt lat="42.379242" lon="-7.718003">
        <time>2021-11-27T11:03:35Z</time>
      </trkpt>
      <trkpt lat="42.379242" lon="-7.71799">
        <time>2021-11-27T11:03:35Z</time>
      </trkpt>
      <trkpt lat="42.379242" lon="-7.717977">
        <time>2021-11-27T11:03:36Z</time>
      </trkpt>
      <trkpt lat="42.379234" lon="-7.7179666">
        <time>2021-11-27T11:03:37Z</time>
      </trkpt>
      <trkpt lat="42.37923" lon="-7.717955">
        <time>2021-11-27T11:03:38Z</time>
      </trkpt>
      <trkpt lat="42.379223" lon="-7.717944">
        <time>2021-11-27T11:03:39Z</time>
      </trkpt>
      <trkpt lat="42.379215" lon="-7.7179327">
        <time>2021-11-27T11:03:40Z</time>
      </trkpt>
      <trkpt lat="42.37921" lon="-7.717918">
        <time>2021-11-27T11:03:41Z</time>
      </trkpt>
      <trkpt lat="42.379208" lon="-7.7179008">
        <time>2021-11-27T11:03:42Z</time>
      </trkpt>
      <trkpt lat="42.37921" lon="-7.7178802">
        <time>2021-11-27T11:03:43Z</time>
      </trkpt>
      <trkpt lat="42.37921" lon="-7.717858">
        <time>2021-11-27T11:03:44Z</time>
      </trkpt>
      <trkpt lat="42.379223" lon="-7.717837">
        <time>2021-11-27T11:03:45Z</time>
      </trkpt>
      <trkpt lat="42.379234" lon="-7.717817">
        <time>2021-11-27T11:03:45Z</time>
      </trkpt>
      <trkpt lat="42.379246" lon="-7.7177973">
        <time>2021-11-27T11:03:46Z</time>
      </trkpt>
      <trkpt lat="42.379253" lon="-7.7177773">
        <time>2021-11-27T11:03:47Z</time>
      </trkpt>
      <trkpt lat="42.37926" lon="-7.717759">
        <time>2021-11-27T11:03:48Z</time>
      </trkpt>
      <trkpt lat="42.37927" lon="-7.717744">
        <time>2021-11-27T11:03:49Z</time>
      </trkpt>
      <trkpt lat="42.379276" lon="-7.717731">
        <time>2021-11-27T11:03:50Z</time>
      </trkpt>
      <trkpt lat="42.379284" lon="-7.7177196">
        <time>2021-11-27T11:03:51Z</time>
      </trkpt>
      <trkpt lat="42.379288" lon="-7.7177095">
        <time>2021-11-27T11:03:52Z</time>
      </trkpt>
      <trkpt lat="42.3793" lon="-7.717698">
        <time>2021-11-27T11:03:53Z</time>
      </trkpt>
      <trkpt lat="42.379307" lon="-7.717688">
        <time>2021-11-27T11:03:54Z</time>
      </trkpt>
      <trkpt lat="42.379314" lon="-7.7176766">
        <time>2021-11-27T11:03:55Z</time>
      </trkpt>
      <trkpt lat="42.37932" lon="-7.717664">
        <time>2021-11-27T11:03:56Z</time>
      </trkpt>
      <trkpt lat="42.379322" lon="-7.7176485">
        <time>2021-11-27T11:03:57Z</time>
      </trkpt>
      <trkpt lat="42.379322" lon="-7.717632">
        <time>2021-11-27T11:03:58Z</time>
      </trkpt>
      <trkpt lat="42.379322" lon="-7.7176175">
        <time>2021-11-27T11:03:59Z</time>
      </trkpt>
      <trkpt lat="42.379322" lon="-7.7176065">
        <time>2021-11-27T11:04:00Z</time>
      </trkpt>
      <trkpt lat="42.379326" lon="-7.717596">
        <time>2021-11-27T11:04:01Z</time>
      </trkpt>
      <trkpt lat="42.37933" lon="-7.7175846">
        <time>2021-11-27T11:04:02Z</time>
      </trkpt>
      <trkpt lat="42.37933" lon="-7.7175713">
        <time>2021-11-27T11:04:03Z</time>
      </trkpt>
      <trkpt lat="42.379333" lon="-7.717556">
        <time>2021-11-27T11:04:04Z</time>
      </trkpt>
      <trkpt lat="42.379333" lon="-7.717542">
        <time>2021-11-27T11:04:05Z</time>
      </trkpt>
      <trkpt lat="42.379337" lon="-7.7175303">
        <time>2021-11-27T11:04:06Z</time>
      </trkpt>
      <trkpt lat="42.379337" lon="-7.717518">
        <time>2021-11-27T11:04:07Z</time>
      </trkpt>
      <trkpt lat="42.37934" lon="-7.7175064">
        <time>2021-11-27T11:04:08Z</time>
      </trkpt>
      <trkpt lat="42.379345" lon="-7.717495">
        <time>2021-11-27T11:04:09Z</time>
      </trkpt>
      <trkpt lat="42.37935" lon="-7.7174835">
        <time>2021-11-27T11:04:10Z</time>
      </trkpt>
      <trkpt lat="42.379353" lon="-7.717471">
        <time>2021-11-27T11:04:11Z</time>
      </trkpt>
      <trkpt lat="42.379353" lon="-7.717459">
        <time>2021-11-27T11:04:12Z</time>
      </trkpt>
      <trkpt lat="42.379364" lon="-7.7174478">
        <time>2021-11-27T11:04:13Z</time>
      </trkpt>
      <trkpt lat="42.379375" lon="-7.7174363">
        <time>2021-11-27T11:04:14Z</time>
      </trkpt>
      <trkpt lat="42.379383" lon="-7.71742">
        <time>2021-11-27T11:04:15Z</time>
      </trkpt>
      <trkpt lat="42.379387" lon="-7.7174006">
        <time>2021-11-27T11:04:16Z</time>
      </trkpt>
      <trkpt lat="42.37939" lon="-7.71738">
        <time>2021-11-27T11:04:17Z</time>
      </trkpt>
      <trkpt lat="42.379395" lon="-7.7173586">
        <time>2021-11-27T11:04:18Z</time>
      </trkpt>
      <trkpt lat="42.3794" lon="-7.717338">
        <time>2021-11-27T11:04:19Z</time>
      </trkpt>
      <trkpt lat="42.379406" lon="-7.7173185">
        <time>2021-11-27T11:04:20Z</time>
      </trkpt>
      <trkpt lat="42.379406" lon="-7.717302">
        <time>2021-11-27T11:04:21Z</time>
      </trkpt>
      <trkpt lat="42.379414" lon="-7.7172866">
        <time>2021-11-27T11:04:22Z</time>
      </trkpt>
      <trkpt lat="42.379414" lon="-7.7172723">
        <time>2021-11-27T11:04:23Z</time>
      </trkpt>
      <trkpt lat="42.37942" lon="-7.7172604">
        <time>2021-11-27T11:04:24Z</time>
      </trkpt>
      <trkpt lat="42.37942" lon="-7.71725">
        <time>2021-11-27T11:04:25Z</time>
      </trkpt>
      <trkpt lat="42.37943" lon="-7.7172403">
        <time>2021-11-27T11:04:26Z</time>
      </trkpt>
      <trkpt lat="42.37943" lon="-7.717231">
        <time>2021-11-27T11:04:27Z</time>
      </trkpt>
      <trkpt lat="42.379436" lon="-7.71722">
        <time>2021-11-27T11:04:28Z</time>
      </trkpt>
      <trkpt lat="42.379436" lon="-7.7172084">
        <time>2021-11-27T11:04:29Z</time>
      </trkpt>
      <trkpt lat="42.379444" lon="-7.717195">
        <time>2021-11-27T11:04:30Z</time>
      </trkpt>
      <trkpt lat="42.37945" lon="-7.717181">
        <time>2021-11-27T11:04:31Z</time>
      </trkpt>
      <trkpt lat="42.379456" lon="-7.717168">
        <time>2021-11-27T11:04:32Z</time>
      </trkpt>
      <trkpt lat="42.379467" lon="-7.717154">
        <time>2021-11-27T11:04:33Z</time>
      </trkpt>
      <trkpt lat="42.379475" lon="-7.7171397">
        <time>2021-11-27T11:04:34Z</time>
      </trkpt>
      <trkpt lat="42.379482" lon="-7.717127">
        <time>2021-11-27T11:04:35Z</time>
      </trkpt>
      <trkpt lat="42.379494" lon="-7.7171144">
        <time>2021-11-27T11:04:36Z</time>
      </trkpt>
      <trkpt lat="42.3795" lon="-7.717102">
        <time>2021-11-27T11:04:37Z</time>
      </trkpt>
      <trkpt lat="42.37951" lon="-7.71709">
        <time>2021-11-27T11:04:38Z</time>
      </trkpt>
      <trkpt lat="42.37952" lon="-7.717081">
        <time>2021-11-27T11:04:39Z</time>
      </trkpt>
      <trkpt lat="42.37953" lon="-7.7170734">
        <time>2021-11-27T11:04:40Z</time>
      </trkpt>
      <trkpt lat="42.379547" lon="-7.7170663">
        <time>2021-11-27T11:04:41Z</time>
      </trkpt>
      <trkpt lat="42.37956" lon="-7.7170577">
        <time>2021-11-27T11:04:42Z</time>
      </trkpt>
      <trkpt lat="42.37957" lon="-7.7170477">
        <time>2021-11-27T11:04:43Z</time>
      </trkpt>
      <trkpt lat="42.37958" lon="-7.7170343">
        <time>2021-11-27T11:04:44Z</time>
      </trkpt>
      <trkpt lat="42.379593" lon="-7.717021">
        <time>2021-11-27T11:04:45Z</time>
      </trkpt>
      <trkpt lat="42.3796" lon="-7.7170105">
        <time>2021-11-27T11:04:46Z</time>
      </trkpt>
      <trkpt lat="42.379616" lon="-7.7170014">
        <time>2021-11-27T11:04:47Z</time>
      </trkpt>
      <trkpt lat="42.379627" lon="-7.7169933">
        <time>2021-11-27T11:04:48Z</time>
      </trkpt>
      <trkpt lat="42.37964" lon="-7.716984">
        <time>2021-11-27T11:04:49Z</time>
      </trkpt>
      <trkpt lat="42.379654" lon="-7.7169743">
        <time>2021-11-27T11:04:50Z</time>
      </trkpt>
      <trkpt lat="42.37966" lon="-7.7169657">
        <time>2021-11-27T11:04:51Z</time>
      </trkpt>
      <trkpt lat="42.379673" lon="-7.7169576">
        <time>2021-11-27T11:04:52Z</time>
      </trkpt>
      <trkpt lat="42.379684" lon="-7.7169504">
        <time>2021-11-27T11:04:53Z</time>
      </trkpt>
      <trkpt lat="42.379696" lon="-7.7169423">
        <time>2021-11-27T11:04:54Z</time>
      </trkpt>
      <trkpt lat="42.379707" lon="-7.7169337">
        <time>2021-11-27T11:04:55Z</time>
      </trkpt>
      <trkpt lat="42.37972" lon="-7.716926">
        <time>2021-11-27T11:04:56Z</time>
      </trkpt>
      <trkpt lat="42.37973" lon="-7.716919">
        <time>2021-11-27T11:04:57Z</time>
      </trkpt>
      <trkpt lat="42.37974" lon="-7.716912">
        <time>2021-11-27T11:04:58Z</time>
      </trkpt>
      <trkpt lat="42.379757" lon="-7.7169056">
        <time>2021-11-27T11:04:59Z</time>
      </trkpt>
      <trkpt lat="42.379772" lon="-7.7169">
        <time>2021-11-27T11:05:00Z</time>
      </trkpt>
      <trkpt lat="42.37978" lon="-7.7168956">
        <time>2021-11-27T11:05:01Z</time>
      </trkpt>
      <trkpt lat="42.379787" lon="-7.7168922">
        <time>2021-11-27T11:05:02Z</time>
      </trkpt>
      <trkpt lat="42.379795" lon="-7.7168884">
        <time>2021-11-27T11:05:03Z</time>
      </trkpt>
      <trkpt lat="42.3798" lon="-7.716883">
        <time>2021-11-27T11:05:04Z</time>
      </trkpt>
      <trkpt lat="42.379807" lon="-7.716877">
        <time>2021-11-27T11:05:05Z</time>
      </trkpt>
      <trkpt lat="42.379814" lon="-7.7168703">
        <time>2021-11-27T11:05:06Z</time>
      </trkpt>
      <trkpt lat="42.379826" lon="-7.7168627">
        <time>2021-11-27T11:05:07Z</time>
      </trkpt>
      <trkpt lat="42.379837" lon="-7.7168555">
        <time>2021-11-27T11:05:08Z</time>
      </trkpt>
      <trkpt lat="42.37985" lon="-7.7168493">
        <time>2021-11-27T11:05:09Z</time>
      </trkpt>
      <trkpt lat="42.379856" lon="-7.7168427">
        <time>2021-11-27T11:05:10Z</time>
      </trkpt>
      <trkpt lat="42.379868" lon="-7.716838">
        <time>2021-11-27T11:05:11Z</time>
      </trkpt>
      <trkpt lat="42.37988" lon="-7.7168326">
        <time>2021-11-27T11:05:12Z</time>
      </trkpt>
      <trkpt lat="42.379887" lon="-7.7168283">
        <time>2021-11-27T11:05:13Z</time>
      </trkpt>
      <trkpt lat="42.379894" lon="-7.7168217">
        <time>2021-11-27T11:05:14Z</time>
      </trkpt>
      <trkpt lat="42.3799" lon="-7.7168145">
        <time>2021-11-27T11:05:15Z</time>
      </trkpt>
      <trkpt lat="42.379906" lon="-7.7168083">
        <time>2021-11-27T11:05:16Z</time>
      </trkpt>
      <trkpt lat="42.379913" lon="-7.7168">
        <time>2021-11-27T11:05:17Z</time>
      </trkpt>
      <trkpt lat="42.37993" lon="-7.716788">
        <time>2021-11-27T11:05:18Z</time>
      </trkpt>
      <trkpt lat="42.379936" lon="-7.716776">
        <time>2021-11-27T11:05:19Z</time>
      </trkpt>
      <trkpt lat="42.379948" lon="-7.716767">
        <time>2021-11-27T11:05:20Z</time>
      </trkpt>
      <trkpt lat="42.37996" lon="-7.7167583">
        <time>2021-11-27T11:05:21Z</time>
      </trkpt>
      <trkpt lat="42.37997" lon="-7.716748">
        <time>2021-11-27T11:05:22Z</time>
      </trkpt>
      <trkpt lat="42.379982" lon="-7.7167387">
        <time>2021-11-27T11:05:23Z</time>
      </trkpt>
      <trkpt lat="42.379993" lon="-7.71673">
        <time>2021-11-27T11:05:24Z</time>
      </trkpt>
      <trkpt lat="42.380005" lon="-7.7167244">
        <time>2021-11-27T11:05:25Z</time>
      </trkpt>
      <trkpt lat="42.38002" lon="-7.716719">
        <time>2021-11-27T11:05:26Z</time>
      </trkpt>
      <trkpt lat="42.380035" lon="-7.7167144">
        <time>2021-11-27T11:05:27Z</time>
      </trkpt>
      <trkpt lat="42.38005" lon="-7.716709">
        <time>2021-11-27T11:05:28Z</time>
      </trkpt>
      <trkpt lat="42.380074" lon="-7.716706">
        <time>2021-11-27T11:05:29Z</time>
      </trkpt>
      <trkpt lat="42.380093" lon="-7.716702">
        <time>2021-11-27T11:05:30Z</time>
      </trkpt>
      <trkpt lat="42.380108" lon="-7.7167">
        <time>2021-11-27T11:05:31Z</time>
      </trkpt>
      <trkpt lat="42.380123" lon="-7.7166977">
        <time>2021-11-27T11:05:32Z</time>
      </trkpt>
      <trkpt lat="42.38013" lon="-7.716694">
        <time>2021-11-27T11:05:33Z</time>
      </trkpt>
      <trkpt lat="42.380142" lon="-7.7166905">
        <time>2021-11-27T11:05:34Z</time>
      </trkpt>
      <trkpt lat="42.380154" lon="-7.7166862">
        <time>2021-11-27T11:05:35Z</time>
      </trkpt>
      <trkpt lat="42.38016" lon="-7.7166805">
        <time>2021-11-27T11:05:36Z</time>
      </trkpt>
      <trkpt lat="42.380173" lon="-7.716674">
        <time>2021-11-27T11:05:37Z</time>
      </trkpt>
      <trkpt lat="42.380184" lon="-7.7166657">
        <time>2021-11-27T11:05:38Z</time>
      </trkpt>
      <trkpt lat="42.380196" lon="-7.7166567">
        <time>2021-11-27T11:05:39Z</time>
      </trkpt>
      <trkpt lat="42.3802" lon="-7.7166495">
        <time>2021-11-27T11:05:40Z</time>
      </trkpt>
      <trkpt lat="42.380207" lon="-7.7166452">
        <time>2021-11-27T11:05:41Z</time>
      </trkpt>
      <trkpt lat="42.380215" lon="-7.7166424">
        <time>2021-11-27T11:05:42Z</time>
      </trkpt>
      <trkpt lat="42.380222" lon="-7.7166386">
        <time>2021-11-27T11:05:43Z</time>
      </trkpt>
      <trkpt lat="42.38023" lon="-7.7166348">
        <time>2021-11-27T11:05:44Z</time>
      </trkpt>
      <trkpt lat="42.380234" lon="-7.716632">
        <time>2021-11-27T11:05:45Z</time>
      </trkpt>
      <trkpt lat="42.380245" lon="-7.716627">
        <time>2021-11-27T11:05:46Z</time>
      </trkpt>
      <trkpt lat="42.380257" lon="-7.7166233">
        <time>2021-11-27T11:05:47Z</time>
      </trkpt>
      <trkpt lat="42.380272" lon="-7.7166176">
        <time>2021-11-27T11:05:48Z</time>
      </trkpt>
      <trkpt lat="42.38029" lon="-7.716614">
        <time>2021-11-27T11:05:49Z</time>
      </trkpt>
      <trkpt lat="42.380306" lon="-7.71661">
        <time>2021-11-27T11:05:50Z</time>
      </trkpt>
      <trkpt lat="42.380318" lon="-7.7166047">
        <time>2021-11-27T11:05:51Z</time>
      </trkpt>
      <trkpt lat="42.380333" lon="-7.7165995">
        <time>2021-11-27T11:05:52Z</time>
      </trkpt>
      <trkpt lat="42.38034" lon="-7.7165947">
        <time>2021-11-27T11:05:53Z</time>
      </trkpt>
      <trkpt lat="42.38035" lon="-7.7165914">
        <time>2021-11-27T11:05:54Z</time>
      </trkpt>
      <trkpt lat="42.380352" lon="-7.716589">
        <time>2021-11-27T11:05:55Z</time>
      </trkpt>
      <trkpt lat="42.38036" lon="-7.716587">
        <time>2021-11-27T11:05:56Z</time>
      </trkpt>
      <trkpt lat="42.380363" lon="-7.716585">
        <time>2021-11-27T11:05:57Z</time>
      </trkpt>
      <trkpt lat="42.38037" lon="-7.7165823">
        <time>2021-11-27T11:05:58Z</time>
      </trkpt>
      <trkpt lat="42.38038" lon="-7.7165794">
        <time>2021-11-27T11:05:59Z</time>
      </trkpt>
      <trkpt lat="42.380386" lon="-7.716575">
        <time>2021-11-27T11:06:00Z</time>
      </trkpt>
      <trkpt lat="42.380394" lon="-7.7165713">
        <time>2021-11-27T11:06:01Z</time>
      </trkpt>
      <trkpt lat="42.38041" lon="-7.7165685">
        <time>2021-11-27T11:06:02Z</time>
      </trkpt>
      <trkpt lat="42.38043" lon="-7.716565">
        <time>2021-11-27T11:06:03Z</time>
      </trkpt>
      <trkpt lat="42.38045" lon="-7.7165594">
        <time>2021-11-27T11:06:04Z</time>
      </trkpt>
      <trkpt lat="42.380474" lon="-7.716552">
        <time>2021-11-27T11:06:05Z</time>
      </trkpt>
      <trkpt lat="42.380493" lon="-7.716544">
        <time>2021-11-27T11:06:06Z</time>
      </trkpt>
      <trkpt lat="42.38051" lon="-7.716535">
        <time>2021-11-27T11:06:07Z</time>
      </trkpt>
      <trkpt lat="42.380524" lon="-7.7165275">
        <time>2021-11-27T11:06:08Z</time>
      </trkpt>
      <trkpt lat="42.38054" lon="-7.7165203">
        <time>2021-11-27T11:06:09Z</time>
      </trkpt>
      <trkpt lat="42.38055" lon="-7.716513">
        <time>2021-11-27T11:06:10Z</time>
      </trkpt>
      <trkpt lat="42.380566" lon="-7.716505">
        <time>2021-11-27T11:06:11Z</time>
      </trkpt>
      <trkpt lat="42.38058" lon="-7.7164974">
        <time>2021-11-27T11:06:12Z</time>
      </trkpt>
      <trkpt lat="42.380596" lon="-7.7164903">
        <time>2021-11-27T11:06:13Z</time>
      </trkpt>
      <trkpt lat="42.380608" lon="-7.7164807">
        <time>2021-11-27T11:06:14Z</time>
      </trkpt>
      <trkpt lat="42.380623" lon="-7.7164717">
        <time>2021-11-27T11:06:15Z</time>
      </trkpt>
      <trkpt lat="42.380634" lon="-7.716464">
        <time>2021-11-27T11:06:16Z</time>
      </trkpt>
      <trkpt lat="42.380653" lon="-7.716457">
        <time>2021-11-27T11:06:17Z</time>
      </trkpt>
      <trkpt lat="42.38067" lon="-7.7164497">
        <time>2021-11-27T11:06:18Z</time>
      </trkpt>
      <trkpt lat="42.38069" lon="-7.716443">
        <time>2021-11-27T11:06:19Z</time>
      </trkpt>
      <trkpt lat="42.380707" lon="-7.7164345">
        <time>2021-11-27T11:06:20Z</time>
      </trkpt>
      <trkpt lat="42.38072" lon="-7.7164264">
        <time>2021-11-27T11:06:21Z</time>
      </trkpt>
      <trkpt lat="42.380737" lon="-7.7164187">
        <time>2021-11-27T11:06:22Z</time>
      </trkpt>
      <trkpt lat="42.380753" lon="-7.716411">
        <time>2021-11-27T11:06:23Z</time>
      </trkpt>
      <trkpt lat="42.380764" lon="-7.7164025">
        <time>2021-11-27T11:06:24Z</time>
      </trkpt>
      <trkpt lat="42.380775" lon="-7.7163906">
        <time>2021-11-27T11:06:25Z</time>
      </trkpt>
      <trkpt lat="42.38079" lon="-7.71638">
        <time>2021-11-27T11:06:26Z</time>
      </trkpt>
      <trkpt lat="42.380802" lon="-7.7163644">
        <time>2021-11-27T11:06:27Z</time>
      </trkpt>
      <trkpt lat="42.380814" lon="-7.7163506">
        <time>2021-11-27T11:06:28Z</time>
      </trkpt>
      <trkpt lat="42.38082" lon="-7.7163334">
        <time>2021-11-27T11:06:29Z</time>
      </trkpt>
      <trkpt lat="42.38083" lon="-7.7163167">
        <time>2021-11-27T11:06:30Z</time>
      </trkpt>
      <trkpt lat="42.380844" lon="-7.716301">
        <time>2021-11-27T11:06:31Z</time>
      </trkpt>
      <trkpt lat="42.380856" lon="-7.7162848">
        <time>2021-11-27T11:06:32Z</time>
      </trkpt>
      <trkpt lat="42.380867" lon="-7.716272">
        <time>2021-11-27T11:06:33Z</time>
      </trkpt>
      <trkpt lat="42.380875" lon="-7.716262">
        <time>2021-11-27T11:06:34Z</time>
      </trkpt>
      <trkpt lat="42.38088" lon="-7.7162523">
        <time>2021-11-27T11:06:35Z</time>
      </trkpt>
      <trkpt lat="42.380882" lon="-7.7162414">
        <time>2021-11-27T11:06:36Z</time>
      </trkpt>
      <trkpt lat="42.380882" lon="-7.716228">
        <time>2021-11-27T11:06:37Z</time>
      </trkpt>
      <trkpt lat="42.38088" lon="-7.716213">
        <time>2021-11-27T11:06:38Z</time>
      </trkpt>
      <trkpt lat="42.38088" lon="-7.716197">
        <time>2021-11-27T11:06:39Z</time>
      </trkpt>
      <trkpt lat="42.38087" lon="-7.7161803">
        <time>2021-11-27T11:06:40Z</time>
      </trkpt>
      <trkpt lat="42.380863" lon="-7.7161646">
        <time>2021-11-27T11:06:41Z</time>
      </trkpt>
      <trkpt lat="42.380856" lon="-7.7161503">
        <time>2021-11-27T11:06:42Z</time>
      </trkpt>
      <trkpt lat="42.380844" lon="-7.7161365">
        <time>2021-11-27T11:06:43Z</time>
      </trkpt>
      <trkpt lat="42.38083" lon="-7.716122">
        <time>2021-11-27T11:06:44Z</time>
      </trkpt>
      <trkpt lat="42.38082" lon="-7.716112">
        <time>2021-11-27T11:06:45Z</time>
      </trkpt>
      <trkpt lat="42.380817" lon="-7.7161026">
        <time>2021-11-27T11:06:46Z</time>
      </trkpt>
      <trkpt lat="42.380817" lon="-7.71609">
        <time>2021-11-27T11:06:47Z</time>
      </trkpt>
      <trkpt lat="42.380817" lon="-7.7160773">
        <time>2021-11-27T11:06:48Z</time>
      </trkpt>
      <trkpt lat="42.380817" lon="-7.7160664">
        <time>2021-11-27T11:06:49Z</time>
      </trkpt>
      <trkpt lat="42.38082" lon="-7.7160525">
        <time>2021-11-27T11:06:50Z</time>
      </trkpt>
      <trkpt lat="42.38083" lon="-7.7160373">
        <time>2021-11-27T11:06:51Z</time>
      </trkpt>
      <trkpt lat="42.380836" lon="-7.716019">
        <time>2021-11-27T11:06:52Z</time>
      </trkpt>
      <trkpt lat="42.38084" lon="-7.7160006">
        <time>2021-11-27T11:06:53Z</time>
      </trkpt>
      <trkpt lat="42.380848" lon="-7.71598">
        <time>2021-11-27T11:06:54Z</time>
      </trkpt>
      <trkpt lat="42.38086" lon="-7.7159605">
        <time>2021-11-27T11:06:55Z</time>
      </trkpt>
      <trkpt lat="42.38087" lon="-7.7159405">
        <time>2021-11-27T11:06:56Z</time>
      </trkpt>
      <trkpt lat="42.38088" lon="-7.7159233">
        <time>2021-11-27T11:06:57Z</time>
      </trkpt>
      <trkpt lat="42.380886" lon="-7.71591">
        <time>2021-11-27T11:06:58Z</time>
      </trkpt>
      <trkpt lat="42.380894" lon="-7.715895">
        <time>2021-11-27T11:06:59Z</time>
      </trkpt>
      <trkpt lat="42.3809" lon="-7.71588">
        <time>2021-11-27T11:07:00Z</time>
      </trkpt>
      <trkpt lat="42.38091" lon="-7.7158637">
        <time>2021-11-27T11:07:01Z</time>
      </trkpt>
      <trkpt lat="42.380917" lon="-7.7158475">
        <time>2021-11-27T11:07:02Z</time>
      </trkpt>
      <trkpt lat="42.380928" lon="-7.715833">
        <time>2021-11-27T11:07:03Z</time>
      </trkpt>
      <trkpt lat="42.380936" lon="-7.715817">
        <time>2021-11-27T11:07:04Z</time>
      </trkpt>
      <trkpt lat="42.38094" lon="-7.7158003">
        <time>2021-11-27T11:07:05Z</time>
      </trkpt>
      <trkpt lat="42.38094" lon="-7.715782">
        <time>2021-11-27T11:07:06Z</time>
      </trkpt>
      <trkpt lat="42.380936" lon="-7.7157645">
        <time>2021-11-27T11:07:07Z</time>
      </trkpt>
      <trkpt lat="42.38093" lon="-7.7157464">
        <time>2021-11-27T11:07:08Z</time>
      </trkpt>
      <trkpt lat="42.380928" lon="-7.7157316">
        <time>2021-11-27T11:07:09Z</time>
      </trkpt>
      <trkpt lat="42.380928" lon="-7.715716">
        <time>2021-11-27T11:07:10Z</time>
      </trkpt>
      <trkpt lat="42.38093" lon="-7.715699">
        <time>2021-11-27T11:07:11Z</time>
      </trkpt>
      <trkpt lat="42.380936" lon="-7.7156825">
        <time>2021-11-27T11:07:12Z</time>
      </trkpt>
      <trkpt lat="42.38094" lon="-7.7156677">
        <time>2021-11-27T11:07:13Z</time>
      </trkpt>
      <trkpt lat="42.380947" lon="-7.715649">
        <time>2021-11-27T11:07:14Z</time>
      </trkpt>
      <trkpt lat="42.38095" lon="-7.7156286">
        <time>2021-11-27T11:07:15Z</time>
      </trkpt>
      <trkpt lat="42.38095" lon="-7.7156057">
        <time>2021-11-27T11:07:16Z</time>
      </trkpt>
      <trkpt lat="42.380947" lon="-7.7155848">
        <time>2021-11-27T11:07:17Z</time>
      </trkpt>
      <trkpt lat="42.380947" lon="-7.7155647">
        <time>2021-11-27T11:07:18Z</time>
      </trkpt>
      <trkpt lat="42.38094" lon="-7.715545">
        <time>2021-11-27T11:07:19Z</time>
      </trkpt>
      <trkpt lat="42.38094" lon="-7.715527">
        <time>2021-11-27T11:07:20Z</time>
      </trkpt>
      <trkpt lat="42.38094" lon="-7.7155123">
        <time>2021-11-27T11:07:21Z</time>
      </trkpt>
      <trkpt lat="42.380943" lon="-7.7154975">
        <time>2021-11-27T11:07:22Z</time>
      </trkpt>
      <trkpt lat="42.380943" lon="-7.7154818">
        <time>2021-11-27T11:07:23Z</time>
      </trkpt>
      <trkpt lat="42.38094" lon="-7.715467">
        <time>2021-11-27T11:07:24Z</time>
      </trkpt>
      <trkpt lat="42.38094" lon="-7.7154527">
        <time>2021-11-27T11:07:25Z</time>
      </trkpt>
      <trkpt lat="42.38093" lon="-7.715437">
        <time>2021-11-27T11:07:26Z</time>
      </trkpt>
      <trkpt lat="42.38093" lon="-7.7154183">
        <time>2021-11-27T11:07:27Z</time>
      </trkpt>
      <trkpt lat="42.38093" lon="-7.7153997">
        <time>2021-11-27T11:07:28Z</time>
      </trkpt>
      <trkpt lat="42.38093" lon="-7.7153807">
        <time>2021-11-27T11:07:29Z</time>
      </trkpt>
      <trkpt lat="42.380936" lon="-7.71536">
        <time>2021-11-27T11:07:30Z</time>
      </trkpt>
      <trkpt lat="42.38094" lon="-7.71534">
        <time>2021-11-27T11:07:31Z</time>
      </trkpt>
      <trkpt lat="42.38094" lon="-7.715322">
        <time>2021-11-27T11:07:32Z</time>
      </trkpt>
      <trkpt lat="42.38094" lon="-7.7153025">
        <time>2021-11-27T11:07:34Z</time>
      </trkpt>
      <trkpt lat="42.38094" lon="-7.7152843">
        <time>2021-11-27T11:07:34Z</time>
      </trkpt>
      <trkpt lat="42.380943" lon="-7.7152677">
        <time>2021-11-27T11:07:35Z</time>
      </trkpt>
      <trkpt lat="42.380943" lon="-7.715247">
        <time>2021-11-27T11:07:36Z</time>
      </trkpt>
      <trkpt lat="42.380943" lon="-7.7152257">
        <time>2021-11-27T11:07:37Z</time>
      </trkpt>
      <trkpt lat="42.38094" lon="-7.715204">
        <time>2021-11-27T11:07:38Z</time>
      </trkpt>
      <trkpt lat="42.38093" lon="-7.7151833">
        <time>2021-11-27T11:07:39Z</time>
      </trkpt>
      <trkpt lat="42.380924" lon="-7.715164">
        <time>2021-11-27T11:07:40Z</time>
      </trkpt>
      <trkpt lat="42.38092" lon="-7.715145">
        <time>2021-11-27T11:07:41Z</time>
      </trkpt>
      <trkpt lat="42.380917" lon="-7.7151246">
        <time>2021-11-27T11:07:42Z</time>
      </trkpt>
      <trkpt lat="42.380917" lon="-7.715107">
        <time>2021-11-27T11:07:43Z</time>
      </trkpt>
      <trkpt lat="42.380913" lon="-7.7150908">
        <time>2021-11-27T11:07:44Z</time>
      </trkpt>
      <trkpt lat="42.38091" lon="-7.7150745">
        <time>2021-11-27T11:07:45Z</time>
      </trkpt>
      <trkpt lat="42.380905" lon="-7.715058">
        <time>2021-11-27T11:07:46Z</time>
      </trkpt>
      <trkpt lat="42.3809" lon="-7.715041">
        <time>2021-11-27T11:07:47Z</time>
      </trkpt>
      <trkpt lat="42.380905" lon="-7.7150254">
        <time>2021-11-27T11:07:48Z</time>
      </trkpt>
      <trkpt lat="42.38091" lon="-7.7150097">
        <time>2021-11-27T11:07:49Z</time>
      </trkpt>
      <trkpt lat="42.380913" lon="-7.714994">
        <time>2021-11-27T11:07:50Z</time>
      </trkpt>
      <trkpt lat="42.38092" lon="-7.7149773">
        <time>2021-11-27T11:07:51Z</time>
      </trkpt>
      <trkpt lat="42.38093" lon="-7.714961">
        <time>2021-11-27T11:07:52Z</time>
      </trkpt>
      <trkpt lat="42.38094" lon="-7.714942">
        <time>2021-11-27T11:07:53Z</time>
      </trkpt>
      <trkpt lat="42.380955" lon="-7.7149234">
        <time>2021-11-27T11:07:54Z</time>
      </trkpt>
      <trkpt lat="42.380962" lon="-7.714905">
        <time>2021-11-27T11:07:55Z</time>
      </trkpt>
      <trkpt lat="42.38097" lon="-7.714887">
        <time>2021-11-27T11:07:56Z</time>
      </trkpt>
      <trkpt lat="42.380978" lon="-7.71487">
        <time>2021-11-27T11:07:57Z</time>
      </trkpt>
      <trkpt lat="42.38098" lon="-7.714855">
        <time>2021-11-27T11:07:58Z</time>
      </trkpt>
      <trkpt lat="42.380985" lon="-7.7148414">
        <time>2021-11-27T11:07:59Z</time>
      </trkpt>
      <trkpt lat="42.380993" lon="-7.7148275">
        <time>2021-11-27T11:08:00Z</time>
      </trkpt>
      <trkpt lat="42.380993" lon="-7.7148128">
        <time>2021-11-27T11:08:00Z</time>
      </trkpt>
      <trkpt lat="42.380997" lon="-7.714794">
        <time>2021-11-27T11:08:01Z</time>
      </trkpt>
      <trkpt lat="42.380993" lon="-7.714775">
        <time>2021-11-27T11:08:02Z</time>
      </trkpt>
      <trkpt lat="42.380993" lon="-7.714758">
        <time>2021-11-27T11:08:03Z</time>
      </trkpt>
      <trkpt lat="42.38099" lon="-7.7147417">
        <time>2021-11-27T11:08:04Z</time>
      </trkpt>
      <trkpt lat="42.38099" lon="-7.714725">
        <time>2021-11-27T11:08:05Z</time>
      </trkpt>
      <trkpt lat="42.380993" lon="-7.7147083">
        <time>2021-11-27T11:08:06Z</time>
      </trkpt>
      <trkpt lat="42.380997" lon="-7.714689">
        <time>2021-11-27T11:08:07Z</time>
      </trkpt>
      <trkpt lat="42.381004" lon="-7.714672">
        <time>2021-11-27T11:08:08Z</time>
      </trkpt>
      <trkpt lat="42.38101" lon="-7.7146573">
        <time>2021-11-27T11:08:09Z</time>
      </trkpt>
      <trkpt lat="42.381012" lon="-7.7146425">
        <time>2021-11-27T11:08:10Z</time>
      </trkpt>
      <trkpt lat="42.381012" lon="-7.714629">
        <time>2021-11-27T11:08:11Z</time>
      </trkpt>
      <trkpt lat="42.381016" lon="-7.714613">
        <time>2021-11-27T11:08:12Z</time>
      </trkpt>
      <trkpt lat="42.381016" lon="-7.714596">
        <time>2021-11-27T11:08:13Z</time>
      </trkpt>
      <trkpt lat="42.381016" lon="-7.71458">
        <time>2021-11-27T11:08:14Z</time>
      </trkpt>
      <trkpt lat="42.381016" lon="-7.7145658">
        <time>2021-11-27T11:08:15Z</time>
      </trkpt>
      <trkpt lat="42.381016" lon="-7.714553">
        <time>2021-11-27T11:08:16Z</time>
      </trkpt>
      <trkpt lat="42.381016" lon="-7.714541">
        <time>2021-11-27T11:08:17Z</time>
      </trkpt>
      <trkpt lat="42.381023" lon="-7.7145286">
        <time>2021-11-27T11:08:18Z</time>
      </trkpt>
      <trkpt lat="42.381027" lon="-7.7145195">
        <time>2021-11-27T11:08:19Z</time>
      </trkpt>
      <trkpt lat="42.381035" lon="-7.714506">
        <time>2021-11-27T11:08:20Z</time>
      </trkpt>
      <trkpt lat="42.381042" lon="-7.7144895">
        <time>2021-11-27T11:08:21Z</time>
      </trkpt>
      <trkpt lat="42.38105" lon="-7.714473">
        <time>2021-11-27T11:08:22Z</time>
      </trkpt>
      <trkpt lat="42.381058" lon="-7.7144556">
        <time>2021-11-27T11:08:23Z</time>
      </trkpt>
      <trkpt lat="42.381058" lon="-7.714437">
        <time>2021-11-27T11:08:24Z</time>
      </trkpt>
      <trkpt lat="42.381058" lon="-7.7144237">
        <time>2021-11-27T11:08:25Z</time>
      </trkpt>
      <trkpt lat="42.381058" lon="-7.714414">
        <time>2021-11-27T11:08:26Z</time>
      </trkpt>
      <trkpt lat="42.381065" lon="-7.7144055">
        <time>2021-11-27T11:08:27Z</time>
      </trkpt>
      <trkpt lat="42.381077" lon="-7.7143993">
        <time>2021-11-27T11:08:28Z</time>
      </trkpt>
      <trkpt lat="42.38109" lon="-7.714395">
        <time>2021-11-27T11:08:29Z</time>
      </trkpt>
      <trkpt lat="42.3811" lon="-7.7143903">
        <time>2021-11-27T11:08:30Z</time>
      </trkpt>
      <trkpt lat="42.381115" lon="-7.7143865">
        <time>2021-11-27T11:08:31Z</time>
      </trkpt>
      <trkpt lat="42.38113" lon="-7.714381">
        <time>2021-11-27T11:08:32Z</time>
      </trkpt>
      <trkpt lat="42.381145" lon="-7.7143745">
        <time>2021-11-27T11:08:33Z</time>
      </trkpt>
      <trkpt lat="42.381165" lon="-7.7143655">
        <time>2021-11-27T11:08:34Z</time>
      </trkpt>
      <trkpt lat="42.38118" lon="-7.714355">
        <time>2021-11-27T11:08:35Z</time>
      </trkpt>
      <trkpt lat="42.381195" lon="-7.714343">
        <time>2021-11-27T11:08:36Z</time>
      </trkpt>
      <trkpt lat="42.381207" lon="-7.7143297">
        <time>2021-11-27T11:08:37Z</time>
      </trkpt>
      <trkpt lat="42.381214" lon="-7.7143164">
        <time>2021-11-27T11:08:38Z</time>
      </trkpt>
      <trkpt lat="42.381218" lon="-7.714302">
        <time>2021-11-27T11:08:39Z</time>
      </trkpt>
      <trkpt lat="42.38122" lon="-7.714287">
        <time>2021-11-27T11:08:40Z</time>
      </trkpt>
      <trkpt lat="42.381226" lon="-7.7142735">
        <time>2021-11-27T11:08:41Z</time>
      </trkpt>
      <trkpt lat="42.38123" lon="-7.7142596">
        <time>2021-11-27T11:08:42Z</time>
      </trkpt>
      <trkpt lat="42.381233" lon="-7.714249">
        <time>2021-11-27T11:08:43Z</time>
      </trkpt>
      <trkpt lat="42.381237" lon="-7.7142415">
        <time>2021-11-27T11:08:44Z</time>
      </trkpt>
      <trkpt lat="42.38124" lon="-7.7142353">
        <time>2021-11-27T11:08:45Z</time>
      </trkpt>
      <trkpt lat="42.38125" lon="-7.7142305">
        <time>2021-11-27T11:08:46Z</time>
      </trkpt>
      <trkpt lat="42.381256" lon="-7.7142234">
        <time>2021-11-27T11:08:47Z</time>
      </trkpt>
      <trkpt lat="42.38126" lon="-7.714216">
        <time>2021-11-27T11:08:48Z</time>
      </trkpt>
      <trkpt lat="42.381268" lon="-7.714211">
        <time>2021-11-27T11:08:49Z</time>
      </trkpt>
      <trkpt lat="42.381275" lon="-7.714208">
        <time>2021-11-27T11:08:50Z</time>
      </trkpt>
      <trkpt lat="42.381283" lon="-7.714203">
        <time>2021-11-27T11:08:51Z</time>
      </trkpt>
      <trkpt lat="42.381283" lon="-7.7141953">
        <time>2021-11-27T11:08:52Z</time>
      </trkpt>
      <trkpt lat="42.38129" lon="-7.7141848">
        <time>2021-11-27T11:08:53Z</time>
      </trkpt>
      <trkpt lat="42.38129" lon="-7.7141733">
        <time>2021-11-27T11:08:54Z</time>
      </trkpt>
      <trkpt lat="42.381298" lon="-7.7141633">
        <time>2021-11-27T11:08:55Z</time>
      </trkpt>
      <trkpt lat="42.3813" lon="-7.714158">
        <time>2021-11-27T11:08:56Z</time>
      </trkpt>
      <trkpt lat="42.38131" lon="-7.714156">
        <time>2021-11-27T11:08:57Z</time>
      </trkpt>
      <trkpt lat="42.381317" lon="-7.7141557">
        <time>2021-11-27T11:08:58Z</time>
      </trkpt>
      <trkpt lat="42.38132" lon="-7.7141576">
        <time>2021-11-27T11:08:59Z</time>
      </trkpt>
      <trkpt lat="42.381325" lon="-7.7141614">
        <time>2021-11-27T11:09:00Z</time>
      </trkpt>
      <trkpt lat="42.38133" lon="-7.7141623">
        <time>2021-11-27T11:09:01Z</time>
      </trkpt>
      <trkpt lat="42.381336" lon="-7.714162">
        <time>2021-11-27T11:09:02Z</time>
      </trkpt>
      <trkpt lat="42.381348" lon="-7.7141604">
        <time>2021-11-27T11:09:03Z</time>
      </trkpt>
      <trkpt lat="42.38136" lon="-7.7141595">
        <time>2021-11-27T11:09:04Z</time>
      </trkpt>
      <trkpt lat="42.381367" lon="-7.7141576">
        <time>2021-11-27T11:09:05Z</time>
      </trkpt>
      <trkpt lat="42.381374" lon="-7.7141557">
        <time>2021-11-27T11:09:06Z</time>
      </trkpt>
      <trkpt lat="42.381382" lon="-7.714154">
        <time>2021-11-27T11:09:07Z</time>
      </trkpt>
      <trkpt lat="42.38139" lon="-7.7141523">
        <time>2021-11-27T11:09:08Z</time>
      </trkpt>
      <trkpt lat="42.381393" lon="-7.7141504">
        <time>2021-11-27T11:09:09Z</time>
      </trkpt>
      <trkpt lat="42.3814" lon="-7.7141466">
        <time>2021-11-27T11:09:10Z</time>
      </trkpt>
      <trkpt lat="42.38141" lon="-7.71414">
        <time>2021-11-27T11:09:11Z</time>
      </trkpt>
      <trkpt lat="42.381416" lon="-7.71413">
        <time>2021-11-27T11:09:12Z</time>
      </trkpt>
      <trkpt lat="42.381424" lon="-7.714121">
        <time>2021-11-27T11:09:13Z</time>
      </trkpt>
      <trkpt lat="42.381428" lon="-7.714113">
        <time>2021-11-27T11:09:14Z</time>
      </trkpt>
      <trkpt lat="42.381435" lon="-7.714106">
        <time>2021-11-27T11:09:15Z</time>
      </trkpt>
      <trkpt lat="42.38144" lon="-7.7141">
        <time>2021-11-27T11:09:16Z</time>
      </trkpt>
      <trkpt lat="42.381447" lon="-7.7140956">
        <time>2021-11-27T11:09:17Z</time>
      </trkpt>
      <trkpt lat="42.38146" lon="-7.714094">
        <time>2021-11-27T11:09:18Z</time>
      </trkpt>
      <trkpt lat="42.381466" lon="-7.714093">
        <time>2021-11-27T11:09:19Z</time>
      </trkpt>
      <trkpt lat="42.381477" lon="-7.7140946">
        <time>2021-11-27T11:09:20Z</time>
      </trkpt>
      <trkpt lat="42.381493" lon="-7.7140946">
        <time>2021-11-27T11:09:21Z</time>
      </trkpt>
      <trkpt lat="42.381504" lon="-7.714094">
        <time>2021-11-27T11:09:22Z</time>
      </trkpt>
      <trkpt lat="42.38152" lon="-7.7140956">
        <time>2021-11-27T11:09:23Z</time>
      </trkpt>
      <trkpt lat="42.38153" lon="-7.7140946">
        <time>2021-11-27T11:09:24Z</time>
      </trkpt>
      <trkpt lat="42.381546" lon="-7.7140913">
        <time>2021-11-27T11:09:25Z</time>
      </trkpt>
      <trkpt lat="42.381554" lon="-7.714089">
        <time>2021-11-27T11:09:26Z</time>
      </trkpt>
      <trkpt lat="42.38156" lon="-7.714087">
        <time>2021-11-27T11:09:27Z</time>
      </trkpt>
      <trkpt lat="42.381573" lon="-7.7140856">
        <time>2021-11-27T11:09:28Z</time>
      </trkpt>
      <trkpt lat="42.381584" lon="-7.7140865">
        <time>2021-11-27T11:09:29Z</time>
      </trkpt>
      <trkpt lat="42.381596" lon="-7.714089">
        <time>2021-11-27T11:09:30Z</time>
      </trkpt>
      <trkpt lat="42.381607" lon="-7.7140923">
        <time>2021-11-27T11:09:31Z</time>
      </trkpt>
      <trkpt lat="42.38162" lon="-7.7140965">
        <time>2021-11-27T11:09:33Z</time>
      </trkpt>
      <trkpt lat="42.381634" lon="-7.714102">
        <time>2021-11-27T11:09:33Z</time>
      </trkpt>
      <trkpt lat="42.381645" lon="-7.714107">
        <time>2021-11-27T11:09:34Z</time>
      </trkpt>
      <trkpt lat="42.381653" lon="-7.714112">
        <time>2021-11-27T11:09:35Z</time>
      </trkpt>
      <trkpt lat="42.381664" lon="-7.714117">
        <time>2021-11-27T11:09:36Z</time>
      </trkpt>
      <trkpt lat="42.38167" lon="-7.714124">
        <time>2021-11-27T11:09:37Z</time>
      </trkpt>
      <trkpt lat="42.38168" lon="-7.7141304">
        <time>2021-11-27T11:09:38Z</time>
      </trkpt>
      <trkpt lat="42.381683" lon="-7.714135">
        <time>2021-11-27T11:09:39Z</time>
      </trkpt>
      <trkpt lat="42.381687" lon="-7.714139">
        <time>2021-11-27T11:09:40Z</time>
      </trkpt>
      <trkpt lat="42.381683" lon="-7.714142">
        <time>2021-11-27T11:09:41Z</time>
      </trkpt>
      <trkpt lat="42.38168" lon="-7.7141447">
        <time>2021-11-27T11:09:42Z</time>
      </trkpt>
      <trkpt lat="42.381676" lon="-7.714154">
        <time>2021-11-27T11:09:44Z</time>
      </trkpt>
      <trkpt lat="42.38168" lon="-7.7141557">
        <time>2021-11-27T11:09:45Z</time>
      </trkpt>
      <trkpt lat="42.381687" lon="-7.7141595">
        <time>2021-11-27T11:09:46Z</time>
      </trkpt>
      <trkpt lat="42.381695" lon="-7.7141643">
        <time>2021-11-27T11:09:47Z</time>
      </trkpt>
      <trkpt lat="42.38171" lon="-7.7141724">
        <time>2021-11-27T11:09:48Z</time>
      </trkpt>
      <trkpt lat="42.381725" lon="-7.7141824">
        <time>2021-11-27T11:09:49Z</time>
      </trkpt>
      <trkpt lat="42.381733" lon="-7.71419">
        <time>2021-11-27T11:09:50Z</time>
      </trkpt>
      <trkpt lat="42.381744" lon="-7.714197">
        <time>2021-11-27T11:09:51Z</time>
      </trkpt>
      <trkpt lat="42.38176" lon="-7.7142053">
        <time>2021-11-27T11:09:52Z</time>
      </trkpt>
      <trkpt lat="42.38177" lon="-7.714211">
        <time>2021-11-27T11:09:53Z</time>
      </trkpt>
      <trkpt lat="42.381783" lon="-7.7142158">
        <time>2021-11-27T11:09:54Z</time>
      </trkpt>
      <trkpt lat="42.381794" lon="-7.714218">
        <time>2021-11-27T11:09:55Z</time>
      </trkpt>
      <trkpt lat="42.38181" lon="-7.7142215">
        <time>2021-11-27T11:09:56Z</time>
      </trkpt>
      <trkpt lat="42.381824" lon="-7.714224">
        <time>2021-11-27T11:09:57Z</time>
      </trkpt>
      <trkpt lat="42.381844" lon="-7.714226">
        <time>2021-11-27T11:09:58Z</time>
      </trkpt>
      <trkpt lat="42.38186" lon="-7.714227">
        <time>2021-11-27T11:09:59Z</time>
      </trkpt>
      <trkpt lat="42.381874" lon="-7.7142286">
        <time>2021-11-27T11:10:00Z</time>
      </trkpt>
      <trkpt lat="42.381886" lon="-7.7142305">
        <time>2021-11-27T11:10:01Z</time>
      </trkpt>
      <trkpt lat="42.3819" lon="-7.714233">
        <time>2021-11-27T11:10:02Z</time>
      </trkpt>
      <trkpt lat="42.381912" lon="-7.714233">
        <time>2021-11-27T11:10:03Z</time>
      </trkpt>
      <trkpt lat="42.381927" lon="-7.7142315">
        <time>2021-11-27T11:10:04Z</time>
      </trkpt>
      <trkpt lat="42.381935" lon="-7.714229">
        <time>2021-11-27T11:10:05Z</time>
      </trkpt>
      <trkpt lat="42.38195" lon="-7.7142296">
        <time>2021-11-27T11:10:06Z</time>
      </trkpt>
      <trkpt lat="42.381973" lon="-7.7142344">
        <time>2021-11-27T11:10:07Z</time>
      </trkpt>
      <trkpt lat="42.381992" lon="-7.714242">
        <time>2021-11-27T11:10:08Z</time>
      </trkpt>
      <trkpt lat="42.382015" lon="-7.7142515">
        <time>2021-11-27T11:10:09Z</time>
      </trkpt>
      <trkpt lat="42.38203" lon="-7.714263">
        <time>2021-11-27T11:10:10Z</time>
      </trkpt>
      <trkpt lat="42.382046" lon="-7.7142763">
        <time>2021-11-27T11:10:11Z</time>
      </trkpt>
      <trkpt lat="42.382057" lon="-7.714291">
        <time>2021-11-27T11:10:12Z</time>
      </trkpt>
      <trkpt lat="42.382065" lon="-7.714306">
        <time>2021-11-27T11:10:13Z</time>
      </trkpt>
      <trkpt lat="42.382076" lon="-7.71432">
        <time>2021-11-27T11:10:14Z</time>
      </trkpt>
      <trkpt lat="42.382084" lon="-7.714332">
        <time>2021-11-27T11:10:15Z</time>
      </trkpt>
      <trkpt lat="42.382088" lon="-7.7143426">
        <time>2021-11-27T11:10:16Z</time>
      </trkpt>
      <trkpt lat="42.38209" lon="-7.714353">
        <time>2021-11-27T11:10:17Z</time>
      </trkpt>
      <trkpt lat="42.3821" lon="-7.714366">
        <time>2021-11-27T11:10:18Z</time>
      </trkpt>
      <trkpt lat="42.382107" lon="-7.714382">
        <time>2021-11-27T11:10:19Z</time>
      </trkpt>
      <trkpt lat="42.382114" lon="-7.7144">
        <time>2021-11-27T11:10:20Z</time>
      </trkpt>
      <trkpt lat="42.38212" lon="-7.7144175">
        <time>2021-11-27T11:10:21Z</time>
      </trkpt>
      <trkpt lat="42.382122" lon="-7.714432">
        <time>2021-11-27T11:10:22Z</time>
      </trkpt>
      <trkpt lat="42.38213" lon="-7.7144437">
        <time>2021-11-27T11:10:23Z</time>
      </trkpt>
      <trkpt lat="42.382137" lon="-7.714452">
        <time>2021-11-27T11:10:24Z</time>
      </trkpt>
      <trkpt lat="42.38214" lon="-7.714455">
        <time>2021-11-27T11:10:25Z</time>
      </trkpt>
      <trkpt lat="42.382153" lon="-7.7144613">
        <time>2021-11-27T11:10:26Z</time>
      </trkpt>
      <trkpt lat="42.382156" lon="-7.714467">
        <time>2021-11-27T11:10:27Z</time>
      </trkpt>
      <trkpt lat="42.382168" lon="-7.714478">
        <time>2021-11-27T11:10:28Z</time>
      </trkpt>
      <trkpt lat="42.382175" lon="-7.7144914">
        <time>2021-11-27T11:10:29Z</time>
      </trkpt>
      <trkpt lat="42.382183" lon="-7.714507">
        <time>2021-11-27T11:10:30Z</time>
      </trkpt>
      <trkpt lat="42.382187" lon="-7.7145233">
        <time>2021-11-27T11:10:31Z</time>
      </trkpt>
      <trkpt lat="42.382195" lon="-7.7145376">
        <time>2021-11-27T11:10:32Z</time>
      </trkpt>
      <trkpt lat="42.382195" lon="-7.714551">
        <time>2021-11-27T11:10:33Z</time>
      </trkpt>
      <trkpt lat="42.3822" lon="-7.7145643">
        <time>2021-11-27T11:10:34Z</time>
      </trkpt>
      <trkpt lat="42.382202" lon="-7.71458">
        <time>2021-11-27T11:10:35Z</time>
      </trkpt>
      <trkpt lat="42.38221" lon="-7.7145944">
        <time>2021-11-27T11:10:36Z</time>
      </trkpt>
      <trkpt lat="42.382217" lon="-7.7146087">
        <time>2021-11-27T11:10:37Z</time>
      </trkpt>
      <trkpt lat="42.38222" lon="-7.7146206">
        <time>2021-11-27T11:10:38Z</time>
      </trkpt>
      <trkpt lat="42.382225" lon="-7.7146325">
        <time>2021-11-27T11:10:39Z</time>
      </trkpt>
      <trkpt lat="42.38223" lon="-7.714644">
        <time>2021-11-27T11:10:40Z</time>
      </trkpt>
      <trkpt lat="42.382233" lon="-7.714655">
        <time>2021-11-27T11:10:41Z</time>
      </trkpt>
      <trkpt lat="42.382236" lon="-7.7146654">
        <time>2021-11-27T11:10:42Z</time>
      </trkpt>
      <trkpt lat="42.38224" lon="-7.7146745">
        <time>2021-11-27T11:10:43Z</time>
      </trkpt>
      <trkpt lat="42.382244" lon="-7.714682">
        <time>2021-11-27T11:10:44Z</time>
      </trkpt>
      <trkpt lat="42.38225" lon="-7.7146916">
        <time>2021-11-27T11:10:45Z</time>
      </trkpt>
      <trkpt lat="42.382263" lon="-7.714704">
        <time>2021-11-27T11:10:46Z</time>
      </trkpt>
      <trkpt lat="42.38227" lon="-7.714717">
        <time>2021-11-27T11:10:47Z</time>
      </trkpt>
      <trkpt lat="42.382286" lon="-7.714729">
        <time>2021-11-27T11:10:48Z</time>
      </trkpt>
      <trkpt lat="42.382294" lon="-7.7147403">
        <time>2021-11-27T11:10:49Z</time>
      </trkpt>
      <trkpt lat="42.38231" lon="-7.714751">
        <time>2021-11-27T11:10:50Z</time>
      </trkpt>
      <trkpt lat="42.38232" lon="-7.7147603">
        <time>2021-11-27T11:10:51Z</time>
      </trkpt>
      <trkpt lat="42.38233" lon="-7.7147684">
        <time>2021-11-27T11:10:52Z</time>
      </trkpt>
      <trkpt lat="42.382343" lon="-7.714777">
        <time>2021-11-27T11:10:53Z</time>
      </trkpt>
      <trkpt lat="42.382355" lon="-7.714782">
        <time>2021-11-27T11:10:54Z</time>
      </trkpt>
      <trkpt lat="42.382362" lon="-7.714786">
        <time>2021-11-27T11:10:55Z</time>
      </trkpt>
      <trkpt lat="42.38237" lon="-7.714785">
        <time>2021-11-27T11:10:56Z</time>
      </trkpt>
      <trkpt lat="42.382378" lon="-7.7147813">
        <time>2021-11-27T11:10:57Z</time>
      </trkpt>
      <trkpt lat="42.38239" lon="-7.7147746">
        <time>2021-11-27T11:10:58Z</time>
      </trkpt>
      <trkpt lat="42.382397" lon="-7.7147655">
        <time>2021-11-27T11:10:59Z</time>
      </trkpt>
      <trkpt lat="42.38241" lon="-7.7147546">
        <time>2021-11-27T11:11:00Z</time>
      </trkpt>
      <trkpt lat="42.382416" lon="-7.714744">
        <time>2021-11-27T11:11:01Z</time>
      </trkpt>
      <trkpt lat="42.382427" lon="-7.7147374">
        <time>2021-11-27T11:11:02Z</time>
      </trkpt>
      <trkpt lat="42.382435" lon="-7.714732">
        <time>2021-11-27T11:11:03Z</time>
      </trkpt>
      <trkpt lat="42.382442" lon="-7.714729">
        <time>2021-11-27T11:11:04Z</time>
      </trkpt>
      <trkpt lat="42.38245" lon="-7.714725">
        <time>2021-11-27T11:11:05Z</time>
      </trkpt>
      <trkpt lat="42.38246" lon="-7.714722">
        <time>2021-11-27T11:11:06Z</time>
      </trkpt>
      <trkpt lat="42.382473" lon="-7.714719">
        <time>2021-11-27T11:11:07Z</time>
      </trkpt>
      <trkpt lat="42.38249" lon="-7.714717">
        <time>2021-11-27T11:11:08Z</time>
      </trkpt>
      <trkpt lat="42.382504" lon="-7.714712">
        <time>2021-11-27T11:11:09Z</time>
      </trkpt>
      <trkpt lat="42.382523" lon="-7.7147064">
        <time>2021-11-27T11:11:10Z</time>
      </trkpt>
      <trkpt lat="42.38254" lon="-7.7147036">
        <time>2021-11-27T11:11:11Z</time>
      </trkpt>
      <trkpt lat="42.38256" lon="-7.7147036">
        <time>2021-11-27T11:11:12Z</time>
      </trkpt>
      <trkpt lat="42.382572" lon="-7.7147026">
        <time>2021-11-27T11:11:13Z</time>
      </trkpt>
      <trkpt lat="42.382584" lon="-7.7147017">
        <time>2021-11-27T11:11:14Z</time>
      </trkpt>
      <trkpt lat="42.382595" lon="-7.7146997">
        <time>2021-11-27T11:11:15Z</time>
      </trkpt>
      <trkpt lat="42.382607" lon="-7.7146964">
        <time>2021-11-27T11:11:16Z</time>
      </trkpt>
      <trkpt lat="42.382614" lon="-7.7146926">
        <time>2021-11-27T11:11:17Z</time>
      </trkpt>
      <trkpt lat="42.38262" lon="-7.714689">
        <time>2021-11-27T11:11:18Z</time>
      </trkpt>
      <trkpt lat="42.382633" lon="-7.7146835">
        <time>2021-11-27T11:11:19Z</time>
      </trkpt>
      <trkpt lat="42.382645" lon="-7.7146783">
        <time>2021-11-27T11:11:20Z</time>
      </trkpt>
      <trkpt lat="42.382652" lon="-7.714674">
        <time>2021-11-27T11:11:21Z</time>
      </trkpt>
      <trkpt lat="42.382656" lon="-7.714671">
        <time>2021-11-27T11:11:22Z</time>
      </trkpt>
      <trkpt lat="42.38266" lon="-7.7146664">
        <time>2021-11-27T11:11:23Z</time>
      </trkpt>
      <trkpt lat="42.382668" lon="-7.714661">
        <time>2021-11-27T11:11:24Z</time>
      </trkpt>
      <trkpt lat="42.38268" lon="-7.714658">
        <time>2021-11-27T11:11:25Z</time>
      </trkpt>
      <trkpt lat="42.38269" lon="-7.7146554">
        <time>2021-11-27T11:11:26Z</time>
      </trkpt>
      <trkpt lat="42.382698" lon="-7.7146535">
        <time>2021-11-27T11:11:27Z</time>
      </trkpt>
      <trkpt lat="42.38271" lon="-7.7146535">
        <time>2021-11-27T11:11:28Z</time>
      </trkpt>
      <trkpt lat="42.38272" lon="-7.714653">
        <time>2021-11-27T11:11:29Z</time>
      </trkpt>
      <trkpt lat="42.38273" lon="-7.7146516">
        <time>2021-11-27T11:11:30Z</time>
      </trkpt>
      <trkpt lat="42.382732" lon="-7.71465">
        <time>2021-11-27T11:11:31Z</time>
      </trkpt>
      <trkpt lat="42.382744" lon="-7.7146482">
        <time>2021-11-27T11:11:32Z</time>
      </trkpt>
      <trkpt lat="42.38275" lon="-7.7146425">
        <time>2021-11-27T11:11:33Z</time>
      </trkpt>
      <trkpt lat="42.38276" lon="-7.7146354">
        <time>2021-11-27T11:11:34Z</time>
      </trkpt>
      <trkpt lat="42.38277" lon="-7.7146306">
        <time>2021-11-27T11:11:35Z</time>
      </trkpt>
      <trkpt lat="42.382782" lon="-7.714627">
        <time>2021-11-27T11:11:36Z</time>
      </trkpt>
      <trkpt lat="42.382797" lon="-7.714624">
        <time>2021-11-27T11:11:37Z</time>
      </trkpt>
      <trkpt lat="42.382812" lon="-7.7146215">
        <time>2021-11-27T11:11:38Z</time>
      </trkpt>
      <trkpt lat="42.382828" lon="-7.71462">
        <time>2021-11-27T11:11:39Z</time>
      </trkpt>
      <trkpt lat="42.382843" lon="-7.71462">
        <time>2021-11-27T11:11:40Z</time>
      </trkpt>
      <trkpt lat="42.382854" lon="-7.7146196">
        <time>2021-11-27T11:11:41Z</time>
      </trkpt>
      <trkpt lat="42.38287" lon="-7.7146187">
        <time>2021-11-27T11:11:42Z</time>
      </trkpt>
      <trkpt lat="42.382877" lon="-7.7146177">
        <time>2021-11-27T11:11:43Z</time>
      </trkpt>
      <trkpt lat="42.382885" lon="-7.714614">
        <time>2021-11-27T11:11:44Z</time>
      </trkpt>
      <trkpt lat="42.382893" lon="-7.714609">
        <time>2021-11-27T11:11:45Z</time>
      </trkpt>
      <trkpt lat="42.382893" lon="-7.7146044">
        <time>2021-11-27T11:11:46Z</time>
      </trkpt>
      <trkpt lat="42.3829" lon="-7.714598">
        <time>2021-11-27T11:11:47Z</time>
      </trkpt>
      <trkpt lat="42.3829" lon="-7.714594">
        <time>2021-11-27T11:11:48Z</time>
      </trkpt>
      <trkpt lat="42.382908" lon="-7.71459">
        <time>2021-11-27T11:11:49Z</time>
      </trkpt>
      <trkpt lat="42.382915" lon="-7.714588">
        <time>2021-11-27T11:11:50Z</time>
      </trkpt>
      <trkpt lat="42.382927" lon="-7.714585">
        <time>2021-11-27T11:11:51Z</time>
      </trkpt>
      <trkpt lat="42.382935" lon="-7.714583">
        <time>2021-11-27T11:11:52Z</time>
      </trkpt>
      <trkpt lat="42.382942" lon="-7.7145805">
        <time>2021-11-27T11:11:53Z</time>
      </trkpt>
      <trkpt lat="42.382954" lon="-7.7145786">
        <time>2021-11-27T11:11:54Z</time>
      </trkpt>
      <trkpt lat="42.382957" lon="-7.7145767">
        <time>2021-11-27T11:11:55Z</time>
      </trkpt>
      <trkpt lat="42.382965" lon="-7.714573">
        <time>2021-11-27T11:11:56Z</time>
      </trkpt>
      <trkpt lat="42.382973" lon="-7.7145696">
        <time>2021-11-27T11:11:57Z</time>
      </trkpt>
      <trkpt lat="42.382977" lon="-7.7145677">
        <time>2021-11-27T11:11:58Z</time>
      </trkpt>
      <trkpt lat="42.38298" lon="-7.714567">
        <time>2021-11-27T11:11:59Z</time>
      </trkpt>
      <trkpt lat="42.382996" lon="-7.7145634">
        <time>2021-11-27T11:12:01Z</time>
      </trkpt>
      <trkpt lat="42.383" lon="-7.7145653">
        <time>2021-11-27T11:12:03Z</time>
      </trkpt>
      <trkpt lat="42.382996" lon="-7.7145653">
        <time>2021-11-27T11:12:04Z</time>
      </trkpt>
      <trkpt lat="42.382996" lon="-7.7145643">
        <time>2021-11-27T11:12:05Z</time>
      </trkpt>
      <trkpt lat="42.383003" lon="-7.714564">
        <time>2021-11-27T11:12:06Z</time>
      </trkpt>
      <trkpt lat="42.383007" lon="-7.714564">
        <time>2021-11-27T11:12:07Z</time>
      </trkpt>
      <trkpt lat="42.38301" lon="-7.714564">
        <time>2021-11-27T11:12:08Z</time>
      </trkpt>
      <trkpt lat="42.38302" lon="-7.71456">
        <time>2021-11-27T11:12:09Z</time>
      </trkpt>
      <trkpt lat="42.383034" lon="-7.7145543">
        <time>2021-11-27T11:12:10Z</time>
      </trkpt>
      <trkpt lat="42.38304" lon="-7.714547">
        <time>2021-11-27T11:12:11Z</time>
      </trkpt>
      <trkpt lat="42.383053" lon="-7.7145395">
        <time>2021-11-27T11:12:12Z</time>
      </trkpt>
      <trkpt lat="42.38306" lon="-7.7145305">
        <time>2021-11-27T11:12:13Z</time>
      </trkpt>
      <trkpt lat="42.383068" lon="-7.7145233">
        <time>2021-11-27T11:12:14Z</time>
      </trkpt>
      <trkpt lat="42.38307" lon="-7.7145176">
        <time>2021-11-27T11:12:15Z</time>
      </trkpt>
      <trkpt lat="42.383083" lon="-7.7145133">
        <time>2021-11-27T11:12:15Z</time>
      </trkpt>
      <trkpt lat="42.383087" lon="-7.71451">
        <time>2021-11-27T11:12:16Z</time>
      </trkpt>
      <trkpt lat="42.383095" lon="-7.714506">
        <time>2021-11-27T11:12:17Z</time>
      </trkpt>
      <trkpt lat="42.3831" lon="-7.714503">
        <time>2021-11-27T11:12:18Z</time>
      </trkpt>
      <trkpt lat="42.383102" lon="-7.7145004">
        <time>2021-11-27T11:12:19Z</time>
      </trkpt>
      <trkpt lat="42.38311" lon="-7.714498">
        <time>2021-11-27T11:12:20Z</time>
      </trkpt>
      <trkpt lat="42.383114" lon="-7.714497">
        <time>2021-11-27T11:12:21Z</time>
      </trkpt>
      <trkpt lat="42.383118" lon="-7.7144966">
        <time>2021-11-27T11:12:22Z</time>
      </trkpt>
      <trkpt lat="42.383125" lon="-7.714495">
        <time>2021-11-27T11:12:23Z</time>
      </trkpt>
      <trkpt lat="42.383133" lon="-7.714494">
        <time>2021-11-27T11:12:24Z</time>
      </trkpt>
      <trkpt lat="42.38314" lon="-7.714493">
        <time>2021-11-27T11:12:25Z</time>
      </trkpt>
      <trkpt lat="42.38315" lon="-7.7144904">
        <time>2021-11-27T11:12:26Z</time>
      </trkpt>
      <trkpt lat="42.383163" lon="-7.714489">
        <time>2021-11-27T11:12:27Z</time>
      </trkpt>
      <trkpt lat="42.383175" lon="-7.7144876">
        <time>2021-11-27T11:12:28Z</time>
      </trkpt>
      <trkpt lat="42.383183" lon="-7.7144856">
        <time>2021-11-27T11:12:29Z</time>
      </trkpt>
      <trkpt lat="42.383194" lon="-7.714482">
        <time>2021-11-27T11:12:30Z</time>
      </trkpt>
      <trkpt lat="42.3832" lon="-7.7144766">
        <time>2021-11-27T11:12:32Z</time>
      </trkpt>
      <trkpt lat="42.38321" lon="-7.714471">
        <time>2021-11-27T11:12:32Z</time>
      </trkpt>
      <trkpt lat="42.383217" lon="-7.7144685">
        <time>2021-11-27T11:12:33Z</time>
      </trkpt>
      <trkpt lat="42.383224" lon="-7.714465">
        <time>2021-11-27T11:12:34Z</time>
      </trkpt>
      <trkpt lat="42.38323" lon="-7.7144623">
        <time>2021-11-27T11:12:35Z</time>
      </trkpt>
      <trkpt lat="42.383236" lon="-7.7144594">
        <time>2021-11-27T11:12:36Z</time>
      </trkpt>
      <trkpt lat="42.38324" lon="-7.7144537">
        <time>2021-11-27T11:12:37Z</time>
      </trkpt>
      <trkpt lat="42.383244" lon="-7.7144465">
        <time>2021-11-27T11:12:38Z</time>
      </trkpt>
      <trkpt lat="42.38325" lon="-7.7144384">
        <time>2021-11-27T11:12:39Z</time>
      </trkpt>
      <trkpt lat="42.383255" lon="-7.714432">
        <time>2021-11-27T11:12:40Z</time>
      </trkpt>
      <trkpt lat="42.38326" lon="-7.714426">
        <time>2021-11-27T11:12:41Z</time>
      </trkpt>
      <trkpt lat="42.383263" lon="-7.7144203">
        <time>2021-11-27T11:12:42Z</time>
      </trkpt>
      <trkpt lat="42.383266" lon="-7.714418">
        <time>2021-11-27T11:12:43Z</time>
      </trkpt>
      <trkpt lat="42.38327" lon="-7.7144156">
        <time>2021-11-27T11:12:44Z</time>
      </trkpt>
      <trkpt lat="42.383274" lon="-7.7144103">
        <time>2021-11-27T11:12:45Z</time>
      </trkpt>
      <trkpt lat="42.383274" lon="-7.7144017">
        <time>2021-11-27T11:12:46Z</time>
      </trkpt>
      <trkpt lat="42.383278" lon="-7.7143936">
        <time>2021-11-27T11:12:47Z</time>
      </trkpt>
      <trkpt lat="42.38328" lon="-7.714386">
        <time>2021-11-27T11:12:48Z</time>
      </trkpt>
      <trkpt lat="42.383293" lon="-7.7143793">
        <time>2021-11-27T11:12:49Z</time>
      </trkpt>
      <trkpt lat="42.383305" lon="-7.714375">
        <time>2021-11-27T11:12:50Z</time>
      </trkpt>
      <trkpt lat="42.38332" lon="-7.714369">
        <time>2021-11-27T11:12:51Z</time>
      </trkpt>
      <trkpt lat="42.383335" lon="-7.714359">
        <time>2021-11-27T11:12:52Z</time>
      </trkpt>
      <trkpt lat="42.383343" lon="-7.714349">
        <time>2021-11-27T11:12:53Z</time>
      </trkpt>
      <trkpt lat="42.383354" lon="-7.7143393">
        <time>2021-11-27T11:12:54Z</time>
      </trkpt>
      <trkpt lat="42.38336" lon="-7.71433">
        <time>2021-11-27T11:12:55Z</time>
      </trkpt>
      <trkpt lat="42.38337" lon="-7.7143207">
        <time>2021-11-27T11:12:56Z</time>
      </trkpt>
      <trkpt lat="42.38338" lon="-7.7143126">
        <time>2021-11-27T11:12:57Z</time>
      </trkpt>
      <trkpt lat="42.38339" lon="-7.714304">
        <time>2021-11-27T11:12:58Z</time>
      </trkpt>
      <trkpt lat="42.3834" lon="-7.7142982">
        <time>2021-11-27T11:12:59Z</time>
      </trkpt>
      <trkpt lat="42.383408" lon="-7.7142963">
        <time>2021-11-27T11:13:00Z</time>
      </trkpt>
      <trkpt lat="42.38342" lon="-7.714296">
        <time>2021-11-27T11:13:01Z</time>
      </trkpt>
      <trkpt lat="42.38343" lon="-7.714298">
        <time>2021-11-27T11:13:02Z</time>
      </trkpt>
      <trkpt lat="42.38344" lon="-7.7143006">
        <time>2021-11-27T11:13:03Z</time>
      </trkpt>
      <trkpt lat="42.38345" lon="-7.714304">
        <time>2021-11-27T11:13:04Z</time>
      </trkpt>
      <trkpt lat="42.38346" lon="-7.714308">
        <time>2021-11-27T11:13:05Z</time>
      </trkpt>
      <trkpt lat="42.383472" lon="-7.714313">
        <time>2021-11-27T11:13:06Z</time>
      </trkpt>
      <trkpt lat="42.383484" lon="-7.7143183">
        <time>2021-11-27T11:13:07Z</time>
      </trkpt>
      <trkpt lat="42.3835" lon="-7.7143207">
        <time>2021-11-27T11:13:08Z</time>
      </trkpt>
      <trkpt lat="42.38351" lon="-7.714321">
        <time>2021-11-27T11:13:09Z</time>
      </trkpt>
      <trkpt lat="42.383522" lon="-7.71432">
        <time>2021-11-27T11:13:10Z</time>
      </trkpt>
      <trkpt lat="42.383533" lon="-7.7143173">
        <time>2021-11-27T11:13:11Z</time>
      </trkpt>
      <trkpt lat="42.383545" lon="-7.7143164">
        <time>2021-11-27T11:13:12Z</time>
      </trkpt>
      <trkpt lat="42.38355" lon="-7.7143126">
        <time>2021-11-27T11:13:13Z</time>
      </trkpt>
      <trkpt lat="42.383556" lon="-7.7143083">
        <time>2021-11-27T11:13:14Z</time>
      </trkpt>
      <trkpt lat="42.383564" lon="-7.714304">
        <time>2021-11-27T11:13:15Z</time>
      </trkpt>
      <trkpt lat="42.383564" lon="-7.714297">
        <time>2021-11-27T11:13:16Z</time>
      </trkpt>
      <trkpt lat="42.38357" lon="-7.71429">
        <time>2021-11-27T11:13:17Z</time>
      </trkpt>
      <trkpt lat="42.38358" lon="-7.7142854">
        <time>2021-11-27T11:13:18Z</time>
      </trkpt>
      <trkpt lat="42.383587" lon="-7.7142835">
        <time>2021-11-27T11:13:19Z</time>
      </trkpt>
      <trkpt lat="42.383602" lon="-7.714285">
        <time>2021-11-27T11:13:20Z</time>
      </trkpt>
      <trkpt lat="42.383617" lon="-7.714289">
        <time>2021-11-27T11:13:21Z</time>
      </trkpt>
      <trkpt lat="42.383633" lon="-7.714293">
        <time>2021-11-27T11:13:22Z</time>
      </trkpt>
      <trkpt lat="42.383644" lon="-7.714296">
        <time>2021-11-27T11:13:23Z</time>
      </trkpt>
      <trkpt lat="42.383656" lon="-7.714298">
        <time>2021-11-27T11:13:24Z</time>
      </trkpt>
      <trkpt lat="42.383663" lon="-7.7142982">
        <time>2021-11-27T11:13:25Z</time>
      </trkpt>
      <trkpt lat="42.383675" lon="-7.7142982">
        <time>2021-11-27T11:13:26Z</time>
      </trkpt>
      <trkpt lat="42.383686" lon="-7.7142982">
        <time>2021-11-27T11:13:27Z</time>
      </trkpt>
      <trkpt lat="42.383694" lon="-7.7142963">
        <time>2021-11-27T11:13:28Z</time>
      </trkpt>
      <trkpt lat="42.383705" lon="-7.714294">
        <time>2021-11-27T11:13:29Z</time>
      </trkpt>
      <trkpt lat="42.383717" lon="-7.7142925">
        <time>2021-11-27T11:13:30Z</time>
      </trkpt>
      <trkpt lat="42.383724" lon="-7.71429">
        <time>2021-11-27T11:13:31Z</time>
      </trkpt>
      <trkpt lat="42.38374" lon="-7.714288">
        <time>2021-11-27T11:13:32Z</time>
      </trkpt>
      <trkpt lat="42.38375" lon="-7.7142873">
        <time>2021-11-27T11:13:33Z</time>
      </trkpt>
      <trkpt lat="42.38376" lon="-7.7142873">
        <time>2021-11-27T11:13:34Z</time>
      </trkpt>
      <trkpt lat="42.383766" lon="-7.714288">
        <time>2021-11-27T11:13:35Z</time>
      </trkpt>
      <trkpt lat="42.383774" lon="-7.7142873">
        <time>2021-11-27T11:13:36Z</time>
      </trkpt>
      <trkpt lat="42.38378" lon="-7.7142835">
        <time>2021-11-27T11:13:37Z</time>
      </trkpt>
      <trkpt lat="42.38379" lon="-7.714279">
        <time>2021-11-27T11:13:38Z</time>
      </trkpt>
      <trkpt lat="42.3838" lon="-7.714274">
        <time>2021-11-27T11:13:39Z</time>
      </trkpt>
      <trkpt lat="42.383812" lon="-7.71427">
        <time>2021-11-27T11:13:40Z</time>
      </trkpt>
      <trkpt lat="42.38382" lon="-7.714265">
        <time>2021-11-27T11:13:41Z</time>
      </trkpt>
      <trkpt lat="42.38383" lon="-7.7142577">
        <time>2021-11-27T11:13:42Z</time>
      </trkpt>
      <trkpt lat="42.383842" lon="-7.7142515">
        <time>2021-11-27T11:13:43Z</time>
      </trkpt>
      <trkpt lat="42.38385" lon="-7.714246">
        <time>2021-11-27T11:13:44Z</time>
      </trkpt>
      <trkpt lat="42.383865" lon="-7.7142406">
        <time>2021-11-27T11:13:45Z</time>
      </trkpt>
      <trkpt lat="42.383873" lon="-7.7142367">
        <time>2021-11-27T11:13:46Z</time>
      </trkpt>
      <trkpt lat="42.38388" lon="-7.7142353">
        <time>2021-11-27T11:13:47Z</time>
      </trkpt>
      <trkpt lat="42.38389" lon="-7.7142363">
        <time>2021-11-27T11:13:48Z</time>
      </trkpt>
      <trkpt lat="42.383896" lon="-7.7142353">
        <time>2021-11-27T11:13:49Z</time>
      </trkpt>
      <trkpt lat="42.383904" lon="-7.7142324">
        <time>2021-11-27T11:13:50Z</time>
      </trkpt>
      <trkpt lat="42.38391" lon="-7.7142267">
        <time>2021-11-27T11:13:51Z</time>
      </trkpt>
      <trkpt lat="42.38392" lon="-7.71422">
        <time>2021-11-27T11:13:52Z</time>
      </trkpt>
      <trkpt lat="42.38393" lon="-7.7142143">
        <time>2021-11-27T11:13:53Z</time>
      </trkpt>
      <trkpt lat="42.383938" lon="-7.714207">
        <time>2021-11-27T11:13:54Z</time>
      </trkpt>
      <trkpt lat="42.383953" lon="-7.714201">
        <time>2021-11-27T11:13:55Z</time>
      </trkpt>
      <trkpt lat="42.38397" lon="-7.7141933">
        <time>2021-11-27T11:13:56Z</time>
      </trkpt>
      <trkpt lat="42.383984" lon="-7.7141848">
        <time>2021-11-27T11:13:57Z</time>
      </trkpt>
      <trkpt lat="42.384" lon="-7.714176">
        <time>2021-11-27T11:13:58Z</time>
      </trkpt>
      <trkpt lat="42.384014" lon="-7.7141685">
        <time>2021-11-27T11:13:59Z</time>
      </trkpt>
      <trkpt lat="42.38403" lon="-7.7141614">
        <time>2021-11-27T11:14:00Z</time>
      </trkpt>
      <trkpt lat="42.384037" lon="-7.714153">
        <time>2021-11-27T11:14:01Z</time>
      </trkpt>
      <trkpt lat="42.38405" lon="-7.7141447">
        <time>2021-11-27T11:14:02Z</time>
      </trkpt>
      <trkpt lat="42.384056" lon="-7.714134">
        <time>2021-11-27T11:14:03Z</time>
      </trkpt>
      <trkpt lat="42.384064" lon="-7.714121">
        <time>2021-11-27T11:14:04Z</time>
      </trkpt>
      <trkpt lat="42.384068" lon="-7.7141075">
        <time>2021-11-27T11:14:05Z</time>
      </trkpt>
      <trkpt lat="42.38407" lon="-7.714093">
        <time>2021-11-27T11:14:06Z</time>
      </trkpt>
      <trkpt lat="42.38408" lon="-7.714082">
        <time>2021-11-27T11:14:07Z</time>
      </trkpt>
      <trkpt lat="42.384083" lon="-7.714073">
        <time>2021-11-27T11:14:08Z</time>
      </trkpt>
      <trkpt lat="42.38409" lon="-7.714063">
        <time>2021-11-27T11:14:09Z</time>
      </trkpt>
      <trkpt lat="42.384098" lon="-7.7140565">
        <time>2021-11-27T11:14:10Z</time>
      </trkpt>
      <trkpt lat="42.384106" lon="-7.714051">
        <time>2021-11-27T11:14:11Z</time>
      </trkpt>
      <trkpt lat="42.38411" lon="-7.714046">
        <time>2021-11-27T11:14:12Z</time>
      </trkpt>
      <trkpt lat="42.384117" lon="-7.714034">
        <time>2021-11-27T11:14:14Z</time>
      </trkpt>
      <trkpt lat="42.384117" lon="-7.7140307">
        <time>2021-11-27T11:14:15Z</time>
      </trkpt>
      <trkpt lat="42.384117" lon="-7.7140226">
        <time>2021-11-27T11:14:16Z</time>
      </trkpt>
      <trkpt lat="42.384117" lon="-7.7140107">
        <time>2021-11-27T11:14:17Z</time>
      </trkpt>
      <trkpt lat="42.384113" lon="-7.713996">
        <time>2021-11-27T11:14:18Z</time>
      </trkpt>
      <trkpt lat="42.384117" lon="-7.7139826">
        <time>2021-11-27T11:14:19Z</time>
      </trkpt>
      <trkpt lat="42.38412" lon="-7.7139707">
        <time>2021-11-27T11:14:20Z</time>
      </trkpt>
      <trkpt lat="42.384125" lon="-7.7139597">
        <time>2021-11-27T11:14:21Z</time>
      </trkpt>
      <trkpt lat="42.384132" lon="-7.7139473">
        <time>2021-11-27T11:14:22Z</time>
      </trkpt>
      <trkpt lat="42.384136" lon="-7.713935">
        <time>2021-11-27T11:14:23Z</time>
      </trkpt>
      <trkpt lat="42.38414" lon="-7.7139244">
        <time>2021-11-27T11:14:24Z</time>
      </trkpt>
      <trkpt lat="42.384144" lon="-7.713915">
        <time>2021-11-27T11:14:25Z</time>
      </trkpt>
      <trkpt lat="42.384148" lon="-7.713907">
        <time>2021-11-27T11:14:26Z</time>
      </trkpt>
      <trkpt lat="42.384148" lon="-7.713898">
        <time>2021-11-27T11:14:27Z</time>
      </trkpt>
      <trkpt lat="42.38415" lon="-7.713889">
        <time>2021-11-27T11:14:28Z</time>
      </trkpt>
      <trkpt lat="42.38415" lon="-7.713879">
        <time>2021-11-27T11:14:29Z</time>
      </trkpt>
      <trkpt lat="42.384148" lon="-7.7138667">
        <time>2021-11-27T11:14:30Z</time>
      </trkpt>
      <trkpt lat="42.384148" lon="-7.7138543">
        <time>2021-11-27T11:14:31Z</time>
      </trkpt>
      <trkpt lat="42.384148" lon="-7.71384">
        <time>2021-11-27T11:14:32Z</time>
      </trkpt>
      <trkpt lat="42.384148" lon="-7.7138267">
        <time>2021-11-27T11:14:33Z</time>
      </trkpt>
      <trkpt lat="42.38415" lon="-7.7138143">
        <time>2021-11-27T11:14:34Z</time>
      </trkpt>
      <trkpt lat="42.384155" lon="-7.7138033">
        <time>2021-11-27T11:14:35Z</time>
      </trkpt>
      <trkpt lat="42.384163" lon="-7.7137938">
        <time>2021-11-27T11:14:36Z</time>
      </trkpt>
      <trkpt lat="42.384163" lon="-7.7137856">
        <time>2021-11-27T11:14:37Z</time>
      </trkpt>
      <trkpt lat="42.38417" lon="-7.713778">
        <time>2021-11-27T11:14:38Z</time>
      </trkpt>
      <trkpt lat="42.384174" lon="-7.7137694">
        <time>2021-11-27T11:14:39Z</time>
      </trkpt>
      <trkpt lat="42.38418" lon="-7.713759">
        <time>2021-11-27T11:14:40Z</time>
      </trkpt>
      <trkpt lat="42.384186" lon="-7.713745">
        <time>2021-11-27T11:14:41Z</time>
      </trkpt>
      <trkpt lat="42.384186" lon="-7.71373">
        <time>2021-11-27T11:14:42Z</time>
      </trkpt>
      <trkpt lat="42.384186" lon="-7.713714">
        <time>2021-11-27T11:14:43Z</time>
      </trkpt>
      <trkpt lat="42.384182" lon="-7.7137">
        <time>2021-11-27T11:14:44Z</time>
      </trkpt>
      <trkpt lat="42.38418" lon="-7.7136865">
        <time>2021-11-27T11:14:45Z</time>
      </trkpt>
      <trkpt lat="42.38418" lon="-7.713673">
        <time>2021-11-27T11:14:46Z</time>
      </trkpt>
      <trkpt lat="42.38418" lon="-7.7136607">
        <time>2021-11-27T11:14:47Z</time>
      </trkpt>
      <trkpt lat="42.384174" lon="-7.713649">
        <time>2021-11-27T11:14:48Z</time>
      </trkpt>
      <trkpt lat="42.384174" lon="-7.7136364">
        <time>2021-11-27T11:14:49Z</time>
      </trkpt>
      <trkpt lat="42.384174" lon="-7.7136245">
        <time>2021-11-27T11:14:50Z</time>
      </trkpt>
      <trkpt lat="42.38418" lon="-7.713614">
        <time>2021-11-27T11:14:51Z</time>
      </trkpt>
      <trkpt lat="42.38418" lon="-7.713603">
        <time>2021-11-27T11:14:52Z</time>
      </trkpt>
      <trkpt lat="42.384182" lon="-7.713591">
        <time>2021-11-27T11:14:53Z</time>
      </trkpt>
      <trkpt lat="42.384182" lon="-7.7135787">
        <time>2021-11-27T11:14:54Z</time>
      </trkpt>
      <trkpt lat="42.384186" lon="-7.713568">
        <time>2021-11-27T11:14:55Z</time>
      </trkpt>
      <trkpt lat="42.384186" lon="-7.713559">
        <time>2021-11-27T11:14:56Z</time>
      </trkpt>
      <trkpt lat="42.384186" lon="-7.7135525">
        <time>2021-11-27T11:14:57Z</time>
      </trkpt>
      <trkpt lat="42.384186" lon="-7.713546">
        <time>2021-11-27T11:14:58Z</time>
      </trkpt>
      <trkpt lat="42.38419" lon="-7.7135386">
        <time>2021-11-27T11:14:59Z</time>
      </trkpt>
      <trkpt lat="42.384193" lon="-7.713534">
        <time>2021-11-27T11:15:00Z</time>
      </trkpt>
      <trkpt lat="42.3842" lon="-7.7135296">
        <time>2021-11-27T11:15:01Z</time>
      </trkpt>
      <trkpt lat="42.38421" lon="-7.7135243">
        <time>2021-11-27T11:15:02Z</time>
      </trkpt>
      <trkpt lat="42.384212" lon="-7.713515">
        <time>2021-11-27T11:15:03Z</time>
      </trkpt>
      <trkpt lat="42.384216" lon="-7.713504">
        <time>2021-11-27T11:15:04Z</time>
      </trkpt>
      <trkpt lat="42.38422" lon="-7.713494">
        <time>2021-11-27T11:15:05Z</time>
      </trkpt>
      <trkpt lat="42.384224" lon="-7.713485">
        <time>2021-11-27T11:15:06Z</time>
      </trkpt>
      <trkpt lat="42.384228" lon="-7.7134748">
        <time>2021-11-27T11:15:07Z</time>
      </trkpt>
      <trkpt lat="42.38423" lon="-7.7134647">
        <time>2021-11-27T11:15:08Z</time>
      </trkpt>
      <trkpt lat="42.384235" lon="-7.713456">
        <time>2021-11-27T11:15:09Z</time>
      </trkpt>
      <trkpt lat="42.38424" lon="-7.7134485">
        <time>2021-11-27T11:15:10Z</time>
      </trkpt>
      <trkpt lat="42.384243" lon="-7.71344">
        <time>2021-11-27T11:15:11Z</time>
      </trkpt>
      <trkpt lat="42.384247" lon="-7.713434">
        <time>2021-11-27T11:15:12Z</time>
      </trkpt>
      <trkpt lat="42.384254" lon="-7.713433">
        <time>2021-11-27T11:15:13Z</time>
      </trkpt>
      <trkpt lat="42.384266" lon="-7.7134304">
        <time>2021-11-27T11:15:14Z</time>
      </trkpt>
      <trkpt lat="42.384277" lon="-7.713425">
        <time>2021-11-27T11:15:15Z</time>
      </trkpt>
      <trkpt lat="42.38428" lon="-7.7134204">
        <time>2021-11-27T11:15:16Z</time>
      </trkpt>
      <trkpt lat="42.384285" lon="-7.7134132">
        <time>2021-11-27T11:15:17Z</time>
      </trkpt>
      <trkpt lat="42.384285" lon="-7.713404">
        <time>2021-11-27T11:15:18Z</time>
      </trkpt>
      <trkpt lat="42.38429" lon="-7.713395">
        <time>2021-11-27T11:15:19Z</time>
      </trkpt>
      <trkpt lat="42.384293" lon="-7.713386">
        <time>2021-11-27T11:15:20Z</time>
      </trkpt>
      <trkpt lat="42.384293" lon="-7.7133784">
        <time>2021-11-27T11:15:21Z</time>
      </trkpt>
      <trkpt lat="42.384293" lon="-7.7133684">
        <time>2021-11-27T11:15:22Z</time>
      </trkpt>
      <trkpt lat="42.384293" lon="-7.713357">
        <time>2021-11-27T11:15:23Z</time>
      </trkpt>
      <trkpt lat="42.384296" lon="-7.713345">
        <time>2021-11-27T11:15:24Z</time>
      </trkpt>
      <trkpt lat="42.3843" lon="-7.7133346">
        <time>2021-11-27T11:15:25Z</time>
      </trkpt>
      <trkpt lat="42.3843" lon="-7.7133255">
        <time>2021-11-27T11:15:26Z</time>
      </trkpt>
      <trkpt lat="42.3843" lon="-7.713316">
        <time>2021-11-27T11:15:27Z</time>
      </trkpt>
      <trkpt lat="42.3843" lon="-7.7133055">
        <time>2021-11-27T11:15:28Z</time>
      </trkpt>
      <trkpt lat="42.3843" lon="-7.7132945">
        <time>2021-11-27T11:15:29Z</time>
      </trkpt>
      <trkpt lat="42.384304" lon="-7.713285">
        <time>2021-11-27T11:15:30Z</time>
      </trkpt>
      <trkpt lat="42.384308" lon="-7.7132754">
        <time>2021-11-27T11:15:32Z</time>
      </trkpt>
      <trkpt lat="42.384308" lon="-7.713266">
        <time>2021-11-27T11:15:32Z</time>
      </trkpt>
      <trkpt lat="42.38431" lon="-7.713257">
        <time>2021-11-27T11:15:33Z</time>
      </trkpt>
      <trkpt lat="42.38431" lon="-7.713247">
        <time>2021-11-27T11:15:34Z</time>
      </trkpt>
      <trkpt lat="42.384315" lon="-7.7132344">
        <time>2021-11-27T11:15:35Z</time>
      </trkpt>
      <trkpt lat="42.38432" lon="-7.7132215">
        <time>2021-11-27T11:15:36Z</time>
      </trkpt>
      <trkpt lat="42.38432" lon="-7.71321">
        <time>2021-11-27T11:15:37Z</time>
      </trkpt>
      <trkpt lat="42.38432" lon="-7.713197">
        <time>2021-11-27T11:15:38Z</time>
      </trkpt>
      <trkpt lat="42.384323" lon="-7.713183">
        <time>2021-11-27T11:15:39Z</time>
      </trkpt>
      <trkpt lat="42.384327" lon="-7.713168">
        <time>2021-11-27T11:15:40Z</time>
      </trkpt>
      <trkpt lat="42.384327" lon="-7.7131534">
        <time>2021-11-27T11:15:41Z</time>
      </trkpt>
      <trkpt lat="42.384327" lon="-7.713138">
        <time>2021-11-27T11:15:42Z</time>
      </trkpt>
      <trkpt lat="42.38433" lon="-7.713124">
        <time>2021-11-27T11:15:43Z</time>
      </trkpt>
      <trkpt lat="42.384335" lon="-7.71311">
        <time>2021-11-27T11:15:44Z</time>
      </trkpt>
      <trkpt lat="42.384335" lon="-7.713097">
        <time>2021-11-27T11:15:45Z</time>
      </trkpt>
      <trkpt lat="42.384335" lon="-7.7130823">
        <time>2021-11-27T11:15:46Z</time>
      </trkpt>
      <trkpt lat="42.38434" lon="-7.7130675">
        <time>2021-11-27T11:15:47Z</time>
      </trkpt>
      <trkpt lat="42.38434" lon="-7.7130523">
        <time>2021-11-27T11:15:48Z</time>
      </trkpt>
      <trkpt lat="42.38434" lon="-7.7130375">
        <time>2021-11-27T11:15:49Z</time>
      </trkpt>
      <trkpt lat="42.38434" lon="-7.7130213">
        <time>2021-11-27T11:15:50Z</time>
      </trkpt>
      <trkpt lat="42.384335" lon="-7.713006">
        <time>2021-11-27T11:15:51Z</time>
      </trkpt>
      <trkpt lat="42.38434" lon="-7.712992">
        <time>2021-11-27T11:15:52Z</time>
      </trkpt>
      <trkpt lat="42.384342" lon="-7.7129774">
        <time>2021-11-27T11:15:53Z</time>
      </trkpt>
      <trkpt lat="42.384342" lon="-7.712962">
        <time>2021-11-27T11:15:54Z</time>
      </trkpt>
      <trkpt lat="42.384342" lon="-7.7129464">
        <time>2021-11-27T11:15:55Z</time>
      </trkpt>
      <trkpt lat="42.384342" lon="-7.712931">
        <time>2021-11-27T11:15:56Z</time>
      </trkpt>
      <trkpt lat="42.38434" lon="-7.7129197">
        <time>2021-11-27T11:15:57Z</time>
      </trkpt>
      <trkpt lat="42.384335" lon="-7.71291">
        <time>2021-11-27T11:15:58Z</time>
      </trkpt>
      <trkpt lat="42.384335" lon="-7.7129035">
        <time>2021-11-27T11:15:59Z</time>
      </trkpt>
      <trkpt lat="42.38434" lon="-7.712897">
        <time>2021-11-27T11:16:00Z</time>
      </trkpt>
      <trkpt lat="42.384342" lon="-7.7128882">
        <time>2021-11-27T11:16:01Z</time>
      </trkpt>
      <trkpt lat="42.38434" lon="-7.7128787">
        <time>2021-11-27T11:16:02Z</time>
      </trkpt>
      <trkpt lat="42.384335" lon="-7.712866">
        <time>2021-11-27T11:16:03Z</time>
      </trkpt>
      <trkpt lat="42.38433" lon="-7.71285">
        <time>2021-11-27T11:16:04Z</time>
      </trkpt>
      <trkpt lat="42.384327" lon="-7.712834">
        <time>2021-11-27T11:16:05Z</time>
      </trkpt>
      <trkpt lat="42.384327" lon="-7.712818">
        <time>2021-11-27T11:16:06Z</time>
      </trkpt>
      <trkpt lat="42.384327" lon="-7.7128015">
        <time>2021-11-27T11:16:07Z</time>
      </trkpt>
      <trkpt lat="42.38433" lon="-7.712785">
        <time>2021-11-27T11:16:08Z</time>
      </trkpt>
      <trkpt lat="42.38433" lon="-7.71277">
        <time>2021-11-27T11:16:09Z</time>
      </trkpt>
      <trkpt lat="42.38433" lon="-7.7127533">
        <time>2021-11-27T11:16:10Z</time>
      </trkpt>
      <trkpt lat="42.384335" lon="-7.712737">
        <time>2021-11-27T11:16:11Z</time>
      </trkpt>
      <trkpt lat="42.384335" lon="-7.712722">
        <time>2021-11-27T11:16:12Z</time>
      </trkpt>
      <trkpt lat="42.384335" lon="-7.712708">
        <time>2021-11-27T11:16:13Z</time>
      </trkpt>
      <trkpt lat="42.384335" lon="-7.712692">
        <time>2021-11-27T11:16:14Z</time>
      </trkpt>
      <trkpt lat="42.38434" lon="-7.7126746">
        <time>2021-11-27T11:16:15Z</time>
      </trkpt>
      <trkpt lat="42.38434" lon="-7.7126575">
        <time>2021-11-27T11:16:16Z</time>
      </trkpt>
      <trkpt lat="42.38434" lon="-7.7126417">
        <time>2021-11-27T11:16:17Z</time>
      </trkpt>
      <trkpt lat="42.38434" lon="-7.7126284">
        <time>2021-11-27T11:16:18Z</time>
      </trkpt>
      <trkpt lat="42.384335" lon="-7.7126136">
        <time>2021-11-27T11:16:19Z</time>
      </trkpt>
      <trkpt lat="42.384335" lon="-7.7125993">
        <time>2021-11-27T11:16:20Z</time>
      </trkpt>
      <trkpt lat="42.384335" lon="-7.712583">
        <time>2021-11-27T11:16:21Z</time>
      </trkpt>
      <trkpt lat="42.384335" lon="-7.7125683">
        <time>2021-11-27T11:16:22Z</time>
      </trkpt>
      <trkpt lat="42.384335" lon="-7.7125545">
        <time>2021-11-27T11:16:23Z</time>
      </trkpt>
      <trkpt lat="42.384335" lon="-7.7125406">
        <time>2021-11-27T11:16:24Z</time>
      </trkpt>
      <trkpt lat="42.38434" lon="-7.712526">
        <time>2021-11-27T11:16:25Z</time>
      </trkpt>
      <trkpt lat="42.384346" lon="-7.7125125">
        <time>2021-11-27T11:16:26Z</time>
      </trkpt>
      <trkpt lat="42.38435" lon="-7.7124996">
        <time>2021-11-27T11:16:27Z</time>
      </trkpt>
      <trkpt lat="42.384357" lon="-7.712489">
        <time>2021-11-27T11:16:28Z</time>
      </trkpt>
      <trkpt lat="42.384365" lon="-7.712478">
        <time>2021-11-27T11:16:29Z</time>
      </trkpt>
      <trkpt lat="42.38437" lon="-7.7124667">
        <time>2021-11-27T11:16:30Z</time>
      </trkpt>
      <trkpt lat="42.384373" lon="-7.7124553">
        <time>2021-11-27T11:16:31Z</time>
      </trkpt>
      <trkpt lat="42.38438" lon="-7.7124443">
        <time>2021-11-27T11:16:31Z</time>
      </trkpt>
      <trkpt lat="42.384384" lon="-7.7124352">
        <time>2021-11-27T11:16:32Z</time>
      </trkpt>
      <trkpt lat="42.384388" lon="-7.7124276">
        <time>2021-11-27T11:16:33Z</time>
      </trkpt>
      <trkpt lat="42.384396" lon="-7.712418">
        <time>2021-11-27T11:16:34Z</time>
      </trkpt>
      <trkpt lat="42.384403" lon="-7.7124095">
        <time>2021-11-27T11:16:35Z</time>
      </trkpt>
      <trkpt lat="42.38441" lon="-7.7124014">
        <time>2021-11-27T11:16:36Z</time>
      </trkpt>
      <trkpt lat="42.384426" lon="-7.7123947">
        <time>2021-11-27T11:16:37Z</time>
      </trkpt>
      <trkpt lat="42.384438" lon="-7.712388">
        <time>2021-11-27T11:16:38Z</time>
      </trkpt>
      <trkpt lat="42.38445" lon="-7.712381">
        <time>2021-11-27T11:16:39Z</time>
      </trkpt>
      <trkpt lat="42.38446" lon="-7.712375">
        <time>2021-11-27T11:16:40Z</time>
      </trkpt>
      <trkpt lat="42.38447" lon="-7.7123704">
        <time>2021-11-27T11:16:41Z</time>
      </trkpt>
      <trkpt lat="42.38448" lon="-7.712366">
        <time>2021-11-27T11:16:42Z</time>
      </trkpt>
      <trkpt lat="42.384495" lon="-7.712364">
        <time>2021-11-27T11:16:43Z</time>
      </trkpt>
      <trkpt lat="42.38451" lon="-7.712361">
        <time>2021-11-27T11:16:44Z</time>
      </trkpt>
      <trkpt lat="42.38452" lon="-7.7123556">
        <time>2021-11-27T11:16:45Z</time>
      </trkpt>
      <trkpt lat="42.384537" lon="-7.7123494">
        <time>2021-11-27T11:16:46Z</time>
      </trkpt>
      <trkpt lat="42.384556" lon="-7.7123423">
        <time>2021-11-27T11:16:47Z</time>
      </trkpt>
      <trkpt lat="42.38457" lon="-7.712336">
        <time>2021-11-27T11:16:48Z</time>
      </trkpt>
      <trkpt lat="42.384583" lon="-7.712329">
        <time>2021-11-27T11:16:49Z</time>
      </trkpt>
      <trkpt lat="42.384598" lon="-7.7123213">
        <time>2021-11-27T11:16:50Z</time>
      </trkpt>
      <trkpt lat="42.384605" lon="-7.7123156">
        <time>2021-11-27T11:16:51Z</time>
      </trkpt>
      <trkpt lat="42.384617" lon="-7.7123084">
        <time>2021-11-27T11:16:52Z</time>
      </trkpt>
      <trkpt lat="42.38463" lon="-7.712301">
        <time>2021-11-27T11:16:53Z</time>
      </trkpt>
      <trkpt lat="42.38464" lon="-7.7122927">
        <time>2021-11-27T11:16:54Z</time>
      </trkpt>
      <trkpt lat="42.38465" lon="-7.7122836">
        <time>2021-11-27T11:16:55Z</time>
      </trkpt>
      <trkpt lat="42.38466" lon="-7.712273">
        <time>2021-11-27T11:16:56Z</time>
      </trkpt>
      <trkpt lat="42.384666" lon="-7.7122645">
        <time>2021-11-27T11:16:57Z</time>
      </trkpt>
      <trkpt lat="42.384674" lon="-7.7122574">
        <time>2021-11-27T11:16:58Z</time>
      </trkpt>
      <trkpt lat="42.38468" lon="-7.7122517">
        <time>2021-11-27T11:16:59Z</time>
      </trkpt>
      <trkpt lat="42.38469" lon="-7.712246">
        <time>2021-11-27T11:17:00Z</time>
      </trkpt>
      <trkpt lat="42.3847" lon="-7.71224">
        <time>2021-11-27T11:17:01Z</time>
      </trkpt>
      <trkpt lat="42.384712" lon="-7.712234">
        <time>2021-11-27T11:17:02Z</time>
      </trkpt>
      <trkpt lat="42.384724" lon="-7.7122283">
        <time>2021-11-27T11:17:03Z</time>
      </trkpt>
      <trkpt lat="42.38473" lon="-7.7122226">
        <time>2021-11-27T11:17:04Z</time>
      </trkpt>
      <trkpt lat="42.384743" lon="-7.712215">
        <time>2021-11-27T11:17:05Z</time>
      </trkpt>
      <trkpt lat="42.384754" lon="-7.712207">
        <time>2021-11-27T11:17:06Z</time>
      </trkpt>
      <trkpt lat="42.38476" lon="-7.712198">
        <time>2021-11-27T11:17:07Z</time>
      </trkpt>
      <trkpt lat="42.38477" lon="-7.7121882">
        <time>2021-11-27T11:17:08Z</time>
      </trkpt>
      <trkpt lat="42.384785" lon="-7.7121806">
        <time>2021-11-27T11:17:09Z</time>
      </trkpt>
      <trkpt lat="42.384796" lon="-7.7121735">
        <time>2021-11-27T11:17:10Z</time>
      </trkpt>
      <trkpt lat="42.384808" lon="-7.712166">
        <time>2021-11-27T11:17:11Z</time>
      </trkpt>
      <trkpt lat="42.38482" lon="-7.7121572">
        <time>2021-11-27T11:17:12Z</time>
      </trkpt>
      <trkpt lat="42.38483" lon="-7.7121506">
        <time>2021-11-27T11:17:13Z</time>
      </trkpt>
      <trkpt lat="42.38484" lon="-7.7121434">
        <time>2021-11-27T11:17:14Z</time>
      </trkpt>
      <trkpt lat="42.384853" lon="-7.712136">
        <time>2021-11-27T11:17:15Z</time>
      </trkpt>
      <trkpt lat="42.38486" lon="-7.7121286">
        <time>2021-11-27T11:17:16Z</time>
      </trkpt>
      <trkpt lat="42.384872" lon="-7.712121">
        <time>2021-11-27T11:17:17Z</time>
      </trkpt>
      <trkpt lat="42.384884" lon="-7.712112">
        <time>2021-11-27T11:17:18Z</time>
      </trkpt>
      <trkpt lat="42.384888" lon="-7.712104">
        <time>2021-11-27T11:17:19Z</time>
      </trkpt>
      <trkpt lat="42.384895" lon="-7.7120967">
        <time>2021-11-27T11:17:20Z</time>
      </trkpt>
      <trkpt lat="42.384903" lon="-7.712088">
        <time>2021-11-27T11:17:21Z</time>
      </trkpt>
      <trkpt lat="42.384907" lon="-7.7120786">
        <time>2021-11-27T11:17:22Z</time>
      </trkpt>
      <trkpt lat="42.38492" lon="-7.71207">
        <time>2021-11-27T11:17:23Z</time>
      </trkpt>
      <trkpt lat="42.384926" lon="-7.712062">
        <time>2021-11-27T11:17:24Z</time>
      </trkpt>
      <trkpt lat="42.384933" lon="-7.712055">
        <time>2021-11-27T11:17:25Z</time>
      </trkpt>
      <trkpt lat="42.384945" lon="-7.7120485">
        <time>2021-11-27T11:17:26Z</time>
      </trkpt>
      <trkpt lat="42.384956" lon="-7.712041">
        <time>2021-11-27T11:17:27Z</time>
      </trkpt>
      <trkpt lat="42.384968" lon="-7.7120333">
        <time>2021-11-27T11:17:28Z</time>
      </trkpt>
      <trkpt lat="42.38498" lon="-7.712024">
        <time>2021-11-27T11:17:29Z</time>
      </trkpt>
      <trkpt lat="42.384987" lon="-7.7120166">
        <time>2021-11-27T11:17:30Z</time>
      </trkpt>
      <trkpt lat="42.385" lon="-7.712011">
        <time>2021-11-27T11:17:31Z</time>
      </trkpt>
      <trkpt lat="42.385006" lon="-7.7120028">
        <time>2021-11-27T11:17:32Z</time>
      </trkpt>
      <trkpt lat="42.385017" lon="-7.7119927">
        <time>2021-11-27T11:17:33Z</time>
      </trkpt>
      <trkpt lat="42.385025" lon="-7.7119827">
        <time>2021-11-27T11:17:34Z</time>
      </trkpt>
      <trkpt lat="42.385033" lon="-7.7119718">
        <time>2021-11-27T11:17:35Z</time>
      </trkpt>
      <trkpt lat="42.38504" lon="-7.711961">
        <time>2021-11-27T11:17:36Z</time>
      </trkpt>
      <trkpt lat="42.385048" lon="-7.711951">
        <time>2021-11-27T11:17:37Z</time>
      </trkpt>
      <trkpt lat="42.38505" lon="-7.7119417">
        <time>2021-11-27T11:17:38Z</time>
      </trkpt>
      <trkpt lat="42.38506" lon="-7.7119346">
        <time>2021-11-27T11:17:39Z</time>
      </trkpt>
      <trkpt lat="42.38507" lon="-7.7119308">
        <time>2021-11-27T11:17:40Z</time>
      </trkpt>
      <trkpt lat="42.38508" lon="-7.7119265">
        <time>2021-11-27T11:17:41Z</time>
      </trkpt>
      <trkpt lat="42.38509" lon="-7.711924">
        <time>2021-11-27T11:17:42Z</time>
      </trkpt>
      <trkpt lat="42.3851" lon="-7.711921">
        <time>2021-11-27T11:17:43Z</time>
      </trkpt>
      <trkpt lat="42.38511" lon="-7.7119174">
        <time>2021-11-27T11:17:44Z</time>
      </trkpt>
      <trkpt lat="42.38512" lon="-7.7119155">
        <time>2021-11-27T11:17:45Z</time>
      </trkpt>
      <trkpt lat="42.38513" lon="-7.711912">
        <time>2021-11-27T11:17:46Z</time>
      </trkpt>
      <trkpt lat="42.385143" lon="-7.71191">
        <time>2021-11-27T11:17:47Z</time>
      </trkpt>
      <trkpt lat="42.385155" lon="-7.711908">
        <time>2021-11-27T11:17:48Z</time>
      </trkpt>
      <trkpt lat="42.385166" lon="-7.7119064">
        <time>2021-11-27T11:17:49Z</time>
      </trkpt>
      <trkpt lat="42.38518" lon="-7.711906">
        <time>2021-11-27T11:17:50Z</time>
      </trkpt>
      <trkpt lat="42.385197" lon="-7.711906">
        <time>2021-11-27T11:17:51Z</time>
      </trkpt>
      <trkpt lat="42.385212" lon="-7.7119055">
        <time>2021-11-27T11:17:52Z</time>
      </trkpt>
      <trkpt lat="42.385223" lon="-7.7119055">
        <time>2021-11-27T11:17:53Z</time>
      </trkpt>
      <trkpt lat="42.38524" lon="-7.7119055">
        <time>2021-11-27T11:17:54Z</time>
      </trkpt>
      <trkpt lat="42.38525" lon="-7.7119045">
        <time>2021-11-27T11:17:55Z</time>
      </trkpt>
      <trkpt lat="42.38526" lon="-7.7119036">
        <time>2021-11-27T11:17:56Z</time>
      </trkpt>
      <trkpt lat="42.385273" lon="-7.7119026">
        <time>2021-11-27T11:17:57Z</time>
      </trkpt>
      <trkpt lat="42.385284" lon="-7.7119017">
        <time>2021-11-27T11:17:58Z</time>
      </trkpt>
      <trkpt lat="42.385292" lon="-7.7118998">
        <time>2021-11-27T11:17:59Z</time>
      </trkpt>
      <trkpt lat="42.385303" lon="-7.7118998">
        <time>2021-11-27T11:18:00Z</time>
      </trkpt>
      <trkpt lat="42.385315" lon="-7.7118974">
        <time>2021-11-27T11:18:01Z</time>
      </trkpt>
      <trkpt lat="42.385326" lon="-7.7118955">
        <time>2021-11-27T11:18:02Z</time>
      </trkpt>
      <trkpt lat="42.385338" lon="-7.711893">
        <time>2021-11-27T11:18:03Z</time>
      </trkpt>
      <trkpt lat="42.38535" lon="-7.7118897">
        <time>2021-11-27T11:18:04Z</time>
      </trkpt>
      <trkpt lat="42.38536" lon="-7.711887">
        <time>2021-11-27T11:18:05Z</time>
      </trkpt>
      <trkpt lat="42.385376" lon="-7.711884">
        <time>2021-11-27T11:18:06Z</time>
      </trkpt>
      <trkpt lat="42.38539" lon="-7.711882">
        <time>2021-11-27T11:18:07Z</time>
      </trkpt>
      <trkpt lat="42.385406" lon="-7.7118793">
        <time>2021-11-27T11:18:08Z</time>
      </trkpt>
      <trkpt lat="42.38542" lon="-7.711876">
        <time>2021-11-27T11:18:09Z</time>
      </trkpt>
      <trkpt lat="42.385433" lon="-7.711873">
        <time>2021-11-27T11:18:10Z</time>
      </trkpt>
      <trkpt lat="42.385445" lon="-7.7118692">
        <time>2021-11-27T11:18:11Z</time>
      </trkpt>
      <trkpt lat="42.38546" lon="-7.7118635">
        <time>2021-11-27T11:18:12Z</time>
      </trkpt>
      <trkpt lat="42.38547" lon="-7.711857">
        <time>2021-11-27T11:18:13Z</time>
      </trkpt>
      <trkpt lat="42.385487" lon="-7.7118483">
        <time>2021-11-27T11:18:14Z</time>
      </trkpt>
      <trkpt lat="42.385498" lon="-7.71184">
        <time>2021-11-27T11:18:15Z</time>
      </trkpt>
      <trkpt lat="42.38551" lon="-7.7118316">
        <time>2021-11-27T11:18:16Z</time>
      </trkpt>
      <trkpt lat="42.38552" lon="-7.7118254">
        <time>2021-11-27T11:18:17Z</time>
      </trkpt>
      <trkpt lat="42.385532" lon="-7.7118187">
        <time>2021-11-27T11:18:18Z</time>
      </trkpt>
      <trkpt lat="42.385548" lon="-7.711814">
        <time>2021-11-27T11:18:19Z</time>
      </trkpt>
      <trkpt lat="42.385563" lon="-7.711808">
        <time>2021-11-27T11:18:20Z</time>
      </trkpt>
      <trkpt lat="42.38557" lon="-7.711801">
        <time>2021-11-27T11:18:21Z</time>
      </trkpt>
      <trkpt lat="42.38558" lon="-7.7117934">
        <time>2021-11-27T11:18:22Z</time>
      </trkpt>
      <trkpt lat="42.385586" lon="-7.711783">
        <time>2021-11-27T11:18:23Z</time>
      </trkpt>
      <trkpt lat="42.385593" lon="-7.711772">
        <time>2021-11-27T11:18:24Z</time>
      </trkpt>
      <trkpt lat="42.3856" lon="-7.7117615">
        <time>2021-11-27T11:18:25Z</time>
      </trkpt>
      <trkpt lat="42.385616" lon="-7.711751">
        <time>2021-11-27T11:18:26Z</time>
      </trkpt>
      <trkpt lat="42.385628" lon="-7.711741">
        <time>2021-11-27T11:18:27Z</time>
      </trkpt>
      <trkpt lat="42.38564" lon="-7.7117286">
        <time>2021-11-27T11:18:28Z</time>
      </trkpt>
      <trkpt lat="42.38565" lon="-7.7117147">
        <time>2021-11-27T11:18:29Z</time>
      </trkpt>
      <trkpt lat="42.385662" lon="-7.711701">
        <time>2021-11-27T11:18:31Z</time>
      </trkpt>
      <trkpt lat="42.385674" lon="-7.7116866">
        <time>2021-11-27T11:18:31Z</time>
      </trkpt>
      <trkpt lat="42.385685" lon="-7.7116723">
        <time>2021-11-27T11:18:32Z</time>
      </trkpt>
      <trkpt lat="42.385693" lon="-7.7116575">
        <time>2021-11-27T11:18:33Z</time>
      </trkpt>
      <trkpt lat="42.3857" lon="-7.7116423">
        <time>2021-11-27T11:18:34Z</time>
      </trkpt>
      <trkpt lat="42.385704" lon="-7.7116256">
        <time>2021-11-27T11:18:35Z</time>
      </trkpt>
      <trkpt lat="42.38571" lon="-7.7116103">
        <time>2021-11-27T11:18:36Z</time>
      </trkpt>
      <trkpt lat="42.385715" lon="-7.711596">
        <time>2021-11-27T11:18:37Z</time>
      </trkpt>
      <trkpt lat="42.38572" lon="-7.7115827">
        <time>2021-11-27T11:18:38Z</time>
      </trkpt>
      <trkpt lat="42.385727" lon="-7.7115693">
        <time>2021-11-27T11:18:39Z</time>
      </trkpt>
      <trkpt lat="42.38574" lon="-7.711558">
        <time>2021-11-27T11:18:40Z</time>
      </trkpt>
      <trkpt lat="42.385746" lon="-7.7115464">
        <time>2021-11-27T11:18:41Z</time>
      </trkpt>
      <trkpt lat="42.385754" lon="-7.7115355">
        <time>2021-11-27T11:18:42Z</time>
      </trkpt>
      <trkpt lat="42.38576" lon="-7.711527">
        <time>2021-11-27T11:18:43Z</time>
      </trkpt>
      <trkpt lat="42.38577" lon="-7.711519">
        <time>2021-11-27T11:18:44Z</time>
      </trkpt>
      <trkpt lat="42.385777" lon="-7.7115083">
        <time>2021-11-27T11:18:45Z</time>
      </trkpt>
      <trkpt lat="42.38578" lon="-7.711495">
        <time>2021-11-27T11:18:46Z</time>
      </trkpt>
      <trkpt lat="42.385788" lon="-7.71148">
        <time>2021-11-27T11:18:47Z</time>
      </trkpt>
      <trkpt lat="42.385788" lon="-7.711466">
        <time>2021-11-27T11:18:48Z</time>
      </trkpt>
      <trkpt lat="42.38579" lon="-7.7114515">
        <time>2021-11-27T11:18:49Z</time>
      </trkpt>
      <trkpt lat="42.38579" lon="-7.7114367">
        <time>2021-11-27T11:18:50Z</time>
      </trkpt>
      <trkpt lat="42.38579" lon="-7.711422">
        <time>2021-11-27T11:18:51Z</time>
      </trkpt>
      <trkpt lat="42.385796" lon="-7.711409">
        <time>2021-11-27T11:18:52Z</time>
      </trkpt>
      <trkpt lat="42.3858" lon="-7.711397">
        <time>2021-11-27T11:18:53Z</time>
      </trkpt>
      <trkpt lat="42.385803" lon="-7.711386">
        <time>2021-11-27T11:18:54Z</time>
      </trkpt>
      <trkpt lat="42.385807" lon="-7.7113743">
        <time>2021-11-27T11:18:55Z</time>
      </trkpt>
      <trkpt lat="42.38581" lon="-7.7113595">
        <time>2021-11-27T11:18:56Z</time>
      </trkpt>
      <trkpt lat="42.385815" lon="-7.711341">
        <time>2021-11-27T11:18:57Z</time>
      </trkpt>
      <trkpt lat="42.38582" lon="-7.711321">
        <time>2021-11-27T11:18:58Z</time>
      </trkpt>
      <trkpt lat="42.385822" lon="-7.7113004">
        <time>2021-11-27T11:18:59Z</time>
      </trkpt>
      <trkpt lat="42.385826" lon="-7.7112837">
        <time>2021-11-27T11:19:00Z</time>
      </trkpt>
      <trkpt lat="42.385834" lon="-7.711269">
        <time>2021-11-27T11:19:01Z</time>
      </trkpt>
      <trkpt lat="42.38584" lon="-7.711257">
        <time>2021-11-27T11:19:02Z</time>
      </trkpt>
      <trkpt lat="42.38585" lon="-7.711246">
        <time>2021-11-27T11:19:03Z</time>
      </trkpt>
      <trkpt lat="42.38586" lon="-7.711233">
        <time>2021-11-27T11:19:04Z</time>
      </trkpt>
      <trkpt lat="42.385876" lon="-7.7112193">
        <time>2021-11-27T11:19:05Z</time>
      </trkpt>
      <trkpt lat="42.385883" lon="-7.711207">
        <time>2021-11-27T11:19:06Z</time>
      </trkpt>
      <trkpt lat="42.38589" lon="-7.711196">
        <time>2021-11-27T11:19:07Z</time>
      </trkpt>
      <trkpt lat="42.3859" lon="-7.711188">
        <time>2021-11-27T11:19:08Z</time>
      </trkpt>
      <trkpt lat="42.385902" lon="-7.711175">
        <time>2021-11-27T11:19:09Z</time>
      </trkpt>
      <trkpt lat="42.385906" lon="-7.711158">
        <time>2021-11-27T11:19:10Z</time>
      </trkpt>
      <trkpt lat="42.385914" lon="-7.711139">
        <time>2021-11-27T11:19:11Z</time>
      </trkpt>
      <trkpt lat="42.385918" lon="-7.711121">
        <time>2021-11-27T11:19:12Z</time>
      </trkpt>
      <trkpt lat="42.38592" lon="-7.711106">
        <time>2021-11-27T11:19:13Z</time>
      </trkpt>
      <trkpt lat="42.38593" lon="-7.71109">
        <time>2021-11-27T11:19:14Z</time>
      </trkpt>
      <trkpt lat="42.38593" lon="-7.711072">
        <time>2021-11-27T11:19:15Z</time>
      </trkpt>
      <trkpt lat="42.38593" lon="-7.711054">
        <time>2021-11-27T11:19:16Z</time>
      </trkpt>
      <trkpt lat="42.385925" lon="-7.7110357">
        <time>2021-11-27T11:19:17Z</time>
      </trkpt>
      <trkpt lat="42.38592" lon="-7.711016">
        <time>2021-11-27T11:19:18Z</time>
      </trkpt>
      <trkpt lat="42.38592" lon="-7.7109985">
        <time>2021-11-27T11:19:19Z</time>
      </trkpt>
      <trkpt lat="42.38592" lon="-7.710981">
        <time>2021-11-27T11:19:20Z</time>
      </trkpt>
      <trkpt lat="42.385925" lon="-7.710963">
        <time>2021-11-27T11:19:21Z</time>
      </trkpt>
      <trkpt lat="42.385925" lon="-7.7109447">
        <time>2021-11-27T11:19:22Z</time>
      </trkpt>
      <trkpt lat="42.38593" lon="-7.7109265">
        <time>2021-11-27T11:19:23Z</time>
      </trkpt>
      <trkpt lat="42.385937" lon="-7.710909">
        <time>2021-11-27T11:19:24Z</time>
      </trkpt>
      <trkpt lat="42.385944" lon="-7.710891">
        <time>2021-11-27T11:19:25Z</time>
      </trkpt>
      <trkpt lat="42.385952" lon="-7.710872">
        <time>2021-11-27T11:19:26Z</time>
      </trkpt>
      <trkpt lat="42.38596" lon="-7.7108536">
        <time>2021-11-27T11:19:27Z</time>
      </trkpt>
      <trkpt lat="42.385967" lon="-7.7108364">
        <time>2021-11-27T11:19:28Z</time>
      </trkpt>
      <trkpt lat="42.38597" lon="-7.710818">
        <time>2021-11-27T11:19:29Z</time>
      </trkpt>
      <trkpt lat="42.385975" lon="-7.7107983">
        <time>2021-11-27T11:19:30Z</time>
      </trkpt>
      <trkpt lat="42.385983" lon="-7.710777">
        <time>2021-11-27T11:19:32Z</time>
      </trkpt>
      <trkpt lat="42.38599" lon="-7.7107563">
        <time>2021-11-27T11:19:32Z</time>
      </trkpt>
      <trkpt lat="42.385994" lon="-7.7107353">
        <time>2021-11-27T11:19:33Z</time>
      </trkpt>
      <trkpt lat="42.385998" lon="-7.7107162">
        <time>2021-11-27T11:19:34Z</time>
      </trkpt>
      <trkpt lat="42.385998" lon="-7.710699">
        <time>2021-11-27T11:19:35Z</time>
      </trkpt>
      <trkpt lat="42.386" lon="-7.7106824">
        <time>2021-11-27T11:19:36Z</time>
      </trkpt>
      <trkpt lat="42.386005" lon="-7.7106667">
        <time>2021-11-27T11:19:37Z</time>
      </trkpt>
      <trkpt lat="42.386005" lon="-7.7106514">
        <time>2021-11-27T11:19:38Z</time>
      </trkpt>
      <trkpt lat="42.386005" lon="-7.7106366">
        <time>2021-11-27T11:19:39Z</time>
      </trkpt>
      <trkpt lat="42.386" lon="-7.7106214">
        <time>2021-11-27T11:19:40Z</time>
      </trkpt>
      <trkpt lat="42.385994" lon="-7.7106056">
        <time>2021-11-27T11:19:41Z</time>
      </trkpt>
      <trkpt lat="42.385986" lon="-7.710591">
        <time>2021-11-27T11:19:42Z</time>
      </trkpt>
      <trkpt lat="42.385983" lon="-7.7105765">
        <time>2021-11-27T11:19:43Z</time>
      </trkpt>
      <trkpt lat="42.385975" lon="-7.710563">
        <time>2021-11-27T11:19:44Z</time>
      </trkpt>
      <trkpt lat="42.385967" lon="-7.7105503">
        <time>2021-11-27T11:19:45Z</time>
      </trkpt>
      <trkpt lat="42.385963" lon="-7.710537">
        <time>2021-11-27T11:19:46Z</time>
      </trkpt>
      <trkpt lat="42.38596" lon="-7.7105236">
        <time>2021-11-27T11:19:47Z</time>
      </trkpt>
      <trkpt lat="42.385952" lon="-7.7105093">
        <time>2021-11-27T11:19:48Z</time>
      </trkpt>
      <trkpt lat="42.385944" lon="-7.7104945">
        <time>2021-11-27T11:19:49Z</time>
      </trkpt>
      <trkpt lat="42.385937" lon="-7.71048">
        <time>2021-11-27T11:19:50Z</time>
      </trkpt>
      <trkpt lat="42.38593" lon="-7.7104664">
        <time>2021-11-27T11:19:51Z</time>
      </trkpt>
      <trkpt lat="42.385918" lon="-7.710453">
        <time>2021-11-27T11:19:52Z</time>
      </trkpt>
      <trkpt lat="42.38591" lon="-7.71044">
        <time>2021-11-27T11:19:53Z</time>
      </trkpt>
      <trkpt lat="42.385902" lon="-7.7104287">
        <time>2021-11-27T11:19:54Z</time>
      </trkpt>
      <trkpt lat="42.385895" lon="-7.710416">
        <time>2021-11-27T11:19:55Z</time>
      </trkpt>
      <trkpt lat="42.385887" lon="-7.7104025">
        <time>2021-11-27T11:19:56Z</time>
      </trkpt>
      <trkpt lat="42.385876" lon="-7.710387">
        <time>2021-11-27T11:19:57Z</time>
      </trkpt>
      <trkpt lat="42.38587" lon="-7.710374">
        <time>2021-11-27T11:19:58Z</time>
      </trkpt>
      <trkpt lat="42.385864" lon="-7.7103586">
        <time>2021-11-27T11:19:59Z</time>
      </trkpt>
      <trkpt lat="42.385857" lon="-7.7103424">
        <time>2021-11-27T11:20:00Z</time>
      </trkpt>
      <trkpt lat="42.38585" lon="-7.7103276">
        <time>2021-11-27T11:20:01Z</time>
      </trkpt>
      <trkpt lat="42.38584" lon="-7.7103143">
        <time>2021-11-27T11:20:02Z</time>
      </trkpt>
      <trkpt lat="42.385838" lon="-7.7102995">
        <time>2021-11-27T11:20:03Z</time>
      </trkpt>
      <trkpt lat="42.385834" lon="-7.7102857">
        <time>2021-11-27T11:20:04Z</time>
      </trkpt>
      <trkpt lat="42.38583" lon="-7.710271">
        <time>2021-11-27T11:20:05Z</time>
      </trkpt>
      <trkpt lat="42.385826" lon="-7.710257">
        <time>2021-11-27T11:20:06Z</time>
      </trkpt>
      <trkpt lat="42.385826" lon="-7.7102437">
        <time>2021-11-27T11:20:07Z</time>
      </trkpt>
      <trkpt lat="42.385826" lon="-7.710231">
        <time>2021-11-27T11:20:08Z</time>
      </trkpt>
      <trkpt lat="42.385826" lon="-7.710219">
        <time>2021-11-27T11:20:09Z</time>
      </trkpt>
      <trkpt lat="42.385826" lon="-7.7102075">
        <time>2021-11-27T11:20:10Z</time>
      </trkpt>
      <trkpt lat="42.38583" lon="-7.710196">
        <time>2021-11-27T11:20:11Z</time>
      </trkpt>
      <trkpt lat="42.385834" lon="-7.7101836">
        <time>2021-11-27T11:20:12Z</time>
      </trkpt>
      <trkpt lat="42.385834" lon="-7.7101727">
        <time>2021-11-27T11:20:13Z</time>
      </trkpt>
      <trkpt lat="42.385838" lon="-7.7101607">
        <time>2021-11-27T11:20:14Z</time>
      </trkpt>
      <trkpt lat="42.385838" lon="-7.710148">
        <time>2021-11-27T11:20:15Z</time>
      </trkpt>
      <trkpt lat="42.385838" lon="-7.710135">
        <time>2021-11-27T11:20:16Z</time>
      </trkpt>
      <trkpt lat="42.385838" lon="-7.710121">
        <time>2021-11-27T11:20:17Z</time>
      </trkpt>
      <trkpt lat="42.385838" lon="-7.7101054">
        <time>2021-11-27T11:20:18Z</time>
      </trkpt>
      <trkpt lat="42.385838" lon="-7.7100883">
        <time>2021-11-27T11:20:19Z</time>
      </trkpt>
      <trkpt lat="42.385838" lon="-7.710071">
        <time>2021-11-27T11:20:20Z</time>
      </trkpt>
      <trkpt lat="42.38584" lon="-7.7100525">
        <time>2021-11-27T11:20:21Z</time>
      </trkpt>
      <trkpt lat="42.385845" lon="-7.7100353">
        <time>2021-11-27T11:20:22Z</time>
      </trkpt>
      <trkpt lat="42.38585" lon="-7.710018">
        <time>2021-11-27T11:20:23Z</time>
      </trkpt>
      <trkpt lat="42.385853" lon="-7.7100034">
        <time>2021-11-27T11:20:24Z</time>
      </trkpt>
      <trkpt lat="42.38586" lon="-7.7099895">
        <time>2021-11-27T11:20:25Z</time>
      </trkpt>
      <trkpt lat="42.38586" lon="-7.7099743">
        <time>2021-11-27T11:20:26Z</time>
      </trkpt>
      <trkpt lat="42.38586" lon="-7.7099576">
        <time>2021-11-27T11:20:27Z</time>
      </trkpt>
      <trkpt lat="42.38586" lon="-7.709942">
        <time>2021-11-27T11:20:28Z</time>
      </trkpt>
      <trkpt lat="42.38586" lon="-7.7099276">
        <time>2021-11-27T11:20:29Z</time>
      </trkpt>
      <trkpt lat="42.385857" lon="-7.7099156">
        <time>2021-11-27T11:20:30Z</time>
      </trkpt>
      <trkpt lat="42.385857" lon="-7.7099047">
        <time>2021-11-27T11:20:31Z</time>
      </trkpt>
      <trkpt lat="42.385857" lon="-7.709893">
        <time>2021-11-27T11:20:32Z</time>
      </trkpt>
      <trkpt lat="42.385857" lon="-7.709882">
        <time>2021-11-27T11:20:33Z</time>
      </trkpt>
      <trkpt lat="42.38586" lon="-7.70987">
        <time>2021-11-27T11:20:34Z</time>
      </trkpt>
      <trkpt lat="42.385868" lon="-7.709856">
        <time>2021-11-27T11:20:35Z</time>
      </trkpt>
      <trkpt lat="42.385876" lon="-7.7098417">
        <time>2021-11-27T11:20:36Z</time>
      </trkpt>
      <trkpt lat="42.385883" lon="-7.7098265">
        <time>2021-11-27T11:20:37Z</time>
      </trkpt>
      <trkpt lat="42.38589" lon="-7.7098117">
        <time>2021-11-27T11:20:38Z</time>
      </trkpt>
      <trkpt lat="42.3859" lon="-7.709796">
        <time>2021-11-27T11:20:39Z</time>
      </trkpt>
      <trkpt lat="42.385902" lon="-7.7097793">
        <time>2021-11-27T11:20:40Z</time>
      </trkpt>
      <trkpt lat="42.385906" lon="-7.7097607">
        <time>2021-11-27T11:20:41Z</time>
      </trkpt>
      <trkpt lat="42.385914" lon="-7.7097435">
        <time>2021-11-27T11:20:42Z</time>
      </trkpt>
      <trkpt lat="42.38592" lon="-7.709727">
        <time>2021-11-27T11:20:43Z</time>
      </trkpt>
      <trkpt lat="42.385925" lon="-7.70971">
        <time>2021-11-27T11:20:44Z</time>
      </trkpt>
      <trkpt lat="42.38593" lon="-7.7096934">
        <time>2021-11-27T11:20:45Z</time>
      </trkpt>
      <trkpt lat="42.385937" lon="-7.7096786">
        <time>2021-11-27T11:20:45Z</time>
      </trkpt>
      <trkpt lat="42.385944" lon="-7.709665">
        <time>2021-11-27T11:20:46Z</time>
      </trkpt>
      <trkpt lat="42.385952" lon="-7.709651">
        <time>2021-11-27T11:20:47Z</time>
      </trkpt>
      <trkpt lat="42.38596" lon="-7.709637">
        <time>2021-11-27T11:20:48Z</time>
      </trkpt>
      <trkpt lat="42.385967" lon="-7.7096243">
        <time>2021-11-27T11:20:49Z</time>
      </trkpt>
      <trkpt lat="42.38598" lon="-7.709611">
        <time>2021-11-27T11:20:50Z</time>
      </trkpt>
      <trkpt lat="42.385986" lon="-7.7095966">
        <time>2021-11-27T11:20:51Z</time>
      </trkpt>
      <trkpt lat="42.385994" lon="-7.7095847">
        <time>2021-11-27T11:20:52Z</time>
      </trkpt>
      <trkpt lat="42.385998" lon="-7.7095733">
        <time>2021-11-27T11:20:53Z</time>
      </trkpt>
      <trkpt lat="42.386005" lon="-7.7095623">
        <time>2021-11-27T11:20:54Z</time>
      </trkpt>
      <trkpt lat="42.386005" lon="-7.709548">
        <time>2021-11-27T11:20:55Z</time>
      </trkpt>
      <trkpt lat="42.386013" lon="-7.709533">
        <time>2021-11-27T11:20:56Z</time>
      </trkpt>
      <trkpt lat="42.386013" lon="-7.709521">
        <time>2021-11-27T11:20:57Z</time>
      </trkpt>
      <trkpt lat="42.386013" lon="-7.709509">
        <time>2021-11-27T11:20:58Z</time>
      </trkpt>
      <trkpt lat="42.386013" lon="-7.7094994">
        <time>2021-11-27T11:20:59Z</time>
      </trkpt>
      <trkpt lat="42.386013" lon="-7.7094917">
        <time>2021-11-27T11:21:00Z</time>
      </trkpt>
      <trkpt lat="42.386013" lon="-7.7094827">
        <time>2021-11-27T11:21:01Z</time>
      </trkpt>
      <trkpt lat="42.386005" lon="-7.709475">
        <time>2021-11-27T11:21:02Z</time>
      </trkpt>
      <trkpt lat="42.386" lon="-7.7094674">
        <time>2021-11-27T11:21:03Z</time>
      </trkpt>
      <trkpt lat="42.385998" lon="-7.7094593">
        <time>2021-11-27T11:21:04Z</time>
      </trkpt>
      <trkpt lat="42.385994" lon="-7.7094502">
        <time>2021-11-27T11:21:05Z</time>
      </trkpt>
      <trkpt lat="42.38599" lon="-7.709442">
        <time>2021-11-27T11:21:06Z</time>
      </trkpt>
      <trkpt lat="42.385994" lon="-7.709432">
        <time>2021-11-27T11:21:07Z</time>
      </trkpt>
      <trkpt lat="42.38599" lon="-7.709417">
        <time>2021-11-27T11:21:08Z</time>
      </trkpt>
      <trkpt lat="42.38599" lon="-7.709402">
        <time>2021-11-27T11:21:09Z</time>
      </trkpt>
      <trkpt lat="42.385994" lon="-7.7093883">
        <time>2021-11-27T11:21:10Z</time>
      </trkpt>
      <trkpt lat="42.385998" lon="-7.7093735">
        <time>2021-11-27T11:21:11Z</time>
      </trkpt>
      <trkpt lat="42.386" lon="-7.709358">
        <time>2021-11-27T11:21:12Z</time>
      </trkpt>
      <trkpt lat="42.386005" lon="-7.709342">
        <time>2021-11-27T11:21:13Z</time>
      </trkpt>
      <trkpt lat="42.386005" lon="-7.709325">
        <time>2021-11-27T11:21:14Z</time>
      </trkpt>
      <trkpt lat="42.386005" lon="-7.7093077">
        <time>2021-11-27T11:21:15Z</time>
      </trkpt>
      <trkpt lat="42.386005" lon="-7.709292">
        <time>2021-11-27T11:21:16Z</time>
      </trkpt>
      <trkpt lat="42.386005" lon="-7.7092786">
        <time>2021-11-27T11:21:17Z</time>
      </trkpt>
      <trkpt lat="42.386013" lon="-7.709265">
        <time>2021-11-27T11:21:18Z</time>
      </trkpt>
      <trkpt lat="42.38602" lon="-7.7092514">
        <time>2021-11-27T11:21:19Z</time>
      </trkpt>
      <trkpt lat="42.386032" lon="-7.7092376">
        <time>2021-11-27T11:21:20Z</time>
      </trkpt>
      <trkpt lat="42.38604" lon="-7.709224">
        <time>2021-11-27T11:21:21Z</time>
      </trkpt>
      <trkpt lat="42.38605" lon="-7.7092104">
        <time>2021-11-27T11:21:22Z</time>
      </trkpt>
      <trkpt lat="42.386055" lon="-7.7091994">
        <time>2021-11-27T11:21:23Z</time>
      </trkpt>
      <trkpt lat="42.386063" lon="-7.709191">
        <time>2021-11-27T11:21:24Z</time>
      </trkpt>
      <trkpt lat="42.386074" lon="-7.709185">
        <time>2021-11-27T11:21:25Z</time>
      </trkpt>
      <trkpt lat="42.38608" lon="-7.709181">
        <time>2021-11-27T11:21:26Z</time>
      </trkpt>
      <trkpt lat="42.386093" lon="-7.7091765">
        <time>2021-11-27T11:21:27Z</time>
      </trkpt>
      <trkpt lat="42.3861" lon="-7.709172">
        <time>2021-11-27T11:21:28Z</time>
      </trkpt>
      <trkpt lat="42.38611" lon="-7.709168">
        <time>2021-11-27T11:21:30Z</time>
      </trkpt>
      <trkpt lat="42.386112" lon="-7.7091656">
        <time>2021-11-27T11:21:30Z</time>
      </trkpt>
      <trkpt lat="42.386124" lon="-7.7091603">
        <time>2021-11-27T11:21:31Z</time>
      </trkpt>
      <trkpt lat="42.38613" lon="-7.709155">
        <time>2021-11-27T11:21:32Z</time>
      </trkpt>
      <trkpt lat="42.38614" lon="-7.709148">
        <time>2021-11-27T11:21:33Z</time>
      </trkpt>
      <trkpt lat="42.386147" lon="-7.7091417">
        <time>2021-11-27T11:21:34Z</time>
      </trkpt>
      <trkpt lat="42.386154" lon="-7.709134">
        <time>2021-11-27T11:21:35Z</time>
      </trkpt>
      <trkpt lat="42.386158" lon="-7.709125">
        <time>2021-11-27T11:21:36Z</time>
      </trkpt>
      <trkpt lat="42.386166" lon="-7.709119">
        <time>2021-11-27T11:21:37Z</time>
      </trkpt>
      <trkpt lat="42.386177" lon="-7.709115">
        <time>2021-11-27T11:21:38Z</time>
      </trkpt>
      <trkpt lat="42.386185" lon="-7.709114">
        <time>2021-11-27T11:21:39Z</time>
      </trkpt>
      <trkpt lat="42.386196" lon="-7.709114">
        <time>2021-11-27T11:21:40Z</time>
      </trkpt>
      <trkpt lat="42.386208" lon="-7.709113">
        <time>2021-11-27T11:21:41Z</time>
      </trkpt>
      <trkpt lat="42.386215" lon="-7.709111">
        <time>2021-11-27T11:21:42Z</time>
      </trkpt>
      <trkpt lat="42.386223" lon="-7.7091093">
        <time>2021-11-27T11:21:43Z</time>
      </trkpt>
      <trkpt lat="42.38623" lon="-7.7091055">
        <time>2021-11-27T11:21:44Z</time>
      </trkpt>
      <trkpt lat="42.386234" lon="-7.7091017">
        <time>2021-11-27T11:21:45Z</time>
      </trkpt>
      <trkpt lat="42.386242" lon="-7.7090983">
        <time>2021-11-27T11:21:46Z</time>
      </trkpt>
      <trkpt lat="42.38625" lon="-7.7090964">
        <time>2021-11-27T11:21:47Z</time>
      </trkpt>
      <trkpt lat="42.38626" lon="-7.7090936">
        <time>2021-11-27T11:21:48Z</time>
      </trkpt>
      <trkpt lat="42.38627" lon="-7.709091">
        <time>2021-11-27T11:21:49Z</time>
      </trkpt>
      <trkpt lat="42.38628" lon="-7.709088">
        <time>2021-11-27T11:21:50Z</time>
      </trkpt>
      <trkpt lat="42.386288" lon="-7.709084">
        <time>2021-11-27T11:21:51Z</time>
      </trkpt>
      <trkpt lat="42.386295" lon="-7.7090797">
        <time>2021-11-27T11:21:52Z</time>
      </trkpt>
      <trkpt lat="42.386303" lon="-7.709076">
        <time>2021-11-27T11:21:53Z</time>
      </trkpt>
      <trkpt lat="42.386314" lon="-7.709071">
        <time>2021-11-27T11:21:54Z</time>
      </trkpt>
      <trkpt lat="42.386322" lon="-7.709065">
        <time>2021-11-27T11:21:55Z</time>
      </trkpt>
      <trkpt lat="42.38633" lon="-7.7090573">
        <time>2021-11-27T11:21:56Z</time>
      </trkpt>
      <trkpt lat="42.386337" lon="-7.709048">
        <time>2021-11-27T11:21:57Z</time>
      </trkpt>
      <trkpt lat="42.386345" lon="-7.709037">
        <time>2021-11-27T11:21:58Z</time>
      </trkpt>
      <trkpt lat="42.38635" lon="-7.7090254">
        <time>2021-11-27T11:21:59Z</time>
      </trkpt>
      <trkpt lat="42.386356" lon="-7.709015">
        <time>2021-11-27T11:22:00Z</time>
      </trkpt>
      <trkpt lat="42.386356" lon="-7.709004">
        <time>2021-11-27T11:22:01Z</time>
      </trkpt>
      <trkpt lat="42.386364" lon="-7.708994">
        <time>2021-11-27T11:22:02Z</time>
      </trkpt>
      <trkpt lat="42.386364" lon="-7.7089844">
        <time>2021-11-27T11:22:03Z</time>
      </trkpt>
      <trkpt lat="42.386375" lon="-7.708975">
        <time>2021-11-27T11:22:04Z</time>
      </trkpt>
      <trkpt lat="42.386383" lon="-7.7089653">
        <time>2021-11-27T11:22:05Z</time>
      </trkpt>
      <trkpt lat="42.386395" lon="-7.7089543">
        <time>2021-11-27T11:22:06Z</time>
      </trkpt>
      <trkpt lat="42.386402" lon="-7.708944">
        <time>2021-11-27T11:22:07Z</time>
      </trkpt>
      <trkpt lat="42.386417" lon="-7.7089353">
        <time>2021-11-27T11:22:08Z</time>
      </trkpt>
      <trkpt lat="42.386425" lon="-7.708926">
        <time>2021-11-27T11:22:09Z</time>
      </trkpt>
      <trkpt lat="42.386436" lon="-7.708919">
        <time>2021-11-27T11:22:10Z</time>
      </trkpt>
      <trkpt lat="42.386448" lon="-7.708913">
        <time>2021-11-27T11:22:11Z</time>
      </trkpt>
      <trkpt lat="42.38646" lon="-7.7089076">
        <time>2021-11-27T11:22:12Z</time>
      </trkpt>
      <trkpt lat="42.38647" lon="-7.708904">
        <time>2021-11-27T11:22:13Z</time>
      </trkpt>
      <trkpt lat="42.386482" lon="-7.7088985">
        <time>2021-11-27T11:22:14Z</time>
      </trkpt>
      <trkpt lat="42.386494" lon="-7.7088923">
        <time>2021-11-27T11:22:15Z</time>
      </trkpt>
      <trkpt lat="42.386505" lon="-7.7088857">
        <time>2021-11-27T11:22:16Z</time>
      </trkpt>
      <trkpt lat="42.386517" lon="-7.7088785">
        <time>2021-11-27T11:22:17Z</time>
      </trkpt>
      <trkpt lat="42.386524" lon="-7.708871">
        <time>2021-11-27T11:22:18Z</time>
      </trkpt>
      <trkpt lat="42.38653" lon="-7.708865">
        <time>2021-11-27T11:22:19Z</time>
      </trkpt>
      <trkpt lat="42.386543" lon="-7.7088614">
        <time>2021-11-27T11:22:20Z</time>
      </trkpt>
      <trkpt lat="42.38655" lon="-7.7088604">
        <time>2021-11-27T11:22:21Z</time>
      </trkpt>
      <trkpt lat="42.386562" lon="-7.708861">
        <time>2021-11-27T11:22:22Z</time>
      </trkpt>
      <trkpt lat="42.386574" lon="-7.7088614">
        <time>2021-11-27T11:22:23Z</time>
      </trkpt>
      <trkpt lat="42.38658" lon="-7.7088633">
        <time>2021-11-27T11:22:24Z</time>
      </trkpt>
      <trkpt lat="42.38659" lon="-7.7088666">
        <time>2021-11-27T11:22:25Z</time>
      </trkpt>
      <trkpt lat="42.386597" lon="-7.70887">
        <time>2021-11-27T11:22:26Z</time>
      </trkpt>
      <trkpt lat="42.386604" lon="-7.708872">
        <time>2021-11-27T11:22:27Z</time>
      </trkpt>
      <trkpt lat="42.386616" lon="-7.7088737">
        <time>2021-11-27T11:22:28Z</time>
      </trkpt>
      <trkpt lat="42.386627" lon="-7.7088747">
        <time>2021-11-27T11:22:29Z</time>
      </trkpt>
      <trkpt lat="42.38664" lon="-7.7088747">
        <time>2021-11-27T11:22:31Z</time>
      </trkpt>
      <trkpt lat="42.38665" lon="-7.7088757">
        <time>2021-11-27T11:22:31Z</time>
      </trkpt>
      <trkpt lat="42.38666" lon="-7.7088747">
        <time>2021-11-27T11:22:32Z</time>
      </trkpt>
      <trkpt lat="42.386673" lon="-7.708874">
        <time>2021-11-27T11:22:33Z</time>
      </trkpt>
      <trkpt lat="42.38669" lon="-7.7088737">
        <time>2021-11-27T11:22:34Z</time>
      </trkpt>
      <trkpt lat="42.3867" lon="-7.708872">
        <time>2021-11-27T11:22:35Z</time>
      </trkpt>
      <trkpt lat="42.386707" lon="-7.708873">
        <time>2021-11-27T11:22:36Z</time>
      </trkpt>
      <trkpt lat="42.38672" lon="-7.7088747">
        <time>2021-11-27T11:22:37Z</time>
      </trkpt>
      <trkpt lat="42.38673" lon="-7.7088776">
        <time>2021-11-27T11:22:38Z</time>
      </trkpt>
      <trkpt lat="42.386738" lon="-7.7088795">
        <time>2021-11-27T11:22:39Z</time>
      </trkpt>
      <trkpt lat="42.386745" lon="-7.7088833">
        <time>2021-11-27T11:22:40Z</time>
      </trkpt>
      <trkpt lat="42.38676" lon="-7.708891">
        <time>2021-11-27T11:22:41Z</time>
      </trkpt>
      <trkpt lat="42.38677" lon="-7.7089">
        <time>2021-11-27T11:22:42Z</time>
      </trkpt>
      <trkpt lat="42.38678" lon="-7.70891">
        <time>2021-11-27T11:22:43Z</time>
      </trkpt>
      <trkpt lat="42.38679" lon="-7.7089224">
        <time>2021-11-27T11:22:44Z</time>
      </trkpt>
      <trkpt lat="42.386803" lon="-7.7089357">
        <time>2021-11-27T11:22:45Z</time>
      </trkpt>
      <trkpt lat="42.386814" lon="-7.7089486">
        <time>2021-11-27T11:22:46Z</time>
      </trkpt>
      <trkpt lat="42.38682" lon="-7.70896">
        <time>2021-11-27T11:22:47Z</time>
      </trkpt>
      <trkpt lat="42.38683" lon="-7.7089734">
        <time>2021-11-27T11:22:48Z</time>
      </trkpt>
      <trkpt lat="42.386837" lon="-7.708988">
        <time>2021-11-27T11:22:49Z</time>
      </trkpt>
      <trkpt lat="42.386845" lon="-7.709002">
        <time>2021-11-27T11:22:50Z</time>
      </trkpt>
      <trkpt lat="42.386852" lon="-7.709017">
        <time>2021-11-27T11:22:51Z</time>
      </trkpt>
      <trkpt lat="42.386864" lon="-7.7090316">
        <time>2021-11-27T11:22:52Z</time>
      </trkpt>
      <trkpt lat="42.386875" lon="-7.7090445">
        <time>2021-11-27T11:22:53Z</time>
      </trkpt>
      <trkpt lat="42.38689" lon="-7.709058">
        <time>2021-11-27T11:22:54Z</time>
      </trkpt>
      <trkpt lat="42.3869" lon="-7.70907">
        <time>2021-11-27T11:22:55Z</time>
      </trkpt>
      <trkpt lat="42.386917" lon="-7.709084">
        <time>2021-11-27T11:22:56Z</time>
      </trkpt>
      <trkpt lat="42.386932" lon="-7.7090945">
        <time>2021-11-27T11:22:57Z</time>
      </trkpt>
      <trkpt lat="42.386948" lon="-7.7091036">
        <time>2021-11-27T11:22:58Z</time>
      </trkpt>
      <trkpt lat="42.386963" lon="-7.7091103">
        <time>2021-11-27T11:22:59Z</time>
      </trkpt>
      <trkpt lat="42.38698" lon="-7.709114">
        <time>2021-11-27T11:23:00Z</time>
      </trkpt>
      <trkpt lat="42.38699" lon="-7.709116">
        <time>2021-11-27T11:23:01Z</time>
      </trkpt>
      <trkpt lat="42.387" lon="-7.7091174">
        <time>2021-11-27T11:23:02Z</time>
      </trkpt>
      <trkpt lat="42.38701" lon="-7.709118">
        <time>2021-11-27T11:23:03Z</time>
      </trkpt>
      <trkpt lat="42.387024" lon="-7.709118">
        <time>2021-11-27T11:23:04Z</time>
      </trkpt>
      <trkpt lat="42.387035" lon="-7.709117">
        <time>2021-11-27T11:23:05Z</time>
      </trkpt>
      <trkpt lat="42.387047" lon="-7.709117">
        <time>2021-11-27T11:23:07Z</time>
      </trkpt>
      <trkpt lat="42.387066" lon="-7.709116">
        <time>2021-11-27T11:23:08Z</time>
      </trkpt>
      <trkpt lat="42.38708" lon="-7.709114">
        <time>2021-11-27T11:23:09Z</time>
      </trkpt>
      <trkpt lat="42.387096" lon="-7.7091117">
        <time>2021-11-27T11:23:10Z</time>
      </trkpt>
      <trkpt lat="42.387108" lon="-7.7091055">
        <time>2021-11-27T11:23:11Z</time>
      </trkpt>
      <trkpt lat="42.38712" lon="-7.709099">
        <time>2021-11-27T11:23:12Z</time>
      </trkpt>
      <trkpt lat="42.38713" lon="-7.709091">
        <time>2021-11-27T11:23:13Z</time>
      </trkpt>
      <trkpt lat="42.387142" lon="-7.709083">
        <time>2021-11-27T11:23:14Z</time>
      </trkpt>
      <trkpt lat="42.38715" lon="-7.709074">
        <time>2021-11-27T11:23:15Z</time>
      </trkpt>
      <trkpt lat="42.38716" lon="-7.7090654">
        <time>2021-11-27T11:23:16Z</time>
      </trkpt>
      <trkpt lat="42.387173" lon="-7.709059">
        <time>2021-11-27T11:23:17Z</time>
      </trkpt>
      <trkpt lat="42.387184" lon="-7.7090507">
        <time>2021-11-27T11:23:18Z</time>
      </trkpt>
      <trkpt lat="42.387196" lon="-7.7090445">
        <time>2021-11-27T11:23:19Z</time>
      </trkpt>
      <trkpt lat="42.387207" lon="-7.70904">
        <time>2021-11-27T11:23:20Z</time>
      </trkpt>
      <trkpt lat="42.387222" lon="-7.7090364">
        <time>2021-11-27T11:23:21Z</time>
      </trkpt>
      <trkpt lat="42.387234" lon="-7.7090316">
        <time>2021-11-27T11:23:22Z</time>
      </trkpt>
      <trkpt lat="42.387245" lon="-7.7090273">
        <time>2021-11-27T11:23:23Z</time>
      </trkpt>
      <trkpt lat="42.387257" lon="-7.7090206">
        <time>2021-11-27T11:23:24Z</time>
      </trkpt>
      <trkpt lat="42.387268" lon="-7.709014">
        <time>2021-11-27T11:23:25Z</time>
      </trkpt>
      <trkpt lat="42.387283" lon="-7.7090034">
        <time>2021-11-27T11:23:26Z</time>
      </trkpt>
      <trkpt lat="42.38729" lon="-7.7089925">
        <time>2021-11-27T11:23:27Z</time>
      </trkpt>
      <trkpt lat="42.387302" lon="-7.708981">
        <time>2021-11-27T11:23:28Z</time>
      </trkpt>
      <trkpt lat="42.387314" lon="-7.708971">
        <time>2021-11-27T11:23:29Z</time>
      </trkpt>
      <trkpt lat="42.387325" lon="-7.708962">
        <time>2021-11-27T11:23:30Z</time>
      </trkpt>
      <trkpt lat="42.38736" lon="-7.708923">
        <time>2021-11-27T11:23:32Z</time>
      </trkpt>
      <trkpt lat="42.38736" lon="-7.7089224">
        <time>2021-11-27T11:23:33Z</time>
      </trkpt>
      <trkpt lat="42.387367" lon="-7.7089214">
        <time>2021-11-27T11:23:34Z</time>
      </trkpt>
      <trkpt lat="42.387375" lon="-7.708921">
        <time>2021-11-27T11:23:35Z</time>
      </trkpt>
      <trkpt lat="42.387383" lon="-7.7089186">
        <time>2021-11-27T11:23:36Z</time>
      </trkpt>
      <trkpt lat="42.38739" lon="-7.708914">
        <time>2021-11-27T11:23:37Z</time>
      </trkpt>
      <trkpt lat="42.387405" lon="-7.7089067">
        <time>2021-11-27T11:23:38Z</time>
      </trkpt>
      <trkpt lat="42.387417" lon="-7.708899">
        <time>2021-11-27T11:23:39Z</time>
      </trkpt>
      <trkpt lat="42.38743" lon="-7.7088923">
        <time>2021-11-27T11:23:40Z</time>
      </trkpt>
      <trkpt lat="42.38744" lon="-7.7088876">
        <time>2021-11-27T11:23:41Z</time>
      </trkpt>
      <trkpt lat="42.387447" lon="-7.708882">
        <time>2021-11-27T11:23:42Z</time>
      </trkpt>
      <trkpt lat="42.38746" lon="-7.7088747">
        <time>2021-11-27T11:23:43Z</time>
      </trkpt>
      <trkpt lat="42.38747" lon="-7.7088685">
        <time>2021-11-27T11:23:44Z</time>
      </trkpt>
      <trkpt lat="42.387486" lon="-7.7088633">
        <time>2021-11-27T11:23:45Z</time>
      </trkpt>
      <trkpt lat="42.387493" lon="-7.708859">
        <time>2021-11-27T11:23:46Z</time>
      </trkpt>
      <trkpt lat="42.38751" lon="-7.708855">
        <time>2021-11-27T11:23:47Z</time>
      </trkpt>
      <trkpt lat="42.38752" lon="-7.7088504">
        <time>2021-11-27T11:23:48Z</time>
      </trkpt>
      <trkpt lat="42.38753" lon="-7.708848">
        <time>2021-11-27T11:23:49Z</time>
      </trkpt>
      <trkpt lat="42.387543" lon="-7.708844">
        <time>2021-11-27T11:23:50Z</time>
      </trkpt>
      <trkpt lat="42.387554" lon="-7.7088437">
        <time>2021-11-27T11:23:51Z</time>
      </trkpt>
      <trkpt lat="42.387566" lon="-7.7088423">
        <time>2021-11-27T11:23:52Z</time>
      </trkpt>
      <trkpt lat="42.38758" lon="-7.7088404">
        <time>2021-11-27T11:23:53Z</time>
      </trkpt>
      <trkpt lat="42.387596" lon="-7.708838">
        <time>2021-11-27T11:23:54Z</time>
      </trkpt>
      <trkpt lat="42.387608" lon="-7.708833">
        <time>2021-11-27T11:23:55Z</time>
      </trkpt>
      <trkpt lat="42.38762" lon="-7.7088313">
        <time>2021-11-27T11:23:56Z</time>
      </trkpt>
      <trkpt lat="42.387627" lon="-7.708831">
        <time>2021-11-27T11:23:57Z</time>
      </trkpt>
      <trkpt lat="42.387638" lon="-7.708833">
        <time>2021-11-27T11:23:58Z</time>
      </trkpt>
      <trkpt lat="42.387676" lon="-7.7088532">
        <time>2021-11-27T11:24:00Z</time>
      </trkpt>
      <trkpt lat="42.38768" lon="-7.708854">
        <time>2021-11-27T11:24:01Z</time>
      </trkpt>
      <trkpt lat="42.387684" lon="-7.708858">
        <time>2021-11-27T11:24:02Z</time>
      </trkpt>
      <trkpt lat="42.38769" lon="-7.708863">
        <time>2021-11-27T11:24:03Z</time>
      </trkpt>
      <trkpt lat="42.3877" lon="-7.708867">
        <time>2021-11-27T11:24:04Z</time>
      </trkpt>
      <trkpt lat="42.387707" lon="-7.708871">
        <time>2021-11-27T11:24:05Z</time>
      </trkpt>
      <trkpt lat="42.387714" lon="-7.7088747">
        <time>2021-11-27T11:24:06Z</time>
      </trkpt>
      <trkpt lat="42.387726" lon="-7.7088804">
        <time>2021-11-27T11:24:07Z</time>
      </trkpt>
      <trkpt lat="42.387737" lon="-7.708885">
        <time>2021-11-27T11:24:09Z</time>
      </trkpt>
      <trkpt lat="42.387753" lon="-7.7088866">
        <time>2021-11-27T11:24:10Z</time>
      </trkpt>
      <trkpt lat="42.387806" lon="-7.7088885">
        <time>2021-11-27T11:24:12Z</time>
      </trkpt>
      <trkpt lat="42.387806" lon="-7.7088885">
        <time>2021-11-27T11:24:13Z</time>
      </trkpt>
      <trkpt lat="42.387806" lon="-7.7088895">
        <time>2021-11-27T11:24:14Z</time>
      </trkpt>
      <trkpt lat="42.387814" lon="-7.7088923">
        <time>2021-11-27T11:24:15Z</time>
      </trkpt>
      <trkpt lat="42.38782" lon="-7.708896">
        <time>2021-11-27T11:24:16Z</time>
      </trkpt>
      <trkpt lat="42.38783" lon="-7.7089005">
        <time>2021-11-27T11:24:17Z</time>
      </trkpt>
      <trkpt lat="42.387836" lon="-7.708906">
        <time>2021-11-27T11:24:18Z</time>
      </trkpt>
      <trkpt lat="42.387844" lon="-7.708913">
        <time>2021-11-27T11:24:19Z</time>
      </trkpt>
      <trkpt lat="42.38785" lon="-7.7089186">
        <time>2021-11-27T11:24:20Z</time>
      </trkpt>
      <trkpt lat="42.38786" lon="-7.7089243">
        <time>2021-11-27T11:24:21Z</time>
      </trkpt>
      <trkpt lat="42.387867" lon="-7.708929">
        <time>2021-11-27T11:24:22Z</time>
      </trkpt>
      <trkpt lat="42.38788" lon="-7.7089353">
        <time>2021-11-27T11:24:23Z</time>
      </trkpt>
      <trkpt lat="42.38793" lon="-7.708968">
        <time>2021-11-27T11:24:25Z</time>
      </trkpt>
      <trkpt lat="42.387936" lon="-7.708969">
        <time>2021-11-27T11:24:26Z</time>
      </trkpt>
      <trkpt lat="42.388" lon="-7.7089934">
        <time>2021-11-27T11:24:30Z</time>
      </trkpt>
      <trkpt lat="42.388" lon="-7.7089944">
        <time>2021-11-27T11:24:31Z</time>
      </trkpt>
      <trkpt lat="42.38801" lon="-7.7089972">
        <time>2021-11-27T11:24:32Z</time>
      </trkpt>
      <trkpt lat="42.38801" lon="-7.7090034">
        <time>2021-11-27T11:24:33Z</time>
      </trkpt>
      <trkpt lat="42.388016" lon="-7.709009">
        <time>2021-11-27T11:24:34Z</time>
      </trkpt>
      <trkpt lat="42.388023" lon="-7.709013">
        <time>2021-11-27T11:24:35Z</time>
      </trkpt>
      <trkpt lat="42.38804" lon="-7.709017">
        <time>2021-11-27T11:24:36Z</time>
      </trkpt>
      <trkpt lat="42.388046" lon="-7.70902">
        <time>2021-11-27T11:24:37Z</time>
      </trkpt>
      <trkpt lat="42.38806" lon="-7.7090244">
        <time>2021-11-27T11:24:38Z</time>
      </trkpt>
      <trkpt lat="42.388073" lon="-7.7090297">
        <time>2021-11-27T11:24:39Z</time>
      </trkpt>
      <trkpt lat="42.388084" lon="-7.7090354">
        <time>2021-11-27T11:24:40Z</time>
      </trkpt>
      <trkpt lat="42.3881" lon="-7.709041">
        <time>2021-11-27T11:24:41Z</time>
      </trkpt>
      <trkpt lat="42.38811" lon="-7.7090464">
        <time>2021-11-27T11:24:42Z</time>
      </trkpt>
      <trkpt lat="42.38813" lon="-7.7090507">
        <time>2021-11-27T11:24:43Z</time>
      </trkpt>
      <trkpt lat="42.388145" lon="-7.7090554">
        <time>2021-11-27T11:24:44Z</time>
      </trkpt>
      <trkpt lat="42.38816" lon="-7.709059">
        <time>2021-11-27T11:24:45Z</time>
      </trkpt>
      <trkpt lat="42.38818" lon="-7.7090607">
        <time>2021-11-27T11:24:46Z</time>
      </trkpt>
      <trkpt lat="42.3882" lon="-7.709061">
        <time>2021-11-27T11:24:47Z</time>
      </trkpt>
      <trkpt lat="42.388256" lon="-7.7090464">
        <time>2021-11-27T11:24:49Z</time>
      </trkpt>
      <trkpt lat="42.388256" lon="-7.709044">
        <time>2021-11-27T11:24:50Z</time>
      </trkpt>
      <trkpt lat="42.388264" lon="-7.7090387">
        <time>2021-11-27T11:24:51Z</time>
      </trkpt>
      <trkpt lat="42.388264" lon="-7.709031">
        <time>2021-11-27T11:24:52Z</time>
      </trkpt>
      <trkpt lat="42.388268" lon="-7.709024">
        <time>2021-11-27T11:24:53Z</time>
      </trkpt>
      <trkpt lat="42.38827" lon="-7.709015">
        <time>2021-11-27T11:24:54Z</time>
      </trkpt>
      <trkpt lat="42.388275" lon="-7.7090063">
        <time>2021-11-27T11:24:55Z</time>
      </trkpt>
      <trkpt lat="42.388283" lon="-7.7089972">
        <time>2021-11-27T11:24:56Z</time>
      </trkpt>
      <trkpt lat="42.38829" lon="-7.7089887">
        <time>2021-11-27T11:24:57Z</time>
      </trkpt>
      <trkpt lat="42.388298" lon="-7.7089806">
        <time>2021-11-27T11:24:58Z</time>
      </trkpt>
      <trkpt lat="42.388306" lon="-7.708974">
        <time>2021-11-27T11:24:59Z</time>
      </trkpt>
      <trkpt lat="42.388317" lon="-7.7089663">
        <time>2021-11-27T11:25:00Z</time>
      </trkpt>
      <trkpt lat="42.388325" lon="-7.7089596">
        <time>2021-11-27T11:25:00Z</time>
      </trkpt>
      <trkpt lat="42.388332" lon="-7.7089505">
        <time>2021-11-27T11:25:01Z</time>
      </trkpt>
      <trkpt lat="42.38834" lon="-7.70894">
        <time>2021-11-27T11:25:02Z</time>
      </trkpt>
      <trkpt lat="42.388348" lon="-7.7089305">
        <time>2021-11-27T11:25:03Z</time>
      </trkpt>
      <trkpt lat="42.388355" lon="-7.7089195">
        <time>2021-11-27T11:25:04Z</time>
      </trkpt>
      <trkpt lat="42.388367" lon="-7.7089095">
        <time>2021-11-27T11:25:05Z</time>
      </trkpt>
      <trkpt lat="42.388374" lon="-7.708901">
        <time>2021-11-27T11:25:06Z</time>
      </trkpt>
      <trkpt lat="42.388382" lon="-7.7088923">
        <time>2021-11-27T11:25:07Z</time>
      </trkpt>
      <trkpt lat="42.38839" lon="-7.7088847">
        <time>2021-11-27T11:25:08Z</time>
      </trkpt>
      <trkpt lat="42.3884" lon="-7.7088766">
        <time>2021-11-27T11:25:09Z</time>
      </trkpt>
      <trkpt lat="42.388412" lon="-7.708869">
        <time>2021-11-27T11:25:10Z</time>
      </trkpt>
      <trkpt lat="42.38842" lon="-7.7088604">
        <time>2021-11-27T11:25:11Z</time>
      </trkpt>
      <trkpt lat="42.388428" lon="-7.7088532">
        <time>2021-11-27T11:25:12Z</time>
      </trkpt>
      <trkpt lat="42.38843" lon="-7.7088447">
        <time>2021-11-27T11:25:13Z</time>
      </trkpt>
      <trkpt lat="42.38844" lon="-7.7088356">
        <time>2021-11-27T11:25:14Z</time>
      </trkpt>
      <trkpt lat="42.388447" lon="-7.708827">
        <time>2021-11-27T11:25:15Z</time>
      </trkpt>
      <trkpt lat="42.38846" lon="-7.7088184">
        <time>2021-11-27T11:25:16Z</time>
      </trkpt>
      <trkpt lat="42.388466" lon="-7.708811">
        <time>2021-11-27T11:25:17Z</time>
      </trkpt>
      <trkpt lat="42.388474" lon="-7.7088065">
        <time>2021-11-27T11:25:18Z</time>
      </trkpt>
      <trkpt lat="42.388485" lon="-7.7088027">
        <time>2021-11-27T11:25:19Z</time>
      </trkpt>
      <trkpt lat="42.388496" lon="-7.708796">
        <time>2021-11-27T11:25:20Z</time>
      </trkpt>
      <trkpt lat="42.388504" lon="-7.7087903">
        <time>2021-11-27T11:25:21Z</time>
      </trkpt>
      <trkpt lat="42.388515" lon="-7.7087865">
        <time>2021-11-27T11:25:22Z</time>
      </trkpt>
      <trkpt lat="42.388527" lon="-7.708783">
        <time>2021-11-27T11:25:23Z</time>
      </trkpt>
      <trkpt lat="42.388535" lon="-7.708781">
        <time>2021-11-27T11:25:24Z</time>
      </trkpt>
      <trkpt lat="42.38855" lon="-7.708779">
        <time>2021-11-27T11:25:25Z</time>
      </trkpt>
      <trkpt lat="42.38856" lon="-7.7087784">
        <time>2021-11-27T11:25:26Z</time>
      </trkpt>
      <trkpt lat="42.388577" lon="-7.708777">
        <time>2021-11-27T11:25:27Z</time>
      </trkpt>
      <trkpt lat="42.388588" lon="-7.7087765">
        <time>2021-11-27T11:25:30Z</time>
      </trkpt>
      <trkpt lat="42.3886" lon="-7.7087746">
        <time>2021-11-27T11:25:31Z</time>
      </trkpt>
      <trkpt lat="42.388615" lon="-7.708773">
        <time>2021-11-27T11:25:31Z</time>
      </trkpt>
      <trkpt lat="42.388626" lon="-7.7087717">
        <time>2021-11-27T11:25:31Z</time>
      </trkpt>
      <trkpt lat="42.38864" lon="-7.7087708">
        <time>2021-11-27T11:25:32Z</time>
      </trkpt>
      <trkpt lat="42.388653" lon="-7.708769">
        <time>2021-11-27T11:25:33Z</time>
      </trkpt>
      <trkpt lat="42.388664" lon="-7.708766">
        <time>2021-11-27T11:25:34Z</time>
      </trkpt>
      <trkpt lat="42.388676" lon="-7.7087626">
        <time>2021-11-27T11:25:35Z</time>
      </trkpt>
      <trkpt lat="42.388687" lon="-7.7087603">
        <time>2021-11-27T11:25:36Z</time>
      </trkpt>
      <trkpt lat="42.3887" lon="-7.7087584">
        <time>2021-11-27T11:25:37Z</time>
      </trkpt>
      <trkpt lat="42.38871" lon="-7.708758">
        <time>2021-11-27T11:25:38Z</time>
      </trkpt>
      <trkpt lat="42.38872" lon="-7.708758">
        <time>2021-11-27T11:25:39Z</time>
      </trkpt>
      <trkpt lat="42.388733" lon="-7.708759">
        <time>2021-11-27T11:25:40Z</time>
      </trkpt>
      <trkpt lat="42.388744" lon="-7.70876">
        <time>2021-11-27T11:25:41Z</time>
      </trkpt>
      <trkpt lat="42.388756" lon="-7.7087603">
        <time>2021-11-27T11:25:42Z</time>
      </trkpt>
      <trkpt lat="42.38877" lon="-7.7087603">
        <time>2021-11-27T11:25:43Z</time>
      </trkpt>
      <trkpt lat="42.38878" lon="-7.7087603">
        <time>2021-11-27T11:25:44Z</time>
      </trkpt>
      <trkpt lat="42.388794" lon="-7.7087603">
        <time>2021-11-27T11:25:45Z</time>
      </trkpt>
      <trkpt lat="42.388805" lon="-7.7087636">
        <time>2021-11-27T11:25:46Z</time>
      </trkpt>
      <trkpt lat="42.388817" lon="-7.7087674">
        <time>2021-11-27T11:25:47Z</time>
      </trkpt>
      <trkpt lat="42.388832" lon="-7.7087708">
        <time>2021-11-27T11:25:48Z</time>
      </trkpt>
      <trkpt lat="42.388844" lon="-7.7087755">
        <time>2021-11-27T11:25:49Z</time>
      </trkpt>
      <trkpt lat="42.388855" lon="-7.708783">
        <time>2021-11-27T11:25:50Z</time>
      </trkpt>
      <trkpt lat="42.38887" lon="-7.7087913">
        <time>2021-11-27T11:25:51Z</time>
      </trkpt>
      <trkpt lat="42.38888" lon="-7.7087994">
        <time>2021-11-27T11:25:52Z</time>
      </trkpt>
      <trkpt lat="42.388893" lon="-7.7088065">
        <time>2021-11-27T11:25:53Z</time>
      </trkpt>
      <trkpt lat="42.388905" lon="-7.708814">
        <time>2021-11-27T11:25:54Z</time>
      </trkpt>
      <trkpt lat="42.388916" lon="-7.7088213">
        <time>2021-11-27T11:25:55Z</time>
      </trkpt>
      <trkpt lat="42.38893" lon="-7.7088275">
        <time>2021-11-27T11:25:56Z</time>
      </trkpt>
      <trkpt lat="42.38894" lon="-7.7088327">
        <time>2021-11-27T11:25:57Z</time>
      </trkpt>
      <trkpt lat="42.388954" lon="-7.708838">
        <time>2021-11-27T11:25:58Z</time>
      </trkpt>
      <trkpt lat="42.388966" lon="-7.7088428">
        <time>2021-11-27T11:25:59Z</time>
      </trkpt>
      <trkpt lat="42.388977" lon="-7.7088494">
        <time>2021-11-27T11:26:00Z</time>
      </trkpt>
      <trkpt lat="42.38899" lon="-7.7088537">
        <time>2021-11-27T11:26:01Z</time>
      </trkpt>
      <trkpt lat="42.389004" lon="-7.7088556">
        <time>2021-11-27T11:26:02Z</time>
      </trkpt>
      <trkpt lat="42.389015" lon="-7.708857">
        <time>2021-11-27T11:26:03Z</time>
      </trkpt>
      <trkpt lat="42.389027" lon="-7.708857">
        <time>2021-11-27T11:26:04Z</time>
      </trkpt>
      <trkpt lat="42.38904" lon="-7.708855">
        <time>2021-11-27T11:26:05Z</time>
      </trkpt>
      <trkpt lat="42.389053" lon="-7.708852">
        <time>2021-11-27T11:26:06Z</time>
      </trkpt>
      <trkpt lat="42.389065" lon="-7.7088485">
        <time>2021-11-27T11:26:07Z</time>
      </trkpt>
      <trkpt lat="42.389072" lon="-7.708844">
        <time>2021-11-27T11:26:08Z</time>
      </trkpt>
      <trkpt lat="42.389084" lon="-7.7088385">
        <time>2021-11-27T11:26:09Z</time>
      </trkpt>
      <trkpt lat="42.389095" lon="-7.708829">
        <time>2021-11-27T11:26:10Z</time>
      </trkpt>
      <trkpt lat="42.389107" lon="-7.7088194">
        <time>2021-11-27T11:26:11Z</time>
      </trkpt>
      <trkpt lat="42.38912" lon="-7.708814">
        <time>2021-11-27T11:26:12Z</time>
      </trkpt>
      <trkpt lat="42.389126" lon="-7.7088094">
        <time>2021-11-27T11:26:13Z</time>
      </trkpt>
      <trkpt lat="42.389145" lon="-7.7088046">
        <time>2021-11-27T11:26:14Z</time>
      </trkpt>
      <trkpt lat="42.38916" lon="-7.7087994">
        <time>2021-11-27T11:26:15Z</time>
      </trkpt>
      <trkpt lat="42.389175" lon="-7.708796">
        <time>2021-11-27T11:26:16Z</time>
      </trkpt>
      <trkpt lat="42.38919" lon="-7.708796">
        <time>2021-11-27T11:26:17Z</time>
      </trkpt>
      <trkpt lat="42.389206" lon="-7.708799">
        <time>2021-11-27T11:26:18Z</time>
      </trkpt>
      <trkpt lat="42.389217" lon="-7.708803">
        <time>2021-11-27T11:26:19Z</time>
      </trkpt>
      <trkpt lat="42.38923" lon="-7.708811">
        <time>2021-11-27T11:26:20Z</time>
      </trkpt>
      <trkpt lat="42.389236" lon="-7.708823">
        <time>2021-11-27T11:26:21Z</time>
      </trkpt>
      <trkpt lat="42.38924" lon="-7.7088385">
        <time>2021-11-27T11:26:22Z</time>
      </trkpt>
      <trkpt lat="42.389244" lon="-7.708855">
        <time>2021-11-27T11:26:23Z</time>
      </trkpt>
      <trkpt lat="42.389248" lon="-7.7088723">
        <time>2021-11-27T11:26:24Z</time>
      </trkpt>
      <trkpt lat="42.38925" lon="-7.7088885">
        <time>2021-11-27T11:26:25Z</time>
      </trkpt>
      <trkpt lat="42.38925" lon="-7.708908">
        <time>2021-11-27T11:26:26Z</time>
      </trkpt>
      <trkpt lat="42.38925" lon="-7.7089286">
        <time>2021-11-27T11:26:27Z</time>
      </trkpt>
      <trkpt lat="42.38925" lon="-7.708949">
        <time>2021-11-27T11:26:30Z</time>
      </trkpt>
      <trkpt lat="42.389244" lon="-7.7089677">
        <time>2021-11-27T11:26:30Z</time>
      </trkpt>
      <trkpt lat="42.389244" lon="-7.7089877">
        <time>2021-11-27T11:26:30Z</time>
      </trkpt>
      <trkpt lat="42.38924" lon="-7.7090087">
        <time>2021-11-27T11:26:31Z</time>
      </trkpt>
      <trkpt lat="42.389236" lon="-7.709029">
        <time>2021-11-27T11:26:32Z</time>
      </trkpt>
      <trkpt lat="42.389233" lon="-7.709052">
        <time>2021-11-27T11:26:33Z</time>
      </trkpt>
      <trkpt lat="42.38923" lon="-7.709074">
        <time>2021-11-27T11:26:34Z</time>
      </trkpt>
      <trkpt lat="42.389225" lon="-7.7090936">
        <time>2021-11-27T11:26:35Z</time>
      </trkpt>
      <trkpt lat="42.38922" lon="-7.7091136">
        <time>2021-11-27T11:26:36Z</time>
      </trkpt>
      <trkpt lat="42.389217" lon="-7.7091327">
        <time>2021-11-27T11:26:37Z</time>
      </trkpt>
      <trkpt lat="42.389214" lon="-7.7091527">
        <time>2021-11-27T11:26:38Z</time>
      </trkpt>
      <trkpt lat="42.389214" lon="-7.7091703">
        <time>2021-11-27T11:26:39Z</time>
      </trkpt>
      <trkpt lat="42.389214" lon="-7.709188">
        <time>2021-11-27T11:26:40Z</time>
      </trkpt>
      <trkpt lat="42.389214" lon="-7.7092047">
        <time>2021-11-27T11:26:41Z</time>
      </trkpt>
      <trkpt lat="42.38921" lon="-7.70922">
        <time>2021-11-27T11:26:42Z</time>
      </trkpt>
      <trkpt lat="42.38921" lon="-7.7092347">
        <time>2021-11-27T11:26:43Z</time>
      </trkpt>
      <trkpt lat="42.389214" lon="-7.7092495">
        <time>2021-11-27T11:26:44Z</time>
      </trkpt>
      <trkpt lat="42.389214" lon="-7.7092648">
        <time>2021-11-27T11:26:45Z</time>
      </trkpt>
      <trkpt lat="42.389217" lon="-7.709282">
        <time>2021-11-27T11:26:46Z</time>
      </trkpt>
      <trkpt lat="42.389217" lon="-7.709298">
        <time>2021-11-27T11:26:47Z</time>
      </trkpt>
      <trkpt lat="42.38922" lon="-7.7093115">
        <time>2021-11-27T11:26:48Z</time>
      </trkpt>
      <trkpt lat="42.38922" lon="-7.709325">
        <time>2021-11-27T11:26:49Z</time>
      </trkpt>
      <trkpt lat="42.38922" lon="-7.7093406">
        <time>2021-11-27T11:26:50Z</time>
      </trkpt>
      <trkpt lat="42.38922" lon="-7.7093573">
        <time>2021-11-27T11:26:51Z</time>
      </trkpt>
      <trkpt lat="42.38922" lon="-7.709375">
        <time>2021-11-27T11:26:52Z</time>
      </trkpt>
      <trkpt lat="42.38922" lon="-7.7093935">
        <time>2021-11-27T11:26:53Z</time>
      </trkpt>
      <trkpt lat="42.389217" lon="-7.7094116">
        <time>2021-11-27T11:26:54Z</time>
      </trkpt>
      <trkpt lat="42.389214" lon="-7.70943">
        <time>2021-11-27T11:26:55Z</time>
      </trkpt>
      <trkpt lat="42.38921" lon="-7.709449">
        <time>2021-11-27T11:26:56Z</time>
      </trkpt>
      <trkpt lat="42.389206" lon="-7.709467">
        <time>2021-11-27T11:26:57Z</time>
      </trkpt>
      <trkpt lat="42.389206" lon="-7.7094846">
        <time>2021-11-27T11:26:58Z</time>
      </trkpt>
      <trkpt lat="42.389206" lon="-7.7095046">
        <time>2021-11-27T11:26:59Z</time>
      </trkpt>
      <trkpt lat="42.389206" lon="-7.7095237">
        <time>2021-11-27T11:27:00Z</time>
      </trkpt>
      <trkpt lat="42.389206" lon="-7.709543">
        <time>2021-11-27T11:27:01Z</time>
      </trkpt>
      <trkpt lat="42.38921" lon="-7.709564">
        <time>2021-11-27T11:27:02Z</time>
      </trkpt>
      <trkpt lat="42.389214" lon="-7.709582">
        <time>2021-11-27T11:27:03Z</time>
      </trkpt>
      <trkpt lat="42.389217" lon="-7.7095976">
        <time>2021-11-27T11:27:04Z</time>
      </trkpt>
      <trkpt lat="42.38922" lon="-7.7096124">
        <time>2021-11-27T11:27:05Z</time>
      </trkpt>
      <trkpt lat="42.38922" lon="-7.709625">
        <time>2021-11-27T11:27:06Z</time>
      </trkpt>
      <trkpt lat="42.38922" lon="-7.7096405">
        <time>2021-11-27T11:27:07Z</time>
      </trkpt>
      <trkpt lat="42.389225" lon="-7.709655">
        <time>2021-11-27T11:27:08Z</time>
      </trkpt>
      <trkpt lat="42.38923" lon="-7.7096705">
        <time>2021-11-27T11:27:09Z</time>
      </trkpt>
      <trkpt lat="42.389236" lon="-7.70969">
        <time>2021-11-27T11:27:10Z</time>
      </trkpt>
      <trkpt lat="42.389236" lon="-7.7097106">
        <time>2021-11-27T11:27:11Z</time>
      </trkpt>
      <trkpt lat="42.389233" lon="-7.709728">
        <time>2021-11-27T11:27:12Z</time>
      </trkpt>
      <trkpt lat="42.389233" lon="-7.7097416">
        <time>2021-11-27T11:27:13Z</time>
      </trkpt>
      <trkpt lat="42.38923" lon="-7.709755">
        <time>2021-11-27T11:27:14Z</time>
      </trkpt>
      <trkpt lat="42.38923" lon="-7.7097735">
        <time>2021-11-27T11:27:15Z</time>
      </trkpt>
      <trkpt lat="42.389233" lon="-7.709793">
        <time>2021-11-27T11:27:16Z</time>
      </trkpt>
      <trkpt lat="42.389236" lon="-7.709813">
        <time>2021-11-27T11:27:17Z</time>
      </trkpt>
      <trkpt lat="42.389236" lon="-7.709833">
        <time>2021-11-27T11:27:18Z</time>
      </trkpt>
      <trkpt lat="42.389236" lon="-7.7098536">
        <time>2021-11-27T11:27:19Z</time>
      </trkpt>
      <trkpt lat="42.38924" lon="-7.7098713">
        <time>2021-11-27T11:27:20Z</time>
      </trkpt>
      <trkpt lat="42.38924" lon="-7.7098866">
        <time>2021-11-27T11:27:21Z</time>
      </trkpt>
      <trkpt lat="42.389244" lon="-7.709897">
        <time>2021-11-27T11:27:22Z</time>
      </trkpt>
      <trkpt lat="42.389244" lon="-7.709906">
        <time>2021-11-27T11:27:23Z</time>
      </trkpt>
      <trkpt lat="42.389244" lon="-7.709914">
        <time>2021-11-27T11:27:24Z</time>
      </trkpt>
      <trkpt lat="42.389244" lon="-7.70992">
        <time>2021-11-27T11:27:25Z</time>
      </trkpt>
      <trkpt lat="42.389248" lon="-7.709943">
        <time>2021-11-27T11:27:27Z</time>
      </trkpt>
      <trkpt lat="42.38925" lon="-7.709943">
        <time>2021-11-27T11:27:29Z</time>
      </trkpt>
      <trkpt lat="42.38925" lon="-7.7099423">
        <time>2021-11-27T11:27:30Z</time>
      </trkpt>
      <trkpt lat="42.38925" lon="-7.7099423">
        <time>2021-11-27T11:27:31Z</time>
      </trkpt>
      <trkpt lat="42.38925" lon="-7.709939">
        <time>2021-11-27T11:27:32Z</time>
      </trkpt>
      <trkpt lat="42.38925" lon="-7.7099333">
        <time>2021-11-27T11:27:33Z</time>
      </trkpt>
      <trkpt lat="42.389256" lon="-7.7099266">
        <time>2021-11-27T11:27:34Z</time>
      </trkpt>
      <trkpt lat="42.38926" lon="-7.7099195">
        <time>2021-11-27T11:27:35Z</time>
      </trkpt>
      <trkpt lat="42.389263" lon="-7.7099123">
        <time>2021-11-27T11:27:36Z</time>
      </trkpt>
      <trkpt lat="42.389267" lon="-7.709907">
        <time>2021-11-27T11:27:37Z</time>
      </trkpt>
      <trkpt lat="42.38927" lon="-7.7099013">
        <time>2021-11-27T11:27:38Z</time>
      </trkpt>
      <trkpt lat="42.389275" lon="-7.709894">
        <time>2021-11-27T11:27:39Z</time>
      </trkpt>
      <trkpt lat="42.389275" lon="-7.7098894">
        <time>2021-11-27T11:27:40Z</time>
      </trkpt>
      <trkpt lat="42.38929" lon="-7.7098727">
        <time>2021-11-27T11:27:42Z</time>
      </trkpt>
      <trkpt lat="42.38929" lon="-7.709872">
        <time>2021-11-27T11:27:43Z</time>
      </trkpt>
      <trkpt lat="42.38929" lon="-7.7098694">
        <time>2021-11-27T11:27:44Z</time>
      </trkpt>
      <trkpt lat="42.389294" lon="-7.70987">
        <time>2021-11-27T11:27:45Z</time>
      </trkpt>
      <trkpt lat="42.389294" lon="-7.709874">
        <time>2021-11-27T11:27:46Z</time>
      </trkpt>
      <trkpt lat="42.389297" lon="-7.7098784">
        <time>2021-11-27T11:27:47Z</time>
      </trkpt>
      <trkpt lat="42.389294" lon="-7.7098837">
        <time>2021-11-27T11:27:48Z</time>
      </trkpt>
      <trkpt lat="42.38929" lon="-7.7098875">
        <time>2021-11-27T11:27:49Z</time>
      </trkpt>
      <trkpt lat="42.389275" lon="-7.7098975">
        <time>2021-11-27T11:28:10Z</time>
      </trkpt>
      <trkpt lat="42.389275" lon="-7.7098985">
        <time>2021-11-27T11:28:11Z</time>
      </trkpt>
      <trkpt lat="42.389275" lon="-7.7099047">
        <time>2021-11-27T11:28:13Z</time>
      </trkpt>
      <trkpt lat="42.389263" lon="-7.7099047">
        <time>2021-11-27T11:28:18Z</time>
      </trkpt>
      <trkpt lat="42.389263" lon="-7.709904">
        <time>2021-11-27T11:28:19Z</time>
      </trkpt>
      <trkpt lat="42.389263" lon="-7.709904">
        <time>2021-11-27T11:28:20Z</time>
      </trkpt>
      <trkpt lat="42.389263" lon="-7.7099013">
        <time>2021-11-27T11:28:21Z</time>
      </trkpt>
      <trkpt lat="42.389263" lon="-7.709899">
        <time>2021-11-27T11:28:22Z</time>
      </trkpt>
      <trkpt lat="42.38926" lon="-7.709897">
        <time>2021-11-27T11:28:23Z</time>
      </trkpt>
      <trkpt lat="42.38925" lon="-7.709894">
        <time>2021-11-27T11:28:26Z</time>
      </trkpt>
      <trkpt lat="42.389256" lon="-7.709895">
        <time>2021-11-27T11:28:27Z</time>
      </trkpt>
      <trkpt lat="42.389256" lon="-7.709899">
        <time>2021-11-27T11:28:28Z</time>
      </trkpt>
      <trkpt lat="42.389256" lon="-7.7099066">
        <time>2021-11-27T11:28:29Z</time>
      </trkpt>
      <trkpt lat="42.38926" lon="-7.7099156">
        <time>2021-11-27T11:28:30Z</time>
      </trkpt>
      <trkpt lat="42.389267" lon="-7.7099257">
        <time>2021-11-27T11:28:31Z</time>
      </trkpt>
      <trkpt lat="42.389275" lon="-7.709936">
        <time>2021-11-27T11:28:32Z</time>
      </trkpt>
      <trkpt lat="42.389286" lon="-7.7099476">
        <time>2021-11-27T11:28:33Z</time>
      </trkpt>
      <trkpt lat="42.389297" lon="-7.709959">
        <time>2021-11-27T11:28:34Z</time>
      </trkpt>
      <trkpt lat="42.389324" lon="-7.7099876">
        <time>2021-11-27T11:28:35Z</time>
      </trkpt>
      <trkpt lat="42.389324" lon="-7.7099905">
        <time>2021-11-27T11:28:36Z</time>
      </trkpt>
      <trkpt lat="42.389328" lon="-7.7099934">
        <time>2021-11-27T11:28:37Z</time>
      </trkpt>
      <trkpt lat="42.38933" lon="-7.7099986">
        <time>2021-11-27T11:28:38Z</time>
      </trkpt>
      <trkpt lat="42.389343" lon="-7.7100034">
        <time>2021-11-27T11:28:39Z</time>
      </trkpt>
      <trkpt lat="42.38935" lon="-7.710008">
        <time>2021-11-27T11:28:40Z</time>
      </trkpt>
      <trkpt lat="42.389362" lon="-7.7100134">
        <time>2021-11-27T11:28:41Z</time>
      </trkpt>
      <trkpt lat="42.389374" lon="-7.7100205">
        <time>2021-11-27T11:28:42Z</time>
      </trkpt>
      <trkpt lat="42.389385" lon="-7.710028">
        <time>2021-11-27T11:28:43Z</time>
      </trkpt>
      <trkpt lat="42.3894" lon="-7.710032">
        <time>2021-11-27T11:28:44Z</time>
      </trkpt>
      <trkpt lat="42.38941" lon="-7.7100377">
        <time>2021-11-27T11:28:45Z</time>
      </trkpt>
      <trkpt lat="42.38942" lon="-7.710043">
        <time>2021-11-27T11:28:46Z</time>
      </trkpt>
      <trkpt lat="42.38943" lon="-7.7100472">
        <time>2021-11-27T11:28:47Z</time>
      </trkpt>
      <trkpt lat="42.389442" lon="-7.71005">
        <time>2021-11-27T11:28:48Z</time>
      </trkpt>
      <trkpt lat="42.389454" lon="-7.710052">
        <time>2021-11-27T11:28:49Z</time>
      </trkpt>
      <trkpt lat="42.38947" lon="-7.710054">
        <time>2021-11-27T11:28:50Z</time>
      </trkpt>
      <trkpt lat="42.38948" lon="-7.710055">
        <time>2021-11-27T11:28:51Z</time>
      </trkpt>
      <trkpt lat="42.389492" lon="-7.7100544">
        <time>2021-11-27T11:28:52Z</time>
      </trkpt>
      <trkpt lat="42.389503" lon="-7.710054">
        <time>2021-11-27T11:28:53Z</time>
      </trkpt>
      <trkpt lat="42.389515" lon="-7.710053">
        <time>2021-11-27T11:28:54Z</time>
      </trkpt>
      <trkpt lat="42.389526" lon="-7.7100525">
        <time>2021-11-27T11:28:55Z</time>
      </trkpt>
      <trkpt lat="42.389534" lon="-7.710051">
        <time>2021-11-27T11:28:56Z</time>
      </trkpt>
      <trkpt lat="42.389545" lon="-7.710049">
        <time>2021-11-27T11:28:57Z</time>
      </trkpt>
      <trkpt lat="42.389557" lon="-7.710047">
        <time>2021-11-27T11:28:58Z</time>
      </trkpt>
      <trkpt lat="42.389565" lon="-7.7100444">
        <time>2021-11-27T11:28:59Z</time>
      </trkpt>
      <trkpt lat="42.38958" lon="-7.7100425">
        <time>2021-11-27T11:29:00Z</time>
      </trkpt>
      <trkpt lat="42.389595" lon="-7.71004">
        <time>2021-11-27T11:29:01Z</time>
      </trkpt>
      <trkpt lat="42.38961" lon="-7.7100377">
        <time>2021-11-27T11:29:02Z</time>
      </trkpt>
      <trkpt lat="42.389626" lon="-7.710036">
        <time>2021-11-27T11:29:03Z</time>
      </trkpt>
      <trkpt lat="42.38964" lon="-7.7100344">
        <time>2021-11-27T11:29:04Z</time>
      </trkpt>
      <trkpt lat="42.389656" lon="-7.710032">
        <time>2021-11-27T11:29:05Z</time>
      </trkpt>
      <trkpt lat="42.38967" lon="-7.7100296">
        <time>2021-11-27T11:29:06Z</time>
      </trkpt>
      <trkpt lat="42.389683" lon="-7.7100263">
        <time>2021-11-27T11:29:07Z</time>
      </trkpt>
      <trkpt lat="42.389694" lon="-7.710024">
        <time>2021-11-27T11:29:08Z</time>
      </trkpt>
      <trkpt lat="42.38971" lon="-7.7100224">
        <time>2021-11-27T11:29:09Z</time>
      </trkpt>
      <trkpt lat="42.389725" lon="-7.710018">
        <time>2021-11-27T11:29:10Z</time>
      </trkpt>
      <trkpt lat="42.389736" lon="-7.7100153">
        <time>2021-11-27T11:29:11Z</time>
      </trkpt>
      <trkpt lat="42.389748" lon="-7.7100153">
        <time>2021-11-27T11:29:12Z</time>
      </trkpt>
      <trkpt lat="42.389763" lon="-7.710019">
        <time>2021-11-27T11:29:13Z</time>
      </trkpt>
      <trkpt lat="42.389774" lon="-7.710021">
        <time>2021-11-27T11:29:14Z</time>
      </trkpt>
      <trkpt lat="42.38979" lon="-7.710023">
        <time>2021-11-27T11:29:15Z</time>
      </trkpt>
      <trkpt lat="42.3898" lon="-7.710023">
        <time>2021-11-27T11:29:15Z</time>
      </trkpt>
      <trkpt lat="42.389812" lon="-7.7100224">
        <time>2021-11-27T11:29:16Z</time>
      </trkpt>
      <trkpt lat="42.38982" lon="-7.71002">
        <time>2021-11-27T11:29:17Z</time>
      </trkpt>
      <trkpt lat="42.389828" lon="-7.710017">
        <time>2021-11-27T11:29:18Z</time>
      </trkpt>
      <trkpt lat="42.38984" lon="-7.710016">
        <time>2021-11-27T11:29:19Z</time>
      </trkpt>
      <trkpt lat="42.38985" lon="-7.7100153">
        <time>2021-11-27T11:29:20Z</time>
      </trkpt>
      <trkpt lat="42.38986" lon="-7.710014">
        <time>2021-11-27T11:29:21Z</time>
      </trkpt>
      <trkpt lat="42.389874" lon="-7.7100134">
        <time>2021-11-27T11:29:22Z</time>
      </trkpt>
      <trkpt lat="42.38988" lon="-7.710011">
        <time>2021-11-27T11:29:23Z</time>
      </trkpt>
      <trkpt lat="42.389896" lon="-7.710009">
        <time>2021-11-27T11:29:24Z</time>
      </trkpt>
      <trkpt lat="42.389908" lon="-7.710007">
        <time>2021-11-27T11:29:25Z</time>
      </trkpt>
      <trkpt lat="42.389923" lon="-7.710004">
        <time>2021-11-27T11:29:26Z</time>
      </trkpt>
      <trkpt lat="42.389935" lon="-7.71">
        <time>2021-11-27T11:29:27Z</time>
      </trkpt>
      <trkpt lat="42.389946" lon="-7.7099943">
        <time>2021-11-27T11:29:28Z</time>
      </trkpt>
      <trkpt lat="42.38996" lon="-7.7099895">
        <time>2021-11-27T11:29:29Z</time>
      </trkpt>
      <trkpt lat="42.389977" lon="-7.709984">
        <time>2021-11-27T11:29:30Z</time>
      </trkpt>
      <trkpt lat="42.389988" lon="-7.7099776">
        <time>2021-11-27T11:29:31Z</time>
      </trkpt>
      <trkpt lat="42.39" lon="-7.7099705">
        <time>2021-11-27T11:29:32Z</time>
      </trkpt>
      <trkpt lat="42.39001" lon="-7.7099633">
        <time>2021-11-27T11:29:33Z</time>
      </trkpt>
      <trkpt lat="42.390022" lon="-7.709957">
        <time>2021-11-27T11:29:34Z</time>
      </trkpt>
      <trkpt lat="42.390034" lon="-7.709947">
        <time>2021-11-27T11:29:35Z</time>
      </trkpt>
      <trkpt lat="42.390045" lon="-7.7099366">
        <time>2021-11-27T11:29:36Z</time>
      </trkpt>
      <trkpt lat="42.390057" lon="-7.7099257">
        <time>2021-11-27T11:29:37Z</time>
      </trkpt>
      <trkpt lat="42.390068" lon="-7.709913">
        <time>2021-11-27T11:29:38Z</time>
      </trkpt>
      <trkpt lat="42.39008" lon="-7.7099004">
        <time>2021-11-27T11:29:39Z</time>
      </trkpt>
      <trkpt lat="42.39009" lon="-7.7098875">
        <time>2021-11-27T11:29:40Z</time>
      </trkpt>
      <trkpt lat="42.390106" lon="-7.709875">
        <time>2021-11-27T11:29:41Z</time>
      </trkpt>
      <trkpt lat="42.390118" lon="-7.7098656">
        <time>2021-11-27T11:29:42Z</time>
      </trkpt>
      <trkpt lat="42.390125" lon="-7.7098584">
        <time>2021-11-27T11:29:43Z</time>
      </trkpt>
      <trkpt lat="42.39014" lon="-7.7098546">
        <time>2021-11-27T11:29:44Z</time>
      </trkpt>
      <trkpt lat="42.39015" lon="-7.70985">
        <time>2021-11-27T11:29:45Z</time>
      </trkpt>
      <trkpt lat="42.39016" lon="-7.7098446">
        <time>2021-11-27T11:29:46Z</time>
      </trkpt>
      <trkpt lat="42.39017" lon="-7.70984">
        <time>2021-11-27T11:29:47Z</time>
      </trkpt>
      <trkpt lat="42.390182" lon="-7.709835">
        <time>2021-11-27T11:29:48Z</time>
      </trkpt>
      <trkpt lat="42.390198" lon="-7.70983">
        <time>2021-11-27T11:29:49Z</time>
      </trkpt>
      <trkpt lat="42.39021" lon="-7.7098255">
        <time>2021-11-27T11:29:50Z</time>
      </trkpt>
      <trkpt lat="42.390224" lon="-7.7098203">
        <time>2021-11-27T11:29:51Z</time>
      </trkpt>
      <trkpt lat="42.390236" lon="-7.7098145">
        <time>2021-11-27T11:29:52Z</time>
      </trkpt>
      <trkpt lat="42.390247" lon="-7.70981">
        <time>2021-11-27T11:29:53Z</time>
      </trkpt>
      <trkpt lat="42.390263" lon="-7.7098036">
        <time>2021-11-27T11:29:54Z</time>
      </trkpt>
      <trkpt lat="42.390274" lon="-7.7097964">
        <time>2021-11-27T11:29:55Z</time>
      </trkpt>
      <trkpt lat="42.39029" lon="-7.7097893">
        <time>2021-11-27T11:29:56Z</time>
      </trkpt>
      <trkpt lat="42.390305" lon="-7.7097816">
        <time>2021-11-27T11:29:57Z</time>
      </trkpt>
      <trkpt lat="42.39032" lon="-7.7097735">
        <time>2021-11-27T11:29:58Z</time>
      </trkpt>
      <trkpt lat="42.39034" lon="-7.7097645">
        <time>2021-11-27T11:29:59Z</time>
      </trkpt>
      <trkpt lat="42.39035" lon="-7.7097554">
        <time>2021-11-27T11:30:00Z</time>
      </trkpt>
      <trkpt lat="42.390366" lon="-7.7097483">
        <time>2021-11-27T11:30:01Z</time>
      </trkpt>
      <trkpt lat="42.390377" lon="-7.7097435">
        <time>2021-11-27T11:30:02Z</time>
      </trkpt>
      <trkpt lat="42.390392" lon="-7.7097406">
        <time>2021-11-27T11:30:03Z</time>
      </trkpt>
      <trkpt lat="42.390408" lon="-7.7097425">
        <time>2021-11-27T11:30:04Z</time>
      </trkpt>
      <trkpt lat="42.39042" lon="-7.7097473">
        <time>2021-11-27T11:30:05Z</time>
      </trkpt>
      <trkpt lat="42.390434" lon="-7.7097545">
        <time>2021-11-27T11:30:06Z</time>
      </trkpt>
      <trkpt lat="42.39045" lon="-7.709759">
        <time>2021-11-27T11:30:07Z</time>
      </trkpt>
      <trkpt lat="42.390465" lon="-7.709764">
        <time>2021-11-27T11:30:08Z</time>
      </trkpt>
      <trkpt lat="42.39048" lon="-7.709767">
        <time>2021-11-27T11:30:09Z</time>
      </trkpt>
      <trkpt lat="42.39049" lon="-7.709768">
        <time>2021-11-27T11:30:10Z</time>
      </trkpt>
      <trkpt lat="42.3905" lon="-7.7097683">
        <time>2021-11-27T11:30:11Z</time>
      </trkpt>
      <trkpt lat="42.390514" lon="-7.7097697">
        <time>2021-11-27T11:30:12Z</time>
      </trkpt>
      <trkpt lat="42.390526" lon="-7.7097716">
        <time>2021-11-27T11:30:13Z</time>
      </trkpt>
      <trkpt lat="42.39054" lon="-7.709772">
        <time>2021-11-27T11:30:14Z</time>
      </trkpt>
      <trkpt lat="42.390553" lon="-7.7097697">
        <time>2021-11-27T11:30:15Z</time>
      </trkpt>
      <trkpt lat="42.390568" lon="-7.709767">
        <time>2021-11-27T11:30:16Z</time>
      </trkpt>
      <trkpt lat="42.390583" lon="-7.709763">
        <time>2021-11-27T11:30:17Z</time>
      </trkpt>
      <trkpt lat="42.39059" lon="-7.7097583">
        <time>2021-11-27T11:30:18Z</time>
      </trkpt>
      <trkpt lat="42.390606" lon="-7.709751">
        <time>2021-11-27T11:30:19Z</time>
      </trkpt>
      <trkpt lat="42.390617" lon="-7.709746">
        <time>2021-11-27T11:30:20Z</time>
      </trkpt>
      <trkpt lat="42.39063" lon="-7.70974">
        <time>2021-11-27T11:30:21Z</time>
      </trkpt>
      <trkpt lat="42.390644" lon="-7.709738">
        <time>2021-11-27T11:30:22Z</time>
      </trkpt>
      <trkpt lat="42.39065" lon="-7.7097363">
        <time>2021-11-27T11:30:23Z</time>
      </trkpt>
      <trkpt lat="42.39066" lon="-7.709735">
        <time>2021-11-27T11:30:24Z</time>
      </trkpt>
      <trkpt lat="42.39067" lon="-7.7097325">
        <time>2021-11-27T11:30:25Z</time>
      </trkpt>
      <trkpt lat="42.390682" lon="-7.7097306">
        <time>2021-11-27T11:30:26Z</time>
      </trkpt>
      <trkpt lat="42.390694" lon="-7.709731">
        <time>2021-11-27T11:30:27Z</time>
      </trkpt>
      <trkpt lat="42.390705" lon="-7.7097306">
        <time>2021-11-27T11:30:28Z</time>
      </trkpt>
      <trkpt lat="42.390717" lon="-7.70973">
        <time>2021-11-27T11:30:29Z</time>
      </trkpt>
      <trkpt lat="42.390728" lon="-7.709732">
        <time>2021-11-27T11:30:30Z</time>
      </trkpt>
      <trkpt lat="42.39074" lon="-7.709733">
        <time>2021-11-27T11:30:31Z</time>
      </trkpt>
      <trkpt lat="42.390747" lon="-7.709734">
        <time>2021-11-27T11:30:32Z</time>
      </trkpt>
      <trkpt lat="42.390762" lon="-7.709735">
        <time>2021-11-27T11:30:33Z</time>
      </trkpt>
      <trkpt lat="42.390774" lon="-7.709738">
        <time>2021-11-27T11:30:34Z</time>
      </trkpt>
      <trkpt lat="42.390785" lon="-7.7097425">
        <time>2021-11-27T11:30:35Z</time>
      </trkpt>
      <trkpt lat="42.3908" lon="-7.7097483">
        <time>2021-11-27T11:30:36Z</time>
      </trkpt>
      <trkpt lat="42.39081" lon="-7.709755">
        <time>2021-11-27T11:30:37Z</time>
      </trkpt>
      <trkpt lat="42.390823" lon="-7.709761">
        <time>2021-11-27T11:30:38Z</time>
      </trkpt>
      <trkpt lat="42.390835" lon="-7.709768">
        <time>2021-11-27T11:30:39Z</time>
      </trkpt>
      <trkpt lat="42.390846" lon="-7.709774">
        <time>2021-11-27T11:30:40Z</time>
      </trkpt>
      <trkpt lat="42.390854" lon="-7.709779">
        <time>2021-11-27T11:30:41Z</time>
      </trkpt>
      <trkpt lat="42.39087" lon="-7.709781">
        <time>2021-11-27T11:30:42Z</time>
      </trkpt>
      <trkpt lat="42.39088" lon="-7.7097816">
        <time>2021-11-27T11:30:43Z</time>
      </trkpt>
      <trkpt lat="42.390896" lon="-7.709785">
        <time>2021-11-27T11:30:44Z</time>
      </trkpt>
      <trkpt lat="42.39091" lon="-7.709789">
        <time>2021-11-27T11:30:45Z</time>
      </trkpt>
      <trkpt lat="42.390926" lon="-7.709791">
        <time>2021-11-27T11:30:46Z</time>
      </trkpt>
      <trkpt lat="42.39094" lon="-7.7097945">
        <time>2021-11-27T11:30:47Z</time>
      </trkpt>
      <trkpt lat="42.390957" lon="-7.7097964">
        <time>2021-11-27T11:30:48Z</time>
      </trkpt>
      <trkpt lat="42.39097" lon="-7.7097983">
        <time>2021-11-27T11:30:49Z</time>
      </trkpt>
      <trkpt lat="42.39098" lon="-7.7098">
        <time>2021-11-27T11:30:50Z</time>
      </trkpt>
      <trkpt lat="42.390987" lon="-7.709801">
        <time>2021-11-27T11:30:51Z</time>
      </trkpt>
      <trkpt lat="42.390995" lon="-7.7098036">
        <time>2021-11-27T11:30:52Z</time>
      </trkpt>
      <trkpt lat="42.391003" lon="-7.709811">
        <time>2021-11-27T11:30:53Z</time>
      </trkpt>
      <trkpt lat="42.39101" lon="-7.7098193">
        <time>2021-11-27T11:30:54Z</time>
      </trkpt>
      <trkpt lat="42.391018" lon="-7.709826">
        <time>2021-11-27T11:30:55Z</time>
      </trkpt>
      <trkpt lat="42.39103" lon="-7.7098317">
        <time>2021-11-27T11:30:56Z</time>
      </trkpt>
      <trkpt lat="42.391045" lon="-7.7098393">
        <time>2021-11-27T11:30:57Z</time>
      </trkpt>
      <trkpt lat="42.391064" lon="-7.7098465">
        <time>2021-11-27T11:30:58Z</time>
      </trkpt>
      <trkpt lat="42.39108" lon="-7.7098546">
        <time>2021-11-27T11:30:59Z</time>
      </trkpt>
      <trkpt lat="42.391094" lon="-7.7098618">
        <time>2021-11-27T11:31:00Z</time>
      </trkpt>
      <trkpt lat="42.391106" lon="-7.709866">
        <time>2021-11-27T11:31:01Z</time>
      </trkpt>
      <trkpt lat="42.39112" lon="-7.7098694">
        <time>2021-11-27T11:31:02Z</time>
      </trkpt>
      <trkpt lat="42.39113" lon="-7.709874">
        <time>2021-11-27T11:31:03Z</time>
      </trkpt>
      <trkpt lat="42.39114" lon="-7.709879">
        <time>2021-11-27T11:31:04Z</time>
      </trkpt>
      <trkpt lat="42.391148" lon="-7.7098823">
        <time>2021-11-27T11:31:05Z</time>
      </trkpt>
      <trkpt lat="42.39116" lon="-7.709886">
        <time>2021-11-27T11:31:06Z</time>
      </trkpt>
      <trkpt lat="42.39117" lon="-7.7098894">
        <time>2021-11-27T11:31:07Z</time>
      </trkpt>
      <trkpt lat="42.391182" lon="-7.709892">
        <time>2021-11-27T11:31:08Z</time>
      </trkpt>
      <trkpt lat="42.391197" lon="-7.709896">
        <time>2021-11-27T11:31:09Z</time>
      </trkpt>
      <trkpt lat="42.391212" lon="-7.709901">
        <time>2021-11-27T11:31:10Z</time>
      </trkpt>
      <trkpt lat="42.391224" lon="-7.709904">
        <time>2021-11-27T11:31:11Z</time>
      </trkpt>
      <trkpt lat="42.391235" lon="-7.709909">
        <time>2021-11-27T11:31:12Z</time>
      </trkpt>
      <trkpt lat="42.39125" lon="-7.7099147">
        <time>2021-11-27T11:31:13Z</time>
      </trkpt>
      <trkpt lat="42.391266" lon="-7.7099233">
        <time>2021-11-27T11:31:14Z</time>
      </trkpt>
      <trkpt lat="42.391277" lon="-7.7099304">
        <time>2021-11-27T11:31:15Z</time>
      </trkpt>
      <trkpt lat="42.39129" lon="-7.709937">
        <time>2021-11-27T11:31:16Z</time>
      </trkpt>
      <trkpt lat="42.3913" lon="-7.709944">
        <time>2021-11-27T11:31:17Z</time>
      </trkpt>
      <trkpt lat="42.391308" lon="-7.709948">
        <time>2021-11-27T11:31:18Z</time>
      </trkpt>
      <trkpt lat="42.39132" lon="-7.709952">
        <time>2021-11-27T11:31:19Z</time>
      </trkpt>
      <trkpt lat="42.39133" lon="-7.7099566">
        <time>2021-11-27T11:31:20Z</time>
      </trkpt>
      <trkpt lat="42.39134" lon="-7.709961">
        <time>2021-11-27T11:31:21Z</time>
      </trkpt>
      <trkpt lat="42.39135" lon="-7.709966">
        <time>2021-11-27T11:31:22Z</time>
      </trkpt>
      <trkpt lat="42.39136" lon="-7.709972">
        <time>2021-11-27T11:31:23Z</time>
      </trkpt>
      <trkpt lat="42.391376" lon="-7.709976">
        <time>2021-11-27T11:31:24Z</time>
      </trkpt>
      <trkpt lat="42.391388" lon="-7.709978">
        <time>2021-11-27T11:31:25Z</time>
      </trkpt>
      <trkpt lat="42.3914" lon="-7.70998">
        <time>2021-11-27T11:31:26Z</time>
      </trkpt>
      <trkpt lat="42.391407" lon="-7.7099814">
        <time>2021-11-27T11:31:28Z</time>
      </trkpt>
      <trkpt lat="42.391422" lon="-7.709984">
        <time>2021-11-27T11:31:28Z</time>
      </trkpt>
      <trkpt lat="42.391438" lon="-7.7099886">
        <time>2021-11-27T11:31:29Z</time>
      </trkpt>
      <trkpt lat="42.39145" lon="-7.709995">
        <time>2021-11-27T11:31:30Z</time>
      </trkpt>
      <trkpt lat="42.391464" lon="-7.7100024">
        <time>2021-11-27T11:31:31Z</time>
      </trkpt>
      <trkpt lat="42.39148" lon="-7.710008">
        <time>2021-11-27T11:31:32Z</time>
      </trkpt>
      <trkpt lat="42.39149" lon="-7.7100134">
        <time>2021-11-27T11:31:33Z</time>
      </trkpt>
      <trkpt lat="42.391502" lon="-7.710019">
        <time>2021-11-27T11:31:34Z</time>
      </trkpt>
      <trkpt lat="42.391518" lon="-7.710026">
        <time>2021-11-27T11:31:35Z</time>
      </trkpt>
      <trkpt lat="42.39153" lon="-7.710032">
        <time>2021-11-27T11:31:36Z</time>
      </trkpt>
      <trkpt lat="42.391544" lon="-7.710039">
        <time>2021-11-27T11:31:37Z</time>
      </trkpt>
      <trkpt lat="42.391556" lon="-7.7100472">
        <time>2021-11-27T11:31:38Z</time>
      </trkpt>
      <trkpt lat="42.391567" lon="-7.7100577">
        <time>2021-11-27T11:31:39Z</time>
      </trkpt>
      <trkpt lat="42.39158" lon="-7.7100677">
        <time>2021-11-27T11:31:40Z</time>
      </trkpt>
      <trkpt lat="42.39159" lon="-7.7100787">
        <time>2021-11-27T11:31:41Z</time>
      </trkpt>
      <trkpt lat="42.391598" lon="-7.7100897">
        <time>2021-11-27T11:31:42Z</time>
      </trkpt>
      <trkpt lat="42.391605" lon="-7.710098">
        <time>2021-11-27T11:31:43Z</time>
      </trkpt>
      <trkpt lat="42.391617" lon="-7.7101054">
        <time>2021-11-27T11:31:44Z</time>
      </trkpt>
      <trkpt lat="42.39163" lon="-7.7101126">
        <time>2021-11-27T11:31:45Z</time>
      </trkpt>
      <trkpt lat="42.39164" lon="-7.710122">
        <time>2021-11-27T11:31:46Z</time>
      </trkpt>
      <trkpt lat="42.391655" lon="-7.710131">
        <time>2021-11-27T11:31:47Z</time>
      </trkpt>
      <trkpt lat="42.391666" lon="-7.7101426">
        <time>2021-11-27T11:31:48Z</time>
      </trkpt>
      <trkpt lat="42.391674" lon="-7.710156">
        <time>2021-11-27T11:31:49Z</time>
      </trkpt>
      <trkpt lat="42.391685" lon="-7.710174">
        <time>2021-11-27T11:31:50Z</time>
      </trkpt>
      <trkpt lat="42.391697" lon="-7.710191">
        <time>2021-11-27T11:31:51Z</time>
      </trkpt>
      <trkpt lat="42.391705" lon="-7.710204">
        <time>2021-11-27T11:31:52Z</time>
      </trkpt>
      <trkpt lat="42.391716" lon="-7.710217">
        <time>2021-11-27T11:31:53Z</time>
      </trkpt>
      <trkpt lat="42.391724" lon="-7.71023">
        <time>2021-11-27T11:31:54Z</time>
      </trkpt>
      <trkpt lat="42.391735" lon="-7.7102437">
        <time>2021-11-27T11:31:55Z</time>
      </trkpt>
      <trkpt lat="42.391743" lon="-7.7102585">
        <time>2021-11-27T11:31:56Z</time>
      </trkpt>
      <trkpt lat="42.39175" lon="-7.710275">
        <time>2021-11-27T11:31:57Z</time>
      </trkpt>
      <trkpt lat="42.391758" lon="-7.710292">
        <time>2021-11-27T11:31:58Z</time>
      </trkpt>
      <trkpt lat="42.391766" lon="-7.710309">
        <time>2021-11-27T11:31:59Z</time>
      </trkpt>
      <trkpt lat="42.391773" lon="-7.7103243">
        <time>2021-11-27T11:32:00Z</time>
      </trkpt>
      <trkpt lat="42.391777" lon="-7.7103386">
        <time>2021-11-27T11:32:01Z</time>
      </trkpt>
      <trkpt lat="42.391785" lon="-7.710352">
        <time>2021-11-27T11:32:02Z</time>
      </trkpt>
      <trkpt lat="42.391792" lon="-7.7103653">
        <time>2021-11-27T11:32:03Z</time>
      </trkpt>
      <trkpt lat="42.3918" lon="-7.7103815">
        <time>2021-11-27T11:32:04Z</time>
      </trkpt>
      <trkpt lat="42.391808" lon="-7.710398">
        <time>2021-11-27T11:32:05Z</time>
      </trkpt>
      <trkpt lat="42.39181" lon="-7.710414">
        <time>2021-11-27T11:32:06Z</time>
      </trkpt>
      <trkpt lat="42.391815" lon="-7.71043">
        <time>2021-11-27T11:32:07Z</time>
      </trkpt>
      <trkpt lat="42.39182" lon="-7.710444">
        <time>2021-11-27T11:32:08Z</time>
      </trkpt>
      <trkpt lat="42.391827" lon="-7.710457">
        <time>2021-11-27T11:32:09Z</time>
      </trkpt>
      <trkpt lat="42.391834" lon="-7.7104692">
        <time>2021-11-27T11:32:10Z</time>
      </trkpt>
      <trkpt lat="42.39184" lon="-7.710482">
        <time>2021-11-27T11:32:11Z</time>
      </trkpt>
      <trkpt lat="42.39185" lon="-7.7104974">
        <time>2021-11-27T11:32:12Z</time>
      </trkpt>
      <trkpt lat="42.391853" lon="-7.710513">
        <time>2021-11-27T11:32:13Z</time>
      </trkpt>
      <trkpt lat="42.391857" lon="-7.710528">
        <time>2021-11-27T11:32:14Z</time>
      </trkpt>
      <trkpt lat="42.39186" lon="-7.710542">
        <time>2021-11-27T11:32:15Z</time>
      </trkpt>
      <trkpt lat="42.391865" lon="-7.710554">
        <time>2021-11-27T11:32:16Z</time>
      </trkpt>
      <trkpt lat="42.391872" lon="-7.710565">
        <time>2021-11-27T11:32:17Z</time>
      </trkpt>
      <trkpt lat="42.39188" lon="-7.7105756">
        <time>2021-11-27T11:32:18Z</time>
      </trkpt>
      <trkpt lat="42.391888" lon="-7.710588">
        <time>2021-11-27T11:32:19Z</time>
      </trkpt>
      <trkpt lat="42.391895" lon="-7.7106023">
        <time>2021-11-27T11:32:20Z</time>
      </trkpt>
      <trkpt lat="42.391903" lon="-7.710616">
        <time>2021-11-27T11:32:21Z</time>
      </trkpt>
      <trkpt lat="42.39191" lon="-7.71063">
        <time>2021-11-27T11:32:22Z</time>
      </trkpt>
      <trkpt lat="42.391914" lon="-7.710642">
        <time>2021-11-27T11:32:23Z</time>
      </trkpt>
      <trkpt lat="42.391922" lon="-7.710656">
        <time>2021-11-27T11:32:24Z</time>
      </trkpt>
      <trkpt lat="42.391926" lon="-7.710672">
        <time>2021-11-27T11:32:25Z</time>
      </trkpt>
      <trkpt lat="42.39193" lon="-7.710689">
        <time>2021-11-27T11:32:26Z</time>
      </trkpt>
      <trkpt lat="42.391937" lon="-7.7107067">
        <time>2021-11-27T11:32:28Z</time>
      </trkpt>
      <trkpt lat="42.39194" lon="-7.7107215">
        <time>2021-11-27T11:32:28Z</time>
      </trkpt>
      <trkpt lat="42.391945" lon="-7.710734">
        <time>2021-11-27T11:32:29Z</time>
      </trkpt>
      <trkpt lat="42.39195" lon="-7.7107463">
        <time>2021-11-27T11:32:30Z</time>
      </trkpt>
      <trkpt lat="42.391953" lon="-7.710756">
        <time>2021-11-27T11:32:31Z</time>
      </trkpt>
      <trkpt lat="42.39196" lon="-7.7107635">
        <time>2021-11-27T11:32:32Z</time>
      </trkpt>
      <trkpt lat="42.391964" lon="-7.710773">
        <time>2021-11-27T11:32:33Z</time>
      </trkpt>
      <trkpt lat="42.391968" lon="-7.7107816">
        <time>2021-11-27T11:32:34Z</time>
      </trkpt>
      <trkpt lat="42.391975" lon="-7.7107882">
        <time>2021-11-27T11:32:35Z</time>
      </trkpt>
      <trkpt lat="42.391975" lon="-7.7107944">
        <time>2021-11-27T11:32:36Z</time>
      </trkpt>
      <trkpt lat="42.391983" lon="-7.7108">
        <time>2021-11-27T11:32:37Z</time>
      </trkpt>
      <trkpt lat="42.391987" lon="-7.710807">
        <time>2021-11-27T11:32:38Z</time>
      </trkpt>
      <trkpt lat="42.39199" lon="-7.710817">
        <time>2021-11-27T11:32:39Z</time>
      </trkpt>
      <trkpt lat="42.392" lon="-7.7108264">
        <time>2021-11-27T11:32:40Z</time>
      </trkpt>
      <trkpt lat="42.392006" lon="-7.710835">
        <time>2021-11-27T11:32:41Z</time>
      </trkpt>
      <trkpt lat="42.392014" lon="-7.710846">
        <time>2021-11-27T11:32:42Z</time>
      </trkpt>
      <trkpt lat="42.39202" lon="-7.7108593">
        <time>2021-11-27T11:32:43Z</time>
      </trkpt>
      <trkpt lat="42.39203" lon="-7.710873">
        <time>2021-11-27T11:32:44Z</time>
      </trkpt>
      <trkpt lat="42.39204" lon="-7.7108836">
        <time>2021-11-27T11:32:45Z</time>
      </trkpt>
      <trkpt lat="42.392048" lon="-7.7108946">
        <time>2021-11-27T11:32:46Z</time>
      </trkpt>
      <trkpt lat="42.392056" lon="-7.710907">
        <time>2021-11-27T11:32:47Z</time>
      </trkpt>
      <trkpt lat="42.392063" lon="-7.710917">
        <time>2021-11-27T11:32:48Z</time>
      </trkpt>
      <trkpt lat="42.39207" lon="-7.710926">
        <time>2021-11-27T11:32:49Z</time>
      </trkpt>
      <trkpt lat="42.392075" lon="-7.710935">
        <time>2021-11-27T11:32:50Z</time>
      </trkpt>
      <trkpt lat="42.392082" lon="-7.710945">
        <time>2021-11-27T11:32:51Z</time>
      </trkpt>
      <trkpt lat="42.392086" lon="-7.710954">
        <time>2021-11-27T11:32:52Z</time>
      </trkpt>
      <trkpt lat="42.392094" lon="-7.7109637">
        <time>2021-11-27T11:32:53Z</time>
      </trkpt>
      <trkpt lat="42.392094" lon="-7.7109747">
        <time>2021-11-27T11:32:54Z</time>
      </trkpt>
      <trkpt lat="42.3921" lon="-7.710987">
        <time>2021-11-27T11:32:55Z</time>
      </trkpt>
      <trkpt lat="42.39211" lon="-7.7109985">
        <time>2021-11-27T11:32:56Z</time>
      </trkpt>
      <trkpt lat="42.39211" lon="-7.711008">
        <time>2021-11-27T11:32:57Z</time>
      </trkpt>
      <trkpt lat="42.39211" lon="-7.7110195">
        <time>2021-11-27T11:32:58Z</time>
      </trkpt>
      <trkpt lat="42.39211" lon="-7.711032">
        <time>2021-11-27T11:32:59Z</time>
      </trkpt>
      <trkpt lat="42.392117" lon="-7.7110453">
        <time>2021-11-27T11:33:00Z</time>
      </trkpt>
      <trkpt lat="42.392124" lon="-7.711057">
        <time>2021-11-27T11:33:01Z</time>
      </trkpt>
      <trkpt lat="42.39213" lon="-7.7110715">
        <time>2021-11-27T11:33:02Z</time>
      </trkpt>
      <trkpt lat="42.39214" lon="-7.711088">
        <time>2021-11-27T11:33:03Z</time>
      </trkpt>
      <trkpt lat="42.39215" lon="-7.7111034">
        <time>2021-11-27T11:33:04Z</time>
      </trkpt>
      <trkpt lat="42.392162" lon="-7.7111187">
        <time>2021-11-27T11:33:05Z</time>
      </trkpt>
      <trkpt lat="42.39217" lon="-7.711134">
        <time>2021-11-27T11:33:06Z</time>
      </trkpt>
      <trkpt lat="42.392178" lon="-7.7111473">
        <time>2021-11-27T11:33:07Z</time>
      </trkpt>
      <trkpt lat="42.392185" lon="-7.711159">
        <time>2021-11-27T11:33:08Z</time>
      </trkpt>
      <trkpt lat="42.39219" lon="-7.7111697">
        <time>2021-11-27T11:33:09Z</time>
      </trkpt>
      <trkpt lat="42.392197" lon="-7.7111807">
        <time>2021-11-27T11:33:10Z</time>
      </trkpt>
      <trkpt lat="42.392204" lon="-7.711193">
        <time>2021-11-27T11:33:11Z</time>
      </trkpt>
      <trkpt lat="42.392212" lon="-7.711202">
        <time>2021-11-27T11:33:12Z</time>
      </trkpt>
      <trkpt lat="42.392223" lon="-7.711209">
        <time>2021-11-27T11:33:13Z</time>
      </trkpt>
      <trkpt lat="42.392235" lon="-7.7112155">
        <time>2021-11-27T11:33:14Z</time>
      </trkpt>
      <trkpt lat="42.392246" lon="-7.7112203">
        <time>2021-11-27T11:33:15Z</time>
      </trkpt>
      <trkpt lat="42.392258" lon="-7.7112236">
        <time>2021-11-27T11:33:16Z</time>
      </trkpt>
      <trkpt lat="42.392273" lon="-7.7112265">
        <time>2021-11-27T11:33:17Z</time>
      </trkpt>
      <trkpt lat="42.392284" lon="-7.711229">
        <time>2021-11-27T11:33:18Z</time>
      </trkpt>
      <trkpt lat="42.392296" lon="-7.711231">
        <time>2021-11-27T11:33:19Z</time>
      </trkpt>
      <trkpt lat="42.392307" lon="-7.7112346">
        <time>2021-11-27T11:33:20Z</time>
      </trkpt>
      <trkpt lat="42.39232" lon="-7.711238">
        <time>2021-11-27T11:33:21Z</time>
      </trkpt>
      <trkpt lat="42.392334" lon="-7.711241">
        <time>2021-11-27T11:33:22Z</time>
      </trkpt>
      <trkpt lat="42.392345" lon="-7.7112455">
        <time>2021-11-27T11:33:23Z</time>
      </trkpt>
      <trkpt lat="42.392353" lon="-7.711249">
        <time>2021-11-27T11:33:24Z</time>
      </trkpt>
      <trkpt lat="42.39236" lon="-7.711253">
        <time>2021-11-27T11:33:25Z</time>
      </trkpt>
      <trkpt lat="42.392372" lon="-7.711259">
        <time>2021-11-27T11:33:26Z</time>
      </trkpt>
      <trkpt lat="42.392387" lon="-7.711267">
        <time>2021-11-27T11:33:27Z</time>
      </trkpt>
      <trkpt lat="42.3924" lon="-7.7112794">
        <time>2021-11-27T11:33:28Z</time>
      </trkpt>
      <trkpt lat="42.39241" lon="-7.711293">
        <time>2021-11-27T11:33:29Z</time>
      </trkpt>
      <trkpt lat="42.39242" lon="-7.711306">
        <time>2021-11-27T11:33:30Z</time>
      </trkpt>
      <trkpt lat="42.39243" lon="-7.7113204">
        <time>2021-11-27T11:33:30Z</time>
      </trkpt>
      <trkpt lat="42.392437" lon="-7.711335">
        <time>2021-11-27T11:33:31Z</time>
      </trkpt>
      <trkpt lat="42.392445" lon="-7.7113466">
        <time>2021-11-27T11:33:32Z</time>
      </trkpt>
      <trkpt lat="42.392452" lon="-7.711356">
        <time>2021-11-27T11:33:33Z</time>
      </trkpt>
      <trkpt lat="42.3925" lon="-7.7113724">
        <time>2021-11-27T11:33:35Z</time>
      </trkpt>
      <trkpt lat="42.392506" lon="-7.7113724">
        <time>2021-11-27T11:33:36Z</time>
      </trkpt>
      <trkpt lat="42.392513" lon="-7.7113733">
        <time>2021-11-27T11:33:37Z</time>
      </trkpt>
      <trkpt lat="42.39252" lon="-7.7113733">
        <time>2021-11-27T11:33:38Z</time>
      </trkpt>
      <trkpt lat="42.39253" lon="-7.7113767">
        <time>2021-11-27T11:33:39Z</time>
      </trkpt>
      <trkpt lat="42.392536" lon="-7.7113824">
        <time>2021-11-27T11:33:40Z</time>
      </trkpt>
      <trkpt lat="42.392544" lon="-7.711388">
        <time>2021-11-27T11:33:41Z</time>
      </trkpt>
      <trkpt lat="42.39255" lon="-7.7113953">
        <time>2021-11-27T11:33:42Z</time>
      </trkpt>
      <trkpt lat="42.39256" lon="-7.7114034">
        <time>2021-11-27T11:33:43Z</time>
      </trkpt>
      <trkpt lat="42.39257" lon="-7.711412">
        <time>2021-11-27T11:33:44Z</time>
      </trkpt>
      <trkpt lat="42.392582" lon="-7.711422">
        <time>2021-11-27T11:33:45Z</time>
      </trkpt>
      <trkpt lat="42.39259" lon="-7.711433">
        <time>2021-11-27T11:33:46Z</time>
      </trkpt>
      <trkpt lat="42.392597" lon="-7.7114434">
        <time>2021-11-27T11:33:47Z</time>
      </trkpt>
      <trkpt lat="42.392605" lon="-7.711452">
        <time>2021-11-27T11:33:48Z</time>
      </trkpt>
      <trkpt lat="42.392605" lon="-7.7114635">
        <time>2021-11-27T11:33:49Z</time>
      </trkpt>
      <trkpt lat="42.39261" lon="-7.7114773">
        <time>2021-11-27T11:33:50Z</time>
      </trkpt>
      <trkpt lat="42.392612" lon="-7.711492">
        <time>2021-11-27T11:33:51Z</time>
      </trkpt>
      <trkpt lat="42.39262" lon="-7.7115054">
        <time>2021-11-27T11:33:52Z</time>
      </trkpt>
      <trkpt lat="42.392628" lon="-7.7115173">
        <time>2021-11-27T11:33:53Z</time>
      </trkpt>
      <trkpt lat="42.39264" lon="-7.711529">
        <time>2021-11-27T11:33:54Z</time>
      </trkpt>
      <trkpt lat="42.392647" lon="-7.711539">
        <time>2021-11-27T11:33:55Z</time>
      </trkpt>
      <trkpt lat="42.392654" lon="-7.7115483">
        <time>2021-11-27T11:33:56Z</time>
      </trkpt>
      <trkpt lat="42.392662" lon="-7.711559">
        <time>2021-11-27T11:33:57Z</time>
      </trkpt>
      <trkpt lat="42.39267" lon="-7.7115717">
        <time>2021-11-27T11:33:58Z</time>
      </trkpt>
      <trkpt lat="42.392677" lon="-7.7115827">
        <time>2021-11-27T11:33:59Z</time>
      </trkpt>
      <trkpt lat="42.392685" lon="-7.7115912">
        <time>2021-11-27T11:34:00Z</time>
      </trkpt>
      <trkpt lat="42.392685" lon="-7.711598">
        <time>2021-11-27T11:34:01Z</time>
      </trkpt>
      <trkpt lat="42.392693" lon="-7.711605">
        <time>2021-11-27T11:34:02Z</time>
      </trkpt>
      <trkpt lat="42.392693" lon="-7.7116117">
        <time>2021-11-27T11:34:03Z</time>
      </trkpt>
      <trkpt lat="42.392696" lon="-7.7116194">
        <time>2021-11-27T11:34:04Z</time>
      </trkpt>
      <trkpt lat="42.3927" lon="-7.711626">
        <time>2021-11-27T11:34:05Z</time>
      </trkpt>
      <trkpt lat="42.3927" lon="-7.711632">
        <time>2021-11-27T11:34:06Z</time>
      </trkpt>
      <trkpt lat="42.392704" lon="-7.711638">
        <time>2021-11-27T11:34:07Z</time>
      </trkpt>
      <trkpt lat="42.392708" lon="-7.7116475">
        <time>2021-11-27T11:34:08Z</time>
      </trkpt>
      <trkpt lat="42.39271" lon="-7.7116594">
        <time>2021-11-27T11:34:09Z</time>
      </trkpt>
      <trkpt lat="42.39272" lon="-7.7116737">
        <time>2021-11-27T11:34:10Z</time>
      </trkpt>
      <trkpt lat="42.392723" lon="-7.711691">
        <time>2021-11-27T11:34:11Z</time>
      </trkpt>
      <trkpt lat="42.392727" lon="-7.711709">
        <time>2021-11-27T11:34:12Z</time>
      </trkpt>
      <trkpt lat="42.39273" lon="-7.7117267">
        <time>2021-11-27T11:34:13Z</time>
      </trkpt>
      <trkpt lat="42.39274" lon="-7.7117453">
        <time>2021-11-27T11:34:14Z</time>
      </trkpt>
      <trkpt lat="42.392746" lon="-7.7117634">
        <time>2021-11-27T11:34:15Z</time>
      </trkpt>
      <trkpt lat="42.39275" lon="-7.7117805">
        <time>2021-11-27T11:34:16Z</time>
      </trkpt>
      <trkpt lat="42.392757" lon="-7.7117963">
        <time>2021-11-27T11:34:17Z</time>
      </trkpt>
      <trkpt lat="42.39277" lon="-7.7118196">
        <time>2021-11-27T11:34:20Z</time>
      </trkpt>
      <trkpt lat="42.39278" lon="-7.711837">
        <time>2021-11-27T11:34:21Z</time>
      </trkpt>
      <trkpt lat="42.392788" lon="-7.7118516">
        <time>2021-11-27T11:34:22Z</time>
      </trkpt>
      <trkpt lat="42.392796" lon="-7.7118645">
        <time>2021-11-27T11:34:23Z</time>
      </trkpt>
      <trkpt lat="42.392803" lon="-7.7118745">
        <time>2021-11-27T11:34:24Z</time>
      </trkpt>
      <trkpt lat="42.392815" lon="-7.711884">
        <time>2021-11-27T11:34:25Z</time>
      </trkpt>
      <trkpt lat="42.39286" lon="-7.7119155">
        <time>2021-11-27T11:34:27Z</time>
      </trkpt>
      <trkpt lat="42.392864" lon="-7.7119174">
        <time>2021-11-27T11:34:28Z</time>
      </trkpt>
      <trkpt lat="42.39287" lon="-7.7119207">
        <time>2021-11-27T11:34:29Z</time>
      </trkpt>
      <trkpt lat="42.39288" lon="-7.711926">
        <time>2021-11-27T11:34:30Z</time>
      </trkpt>
      <trkpt lat="42.392887" lon="-7.7119317">
        <time>2021-11-27T11:34:31Z</time>
      </trkpt>
      <trkpt lat="42.39289" lon="-7.711938">
        <time>2021-11-27T11:34:32Z</time>
      </trkpt>
      <trkpt lat="42.3929" lon="-7.711946">
        <time>2021-11-27T11:34:33Z</time>
      </trkpt>
      <trkpt lat="42.392902" lon="-7.7119565">
        <time>2021-11-27T11:34:34Z</time>
      </trkpt>
      <trkpt lat="42.39291" lon="-7.7119665">
        <time>2021-11-27T11:34:35Z</time>
      </trkpt>
      <trkpt lat="42.392925" lon="-7.7119784">
        <time>2021-11-27T11:34:36Z</time>
      </trkpt>
      <trkpt lat="42.392933" lon="-7.7119884">
        <time>2021-11-27T11:34:37Z</time>
      </trkpt>
      <trkpt lat="42.39294" lon="-7.711997">
        <time>2021-11-27T11:34:39Z</time>
      </trkpt>
      <trkpt lat="42.392952" lon="-7.712007">
        <time>2021-11-27T11:34:40Z</time>
      </trkpt>
      <trkpt lat="42.392963" lon="-7.712016">
        <time>2021-11-27T11:34:41Z</time>
      </trkpt>
      <trkpt lat="42.39297" lon="-7.712025">
        <time>2021-11-27T11:34:42Z</time>
      </trkpt>
      <trkpt lat="42.392982" lon="-7.712035">
        <time>2021-11-27T11:34:44Z</time>
      </trkpt>
      <trkpt lat="42.392998" lon="-7.7120504">
        <time>2021-11-27T11:34:46Z</time>
      </trkpt>
      <trkpt lat="42.393013" lon="-7.7120667">
        <time>2021-11-27T11:34:47Z</time>
      </trkpt>
      <trkpt lat="42.393032" lon="-7.712076">
        <time>2021-11-27T11:34:48Z</time>
      </trkpt>
      <trkpt lat="42.39305" lon="-7.7120833">
        <time>2021-11-27T11:34:49Z</time>
      </trkpt>
      <trkpt lat="42.393063" lon="-7.712088">
        <time>2021-11-27T11:34:50Z</time>
      </trkpt>
      <trkpt lat="42.393078" lon="-7.712092">
        <time>2021-11-27T11:34:51Z</time>
      </trkpt>
      <trkpt lat="42.393093" lon="-7.7120953">
        <time>2021-11-27T11:34:52Z</time>
      </trkpt>
      <trkpt lat="42.39311" lon="-7.712098">
        <time>2021-11-27T11:34:53Z</time>
      </trkpt>
      <trkpt lat="42.393124" lon="-7.712099">
        <time>2021-11-27T11:34:54Z</time>
      </trkpt>
      <trkpt lat="42.39314" lon="-7.712099">
        <time>2021-11-27T11:34:55Z</time>
      </trkpt>
      <trkpt lat="42.39315" lon="-7.712099">
        <time>2021-11-27T11:34:56Z</time>
      </trkpt>
      <trkpt lat="42.393166" lon="-7.712098">
        <time>2021-11-27T11:34:57Z</time>
      </trkpt>
      <trkpt lat="42.39318" lon="-7.712096">
        <time>2021-11-27T11:34:58Z</time>
      </trkpt>
      <trkpt lat="42.393196" lon="-7.712095">
        <time>2021-11-27T11:34:59Z</time>
      </trkpt>
      <trkpt lat="42.393215" lon="-7.712092">
        <time>2021-11-27T11:35:00Z</time>
      </trkpt>
      <trkpt lat="42.39323" lon="-7.712091">
        <time>2021-11-27T11:35:01Z</time>
      </trkpt>
      <trkpt lat="42.393246" lon="-7.7120914">
        <time>2021-11-27T11:35:02Z</time>
      </trkpt>
      <trkpt lat="42.39327" lon="-7.712092">
        <time>2021-11-27T11:35:03Z</time>
      </trkpt>
      <trkpt lat="42.393288" lon="-7.712096">
        <time>2021-11-27T11:35:04Z</time>
      </trkpt>
      <trkpt lat="42.393307" lon="-7.7121005">
        <time>2021-11-27T11:35:05Z</time>
      </trkpt>
      <trkpt lat="42.39333" lon="-7.7121058">
        <time>2021-11-27T11:35:06Z</time>
      </trkpt>
      <trkpt lat="42.393353" lon="-7.7121077">
        <time>2021-11-27T11:35:07Z</time>
      </trkpt>
      <trkpt lat="42.39337" lon="-7.7121067">
        <time>2021-11-27T11:35:08Z</time>
      </trkpt>
      <trkpt lat="42.39339" lon="-7.7121043">
        <time>2021-11-27T11:35:09Z</time>
      </trkpt>
      <trkpt lat="42.39341" lon="-7.7121">
        <time>2021-11-27T11:35:10Z</time>
      </trkpt>
      <trkpt lat="42.39343" lon="-7.712096">
        <time>2021-11-27T11:35:11Z</time>
      </trkpt>
      <trkpt lat="42.393444" lon="-7.712092">
        <time>2021-11-27T11:35:12Z</time>
      </trkpt>
      <trkpt lat="42.39346" lon="-7.7120876">
        <time>2021-11-27T11:35:13Z</time>
      </trkpt>
      <trkpt lat="42.393475" lon="-7.712082">
        <time>2021-11-27T11:35:14Z</time>
      </trkpt>
      <trkpt lat="42.39349" lon="-7.7120767">
        <time>2021-11-27T11:35:15Z</time>
      </trkpt>
      <trkpt lat="42.393505" lon="-7.712074">
        <time>2021-11-27T11:35:16Z</time>
      </trkpt>
      <trkpt lat="42.39352" lon="-7.712072">
        <time>2021-11-27T11:35:17Z</time>
      </trkpt>
      <trkpt lat="42.39354" lon="-7.71207">
        <time>2021-11-27T11:35:18Z</time>
      </trkpt>
      <trkpt lat="42.393555" lon="-7.712067">
        <time>2021-11-27T11:35:19Z</time>
      </trkpt>
      <trkpt lat="42.39357" lon="-7.7120657">
        <time>2021-11-27T11:35:20Z</time>
      </trkpt>
      <trkpt lat="42.393585" lon="-7.7120667">
        <time>2021-11-27T11:35:21Z</time>
      </trkpt>
      <trkpt lat="42.3936" lon="-7.712067">
        <time>2021-11-27T11:35:22Z</time>
      </trkpt>
      <trkpt lat="42.393616" lon="-7.7120647">
        <time>2021-11-27T11:35:23Z</time>
      </trkpt>
      <trkpt lat="42.393627" lon="-7.712063">
        <time>2021-11-27T11:35:24Z</time>
      </trkpt>
      <trkpt lat="42.393635" lon="-7.7120576">
        <time>2021-11-27T11:35:25Z</time>
      </trkpt>
      <trkpt lat="42.39367" lon="-7.7120414">
        <time>2021-11-27T11:35:27Z</time>
      </trkpt>
      <trkpt lat="42.393673" lon="-7.7120414">
        <time>2021-11-27T11:35:28Z</time>
      </trkpt>
      <trkpt lat="42.39371" lon="-7.712052">
        <time>2021-11-27T11:35:30Z</time>
      </trkpt>
      <trkpt lat="42.39371" lon="-7.7120533">
        <time>2021-11-27T11:35:31Z</time>
      </trkpt>
      <trkpt lat="42.39372" lon="-7.7120543">
        <time>2021-11-27T11:35:32Z</time>
      </trkpt>
      <trkpt lat="42.39375" lon="-7.71208">
        <time>2021-11-27T11:35:34Z</time>
      </trkpt>
      <trkpt lat="42.39375" lon="-7.7120814">
        <time>2021-11-27T11:35:35Z</time>
      </trkpt>
      <trkpt lat="42.393757" lon="-7.7120833">
        <time>2021-11-27T11:35:36Z</time>
      </trkpt>
      <trkpt lat="42.39377" lon="-7.7120852">
        <time>2021-11-27T11:35:37Z</time>
      </trkpt>
      <trkpt lat="42.393784" lon="-7.712088">
        <time>2021-11-27T11:35:39Z</time>
      </trkpt>
      <trkpt lat="42.3938" lon="-7.71209">
        <time>2021-11-27T11:35:41Z</time>
      </trkpt>
      <trkpt lat="42.39382" lon="-7.712091">
        <time>2021-11-27T11:35:42Z</time>
      </trkpt>
      <trkpt lat="42.393837" lon="-7.712089">
        <time>2021-11-27T11:35:43Z</time>
      </trkpt>
      <trkpt lat="42.393856" lon="-7.7120852">
        <time>2021-11-27T11:35:44Z</time>
      </trkpt>
      <trkpt lat="42.39387" lon="-7.7120795">
        <time>2021-11-27T11:35:45Z</time>
      </trkpt>
      <trkpt lat="42.393887" lon="-7.712074">
        <time>2021-11-27T11:35:46Z</time>
      </trkpt>
      <trkpt lat="42.3939" lon="-7.7120676">
        <time>2021-11-27T11:35:47Z</time>
      </trkpt>
      <trkpt lat="42.393917" lon="-7.7120647">
        <time>2021-11-27T11:35:48Z</time>
      </trkpt>
      <trkpt lat="42.393925" lon="-7.7120633">
        <time>2021-11-27T11:35:49Z</time>
      </trkpt>
      <trkpt lat="42.393936" lon="-7.7120647">
        <time>2021-11-27T11:35:50Z</time>
      </trkpt>
      <trkpt lat="42.39395" lon="-7.712067">
        <time>2021-11-27T11:35:51Z</time>
      </trkpt>
      <trkpt lat="42.393963" lon="-7.7120724">
        <time>2021-11-27T11:35:52Z</time>
      </trkpt>
      <trkpt lat="42.39398" lon="-7.7120786">
        <time>2021-11-27T11:35:53Z</time>
      </trkpt>
      <trkpt lat="42.393993" lon="-7.712086">
        <time>2021-11-27T11:35:54Z</time>
      </trkpt>
      <trkpt lat="42.39401" lon="-7.7120934">
        <time>2021-11-27T11:35:55Z</time>
      </trkpt>
      <trkpt lat="42.39402" lon="-7.712097">
        <time>2021-11-27T11:35:56Z</time>
      </trkpt>
      <trkpt lat="42.39403" lon="-7.7121">
        <time>2021-11-27T11:35:57Z</time>
      </trkpt>
      <trkpt lat="42.39404" lon="-7.712103">
        <time>2021-11-27T11:35:58Z</time>
      </trkpt>
      <trkpt lat="42.394054" lon="-7.7121167">
        <time>2021-11-27T11:36:00Z</time>
      </trkpt>
      <trkpt lat="42.394054" lon="-7.712119">
        <time>2021-11-27T11:36:01Z</time>
      </trkpt>
      <trkpt lat="42.39406" lon="-7.712123">
        <time>2021-11-27T11:36:02Z</time>
      </trkpt>
      <trkpt lat="42.394066" lon="-7.712127">
        <time>2021-11-27T11:36:03Z</time>
      </trkpt>
      <trkpt lat="42.394077" lon="-7.712135">
        <time>2021-11-27T11:36:04Z</time>
      </trkpt>
      <trkpt lat="42.394085" lon="-7.712143">
        <time>2021-11-27T11:36:05Z</time>
      </trkpt>
      <trkpt lat="42.3941" lon="-7.712153">
        <time>2021-11-27T11:36:06Z</time>
      </trkpt>
      <trkpt lat="42.394108" lon="-7.7121606">
        <time>2021-11-27T11:36:07Z</time>
      </trkpt>
      <trkpt lat="42.39412" lon="-7.7121663">
        <time>2021-11-27T11:36:08Z</time>
      </trkpt>
      <trkpt lat="42.39413" lon="-7.7121716">
        <time>2021-11-27T11:36:09Z</time>
      </trkpt>
      <trkpt lat="42.39414" lon="-7.7121773">
        <time>2021-11-27T11:36:10Z</time>
      </trkpt>
      <trkpt lat="42.394146" lon="-7.7121806">
        <time>2021-11-27T11:36:11Z</time>
      </trkpt>
      <trkpt lat="42.394157" lon="-7.712181">
        <time>2021-11-27T11:36:12Z</time>
      </trkpt>
      <trkpt lat="42.394165" lon="-7.7121825">
        <time>2021-11-27T11:36:13Z</time>
      </trkpt>
      <trkpt lat="42.394173" lon="-7.7121835">
        <time>2021-11-27T11:36:14Z</time>
      </trkpt>
      <trkpt lat="42.394188" lon="-7.7121854">
        <time>2021-11-27T11:36:15Z</time>
      </trkpt>
      <trkpt lat="42.394203" lon="-7.7121882">
        <time>2021-11-27T11:36:16Z</time>
      </trkpt>
      <trkpt lat="42.394215" lon="-7.7121935">
        <time>2021-11-27T11:36:17Z</time>
      </trkpt>
      <trkpt lat="42.394226" lon="-7.7121983">
        <time>2021-11-27T11:36:18Z</time>
      </trkpt>
      <trkpt lat="42.39424" lon="-7.712202">
        <time>2021-11-27T11:36:19Z</time>
      </trkpt>
      <trkpt lat="42.394253" lon="-7.712205">
        <time>2021-11-27T11:36:20Z</time>
      </trkpt>
      <trkpt lat="42.394264" lon="-7.712206">
        <time>2021-11-27T11:36:21Z</time>
      </trkpt>
      <trkpt lat="42.394276" lon="-7.712208">
        <time>2021-11-27T11:36:22Z</time>
      </trkpt>
      <trkpt lat="42.394287" lon="-7.712208">
        <time>2021-11-27T11:36:23Z</time>
      </trkpt>
      <trkpt lat="42.394295" lon="-7.7122073">
        <time>2021-11-27T11:36:24Z</time>
      </trkpt>
      <trkpt lat="42.394306" lon="-7.7122073">
        <time>2021-11-27T11:36:25Z</time>
      </trkpt>
      <trkpt lat="42.394318" lon="-7.712208">
        <time>2021-11-27T11:36:27Z</time>
      </trkpt>
      <trkpt lat="42.39433" lon="-7.712209">
        <time>2021-11-27T11:36:27Z</time>
      </trkpt>
      <trkpt lat="42.39434" lon="-7.7122107">
        <time>2021-11-27T11:36:28Z</time>
      </trkpt>
      <trkpt lat="42.394356" lon="-7.712208">
        <time>2021-11-27T11:36:29Z</time>
      </trkpt>
      <trkpt lat="42.394367" lon="-7.712205">
        <time>2021-11-27T11:36:30Z</time>
      </trkpt>
      <trkpt lat="42.39438" lon="-7.7122">
        <time>2021-11-27T11:36:31Z</time>
      </trkpt>
      <trkpt lat="42.39439" lon="-7.712198">
        <time>2021-11-27T11:36:32Z</time>
      </trkpt>
      <trkpt lat="42.394405" lon="-7.7121944">
        <time>2021-11-27T11:36:33Z</time>
      </trkpt>
      <trkpt lat="42.39442" lon="-7.7121887">
        <time>2021-11-27T11:36:34Z</time>
      </trkpt>
      <trkpt lat="42.394436" lon="-7.7121854">
        <time>2021-11-27T11:36:35Z</time>
      </trkpt>
      <trkpt lat="42.394497" lon="-7.7121735">
        <time>2021-11-27T11:36:37Z</time>
      </trkpt>
      <trkpt lat="42.394527" lon="-7.712177">
        <time>2021-11-27T11:36:39Z</time>
      </trkpt>
      <trkpt lat="42.39456" lon="-7.712185">
        <time>2021-11-27T11:36:41Z</time>
      </trkpt>
      <trkpt lat="42.39457" lon="-7.7121854">
        <time>2021-11-27T11:36:42Z</time>
      </trkpt>
      <trkpt lat="42.394615" lon="-7.7121797">
        <time>2021-11-27T11:36:44Z</time>
      </trkpt>
      <trkpt lat="42.394653" lon="-7.712168">
        <time>2021-11-27T11:36:46Z</time>
      </trkpt>
      <trkpt lat="42.394657" lon="-7.7121673">
        <time>2021-11-27T11:36:47Z</time>
      </trkpt>
      <trkpt lat="42.39467" lon="-7.712166">
        <time>2021-11-27T11:36:48Z</time>
      </trkpt>
      <trkpt lat="42.394684" lon="-7.7121663">
        <time>2021-11-27T11:36:49Z</time>
      </trkpt>
      <trkpt lat="42.394695" lon="-7.712168">
        <time>2021-11-27T11:36:50Z</time>
      </trkpt>
      <trkpt lat="42.394703" lon="-7.7121735">
        <time>2021-11-27T11:36:51Z</time>
      </trkpt>
      <trkpt lat="42.394714" lon="-7.7121816">
        <time>2021-11-27T11:36:52Z</time>
      </trkpt>
      <trkpt lat="42.394726" lon="-7.7121916">
        <time>2021-11-27T11:36:53Z</time>
      </trkpt>
      <trkpt lat="42.394737" lon="-7.7121997">
        <time>2021-11-27T11:36:54Z</time>
      </trkpt>
      <trkpt lat="42.39475" lon="-7.712207">
        <time>2021-11-27T11:36:55Z</time>
      </trkpt>
      <trkpt lat="42.394756" lon="-7.712211">
        <time>2021-11-27T11:36:56Z</time>
      </trkpt>
      <trkpt lat="42.39477" lon="-7.712213">
        <time>2021-11-27T11:36:58Z</time>
      </trkpt>
      <trkpt lat="42.39479" lon="-7.712216">
        <time>2021-11-27T11:36:58Z</time>
      </trkpt>
      <trkpt lat="42.395893" lon="-7.7130632">
        <time>2021-11-27T12:14:01Z</time>
      </trkpt>
      <trkpt lat="42.395897" lon="-7.7130795">
        <time>2021-11-27T12:14:02Z</time>
      </trkpt>
      <trkpt lat="42.39592" lon="-7.713129">
        <time>2021-11-27T12:14:03Z</time>
      </trkpt>
      <trkpt lat="42.395916" lon="-7.7131486">
        <time>2021-11-27T12:14:04Z</time>
      </trkpt>
      <trkpt lat="42.395912" lon="-7.713175">
        <time>2021-11-27T12:14:05Z</time>
      </trkpt>
      <trkpt lat="42.39591" lon="-7.7131925">
        <time>2021-11-27T12:14:06Z</time>
      </trkpt>
      <trkpt lat="42.3959" lon="-7.713195">
        <time>2021-11-27T12:14:07Z</time>
      </trkpt>
      <trkpt lat="42.395897" lon="-7.7131915">
        <time>2021-11-27T12:14:08Z</time>
      </trkpt>
      <trkpt lat="42.395885" lon="-7.7131906">
        <time>2021-11-27T12:14:09Z</time>
      </trkpt>
      <trkpt lat="42.395878" lon="-7.7131853">
        <time>2021-11-27T12:14:10Z</time>
      </trkpt>
      <trkpt lat="42.395874" lon="-7.7131815">
        <time>2021-11-27T12:14:11Z</time>
      </trkpt>
      <trkpt lat="42.395866" lon="-7.713178">
        <time>2021-11-27T12:14:12Z</time>
      </trkpt>
      <trkpt lat="42.39586" lon="-7.713179">
        <time>2021-11-27T12:14:13Z</time>
      </trkpt>
      <trkpt lat="42.39585" lon="-7.7131886">
        <time>2021-11-27T12:14:14Z</time>
      </trkpt>
      <trkpt lat="42.395844" lon="-7.713199">
        <time>2021-11-27T12:14:15Z</time>
      </trkpt>
      <trkpt lat="42.395844" lon="-7.713211">
        <time>2021-11-27T12:14:16Z</time>
      </trkpt>
      <trkpt lat="42.395847" lon="-7.7132196">
        <time>2021-11-27T12:14:17Z</time>
      </trkpt>
      <trkpt lat="42.395847" lon="-7.7132287">
        <time>2021-11-27T12:14:18Z</time>
      </trkpt>
      <trkpt lat="42.395863" lon="-7.7132187">
        <time>2021-11-27T12:14:19Z</time>
      </trkpt>
      <trkpt lat="42.39588" lon="-7.713208">
        <time>2021-11-27T12:14:20Z</time>
      </trkpt>
      <trkpt lat="42.39593" lon="-7.713227">
        <time>2021-11-27T12:14:22Z</time>
      </trkpt>
      <trkpt lat="42.39593" lon="-7.7132335">
        <time>2021-11-27T12:14:23Z</time>
      </trkpt>
      <trkpt lat="42.395924" lon="-7.713246">
        <time>2021-11-27T12:14:24Z</time>
      </trkpt>
      <trkpt lat="42.395916" lon="-7.71329">
        <time>2021-11-27T12:14:26Z</time>
      </trkpt>
      <trkpt lat="42.395912" lon="-7.713292">
        <time>2021-11-27T12:14:27Z</time>
      </trkpt>
      <trkpt lat="42.395912" lon="-7.7132964">
        <time>2021-11-27T12:14:28Z</time>
      </trkpt>
      <trkpt lat="42.39591" lon="-7.7133026">
        <time>2021-11-27T12:14:29Z</time>
      </trkpt>
      <trkpt lat="42.39591" lon="-7.713311">
        <time>2021-11-27T12:14:30Z</time>
      </trkpt>
      <trkpt lat="42.395905" lon="-7.713325">
        <time>2021-11-27T12:14:31Z</time>
      </trkpt>
      <trkpt lat="42.395905" lon="-7.7133408">
        <time>2021-11-27T12:14:32Z</time>
      </trkpt>
      <trkpt lat="42.3959" lon="-7.71336">
        <time>2021-11-27T12:14:33Z</time>
      </trkpt>
      <trkpt lat="42.3959" lon="-7.7133784">
        <time>2021-11-27T12:14:34Z</time>
      </trkpt>
      <trkpt lat="42.39591" lon="-7.7133985">
        <time>2021-11-27T12:14:35Z</time>
      </trkpt>
      <trkpt lat="42.39591" lon="-7.713417">
        <time>2021-11-27T12:14:36Z</time>
      </trkpt>
      <trkpt lat="42.39591" lon="-7.7134366">
        <time>2021-11-27T12:14:37Z</time>
      </trkpt>
      <trkpt lat="42.39591" lon="-7.7134547">
        <time>2021-11-27T12:14:38Z</time>
      </trkpt>
      <trkpt lat="42.395905" lon="-7.713471">
        <time>2021-11-27T12:14:39Z</time>
      </trkpt>
      <trkpt lat="42.395893" lon="-7.71349">
        <time>2021-11-27T12:14:40Z</time>
      </trkpt>
      <trkpt lat="42.39588" lon="-7.7135096">
        <time>2021-11-27T12:14:41Z</time>
      </trkpt>
      <trkpt lat="42.395878" lon="-7.7135277">
        <time>2021-11-27T12:14:42Z</time>
      </trkpt>
      <trkpt lat="42.395874" lon="-7.713545">
        <time>2021-11-27T12:14:43Z</time>
      </trkpt>
      <trkpt lat="42.39588" lon="-7.71356">
        <time>2021-11-27T12:14:44Z</time>
      </trkpt>
      <trkpt lat="42.395885" lon="-7.713577">
        <time>2021-11-27T12:14:45Z</time>
      </trkpt>
      <trkpt lat="42.395897" lon="-7.713591">
        <time>2021-11-27T12:14:46Z</time>
      </trkpt>
      <trkpt lat="42.39591" lon="-7.713606">
        <time>2021-11-27T12:14:47Z</time>
      </trkpt>
      <trkpt lat="42.395916" lon="-7.7136188">
        <time>2021-11-27T12:14:48Z</time>
      </trkpt>
      <trkpt lat="42.39593" lon="-7.713634">
        <time>2021-11-27T12:14:49Z</time>
      </trkpt>
      <trkpt lat="42.39594" lon="-7.7136497">
        <time>2021-11-27T12:14:50Z</time>
      </trkpt>
      <trkpt lat="42.395947" lon="-7.713666">
        <time>2021-11-27T12:14:51Z</time>
      </trkpt>
      <trkpt lat="42.395958" lon="-7.7136836">
        <time>2021-11-27T12:14:52Z</time>
      </trkpt>
      <trkpt lat="42.39597" lon="-7.713702">
        <time>2021-11-27T12:14:53Z</time>
      </trkpt>
      <trkpt lat="42.395977" lon="-7.7137218">
        <time>2021-11-27T12:14:54Z</time>
      </trkpt>
      <trkpt lat="42.39598" lon="-7.7137394">
        <time>2021-11-27T12:14:55Z</time>
      </trkpt>
      <trkpt lat="42.39599" lon="-7.713756">
        <time>2021-11-27T12:14:56Z</time>
      </trkpt>
      <trkpt lat="42.396" lon="-7.713771">
        <time>2021-11-27T12:14:57Z</time>
      </trkpt>
      <trkpt lat="42.396008" lon="-7.7137833">
        <time>2021-11-27T12:14:58Z</time>
      </trkpt>
      <trkpt lat="42.396015" lon="-7.713795">
        <time>2021-11-27T12:14:59Z</time>
      </trkpt>
      <trkpt lat="42.396027" lon="-7.7138104">
        <time>2021-11-27T12:15:00Z</time>
      </trkpt>
      <trkpt lat="42.396038" lon="-7.713825">
        <time>2021-11-27T12:15:01Z</time>
      </trkpt>
      <trkpt lat="42.396046" lon="-7.7138405">
        <time>2021-11-27T12:15:02Z</time>
      </trkpt>
      <trkpt lat="42.396057" lon="-7.713859">
        <time>2021-11-27T12:15:03Z</time>
      </trkpt>
      <trkpt lat="42.39607" lon="-7.7138796">
        <time>2021-11-27T12:15:04Z</time>
      </trkpt>
      <trkpt lat="42.396072" lon="-7.7138963">
        <time>2021-11-27T12:15:05Z</time>
      </trkpt>
      <trkpt lat="42.39608" lon="-7.7139106">
        <time>2021-11-27T12:15:06Z</time>
      </trkpt>
      <trkpt lat="42.39609" lon="-7.7139263">
        <time>2021-11-27T12:15:07Z</time>
      </trkpt>
      <trkpt lat="42.3961" lon="-7.7139435">
        <time>2021-11-27T12:15:08Z</time>
      </trkpt>
      <trkpt lat="42.396107" lon="-7.7139597">
        <time>2021-11-27T12:15:09Z</time>
      </trkpt>
      <trkpt lat="42.39612" lon="-7.7139797">
        <time>2021-11-27T12:15:10Z</time>
      </trkpt>
      <trkpt lat="42.39613" lon="-7.714001">
        <time>2021-11-27T12:15:11Z</time>
      </trkpt>
      <trkpt lat="42.39614" lon="-7.7140226">
        <time>2021-11-27T12:15:12Z</time>
      </trkpt>
      <trkpt lat="42.396152" lon="-7.7140436">
        <time>2021-11-27T12:15:13Z</time>
      </trkpt>
      <trkpt lat="42.396164" lon="-7.7140613">
        <time>2021-11-27T12:15:14Z</time>
      </trkpt>
      <trkpt lat="42.39618" lon="-7.714077">
        <time>2021-11-27T12:15:15Z</time>
      </trkpt>
      <trkpt lat="42.396194" lon="-7.714089">
        <time>2021-11-27T12:15:16Z</time>
      </trkpt>
      <trkpt lat="42.396206" lon="-7.7141">
        <time>2021-11-27T12:15:17Z</time>
      </trkpt>
      <trkpt lat="42.396217" lon="-7.714111">
        <time>2021-11-27T12:15:18Z</time>
      </trkpt>
      <trkpt lat="42.396233" lon="-7.714122">
        <time>2021-11-27T12:15:19Z</time>
      </trkpt>
      <trkpt lat="42.396248" lon="-7.7141294">
        <time>2021-11-27T12:15:20Z</time>
      </trkpt>
      <trkpt lat="42.396263" lon="-7.7141333">
        <time>2021-11-27T12:15:21Z</time>
      </trkpt>
      <trkpt lat="42.396286" lon="-7.7141376">
        <time>2021-11-27T12:15:22Z</time>
      </trkpt>
      <trkpt lat="42.39631" lon="-7.714143">
        <time>2021-11-27T12:15:23Z</time>
      </trkpt>
      <trkpt lat="42.396328" lon="-7.714148">
        <time>2021-11-27T12:15:24Z</time>
      </trkpt>
      <trkpt lat="42.39635" lon="-7.714152">
        <time>2021-11-27T12:15:25Z</time>
      </trkpt>
      <trkpt lat="42.396366" lon="-7.7141576">
        <time>2021-11-27T12:15:26Z</time>
      </trkpt>
      <trkpt lat="42.39638" lon="-7.7141633">
        <time>2021-11-27T12:15:27Z</time>
      </trkpt>
      <trkpt lat="42.396404" lon="-7.714169">
        <time>2021-11-27T12:15:28Z</time>
      </trkpt>
      <trkpt lat="42.396416" lon="-7.7141767">
        <time>2021-11-27T12:15:29Z</time>
      </trkpt>
      <trkpt lat="42.396427" lon="-7.7141848">
        <time>2021-11-27T12:15:30Z</time>
      </trkpt>
      <trkpt lat="42.396435" lon="-7.714192">
        <time>2021-11-27T12:15:31Z</time>
      </trkpt>
      <trkpt lat="42.396442" lon="-7.7142015">
        <time>2021-11-27T12:15:32Z</time>
      </trkpt>
      <trkpt lat="42.39645" lon="-7.714215">
        <time>2021-11-27T12:15:33Z</time>
      </trkpt>
      <trkpt lat="42.39646" lon="-7.714229">
        <time>2021-11-27T12:15:34Z</time>
      </trkpt>
      <trkpt lat="42.396465" lon="-7.714244">
        <time>2021-11-27T12:15:35Z</time>
      </trkpt>
      <trkpt lat="42.39647" lon="-7.7142572">
        <time>2021-11-27T12:15:36Z</time>
      </trkpt>
      <trkpt lat="42.396477" lon="-7.71427">
        <time>2021-11-27T12:15:37Z</time>
      </trkpt>
      <trkpt lat="42.396484" lon="-7.714283">
        <time>2021-11-27T12:15:38Z</time>
      </trkpt>
      <trkpt lat="42.396492" lon="-7.714295">
        <time>2021-11-27T12:15:39Z</time>
      </trkpt>
      <trkpt lat="42.3965" lon="-7.714304">
        <time>2021-11-27T12:15:40Z</time>
      </trkpt>
      <trkpt lat="42.396507" lon="-7.7143135">
        <time>2021-11-27T12:15:41Z</time>
      </trkpt>
      <trkpt lat="42.396515" lon="-7.714326">
        <time>2021-11-27T12:15:42Z</time>
      </trkpt>
      <trkpt lat="42.396523" lon="-7.714338">
        <time>2021-11-27T12:15:43Z</time>
      </trkpt>
      <trkpt lat="42.39653" lon="-7.7143526">
        <time>2021-11-27T12:15:44Z</time>
      </trkpt>
      <trkpt lat="42.396538" lon="-7.714368">
        <time>2021-11-27T12:15:45Z</time>
      </trkpt>
      <trkpt lat="42.396545" lon="-7.7143826">
        <time>2021-11-27T12:15:46Z</time>
      </trkpt>
      <trkpt lat="42.39655" lon="-7.714396">
        <time>2021-11-27T12:15:47Z</time>
      </trkpt>
      <trkpt lat="42.396553" lon="-7.714409">
        <time>2021-11-27T12:15:48Z</time>
      </trkpt>
      <trkpt lat="42.396557" lon="-7.7144213">
        <time>2021-11-27T12:15:49Z</time>
      </trkpt>
      <trkpt lat="42.396564" lon="-7.714434">
        <time>2021-11-27T12:15:50Z</time>
      </trkpt>
      <trkpt lat="42.39657" lon="-7.7144475">
        <time>2021-11-27T12:15:51Z</time>
      </trkpt>
      <trkpt lat="42.396576" lon="-7.7144623">
        <time>2021-11-27T12:15:52Z</time>
      </trkpt>
      <trkpt lat="42.396584" lon="-7.7144775">
        <time>2021-11-27T12:15:53Z</time>
      </trkpt>
      <trkpt lat="42.39659" lon="-7.714493">
        <time>2021-11-27T12:15:54Z</time>
      </trkpt>
      <trkpt lat="42.3966" lon="-7.714507">
        <time>2021-11-27T12:15:55Z</time>
      </trkpt>
      <trkpt lat="42.396606" lon="-7.7145185">
        <time>2021-11-27T12:15:56Z</time>
      </trkpt>
      <trkpt lat="42.396614" lon="-7.714527">
        <time>2021-11-27T12:15:57Z</time>
      </trkpt>
      <trkpt lat="42.396618" lon="-7.7145343">
        <time>2021-11-27T12:16:03Z</time>
      </trkpt>
      <trkpt lat="42.396626" lon="-7.71454">
        <time>2021-11-27T12:16:03Z</time>
      </trkpt>
      <trkpt lat="42.396633" lon="-7.7145457">
        <time>2021-11-27T12:16:03Z</time>
      </trkpt>
      <trkpt lat="42.39664" lon="-7.7145524">
        <time>2021-11-27T12:16:03Z</time>
      </trkpt>
      <trkpt lat="42.396652" lon="-7.7145596">
        <time>2021-11-27T12:16:03Z</time>
      </trkpt>
      <trkpt lat="42.39666" lon="-7.7145653">
        <time>2021-11-27T12:16:04Z</time>
      </trkpt>
      <trkpt lat="42.39667" lon="-7.7145715">
        <time>2021-11-27T12:16:04Z</time>
      </trkpt>
      <trkpt lat="42.39668" lon="-7.7145786">
        <time>2021-11-27T12:16:05Z</time>
      </trkpt>
      <trkpt lat="42.396694" lon="-7.7145867">
        <time>2021-11-27T12:16:06Z</time>
      </trkpt>
      <trkpt lat="42.3967" lon="-7.714596">
        <time>2021-11-27T12:16:07Z</time>
      </trkpt>
      <trkpt lat="42.396713" lon="-7.7146063">
        <time>2021-11-27T12:16:08Z</time>
      </trkpt>
      <trkpt lat="42.396717" lon="-7.7146187">
        <time>2021-11-27T12:16:09Z</time>
      </trkpt>
      <trkpt lat="42.39672" lon="-7.7146325">
        <time>2021-11-27T12:16:10Z</time>
      </trkpt>
      <trkpt lat="42.39672" lon="-7.714644">
        <time>2021-11-27T12:16:11Z</time>
      </trkpt>
      <trkpt lat="42.39672" lon="-7.714654">
        <time>2021-11-27T12:16:12Z</time>
      </trkpt>
      <trkpt lat="42.396717" lon="-7.714665">
        <time>2021-11-27T12:16:13Z</time>
      </trkpt>
      <trkpt lat="42.396717" lon="-7.7146745">
        <time>2021-11-27T12:16:14Z</time>
      </trkpt>
      <trkpt lat="42.396717" lon="-7.714685">
        <time>2021-11-27T12:16:15Z</time>
      </trkpt>
      <trkpt lat="42.396717" lon="-7.7146964">
        <time>2021-11-27T12:16:16Z</time>
      </trkpt>
      <trkpt lat="42.396717" lon="-7.7147083">
        <time>2021-11-27T12:16:17Z</time>
      </trkpt>
      <trkpt lat="42.39672" lon="-7.714723">
        <time>2021-11-27T12:16:18Z</time>
      </trkpt>
      <trkpt lat="42.396725" lon="-7.714738">
        <time>2021-11-27T12:16:19Z</time>
      </trkpt>
      <trkpt lat="42.39673" lon="-7.714756">
        <time>2021-11-27T12:16:20Z</time>
      </trkpt>
      <trkpt lat="42.396732" lon="-7.7147717">
        <time>2021-11-27T12:16:21Z</time>
      </trkpt>
      <trkpt lat="42.396732" lon="-7.7147884">
        <time>2021-11-27T12:16:22Z</time>
      </trkpt>
      <trkpt lat="42.396725" lon="-7.7148046">
        <time>2021-11-27T12:16:23Z</time>
      </trkpt>
      <trkpt lat="42.39672" lon="-7.7148204">
        <time>2021-11-27T12:16:24Z</time>
      </trkpt>
      <trkpt lat="42.396717" lon="-7.7148376">
        <time>2021-11-27T12:16:25Z</time>
      </trkpt>
      <trkpt lat="42.396717" lon="-7.714858">
        <time>2021-11-27T12:16:26Z</time>
      </trkpt>
      <trkpt lat="42.396725" lon="-7.7148776">
        <time>2021-11-27T12:16:27Z</time>
      </trkpt>
      <trkpt lat="42.396732" lon="-7.714897">
        <time>2021-11-27T12:16:28Z</time>
      </trkpt>
      <trkpt lat="42.39674" lon="-7.7149143">
        <time>2021-11-27T12:16:29Z</time>
      </trkpt>
      <trkpt lat="42.396748" lon="-7.714931">
        <time>2021-11-27T12:16:30Z</time>
      </trkpt>
      <trkpt lat="42.396755" lon="-7.7149453">
        <time>2021-11-27T12:16:31Z</time>
      </trkpt>
      <trkpt lat="42.396763" lon="-7.714958">
        <time>2021-11-27T12:16:32Z</time>
      </trkpt>
      <trkpt lat="42.396774" lon="-7.714971">
        <time>2021-11-27T12:16:33Z</time>
      </trkpt>
      <trkpt lat="42.396782" lon="-7.7149816">
        <time>2021-11-27T12:16:34Z</time>
      </trkpt>
      <trkpt lat="42.39679" lon="-7.714992">
        <time>2021-11-27T12:16:35Z</time>
      </trkpt>
      <trkpt lat="42.396797" lon="-7.7150035">
        <time>2021-11-27T12:16:36Z</time>
      </trkpt>
      <trkpt lat="42.3968" lon="-7.715014">
        <time>2021-11-27T12:16:37Z</time>
      </trkpt>
      <trkpt lat="42.396812" lon="-7.715026">
        <time>2021-11-27T12:16:38Z</time>
      </trkpt>
      <trkpt lat="42.396816" lon="-7.7150383">
        <time>2021-11-27T12:16:39Z</time>
      </trkpt>
      <trkpt lat="42.396824" lon="-7.7150517">
        <time>2021-11-27T12:16:40Z</time>
      </trkpt>
      <trkpt lat="42.39683" lon="-7.715067">
        <time>2021-11-27T12:16:41Z</time>
      </trkpt>
      <trkpt lat="42.396835" lon="-7.7150836">
        <time>2021-11-27T12:16:42Z</time>
      </trkpt>
      <trkpt lat="42.396843" lon="-7.7150993">
        <time>2021-11-27T12:16:43Z</time>
      </trkpt>
      <trkpt lat="42.396847" lon="-7.715112">
        <time>2021-11-27T12:16:44Z</time>
      </trkpt>
      <trkpt lat="42.39686" lon="-7.7151237">
        <time>2021-11-27T12:16:45Z</time>
      </trkpt>
      <trkpt lat="42.396866" lon="-7.7151356">
        <time>2021-11-27T12:16:46Z</time>
      </trkpt>
      <trkpt lat="42.396873" lon="-7.7151475">
        <time>2021-11-27T12:16:47Z</time>
      </trkpt>
      <trkpt lat="42.39688" lon="-7.71516">
        <time>2021-11-27T12:16:48Z</time>
      </trkpt>
      <trkpt lat="42.396893" lon="-7.715172">
        <time>2021-11-27T12:16:49Z</time>
      </trkpt>
      <trkpt lat="42.396896" lon="-7.715184">
        <time>2021-11-27T12:16:50Z</time>
      </trkpt>
      <trkpt lat="42.3969" lon="-7.7151966">
        <time>2021-11-27T12:16:51Z</time>
      </trkpt>
      <trkpt lat="42.396904" lon="-7.7152114">
        <time>2021-11-27T12:16:52Z</time>
      </trkpt>
      <trkpt lat="42.39692" lon="-7.715234">
        <time>2021-11-27T12:16:53Z</time>
      </trkpt>
      <trkpt lat="42.39693" lon="-7.7152543">
        <time>2021-11-27T12:16:54Z</time>
      </trkpt>
      <trkpt lat="42.396942" lon="-7.715271">
        <time>2021-11-27T12:16:55Z</time>
      </trkpt>
      <trkpt lat="42.39696" lon="-7.715289">
        <time>2021-11-27T12:16:56Z</time>
      </trkpt>
      <trkpt lat="42.396973" lon="-7.7153063">
        <time>2021-11-27T12:16:57Z</time>
      </trkpt>
      <trkpt lat="42.396984" lon="-7.715327">
        <time>2021-11-27T12:16:59Z</time>
      </trkpt>
      <trkpt lat="42.396996" lon="-7.7153454">
        <time>2021-11-27T12:16:59Z</time>
      </trkpt>
      <trkpt lat="42.397003" lon="-7.7153645">
        <time>2021-11-27T12:17:00Z</time>
      </trkpt>
      <trkpt lat="42.39701" lon="-7.7153845">
        <time>2021-11-27T12:17:02Z</time>
      </trkpt>
      <trkpt lat="42.397015" lon="-7.715402">
        <time>2021-11-27T12:17:02Z</time>
      </trkpt>
      <trkpt lat="42.39702" lon="-7.7154217">
        <time>2021-11-27T12:17:03Z</time>
      </trkpt>
      <trkpt lat="42.397026" lon="-7.715439">
        <time>2021-11-27T12:17:04Z</time>
      </trkpt>
      <trkpt lat="42.39703" lon="-7.7154565">
        <time>2021-11-27T12:17:05Z</time>
      </trkpt>
      <trkpt lat="42.397034" lon="-7.715473">
        <time>2021-11-27T12:17:06Z</time>
      </trkpt>
      <trkpt lat="42.397045" lon="-7.71549">
        <time>2021-11-27T12:17:07Z</time>
      </trkpt>
      <trkpt lat="42.39706" lon="-7.715508">
        <time>2021-11-27T12:17:08Z</time>
      </trkpt>
      <trkpt lat="42.397076" lon="-7.7155256">
        <time>2021-11-27T12:17:09Z</time>
      </trkpt>
      <trkpt lat="42.397087" lon="-7.7155423">
        <time>2021-11-27T12:17:10Z</time>
      </trkpt>
      <trkpt lat="42.397095" lon="-7.715557">
        <time>2021-11-27T12:17:11Z</time>
      </trkpt>
      <trkpt lat="42.3971" lon="-7.7155733">
        <time>2021-11-27T12:17:12Z</time>
      </trkpt>
      <trkpt lat="42.397102" lon="-7.715589">
        <time>2021-11-27T12:17:13Z</time>
      </trkpt>
      <trkpt lat="42.397102" lon="-7.715606">
        <time>2021-11-27T12:17:14Z</time>
      </trkpt>
      <trkpt lat="42.397102" lon="-7.715622">
        <time>2021-11-27T12:17:14Z</time>
      </trkpt>
      <trkpt lat="42.397106" lon="-7.7156353">
        <time>2021-11-27T12:17:15Z</time>
      </trkpt>
      <trkpt lat="42.39711" lon="-7.715647">
        <time>2021-11-27T12:17:16Z</time>
      </trkpt>
      <trkpt lat="42.397118" lon="-7.7156587">
        <time>2021-11-27T12:17:17Z</time>
      </trkpt>
      <trkpt lat="42.39712" lon="-7.7156715">
        <time>2021-11-27T12:17:18Z</time>
      </trkpt>
      <trkpt lat="42.397125" lon="-7.7156844">
        <time>2021-11-27T12:17:19Z</time>
      </trkpt>
      <trkpt lat="42.397125" lon="-7.715699">
        <time>2021-11-27T12:17:20Z</time>
      </trkpt>
      <trkpt lat="42.397125" lon="-7.7157164">
        <time>2021-11-27T12:17:21Z</time>
      </trkpt>
      <trkpt lat="42.39713" lon="-7.715736">
        <time>2021-11-27T12:17:22Z</time>
      </trkpt>
      <trkpt lat="42.397133" lon="-7.715754">
        <time>2021-11-27T12:17:23Z</time>
      </trkpt>
      <trkpt lat="42.397137" lon="-7.7157707">
        <time>2021-11-27T12:17:24Z</time>
      </trkpt>
      <trkpt lat="42.397137" lon="-7.7157865">
        <time>2021-11-27T12:17:25Z</time>
      </trkpt>
      <trkpt lat="42.39713" lon="-7.7158017">
        <time>2021-11-27T12:17:26Z</time>
      </trkpt>
      <trkpt lat="42.397125" lon="-7.7158155">
        <time>2021-11-27T12:17:27Z</time>
      </trkpt>
      <trkpt lat="42.39712" lon="-7.715831">
        <time>2021-11-27T12:17:28Z</time>
      </trkpt>
      <trkpt lat="42.39711" lon="-7.7158456">
        <time>2021-11-27T12:17:29Z</time>
      </trkpt>
      <trkpt lat="42.397102" lon="-7.715862">
        <time>2021-11-27T12:17:30Z</time>
      </trkpt>
      <trkpt lat="42.397095" lon="-7.7158766">
        <time>2021-11-27T12:17:31Z</time>
      </trkpt>
      <trkpt lat="42.397083" lon="-7.715892">
        <time>2021-11-27T12:17:32Z</time>
      </trkpt>
      <trkpt lat="42.39707" lon="-7.715908">
        <time>2021-11-27T12:17:33Z</time>
      </trkpt>
      <trkpt lat="42.397064" lon="-7.7159243">
        <time>2021-11-27T12:17:34Z</time>
      </trkpt>
      <trkpt lat="42.397057" lon="-7.715942">
        <time>2021-11-27T12:17:35Z</time>
      </trkpt>
      <trkpt lat="42.397053" lon="-7.7159595">
        <time>2021-11-27T12:17:36Z</time>
      </trkpt>
      <trkpt lat="42.397045" lon="-7.71598">
        <time>2021-11-27T12:17:37Z</time>
      </trkpt>
      <trkpt lat="42.39704" lon="-7.7160006">
        <time>2021-11-27T12:17:38Z</time>
      </trkpt>
      <trkpt lat="42.397038" lon="-7.7160187">
        <time>2021-11-27T12:17:39Z</time>
      </trkpt>
      <trkpt lat="42.397034" lon="-7.7160363">
        <time>2021-11-27T12:17:40Z</time>
      </trkpt>
      <trkpt lat="42.397034" lon="-7.716053">
        <time>2021-11-27T12:17:41Z</time>
      </trkpt>
      <trkpt lat="42.39704" lon="-7.7160716">
        <time>2021-11-27T12:17:42Z</time>
      </trkpt>
      <trkpt lat="42.397045" lon="-7.7160916">
        <time>2021-11-27T12:17:43Z</time>
      </trkpt>
      <trkpt lat="42.397053" lon="-7.7161083">
        <time>2021-11-27T12:17:44Z</time>
      </trkpt>
      <trkpt lat="42.397064" lon="-7.7161217">
        <time>2021-11-27T12:17:45Z</time>
      </trkpt>
      <trkpt lat="42.397076" lon="-7.716135">
        <time>2021-11-27T12:17:46Z</time>
      </trkpt>
      <trkpt lat="42.39708" lon="-7.716148">
        <time>2021-11-27T12:17:47Z</time>
      </trkpt>
      <trkpt lat="42.397083" lon="-7.7161613">
        <time>2021-11-27T12:17:48Z</time>
      </trkpt>
      <trkpt lat="42.39708" lon="-7.7161775">
        <time>2021-11-27T12:17:49Z</time>
      </trkpt>
      <trkpt lat="42.39707" lon="-7.716194">
        <time>2021-11-27T12:17:50Z</time>
      </trkpt>
      <trkpt lat="42.397068" lon="-7.71621">
        <time>2021-11-27T12:17:51Z</time>
      </trkpt>
      <trkpt lat="42.39706" lon="-7.716226">
        <time>2021-11-27T12:17:52Z</time>
      </trkpt>
      <trkpt lat="42.397057" lon="-7.7162433">
        <time>2021-11-27T12:17:53Z</time>
      </trkpt>
      <trkpt lat="42.39706" lon="-7.716264">
        <time>2021-11-27T12:17:54Z</time>
      </trkpt>
      <trkpt lat="42.397068" lon="-7.7162848">
        <time>2021-11-27T12:17:55Z</time>
      </trkpt>
      <trkpt lat="42.397068" lon="-7.716304">
        <time>2021-11-27T12:17:56Z</time>
      </trkpt>
      <trkpt lat="42.39707" lon="-7.7163224">
        <time>2021-11-27T12:17:58Z</time>
      </trkpt>
      <trkpt lat="42.397068" lon="-7.716342">
        <time>2021-11-27T12:17:58Z</time>
      </trkpt>
      <trkpt lat="42.397064" lon="-7.71636">
        <time>2021-11-27T12:17:59Z</time>
      </trkpt>
      <trkpt lat="42.39706" lon="-7.7163777">
        <time>2021-11-27T12:18:00Z</time>
      </trkpt>
      <trkpt lat="42.397053" lon="-7.7163944">
        <time>2021-11-27T12:18:01Z</time>
      </trkpt>
      <trkpt lat="42.397045" lon="-7.71641">
        <time>2021-11-27T12:18:02Z</time>
      </trkpt>
      <trkpt lat="42.397038" lon="-7.7164254">
        <time>2021-11-27T12:18:03Z</time>
      </trkpt>
      <trkpt lat="42.397026" lon="-7.716441">
        <time>2021-11-27T12:18:04Z</time>
      </trkpt>
      <trkpt lat="42.397015" lon="-7.716457">
        <time>2021-11-27T12:18:05Z</time>
      </trkpt>
      <trkpt lat="42.397003" lon="-7.716472">
        <time>2021-11-27T12:18:06Z</time>
      </trkpt>
      <trkpt lat="42.396996" lon="-7.7164884">
        <time>2021-11-27T12:18:07Z</time>
      </trkpt>
      <trkpt lat="42.396984" lon="-7.7165055">
        <time>2021-11-27T12:18:08Z</time>
      </trkpt>
      <trkpt lat="42.396976" lon="-7.7165236">
        <time>2021-11-27T12:18:09Z</time>
      </trkpt>
      <trkpt lat="42.39697" lon="-7.7165403">
        <time>2021-11-27T12:18:10Z</time>
      </trkpt>
      <trkpt lat="42.39696" lon="-7.716557">
        <time>2021-11-27T12:18:11Z</time>
      </trkpt>
      <trkpt lat="42.39695" lon="-7.7165728">
        <time>2021-11-27T12:18:12Z</time>
      </trkpt>
      <trkpt lat="42.396942" lon="-7.7165895">
        <time>2021-11-27T12:18:13Z</time>
      </trkpt>
      <trkpt lat="42.396935" lon="-7.716608">
        <time>2021-11-27T12:18:14Z</time>
      </trkpt>
      <trkpt lat="42.396923" lon="-7.716625">
        <time>2021-11-27T12:18:15Z</time>
      </trkpt>
      <trkpt lat="42.396908" lon="-7.716642">
        <time>2021-11-27T12:18:16Z</time>
      </trkpt>
      <trkpt lat="42.3969" lon="-7.7166605">
        <time>2021-11-27T12:18:17Z</time>
      </trkpt>
      <trkpt lat="42.396896" lon="-7.716679">
        <time>2021-11-27T12:18:18Z</time>
      </trkpt>
      <trkpt lat="42.396896" lon="-7.716698">
        <time>2021-11-27T12:18:19Z</time>
      </trkpt>
      <trkpt lat="42.396896" lon="-7.716718">
        <time>2021-11-27T12:18:20Z</time>
      </trkpt>
      <trkpt lat="42.39689" lon="-7.716737">
        <time>2021-11-27T12:18:21Z</time>
      </trkpt>
      <trkpt lat="42.396885" lon="-7.716754">
        <time>2021-11-27T12:18:22Z</time>
      </trkpt>
      <trkpt lat="42.396877" lon="-7.7167706">
        <time>2021-11-27T12:18:23Z</time>
      </trkpt>
      <trkpt lat="42.39687" lon="-7.716786">
        <time>2021-11-27T12:18:24Z</time>
      </trkpt>
      <trkpt lat="42.396866" lon="-7.716801">
        <time>2021-11-27T12:18:25Z</time>
      </trkpt>
      <trkpt lat="42.39686" lon="-7.716816">
        <time>2021-11-27T12:18:26Z</time>
      </trkpt>
      <trkpt lat="42.396854" lon="-7.716831">
        <time>2021-11-27T12:18:27Z</time>
      </trkpt>
      <trkpt lat="42.396847" lon="-7.716846">
        <time>2021-11-27T12:18:28Z</time>
      </trkpt>
      <trkpt lat="42.39684" lon="-7.7168612">
        <time>2021-11-27T12:18:29Z</time>
      </trkpt>
      <trkpt lat="42.39683" lon="-7.716877">
        <time>2021-11-27T12:18:30Z</time>
      </trkpt>
      <trkpt lat="42.396824" lon="-7.716891">
        <time>2021-11-27T12:18:31Z</time>
      </trkpt>
      <trkpt lat="42.396816" lon="-7.716907">
        <time>2021-11-27T12:18:32Z</time>
      </trkpt>
      <trkpt lat="42.396812" lon="-7.7169223">
        <time>2021-11-27T12:18:33Z</time>
      </trkpt>
      <trkpt lat="42.39681" lon="-7.7169394">
        <time>2021-11-27T12:18:34Z</time>
      </trkpt>
      <trkpt lat="42.3968" lon="-7.716958">
        <time>2021-11-27T12:18:35Z</time>
      </trkpt>
      <trkpt lat="42.396793" lon="-7.716975">
        <time>2021-11-27T12:18:36Z</time>
      </trkpt>
      <trkpt lat="42.39678" lon="-7.716992">
        <time>2021-11-27T12:18:37Z</time>
      </trkpt>
      <trkpt lat="42.396767" lon="-7.717006">
        <time>2021-11-27T12:18:38Z</time>
      </trkpt>
      <trkpt lat="42.396755" lon="-7.7170215">
        <time>2021-11-27T12:18:39Z</time>
      </trkpt>
      <trkpt lat="42.396744" lon="-7.7170367">
        <time>2021-11-27T12:18:40Z</time>
      </trkpt>
      <trkpt lat="42.396732" lon="-7.717051">
        <time>2021-11-27T12:18:41Z</time>
      </trkpt>
      <trkpt lat="42.39673" lon="-7.717063">
        <time>2021-11-27T12:18:42Z</time>
      </trkpt>
      <trkpt lat="42.396725" lon="-7.7170763">
        <time>2021-11-27T12:18:43Z</time>
      </trkpt>
      <trkpt lat="42.396725" lon="-7.7170906">
        <time>2021-11-27T12:18:44Z</time>
      </trkpt>
      <trkpt lat="42.39672" lon="-7.7171044">
        <time>2021-11-27T12:18:45Z</time>
      </trkpt>
      <trkpt lat="42.396717" lon="-7.717117">
        <time>2021-11-27T12:18:46Z</time>
      </trkpt>
      <trkpt lat="42.396717" lon="-7.7171283">
        <time>2021-11-27T12:18:47Z</time>
      </trkpt>
      <trkpt lat="42.396713" lon="-7.7171397">
        <time>2021-11-27T12:18:48Z</time>
      </trkpt>
      <trkpt lat="42.396713" lon="-7.717152">
        <time>2021-11-27T12:18:49Z</time>
      </trkpt>
      <trkpt lat="42.39671" lon="-7.717166">
        <time>2021-11-27T12:18:50Z</time>
      </trkpt>
      <trkpt lat="42.39671" lon="-7.7171803">
        <time>2021-11-27T12:18:51Z</time>
      </trkpt>
      <trkpt lat="42.3967" lon="-7.7171955">
        <time>2021-11-27T12:18:52Z</time>
      </trkpt>
      <trkpt lat="42.396698" lon="-7.7172117">
        <time>2021-11-27T12:18:53Z</time>
      </trkpt>
      <trkpt lat="42.396694" lon="-7.717228">
        <time>2021-11-27T12:18:54Z</time>
      </trkpt>
      <trkpt lat="42.396687" lon="-7.7172427">
        <time>2021-11-27T12:18:55Z</time>
      </trkpt>
      <trkpt lat="42.39668" lon="-7.7172585">
        <time>2021-11-27T12:18:56Z</time>
      </trkpt>
      <trkpt lat="42.39667" lon="-7.7172747">
        <time>2021-11-27T12:18:57Z</time>
      </trkpt>
      <trkpt lat="42.396664" lon="-7.7172923">
        <time>2021-11-27T12:18:59Z</time>
      </trkpt>
      <trkpt lat="42.396652" lon="-7.7173114">
        <time>2021-11-27T12:18:59Z</time>
      </trkpt>
      <trkpt lat="42.396633" lon="-7.7173305">
        <time>2021-11-27T12:19:00Z</time>
      </trkpt>
      <trkpt lat="42.396618" lon="-7.717347">
        <time>2021-11-27T12:19:01Z</time>
      </trkpt>
      <trkpt lat="42.396606" lon="-7.717362">
        <time>2021-11-27T12:19:02Z</time>
      </trkpt>
      <trkpt lat="42.39659" lon="-7.717376">
        <time>2021-11-27T12:19:03Z</time>
      </trkpt>
      <trkpt lat="42.396576" lon="-7.7173896">
        <time>2021-11-27T12:19:04Z</time>
      </trkpt>
      <trkpt lat="42.396557" lon="-7.7174025">
        <time>2021-11-27T12:19:05Z</time>
      </trkpt>
      <trkpt lat="42.396538" lon="-7.717414">
        <time>2021-11-27T12:19:06Z</time>
      </trkpt>
      <trkpt lat="42.39653" lon="-7.7174277">
        <time>2021-11-27T12:19:07Z</time>
      </trkpt>
      <trkpt lat="42.396523" lon="-7.7174463">
        <time>2021-11-27T12:19:08Z</time>
      </trkpt>
      <trkpt lat="42.39652" lon="-7.717461">
        <time>2021-11-27T12:19:09Z</time>
      </trkpt>
      <trkpt lat="42.39652" lon="-7.7174735">
        <time>2021-11-27T12:19:10Z</time>
      </trkpt>
      <trkpt lat="42.39652" lon="-7.717485">
        <time>2021-11-27T12:19:11Z</time>
      </trkpt>
      <trkpt lat="42.396515" lon="-7.7174964">
        <time>2021-11-27T12:19:12Z</time>
      </trkpt>
      <trkpt lat="42.39651" lon="-7.717512">
        <time>2021-11-27T12:19:13Z</time>
      </trkpt>
      <trkpt lat="42.396507" lon="-7.7175303">
        <time>2021-11-27T12:19:14Z</time>
      </trkpt>
      <trkpt lat="42.396503" lon="-7.7175503">
        <time>2021-11-27T12:19:15Z</time>
      </trkpt>
      <trkpt lat="42.396503" lon="-7.717571">
        <time>2021-11-27T12:19:16Z</time>
      </trkpt>
      <trkpt lat="42.396503" lon="-7.7175903">
        <time>2021-11-27T12:19:17Z</time>
      </trkpt>
      <trkpt lat="42.396503" lon="-7.7176104">
        <time>2021-11-27T12:19:18Z</time>
      </trkpt>
      <trkpt lat="42.3965" lon="-7.7176294">
        <time>2021-11-27T12:19:19Z</time>
      </trkpt>
      <trkpt lat="42.396496" lon="-7.7176447">
        <time>2021-11-27T12:19:20Z</time>
      </trkpt>
      <trkpt lat="42.3965" lon="-7.7176595">
        <time>2021-11-27T12:19:21Z</time>
      </trkpt>
      <trkpt lat="42.396507" lon="-7.7176747">
        <time>2021-11-27T12:19:22Z</time>
      </trkpt>
      <trkpt lat="42.396523" lon="-7.7176943">
        <time>2021-11-27T12:19:23Z</time>
      </trkpt>
      <trkpt lat="42.396545" lon="-7.7177167">
        <time>2021-11-27T12:19:24Z</time>
      </trkpt>
      <trkpt lat="42.39656" lon="-7.7177434">
        <time>2021-11-27T12:19:25Z</time>
      </trkpt>
      <trkpt lat="42.39657" lon="-7.7177715">
        <time>2021-11-27T12:19:26Z</time>
      </trkpt>
      <trkpt lat="42.39658" lon="-7.7178016">
        <time>2021-11-27T12:19:27Z</time>
      </trkpt>
      <trkpt lat="42.39659" lon="-7.7178316">
        <time>2021-11-27T12:19:28Z</time>
      </trkpt>
      <trkpt lat="42.3966" lon="-7.7178564">
        <time>2021-11-27T12:19:29Z</time>
      </trkpt>
      <trkpt lat="42.396614" lon="-7.717876">
        <time>2021-11-27T12:19:30Z</time>
      </trkpt>
      <trkpt lat="42.396626" lon="-7.717897">
        <time>2021-11-27T12:19:31Z</time>
      </trkpt>
      <trkpt lat="42.396626" lon="-7.717919">
        <time>2021-11-27T12:19:32Z</time>
      </trkpt>
      <trkpt lat="42.39662" lon="-7.7179413">
        <time>2021-11-27T12:19:33Z</time>
      </trkpt>
      <trkpt lat="42.39661" lon="-7.7179646">
        <time>2021-11-27T12:19:34Z</time>
      </trkpt>
      <trkpt lat="42.39659" lon="-7.7179904">
        <time>2021-11-27T12:19:35Z</time>
      </trkpt>
      <trkpt lat="42.39657" lon="-7.7180123">
        <time>2021-11-27T12:19:36Z</time>
      </trkpt>
      <trkpt lat="42.396538" lon="-7.718034">
        <time>2021-11-27T12:19:37Z</time>
      </trkpt>
      <trkpt lat="42.396515" lon="-7.7180557">
        <time>2021-11-27T12:19:38Z</time>
      </trkpt>
      <trkpt lat="42.396492" lon="-7.7180796">
        <time>2021-11-27T12:19:39Z</time>
      </trkpt>
      <trkpt lat="42.396477" lon="-7.718102">
        <time>2021-11-27T12:19:40Z</time>
      </trkpt>
      <trkpt lat="42.396465" lon="-7.718123">
        <time>2021-11-27T12:19:41Z</time>
      </trkpt>
      <trkpt lat="42.396458" lon="-7.7181435">
        <time>2021-11-27T12:19:42Z</time>
      </trkpt>
      <trkpt lat="42.396446" lon="-7.718162">
        <time>2021-11-27T12:19:43Z</time>
      </trkpt>
      <trkpt lat="42.396442" lon="-7.718179">
        <time>2021-11-27T12:19:44Z</time>
      </trkpt>
      <trkpt lat="42.396435" lon="-7.718196">
        <time>2021-11-27T12:19:45Z</time>
      </trkpt>
      <trkpt lat="42.39643" lon="-7.7182126">
        <time>2021-11-27T12:19:46Z</time>
      </trkpt>
      <trkpt lat="42.396427" lon="-7.71823">
        <time>2021-11-27T12:19:47Z</time>
      </trkpt>
      <trkpt lat="42.39642" lon="-7.718246">
        <time>2021-11-27T12:19:48Z</time>
      </trkpt>
      <trkpt lat="42.39642" lon="-7.7182617">
        <time>2021-11-27T12:19:49Z</time>
      </trkpt>
      <trkpt lat="42.396416" lon="-7.718278">
        <time>2021-11-27T12:19:50Z</time>
      </trkpt>
      <trkpt lat="42.39642" lon="-7.7182913">
        <time>2021-11-27T12:19:51Z</time>
      </trkpt>
      <trkpt lat="42.396427" lon="-7.718306">
        <time>2021-11-27T12:19:52Z</time>
      </trkpt>
      <trkpt lat="42.396427" lon="-7.718323">
        <time>2021-11-27T12:19:53Z</time>
      </trkpt>
      <trkpt lat="42.396427" lon="-7.718348">
        <time>2021-11-27T12:19:54Z</time>
      </trkpt>
      <trkpt lat="42.39643" lon="-7.718377">
        <time>2021-11-27T12:19:55Z</time>
      </trkpt>
      <trkpt lat="42.396435" lon="-7.718398">
        <time>2021-11-27T12:19:56Z</time>
      </trkpt>
      <trkpt lat="42.396435" lon="-7.718416">
        <time>2021-11-27T12:19:57Z</time>
      </trkpt>
      <trkpt lat="42.396427" lon="-7.7184353">
        <time>2021-11-27T12:19:58Z</time>
      </trkpt>
      <trkpt lat="42.396416" lon="-7.7184525">
        <time>2021-11-27T12:19:59Z</time>
      </trkpt>
      <trkpt lat="42.3964" lon="-7.7184687">
        <time>2021-11-27T12:20:00Z</time>
      </trkpt>
      <trkpt lat="42.39638" lon="-7.7184854">
        <time>2021-11-27T12:20:01Z</time>
      </trkpt>
      <trkpt lat="42.39637" lon="-7.7185016">
        <time>2021-11-27T12:20:02Z</time>
      </trkpt>
      <trkpt lat="42.396366" lon="-7.718522">
        <time>2021-11-27T12:20:03Z</time>
      </trkpt>
      <trkpt lat="42.396362" lon="-7.7185435">
        <time>2021-11-27T12:20:04Z</time>
      </trkpt>
      <trkpt lat="42.396366" lon="-7.718565">
        <time>2021-11-27T12:20:05Z</time>
      </trkpt>
      <trkpt lat="42.396366" lon="-7.7185836">
        <time>2021-11-27T12:20:06Z</time>
      </trkpt>
      <trkpt lat="42.396366" lon="-7.718602">
        <time>2021-11-27T12:20:07Z</time>
      </trkpt>
      <trkpt lat="42.39637" lon="-7.7186193">
        <time>2021-11-27T12:20:08Z</time>
      </trkpt>
      <trkpt lat="42.396366" lon="-7.718635">
        <time>2021-11-27T12:20:09Z</time>
      </trkpt>
      <trkpt lat="42.396366" lon="-7.718649">
        <time>2021-11-27T12:20:10Z</time>
      </trkpt>
      <trkpt lat="42.39636" lon="-7.718662">
        <time>2021-11-27T12:20:11Z</time>
      </trkpt>
      <trkpt lat="42.396355" lon="-7.718673">
        <time>2021-11-27T12:20:12Z</time>
      </trkpt>
      <trkpt lat="42.396355" lon="-7.718686">
        <time>2021-11-27T12:20:13Z</time>
      </trkpt>
      <trkpt lat="42.396355" lon="-7.7186995">
        <time>2021-11-27T12:20:14Z</time>
      </trkpt>
      <trkpt lat="42.39635" lon="-7.7187123">
        <time>2021-11-27T12:20:15Z</time>
      </trkpt>
      <trkpt lat="42.39635" lon="-7.718725">
        <time>2021-11-27T12:20:16Z</time>
      </trkpt>
      <trkpt lat="42.396343" lon="-7.718735">
        <time>2021-11-27T12:20:17Z</time>
      </trkpt>
      <trkpt lat="42.396336" lon="-7.7187457">
        <time>2021-11-27T12:20:18Z</time>
      </trkpt>
      <trkpt lat="42.396324" lon="-7.7187557">
        <time>2021-11-27T12:20:19Z</time>
      </trkpt>
      <trkpt lat="42.396313" lon="-7.718766">
        <time>2021-11-27T12:20:20Z</time>
      </trkpt>
      <trkpt lat="42.396305" lon="-7.7187753">
        <time>2021-11-27T12:20:21Z</time>
      </trkpt>
      <trkpt lat="42.39629" lon="-7.718786">
        <time>2021-11-27T12:20:22Z</time>
      </trkpt>
      <trkpt lat="42.396282" lon="-7.7187996">
        <time>2021-11-27T12:20:23Z</time>
      </trkpt>
      <trkpt lat="42.396267" lon="-7.718814">
        <time>2021-11-27T12:20:24Z</time>
      </trkpt>
      <trkpt lat="42.396255" lon="-7.7188296">
        <time>2021-11-27T12:20:25Z</time>
      </trkpt>
      <trkpt lat="42.396248" lon="-7.718845">
        <time>2021-11-27T12:20:26Z</time>
      </trkpt>
      <trkpt lat="42.39624" lon="-7.7188597">
        <time>2021-11-27T12:20:27Z</time>
      </trkpt>
      <trkpt lat="42.396233" lon="-7.718873">
        <time>2021-11-27T12:20:28Z</time>
      </trkpt>
      <trkpt lat="42.396225" lon="-7.7188864">
        <time>2021-11-27T12:20:29Z</time>
      </trkpt>
      <trkpt lat="42.396217" lon="-7.718899">
        <time>2021-11-27T12:20:30Z</time>
      </trkpt>
      <trkpt lat="42.39621" lon="-7.7189107">
        <time>2021-11-27T12:20:31Z</time>
      </trkpt>
      <trkpt lat="42.39621" lon="-7.7189217">
        <time>2021-11-27T12:20:32Z</time>
      </trkpt>
      <trkpt lat="42.396202" lon="-7.718935">
        <time>2021-11-27T12:20:33Z</time>
      </trkpt>
      <trkpt lat="42.396194" lon="-7.7189474">
        <time>2021-11-27T12:20:34Z</time>
      </trkpt>
      <trkpt lat="42.396183" lon="-7.718959">
        <time>2021-11-27T12:20:35Z</time>
      </trkpt>
      <trkpt lat="42.396175" lon="-7.718969">
        <time>2021-11-27T12:20:36Z</time>
      </trkpt>
      <trkpt lat="42.396164" lon="-7.7189817">
        <time>2021-11-27T12:20:37Z</time>
      </trkpt>
      <trkpt lat="42.396152" lon="-7.718996">
        <time>2021-11-27T12:20:38Z</time>
      </trkpt>
      <trkpt lat="42.39614" lon="-7.719013">
        <time>2021-11-27T12:20:39Z</time>
      </trkpt>
      <trkpt lat="42.396126" lon="-7.71903">
        <time>2021-11-27T12:20:40Z</time>
      </trkpt>
      <trkpt lat="42.396114" lon="-7.7190456">
        <time>2021-11-27T12:20:41Z</time>
      </trkpt>
      <trkpt lat="42.396103" lon="-7.719059">
        <time>2021-11-27T12:20:42Z</time>
      </trkpt>
      <trkpt lat="42.396095" lon="-7.7190733">
        <time>2021-11-27T12:20:43Z</time>
      </trkpt>
      <trkpt lat="42.39608" lon="-7.719088">
        <time>2021-11-27T12:20:44Z</time>
      </trkpt>
      <trkpt lat="42.39607" lon="-7.7191033">
        <time>2021-11-27T12:20:45Z</time>
      </trkpt>
      <trkpt lat="42.39606" lon="-7.7191157">
        <time>2021-11-27T12:20:46Z</time>
      </trkpt>
      <trkpt lat="42.396053" lon="-7.7191277">
        <time>2021-11-27T12:20:47Z</time>
      </trkpt>
      <trkpt lat="42.396046" lon="-7.7191405">
        <time>2021-11-27T12:20:48Z</time>
      </trkpt>
      <trkpt lat="42.396038" lon="-7.7191553">
        <time>2021-11-27T12:20:49Z</time>
      </trkpt>
      <trkpt lat="42.396034" lon="-7.719171">
        <time>2021-11-27T12:20:50Z</time>
      </trkpt>
      <trkpt lat="42.39603" lon="-7.7191944">
        <time>2021-11-27T12:20:51Z</time>
      </trkpt>
      <trkpt lat="42.396023" lon="-7.7192173">
        <time>2021-11-27T12:20:52Z</time>
      </trkpt>
      <trkpt lat="42.39601" lon="-7.719238">
        <time>2021-11-27T12:20:53Z</time>
      </trkpt>
      <trkpt lat="42.396" lon="-7.7192554">
        <time>2021-11-27T12:20:54Z</time>
      </trkpt>
      <trkpt lat="42.395992" lon="-7.719273">
        <time>2021-11-27T12:20:55Z</time>
      </trkpt>
      <trkpt lat="42.395985" lon="-7.71929">
        <time>2021-11-27T12:20:56Z</time>
      </trkpt>
      <trkpt lat="42.395977" lon="-7.719304">
        <time>2021-11-27T12:20:58Z</time>
      </trkpt>
      <trkpt lat="42.395966" lon="-7.719319">
        <time>2021-11-27T12:20:58Z</time>
      </trkpt>
      <trkpt lat="42.39596" lon="-7.7193346">
        <time>2021-11-27T12:20:59Z</time>
      </trkpt>
      <trkpt lat="42.395958" lon="-7.7193522">
        <time>2021-11-27T12:21:00Z</time>
      </trkpt>
      <trkpt lat="42.39596" lon="-7.7193694">
        <time>2021-11-27T12:21:01Z</time>
      </trkpt>
      <trkpt lat="42.395958" lon="-7.719384">
        <time>2021-11-27T12:21:02Z</time>
      </trkpt>
      <trkpt lat="42.39595" lon="-7.7193966">
        <time>2021-11-27T12:21:03Z</time>
      </trkpt>
      <trkpt lat="42.395943" lon="-7.7194066">
        <time>2021-11-27T12:21:04Z</time>
      </trkpt>
      <trkpt lat="42.39593" lon="-7.719418">
        <time>2021-11-27T12:21:05Z</time>
      </trkpt>
      <trkpt lat="42.395924" lon="-7.719433">
        <time>2021-11-27T12:21:06Z</time>
      </trkpt>
      <trkpt lat="42.39591" lon="-7.7194505">
        <time>2021-11-27T12:21:07Z</time>
      </trkpt>
      <trkpt lat="42.395897" lon="-7.7194686">
        <time>2021-11-27T12:21:08Z</time>
      </trkpt>
      <trkpt lat="42.395893" lon="-7.719486">
        <time>2021-11-27T12:21:09Z</time>
      </trkpt>
      <trkpt lat="42.39589" lon="-7.7195034">
        <time>2021-11-27T12:21:10Z</time>
      </trkpt>
      <trkpt lat="42.39589" lon="-7.7195234">
        <time>2021-11-27T12:21:11Z</time>
      </trkpt>
      <trkpt lat="42.395893" lon="-7.719547">
        <time>2021-11-27T12:21:12Z</time>
      </trkpt>
      <trkpt lat="42.395893" lon="-7.719569">
        <time>2021-11-27T12:21:13Z</time>
      </trkpt>
      <trkpt lat="42.39589" lon="-7.71959">
        <time>2021-11-27T12:21:14Z</time>
      </trkpt>
      <trkpt lat="42.39588" lon="-7.71961">
        <time>2021-11-27T12:21:15Z</time>
      </trkpt>
      <trkpt lat="42.39588" lon="-7.7196255">
        <time>2021-11-27T12:21:16Z</time>
      </trkpt>
      <trkpt lat="42.39588" lon="-7.7196407">
        <time>2021-11-27T12:21:17Z</time>
      </trkpt>
      <trkpt lat="42.395874" lon="-7.7196584">
        <time>2021-11-27T12:21:18Z</time>
      </trkpt>
      <trkpt lat="42.39587" lon="-7.719677">
        <time>2021-11-27T12:21:19Z</time>
      </trkpt>
      <trkpt lat="42.395866" lon="-7.719696">
        <time>2021-11-27T12:21:20Z</time>
      </trkpt>
      <trkpt lat="42.395855" lon="-7.7197137">
        <time>2021-11-27T12:21:21Z</time>
      </trkpt>
      <trkpt lat="42.395844" lon="-7.71973">
        <time>2021-11-27T12:21:22Z</time>
      </trkpt>
      <trkpt lat="42.39582" lon="-7.7197423">
        <time>2021-11-27T12:21:23Z</time>
      </trkpt>
      <trkpt lat="42.395798" lon="-7.719753">
        <time>2021-11-27T12:21:24Z</time>
      </trkpt>
      <trkpt lat="42.395775" lon="-7.7197657">
        <time>2021-11-27T12:21:25Z</time>
      </trkpt>
      <trkpt lat="42.39576" lon="-7.719782">
        <time>2021-11-27T12:21:26Z</time>
      </trkpt>
      <trkpt lat="42.395752" lon="-7.719799">
        <time>2021-11-27T12:21:27Z</time>
      </trkpt>
      <trkpt lat="42.395744" lon="-7.719816">
        <time>2021-11-27T12:21:28Z</time>
      </trkpt>
      <trkpt lat="42.395744" lon="-7.719835">
        <time>2021-11-27T12:21:29Z</time>
      </trkpt>
      <trkpt lat="42.39575" lon="-7.7198553">
        <time>2021-11-27T12:21:29Z</time>
      </trkpt>
      <trkpt lat="42.395752" lon="-7.7198763">
        <time>2021-11-27T12:21:30Z</time>
      </trkpt>
      <trkpt lat="42.395752" lon="-7.7198977">
        <time>2021-11-27T12:21:31Z</time>
      </trkpt>
      <trkpt lat="42.395752" lon="-7.7199187">
        <time>2021-11-27T12:21:32Z</time>
      </trkpt>
      <trkpt lat="42.395756" lon="-7.719939">
        <time>2021-11-27T12:21:33Z</time>
      </trkpt>
      <trkpt lat="42.39576" lon="-7.719958">
        <time>2021-11-27T12:21:34Z</time>
      </trkpt>
      <trkpt lat="42.395756" lon="-7.7199755">
        <time>2021-11-27T12:21:35Z</time>
      </trkpt>
      <trkpt lat="42.395756" lon="-7.7199936">
        <time>2021-11-27T12:21:36Z</time>
      </trkpt>
      <trkpt lat="42.395752" lon="-7.7200103">
        <time>2021-11-27T12:21:37Z</time>
      </trkpt>
      <trkpt lat="42.395752" lon="-7.720026">
        <time>2021-11-27T12:21:38Z</time>
      </trkpt>
      <trkpt lat="42.395756" lon="-7.7200403">
        <time>2021-11-27T12:21:39Z</time>
      </trkpt>
      <trkpt lat="42.39576" lon="-7.720055">
        <time>2021-11-27T12:21:40Z</time>
      </trkpt>
      <trkpt lat="42.395763" lon="-7.720071">
        <time>2021-11-27T12:21:41Z</time>
      </trkpt>
      <trkpt lat="42.395767" lon="-7.720087">
        <time>2021-11-27T12:21:42Z</time>
      </trkpt>
      <trkpt lat="42.395763" lon="-7.7201037">
        <time>2021-11-27T12:21:43Z</time>
      </trkpt>
      <trkpt lat="42.39576" lon="-7.7201204">
        <time>2021-11-27T12:21:44Z</time>
      </trkpt>
      <trkpt lat="42.39575" lon="-7.7201333">
        <time>2021-11-27T12:21:45Z</time>
      </trkpt>
      <trkpt lat="42.395737" lon="-7.7201447">
        <time>2021-11-27T12:21:46Z</time>
      </trkpt>
      <trkpt lat="42.395725" lon="-7.7201557">
        <time>2021-11-27T12:21:47Z</time>
      </trkpt>
      <trkpt lat="42.395714" lon="-7.720166">
        <time>2021-11-27T12:21:48Z</time>
      </trkpt>
      <trkpt lat="42.395702" lon="-7.7201767">
        <time>2021-11-27T12:21:49Z</time>
      </trkpt>
      <trkpt lat="42.39569" lon="-7.720188">
        <time>2021-11-27T12:21:50Z</time>
      </trkpt>
      <trkpt lat="42.39568" lon="-7.7202024">
        <time>2021-11-27T12:21:51Z</time>
      </trkpt>
      <trkpt lat="42.39567" lon="-7.720218">
        <time>2021-11-27T12:21:52Z</time>
      </trkpt>
      <trkpt lat="42.395664" lon="-7.7202353">
        <time>2021-11-27T12:21:53Z</time>
      </trkpt>
      <trkpt lat="42.395657" lon="-7.720251">
        <time>2021-11-27T12:21:54Z</time>
      </trkpt>
      <trkpt lat="42.39565" lon="-7.720265">
        <time>2021-11-27T12:21:55Z</time>
      </trkpt>
      <trkpt lat="42.39564" lon="-7.7202764">
        <time>2021-11-27T12:21:56Z</time>
      </trkpt>
      <trkpt lat="42.395634" lon="-7.7202907">
        <time>2021-11-27T12:21:57Z</time>
      </trkpt>
      <trkpt lat="42.39563" lon="-7.720308">
        <time>2021-11-27T12:21:58Z</time>
      </trkpt>
      <trkpt lat="42.395626" lon="-7.720328">
        <time>2021-11-27T12:21:59Z</time>
      </trkpt>
      <trkpt lat="42.395622" lon="-7.7203465">
        <time>2021-11-27T12:22:00Z</time>
      </trkpt>
      <trkpt lat="42.395615" lon="-7.7203617">
        <time>2021-11-27T12:22:01Z</time>
      </trkpt>
      <trkpt lat="42.39561" lon="-7.7203774">
        <time>2021-11-27T12:22:02Z</time>
      </trkpt>
      <trkpt lat="42.395607" lon="-7.720394">
        <time>2021-11-27T12:22:03Z</time>
      </trkpt>
      <trkpt lat="42.395603" lon="-7.7204103">
        <time>2021-11-27T12:22:04Z</time>
      </trkpt>
      <trkpt lat="42.395596" lon="-7.720424">
        <time>2021-11-27T12:22:05Z</time>
      </trkpt>
      <trkpt lat="42.395588" lon="-7.720439">
        <time>2021-11-27T12:22:06Z</time>
      </trkpt>
      <trkpt lat="42.395576" lon="-7.7204514">
        <time>2021-11-27T12:22:07Z</time>
      </trkpt>
      <trkpt lat="42.395565" lon="-7.720462">
        <time>2021-11-27T12:22:08Z</time>
      </trkpt>
      <trkpt lat="42.395554" lon="-7.720471">
        <time>2021-11-27T12:22:09Z</time>
      </trkpt>
      <trkpt lat="42.395542" lon="-7.720478">
        <time>2021-11-27T12:22:10Z</time>
      </trkpt>
      <trkpt lat="42.395527" lon="-7.7204823">
        <time>2021-11-27T12:22:11Z</time>
      </trkpt>
      <trkpt lat="42.39551" lon="-7.7204876">
        <time>2021-11-27T12:22:12Z</time>
      </trkpt>
      <trkpt lat="42.395493" lon="-7.7204905">
        <time>2021-11-27T12:22:13Z</time>
      </trkpt>
      <trkpt lat="42.395477" lon="-7.7204914">
        <time>2021-11-27T12:22:14Z</time>
      </trkpt>
      <trkpt lat="42.395462" lon="-7.720496">
        <time>2021-11-27T12:22:15Z</time>
      </trkpt>
      <trkpt lat="42.395447" lon="-7.720504">
        <time>2021-11-27T12:22:16Z</time>
      </trkpt>
      <trkpt lat="42.39543" lon="-7.7205114">
        <time>2021-11-27T12:22:17Z</time>
      </trkpt>
      <trkpt lat="42.39542" lon="-7.7205186">
        <time>2021-11-27T12:22:18Z</time>
      </trkpt>
      <trkpt lat="42.395405" lon="-7.7205224">
        <time>2021-11-27T12:22:19Z</time>
      </trkpt>
      <trkpt lat="42.39539" lon="-7.720526">
        <time>2021-11-27T12:22:20Z</time>
      </trkpt>
      <trkpt lat="42.39538" lon="-7.7205286">
        <time>2021-11-27T12:22:21Z</time>
      </trkpt>
      <trkpt lat="42.395363" lon="-7.7205305">
        <time>2021-11-27T12:22:22Z</time>
      </trkpt>
      <trkpt lat="42.39535" lon="-7.7205324">
        <time>2021-11-27T12:22:23Z</time>
      </trkpt>
      <trkpt lat="42.39534" lon="-7.720532">
        <time>2021-11-27T12:22:24Z</time>
      </trkpt>
      <trkpt lat="42.395332" lon="-7.720532">
        <time>2021-11-27T12:22:25Z</time>
      </trkpt>
      <trkpt lat="42.39532" lon="-7.720534">
        <time>2021-11-27T12:22:26Z</time>
      </trkpt>
      <trkpt lat="42.39531" lon="-7.720538">
        <time>2021-11-27T12:22:27Z</time>
      </trkpt>
      <trkpt lat="42.395298" lon="-7.720544">
        <time>2021-11-27T12:22:28Z</time>
      </trkpt>
      <trkpt lat="42.395283" lon="-7.720546">
        <time>2021-11-27T12:22:29Z</time>
      </trkpt>
      <trkpt lat="42.395275" lon="-7.720547">
        <time>2021-11-27T12:22:30Z</time>
      </trkpt>
      <trkpt lat="42.395267" lon="-7.720549">
        <time>2021-11-27T12:22:31Z</time>
      </trkpt>
      <trkpt lat="42.395252" lon="-7.720551">
        <time>2021-11-27T12:22:32Z</time>
      </trkpt>
      <trkpt lat="42.395237" lon="-7.7205544">
        <time>2021-11-27T12:22:33Z</time>
      </trkpt>
      <trkpt lat="42.39522" lon="-7.720557">
        <time>2021-11-27T12:22:34Z</time>
      </trkpt>
      <trkpt lat="42.395206" lon="-7.7205586">
        <time>2021-11-27T12:22:35Z</time>
      </trkpt>
      <trkpt lat="42.39519" lon="-7.7205544">
        <time>2021-11-27T12:22:36Z</time>
      </trkpt>
      <trkpt lat="42.395176" lon="-7.720546">
        <time>2021-11-27T12:22:37Z</time>
      </trkpt>
      <trkpt lat="42.39516" lon="-7.7205353">
        <time>2021-11-27T12:22:38Z</time>
      </trkpt>
      <trkpt lat="42.395145" lon="-7.7205205">
        <time>2021-11-27T12:22:39Z</time>
      </trkpt>
      <trkpt lat="42.39513" lon="-7.720508">
        <time>2021-11-27T12:22:40Z</time>
      </trkpt>
      <trkpt lat="42.39511" lon="-7.7205005">
        <time>2021-11-27T12:22:41Z</time>
      </trkpt>
      <trkpt lat="42.395096" lon="-7.7204967">
        <time>2021-11-27T12:22:42Z</time>
      </trkpt>
      <trkpt lat="42.395077" lon="-7.720499">
        <time>2021-11-27T12:22:43Z</time>
      </trkpt>
      <trkpt lat="42.395058" lon="-7.7205067">
        <time>2021-11-27T12:22:44Z</time>
      </trkpt>
      <trkpt lat="42.395042" lon="-7.7205105">
        <time>2021-11-27T12:22:45Z</time>
      </trkpt>
      <trkpt lat="42.395023" lon="-7.72051">
        <time>2021-11-27T12:22:46Z</time>
      </trkpt>
      <trkpt lat="42.395008" lon="-7.7205095">
        <time>2021-11-27T12:22:47Z</time>
      </trkpt>
      <trkpt lat="42.394997" lon="-7.720513">
        <time>2021-11-27T12:22:48Z</time>
      </trkpt>
      <trkpt lat="42.39498" lon="-7.720517">
        <time>2021-11-27T12:22:49Z</time>
      </trkpt>
      <trkpt lat="42.39497" lon="-7.7205205">
        <time>2021-11-27T12:22:50Z</time>
      </trkpt>
      <trkpt lat="42.394962" lon="-7.7205224">
        <time>2021-11-27T12:22:51Z</time>
      </trkpt>
      <trkpt lat="42.39495" lon="-7.720523">
        <time>2021-11-27T12:22:52Z</time>
      </trkpt>
      <trkpt lat="42.394943" lon="-7.7205234">
        <time>2021-11-27T12:22:53Z</time>
      </trkpt>
      <trkpt lat="42.394928" lon="-7.7205253">
        <time>2021-11-27T12:22:54Z</time>
      </trkpt>
      <trkpt lat="42.394917" lon="-7.7205305">
        <time>2021-11-27T12:22:55Z</time>
      </trkpt>
      <trkpt lat="42.3949" lon="-7.720539">
        <time>2021-11-27T12:22:56Z</time>
      </trkpt>
      <trkpt lat="42.39489" lon="-7.720549">
        <time>2021-11-27T12:22:57Z</time>
      </trkpt>
      <trkpt lat="42.39488" lon="-7.7205596">
        <time>2021-11-27T12:22:58Z</time>
      </trkpt>
      <trkpt lat="42.394863" lon="-7.7205677">
        <time>2021-11-27T12:22:59Z</time>
      </trkpt>
      <trkpt lat="42.394844" lon="-7.720574">
        <time>2021-11-27T12:23:00Z</time>
      </trkpt>
      <trkpt lat="42.394825" lon="-7.7205806">
        <time>2021-11-27T12:23:01Z</time>
      </trkpt>
      <trkpt lat="42.39481" lon="-7.7205863">
        <time>2021-11-27T12:23:02Z</time>
      </trkpt>
      <trkpt lat="42.394794" lon="-7.720594">
        <time>2021-11-27T12:23:03Z</time>
      </trkpt>
      <trkpt lat="42.39478" lon="-7.7206054">
        <time>2021-11-27T12:23:04Z</time>
      </trkpt>
      <trkpt lat="42.394768" lon="-7.7206197">
        <time>2021-11-27T12:23:05Z</time>
      </trkpt>
      <trkpt lat="42.394756" lon="-7.7206335">
        <time>2021-11-27T12:23:06Z</time>
      </trkpt>
      <trkpt lat="42.39475" lon="-7.720643">
        <time>2021-11-27T12:23:07Z</time>
      </trkpt>
      <trkpt lat="42.394722" lon="-7.720661">
        <time>2021-11-27T12:23:09Z</time>
      </trkpt>
      <trkpt lat="42.394714" lon="-7.7206607">
        <time>2021-11-27T12:23:10Z</time>
      </trkpt>
      <trkpt lat="42.39471" lon="-7.7206616">
        <time>2021-11-27T12:23:11Z</time>
      </trkpt>
      <trkpt lat="42.394703" lon="-7.7206635">
        <time>2021-11-27T12:23:12Z</time>
      </trkpt>
      <trkpt lat="42.39469" lon="-7.7206683">
        <time>2021-11-27T12:23:13Z</time>
      </trkpt>
      <trkpt lat="42.394684" lon="-7.720675">
        <time>2021-11-27T12:23:14Z</time>
      </trkpt>
      <trkpt lat="42.39468" lon="-7.7206836">
        <time>2021-11-27T12:23:15Z</time>
      </trkpt>
      <trkpt lat="42.394672" lon="-7.7206945">
        <time>2021-11-27T12:23:16Z</time>
      </trkpt>
      <trkpt lat="42.39467" lon="-7.720708">
        <time>2021-11-27T12:23:17Z</time>
      </trkpt>
      <trkpt lat="42.39466" lon="-7.720727">
        <time>2021-11-27T12:23:18Z</time>
      </trkpt>
      <trkpt lat="42.394653" lon="-7.720748">
        <time>2021-11-27T12:23:19Z</time>
      </trkpt>
      <trkpt lat="42.39465" lon="-7.72077">
        <time>2021-11-27T12:23:20Z</time>
      </trkpt>
      <trkpt lat="42.394646" lon="-7.72079">
        <time>2021-11-27T12:23:21Z</time>
      </trkpt>
      <trkpt lat="42.394646" lon="-7.7208114">
        <time>2021-11-27T12:23:22Z</time>
      </trkpt>
      <trkpt lat="42.394646" lon="-7.720835">
        <time>2021-11-27T12:23:23Z</time>
      </trkpt>
      <trkpt lat="42.39465" lon="-7.7208595">
        <time>2021-11-27T12:23:24Z</time>
      </trkpt>
      <trkpt lat="42.394653" lon="-7.7208853">
        <time>2021-11-27T12:23:25Z</time>
      </trkpt>
      <trkpt lat="42.394653" lon="-7.7209125">
        <time>2021-11-27T12:23:26Z</time>
      </trkpt>
      <trkpt lat="42.394653" lon="-7.7209396">
        <time>2021-11-27T12:23:27Z</time>
      </trkpt>
      <trkpt lat="42.394653" lon="-7.720964">
        <time>2021-11-27T12:23:28Z</time>
      </trkpt>
      <trkpt lat="42.394646" lon="-7.7209826">
        <time>2021-11-27T12:23:29Z</time>
      </trkpt>
      <trkpt lat="42.394638" lon="-7.7209997">
        <time>2021-11-27T12:23:30Z</time>
      </trkpt>
      <trkpt lat="42.394623" lon="-7.7210183">
        <time>2021-11-27T12:23:31Z</time>
      </trkpt>
      <trkpt lat="42.394615" lon="-7.721037">
        <time>2021-11-27T12:23:32Z</time>
      </trkpt>
      <trkpt lat="42.3946" lon="-7.7210555">
        <time>2021-11-27T12:23:33Z</time>
      </trkpt>
      <trkpt lat="42.394592" lon="-7.721072">
        <time>2021-11-27T12:23:34Z</time>
      </trkpt>
      <trkpt lat="42.394585" lon="-7.721088">
        <time>2021-11-27T12:23:35Z</time>
      </trkpt>
      <trkpt lat="42.394577" lon="-7.7211027">
        <time>2021-11-27T12:23:36Z</time>
      </trkpt>
      <trkpt lat="42.394577" lon="-7.72112">
        <time>2021-11-27T12:23:37Z</time>
      </trkpt>
      <trkpt lat="42.394573" lon="-7.721137">
        <time>2021-11-27T12:23:38Z</time>
      </trkpt>
      <trkpt lat="42.394566" lon="-7.721153">
        <time>2021-11-27T12:23:39Z</time>
      </trkpt>
      <trkpt lat="42.394558" lon="-7.721166">
        <time>2021-11-27T12:23:40Z</time>
      </trkpt>
      <trkpt lat="42.394547" lon="-7.721179">
        <time>2021-11-27T12:23:41Z</time>
      </trkpt>
      <trkpt lat="42.394535" lon="-7.7211905">
        <time>2021-11-27T12:23:42Z</time>
      </trkpt>
      <trkpt lat="42.394524" lon="-7.721205">
        <time>2021-11-27T12:23:43Z</time>
      </trkpt>
      <trkpt lat="42.394512" lon="-7.721225">
        <time>2021-11-27T12:23:44Z</time>
      </trkpt>
      <trkpt lat="42.3945" lon="-7.7212467">
        <time>2021-11-27T12:23:45Z</time>
      </trkpt>
      <trkpt lat="42.394493" lon="-7.7212706">
        <time>2021-11-27T12:23:46Z</time>
      </trkpt>
      <trkpt lat="42.39449" lon="-7.721294">
        <time>2021-11-27T12:23:47Z</time>
      </trkpt>
      <trkpt lat="42.394485" lon="-7.7213173">
        <time>2021-11-27T12:23:48Z</time>
      </trkpt>
      <trkpt lat="42.394485" lon="-7.7213383">
        <time>2021-11-27T12:23:49Z</time>
      </trkpt>
      <trkpt lat="42.394485" lon="-7.721357">
        <time>2021-11-27T12:23:50Z</time>
      </trkpt>
      <trkpt lat="42.394485" lon="-7.721374">
        <time>2021-11-27T12:23:51Z</time>
      </trkpt>
      <trkpt lat="42.394485" lon="-7.7213907">
        <time>2021-11-27T12:23:52Z</time>
      </trkpt>
      <trkpt lat="42.39448" lon="-7.721406">
        <time>2021-11-27T12:23:53Z</time>
      </trkpt>
      <trkpt lat="42.39448" lon="-7.721421">
        <time>2021-11-27T12:23:54Z</time>
      </trkpt>
      <trkpt lat="42.394474" lon="-7.721435">
        <time>2021-11-27T12:23:55Z</time>
      </trkpt>
      <trkpt lat="42.39447" lon="-7.7214494">
        <time>2021-11-27T12:23:56Z</time>
      </trkpt>
      <trkpt lat="42.394463" lon="-7.721464">
        <time>2021-11-27T12:23:58Z</time>
      </trkpt>
      <trkpt lat="42.394455" lon="-7.7214785">
        <time>2021-11-27T12:23:58Z</time>
      </trkpt>
      <trkpt lat="42.394447" lon="-7.7214932">
        <time>2021-11-27T12:23:59Z</time>
      </trkpt>
      <trkpt lat="42.394444" lon="-7.72151">
        <time>2021-11-27T12:24:00Z</time>
      </trkpt>
      <trkpt lat="42.39444" lon="-7.7215276">
        <time>2021-11-27T12:24:01Z</time>
      </trkpt>
      <trkpt lat="42.394436" lon="-7.7215443">
        <time>2021-11-27T12:24:02Z</time>
      </trkpt>
      <trkpt lat="42.394436" lon="-7.7215595">
        <time>2021-11-27T12:24:03Z</time>
      </trkpt>
      <trkpt lat="42.394436" lon="-7.7215757">
        <time>2021-11-27T12:24:04Z</time>
      </trkpt>
      <trkpt lat="42.39443" lon="-7.7215934">
        <time>2021-11-27T12:24:05Z</time>
      </trkpt>
      <trkpt lat="42.394424" lon="-7.721613">
        <time>2021-11-27T12:24:06Z</time>
      </trkpt>
      <trkpt lat="42.394413" lon="-7.7216306">
        <time>2021-11-27T12:24:07Z</time>
      </trkpt>
      <trkpt lat="42.394394" lon="-7.7216463">
        <time>2021-11-27T12:24:08Z</time>
      </trkpt>
      <trkpt lat="42.394375" lon="-7.7216587">
        <time>2021-11-27T12:24:09Z</time>
      </trkpt>
      <trkpt lat="42.394356" lon="-7.721673">
        <time>2021-11-27T12:24:10Z</time>
      </trkpt>
      <trkpt lat="42.394344" lon="-7.7216864">
        <time>2021-11-27T12:24:11Z</time>
      </trkpt>
      <trkpt lat="42.39434" lon="-7.7216997">
        <time>2021-11-27T12:24:12Z</time>
      </trkpt>
      <trkpt lat="42.394337" lon="-7.7217164">
        <time>2021-11-27T12:24:13Z</time>
      </trkpt>
      <trkpt lat="42.394337" lon="-7.7217317">
        <time>2021-11-27T12:24:14Z</time>
      </trkpt>
      <trkpt lat="42.394337" lon="-7.7217484">
        <time>2021-11-27T12:24:15Z</time>
      </trkpt>
      <trkpt lat="42.394333" lon="-7.721765">
        <time>2021-11-27T12:24:16Z</time>
      </trkpt>
      <trkpt lat="42.39433" lon="-7.721783">
        <time>2021-11-27T12:24:17Z</time>
      </trkpt>
      <trkpt lat="42.394325" lon="-7.7218003">
        <time>2021-11-27T12:24:18Z</time>
      </trkpt>
      <trkpt lat="42.39432" lon="-7.721819">
        <time>2021-11-27T12:24:19Z</time>
      </trkpt>
      <trkpt lat="42.394318" lon="-7.7218375">
        <time>2021-11-27T12:24:20Z</time>
      </trkpt>
      <trkpt lat="42.394314" lon="-7.7218566">
        <time>2021-11-27T12:24:21Z</time>
      </trkpt>
      <trkpt lat="42.39431" lon="-7.7218757">
        <time>2021-11-27T12:24:22Z</time>
      </trkpt>
      <trkpt lat="42.39431" lon="-7.7218943">
        <time>2021-11-27T12:24:23Z</time>
      </trkpt>
      <trkpt lat="42.394306" lon="-7.721915">
        <time>2021-11-27T12:24:24Z</time>
      </trkpt>
      <trkpt lat="42.394306" lon="-7.7219334">
        <time>2021-11-27T12:24:25Z</time>
      </trkpt>
      <trkpt lat="42.394302" lon="-7.7219543">
        <time>2021-11-27T12:24:26Z</time>
      </trkpt>
      <trkpt lat="42.394306" lon="-7.7219763">
        <time>2021-11-27T12:24:27Z</time>
      </trkpt>
      <trkpt lat="42.394306" lon="-7.7219954">
        <time>2021-11-27T12:24:28Z</time>
      </trkpt>
      <trkpt lat="42.394306" lon="-7.7220154">
        <time>2021-11-27T12:24:29Z</time>
      </trkpt>
      <trkpt lat="42.39431" lon="-7.7220345">
        <time>2021-11-27T12:24:30Z</time>
      </trkpt>
      <trkpt lat="42.394302" lon="-7.722055">
        <time>2021-11-27T12:24:31Z</time>
      </trkpt>
      <trkpt lat="42.3943" lon="-7.722076">
        <time>2021-11-27T12:24:32Z</time>
      </trkpt>
      <trkpt lat="42.394295" lon="-7.7220955">
        <time>2021-11-27T12:24:33Z</time>
      </trkpt>
      <trkpt lat="42.394287" lon="-7.722114">
        <time>2021-11-27T12:24:34Z</time>
      </trkpt>
      <trkpt lat="42.394283" lon="-7.7221313">
        <time>2021-11-27T12:24:35Z</time>
      </trkpt>
      <trkpt lat="42.39428" lon="-7.7221503">
        <time>2021-11-27T12:24:36Z</time>
      </trkpt>
      <trkpt lat="42.39428" lon="-7.7221684">
        <time>2021-11-27T12:24:37Z</time>
      </trkpt>
      <trkpt lat="42.39428" lon="-7.722182">
        <time>2021-11-27T12:24:38Z</time>
      </trkpt>
      <trkpt lat="42.39428" lon="-7.7222">
        <time>2021-11-27T12:24:39Z</time>
      </trkpt>
      <trkpt lat="42.39428" lon="-7.7222214">
        <time>2021-11-27T12:24:40Z</time>
      </trkpt>
      <trkpt lat="42.394283" lon="-7.722246">
        <time>2021-11-27T12:24:41Z</time>
      </trkpt>
      <trkpt lat="42.394283" lon="-7.7222686">
        <time>2021-11-27T12:24:42Z</time>
      </trkpt>
      <trkpt lat="42.39428" lon="-7.7222886">
        <time>2021-11-27T12:24:43Z</time>
      </trkpt>
      <trkpt lat="42.394283" lon="-7.722307">
        <time>2021-11-27T12:24:44Z</time>
      </trkpt>
      <trkpt lat="42.394287" lon="-7.7223206">
        <time>2021-11-27T12:24:45Z</time>
      </trkpt>
      <trkpt lat="42.394287" lon="-7.722331">
        <time>2021-11-27T12:24:46Z</time>
      </trkpt>
      <trkpt lat="42.394287" lon="-7.722337">
        <time>2021-11-27T12:24:47Z</time>
      </trkpt>
      <trkpt lat="42.39428" lon="-7.722339">
        <time>2021-11-27T12:24:48Z</time>
      </trkpt>
      <trkpt lat="42.39427" lon="-7.722343">
        <time>2021-11-27T12:24:49Z</time>
      </trkpt>
      <trkpt lat="42.394264" lon="-7.7223506">
        <time>2021-11-27T12:24:50Z</time>
      </trkpt>
      <trkpt lat="42.394257" lon="-7.722361">
        <time>2021-11-27T12:24:51Z</time>
      </trkpt>
      <trkpt lat="42.39425" lon="-7.722374">
        <time>2021-11-27T12:24:52Z</time>
      </trkpt>
      <trkpt lat="42.39424" lon="-7.722389">
        <time>2021-11-27T12:24:53Z</time>
      </trkpt>
      <trkpt lat="42.394238" lon="-7.722406">
        <time>2021-11-27T12:24:54Z</time>
      </trkpt>
      <trkpt lat="42.394234" lon="-7.7224245">
        <time>2021-11-27T12:24:55Z</time>
      </trkpt>
      <trkpt lat="42.39423" lon="-7.722442">
        <time>2021-11-27T12:24:57Z</time>
      </trkpt>
      <trkpt lat="42.39423" lon="-7.722459">
        <time>2021-11-27T12:24:57Z</time>
      </trkpt>
      <trkpt lat="42.394226" lon="-7.722472">
        <time>2021-11-27T12:24:58Z</time>
      </trkpt>
      <trkpt lat="42.39422" lon="-7.7224846">
        <time>2021-11-27T12:24:59Z</time>
      </trkpt>
      <trkpt lat="42.39421" lon="-7.7224956">
        <time>2021-11-27T12:25:00Z</time>
      </trkpt>
      <trkpt lat="42.394203" lon="-7.722506">
        <time>2021-11-27T12:25:01Z</time>
      </trkpt>
      <trkpt lat="42.394196" lon="-7.722517">
        <time>2021-11-27T12:25:02Z</time>
      </trkpt>
      <trkpt lat="42.39419" lon="-7.7225266">
        <time>2021-11-27T12:25:03Z</time>
      </trkpt>
      <trkpt lat="42.394188" lon="-7.722537">
        <time>2021-11-27T12:25:04Z</time>
      </trkpt>
      <trkpt lat="42.394188" lon="-7.722547">
        <time>2021-11-27T12:25:05Z</time>
      </trkpt>
      <trkpt lat="42.394188" lon="-7.7225575">
        <time>2021-11-27T12:25:06Z</time>
      </trkpt>
      <trkpt lat="42.394188" lon="-7.7225657">
        <time>2021-11-27T12:25:07Z</time>
      </trkpt>
      <trkpt lat="42.394188" lon="-7.7225723">
        <time>2021-11-27T12:25:08Z</time>
      </trkpt>
      <trkpt lat="42.394188" lon="-7.722579">
        <time>2021-11-27T12:25:09Z</time>
      </trkpt>
      <trkpt lat="42.394188" lon="-7.722589">
        <time>2021-11-27T12:25:10Z</time>
      </trkpt>
      <trkpt lat="42.394188" lon="-7.7226005">
        <time>2021-11-27T12:25:11Z</time>
      </trkpt>
      <trkpt lat="42.394188" lon="-7.7226143">
        <time>2021-11-27T12:25:12Z</time>
      </trkpt>
      <trkpt lat="42.394188" lon="-7.7226324">
        <time>2021-11-27T12:25:13Z</time>
      </trkpt>
      <trkpt lat="42.394188" lon="-7.72265">
        <time>2021-11-27T12:25:14Z</time>
      </trkpt>
      <trkpt lat="42.394188" lon="-7.7226677">
        <time>2021-11-27T12:25:15Z</time>
      </trkpt>
      <trkpt lat="42.394184" lon="-7.7226834">
        <time>2021-11-27T12:25:16Z</time>
      </trkpt>
      <trkpt lat="42.394188" lon="-7.7227035">
        <time>2021-11-27T12:25:17Z</time>
      </trkpt>
      <trkpt lat="42.394188" lon="-7.722726">
        <time>2021-11-27T12:25:18Z</time>
      </trkpt>
      <trkpt lat="42.39419" lon="-7.7227526">
        <time>2021-11-27T12:25:19Z</time>
      </trkpt>
      <trkpt lat="42.39419" lon="-7.72278">
        <time>2021-11-27T12:25:20Z</time>
      </trkpt>
      <trkpt lat="42.394196" lon="-7.722807">
        <time>2021-11-27T12:25:21Z</time>
      </trkpt>
      <trkpt lat="42.394196" lon="-7.722832">
        <time>2021-11-27T12:25:22Z</time>
      </trkpt>
      <trkpt lat="42.39419" lon="-7.7228546">
        <time>2021-11-27T12:25:23Z</time>
      </trkpt>
      <trkpt lat="42.394188" lon="-7.7228727">
        <time>2021-11-27T12:25:24Z</time>
      </trkpt>
      <trkpt lat="42.394184" lon="-7.722891">
        <time>2021-11-27T12:25:25Z</time>
      </trkpt>
      <trkpt lat="42.39418" lon="-7.7229095">
        <time>2021-11-27T12:25:26Z</time>
      </trkpt>
      <trkpt lat="42.394173" lon="-7.7229276">
        <time>2021-11-27T12:25:27Z</time>
      </trkpt>
      <trkpt lat="42.39417" lon="-7.7229466">
        <time>2021-11-27T12:25:28Z</time>
      </trkpt>
      <trkpt lat="42.394165" lon="-7.7229652">
        <time>2021-11-27T12:25:29Z</time>
      </trkpt>
      <trkpt lat="42.39416" lon="-7.7229824">
        <time>2021-11-27T12:25:30Z</time>
      </trkpt>
      <trkpt lat="42.394157" lon="-7.7229977">
        <time>2021-11-27T12:25:31Z</time>
      </trkpt>
      <trkpt lat="42.394157" lon="-7.7230144">
        <time>2021-11-27T12:25:32Z</time>
      </trkpt>
      <trkpt lat="42.39416" lon="-7.723035">
        <time>2021-11-27T12:25:33Z</time>
      </trkpt>
      <trkpt lat="42.394165" lon="-7.723059">
        <time>2021-11-27T12:25:34Z</time>
      </trkpt>
      <trkpt lat="42.394165" lon="-7.7230816">
        <time>2021-11-27T12:25:35Z</time>
      </trkpt>
      <trkpt lat="42.394165" lon="-7.723102">
        <time>2021-11-27T12:25:36Z</time>
      </trkpt>
      <trkpt lat="42.394165" lon="-7.723125">
        <time>2021-11-27T12:25:37Z</time>
      </trkpt>
      <trkpt lat="42.394154" lon="-7.7231483">
        <time>2021-11-27T12:25:38Z</time>
      </trkpt>
      <trkpt lat="42.39414" lon="-7.7231717">
        <time>2021-11-27T12:25:39Z</time>
      </trkpt>
      <trkpt lat="42.394127" lon="-7.7231917">
        <time>2021-11-27T12:25:40Z</time>
      </trkpt>
      <trkpt lat="42.394115" lon="-7.7232075">
        <time>2021-11-27T12:25:41Z</time>
      </trkpt>
      <trkpt lat="42.394104" lon="-7.723222">
        <time>2021-11-27T12:25:42Z</time>
      </trkpt>
      <trkpt lat="42.394093" lon="-7.7232337">
        <time>2021-11-27T12:25:43Z</time>
      </trkpt>
      <trkpt lat="42.394085" lon="-7.7232447">
        <time>2021-11-27T12:25:44Z</time>
      </trkpt>
      <trkpt lat="42.394077" lon="-7.723256">
        <time>2021-11-27T12:25:44Z</time>
      </trkpt>
      <trkpt lat="42.39407" lon="-7.7232685">
        <time>2021-11-27T12:25:45Z</time>
      </trkpt>
      <trkpt lat="42.394062" lon="-7.7232804">
        <time>2021-11-27T12:25:46Z</time>
      </trkpt>
      <trkpt lat="42.394054" lon="-7.7232914">
        <time>2021-11-27T12:25:47Z</time>
      </trkpt>
      <trkpt lat="42.394047" lon="-7.723301">
        <time>2021-11-27T12:25:48Z</time>
      </trkpt>
      <trkpt lat="42.394043" lon="-7.7233095">
        <time>2021-11-27T12:25:49Z</time>
      </trkpt>
      <trkpt lat="42.394035" lon="-7.7233186">
        <time>2021-11-27T12:25:50Z</time>
      </trkpt>
      <trkpt lat="42.39403" lon="-7.72333">
        <time>2021-11-27T12:25:51Z</time>
      </trkpt>
      <trkpt lat="42.394024" lon="-7.723345">
        <time>2021-11-27T12:25:52Z</time>
      </trkpt>
      <trkpt lat="42.394024" lon="-7.7233605">
        <time>2021-11-27T12:25:53Z</time>
      </trkpt>
      <trkpt lat="42.394016" lon="-7.7233796">
        <time>2021-11-27T12:25:54Z</time>
      </trkpt>
      <trkpt lat="42.394016" lon="-7.7234">
        <time>2021-11-27T12:25:56Z</time>
      </trkpt>
      <trkpt lat="42.39401" lon="-7.7234197">
        <time>2021-11-27T12:25:56Z</time>
      </trkpt>
      <trkpt lat="42.394005" lon="-7.7234383">
        <time>2021-11-27T12:25:57Z</time>
      </trkpt>
      <trkpt lat="42.393997" lon="-7.723456">
        <time>2021-11-27T12:25:58Z</time>
      </trkpt>
      <trkpt lat="42.393993" lon="-7.723472">
        <time>2021-11-27T12:25:59Z</time>
      </trkpt>
      <trkpt lat="42.39399" lon="-7.7234874">
        <time>2021-11-27T12:26:00Z</time>
      </trkpt>
      <trkpt lat="42.393986" lon="-7.7235055">
        <time>2021-11-27T12:26:01Z</time>
      </trkpt>
      <trkpt lat="42.393986" lon="-7.7235227">
        <time>2021-11-27T12:26:02Z</time>
      </trkpt>
      <trkpt lat="42.393986" lon="-7.72354">
        <time>2021-11-27T12:26:03Z</time>
      </trkpt>
      <trkpt lat="42.393982" lon="-7.7235565">
        <time>2021-11-27T12:26:04Z</time>
      </trkpt>
      <trkpt lat="42.39398" lon="-7.723573">
        <time>2021-11-27T12:26:05Z</time>
      </trkpt>
      <trkpt lat="42.393974" lon="-7.723589">
        <time>2021-11-27T12:26:06Z</time>
      </trkpt>
      <trkpt lat="42.39397" lon="-7.723605">
        <time>2021-11-27T12:26:07Z</time>
      </trkpt>
      <trkpt lat="42.39396" lon="-7.7236233">
        <time>2021-11-27T12:26:08Z</time>
      </trkpt>
      <trkpt lat="42.39395" lon="-7.723643">
        <time>2021-11-27T12:26:09Z</time>
      </trkpt>
      <trkpt lat="42.393948" lon="-7.7236633">
        <time>2021-11-27T12:26:10Z</time>
      </trkpt>
      <trkpt lat="42.393948" lon="-7.723686">
        <time>2021-11-27T12:26:11Z</time>
      </trkpt>
      <trkpt lat="42.393948" lon="-7.7237077">
        <time>2021-11-27T12:26:12Z</time>
      </trkpt>
      <trkpt lat="42.393948" lon="-7.7237287">
        <time>2021-11-27T12:26:13Z</time>
      </trkpt>
      <trkpt lat="42.393944" lon="-7.7237487">
        <time>2021-11-27T12:26:14Z</time>
      </trkpt>
      <trkpt lat="42.393944" lon="-7.7237663">
        <time>2021-11-27T12:26:15Z</time>
      </trkpt>
      <trkpt lat="42.393944" lon="-7.7237825">
        <time>2021-11-27T12:26:16Z</time>
      </trkpt>
      <trkpt lat="42.393944" lon="-7.723796">
        <time>2021-11-27T12:26:17Z</time>
      </trkpt>
      <trkpt lat="42.393944" lon="-7.723807">
        <time>2021-11-27T12:26:18Z</time>
      </trkpt>
      <trkpt lat="42.39394" lon="-7.723818">
        <time>2021-11-27T12:26:19Z</time>
      </trkpt>
      <trkpt lat="42.393936" lon="-7.723833">
        <time>2021-11-27T12:26:20Z</time>
      </trkpt>
      <trkpt lat="42.393932" lon="-7.72385">
        <time>2021-11-27T12:26:21Z</time>
      </trkpt>
      <trkpt lat="42.39393" lon="-7.7238655">
        <time>2021-11-27T12:26:22Z</time>
      </trkpt>
      <trkpt lat="42.39393" lon="-7.723882">
        <time>2021-11-27T12:26:23Z</time>
      </trkpt>
      <trkpt lat="42.39392" lon="-7.7239027">
        <time>2021-11-27T12:26:24Z</time>
      </trkpt>
      <trkpt lat="42.393913" lon="-7.7239213">
        <time>2021-11-27T12:26:25Z</time>
      </trkpt>
      <trkpt lat="42.39391" lon="-7.723938">
        <time>2021-11-27T12:26:26Z</time>
      </trkpt>
      <trkpt lat="42.393906" lon="-7.7239537">
        <time>2021-11-27T12:26:27Z</time>
      </trkpt>
      <trkpt lat="42.393898" lon="-7.7239733">
        <time>2021-11-27T12:26:28Z</time>
      </trkpt>
      <trkpt lat="42.39389" lon="-7.723992">
        <time>2021-11-27T12:26:29Z</time>
      </trkpt>
      <trkpt lat="42.393887" lon="-7.724009">
        <time>2021-11-27T12:26:30Z</time>
      </trkpt>
      <trkpt lat="42.393883" lon="-7.724024">
        <time>2021-11-27T12:26:31Z</time>
      </trkpt>
      <trkpt lat="42.39388" lon="-7.7240376">
        <time>2021-11-27T12:26:32Z</time>
      </trkpt>
      <trkpt lat="42.393875" lon="-7.724052">
        <time>2021-11-27T12:26:33Z</time>
      </trkpt>
      <trkpt lat="42.393867" lon="-7.7240667">
        <time>2021-11-27T12:26:34Z</time>
      </trkpt>
      <trkpt lat="42.393864" lon="-7.724082">
        <time>2021-11-27T12:26:35Z</time>
      </trkpt>
      <trkpt lat="42.39386" lon="-7.7240977">
        <time>2021-11-27T12:26:36Z</time>
      </trkpt>
      <trkpt lat="42.393852" lon="-7.7241144">
        <time>2021-11-27T12:26:37Z</time>
      </trkpt>
      <trkpt lat="42.393845" lon="-7.7241344">
        <time>2021-11-27T12:26:38Z</time>
      </trkpt>
      <trkpt lat="42.393833" lon="-7.7241535">
        <time>2021-11-27T12:26:39Z</time>
      </trkpt>
      <trkpt lat="42.393826" lon="-7.72417">
        <time>2021-11-27T12:26:40Z</time>
      </trkpt>
      <trkpt lat="42.39382" lon="-7.7241836">
        <time>2021-11-27T12:26:41Z</time>
      </trkpt>
      <trkpt lat="42.393814" lon="-7.7241964">
        <time>2021-11-27T12:26:42Z</time>
      </trkpt>
      <trkpt lat="42.393814" lon="-7.72421">
        <time>2021-11-27T12:26:43Z</time>
      </trkpt>
      <trkpt lat="42.39381" lon="-7.724226">
        <time>2021-11-27T12:26:44Z</time>
      </trkpt>
      <trkpt lat="42.393806" lon="-7.7242427">
        <time>2021-11-27T12:26:45Z</time>
      </trkpt>
      <trkpt lat="42.393806" lon="-7.7242603">
        <time>2021-11-27T12:26:46Z</time>
      </trkpt>
      <trkpt lat="42.393806" lon="-7.724275">
        <time>2021-11-27T12:26:47Z</time>
      </trkpt>
      <trkpt lat="42.393806" lon="-7.72429">
        <time>2021-11-27T12:26:48Z</time>
      </trkpt>
      <trkpt lat="42.393803" lon="-7.724305">
        <time>2021-11-27T12:26:49Z</time>
      </trkpt>
      <trkpt lat="42.393795" lon="-7.7243176">
        <time>2021-11-27T12:26:50Z</time>
      </trkpt>
      <trkpt lat="42.39379" lon="-7.7243314">
        <time>2021-11-27T12:26:51Z</time>
      </trkpt>
      <trkpt lat="42.393787" lon="-7.724348">
        <time>2021-11-27T12:26:52Z</time>
      </trkpt>
      <trkpt lat="42.393784" lon="-7.724367">
        <time>2021-11-27T12:26:53Z</time>
      </trkpt>
      <trkpt lat="42.393784" lon="-7.7243905">
        <time>2021-11-27T12:26:54Z</time>
      </trkpt>
      <trkpt lat="42.39378" lon="-7.724415">
        <time>2021-11-27T12:26:55Z</time>
      </trkpt>
      <trkpt lat="42.393784" lon="-7.72444">
        <time>2021-11-27T12:26:56Z</time>
      </trkpt>
      <trkpt lat="42.393784" lon="-7.7244654">
        <time>2021-11-27T12:26:57Z</time>
      </trkpt>
      <trkpt lat="42.393787" lon="-7.7244906">
        <time>2021-11-27T12:26:58Z</time>
      </trkpt>
      <trkpt lat="42.393787" lon="-7.724516">
        <time>2021-11-27T12:26:59Z</time>
      </trkpt>
      <trkpt lat="42.393787" lon="-7.7245417">
        <time>2021-11-27T12:27:00Z</time>
      </trkpt>
      <trkpt lat="42.393787" lon="-7.724567">
        <time>2021-11-27T12:27:01Z</time>
      </trkpt>
      <trkpt lat="42.393787" lon="-7.724593">
        <time>2021-11-27T12:27:02Z</time>
      </trkpt>
      <trkpt lat="42.39379" lon="-7.724619">
        <time>2021-11-27T12:27:03Z</time>
      </trkpt>
      <trkpt lat="42.39379" lon="-7.7246413">
        <time>2021-11-27T12:27:04Z</time>
      </trkpt>
      <trkpt lat="42.393787" lon="-7.7246633">
        <time>2021-11-27T12:27:05Z</time>
      </trkpt>
      <trkpt lat="42.393787" lon="-7.7246842">
        <time>2021-11-27T12:27:06Z</time>
      </trkpt>
      <trkpt lat="42.393784" lon="-7.724705">
        <time>2021-11-27T12:27:07Z</time>
      </trkpt>
      <trkpt lat="42.393787" lon="-7.724728">
        <time>2021-11-27T12:27:08Z</time>
      </trkpt>
      <trkpt lat="42.393787" lon="-7.7247477">
        <time>2021-11-27T12:27:09Z</time>
      </trkpt>
      <trkpt lat="42.393784" lon="-7.7247624">
        <time>2021-11-27T12:27:10Z</time>
      </trkpt>
      <trkpt lat="42.393784" lon="-7.7247763">
        <time>2021-11-27T12:27:11Z</time>
      </trkpt>
      <trkpt lat="42.393784" lon="-7.7247896">
        <time>2021-11-27T12:27:12Z</time>
      </trkpt>
      <trkpt lat="42.393784" lon="-7.7248054">
        <time>2021-11-27T12:27:13Z</time>
      </trkpt>
      <trkpt lat="42.393784" lon="-7.724821">
        <time>2021-11-27T12:27:14Z</time>
      </trkpt>
      <trkpt lat="42.39378" lon="-7.7248373">
        <time>2021-11-27T12:27:15Z</time>
      </trkpt>
      <trkpt lat="42.393772" lon="-7.724851">
        <time>2021-11-27T12:27:16Z</time>
      </trkpt>
      <trkpt lat="42.393764" lon="-7.7248645">
        <time>2021-11-27T12:27:17Z</time>
      </trkpt>
      <trkpt lat="42.393757" lon="-7.7248783">
        <time>2021-11-27T12:27:18Z</time>
      </trkpt>
      <trkpt lat="42.393745" lon="-7.7248917">
        <time>2021-11-27T12:27:19Z</time>
      </trkpt>
      <trkpt lat="42.393734" lon="-7.724905">
        <time>2021-11-27T12:27:20Z</time>
      </trkpt>
      <trkpt lat="42.39373" lon="-7.724917">
        <time>2021-11-27T12:27:21Z</time>
      </trkpt>
      <trkpt lat="42.393726" lon="-7.7249274">
        <time>2021-11-27T12:27:22Z</time>
      </trkpt>
      <trkpt lat="42.39372" lon="-7.7249403">
        <time>2021-11-27T12:27:23Z</time>
      </trkpt>
      <trkpt lat="42.39371" lon="-7.724954">
        <time>2021-11-27T12:27:24Z</time>
      </trkpt>
      <trkpt lat="42.393703" lon="-7.7249694">
        <time>2021-11-27T12:27:25Z</time>
      </trkpt>
      <trkpt lat="42.393696" lon="-7.724985">
        <time>2021-11-27T12:27:26Z</time>
      </trkpt>
      <trkpt lat="42.39369" lon="-7.725">
        <time>2021-11-27T12:27:27Z</time>
      </trkpt>
      <trkpt lat="42.39368" lon="-7.725014">
        <time>2021-11-27T12:27:28Z</time>
      </trkpt>
      <trkpt lat="42.393677" lon="-7.725034">
        <time>2021-11-27T12:27:29Z</time>
      </trkpt>
      <trkpt lat="42.393673" lon="-7.725055">
        <time>2021-11-27T12:27:30Z</time>
      </trkpt>
      <trkpt lat="42.39367" lon="-7.7250767">
        <time>2021-11-27T12:27:31Z</time>
      </trkpt>
      <trkpt lat="42.393665" lon="-7.725097">
        <time>2021-11-27T12:27:32Z</time>
      </trkpt>
      <trkpt lat="42.393665" lon="-7.7251163">
        <time>2021-11-27T12:27:33Z</time>
      </trkpt>
      <trkpt lat="42.39366" lon="-7.7251334">
        <time>2021-11-27T12:27:34Z</time>
      </trkpt>
      <trkpt lat="42.393658" lon="-7.7251496">
        <time>2021-11-27T12:27:35Z</time>
      </trkpt>
      <trkpt lat="42.393654" lon="-7.7251616">
        <time>2021-11-27T12:27:36Z</time>
      </trkpt>
      <trkpt lat="42.39365" lon="-7.725173">
        <time>2021-11-27T12:27:37Z</time>
      </trkpt>
      <trkpt lat="42.39365" lon="-7.725184">
        <time>2021-11-27T12:27:38Z</time>
      </trkpt>
      <trkpt lat="42.39365" lon="-7.725193">
        <time>2021-11-27T12:27:39Z</time>
      </trkpt>
      <trkpt lat="42.39365" lon="-7.7252007">
        <time>2021-11-27T12:27:40Z</time>
      </trkpt>
      <trkpt lat="42.39365" lon="-7.7252116">
        <time>2021-11-27T12:27:41Z</time>
      </trkpt>
      <trkpt lat="42.39365" lon="-7.7252264">
        <time>2021-11-27T12:27:42Z</time>
      </trkpt>
      <trkpt lat="42.393646" lon="-7.725243">
        <time>2021-11-27T12:27:43Z</time>
      </trkpt>
      <trkpt lat="42.393642" lon="-7.725259">
        <time>2021-11-27T12:27:44Z</time>
      </trkpt>
      <trkpt lat="42.39364" lon="-7.7252793">
        <time>2021-11-27T12:27:45Z</time>
      </trkpt>
      <trkpt lat="42.393635" lon="-7.7253017">
        <time>2021-11-27T12:27:46Z</time>
      </trkpt>
      <trkpt lat="42.393627" lon="-7.7253237">
        <time>2021-11-27T12:27:47Z</time>
      </trkpt>
      <trkpt lat="42.39362" lon="-7.725343">
        <time>2021-11-27T12:27:48Z</time>
      </trkpt>
      <trkpt lat="42.393612" lon="-7.7253594">
        <time>2021-11-27T12:27:49Z</time>
      </trkpt>
      <trkpt lat="42.3936" lon="-7.7253733">
        <time>2021-11-27T12:27:50Z</time>
      </trkpt>
      <trkpt lat="42.393593" lon="-7.725387">
        <time>2021-11-27T12:27:51Z</time>
      </trkpt>
      <trkpt lat="42.393585" lon="-7.725399">
        <time>2021-11-27T12:27:52Z</time>
      </trkpt>
      <trkpt lat="42.393578" lon="-7.725408">
        <time>2021-11-27T12:27:53Z</time>
      </trkpt>
      <trkpt lat="42.393566" lon="-7.725417">
        <time>2021-11-27T12:27:54Z</time>
      </trkpt>
      <trkpt lat="42.393555" lon="-7.7254257">
        <time>2021-11-27T12:27:55Z</time>
      </trkpt>
      <trkpt lat="42.393547" lon="-7.725436">
        <time>2021-11-27T12:27:56Z</time>
      </trkpt>
      <trkpt lat="42.39354" lon="-7.725447">
        <time>2021-11-27T12:27:57Z</time>
      </trkpt>
      <trkpt lat="42.39353" lon="-7.72546">
        <time>2021-11-27T12:27:58Z</time>
      </trkpt>
      <trkpt lat="42.393528" lon="-7.725476">
        <time>2021-11-27T12:27:59Z</time>
      </trkpt>
      <trkpt lat="42.393524" lon="-7.725491">
        <time>2021-11-27T12:28:00Z</time>
      </trkpt>
      <trkpt lat="42.393517" lon="-7.725505">
        <time>2021-11-27T12:28:01Z</time>
      </trkpt>
      <trkpt lat="42.39351" lon="-7.725517">
        <time>2021-11-27T12:28:02Z</time>
      </trkpt>
      <trkpt lat="42.3935" lon="-7.725528">
        <time>2021-11-27T12:28:03Z</time>
      </trkpt>
      <trkpt lat="42.393494" lon="-7.725536">
        <time>2021-11-27T12:28:04Z</time>
      </trkpt>
      <trkpt lat="42.393482" lon="-7.7255445">
        <time>2021-11-27T12:28:05Z</time>
      </trkpt>
      <trkpt lat="42.39347" lon="-7.7255535">
        <time>2021-11-27T12:28:06Z</time>
      </trkpt>
      <trkpt lat="42.393463" lon="-7.725565">
        <time>2021-11-27T12:28:07Z</time>
      </trkpt>
      <trkpt lat="42.393456" lon="-7.725578">
        <time>2021-11-27T12:28:08Z</time>
      </trkpt>
      <trkpt lat="42.393444" lon="-7.7255898">
        <time>2021-11-27T12:28:09Z</time>
      </trkpt>
      <trkpt lat="42.393436" lon="-7.725604">
        <time>2021-11-27T12:28:10Z</time>
      </trkpt>
      <trkpt lat="42.39343" lon="-7.7256184">
        <time>2021-11-27T12:28:11Z</time>
      </trkpt>
      <trkpt lat="42.393425" lon="-7.7256365">
        <time>2021-11-27T12:28:12Z</time>
      </trkpt>
      <trkpt lat="42.39342" lon="-7.725653">
        <time>2021-11-27T12:28:13Z</time>
      </trkpt>
      <trkpt lat="42.393417" lon="-7.725666">
        <time>2021-11-27T12:28:14Z</time>
      </trkpt>
      <trkpt lat="42.393414" lon="-7.725676">
        <time>2021-11-27T12:28:15Z</time>
      </trkpt>
      <trkpt lat="42.393406" lon="-7.7256856">
        <time>2021-11-27T12:28:16Z</time>
      </trkpt>
      <trkpt lat="42.393394" lon="-7.725694">
        <time>2021-11-27T12:28:17Z</time>
      </trkpt>
      <trkpt lat="42.39338" lon="-7.7257">
        <time>2021-11-27T12:28:18Z</time>
      </trkpt>
      <trkpt lat="42.393364" lon="-7.7257037">
        <time>2021-11-27T12:28:19Z</time>
      </trkpt>
      <trkpt lat="42.393356" lon="-7.725709">
        <time>2021-11-27T12:28:20Z</time>
      </trkpt>
      <trkpt lat="42.393345" lon="-7.725705">
        <time>2021-11-27T12:28:21Z</time>
      </trkpt>
      <trkpt lat="42.393337" lon="-7.725702">
        <time>2021-11-27T12:28:22Z</time>
      </trkpt>
      <trkpt lat="42.393322" lon="-7.7257013">
        <time>2021-11-27T12:28:23Z</time>
      </trkpt>
      <trkpt lat="42.39331" lon="-7.725705">
        <time>2021-11-27T12:28:24Z</time>
      </trkpt>
      <trkpt lat="42.3933" lon="-7.725712">
        <time>2021-11-27T12:28:25Z</time>
      </trkpt>
      <trkpt lat="42.39329" lon="-7.725722">
        <time>2021-11-27T12:28:26Z</time>
      </trkpt>
      <trkpt lat="42.393276" lon="-7.725732">
        <time>2021-11-27T12:28:27Z</time>
      </trkpt>
      <trkpt lat="42.39327" lon="-7.725741">
        <time>2021-11-27T12:28:28Z</time>
      </trkpt>
      <trkpt lat="42.393253" lon="-7.725749">
        <time>2021-11-27T12:28:29Z</time>
      </trkpt>
      <trkpt lat="42.39324" lon="-7.7257547">
        <time>2021-11-27T12:28:30Z</time>
      </trkpt>
      <trkpt lat="42.39323" lon="-7.72576">
        <time>2021-11-27T12:28:31Z</time>
      </trkpt>
      <trkpt lat="42.393223" lon="-7.725765">
        <time>2021-11-27T12:28:32Z</time>
      </trkpt>
      <trkpt lat="42.39321" lon="-7.7257705">
        <time>2021-11-27T12:28:33Z</time>
      </trkpt>
      <trkpt lat="42.393204" lon="-7.725776">
        <time>2021-11-27T12:28:34Z</time>
      </trkpt>
      <trkpt lat="42.393196" lon="-7.725785">
        <time>2021-11-27T12:28:35Z</time>
      </trkpt>
      <trkpt lat="42.393185" lon="-7.7257996">
        <time>2021-11-27T12:28:36Z</time>
      </trkpt>
      <trkpt lat="42.393173" lon="-7.725815">
        <time>2021-11-27T12:28:37Z</time>
      </trkpt>
      <trkpt lat="42.39316" lon="-7.7258306">
        <time>2021-11-27T12:28:38Z</time>
      </trkpt>
      <trkpt lat="42.393147" lon="-7.725844">
        <time>2021-11-27T12:28:39Z</time>
      </trkpt>
      <trkpt lat="42.393135" lon="-7.7258554">
        <time>2021-11-27T12:28:40Z</time>
      </trkpt>
      <trkpt lat="42.39312" lon="-7.725868">
        <time>2021-11-27T12:28:41Z</time>
      </trkpt>
      <trkpt lat="42.393112" lon="-7.725884">
        <time>2021-11-27T12:28:42Z</time>
      </trkpt>
      <trkpt lat="42.3931" lon="-7.7258983">
        <time>2021-11-27T12:28:43Z</time>
      </trkpt>
      <trkpt lat="42.39309" lon="-7.7259135">
        <time>2021-11-27T12:28:44Z</time>
      </trkpt>
      <trkpt lat="42.39308" lon="-7.725929">
        <time>2021-11-27T12:28:45Z</time>
      </trkpt>
      <trkpt lat="42.393074" lon="-7.725941">
        <time>2021-11-27T12:28:46Z</time>
      </trkpt>
      <trkpt lat="42.393066" lon="-7.7259526">
        <time>2021-11-27T12:28:47Z</time>
      </trkpt>
      <trkpt lat="42.39306" lon="-7.725967">
        <time>2021-11-27T12:28:48Z</time>
      </trkpt>
      <trkpt lat="42.393055" lon="-7.7259846">
        <time>2021-11-27T12:28:49Z</time>
      </trkpt>
      <trkpt lat="42.39305" lon="-7.7260046">
        <time>2021-11-27T12:28:50Z</time>
      </trkpt>
      <trkpt lat="42.393044" lon="-7.726025">
        <time>2021-11-27T12:28:51Z</time>
      </trkpt>
      <trkpt lat="42.39304" lon="-7.726048">
        <time>2021-11-27T12:28:52Z</time>
      </trkpt>
      <trkpt lat="42.393036" lon="-7.726074">
        <time>2021-11-27T12:28:53Z</time>
      </trkpt>
      <trkpt lat="42.39303" lon="-7.726104">
        <time>2021-11-27T12:28:54Z</time>
      </trkpt>
      <trkpt lat="42.39302" lon="-7.726128">
        <time>2021-11-27T12:28:56Z</time>
      </trkpt>
      <trkpt lat="42.393013" lon="-7.7261486">
        <time>2021-11-27T12:28:56Z</time>
      </trkpt>
      <trkpt lat="42.39301" lon="-7.7261677">
        <time>2021-11-27T12:28:57Z</time>
      </trkpt>
      <trkpt lat="42.393005" lon="-7.7261844">
        <time>2021-11-27T12:28:58Z</time>
      </trkpt>
      <trkpt lat="42.392998" lon="-7.726203">
        <time>2021-11-27T12:28:59Z</time>
      </trkpt>
      <trkpt lat="42.392986" lon="-7.72622">
        <time>2021-11-27T12:29:00Z</time>
      </trkpt>
      <trkpt lat="42.39298" lon="-7.726237">
        <time>2021-11-27T12:29:01Z</time>
      </trkpt>
      <trkpt lat="42.39297" lon="-7.726254">
        <time>2021-11-27T12:29:02Z</time>
      </trkpt>
      <trkpt lat="42.392967" lon="-7.7262692">
        <time>2021-11-27T12:29:03Z</time>
      </trkpt>
      <trkpt lat="42.392963" lon="-7.7262836">
        <time>2021-11-27T12:29:04Z</time>
      </trkpt>
      <trkpt lat="42.39296" lon="-7.7262974">
        <time>2021-11-27T12:29:05Z</time>
      </trkpt>
      <trkpt lat="42.392956" lon="-7.7263103">
        <time>2021-11-27T12:29:06Z</time>
      </trkpt>
      <trkpt lat="42.392956" lon="-7.726325">
        <time>2021-11-27T12:29:07Z</time>
      </trkpt>
      <trkpt lat="42.392956" lon="-7.7263393">
        <time>2021-11-27T12:29:08Z</time>
      </trkpt>
      <trkpt lat="42.39295" lon="-7.7263513">
        <time>2021-11-27T12:29:09Z</time>
      </trkpt>
      <trkpt lat="42.39295" lon="-7.726361">
        <time>2021-11-27T12:29:10Z</time>
      </trkpt>
      <trkpt lat="42.392944" lon="-7.72637">
        <time>2021-11-27T12:29:11Z</time>
      </trkpt>
      <trkpt lat="42.39294" lon="-7.7263775">
        <time>2021-11-27T12:29:12Z</time>
      </trkpt>
      <trkpt lat="42.39294" lon="-7.726384">
        <time>2021-11-27T12:29:13Z</time>
      </trkpt>
      <trkpt lat="42.392933" lon="-7.7263923">
        <time>2021-11-27T12:29:14Z</time>
      </trkpt>
      <trkpt lat="42.392925" lon="-7.726403">
        <time>2021-11-27T12:29:15Z</time>
      </trkpt>
      <trkpt lat="42.392914" lon="-7.726416">
        <time>2021-11-27T12:29:16Z</time>
      </trkpt>
      <trkpt lat="42.39291" lon="-7.726427">
        <time>2021-11-27T12:29:17Z</time>
      </trkpt>
      <trkpt lat="42.392906" lon="-7.7264404">
        <time>2021-11-27T12:29:18Z</time>
      </trkpt>
      <trkpt lat="42.392906" lon="-7.7264557">
        <time>2021-11-27T12:29:19Z</time>
      </trkpt>
      <trkpt lat="42.392906" lon="-7.7264686">
        <time>2021-11-27T12:29:20Z</time>
      </trkpt>
      <trkpt lat="42.39291" lon="-7.7264795">
        <time>2021-11-27T12:29:21Z</time>
      </trkpt>
      <trkpt lat="42.39291" lon="-7.72649">
        <time>2021-11-27T12:29:22Z</time>
      </trkpt>
      <trkpt lat="42.39291" lon="-7.7265">
        <time>2021-11-27T12:29:23Z</time>
      </trkpt>
      <trkpt lat="42.39291" lon="-7.7265096">
        <time>2021-11-27T12:29:24Z</time>
      </trkpt>
      <trkpt lat="42.39291" lon="-7.7265196">
        <time>2021-11-27T12:29:25Z</time>
      </trkpt>
      <trkpt lat="42.392902" lon="-7.726531">
        <time>2021-11-27T12:29:26Z</time>
      </trkpt>
      <trkpt lat="42.392902" lon="-7.7265415">
        <time>2021-11-27T12:29:27Z</time>
      </trkpt>
      <trkpt lat="42.3929" lon="-7.726551">
        <time>2021-11-27T12:29:28Z</time>
      </trkpt>
      <trkpt lat="42.392895" lon="-7.726562">
        <time>2021-11-27T12:29:29Z</time>
      </trkpt>
      <trkpt lat="42.39289" lon="-7.726574">
        <time>2021-11-27T12:29:30Z</time>
      </trkpt>
      <trkpt lat="42.392887" lon="-7.726587">
        <time>2021-11-27T12:29:31Z</time>
      </trkpt>
      <trkpt lat="42.39288" lon="-7.726599">
        <time>2021-11-27T12:29:32Z</time>
      </trkpt>
      <trkpt lat="42.39288" lon="-7.7266097">
        <time>2021-11-27T12:29:33Z</time>
      </trkpt>
      <trkpt lat="42.39287" lon="-7.726619">
        <time>2021-11-27T12:29:34Z</time>
      </trkpt>
      <trkpt lat="42.392868" lon="-7.726628">
        <time>2021-11-27T12:29:35Z</time>
      </trkpt>
      <trkpt lat="42.39286" lon="-7.7266374">
        <time>2021-11-27T12:29:36Z</time>
      </trkpt>
      <trkpt lat="42.392857" lon="-7.726647">
        <time>2021-11-27T12:29:37Z</time>
      </trkpt>
      <trkpt lat="42.39285" lon="-7.7266593">
        <time>2021-11-27T12:29:38Z</time>
      </trkpt>
      <trkpt lat="42.39285" lon="-7.726671">
        <time>2021-11-27T12:29:39Z</time>
      </trkpt>
      <trkpt lat="42.39284" lon="-7.7266827">
        <time>2021-11-27T12:29:40Z</time>
      </trkpt>
      <trkpt lat="42.392834" lon="-7.7266927">
        <time>2021-11-27T12:29:41Z</time>
      </trkpt>
      <trkpt lat="42.392834" lon="-7.726701">
        <time>2021-11-27T12:29:42Z</time>
      </trkpt>
      <trkpt lat="42.392826" lon="-7.726708">
        <time>2021-11-27T12:29:43Z</time>
      </trkpt>
      <trkpt lat="42.392822" lon="-7.7267137">
        <time>2021-11-27T12:29:44Z</time>
      </trkpt>
      <trkpt lat="42.39282" lon="-7.7267194">
        <time>2021-11-27T12:29:45Z</time>
      </trkpt>
      <trkpt lat="42.39281" lon="-7.7267227">
        <time>2021-11-27T12:29:46Z</time>
      </trkpt>
      <trkpt lat="42.392803" lon="-7.7267275">
        <time>2021-11-27T12:29:47Z</time>
      </trkpt>
      <trkpt lat="42.3928" lon="-7.7267327">
        <time>2021-11-27T12:29:48Z</time>
      </trkpt>
      <trkpt lat="42.39279" lon="-7.7267375">
        <time>2021-11-27T12:29:49Z</time>
      </trkpt>
      <trkpt lat="42.392784" lon="-7.726744">
        <time>2021-11-27T12:29:50Z</time>
      </trkpt>
      <trkpt lat="42.392776" lon="-7.7267537">
        <time>2021-11-27T12:29:51Z</time>
      </trkpt>
      <trkpt lat="42.392776" lon="-7.7267656">
        <time>2021-11-27T12:29:52Z</time>
      </trkpt>
      <trkpt lat="42.39277" lon="-7.726776">
        <time>2021-11-27T12:29:53Z</time>
      </trkpt>
      <trkpt lat="42.39276" lon="-7.726786">
        <time>2021-11-27T12:29:54Z</time>
      </trkpt>
      <trkpt lat="42.392754" lon="-7.7267966">
        <time>2021-11-27T12:29:55Z</time>
      </trkpt>
      <trkpt lat="42.39275" lon="-7.7268076">
        <time>2021-11-27T12:29:56Z</time>
      </trkpt>
      <trkpt lat="42.392742" lon="-7.72682">
        <time>2021-11-27T12:29:57Z</time>
      </trkpt>
      <trkpt lat="42.39274" lon="-7.7268305">
        <time>2021-11-27T12:29:58Z</time>
      </trkpt>
      <trkpt lat="42.39273" lon="-7.7268414">
        <time>2021-11-27T12:29:59Z</time>
      </trkpt>
      <trkpt lat="42.392727" lon="-7.726853">
        <time>2021-11-27T12:29:59Z</time>
      </trkpt>
      <trkpt lat="42.392715" lon="-7.7268634">
        <time>2021-11-27T12:30:00Z</time>
      </trkpt>
      <trkpt lat="42.392708" lon="-7.7268724">
        <time>2021-11-27T12:30:01Z</time>
      </trkpt>
      <trkpt lat="42.392693" lon="-7.7268786">
        <time>2021-11-27T12:30:02Z</time>
      </trkpt>
      <trkpt lat="42.392685" lon="-7.7268844">
        <time>2021-11-27T12:30:03Z</time>
      </trkpt>
      <trkpt lat="42.392673" lon="-7.72689">
        <time>2021-11-27T12:30:04Z</time>
      </trkpt>
      <trkpt lat="42.392666" lon="-7.726895">
        <time>2021-11-27T12:30:05Z</time>
      </trkpt>
      <trkpt lat="42.392654" lon="-7.7269015">
        <time>2021-11-27T12:30:06Z</time>
      </trkpt>
      <trkpt lat="42.392647" lon="-7.7269087">
        <time>2021-11-27T12:30:07Z</time>
      </trkpt>
      <trkpt lat="42.39264" lon="-7.7269173">
        <time>2021-11-27T12:30:08Z</time>
      </trkpt>
      <trkpt lat="42.392635" lon="-7.726928">
        <time>2021-11-27T12:30:09Z</time>
      </trkpt>
      <trkpt lat="42.39263" lon="-7.7269387">
        <time>2021-11-27T12:30:10Z</time>
      </trkpt>
      <trkpt lat="42.392624" lon="-7.7269483">
        <time>2021-11-27T12:30:11Z</time>
      </trkpt>
      <trkpt lat="42.392616" lon="-7.7269583">
        <time>2021-11-27T12:30:12Z</time>
      </trkpt>
      <trkpt lat="42.39261" lon="-7.726967">
        <time>2021-11-27T12:30:13Z</time>
      </trkpt>
      <trkpt lat="42.3926" lon="-7.7269745">
        <time>2021-11-27T12:30:14Z</time>
      </trkpt>
      <trkpt lat="42.392593" lon="-7.7269807">
        <time>2021-11-27T12:30:15Z</time>
      </trkpt>
      <trkpt lat="42.392586" lon="-7.7269864">
        <time>2021-11-27T12:30:16Z</time>
      </trkpt>
      <trkpt lat="42.39258" lon="-7.726994">
        <time>2021-11-27T12:30:17Z</time>
      </trkpt>
      <trkpt lat="42.392574" lon="-7.727003">
        <time>2021-11-27T12:30:18Z</time>
      </trkpt>
      <trkpt lat="42.392567" lon="-7.727011">
        <time>2021-11-27T12:30:19Z</time>
      </trkpt>
      <trkpt lat="42.39256" lon="-7.7270207">
        <time>2021-11-27T12:30:20Z</time>
      </trkpt>
      <trkpt lat="42.39255" lon="-7.7270293">
        <time>2021-11-27T12:30:21Z</time>
      </trkpt>
      <trkpt lat="42.392544" lon="-7.7270374">
        <time>2021-11-27T12:30:22Z</time>
      </trkpt>
      <trkpt lat="42.39254" lon="-7.7270446">
        <time>2021-11-27T12:30:23Z</time>
      </trkpt>
      <trkpt lat="42.392532" lon="-7.7270527">
        <time>2021-11-27T12:30:24Z</time>
      </trkpt>
      <trkpt lat="42.39253" lon="-7.7270603">
        <time>2021-11-27T12:30:25Z</time>
      </trkpt>
      <trkpt lat="42.39252" lon="-7.727068">
        <time>2021-11-27T12:30:26Z</time>
      </trkpt>
      <trkpt lat="42.392513" lon="-7.727076">
        <time>2021-11-27T12:30:27Z</time>
      </trkpt>
      <trkpt lat="42.392506" lon="-7.7270846">
        <time>2021-11-27T12:30:28Z</time>
      </trkpt>
      <trkpt lat="42.392498" lon="-7.727094">
        <time>2021-11-27T12:30:29Z</time>
      </trkpt>
      <trkpt lat="42.39249" lon="-7.727104">
        <time>2021-11-27T12:30:30Z</time>
      </trkpt>
      <trkpt lat="42.39248" lon="-7.7271137">
        <time>2021-11-27T12:30:31Z</time>
      </trkpt>
      <trkpt lat="42.39247" lon="-7.7271233">
        <time>2021-11-27T12:30:32Z</time>
      </trkpt>
      <trkpt lat="42.39246" lon="-7.7271333">
        <time>2021-11-27T12:30:33Z</time>
      </trkpt>
      <trkpt lat="42.392456" lon="-7.7271442">
        <time>2021-11-27T12:30:34Z</time>
      </trkpt>
      <trkpt lat="42.392452" lon="-7.7271557">
        <time>2021-11-27T12:30:35Z</time>
      </trkpt>
      <trkpt lat="42.392445" lon="-7.727167">
        <time>2021-11-27T12:30:36Z</time>
      </trkpt>
      <trkpt lat="42.392437" lon="-7.7271757">
        <time>2021-11-27T12:30:37Z</time>
      </trkpt>
      <trkpt lat="42.39243" lon="-7.7271833">
        <time>2021-11-27T12:30:38Z</time>
      </trkpt>
      <trkpt lat="42.39242" lon="-7.7271895">
        <time>2021-11-27T12:30:39Z</time>
      </trkpt>
      <trkpt lat="42.39241" lon="-7.727198">
        <time>2021-11-27T12:30:40Z</time>
      </trkpt>
      <trkpt lat="42.3924" lon="-7.7272058">
        <time>2021-11-27T12:30:41Z</time>
      </trkpt>
      <trkpt lat="42.392387" lon="-7.727214">
        <time>2021-11-27T12:30:42Z</time>
      </trkpt>
      <trkpt lat="42.39238" lon="-7.7272205">
        <time>2021-11-27T12:30:43Z</time>
      </trkpt>
      <trkpt lat="42.392372" lon="-7.7272263">
        <time>2021-11-27T12:30:44Z</time>
      </trkpt>
      <trkpt lat="42.392365" lon="-7.7272334">
        <time>2021-11-27T12:30:45Z</time>
      </trkpt>
      <trkpt lat="42.39236" lon="-7.7272425">
        <time>2021-11-27T12:30:46Z</time>
      </trkpt>
      <trkpt lat="42.392353" lon="-7.727252">
        <time>2021-11-27T12:30:47Z</time>
      </trkpt>
      <trkpt lat="42.39235" lon="-7.727264">
        <time>2021-11-27T12:30:48Z</time>
      </trkpt>
      <trkpt lat="42.39235" lon="-7.7272754">
        <time>2021-11-27T12:30:49Z</time>
      </trkpt>
      <trkpt lat="42.39234" lon="-7.727285">
        <time>2021-11-27T12:30:50Z</time>
      </trkpt>
      <trkpt lat="42.392334" lon="-7.727292">
        <time>2021-11-27T12:30:51Z</time>
      </trkpt>
      <trkpt lat="42.392326" lon="-7.7272997">
        <time>2021-11-27T12:30:52Z</time>
      </trkpt>
      <trkpt lat="42.39232" lon="-7.7273083">
        <time>2021-11-27T12:30:53Z</time>
      </trkpt>
      <trkpt lat="42.39231" lon="-7.7273164">
        <time>2021-11-27T12:30:55Z</time>
      </trkpt>
      <trkpt lat="42.392303" lon="-7.727324">
        <time>2021-11-27T12:30:55Z</time>
      </trkpt>
      <trkpt lat="42.392296" lon="-7.7273307">
        <time>2021-11-27T12:30:56Z</time>
      </trkpt>
      <trkpt lat="42.392284" lon="-7.7273397">
        <time>2021-11-27T12:30:57Z</time>
      </trkpt>
      <trkpt lat="42.39228" lon="-7.7273498">
        <time>2021-11-27T12:30:58Z</time>
      </trkpt>
      <trkpt lat="42.392273" lon="-7.7273626">
        <time>2021-11-27T12:30:59Z</time>
      </trkpt>
      <trkpt lat="42.392265" lon="-7.727376">
        <time>2021-11-27T12:31:00Z</time>
      </trkpt>
      <trkpt lat="42.392258" lon="-7.7273903">
        <time>2021-11-27T12:31:01Z</time>
      </trkpt>
      <trkpt lat="42.39225" lon="-7.7274046">
        <time>2021-11-27T12:31:02Z</time>
      </trkpt>
      <trkpt lat="42.392242" lon="-7.7274184">
        <time>2021-11-27T12:31:03Z</time>
      </trkpt>
      <trkpt lat="42.39224" lon="-7.727431">
        <time>2021-11-27T12:31:04Z</time>
      </trkpt>
      <trkpt lat="42.392235" lon="-7.727443">
        <time>2021-11-27T12:31:05Z</time>
      </trkpt>
      <trkpt lat="42.39223" lon="-7.727453">
        <time>2021-11-27T12:31:06Z</time>
      </trkpt>
      <trkpt lat="42.392227" lon="-7.727464">
        <time>2021-11-27T12:31:07Z</time>
      </trkpt>
      <trkpt lat="42.39222" lon="-7.727475">
        <time>2021-11-27T12:31:08Z</time>
      </trkpt>
      <trkpt lat="42.392212" lon="-7.7274885">
        <time>2021-11-27T12:31:09Z</time>
      </trkpt>
      <trkpt lat="42.39221" lon="-7.727505">
        <time>2021-11-27T12:31:10Z</time>
      </trkpt>
      <trkpt lat="42.392204" lon="-7.7275276">
        <time>2021-11-27T12:31:11Z</time>
      </trkpt>
      <trkpt lat="42.392204" lon="-7.727548">
        <time>2021-11-27T12:31:12Z</time>
      </trkpt>
      <trkpt lat="42.392204" lon="-7.7275662">
        <time>2021-11-27T12:31:13Z</time>
      </trkpt>
      <trkpt lat="42.392204" lon="-7.727584">
        <time>2021-11-27T12:31:14Z</time>
      </trkpt>
      <trkpt lat="42.392204" lon="-7.7276006">
        <time>2021-11-27T12:31:15Z</time>
      </trkpt>
      <trkpt lat="42.392204" lon="-7.7276173">
        <time>2021-11-27T12:31:16Z</time>
      </trkpt>
      <trkpt lat="42.3922" lon="-7.727634">
        <time>2021-11-27T12:31:17Z</time>
      </trkpt>
      <trkpt lat="42.392197" lon="-7.7276473">
        <time>2021-11-27T12:31:18Z</time>
      </trkpt>
      <trkpt lat="42.392193" lon="-7.72766">
        <time>2021-11-27T12:31:19Z</time>
      </trkpt>
      <trkpt lat="42.39219" lon="-7.727673">
        <time>2021-11-27T12:31:20Z</time>
      </trkpt>
      <trkpt lat="42.392185" lon="-7.727686">
        <time>2021-11-27T12:31:21Z</time>
      </trkpt>
      <trkpt lat="42.392185" lon="-7.727698">
        <time>2021-11-27T12:31:22Z</time>
      </trkpt>
      <trkpt lat="42.392185" lon="-7.7277083">
        <time>2021-11-27T12:31:23Z</time>
      </trkpt>
      <trkpt lat="42.39219" lon="-7.7277203">
        <time>2021-11-27T12:31:24Z</time>
      </trkpt>
      <trkpt lat="42.392193" lon="-7.7277327">
        <time>2021-11-27T12:31:25Z</time>
      </trkpt>
      <trkpt lat="42.3922" lon="-7.727745">
        <time>2021-11-27T12:31:26Z</time>
      </trkpt>
      <trkpt lat="42.39221" lon="-7.727756">
        <time>2021-11-27T12:31:27Z</time>
      </trkpt>
      <trkpt lat="42.392216" lon="-7.7277646">
        <time>2021-11-27T12:31:28Z</time>
      </trkpt>
      <trkpt lat="42.392227" lon="-7.727771">
        <time>2021-11-27T12:31:29Z</time>
      </trkpt>
      <trkpt lat="42.39224" lon="-7.7277765">
        <time>2021-11-27T12:31:30Z</time>
      </trkpt>
      <trkpt lat="42.39225" lon="-7.727782">
        <time>2021-11-27T12:31:31Z</time>
      </trkpt>
      <trkpt lat="42.39226" lon="-7.727787">
        <time>2021-11-27T12:31:32Z</time>
      </trkpt>
      <trkpt lat="42.39227" lon="-7.7277894">
        <time>2021-11-27T12:31:33Z</time>
      </trkpt>
      <trkpt lat="42.39228" lon="-7.727791">
        <time>2021-11-27T12:31:34Z</time>
      </trkpt>
      <trkpt lat="42.392284" lon="-7.7277913">
        <time>2021-11-27T12:31:35Z</time>
      </trkpt>
      <trkpt lat="42.392292" lon="-7.7277913">
        <time>2021-11-27T12:31:36Z</time>
      </trkpt>
      <trkpt lat="42.3923" lon="-7.72779">
        <time>2021-11-27T12:31:37Z</time>
      </trkpt>
      <trkpt lat="42.392307" lon="-7.727791">
        <time>2021-11-27T12:31:38Z</time>
      </trkpt>
      <trkpt lat="42.39232" lon="-7.72779">
        <time>2021-11-27T12:31:39Z</time>
      </trkpt>
      <trkpt lat="42.392326" lon="-7.7277894">
        <time>2021-11-27T12:31:40Z</time>
      </trkpt>
      <trkpt lat="42.392338" lon="-7.727786">
        <time>2021-11-27T12:31:41Z</time>
      </trkpt>
      <trkpt lat="42.392353" lon="-7.7277837">
        <time>2021-11-27T12:31:42Z</time>
      </trkpt>
      <trkpt lat="42.392365" lon="-7.7277837">
        <time>2021-11-27T12:31:43Z</time>
      </trkpt>
      <trkpt lat="42.392376" lon="-7.727785">
        <time>2021-11-27T12:31:44Z</time>
      </trkpt>
      <trkpt lat="42.392384" lon="-7.727785">
        <time>2021-11-27T12:31:45Z</time>
      </trkpt>
      <trkpt lat="42.39239" lon="-7.727783">
        <time>2021-11-27T12:31:46Z</time>
      </trkpt>
      <trkpt lat="42.3924" lon="-7.72778">
        <time>2021-11-27T12:31:47Z</time>
      </trkpt>
      <trkpt lat="42.392406" lon="-7.7277775">
        <time>2021-11-27T12:31:48Z</time>
      </trkpt>
      <trkpt lat="42.392414" lon="-7.7277737">
        <time>2021-11-27T12:31:49Z</time>
      </trkpt>
      <trkpt lat="42.39242" lon="-7.7277713">
        <time>2021-11-27T12:31:50Z</time>
      </trkpt>
      <trkpt lat="42.39243" lon="-7.727771">
        <time>2021-11-27T12:31:51Z</time>
      </trkpt>
      <trkpt lat="42.392437" lon="-7.7277737">
        <time>2021-11-27T12:31:52Z</time>
      </trkpt>
      <trkpt lat="42.39245" lon="-7.7277765">
        <time>2021-11-27T12:31:53Z</time>
      </trkpt>
      <trkpt lat="42.392452" lon="-7.727783">
        <time>2021-11-27T12:31:55Z</time>
      </trkpt>
      <trkpt lat="42.39246" lon="-7.727791">
        <time>2021-11-27T12:31:55Z</time>
      </trkpt>
      <trkpt lat="42.392467" lon="-7.7278004">
        <time>2021-11-27T12:31:56Z</time>
      </trkpt>
      <trkpt lat="42.392475" lon="-7.7278113">
        <time>2021-11-27T12:31:57Z</time>
      </trkpt>
      <trkpt lat="42.392487" lon="-7.727819">
        <time>2021-11-27T12:31:58Z</time>
      </trkpt>
      <trkpt lat="42.392498" lon="-7.727826">
        <time>2021-11-27T12:31:59Z</time>
      </trkpt>
      <trkpt lat="42.392506" lon="-7.727831">
        <time>2021-11-27T12:32:00Z</time>
      </trkpt>
      <trkpt lat="42.392517" lon="-7.7278347">
        <time>2021-11-27T12:32:01Z</time>
      </trkpt>
      <trkpt lat="42.39253" lon="-7.72784">
        <time>2021-11-27T12:32:02Z</time>
      </trkpt>
      <trkpt lat="42.39254" lon="-7.7278438">
        <time>2021-11-27T12:32:03Z</time>
      </trkpt>
      <trkpt lat="42.39255" lon="-7.7278447">
        <time>2021-11-27T12:32:04Z</time>
      </trkpt>
      <trkpt lat="42.39256" lon="-7.727845">
        <time>2021-11-27T12:32:05Z</time>
      </trkpt>
      <trkpt lat="42.392567" lon="-7.7278457">
        <time>2021-11-27T12:32:06Z</time>
      </trkpt>
      <trkpt lat="42.392574" lon="-7.727845">
        <time>2021-11-27T12:32:07Z</time>
      </trkpt>
      <trkpt lat="42.392586" lon="-7.727845">
        <time>2021-11-27T12:32:08Z</time>
      </trkpt>
      <trkpt lat="42.392597" lon="-7.727845">
        <time>2021-11-27T12:32:09Z</time>
      </trkpt>
      <trkpt lat="42.39261" lon="-7.7278466">
        <time>2021-11-27T12:32:10Z</time>
      </trkpt>
      <trkpt lat="42.39262" lon="-7.7278457">
        <time>2021-11-27T12:32:11Z</time>
      </trkpt>
      <trkpt lat="42.39263" lon="-7.727845">
        <time>2021-11-27T12:32:12Z</time>
      </trkpt>
      <trkpt lat="42.39264" lon="-7.7278447">
        <time>2021-11-27T12:32:13Z</time>
      </trkpt>
      <trkpt lat="42.392647" lon="-7.7278447">
        <time>2021-11-27T12:32:14Z</time>
      </trkpt>
      <trkpt lat="42.392654" lon="-7.7278466">
        <time>2021-11-27T12:32:15Z</time>
      </trkpt>
      <trkpt lat="42.392666" lon="-7.727851">
        <time>2021-11-27T12:32:16Z</time>
      </trkpt>
      <trkpt lat="42.392673" lon="-7.7278547">
        <time>2021-11-27T12:32:17Z</time>
      </trkpt>
      <trkpt lat="42.392685" lon="-7.7278585">
        <time>2021-11-27T12:32:19Z</time>
      </trkpt>
      <trkpt lat="42.392693" lon="-7.7278624">
        <time>2021-11-27T12:32:19Z</time>
      </trkpt>
      <trkpt lat="42.3927" lon="-7.727868">
        <time>2021-11-27T12:32:20Z</time>
      </trkpt>
      <trkpt lat="42.39271" lon="-7.727873">
        <time>2021-11-27T12:32:21Z</time>
      </trkpt>
      <trkpt lat="42.39272" lon="-7.727877">
        <time>2021-11-27T12:32:22Z</time>
      </trkpt>
      <trkpt lat="42.39273" lon="-7.7278795">
        <time>2021-11-27T12:32:23Z</time>
      </trkpt>
      <trkpt lat="42.39274" lon="-7.727881">
        <time>2021-11-27T12:32:24Z</time>
      </trkpt>
      <trkpt lat="42.392746" lon="-7.727883">
        <time>2021-11-27T12:32:25Z</time>
      </trkpt>
      <trkpt lat="42.392754" lon="-7.7278833">
        <time>2021-11-27T12:32:26Z</time>
      </trkpt>
      <trkpt lat="42.392765" lon="-7.727885">
        <time>2021-11-27T12:32:27Z</time>
      </trkpt>
      <trkpt lat="42.392773" lon="-7.7278867">
        <time>2021-11-27T12:32:28Z</time>
      </trkpt>
      <trkpt lat="42.392784" lon="-7.7278886">
        <time>2021-11-27T12:32:29Z</time>
      </trkpt>
      <trkpt lat="42.392796" lon="-7.727889">
        <time>2021-11-27T12:32:30Z</time>
      </trkpt>
      <trkpt lat="42.392807" lon="-7.72789">
        <time>2021-11-27T12:32:31Z</time>
      </trkpt>
      <trkpt lat="42.39282" lon="-7.7278924">
        <time>2021-11-27T12:32:32Z</time>
      </trkpt>
      <trkpt lat="42.392826" lon="-7.7278957">
        <time>2021-11-27T12:32:33Z</time>
      </trkpt>
      <trkpt lat="42.39284" lon="-7.727901">
        <time>2021-11-27T12:32:34Z</time>
      </trkpt>
      <trkpt lat="42.39285" lon="-7.7279058">
        <time>2021-11-27T12:32:35Z</time>
      </trkpt>
      <trkpt lat="42.392857" lon="-7.7279115">
        <time>2021-11-27T12:32:36Z</time>
      </trkpt>
      <trkpt lat="42.392864" lon="-7.7279177">
        <time>2021-11-27T12:32:37Z</time>
      </trkpt>
      <trkpt lat="42.392876" lon="-7.7279224">
        <time>2021-11-27T12:32:38Z</time>
      </trkpt>
      <trkpt lat="42.392887" lon="-7.7279263">
        <time>2021-11-27T12:32:39Z</time>
      </trkpt>
      <trkpt lat="42.392895" lon="-7.727929">
        <time>2021-11-27T12:32:40Z</time>
      </trkpt>
      <trkpt lat="42.392902" lon="-7.727933">
        <time>2021-11-27T12:32:41Z</time>
      </trkpt>
      <trkpt lat="42.392914" lon="-7.7279367">
        <time>2021-11-27T12:32:42Z</time>
      </trkpt>
      <trkpt lat="42.39292" lon="-7.727941">
        <time>2021-11-27T12:32:43Z</time>
      </trkpt>
      <trkpt lat="42.392933" lon="-7.727946">
        <time>2021-11-27T12:32:45Z</time>
      </trkpt>
      <trkpt lat="42.39294" lon="-7.7279515">
        <time>2021-11-27T12:32:46Z</time>
      </trkpt>
      <trkpt lat="42.392952" lon="-7.7279577">
        <time>2021-11-27T12:32:47Z</time>
      </trkpt>
      <trkpt lat="42.392963" lon="-7.727964">
        <time>2021-11-27T12:32:48Z</time>
      </trkpt>
      <trkpt lat="42.39297" lon="-7.7279706">
        <time>2021-11-27T12:32:49Z</time>
      </trkpt>
      <trkpt lat="42.39298" lon="-7.7279778">
        <time>2021-11-27T12:32:50Z</time>
      </trkpt>
      <trkpt lat="42.392986" lon="-7.7279854">
        <time>2021-11-27T12:32:51Z</time>
      </trkpt>
      <trkpt lat="42.392998" lon="-7.727993">
        <time>2021-11-27T12:32:52Z</time>
      </trkpt>
      <trkpt lat="42.393005" lon="-7.727999">
        <time>2021-11-27T12:32:53Z</time>
      </trkpt>
      <trkpt lat="42.393013" lon="-7.728005">
        <time>2021-11-27T12:32:54Z</time>
      </trkpt>
      <trkpt lat="42.39302" lon="-7.7280116">
        <time>2021-11-27T12:32:55Z</time>
      </trkpt>
      <trkpt lat="42.39303" lon="-7.728018">
        <time>2021-11-27T12:32:56Z</time>
      </trkpt>
      <trkpt lat="42.393036" lon="-7.728025">
        <time>2021-11-27T12:32:57Z</time>
      </trkpt>
      <trkpt lat="42.393044" lon="-7.728033">
        <time>2021-11-27T12:32:58Z</time>
      </trkpt>
      <trkpt lat="42.393047" lon="-7.728043">
        <time>2021-11-27T12:32:59Z</time>
      </trkpt>
      <trkpt lat="42.393055" lon="-7.7280517">
        <time>2021-11-27T12:33:00Z</time>
      </trkpt>
      <trkpt lat="42.393063" lon="-7.7280602">
        <time>2021-11-27T12:33:01Z</time>
      </trkpt>
      <trkpt lat="42.393074" lon="-7.7280674">
        <time>2021-11-27T12:33:02Z</time>
      </trkpt>
      <trkpt lat="42.39308" lon="-7.728074">
        <time>2021-11-27T12:33:03Z</time>
      </trkpt>
      <trkpt lat="42.39309" lon="-7.7280807">
        <time>2021-11-27T12:33:04Z</time>
      </trkpt>
      <trkpt lat="42.393097" lon="-7.728089">
        <time>2021-11-27T12:33:05Z</time>
      </trkpt>
      <trkpt lat="42.393105" lon="-7.7280993">
        <time>2021-11-27T12:33:06Z</time>
      </trkpt>
      <trkpt lat="42.393112" lon="-7.728109">
        <time>2021-11-27T12:33:07Z</time>
      </trkpt>
      <trkpt lat="42.39312" lon="-7.728118">
        <time>2021-11-27T12:33:08Z</time>
      </trkpt>
      <trkpt lat="42.39313" lon="-7.728126">
        <time>2021-11-27T12:33:09Z</time>
      </trkpt>
      <trkpt lat="42.393143" lon="-7.7281365">
        <time>2021-11-27T12:33:10Z</time>
      </trkpt>
      <trkpt lat="42.39315" lon="-7.7281466">
        <time>2021-11-27T12:33:11Z</time>
      </trkpt>
      <trkpt lat="42.39316" lon="-7.7281566">
        <time>2021-11-27T12:33:12Z</time>
      </trkpt>
      <trkpt lat="42.393173" lon="-7.7281685">
        <time>2021-11-27T12:33:13Z</time>
      </trkpt>
      <trkpt lat="42.39318" lon="-7.72818">
        <time>2021-11-27T12:33:14Z</time>
      </trkpt>
      <trkpt lat="42.393192" lon="-7.72819">
        <time>2021-11-27T12:33:15Z</time>
      </trkpt>
      <trkpt lat="42.3932" lon="-7.7281995">
        <time>2021-11-27T12:33:16Z</time>
      </trkpt>
      <trkpt lat="42.393208" lon="-7.72821">
        <time>2021-11-27T12:33:17Z</time>
      </trkpt>
      <trkpt lat="42.393215" lon="-7.7282214">
        <time>2021-11-27T12:33:18Z</time>
      </trkpt>
      <trkpt lat="42.393223" lon="-7.728234">
        <time>2021-11-27T12:33:19Z</time>
      </trkpt>
      <trkpt lat="42.39323" lon="-7.7282453">
        <time>2021-11-27T12:33:20Z</time>
      </trkpt>
      <trkpt lat="42.393238" lon="-7.728257">
        <time>2021-11-27T12:33:21Z</time>
      </trkpt>
      <trkpt lat="42.393246" lon="-7.728268">
        <time>2021-11-27T12:33:22Z</time>
      </trkpt>
      <trkpt lat="42.393253" lon="-7.728277">
        <time>2021-11-27T12:33:23Z</time>
      </trkpt>
      <trkpt lat="42.39326" lon="-7.728285">
        <time>2021-11-27T12:33:24Z</time>
      </trkpt>
      <trkpt lat="42.39327" lon="-7.728293">
        <time>2021-11-27T12:33:25Z</time>
      </trkpt>
      <trkpt lat="42.393272" lon="-7.7283053">
        <time>2021-11-27T12:33:26Z</time>
      </trkpt>
      <trkpt lat="42.393276" lon="-7.728318">
        <time>2021-11-27T12:33:27Z</time>
      </trkpt>
      <trkpt lat="42.393284" lon="-7.7283316">
        <time>2021-11-27T12:33:28Z</time>
      </trkpt>
      <trkpt lat="42.393288" lon="-7.7283444">
        <time>2021-11-27T12:33:29Z</time>
      </trkpt>
      <trkpt lat="42.39329" lon="-7.728356">
        <time>2021-11-27T12:33:30Z</time>
      </trkpt>
      <trkpt lat="42.3933" lon="-7.728366">
        <time>2021-11-27T12:33:31Z</time>
      </trkpt>
      <trkpt lat="42.393307" lon="-7.7283764">
        <time>2021-11-27T12:33:32Z</time>
      </trkpt>
      <trkpt lat="42.39332" lon="-7.7283864">
        <time>2021-11-27T12:33:33Z</time>
      </trkpt>
      <trkpt lat="42.39333" lon="-7.728396">
        <time>2021-11-27T12:33:34Z</time>
      </trkpt>
      <trkpt lat="42.393337" lon="-7.7284064">
        <time>2021-11-27T12:33:35Z</time>
      </trkpt>
      <trkpt lat="42.39335" lon="-7.7284155">
        <time>2021-11-27T12:33:36Z</time>
      </trkpt>
      <trkpt lat="42.39336" lon="-7.728423">
        <time>2021-11-27T12:33:37Z</time>
      </trkpt>
      <trkpt lat="42.393368" lon="-7.7284284">
        <time>2021-11-27T12:33:38Z</time>
      </trkpt>
      <trkpt lat="42.39338" lon="-7.7284327">
        <time>2021-11-27T12:33:39Z</time>
      </trkpt>
      <trkpt lat="42.393394" lon="-7.728437">
        <time>2021-11-27T12:33:40Z</time>
      </trkpt>
      <trkpt lat="42.393406" lon="-7.72844">
        <time>2021-11-27T12:33:41Z</time>
      </trkpt>
      <trkpt lat="42.393417" lon="-7.7284427">
        <time>2021-11-27T12:33:42Z</time>
      </trkpt>
      <trkpt lat="42.39343" lon="-7.728446">
        <time>2021-11-27T12:33:43Z</time>
      </trkpt>
      <trkpt lat="42.39344" lon="-7.728449">
        <time>2021-11-27T12:33:44Z</time>
      </trkpt>
      <trkpt lat="42.393448" lon="-7.72845">
        <time>2021-11-27T12:33:45Z</time>
      </trkpt>
      <trkpt lat="42.39346" lon="-7.7284474">
        <time>2021-11-27T12:33:46Z</time>
      </trkpt>
      <trkpt lat="42.393467" lon="-7.7284417">
        <time>2021-11-27T12:33:47Z</time>
      </trkpt>
      <trkpt lat="42.393475" lon="-7.728431">
        <time>2021-11-27T12:33:48Z</time>
      </trkpt>
      <trkpt lat="42.393482" lon="-7.728421">
        <time>2021-11-27T12:33:49Z</time>
      </trkpt>
      <trkpt lat="42.39349" lon="-7.7284117">
        <time>2021-11-27T12:33:50Z</time>
      </trkpt>
      <trkpt lat="42.3935" lon="-7.7284">
        <time>2021-11-27T12:33:51Z</time>
      </trkpt>
      <trkpt lat="42.393513" lon="-7.7283897">
        <time>2021-11-27T12:33:52Z</time>
      </trkpt>
      <trkpt lat="42.393524" lon="-7.728378">
        <time>2021-11-27T12:33:53Z</time>
      </trkpt>
      <trkpt lat="42.393536" lon="-7.7283673">
        <time>2021-11-27T12:33:54Z</time>
      </trkpt>
      <trkpt lat="42.393547" lon="-7.7283573">
        <time>2021-11-27T12:33:55Z</time>
      </trkpt>
      <trkpt lat="42.393555" lon="-7.728347">
        <time>2021-11-27T12:33:56Z</time>
      </trkpt>
      <trkpt lat="42.393566" lon="-7.7283354">
        <time>2021-11-27T12:33:57Z</time>
      </trkpt>
      <trkpt lat="42.39358" lon="-7.728323">
        <time>2021-11-27T12:33:58Z</time>
      </trkpt>
      <trkpt lat="42.39359" lon="-7.7283115">
        <time>2021-11-27T12:33:59Z</time>
      </trkpt>
      <trkpt lat="42.393604" lon="-7.7283006">
        <time>2021-11-27T12:34:00Z</time>
      </trkpt>
      <trkpt lat="42.393612" lon="-7.7282906">
        <time>2021-11-27T12:34:01Z</time>
      </trkpt>
      <trkpt lat="42.393623" lon="-7.7282805">
        <time>2021-11-27T12:34:02Z</time>
      </trkpt>
      <trkpt lat="42.393635" lon="-7.7282705">
        <time>2021-11-27T12:34:03Z</time>
      </trkpt>
      <trkpt lat="42.39364" lon="-7.728263">
        <time>2021-11-27T12:34:04Z</time>
      </trkpt>
      <trkpt lat="42.393642" lon="-7.728258">
        <time>2021-11-27T12:34:05Z</time>
      </trkpt>
      <trkpt lat="42.393658" lon="-7.7282434">
        <time>2021-11-27T12:34:07Z</time>
      </trkpt>
      <trkpt lat="42.393658" lon="-7.7282405">
        <time>2021-11-27T12:34:08Z</time>
      </trkpt>
      <trkpt lat="42.393665" lon="-7.7282376">
        <time>2021-11-27T12:34:09Z</time>
      </trkpt>
      <trkpt lat="42.39367" lon="-7.728235">
        <time>2021-11-27T12:34:10Z</time>
      </trkpt>
      <trkpt lat="42.393673" lon="-7.728232">
        <time>2021-11-27T12:34:11Z</time>
      </trkpt>
      <trkpt lat="42.393684" lon="-7.728229">
        <time>2021-11-27T12:34:12Z</time>
      </trkpt>
      <trkpt lat="42.39369" lon="-7.728227">
        <time>2021-11-27T12:34:13Z</time>
      </trkpt>
      <trkpt lat="42.393696" lon="-7.728225">
        <time>2021-11-27T12:34:14Z</time>
      </trkpt>
      <trkpt lat="42.3937" lon="-7.7282248">
        <time>2021-11-27T12:34:14Z</time>
      </trkpt>
      <trkpt lat="42.393703" lon="-7.728224">
        <time>2021-11-27T12:34:15Z</time>
      </trkpt>
      <trkpt lat="42.39371" lon="-7.7282233">
        <time>2021-11-27T12:34:16Z</time>
      </trkpt>
      <trkpt lat="42.39372" lon="-7.7282233">
        <time>2021-11-27T12:34:17Z</time>
      </trkpt>
      <trkpt lat="42.393726" lon="-7.7282257">
        <time>2021-11-27T12:34:18Z</time>
      </trkpt>
      <trkpt lat="42.39374" lon="-7.7282257">
        <time>2021-11-27T12:34:19Z</time>
      </trkpt>
      <trkpt lat="42.39375" lon="-7.728225">
        <time>2021-11-27T12:34:20Z</time>
      </trkpt>
      <trkpt lat="42.393764" lon="-7.7282248">
        <time>2021-11-27T12:34:21Z</time>
      </trkpt>
      <trkpt lat="42.393784" lon="-7.728225">
        <time>2021-11-27T12:34:22Z</time>
      </trkpt>
      <trkpt lat="42.393795" lon="-7.7282248">
        <time>2021-11-27T12:34:23Z</time>
      </trkpt>
      <trkpt lat="42.393806" lon="-7.7282257">
        <time>2021-11-27T12:34:24Z</time>
      </trkpt>
      <trkpt lat="42.393814" lon="-7.728229">
        <time>2021-11-27T12:34:25Z</time>
      </trkpt>
      <trkpt lat="42.39383" lon="-7.7282357">
        <time>2021-11-27T12:34:26Z</time>
      </trkpt>
      <trkpt lat="42.393845" lon="-7.7282414">
        <time>2021-11-27T12:34:27Z</time>
      </trkpt>
      <trkpt lat="42.39386" lon="-7.728247">
        <time>2021-11-27T12:34:28Z</time>
      </trkpt>
      <trkpt lat="42.393875" lon="-7.728251">
        <time>2021-11-27T12:34:29Z</time>
      </trkpt>
      <trkpt lat="42.39389" lon="-7.728255">
        <time>2021-11-27T12:34:30Z</time>
      </trkpt>
      <trkpt lat="42.393898" lon="-7.728259">
        <time>2021-11-27T12:34:31Z</time>
      </trkpt>
      <trkpt lat="42.39391" lon="-7.728264">
        <time>2021-11-27T12:34:32Z</time>
      </trkpt>
      <trkpt lat="42.39392" lon="-7.728268">
        <time>2021-11-27T12:34:33Z</time>
      </trkpt>
      <trkpt lat="42.393932" lon="-7.7282705">
        <time>2021-11-27T12:34:34Z</time>
      </trkpt>
      <trkpt lat="42.393944" lon="-7.7282743">
        <time>2021-11-27T12:34:35Z</time>
      </trkpt>
      <trkpt lat="42.39396" lon="-7.728279">
        <time>2021-11-27T12:34:36Z</time>
      </trkpt>
      <trkpt lat="42.39397" lon="-7.728287">
        <time>2021-11-27T12:34:37Z</time>
      </trkpt>
      <trkpt lat="42.393986" lon="-7.7282963">
        <time>2021-11-27T12:34:38Z</time>
      </trkpt>
      <trkpt lat="42.393993" lon="-7.728302">
        <time>2021-11-27T12:34:39Z</time>
      </trkpt>
      <trkpt lat="42.394" lon="-7.7283072">
        <time>2021-11-27T12:34:40Z</time>
      </trkpt>
      <trkpt lat="42.394016" lon="-7.7283096">
        <time>2021-11-27T12:34:41Z</time>
      </trkpt>
      <trkpt lat="42.394024" lon="-7.7283106">
        <time>2021-11-27T12:34:42Z</time>
      </trkpt>
      <trkpt lat="42.394035" lon="-7.7283087">
        <time>2021-11-27T12:34:43Z</time>
      </trkpt>
      <trkpt lat="42.394047" lon="-7.728307">
        <time>2021-11-27T12:34:44Z</time>
      </trkpt>
      <trkpt lat="42.394054" lon="-7.728305">
        <time>2021-11-27T12:34:45Z</time>
      </trkpt>
      <trkpt lat="42.39407" lon="-7.7283034">
        <time>2021-11-27T12:34:46Z</time>
      </trkpt>
      <trkpt lat="42.39408" lon="-7.728302">
        <time>2021-11-27T12:34:47Z</time>
      </trkpt>
      <trkpt lat="42.394093" lon="-7.728302">
        <time>2021-11-27T12:34:48Z</time>
      </trkpt>
      <trkpt lat="42.394108" lon="-7.7283034">
        <time>2021-11-27T12:34:49Z</time>
      </trkpt>
      <trkpt lat="42.394115" lon="-7.7283034">
        <time>2021-11-27T12:34:50Z</time>
      </trkpt>
      <trkpt lat="42.394127" lon="-7.728302">
        <time>2021-11-27T12:34:51Z</time>
      </trkpt>
      <trkpt lat="42.39414" lon="-7.7283">
        <time>2021-11-27T12:34:52Z</time>
      </trkpt>
      <trkpt lat="42.394146" lon="-7.7282996">
        <time>2021-11-27T12:34:53Z</time>
      </trkpt>
      <trkpt lat="42.394157" lon="-7.728298">
        <time>2021-11-27T12:34:54Z</time>
      </trkpt>
      <trkpt lat="42.39417" lon="-7.728298">
        <time>2021-11-27T12:34:55Z</time>
      </trkpt>
      <trkpt lat="42.39418" lon="-7.7282987">
        <time>2021-11-27T12:34:56Z</time>
      </trkpt>
      <trkpt lat="42.39419" lon="-7.728298">
        <time>2021-11-27T12:34:57Z</time>
      </trkpt>
      <trkpt lat="42.394203" lon="-7.7282968">
        <time>2021-11-27T12:34:58Z</time>
      </trkpt>
      <trkpt lat="42.39421" lon="-7.728296">
        <time>2021-11-27T12:34:59Z</time>
      </trkpt>
      <trkpt lat="42.394222" lon="-7.7282944">
        <time>2021-11-27T12:35:00Z</time>
      </trkpt>
      <trkpt lat="42.39423" lon="-7.7282925">
        <time>2021-11-27T12:35:01Z</time>
      </trkpt>
      <trkpt lat="42.39424" lon="-7.728292">
        <time>2021-11-27T12:35:02Z</time>
      </trkpt>
      <trkpt lat="42.394253" lon="-7.728291">
        <time>2021-11-27T12:35:03Z</time>
      </trkpt>
      <trkpt lat="42.394264" lon="-7.728292">
        <time>2021-11-27T12:35:04Z</time>
      </trkpt>
      <trkpt lat="42.394276" lon="-7.7282925">
        <time>2021-11-27T12:35:05Z</time>
      </trkpt>
      <trkpt lat="42.394287" lon="-7.728293">
        <time>2021-11-27T12:35:06Z</time>
      </trkpt>
      <trkpt lat="42.394302" lon="-7.728293">
        <time>2021-11-27T12:35:07Z</time>
      </trkpt>
      <trkpt lat="42.394314" lon="-7.728294">
        <time>2021-11-27T12:35:08Z</time>
      </trkpt>
      <trkpt lat="42.394325" lon="-7.7282944">
        <time>2021-11-27T12:35:09Z</time>
      </trkpt>
      <trkpt lat="42.394337" lon="-7.7282963">
        <time>2021-11-27T12:35:10Z</time>
      </trkpt>
      <trkpt lat="42.394352" lon="-7.7282996">
        <time>2021-11-27T12:35:11Z</time>
      </trkpt>
      <trkpt lat="42.394363" lon="-7.7283">
        <time>2021-11-27T12:35:12Z</time>
      </trkpt>
      <trkpt lat="42.394375" lon="-7.728303">
        <time>2021-11-27T12:35:13Z</time>
      </trkpt>
      <trkpt lat="42.39439" lon="-7.728306">
        <time>2021-11-27T12:35:14Z</time>
      </trkpt>
      <trkpt lat="42.3944" lon="-7.728309">
        <time>2021-11-27T12:35:15Z</time>
      </trkpt>
      <trkpt lat="42.394413" lon="-7.7283125">
        <time>2021-11-27T12:35:16Z</time>
      </trkpt>
      <trkpt lat="42.39443" lon="-7.728317">
        <time>2021-11-27T12:35:17Z</time>
      </trkpt>
      <trkpt lat="42.39444" lon="-7.728322">
        <time>2021-11-27T12:35:18Z</time>
      </trkpt>
      <trkpt lat="42.39445" lon="-7.728328">
        <time>2021-11-27T12:35:19Z</time>
      </trkpt>
      <trkpt lat="42.394463" lon="-7.728334">
        <time>2021-11-27T12:35:20Z</time>
      </trkpt>
      <trkpt lat="42.394474" lon="-7.7283397">
        <time>2021-11-27T12:35:21Z</time>
      </trkpt>
      <trkpt lat="42.394485" lon="-7.728343">
        <time>2021-11-27T12:35:22Z</time>
      </trkpt>
      <trkpt lat="42.3945" lon="-7.728347">
        <time>2021-11-27T12:35:23Z</time>
      </trkpt>
      <trkpt lat="42.394512" lon="-7.7283487">
        <time>2021-11-27T12:35:24Z</time>
      </trkpt>
      <trkpt lat="42.394524" lon="-7.7283525">
        <time>2021-11-27T12:35:25Z</time>
      </trkpt>
      <trkpt lat="42.39454" lon="-7.728358">
        <time>2021-11-27T12:35:26Z</time>
      </trkpt>
      <trkpt lat="42.394554" lon="-7.7283616">
        <time>2021-11-27T12:35:27Z</time>
      </trkpt>
      <trkpt lat="42.39457" lon="-7.7283635">
        <time>2021-11-27T12:35:28Z</time>
      </trkpt>
      <trkpt lat="42.394585" lon="-7.728363">
        <time>2021-11-27T12:35:29Z</time>
      </trkpt>
      <trkpt lat="42.3946" lon="-7.72836">
        <time>2021-11-27T12:35:30Z</time>
      </trkpt>
      <trkpt lat="42.394615" lon="-7.728358">
        <time>2021-11-27T12:35:31Z</time>
      </trkpt>
      <trkpt lat="42.394627" lon="-7.7283564">
        <time>2021-11-27T12:35:32Z</time>
      </trkpt>
      <trkpt lat="42.394638" lon="-7.7283554">
        <time>2021-11-27T12:35:33Z</time>
      </trkpt>
      <trkpt lat="42.39465" lon="-7.7283535">
        <time>2021-11-27T12:35:34Z</time>
      </trkpt>
      <trkpt lat="42.39466" lon="-7.728352">
        <time>2021-11-27T12:35:35Z</time>
      </trkpt>
      <trkpt lat="42.39467" lon="-7.7283487">
        <time>2021-11-27T12:35:36Z</time>
      </trkpt>
      <trkpt lat="42.39468" lon="-7.7283416">
        <time>2021-11-27T12:35:37Z</time>
      </trkpt>
      <trkpt lat="42.39469" lon="-7.728332">
        <time>2021-11-27T12:35:38Z</time>
      </trkpt>
      <trkpt lat="42.394695" lon="-7.72832">
        <time>2021-11-27T12:35:39Z</time>
      </trkpt>
      <trkpt lat="42.3947" lon="-7.7283072">
        <time>2021-11-27T12:35:40Z</time>
      </trkpt>
      <trkpt lat="42.394707" lon="-7.728295">
        <time>2021-11-27T12:35:41Z</time>
      </trkpt>
      <trkpt lat="42.394707" lon="-7.7282853">
        <time>2021-11-27T12:35:42Z</time>
      </trkpt>
      <trkpt lat="42.394707" lon="-7.7282786">
        <time>2021-11-27T12:35:43Z</time>
      </trkpt>
      <trkpt lat="42.39471" lon="-7.7282715">
        <time>2021-11-27T12:35:44Z</time>
      </trkpt>
      <trkpt lat="42.394714" lon="-7.728265">
        <time>2021-11-27T12:35:45Z</time>
      </trkpt>
      <trkpt lat="42.394722" lon="-7.728258">
        <time>2021-11-27T12:35:46Z</time>
      </trkpt>
      <trkpt lat="42.39473" lon="-7.7282495">
        <time>2021-11-27T12:35:47Z</time>
      </trkpt>
      <trkpt lat="42.394737" lon="-7.7282405">
        <time>2021-11-27T12:35:48Z</time>
      </trkpt>
      <trkpt lat="42.394745" lon="-7.728229">
        <time>2021-11-27T12:35:49Z</time>
      </trkpt>
      <trkpt lat="42.39475" lon="-7.728216">
        <time>2021-11-27T12:35:50Z</time>
      </trkpt>
      <trkpt lat="42.394756" lon="-7.7282023">
        <time>2021-11-27T12:35:51Z</time>
      </trkpt>
      <trkpt lat="42.394764" lon="-7.728188">
        <time>2021-11-27T12:35:52Z</time>
      </trkpt>
      <trkpt lat="42.39477" lon="-7.7281733">
        <time>2021-11-27T12:35:54Z</time>
      </trkpt>
      <trkpt lat="42.39478" lon="-7.7281613">
        <time>2021-11-27T12:35:54Z</time>
      </trkpt>
      <trkpt lat="42.394787" lon="-7.72815">
        <time>2021-11-27T12:35:55Z</time>
      </trkpt>
      <trkpt lat="42.39479" lon="-7.728143">
        <time>2021-11-27T12:35:56Z</time>
      </trkpt>
      <trkpt lat="42.394794" lon="-7.7281413">
        <time>2021-11-27T12:35:57Z</time>
      </trkpt>
      <trkpt lat="42.394794" lon="-7.7281427">
        <time>2021-11-27T12:35:58Z</time>
      </trkpt>
      <trkpt lat="42.39479" lon="-7.728145">
        <time>2021-11-27T12:35:59Z</time>
      </trkpt>
      <trkpt lat="42.394794" lon="-7.728148">
        <time>2021-11-27T12:36:00Z</time>
      </trkpt>
      <trkpt lat="42.394794" lon="-7.7281485">
        <time>2021-11-27T12:36:01Z</time>
      </trkpt>
      <trkpt lat="42.394794" lon="-7.728149">
        <time>2021-11-27T12:36:02Z</time>
      </trkpt>
      <trkpt lat="42.394802" lon="-7.72815">
        <time>2021-11-27T12:36:05Z</time>
      </trkpt>
      <trkpt lat="42.394802" lon="-7.7281446">
        <time>2021-11-27T12:36:23Z</time>
      </trkpt>
      <trkpt lat="42.394802" lon="-7.7281384">
        <time>2021-11-27T12:36:26Z</time>
      </trkpt>
      <trkpt lat="42.394802" lon="-7.728137">
        <time>2021-11-27T12:36:27Z</time>
      </trkpt>
      <trkpt lat="42.394802" lon="-7.7281346">
        <time>2021-11-27T12:36:28Z</time>
      </trkpt>
      <trkpt lat="42.394802" lon="-7.728132">
        <time>2021-11-27T12:36:29Z</time>
      </trkpt>
      <trkpt lat="42.394802" lon="-7.7281294">
        <time>2021-11-27T12:36:30Z</time>
      </trkpt>
      <trkpt lat="42.394802" lon="-7.72812">
        <time>2021-11-27T12:36:32Z</time>
      </trkpt>
      <trkpt lat="42.3948" lon="-7.728119">
        <time>2021-11-27T12:36:33Z</time>
      </trkpt>
      <trkpt lat="42.3948" lon="-7.728116">
        <time>2021-11-27T12:36:34Z</time>
      </trkpt>
      <trkpt lat="42.3948" lon="-7.728113">
        <time>2021-11-27T12:36:35Z</time>
      </trkpt>
      <trkpt lat="42.3948" lon="-7.7281094">
        <time>2021-11-27T12:36:36Z</time>
      </trkpt>
      <trkpt lat="42.3948" lon="-7.728106">
        <time>2021-11-27T12:36:37Z</time>
      </trkpt>
      <trkpt lat="42.394794" lon="-7.728098">
        <time>2021-11-27T12:36:42Z</time>
      </trkpt>
      <trkpt lat="42.394802" lon="-7.7280965">
        <time>2021-11-27T12:37:12Z</time>
      </trkpt>
      <trkpt lat="42.39481" lon="-7.728105">
        <time>2021-11-27T12:37:24Z</time>
      </trkpt>
      <trkpt lat="42.394814" lon="-7.728107">
        <time>2021-11-27T12:37:25Z</time>
      </trkpt>
      <trkpt lat="42.394817" lon="-7.728112">
        <time>2021-11-27T12:37:26Z</time>
      </trkpt>
      <trkpt lat="42.39483" lon="-7.728121">
        <time>2021-11-27T12:37:27Z</time>
      </trkpt>
      <trkpt lat="42.394855" lon="-7.728156">
        <time>2021-11-27T12:37:28Z</time>
      </trkpt>
      <trkpt lat="42.39486" lon="-7.728161">
        <time>2021-11-27T12:37:29Z</time>
      </trkpt>
      <trkpt lat="42.394867" lon="-7.7281713">
        <time>2021-11-27T12:37:30Z</time>
      </trkpt>
      <trkpt lat="42.394875" lon="-7.7281857">
        <time>2021-11-27T12:37:31Z</time>
      </trkpt>
      <trkpt lat="42.394886" lon="-7.728201">
        <time>2021-11-27T12:37:32Z</time>
      </trkpt>
      <trkpt lat="42.394897" lon="-7.7282143">
        <time>2021-11-27T12:37:33Z</time>
      </trkpt>
      <trkpt lat="42.394905" lon="-7.7282214">
        <time>2021-11-27T12:37:34Z</time>
      </trkpt>
      <trkpt lat="42.394913" lon="-7.7282286">
        <time>2021-11-27T12:37:35Z</time>
      </trkpt>
      <trkpt lat="42.39492" lon="-7.728234">
        <time>2021-11-27T12:37:36Z</time>
      </trkpt>
      <trkpt lat="42.394928" lon="-7.728238">
        <time>2021-11-27T12:37:37Z</time>
      </trkpt>
      <trkpt lat="42.394936" lon="-7.7282453">
        <time>2021-11-27T12:37:38Z</time>
      </trkpt>
      <trkpt lat="42.394943" lon="-7.7282495">
        <time>2021-11-27T12:37:39Z</time>
      </trkpt>
      <trkpt lat="42.394947" lon="-7.7282534">
        <time>2021-11-27T12:37:40Z</time>
      </trkpt>
      <trkpt lat="42.394955" lon="-7.7282567">
        <time>2021-11-27T12:37:41Z</time>
      </trkpt>
      <trkpt lat="42.39496" lon="-7.72826">
        <time>2021-11-27T12:37:42Z</time>
      </trkpt>
      <trkpt lat="42.394966" lon="-7.728261">
        <time>2021-11-27T12:37:43Z</time>
      </trkpt>
      <trkpt lat="42.394974" lon="-7.728263">
        <time>2021-11-27T12:37:44Z</time>
      </trkpt>
      <trkpt lat="42.39498" lon="-7.728264">
        <time>2021-11-27T12:37:45Z</time>
      </trkpt>
      <trkpt lat="42.39499" lon="-7.728265">
        <time>2021-11-27T12:37:46Z</time>
      </trkpt>
      <trkpt lat="42.394993" lon="-7.7282662">
        <time>2021-11-27T12:37:47Z</time>
      </trkpt>
      <trkpt lat="42.395" lon="-7.7282677">
        <time>2021-11-27T12:37:48Z</time>
      </trkpt>
      <trkpt lat="42.395004" lon="-7.728268">
        <time>2021-11-27T12:37:49Z</time>
      </trkpt>
      <trkpt lat="42.395016" lon="-7.728268">
        <time>2021-11-27T12:37:50Z</time>
      </trkpt>
      <trkpt lat="42.395023" lon="-7.7282667">
        <time>2021-11-27T12:37:51Z</time>
      </trkpt>
      <trkpt lat="42.39503" lon="-7.7282643">
        <time>2021-11-27T12:37:52Z</time>
      </trkpt>
      <trkpt lat="42.39504" lon="-7.728261">
        <time>2021-11-27T12:37:54Z</time>
      </trkpt>
      <trkpt lat="42.395046" lon="-7.728255">
        <time>2021-11-27T12:37:54Z</time>
      </trkpt>
      <trkpt lat="42.395058" lon="-7.728247">
        <time>2021-11-27T12:37:55Z</time>
      </trkpt>
      <trkpt lat="42.395065" lon="-7.7282405">
        <time>2021-11-27T12:37:56Z</time>
      </trkpt>
      <trkpt lat="42.39508" lon="-7.7282367">
        <time>2021-11-27T12:37:57Z</time>
      </trkpt>
      <trkpt lat="42.395092" lon="-7.7282343">
        <time>2021-11-27T12:37:58Z</time>
      </trkpt>
      <trkpt lat="42.3951" lon="-7.7282295">
        <time>2021-11-27T12:37:59Z</time>
      </trkpt>
      <trkpt lat="42.395103" lon="-7.728222">
        <time>2021-11-27T12:38:00Z</time>
      </trkpt>
      <trkpt lat="42.395107" lon="-7.7282114">
        <time>2021-11-27T12:38:01Z</time>
      </trkpt>
      <trkpt lat="42.39511" lon="-7.7281985">
        <time>2021-11-27T12:38:02Z</time>
      </trkpt>
      <trkpt lat="42.39512" lon="-7.728184">
        <time>2021-11-27T12:38:03Z</time>
      </trkpt>
      <trkpt lat="42.395123" lon="-7.728173">
        <time>2021-11-27T12:38:04Z</time>
      </trkpt>
      <trkpt lat="42.39513" lon="-7.7281637">
        <time>2021-11-27T12:38:05Z</time>
      </trkpt>
      <trkpt lat="42.39513" lon="-7.728156">
        <time>2021-11-27T12:38:06Z</time>
      </trkpt>
      <trkpt lat="42.395138" lon="-7.7281384">
        <time>2021-11-27T12:38:08Z</time>
      </trkpt>
      <trkpt lat="42.395138" lon="-7.728137">
        <time>2021-11-27T12:38:09Z</time>
      </trkpt>
      <trkpt lat="42.395138" lon="-7.7281346">
        <time>2021-11-27T12:38:10Z</time>
      </trkpt>
      <trkpt lat="42.39514" lon="-7.7281284">
        <time>2021-11-27T12:38:11Z</time>
      </trkpt>
      <trkpt lat="42.395145" lon="-7.728118">
        <time>2021-11-27T12:38:12Z</time>
      </trkpt>
      <trkpt lat="42.39515" lon="-7.728106">
        <time>2021-11-27T12:38:13Z</time>
      </trkpt>
      <trkpt lat="42.395153" lon="-7.728092">
        <time>2021-11-27T12:38:14Z</time>
      </trkpt>
      <trkpt lat="42.395153" lon="-7.72808">
        <time>2021-11-27T12:38:15Z</time>
      </trkpt>
      <trkpt lat="42.39516" lon="-7.728068">
        <time>2021-11-27T12:38:16Z</time>
      </trkpt>
      <trkpt lat="42.39516" lon="-7.7280564">
        <time>2021-11-27T12:38:17Z</time>
      </trkpt>
      <trkpt lat="42.39517" lon="-7.728046">
        <time>2021-11-27T12:38:18Z</time>
      </trkpt>
      <trkpt lat="42.395172" lon="-7.728035">
        <time>2021-11-27T12:38:19Z</time>
      </trkpt>
      <trkpt lat="42.395176" lon="-7.728023">
        <time>2021-11-27T12:38:20Z</time>
      </trkpt>
      <trkpt lat="42.395184" lon="-7.7280097">
        <time>2021-11-27T12:38:21Z</time>
      </trkpt>
      <trkpt lat="42.39519" lon="-7.727995">
        <time>2021-11-27T12:38:22Z</time>
      </trkpt>
      <trkpt lat="42.3952" lon="-7.7279816">
        <time>2021-11-27T12:38:23Z</time>
      </trkpt>
      <trkpt lat="42.395206" lon="-7.727968">
        <time>2021-11-27T12:38:24Z</time>
      </trkpt>
      <trkpt lat="42.395214" lon="-7.7279553">
        <time>2021-11-27T12:38:25Z</time>
      </trkpt>
      <trkpt lat="42.39522" lon="-7.7279463">
        <time>2021-11-27T12:38:26Z</time>
      </trkpt>
      <trkpt lat="42.395226" lon="-7.7279387">
        <time>2021-11-27T12:38:27Z</time>
      </trkpt>
      <trkpt lat="42.395233" lon="-7.7279315">
        <time>2021-11-27T12:38:28Z</time>
      </trkpt>
      <trkpt lat="42.395237" lon="-7.7279253">
        <time>2021-11-27T12:38:29Z</time>
      </trkpt>
      <trkpt lat="42.395245" lon="-7.7279186">
        <time>2021-11-27T12:38:29Z</time>
      </trkpt>
      <trkpt lat="42.395252" lon="-7.7279124">
        <time>2021-11-27T12:38:30Z</time>
      </trkpt>
      <trkpt lat="42.39526" lon="-7.7279053">
        <time>2021-11-27T12:38:31Z</time>
      </trkpt>
      <trkpt lat="42.395267" lon="-7.7278957">
        <time>2021-11-27T12:38:32Z</time>
      </trkpt>
      <trkpt lat="42.395275" lon="-7.7278867">
        <time>2021-11-27T12:38:33Z</time>
      </trkpt>
      <trkpt lat="42.395283" lon="-7.7278786">
        <time>2021-11-27T12:38:34Z</time>
      </trkpt>
      <trkpt lat="42.395294" lon="-7.727871">
        <time>2021-11-27T12:38:35Z</time>
      </trkpt>
      <trkpt lat="42.395306" lon="-7.7278624">
        <time>2021-11-27T12:38:36Z</time>
      </trkpt>
      <trkpt lat="42.395313" lon="-7.7278533">
        <time>2021-11-27T12:38:37Z</time>
      </trkpt>
      <trkpt lat="42.395317" lon="-7.727845">
        <time>2021-11-27T12:38:38Z</time>
      </trkpt>
      <trkpt lat="42.395325" lon="-7.727838">
        <time>2021-11-27T12:38:39Z</time>
      </trkpt>
      <trkpt lat="42.395332" lon="-7.727833">
        <time>2021-11-27T12:38:40Z</time>
      </trkpt>
      <trkpt lat="42.39534" lon="-7.72783">
        <time>2021-11-27T12:38:41Z</time>
      </trkpt>
      <trkpt lat="42.395348" lon="-7.727826">
        <time>2021-11-27T12:38:42Z</time>
      </trkpt>
      <trkpt lat="42.395355" lon="-7.727823">
        <time>2021-11-27T12:38:43Z</time>
      </trkpt>
      <trkpt lat="42.395363" lon="-7.7278204">
        <time>2021-11-27T12:38:44Z</time>
      </trkpt>
      <trkpt lat="42.395374" lon="-7.727816">
        <time>2021-11-27T12:38:45Z</time>
      </trkpt>
      <trkpt lat="42.395382" lon="-7.7278132">
        <time>2021-11-27T12:38:46Z</time>
      </trkpt>
      <trkpt lat="42.395393" lon="-7.72781">
        <time>2021-11-27T12:38:47Z</time>
      </trkpt>
      <trkpt lat="42.3954" lon="-7.7278066">
        <time>2021-11-27T12:38:48Z</time>
      </trkpt>
      <trkpt lat="42.39541" lon="-7.727804">
        <time>2021-11-27T12:38:49Z</time>
      </trkpt>
      <trkpt lat="42.395416" lon="-7.727801">
        <time>2021-11-27T12:38:50Z</time>
      </trkpt>
      <trkpt lat="42.395428" lon="-7.7277985">
        <time>2021-11-27T12:38:51Z</time>
      </trkpt>
      <trkpt lat="42.395435" lon="-7.727796">
        <time>2021-11-27T12:38:52Z</time>
      </trkpt>
      <trkpt lat="42.395443" lon="-7.7277927">
        <time>2021-11-27T12:38:53Z</time>
      </trkpt>
      <trkpt lat="42.39545" lon="-7.7277913">
        <time>2021-11-27T12:38:54Z</time>
      </trkpt>
      <trkpt lat="42.39546" lon="-7.72779">
        <time>2021-11-27T12:38:55Z</time>
      </trkpt>
      <trkpt lat="42.395466" lon="-7.72779">
        <time>2021-11-27T12:38:56Z</time>
      </trkpt>
      <trkpt lat="42.395477" lon="-7.72779">
        <time>2021-11-27T12:38:57Z</time>
      </trkpt>
      <trkpt lat="42.395485" lon="-7.727789">
        <time>2021-11-27T12:38:58Z</time>
      </trkpt>
      <trkpt lat="42.395493" lon="-7.727787">
        <time>2021-11-27T12:38:59Z</time>
      </trkpt>
      <trkpt lat="42.3955" lon="-7.7277856">
        <time>2021-11-27T12:39:00Z</time>
      </trkpt>
      <trkpt lat="42.39551" lon="-7.727784">
        <time>2021-11-27T12:39:01Z</time>
      </trkpt>
      <trkpt lat="42.39552" lon="-7.7277822">
        <time>2021-11-27T12:39:02Z</time>
      </trkpt>
      <trkpt lat="42.395523" lon="-7.72778">
        <time>2021-11-27T12:39:03Z</time>
      </trkpt>
      <trkpt lat="42.395527" lon="-7.7277775">
        <time>2021-11-27T12:39:04Z</time>
      </trkpt>
      <trkpt lat="42.395535" lon="-7.7277737">
        <time>2021-11-27T12:39:05Z</time>
      </trkpt>
      <trkpt lat="42.395542" lon="-7.7277727">
        <time>2021-11-27T12:39:06Z</time>
      </trkpt>
      <trkpt lat="42.39555" lon="-7.727774">
        <time>2021-11-27T12:39:07Z</time>
      </trkpt>
      <trkpt lat="42.395557" lon="-7.727776">
        <time>2021-11-27T12:39:08Z</time>
      </trkpt>
      <trkpt lat="42.395565" lon="-7.727776">
        <time>2021-11-27T12:39:09Z</time>
      </trkpt>
      <trkpt lat="42.395573" lon="-7.7277765">
        <time>2021-11-27T12:39:10Z</time>
      </trkpt>
      <trkpt lat="42.39558" lon="-7.7277746">
        <time>2021-11-27T12:39:11Z</time>
      </trkpt>
      <trkpt lat="42.39559" lon="-7.727772">
        <time>2021-11-27T12:39:12Z</time>
      </trkpt>
      <trkpt lat="42.3956" lon="-7.7277694">
        <time>2021-11-27T12:39:13Z</time>
      </trkpt>
      <trkpt lat="42.39561" lon="-7.7277684">
        <time>2021-11-27T12:39:14Z</time>
      </trkpt>
      <trkpt lat="42.39562" lon="-7.727767">
        <time>2021-11-27T12:39:15Z</time>
      </trkpt>
      <trkpt lat="42.395626" lon="-7.727767">
        <time>2021-11-27T12:39:16Z</time>
      </trkpt>
      <trkpt lat="42.395638" lon="-7.7277665">
        <time>2021-11-27T12:39:17Z</time>
      </trkpt>
      <trkpt lat="42.395645" lon="-7.7277675">
        <time>2021-11-27T12:39:18Z</time>
      </trkpt>
      <trkpt lat="42.395657" lon="-7.7277703">
        <time>2021-11-27T12:39:19Z</time>
      </trkpt>
      <trkpt lat="42.395664" lon="-7.727772">
        <time>2021-11-27T12:39:20Z</time>
      </trkpt>
      <trkpt lat="42.39567" lon="-7.7277746">
        <time>2021-11-27T12:39:21Z</time>
      </trkpt>
      <trkpt lat="42.39568" lon="-7.727778">
        <time>2021-11-27T12:39:22Z</time>
      </trkpt>
      <trkpt lat="42.395687" lon="-7.727783">
        <time>2021-11-27T12:39:23Z</time>
      </trkpt>
      <trkpt lat="42.3957" lon="-7.727788">
        <time>2021-11-27T12:39:24Z</time>
      </trkpt>
      <trkpt lat="42.39571" lon="-7.7277927">
        <time>2021-11-27T12:39:25Z</time>
      </trkpt>
      <trkpt lat="42.39572" lon="-7.727797">
        <time>2021-11-27T12:39:26Z</time>
      </trkpt>
      <trkpt lat="42.395733" lon="-7.7278023">
        <time>2021-11-27T12:39:27Z</time>
      </trkpt>
      <trkpt lat="42.395744" lon="-7.7278075">
        <time>2021-11-27T12:39:28Z</time>
      </trkpt>
      <trkpt lat="42.395756" lon="-7.727812">
        <time>2021-11-27T12:39:29Z</time>
      </trkpt>
      <trkpt lat="42.395767" lon="-7.727814">
        <time>2021-11-27T12:39:30Z</time>
      </trkpt>
      <trkpt lat="42.39578" lon="-7.727818">
        <time>2021-11-27T12:39:31Z</time>
      </trkpt>
      <trkpt lat="42.39579" lon="-7.7278214">
        <time>2021-11-27T12:39:32Z</time>
      </trkpt>
      <trkpt lat="42.395798" lon="-7.727824">
        <time>2021-11-27T12:39:33Z</time>
      </trkpt>
      <trkpt lat="42.39581" lon="-7.727824">
        <time>2021-11-27T12:39:34Z</time>
      </trkpt>
      <trkpt lat="42.39582" lon="-7.727826">
        <time>2021-11-27T12:39:35Z</time>
      </trkpt>
      <trkpt lat="42.39583" lon="-7.727828">
        <time>2021-11-27T12:39:36Z</time>
      </trkpt>
      <trkpt lat="42.39584" lon="-7.7278304">
        <time>2021-11-27T12:39:37Z</time>
      </trkpt>
      <trkpt lat="42.39585" lon="-7.727833">
        <time>2021-11-27T12:39:38Z</time>
      </trkpt>
      <trkpt lat="42.39586" lon="-7.7278347">
        <time>2021-11-27T12:39:39Z</time>
      </trkpt>
      <trkpt lat="42.395866" lon="-7.727836">
        <time>2021-11-27T12:39:40Z</time>
      </trkpt>
      <trkpt lat="42.395878" lon="-7.7278385">
        <time>2021-11-27T12:39:41Z</time>
      </trkpt>
      <trkpt lat="42.39589" lon="-7.7278423">
        <time>2021-11-27T12:39:42Z</time>
      </trkpt>
      <trkpt lat="42.395897" lon="-7.7278457">
        <time>2021-11-27T12:39:43Z</time>
      </trkpt>
      <trkpt lat="42.39591" lon="-7.7278495">
        <time>2021-11-27T12:39:44Z</time>
      </trkpt>
      <trkpt lat="42.395916" lon="-7.727853">
        <time>2021-11-27T12:39:45Z</time>
      </trkpt>
      <trkpt lat="42.395924" lon="-7.7278547">
        <time>2021-11-27T12:39:46Z</time>
      </trkpt>
      <trkpt lat="42.39593" lon="-7.727857">
        <time>2021-11-27T12:39:47Z</time>
      </trkpt>
      <trkpt lat="42.39594" lon="-7.72786">
        <time>2021-11-27T12:39:48Z</time>
      </trkpt>
      <trkpt lat="42.395947" lon="-7.7278624">
        <time>2021-11-27T12:39:49Z</time>
      </trkpt>
      <trkpt lat="42.395958" lon="-7.7278657">
        <time>2021-11-27T12:39:50Z</time>
      </trkpt>
      <trkpt lat="42.39597" lon="-7.72787">
        <time>2021-11-27T12:39:51Z</time>
      </trkpt>
      <trkpt lat="42.39598" lon="-7.7278748">
        <time>2021-11-27T12:39:52Z</time>
      </trkpt>
      <trkpt lat="42.395992" lon="-7.727879">
        <time>2021-11-27T12:39:53Z</time>
      </trkpt>
      <trkpt lat="42.396004" lon="-7.727886">
        <time>2021-11-27T12:39:54Z</time>
      </trkpt>
      <trkpt lat="42.396015" lon="-7.7278924">
        <time>2021-11-27T12:39:55Z</time>
      </trkpt>
      <trkpt lat="42.396027" lon="-7.727898">
        <time>2021-11-27T12:39:56Z</time>
      </trkpt>
      <trkpt lat="42.396038" lon="-7.727905">
        <time>2021-11-27T12:39:57Z</time>
      </trkpt>
      <trkpt lat="42.396046" lon="-7.727911">
        <time>2021-11-27T12:39:58Z</time>
      </trkpt>
      <trkpt lat="42.396057" lon="-7.7279153">
        <time>2021-11-27T12:39:59Z</time>
      </trkpt>
      <trkpt lat="42.39607" lon="-7.7279196">
        <time>2021-11-27T12:40:00Z</time>
      </trkpt>
      <trkpt lat="42.396076" lon="-7.7279215">
        <time>2021-11-27T12:40:01Z</time>
      </trkpt>
      <trkpt lat="42.396088" lon="-7.7279234">
        <time>2021-11-27T12:40:02Z</time>
      </trkpt>
      <trkpt lat="42.3961" lon="-7.7279234">
        <time>2021-11-27T12:40:03Z</time>
      </trkpt>
      <trkpt lat="42.39611" lon="-7.7279234">
        <time>2021-11-27T12:40:04Z</time>
      </trkpt>
      <trkpt lat="42.39612" lon="-7.727922">
        <time>2021-11-27T12:40:05Z</time>
      </trkpt>
      <trkpt lat="42.396126" lon="-7.72792">
        <time>2021-11-27T12:40:06Z</time>
      </trkpt>
      <trkpt lat="42.39614" lon="-7.7279186">
        <time>2021-11-27T12:40:07Z</time>
      </trkpt>
      <trkpt lat="42.39615" lon="-7.727918">
        <time>2021-11-27T12:40:08Z</time>
      </trkpt>
      <trkpt lat="42.39616" lon="-7.7279162">
        <time>2021-11-27T12:40:09Z</time>
      </trkpt>
      <trkpt lat="42.39617" lon="-7.7279143">
        <time>2021-11-27T12:40:10Z</time>
      </trkpt>
      <trkpt lat="42.396187" lon="-7.727911">
        <time>2021-11-27T12:40:11Z</time>
      </trkpt>
      <trkpt lat="42.3962" lon="-7.7279077">
        <time>2021-11-27T12:40:12Z</time>
      </trkpt>
      <trkpt lat="42.39621" lon="-7.727904">
        <time>2021-11-27T12:40:13Z</time>
      </trkpt>
      <trkpt lat="42.39622" lon="-7.727901">
        <time>2021-11-27T12:40:14Z</time>
      </trkpt>
      <trkpt lat="42.396233" lon="-7.727897">
        <time>2021-11-27T12:40:15Z</time>
      </trkpt>
      <trkpt lat="42.39624" lon="-7.7278953">
        <time>2021-11-27T12:40:16Z</time>
      </trkpt>
      <trkpt lat="42.39625" lon="-7.727894">
        <time>2021-11-27T12:40:17Z</time>
      </trkpt>
      <trkpt lat="42.396263" lon="-7.727889">
        <time>2021-11-27T12:40:18Z</time>
      </trkpt>
      <trkpt lat="42.39628" lon="-7.7278833">
        <time>2021-11-27T12:40:19Z</time>
      </trkpt>
      <trkpt lat="42.39629" lon="-7.7278786">
        <time>2021-11-27T12:40:20Z</time>
      </trkpt>
      <trkpt lat="42.3963" lon="-7.7278733">
        <time>2021-11-27T12:40:21Z</time>
      </trkpt>
      <trkpt lat="42.396313" lon="-7.727869">
        <time>2021-11-27T12:40:22Z</time>
      </trkpt>
      <trkpt lat="42.396324" lon="-7.727863">
        <time>2021-11-27T12:40:23Z</time>
      </trkpt>
      <trkpt lat="42.396336" lon="-7.727858">
        <time>2021-11-27T12:40:24Z</time>
      </trkpt>
      <trkpt lat="42.39635" lon="-7.7278543">
        <time>2021-11-27T12:40:25Z</time>
      </trkpt>
      <trkpt lat="42.39636" lon="-7.7278514">
        <time>2021-11-27T12:40:26Z</time>
      </trkpt>
      <trkpt lat="42.396374" lon="-7.727849">
        <time>2021-11-27T12:40:27Z</time>
      </trkpt>
      <trkpt lat="42.396385" lon="-7.7278457">
        <time>2021-11-27T12:40:28Z</time>
      </trkpt>
      <trkpt lat="42.396397" lon="-7.7278414">
        <time>2021-11-27T12:40:29Z</time>
      </trkpt>
      <trkpt lat="42.396408" lon="-7.7278357">
        <time>2021-11-27T12:40:30Z</time>
      </trkpt>
      <trkpt lat="42.396416" lon="-7.727829">
        <time>2021-11-27T12:40:31Z</time>
      </trkpt>
      <trkpt lat="42.396423" lon="-7.727824">
        <time>2021-11-27T12:40:32Z</time>
      </trkpt>
      <trkpt lat="42.396435" lon="-7.7278194">
        <time>2021-11-27T12:40:33Z</time>
      </trkpt>
      <trkpt lat="42.396442" lon="-7.727814">
        <time>2021-11-27T12:40:34Z</time>
      </trkpt>
      <trkpt lat="42.396454" lon="-7.7278075">
        <time>2021-11-27T12:40:35Z</time>
      </trkpt>
      <trkpt lat="42.396465" lon="-7.7278">
        <time>2021-11-27T12:40:36Z</time>
      </trkpt>
      <trkpt lat="42.39648" lon="-7.7277913">
        <time>2021-11-27T12:40:37Z</time>
      </trkpt>
      <trkpt lat="42.396492" lon="-7.727785">
        <time>2021-11-27T12:40:38Z</time>
      </trkpt>
      <trkpt lat="42.3965" lon="-7.727776">
        <time>2021-11-27T12:40:39Z</time>
      </trkpt>
      <trkpt lat="42.396515" lon="-7.727765">
        <time>2021-11-27T12:40:40Z</time>
      </trkpt>
      <trkpt lat="42.396523" lon="-7.727755">
        <time>2021-11-27T12:40:41Z</time>
      </trkpt>
      <trkpt lat="42.396538" lon="-7.727743">
        <time>2021-11-27T12:40:42Z</time>
      </trkpt>
      <trkpt lat="42.396545" lon="-7.727731">
        <time>2021-11-27T12:40:43Z</time>
      </trkpt>
      <trkpt lat="42.39656" lon="-7.727717">
        <time>2021-11-27T12:40:44Z</time>
      </trkpt>
      <trkpt lat="42.39657" lon="-7.7277007">
        <time>2021-11-27T12:40:45Z</time>
      </trkpt>
      <trkpt lat="42.396576" lon="-7.7276826">
        <time>2021-11-27T12:40:46Z</time>
      </trkpt>
      <trkpt lat="42.396584" lon="-7.7276645">
        <time>2021-11-27T12:40:47Z</time>
      </trkpt>
      <trkpt lat="42.39659" lon="-7.727649">
        <time>2021-11-27T12:40:48Z</time>
      </trkpt>
      <trkpt lat="42.396603" lon="-7.7276363">
        <time>2021-11-27T12:40:49Z</time>
      </trkpt>
      <trkpt lat="42.396614" lon="-7.7276225">
        <time>2021-11-27T12:40:50Z</time>
      </trkpt>
      <trkpt lat="42.39662" lon="-7.7276096">
        <time>2021-11-27T12:40:51Z</time>
      </trkpt>
      <trkpt lat="42.39663" lon="-7.7275934">
        <time>2021-11-27T12:40:53Z</time>
      </trkpt>
      <trkpt lat="42.39664" lon="-7.727581">
        <time>2021-11-27T12:40:53Z</time>
      </trkpt>
      <trkpt lat="42.396652" lon="-7.727567">
        <time>2021-11-27T12:40:54Z</time>
      </trkpt>
      <trkpt lat="42.396664" lon="-7.7275496">
        <time>2021-11-27T12:40:55Z</time>
      </trkpt>
      <trkpt lat="42.39667" lon="-7.727531">
        <time>2021-11-27T12:40:56Z</time>
      </trkpt>
      <trkpt lat="42.39668" lon="-7.727513">
        <time>2021-11-27T12:40:57Z</time>
      </trkpt>
      <trkpt lat="42.396687" lon="-7.7274976">
        <time>2021-11-27T12:40:58Z</time>
      </trkpt>
      <trkpt lat="42.39669" lon="-7.7274823">
        <time>2021-11-27T12:40:59Z</time>
      </trkpt>
      <trkpt lat="42.3967" lon="-7.727467">
        <time>2021-11-27T12:41:00Z</time>
      </trkpt>
      <trkpt lat="42.39671" lon="-7.727453">
        <time>2021-11-27T12:41:01Z</time>
      </trkpt>
      <trkpt lat="42.396717" lon="-7.727441">
        <time>2021-11-27T12:41:02Z</time>
      </trkpt>
      <trkpt lat="42.39673" lon="-7.7274303">
        <time>2021-11-27T12:41:03Z</time>
      </trkpt>
      <trkpt lat="42.39674" lon="-7.7274194">
        <time>2021-11-27T12:41:04Z</time>
      </trkpt>
      <trkpt lat="42.396748" lon="-7.7274084">
        <time>2021-11-27T12:41:05Z</time>
      </trkpt>
      <trkpt lat="42.39676" lon="-7.7274">
        <time>2021-11-27T12:41:06Z</time>
      </trkpt>
      <trkpt lat="42.39677" lon="-7.727392">
        <time>2021-11-27T12:41:07Z</time>
      </trkpt>
      <trkpt lat="42.39678" lon="-7.727385">
        <time>2021-11-27T12:41:08Z</time>
      </trkpt>
      <trkpt lat="42.39679" lon="-7.7273746">
        <time>2021-11-27T12:41:09Z</time>
      </trkpt>
      <trkpt lat="42.396797" lon="-7.727364">
        <time>2021-11-27T12:41:10Z</time>
      </trkpt>
      <trkpt lat="42.396805" lon="-7.727354">
        <time>2021-11-27T12:41:11Z</time>
      </trkpt>
      <trkpt lat="42.396812" lon="-7.7273426">
        <time>2021-11-27T12:41:12Z</time>
      </trkpt>
      <trkpt lat="42.39682" lon="-7.7273293">
        <time>2021-11-27T12:41:13Z</time>
      </trkpt>
      <trkpt lat="42.396828" lon="-7.7273164">
        <time>2021-11-27T12:41:14Z</time>
      </trkpt>
      <trkpt lat="42.396835" lon="-7.7273045">
        <time>2021-11-27T12:41:15Z</time>
      </trkpt>
      <trkpt lat="42.396843" lon="-7.727291">
        <time>2021-11-27T12:41:16Z</time>
      </trkpt>
      <trkpt lat="42.396847" lon="-7.7272773">
        <time>2021-11-27T12:41:17Z</time>
      </trkpt>
      <trkpt lat="42.39686" lon="-7.7272615">
        <time>2021-11-27T12:41:18Z</time>
      </trkpt>
      <trkpt lat="42.396862" lon="-7.7272468">
        <time>2021-11-27T12:41:19Z</time>
      </trkpt>
      <trkpt lat="42.396866" lon="-7.7272325">
        <time>2021-11-27T12:41:20Z</time>
      </trkpt>
      <trkpt lat="42.396873" lon="-7.727217">
        <time>2021-11-27T12:41:21Z</time>
      </trkpt>
      <trkpt lat="42.396877" lon="-7.7272034">
        <time>2021-11-27T12:41:22Z</time>
      </trkpt>
      <trkpt lat="42.396885" lon="-7.727191">
        <time>2021-11-27T12:41:23Z</time>
      </trkpt>
      <trkpt lat="42.396893" lon="-7.7271757">
        <time>2021-11-27T12:41:24Z</time>
      </trkpt>
      <trkpt lat="42.396896" lon="-7.7271605">
        <time>2021-11-27T12:41:25Z</time>
      </trkpt>
      <trkpt lat="42.396896" lon="-7.727144">
        <time>2021-11-27T12:41:26Z</time>
      </trkpt>
      <trkpt lat="42.396904" lon="-7.7271276">
        <time>2021-11-27T12:41:27Z</time>
      </trkpt>
      <trkpt lat="42.396904" lon="-7.727113">
        <time>2021-11-27T12:41:28Z</time>
      </trkpt>
      <trkpt lat="42.396908" lon="-7.727097">
        <time>2021-11-27T12:41:29Z</time>
      </trkpt>
      <trkpt lat="42.39691" lon="-7.7270803">
        <time>2021-11-27T12:41:30Z</time>
      </trkpt>
      <trkpt lat="42.396915" lon="-7.7270617">
        <time>2021-11-27T12:41:31Z</time>
      </trkpt>
      <trkpt lat="42.39692" lon="-7.7270417">
        <time>2021-11-27T12:41:32Z</time>
      </trkpt>
      <trkpt lat="42.39692" lon="-7.727021">
        <time>2021-11-27T12:41:33Z</time>
      </trkpt>
      <trkpt lat="42.39692" lon="-7.7270017">
        <time>2021-11-27T12:41:34Z</time>
      </trkpt>
      <trkpt lat="42.39692" lon="-7.726985">
        <time>2021-11-27T12:41:35Z</time>
      </trkpt>
      <trkpt lat="42.396923" lon="-7.7269664">
        <time>2021-11-27T12:41:36Z</time>
      </trkpt>
      <trkpt lat="42.396923" lon="-7.726948">
        <time>2021-11-27T12:41:37Z</time>
      </trkpt>
      <trkpt lat="42.396923" lon="-7.72693">
        <time>2021-11-27T12:41:38Z</time>
      </trkpt>
      <trkpt lat="42.396927" lon="-7.7269125">
        <time>2021-11-27T12:41:39Z</time>
      </trkpt>
      <trkpt lat="42.396927" lon="-7.7268953">
        <time>2021-11-27T12:41:40Z</time>
      </trkpt>
      <trkpt lat="42.39693" lon="-7.7268767">
        <time>2021-11-27T12:41:41Z</time>
      </trkpt>
      <trkpt lat="42.396935" lon="-7.726857">
        <time>2021-11-27T12:41:42Z</time>
      </trkpt>
      <trkpt lat="42.39694" lon="-7.726837">
        <time>2021-11-27T12:41:43Z</time>
      </trkpt>
      <trkpt lat="42.396942" lon="-7.7268186">
        <time>2021-11-27T12:41:44Z</time>
      </trkpt>
      <trkpt lat="42.396946" lon="-7.7268">
        <time>2021-11-27T12:41:45Z</time>
      </trkpt>
      <trkpt lat="42.39695" lon="-7.726782">
        <time>2021-11-27T12:41:46Z</time>
      </trkpt>
      <trkpt lat="42.39695" lon="-7.7267656">
        <time>2021-11-27T12:41:47Z</time>
      </trkpt>
      <trkpt lat="42.396957" lon="-7.726749">
        <time>2021-11-27T12:41:48Z</time>
      </trkpt>
      <trkpt lat="42.39696" lon="-7.7267313">
        <time>2021-11-27T12:41:49Z</time>
      </trkpt>
      <trkpt lat="42.39697" lon="-7.726712">
        <time>2021-11-27T12:41:50Z</time>
      </trkpt>
      <trkpt lat="42.396973" lon="-7.7266936">
        <time>2021-11-27T12:41:51Z</time>
      </trkpt>
      <trkpt lat="42.396976" lon="-7.726676">
        <time>2021-11-27T12:41:52Z</time>
      </trkpt>
      <trkpt lat="42.396976" lon="-7.726658">
        <time>2021-11-27T12:41:53Z</time>
      </trkpt>
      <trkpt lat="42.39698" lon="-7.7266393">
        <time>2021-11-27T12:41:54Z</time>
      </trkpt>
      <trkpt lat="42.39698" lon="-7.7266207">
        <time>2021-11-27T12:41:55Z</time>
      </trkpt>
      <trkpt lat="42.396988" lon="-7.726603">
        <time>2021-11-27T12:41:56Z</time>
      </trkpt>
      <trkpt lat="42.396996" lon="-7.7265854">
        <time>2021-11-27T12:41:57Z</time>
      </trkpt>
      <trkpt lat="42.396996" lon="-7.7265677">
        <time>2021-11-27T12:41:58Z</time>
      </trkpt>
      <trkpt lat="42.397003" lon="-7.7265506">
        <time>2021-11-27T12:41:59Z</time>
      </trkpt>
      <trkpt lat="42.397003" lon="-7.726534">
        <time>2021-11-27T12:42:00Z</time>
      </trkpt>
      <trkpt lat="42.39701" lon="-7.726516">
        <time>2021-11-27T12:42:01Z</time>
      </trkpt>
      <trkpt lat="42.397015" lon="-7.726498">
        <time>2021-11-27T12:42:02Z</time>
      </trkpt>
      <trkpt lat="42.39702" lon="-7.7264805">
        <time>2021-11-27T12:42:03Z</time>
      </trkpt>
      <trkpt lat="42.397022" lon="-7.726464">
        <time>2021-11-27T12:42:04Z</time>
      </trkpt>
      <trkpt lat="42.397026" lon="-7.7264466">
        <time>2021-11-27T12:42:05Z</time>
      </trkpt>
      <trkpt lat="42.39703" lon="-7.7264295">
        <time>2021-11-27T12:42:06Z</time>
      </trkpt>
      <trkpt lat="42.397034" lon="-7.726413">
        <time>2021-11-27T12:42:07Z</time>
      </trkpt>
      <trkpt lat="42.397038" lon="-7.7263947">
        <time>2021-11-27T12:42:08Z</time>
      </trkpt>
      <trkpt lat="42.39704" lon="-7.7263756">
        <time>2021-11-27T12:42:09Z</time>
      </trkpt>
      <trkpt lat="42.397045" lon="-7.726357">
        <time>2021-11-27T12:42:10Z</time>
      </trkpt>
      <trkpt lat="42.39705" lon="-7.7263403">
        <time>2021-11-27T12:42:11Z</time>
      </trkpt>
      <trkpt lat="42.397053" lon="-7.726323">
        <time>2021-11-27T12:42:12Z</time>
      </trkpt>
      <trkpt lat="42.397053" lon="-7.7263074">
        <time>2021-11-27T12:42:13Z</time>
      </trkpt>
      <trkpt lat="42.39706" lon="-7.726291">
        <time>2021-11-27T12:42:14Z</time>
      </trkpt>
      <trkpt lat="42.39706" lon="-7.726275">
        <time>2021-11-27T12:42:15Z</time>
      </trkpt>
      <trkpt lat="42.397068" lon="-7.7262607">
        <time>2021-11-27T12:42:16Z</time>
      </trkpt>
      <trkpt lat="42.39707" lon="-7.726246">
        <time>2021-11-27T12:42:17Z</time>
      </trkpt>
      <trkpt lat="42.397076" lon="-7.726231">
        <time>2021-11-27T12:42:18Z</time>
      </trkpt>
      <trkpt lat="42.397083" lon="-7.7262163">
        <time>2021-11-27T12:42:19Z</time>
      </trkpt>
      <trkpt lat="42.39709" lon="-7.7262015">
        <time>2021-11-27T12:42:20Z</time>
      </trkpt>
      <trkpt lat="42.3971" lon="-7.726188">
        <time>2021-11-27T12:42:21Z</time>
      </trkpt>
      <trkpt lat="42.397106" lon="-7.726174">
        <time>2021-11-27T12:42:22Z</time>
      </trkpt>
      <trkpt lat="42.397114" lon="-7.7261596">
        <time>2021-11-27T12:42:23Z</time>
      </trkpt>
      <trkpt lat="42.39712" lon="-7.7261453">
        <time>2021-11-27T12:42:24Z</time>
      </trkpt>
      <trkpt lat="42.39713" lon="-7.7261324">
        <time>2021-11-27T12:42:25Z</time>
      </trkpt>
      <trkpt lat="42.397137" lon="-7.7261195">
        <time>2021-11-27T12:42:26Z</time>
      </trkpt>
      <trkpt lat="42.397144" lon="-7.726106">
        <time>2021-11-27T12:42:27Z</time>
      </trkpt>
      <trkpt lat="42.397152" lon="-7.726093">
        <time>2021-11-27T12:42:28Z</time>
      </trkpt>
      <trkpt lat="42.39716" lon="-7.7260804">
        <time>2021-11-27T12:42:29Z</time>
      </trkpt>
      <trkpt lat="42.39717" lon="-7.72607">
        <time>2021-11-27T12:42:30Z</time>
      </trkpt>
      <trkpt lat="42.39718" lon="-7.726058">
        <time>2021-11-27T12:42:31Z</time>
      </trkpt>
      <trkpt lat="42.39719" lon="-7.726048">
        <time>2021-11-27T12:42:32Z</time>
      </trkpt>
      <trkpt lat="42.397198" lon="-7.726039">
        <time>2021-11-27T12:42:33Z</time>
      </trkpt>
      <trkpt lat="42.397205" lon="-7.7260294">
        <time>2021-11-27T12:42:34Z</time>
      </trkpt>
      <trkpt lat="42.397213" lon="-7.7260184">
        <time>2021-11-27T12:42:35Z</time>
      </trkpt>
      <trkpt lat="42.39722" lon="-7.726009">
        <time>2021-11-27T12:42:36Z</time>
      </trkpt>
      <trkpt lat="42.39723" lon="-7.7260017">
        <time>2021-11-27T12:42:37Z</time>
      </trkpt>
      <trkpt lat="42.39724" lon="-7.725999">
        <time>2021-11-27T12:42:38Z</time>
      </trkpt>
      <trkpt lat="42.39725" lon="-7.725994">
        <time>2021-11-27T12:42:39Z</time>
      </trkpt>
      <trkpt lat="42.397263" lon="-7.7259903">
        <time>2021-11-27T12:42:40Z</time>
      </trkpt>
      <trkpt lat="42.39727" lon="-7.725986">
        <time>2021-11-27T12:42:41Z</time>
      </trkpt>
      <trkpt lat="42.39728" lon="-7.7259808">
        <time>2021-11-27T12:42:42Z</time>
      </trkpt>
      <trkpt lat="42.397293" lon="-7.725973">
        <time>2021-11-27T12:42:43Z</time>
      </trkpt>
      <trkpt lat="42.3973" lon="-7.725965">
        <time>2021-11-27T12:42:44Z</time>
      </trkpt>
      <trkpt lat="42.397312" lon="-7.7259545">
        <time>2021-11-27T12:42:44Z</time>
      </trkpt>
      <trkpt lat="42.39732" lon="-7.7259426">
        <time>2021-11-27T12:42:45Z</time>
      </trkpt>
      <trkpt lat="42.397327" lon="-7.725929">
        <time>2021-11-27T12:42:46Z</time>
      </trkpt>
      <trkpt lat="42.39734" lon="-7.7259164">
        <time>2021-11-27T12:42:47Z</time>
      </trkpt>
      <trkpt lat="42.397346" lon="-7.725904">
        <time>2021-11-27T12:42:48Z</time>
      </trkpt>
      <trkpt lat="42.39736" lon="-7.725894">
        <time>2021-11-27T12:42:49Z</time>
      </trkpt>
      <trkpt lat="42.397377" lon="-7.7258816">
        <time>2021-11-27T12:42:50Z</time>
      </trkpt>
      <trkpt lat="42.39739" lon="-7.725868">
        <time>2021-11-27T12:42:51Z</time>
      </trkpt>
      <trkpt lat="42.3974" lon="-7.7258534">
        <time>2021-11-27T12:42:52Z</time>
      </trkpt>
      <trkpt lat="42.39741" lon="-7.725841">
        <time>2021-11-27T12:42:53Z</time>
      </trkpt>
      <trkpt lat="42.397423" lon="-7.725827">
        <time>2021-11-27T12:42:54Z</time>
      </trkpt>
      <trkpt lat="42.397438" lon="-7.725812">
        <time>2021-11-27T12:42:55Z</time>
      </trkpt>
      <trkpt lat="42.397446" lon="-7.7257957">
        <time>2021-11-27T12:42:56Z</time>
      </trkpt>
      <trkpt lat="42.397457" lon="-7.725778">
        <time>2021-11-27T12:42:57Z</time>
      </trkpt>
      <trkpt lat="42.397465" lon="-7.725758">
        <time>2021-11-27T12:42:58Z</time>
      </trkpt>
      <trkpt lat="42.397472" lon="-7.7257395">
        <time>2021-11-27T12:42:59Z</time>
      </trkpt>
      <trkpt lat="42.39748" lon="-7.7257223">
        <time>2021-11-27T12:43:00Z</time>
      </trkpt>
      <trkpt lat="42.397488" lon="-7.725705">
        <time>2021-11-27T12:43:01Z</time>
      </trkpt>
      <trkpt lat="42.39749" lon="-7.725689">
        <time>2021-11-27T12:43:02Z</time>
      </trkpt>
      <trkpt lat="42.3975" lon="-7.725674">
        <time>2021-11-27T12:43:03Z</time>
      </trkpt>
      <trkpt lat="42.397507" lon="-7.7256603">
        <time>2021-11-27T12:43:04Z</time>
      </trkpt>
      <trkpt lat="42.397514" lon="-7.7256446">
        <time>2021-11-27T12:43:05Z</time>
      </trkpt>
      <trkpt lat="42.397522" lon="-7.725631">
        <time>2021-11-27T12:43:06Z</time>
      </trkpt>
      <trkpt lat="42.39753" lon="-7.7256193">
        <time>2021-11-27T12:43:07Z</time>
      </trkpt>
      <trkpt lat="42.397533" lon="-7.725605">
        <time>2021-11-27T12:43:08Z</time>
      </trkpt>
      <trkpt lat="42.39754" lon="-7.725592">
        <time>2021-11-27T12:43:09Z</time>
      </trkpt>
      <trkpt lat="42.397545" lon="-7.725577">
        <time>2021-11-27T12:43:10Z</time>
      </trkpt>
      <trkpt lat="42.39755" lon="-7.725566">
        <time>2021-11-27T12:43:11Z</time>
      </trkpt>
      <trkpt lat="42.397556" lon="-7.7255545">
        <time>2021-11-27T12:43:12Z</time>
      </trkpt>
      <trkpt lat="42.397564" lon="-7.725541">
        <time>2021-11-27T12:43:13Z</time>
      </trkpt>
      <trkpt lat="42.39757" lon="-7.725528">
        <time>2021-11-27T12:43:14Z</time>
      </trkpt>
      <trkpt lat="42.397583" lon="-7.7255173">
        <time>2021-11-27T12:43:15Z</time>
      </trkpt>
      <trkpt lat="42.397594" lon="-7.725507">
        <time>2021-11-27T12:43:16Z</time>
      </trkpt>
      <trkpt lat="42.397602" lon="-7.7254996">
        <time>2021-11-27T12:43:17Z</time>
      </trkpt>
      <trkpt lat="42.39761" lon="-7.725493">
        <time>2021-11-27T12:43:18Z</time>
      </trkpt>
      <trkpt lat="42.397617" lon="-7.7254834">
        <time>2021-11-27T12:43:19Z</time>
      </trkpt>
      <trkpt lat="42.397625" lon="-7.7254725">
        <time>2021-11-27T12:43:20Z</time>
      </trkpt>
      <trkpt lat="42.39763" lon="-7.725461">
        <time>2021-11-27T12:43:21Z</time>
      </trkpt>
      <trkpt lat="42.397636" lon="-7.72545">
        <time>2021-11-27T12:43:22Z</time>
      </trkpt>
      <trkpt lat="42.39764" lon="-7.725435">
        <time>2021-11-27T12:43:23Z</time>
      </trkpt>
      <trkpt lat="42.397648" lon="-7.725421">
        <time>2021-11-27T12:43:24Z</time>
      </trkpt>
      <trkpt lat="42.39766" lon="-7.725406">
        <time>2021-11-27T12:43:25Z</time>
      </trkpt>
      <trkpt lat="42.397667" lon="-7.7253876">
        <time>2021-11-27T12:43:26Z</time>
      </trkpt>
      <trkpt lat="42.397675" lon="-7.7253685">
        <time>2021-11-27T12:43:27Z</time>
      </trkpt>
      <trkpt lat="42.397682" lon="-7.725351">
        <time>2021-11-27T12:43:28Z</time>
      </trkpt>
      <trkpt lat="42.397686" lon="-7.725335">
        <time>2021-11-27T12:43:29Z</time>
      </trkpt>
      <trkpt lat="42.39769" lon="-7.7253203">
        <time>2021-11-27T12:43:30Z</time>
      </trkpt>
      <trkpt lat="42.39769" lon="-7.725305">
        <time>2021-11-27T12:43:31Z</time>
      </trkpt>
      <trkpt lat="42.397694" lon="-7.7252903">
        <time>2021-11-27T12:43:32Z</time>
      </trkpt>
      <trkpt lat="42.397697" lon="-7.7252736">
        <time>2021-11-27T12:43:33Z</time>
      </trkpt>
      <trkpt lat="42.397697" lon="-7.725259">
        <time>2021-11-27T12:43:34Z</time>
      </trkpt>
      <trkpt lat="42.397705" lon="-7.725243">
        <time>2021-11-27T12:43:35Z</time>
      </trkpt>
      <trkpt lat="42.39771" lon="-7.7252245">
        <time>2021-11-27T12:43:36Z</time>
      </trkpt>
      <trkpt lat="42.397713" lon="-7.7252045">
        <time>2021-11-27T12:43:37Z</time>
      </trkpt>
      <trkpt lat="42.39772" lon="-7.7251854">
        <time>2021-11-27T12:43:38Z</time>
      </trkpt>
      <trkpt lat="42.397724" lon="-7.725167">
        <time>2021-11-27T12:43:39Z</time>
      </trkpt>
      <trkpt lat="42.397728" lon="-7.725147">
        <time>2021-11-27T12:43:40Z</time>
      </trkpt>
      <trkpt lat="42.397728" lon="-7.725128">
        <time>2021-11-27T12:43:41Z</time>
      </trkpt>
      <trkpt lat="42.397728" lon="-7.7251096">
        <time>2021-11-27T12:43:42Z</time>
      </trkpt>
      <trkpt lat="42.397724" lon="-7.7250924">
        <time>2021-11-27T12:43:43Z</time>
      </trkpt>
      <trkpt lat="42.39772" lon="-7.725075">
        <time>2021-11-27T12:43:44Z</time>
      </trkpt>
      <trkpt lat="42.39772" lon="-7.725058">
        <time>2021-11-27T12:43:45Z</time>
      </trkpt>
      <trkpt lat="42.397717" lon="-7.7250404">
        <time>2021-11-27T12:43:46Z</time>
      </trkpt>
      <trkpt lat="42.397717" lon="-7.725024">
        <time>2021-11-27T12:43:47Z</time>
      </trkpt>
      <trkpt lat="42.39772" lon="-7.7250066">
        <time>2021-11-27T12:43:48Z</time>
      </trkpt>
      <trkpt lat="42.39772" lon="-7.7249894">
        <time>2021-11-27T12:43:49Z</time>
      </trkpt>
      <trkpt lat="42.39772" lon="-7.7249713">
        <time>2021-11-27T12:43:50Z</time>
      </trkpt>
      <trkpt lat="42.39772" lon="-7.7249517">
        <time>2021-11-27T12:43:52Z</time>
      </trkpt>
      <trkpt lat="42.39772" lon="-7.7249336">
        <time>2021-11-27T12:43:52Z</time>
      </trkpt>
      <trkpt lat="42.39772" lon="-7.724919">
        <time>2021-11-27T12:43:53Z</time>
      </trkpt>
      <trkpt lat="42.39772" lon="-7.7249045">
        <time>2021-11-27T12:43:54Z</time>
      </trkpt>
      <trkpt lat="42.397724" lon="-7.724889">
        <time>2021-11-27T12:43:55Z</time>
      </trkpt>
      <trkpt lat="42.397724" lon="-7.724872">
        <time>2021-11-27T12:43:56Z</time>
      </trkpt>
      <trkpt lat="42.397724" lon="-7.7248564">
        <time>2021-11-27T12:43:57Z</time>
      </trkpt>
      <trkpt lat="42.397728" lon="-7.724839">
        <time>2021-11-27T12:43:58Z</time>
      </trkpt>
      <trkpt lat="42.397728" lon="-7.7248225">
        <time>2021-11-27T12:43:59Z</time>
      </trkpt>
      <trkpt lat="42.39773" lon="-7.7248063">
        <time>2021-11-27T12:44:00Z</time>
      </trkpt>
      <trkpt lat="42.397736" lon="-7.724791">
        <time>2021-11-27T12:44:01Z</time>
      </trkpt>
      <trkpt lat="42.39774" lon="-7.7247763">
        <time>2021-11-27T12:44:02Z</time>
      </trkpt>
      <trkpt lat="42.397743" lon="-7.724763">
        <time>2021-11-27T12:44:03Z</time>
      </trkpt>
      <trkpt lat="42.39775" lon="-7.7247486">
        <time>2021-11-27T12:44:04Z</time>
      </trkpt>
      <trkpt lat="42.39776" lon="-7.7247343">
        <time>2021-11-27T12:44:05Z</time>
      </trkpt>
      <trkpt lat="42.397766" lon="-7.7247186">
        <time>2021-11-27T12:44:06Z</time>
      </trkpt>
      <trkpt lat="42.397774" lon="-7.7247066">
        <time>2021-11-27T12:44:07Z</time>
      </trkpt>
      <trkpt lat="42.397785" lon="-7.724695">
        <time>2021-11-27T12:44:08Z</time>
      </trkpt>
      <trkpt lat="42.39779" lon="-7.724683">
        <time>2021-11-27T12:44:09Z</time>
      </trkpt>
      <trkpt lat="42.397797" lon="-7.72467">
        <time>2021-11-27T12:44:10Z</time>
      </trkpt>
      <trkpt lat="42.397804" lon="-7.724657">
        <time>2021-11-27T12:44:11Z</time>
      </trkpt>
      <trkpt lat="42.39781" lon="-7.7246447">
        <time>2021-11-27T12:44:12Z</time>
      </trkpt>
      <trkpt lat="42.397823" lon="-7.7246327">
        <time>2021-11-27T12:44:13Z</time>
      </trkpt>
      <trkpt lat="42.397827" lon="-7.7246194">
        <time>2021-11-27T12:44:14Z</time>
      </trkpt>
      <trkpt lat="42.39783" lon="-7.724606">
        <time>2021-11-27T12:44:15Z</time>
      </trkpt>
      <trkpt lat="42.39784" lon="-7.7245946">
        <time>2021-11-27T12:44:16Z</time>
      </trkpt>
      <trkpt lat="42.397842" lon="-7.7245855">
        <time>2021-11-27T12:44:17Z</time>
      </trkpt>
      <trkpt lat="42.39785" lon="-7.724578">
        <time>2021-11-27T12:44:18Z</time>
      </trkpt>
      <trkpt lat="42.397854" lon="-7.7245684">
        <time>2021-11-27T12:44:19Z</time>
      </trkpt>
      <trkpt lat="42.397865" lon="-7.724552">
        <time>2021-11-27T12:44:20Z</time>
      </trkpt>
      <trkpt lat="42.397877" lon="-7.724537">
        <time>2021-11-27T12:44:21Z</time>
      </trkpt>
      <trkpt lat="42.397884" lon="-7.724522">
        <time>2021-11-27T12:44:22Z</time>
      </trkpt>
      <trkpt lat="42.397896" lon="-7.724509">
        <time>2021-11-27T12:44:23Z</time>
      </trkpt>
      <trkpt lat="42.397903" lon="-7.7244973">
        <time>2021-11-27T12:44:24Z</time>
      </trkpt>
      <trkpt lat="42.39791" lon="-7.724488">
        <time>2021-11-27T12:44:25Z</time>
      </trkpt>
      <trkpt lat="42.397923" lon="-7.724479">
        <time>2021-11-27T12:44:26Z</time>
      </trkpt>
      <trkpt lat="42.39793" lon="-7.724469">
        <time>2021-11-27T12:44:27Z</time>
      </trkpt>
      <trkpt lat="42.397938" lon="-7.72446">
        <time>2021-11-27T12:44:28Z</time>
      </trkpt>
      <trkpt lat="42.39795" lon="-7.724453">
        <time>2021-11-27T12:44:29Z</time>
      </trkpt>
      <trkpt lat="42.39796" lon="-7.7244473">
        <time>2021-11-27T12:44:30Z</time>
      </trkpt>
      <trkpt lat="42.39797" lon="-7.724441">
        <time>2021-11-27T12:44:31Z</time>
      </trkpt>
      <trkpt lat="42.397976" lon="-7.7244334">
        <time>2021-11-27T12:44:32Z</time>
      </trkpt>
      <trkpt lat="42.397984" lon="-7.7244244">
        <time>2021-11-27T12:44:33Z</time>
      </trkpt>
      <trkpt lat="42.39799" lon="-7.724415">
        <time>2021-11-27T12:44:34Z</time>
      </trkpt>
      <trkpt lat="42.397995" lon="-7.7244043">
        <time>2021-11-27T12:44:35Z</time>
      </trkpt>
      <trkpt lat="42.398" lon="-7.724395">
        <time>2021-11-27T12:44:36Z</time>
      </trkpt>
      <trkpt lat="42.398006" lon="-7.724385">
        <time>2021-11-27T12:44:37Z</time>
      </trkpt>
      <trkpt lat="42.39801" lon="-7.7243757">
        <time>2021-11-27T12:44:38Z</time>
      </trkpt>
      <trkpt lat="42.398018" lon="-7.724366">
        <time>2021-11-27T12:44:39Z</time>
      </trkpt>
      <trkpt lat="42.398026" lon="-7.7243567">
        <time>2021-11-27T12:44:40Z</time>
      </trkpt>
      <trkpt lat="42.39803" lon="-7.724346">
        <time>2021-11-27T12:44:41Z</time>
      </trkpt>
      <trkpt lat="42.398037" lon="-7.7243347">
        <time>2021-11-27T12:44:42Z</time>
      </trkpt>
      <trkpt lat="42.398045" lon="-7.7243237">
        <time>2021-11-27T12:44:43Z</time>
      </trkpt>
      <trkpt lat="42.398056" lon="-7.724314">
        <time>2021-11-27T12:44:44Z</time>
      </trkpt>
      <trkpt lat="42.398064" lon="-7.724304">
        <time>2021-11-27T12:44:45Z</time>
      </trkpt>
      <trkpt lat="42.39807" lon="-7.724293">
        <time>2021-11-27T12:44:46Z</time>
      </trkpt>
      <trkpt lat="42.39808" lon="-7.724282">
        <time>2021-11-27T12:44:47Z</time>
      </trkpt>
      <trkpt lat="42.398087" lon="-7.7242694">
        <time>2021-11-27T12:44:48Z</time>
      </trkpt>
      <trkpt lat="42.398094" lon="-7.7242584">
        <time>2021-11-27T12:44:49Z</time>
      </trkpt>
      <trkpt lat="42.3981" lon="-7.7242475">
        <time>2021-11-27T12:44:50Z</time>
      </trkpt>
      <trkpt lat="42.398106" lon="-7.7242374">
        <time>2021-11-27T12:44:51Z</time>
      </trkpt>
      <trkpt lat="42.39811" lon="-7.7242274">
        <time>2021-11-27T12:44:52Z</time>
      </trkpt>
      <trkpt lat="42.398117" lon="-7.7242165">
        <time>2021-11-27T12:44:53Z</time>
      </trkpt>
      <trkpt lat="42.398125" lon="-7.724207">
        <time>2021-11-27T12:44:54Z</time>
      </trkpt>
      <trkpt lat="42.39813" lon="-7.724197">
        <time>2021-11-27T12:44:55Z</time>
      </trkpt>
      <trkpt lat="42.398136" lon="-7.724187">
        <time>2021-11-27T12:44:56Z</time>
      </trkpt>
      <trkpt lat="42.398148" lon="-7.7241755">
        <time>2021-11-27T12:44:57Z</time>
      </trkpt>
      <trkpt lat="42.398155" lon="-7.7241626">
        <time>2021-11-27T12:44:58Z</time>
      </trkpt>
      <trkpt lat="42.398167" lon="-7.7241497">
        <time>2021-11-27T12:44:59Z</time>
      </trkpt>
      <trkpt lat="42.39818" lon="-7.724138">
        <time>2021-11-27T12:45:00Z</time>
      </trkpt>
      <trkpt lat="42.398186" lon="-7.724127">
        <time>2021-11-27T12:45:01Z</time>
      </trkpt>
      <trkpt lat="42.398193" lon="-7.7241144">
        <time>2021-11-27T12:45:02Z</time>
      </trkpt>
      <trkpt lat="42.398205" lon="-7.724103">
        <time>2021-11-27T12:45:03Z</time>
      </trkpt>
      <trkpt lat="42.398212" lon="-7.724093">
        <time>2021-11-27T12:45:04Z</time>
      </trkpt>
      <trkpt lat="42.398224" lon="-7.7240844">
        <time>2021-11-27T12:45:05Z</time>
      </trkpt>
      <trkpt lat="42.398235" lon="-7.7240753">
        <time>2021-11-27T12:45:06Z</time>
      </trkpt>
      <trkpt lat="42.398243" lon="-7.7240667">
        <time>2021-11-27T12:45:07Z</time>
      </trkpt>
      <trkpt lat="42.39825" lon="-7.724057">
        <time>2021-11-27T12:45:08Z</time>
      </trkpt>
      <trkpt lat="42.39826" lon="-7.724047">
        <time>2021-11-27T12:45:09Z</time>
      </trkpt>
      <trkpt lat="42.39827" lon="-7.724039">
        <time>2021-11-27T12:45:10Z</time>
      </trkpt>
      <trkpt lat="42.398277" lon="-7.7240295">
        <time>2021-11-27T12:45:11Z</time>
      </trkpt>
      <trkpt lat="42.398285" lon="-7.724019">
        <time>2021-11-27T12:45:12Z</time>
      </trkpt>
      <trkpt lat="42.398293" lon="-7.724009">
        <time>2021-11-27T12:45:13Z</time>
      </trkpt>
      <trkpt lat="42.3983" lon="-7.7239985">
        <time>2021-11-27T12:45:14Z</time>
      </trkpt>
      <trkpt lat="42.398308" lon="-7.72399">
        <time>2021-11-27T12:45:15Z</time>
      </trkpt>
      <trkpt lat="42.398315" lon="-7.7239814">
        <time>2021-11-27T12:45:16Z</time>
      </trkpt>
      <trkpt lat="42.398323" lon="-7.7239738">
        <time>2021-11-27T12:45:17Z</time>
      </trkpt>
      <trkpt lat="42.39833" lon="-7.7239666">
        <time>2021-11-27T12:45:18Z</time>
      </trkpt>
      <trkpt lat="42.39834" lon="-7.723961">
        <time>2021-11-27T12:45:19Z</time>
      </trkpt>
      <trkpt lat="42.398342" lon="-7.7239547">
        <time>2021-11-27T12:45:20Z</time>
      </trkpt>
      <trkpt lat="42.39835" lon="-7.723947">
        <time>2021-11-27T12:45:21Z</time>
      </trkpt>
      <trkpt lat="42.398354" lon="-7.72394">
        <time>2021-11-27T12:45:22Z</time>
      </trkpt>
      <trkpt lat="42.39836" lon="-7.723933">
        <time>2021-11-27T12:45:23Z</time>
      </trkpt>
      <trkpt lat="42.39837" lon="-7.723925">
        <time>2021-11-27T12:45:24Z</time>
      </trkpt>
      <trkpt lat="42.398376" lon="-7.723917">
        <time>2021-11-27T12:45:25Z</time>
      </trkpt>
      <trkpt lat="42.398384" lon="-7.723909">
        <time>2021-11-27T12:45:26Z</time>
      </trkpt>
      <trkpt lat="42.398396" lon="-7.723901">
        <time>2021-11-27T12:45:27Z</time>
      </trkpt>
      <trkpt lat="42.398403" lon="-7.7238927">
        <time>2021-11-27T12:45:28Z</time>
      </trkpt>
      <trkpt lat="42.398407" lon="-7.7238836">
        <time>2021-11-27T12:45:29Z</time>
      </trkpt>
      <trkpt lat="42.398415" lon="-7.723875">
        <time>2021-11-27T12:45:30Z</time>
      </trkpt>
      <trkpt lat="42.398422" lon="-7.7238665">
        <time>2021-11-27T12:45:31Z</time>
      </trkpt>
      <trkpt lat="42.398426" lon="-7.723858">
        <time>2021-11-27T12:45:32Z</time>
      </trkpt>
      <trkpt lat="42.39843" lon="-7.72385">
        <time>2021-11-27T12:45:33Z</time>
      </trkpt>
      <trkpt lat="42.398438" lon="-7.7238407">
        <time>2021-11-27T12:45:34Z</time>
      </trkpt>
      <trkpt lat="42.398445" lon="-7.723832">
        <time>2021-11-27T12:45:35Z</time>
      </trkpt>
      <trkpt lat="42.39845" lon="-7.723824">
        <time>2021-11-27T12:45:36Z</time>
      </trkpt>
      <trkpt lat="42.39846" lon="-7.7238164">
        <time>2021-11-27T12:45:37Z</time>
      </trkpt>
      <trkpt lat="42.398464" lon="-7.7238107">
        <time>2021-11-27T12:45:38Z</time>
      </trkpt>
      <trkpt lat="42.39847" lon="-7.7238035">
        <time>2021-11-27T12:45:39Z</time>
      </trkpt>
      <trkpt lat="42.398483" lon="-7.7237954">
        <time>2021-11-27T12:45:40Z</time>
      </trkpt>
      <trkpt lat="42.39849" lon="-7.7237883">
        <time>2021-11-27T12:45:41Z</time>
      </trkpt>
      <trkpt lat="42.3985" lon="-7.723783">
        <time>2021-11-27T12:45:42Z</time>
      </trkpt>
      <trkpt lat="42.39851" lon="-7.7237806">
        <time>2021-11-27T12:45:43Z</time>
      </trkpt>
      <trkpt lat="42.39852" lon="-7.723778">
        <time>2021-11-27T12:45:44Z</time>
      </trkpt>
      <trkpt lat="42.39853" lon="-7.723776">
        <time>2021-11-27T12:45:45Z</time>
      </trkpt>
      <trkpt lat="42.39854" lon="-7.723773">
        <time>2021-11-27T12:45:46Z</time>
      </trkpt>
      <trkpt lat="42.398552" lon="-7.7237678">
        <time>2021-11-27T12:45:47Z</time>
      </trkpt>
      <trkpt lat="42.39856" lon="-7.723762">
        <time>2021-11-27T12:45:48Z</time>
      </trkpt>
      <trkpt lat="42.398567" lon="-7.7237563">
        <time>2021-11-27T12:45:49Z</time>
      </trkpt>
      <trkpt lat="42.39858" lon="-7.723751">
        <time>2021-11-27T12:45:50Z</time>
      </trkpt>
      <trkpt lat="42.398586" lon="-7.723746">
        <time>2021-11-27T12:45:51Z</time>
      </trkpt>
      <trkpt lat="42.398598" lon="-7.723742">
        <time>2021-11-27T12:45:52Z</time>
      </trkpt>
      <trkpt lat="42.398605" lon="-7.7237387">
        <time>2021-11-27T12:45:53Z</time>
      </trkpt>
      <trkpt lat="42.398617" lon="-7.7237363">
        <time>2021-11-27T12:45:54Z</time>
      </trkpt>
      <trkpt lat="42.398624" lon="-7.723735">
        <time>2021-11-27T12:45:55Z</time>
      </trkpt>
      <trkpt lat="42.398632" lon="-7.723736">
        <time>2021-11-27T12:45:56Z</time>
      </trkpt>
      <trkpt lat="42.39864" lon="-7.723737">
        <time>2021-11-27T12:45:57Z</time>
      </trkpt>
      <trkpt lat="42.398647" lon="-7.72374">
        <time>2021-11-27T12:45:58Z</time>
      </trkpt>
      <trkpt lat="42.39866" lon="-7.723742">
        <time>2021-11-27T12:45:59Z</time>
      </trkpt>
      <trkpt lat="42.398666" lon="-7.723746">
        <time>2021-11-27T12:46:00Z</time>
      </trkpt>
      <trkpt lat="42.398678" lon="-7.7237506">
        <time>2021-11-27T12:46:01Z</time>
      </trkpt>
      <trkpt lat="42.398685" lon="-7.7237554">
        <time>2021-11-27T12:46:02Z</time>
      </trkpt>
      <trkpt lat="42.398697" lon="-7.723761">
        <time>2021-11-27T12:46:03Z</time>
      </trkpt>
      <trkpt lat="42.398705" lon="-7.723767">
        <time>2021-11-27T12:46:04Z</time>
      </trkpt>
      <trkpt lat="42.39871" lon="-7.723774">
        <time>2021-11-27T12:46:05Z</time>
      </trkpt>
      <trkpt lat="42.39872" lon="-7.723778">
        <time>2021-11-27T12:46:06Z</time>
      </trkpt>
      <trkpt lat="42.39873" lon="-7.7237797">
        <time>2021-11-27T12:46:07Z</time>
      </trkpt>
      <trkpt lat="42.39874" lon="-7.7237806">
        <time>2021-11-27T12:46:08Z</time>
      </trkpt>
      <trkpt lat="42.398754" lon="-7.7237835">
        <time>2021-11-27T12:46:09Z</time>
      </trkpt>
      <trkpt lat="42.39876" lon="-7.7237883">
        <time>2021-11-27T12:46:10Z</time>
      </trkpt>
      <trkpt lat="42.398773" lon="-7.7237926">
        <time>2021-11-27T12:46:11Z</time>
      </trkpt>
      <trkpt lat="42.398785" lon="-7.7237973">
        <time>2021-11-27T12:46:12Z</time>
      </trkpt>
      <trkpt lat="42.398838" lon="-7.7237997">
        <time>2021-11-27T12:46:14Z</time>
      </trkpt>
      <trkpt lat="42.39884" lon="-7.7238">
        <time>2021-11-27T12:46:15Z</time>
      </trkpt>
      <trkpt lat="42.39885" lon="-7.723799">
        <time>2021-11-27T12:46:16Z</time>
      </trkpt>
      <trkpt lat="42.398857" lon="-7.7237954">
        <time>2021-11-27T12:46:17Z</time>
      </trkpt>
      <trkpt lat="42.398872" lon="-7.723791">
        <time>2021-11-27T12:46:18Z</time>
      </trkpt>
      <trkpt lat="42.39888" lon="-7.7237883">
        <time>2021-11-27T12:46:19Z</time>
      </trkpt>
      <trkpt lat="42.39889" lon="-7.7237844">
        <time>2021-11-27T12:46:20Z</time>
      </trkpt>
      <trkpt lat="42.398903" lon="-7.7237806">
        <time>2021-11-27T12:46:21Z</time>
      </trkpt>
      <trkpt lat="42.398914" lon="-7.7237787">
        <time>2021-11-27T12:46:22Z</time>
      </trkpt>
      <trkpt lat="42.398926" lon="-7.723778">
        <time>2021-11-27T12:46:23Z</time>
      </trkpt>
      <trkpt lat="42.398933" lon="-7.723776">
        <time>2021-11-27T12:46:24Z</time>
      </trkpt>
      <trkpt lat="42.39894" lon="-7.7237735">
        <time>2021-11-27T12:46:25Z</time>
      </trkpt>
      <trkpt lat="42.39895" lon="-7.723767">
        <time>2021-11-27T12:46:26Z</time>
      </trkpt>
      <trkpt lat="42.398956" lon="-7.723761">
        <time>2021-11-27T12:46:27Z</time>
      </trkpt>
      <trkpt lat="42.39896" lon="-7.7237554">
        <time>2021-11-27T12:46:28Z</time>
      </trkpt>
      <trkpt lat="42.398964" lon="-7.723749">
        <time>2021-11-27T12:46:29Z</time>
      </trkpt>
      <trkpt lat="42.398975" lon="-7.723742">
        <time>2021-11-27T12:46:30Z</time>
      </trkpt>
      <trkpt lat="42.398983" lon="-7.7237363">
        <time>2021-11-27T12:46:31Z</time>
      </trkpt>
      <trkpt lat="42.39899" lon="-7.723731">
        <time>2021-11-27T12:46:32Z</time>
      </trkpt>
      <trkpt lat="42.399002" lon="-7.723728">
        <time>2021-11-27T12:46:33Z</time>
      </trkpt>
      <trkpt lat="42.399014" lon="-7.723725">
        <time>2021-11-27T12:46:34Z</time>
      </trkpt>
      <trkpt lat="42.399025" lon="-7.723718">
        <time>2021-11-27T12:46:35Z</time>
      </trkpt>
      <trkpt lat="42.399036" lon="-7.723708">
        <time>2021-11-27T12:46:36Z</time>
      </trkpt>
      <trkpt lat="42.399044" lon="-7.7237005">
        <time>2021-11-27T12:46:37Z</time>
      </trkpt>
      <trkpt lat="42.39905" lon="-7.723692">
        <time>2021-11-27T12:46:38Z</time>
      </trkpt>
      <trkpt lat="42.39906" lon="-7.723682">
        <time>2021-11-27T12:46:39Z</time>
      </trkpt>
      <trkpt lat="42.399067" lon="-7.723671">
        <time>2021-11-27T12:46:40Z</time>
      </trkpt>
      <trkpt lat="42.39907" lon="-7.723659">
        <time>2021-11-27T12:46:41Z</time>
      </trkpt>
      <trkpt lat="42.399075" lon="-7.7236476">
        <time>2021-11-27T12:46:42Z</time>
      </trkpt>
      <trkpt lat="42.399082" lon="-7.7236357">
        <time>2021-11-27T12:46:43Z</time>
      </trkpt>
      <trkpt lat="42.39909" lon="-7.7236233">
        <time>2021-11-27T12:46:44Z</time>
      </trkpt>
      <trkpt lat="42.399097" lon="-7.7236114">
        <time>2021-11-27T12:46:45Z</time>
      </trkpt>
      <trkpt lat="42.399105" lon="-7.7236013">
        <time>2021-11-27T12:46:46Z</time>
      </trkpt>
      <trkpt lat="42.399113" lon="-7.723592">
        <time>2021-11-27T12:46:47Z</time>
      </trkpt>
      <trkpt lat="42.399117" lon="-7.7235813">
        <time>2021-11-27T12:46:48Z</time>
      </trkpt>
      <trkpt lat="42.39912" lon="-7.7235703">
        <time>2021-11-27T12:46:49Z</time>
      </trkpt>
      <trkpt lat="42.399128" lon="-7.723559">
        <time>2021-11-27T12:46:50Z</time>
      </trkpt>
      <trkpt lat="42.39913" lon="-7.72355">
        <time>2021-11-27T12:46:52Z</time>
      </trkpt>
      <trkpt lat="42.39914" lon="-7.723543">
        <time>2021-11-27T12:46:52Z</time>
      </trkpt>
      <trkpt lat="42.399143" lon="-7.7235365">
        <time>2021-11-27T12:46:53Z</time>
      </trkpt>
      <trkpt lat="42.39915" lon="-7.7235303">
        <time>2021-11-27T12:46:54Z</time>
      </trkpt>
      <trkpt lat="42.39916" lon="-7.7235246">
        <time>2021-11-27T12:46:55Z</time>
      </trkpt>
      <trkpt lat="42.399166" lon="-7.723519">
        <time>2021-11-27T12:46:56Z</time>
      </trkpt>
      <trkpt lat="42.399178" lon="-7.723514">
        <time>2021-11-27T12:46:57Z</time>
      </trkpt>
      <trkpt lat="42.399185" lon="-7.7235084">
        <time>2021-11-27T12:46:58Z</time>
      </trkpt>
      <trkpt lat="42.399193" lon="-7.723502">
        <time>2021-11-27T12:46:59Z</time>
      </trkpt>
      <trkpt lat="42.399204" lon="-7.7234955">
        <time>2021-11-27T12:46:59Z</time>
      </trkpt>
      <trkpt lat="42.39921" lon="-7.7234898">
        <time>2021-11-27T12:47:00Z</time>
      </trkpt>
      <trkpt lat="42.399223" lon="-7.723485">
        <time>2021-11-27T12:47:01Z</time>
      </trkpt>
      <trkpt lat="42.39923" lon="-7.7234797">
        <time>2021-11-27T12:47:02Z</time>
      </trkpt>
      <trkpt lat="42.39924" lon="-7.7234726">
        <time>2021-11-27T12:47:03Z</time>
      </trkpt>
      <trkpt lat="42.39925" lon="-7.723463">
        <time>2021-11-27T12:47:04Z</time>
      </trkpt>
      <trkpt lat="42.39926" lon="-7.7234535">
        <time>2021-11-27T12:47:05Z</time>
      </trkpt>
      <trkpt lat="42.39927" lon="-7.7234464">
        <time>2021-11-27T12:47:06Z</time>
      </trkpt>
      <trkpt lat="42.399277" lon="-7.723441">
        <time>2021-11-27T12:47:07Z</time>
      </trkpt>
      <trkpt lat="42.399284" lon="-7.7234383">
        <time>2021-11-27T12:47:08Z</time>
      </trkpt>
      <trkpt lat="42.399292" lon="-7.7234383">
        <time>2021-11-27T12:47:09Z</time>
      </trkpt>
      <trkpt lat="42.3993" lon="-7.7234406">
        <time>2021-11-27T12:47:10Z</time>
      </trkpt>
      <trkpt lat="42.399303" lon="-7.723443">
        <time>2021-11-27T12:47:11Z</time>
      </trkpt>
      <trkpt lat="42.39931" lon="-7.723442">
        <time>2021-11-27T12:47:12Z</time>
      </trkpt>
      <trkpt lat="42.39932" lon="-7.723437">
        <time>2021-11-27T12:47:13Z</time>
      </trkpt>
      <trkpt lat="42.39933" lon="-7.7234316">
        <time>2021-11-27T12:47:14Z</time>
      </trkpt>
      <trkpt lat="42.399338" lon="-7.7234254">
        <time>2021-11-27T12:47:15Z</time>
      </trkpt>
      <trkpt lat="42.399345" lon="-7.7234178">
        <time>2021-11-27T12:47:16Z</time>
      </trkpt>
      <trkpt lat="42.399357" lon="-7.7234087">
        <time>2021-11-27T12:47:17Z</time>
      </trkpt>
      <trkpt lat="42.39937" lon="-7.723401">
        <time>2021-11-27T12:47:18Z</time>
      </trkpt>
      <trkpt lat="42.39938" lon="-7.7233934">
        <time>2021-11-27T12:47:19Z</time>
      </trkpt>
      <trkpt lat="42.39939" lon="-7.723385">
        <time>2021-11-27T12:47:20Z</time>
      </trkpt>
      <trkpt lat="42.399406" lon="-7.723377">
        <time>2021-11-27T12:47:21Z</time>
      </trkpt>
      <trkpt lat="42.399418" lon="-7.723368">
        <time>2021-11-27T12:47:22Z</time>
      </trkpt>
      <trkpt lat="42.399433" lon="-7.7233577">
        <time>2021-11-27T12:47:23Z</time>
      </trkpt>
      <trkpt lat="42.399445" lon="-7.7233453">
        <time>2021-11-27T12:47:24Z</time>
      </trkpt>
      <trkpt lat="42.399456" lon="-7.723333">
        <time>2021-11-27T12:47:25Z</time>
      </trkpt>
      <trkpt lat="42.399464" lon="-7.7233224">
        <time>2021-11-27T12:47:26Z</time>
      </trkpt>
      <trkpt lat="42.399475" lon="-7.723313">
        <time>2021-11-27T12:47:27Z</time>
      </trkpt>
      <trkpt lat="42.399487" lon="-7.7233047">
        <time>2021-11-27T12:47:28Z</time>
      </trkpt>
      <trkpt lat="42.399494" lon="-7.7232966">
        <time>2021-11-27T12:47:29Z</time>
      </trkpt>
      <trkpt lat="42.3995" lon="-7.7232857">
        <time>2021-11-27T12:47:30Z</time>
      </trkpt>
      <trkpt lat="42.39951" lon="-7.7232738">
        <time>2021-11-27T12:47:31Z</time>
      </trkpt>
      <trkpt lat="42.39952" lon="-7.723264">
        <time>2021-11-27T12:47:32Z</time>
      </trkpt>
      <trkpt lat="42.399532" lon="-7.7232556">
        <time>2021-11-27T12:47:33Z</time>
      </trkpt>
      <trkpt lat="42.399548" lon="-7.7232494">
        <time>2021-11-27T12:47:34Z</time>
      </trkpt>
      <trkpt lat="42.399563" lon="-7.7232456">
        <time>2021-11-27T12:47:35Z</time>
      </trkpt>
      <trkpt lat="42.399574" lon="-7.723241">
        <time>2021-11-27T12:47:36Z</time>
      </trkpt>
      <trkpt lat="42.399586" lon="-7.723239">
        <time>2021-11-27T12:47:37Z</time>
      </trkpt>
      <trkpt lat="42.399597" lon="-7.723235">
        <time>2021-11-27T12:47:38Z</time>
      </trkpt>
      <trkpt lat="42.399605" lon="-7.723231">
        <time>2021-11-27T12:47:39Z</time>
      </trkpt>
      <trkpt lat="42.399612" lon="-7.723227">
        <time>2021-11-27T12:47:40Z</time>
      </trkpt>
      <trkpt lat="42.39962" lon="-7.723222">
        <time>2021-11-27T12:47:41Z</time>
      </trkpt>
      <trkpt lat="42.399628" lon="-7.7232156">
        <time>2021-11-27T12:47:42Z</time>
      </trkpt>
      <trkpt lat="42.399635" lon="-7.7232094">
        <time>2021-11-27T12:47:43Z</time>
      </trkpt>
      <trkpt lat="42.399643" lon="-7.7232046">
        <time>2021-11-27T12:47:44Z</time>
      </trkpt>
      <trkpt lat="42.399647" lon="-7.723199">
        <time>2021-11-27T12:47:45Z</time>
      </trkpt>
      <trkpt lat="42.399654" lon="-7.72319">
        <time>2021-11-27T12:47:46Z</time>
      </trkpt>
      <trkpt lat="42.399666" lon="-7.723183">
        <time>2021-11-27T12:47:47Z</time>
      </trkpt>
      <trkpt lat="42.39967" lon="-7.7231755">
        <time>2021-11-27T12:47:48Z</time>
      </trkpt>
      <trkpt lat="42.399677" lon="-7.723166">
        <time>2021-11-27T12:47:49Z</time>
      </trkpt>
      <trkpt lat="42.39968" lon="-7.723156">
        <time>2021-11-27T12:47:50Z</time>
      </trkpt>
      <trkpt lat="42.39969" lon="-7.7231445">
        <time>2021-11-27T12:47:51Z</time>
      </trkpt>
      <trkpt lat="42.39969" lon="-7.7231297">
        <time>2021-11-27T12:47:52Z</time>
      </trkpt>
      <trkpt lat="42.39969" lon="-7.723112">
        <time>2021-11-27T12:47:53Z</time>
      </trkpt>
      <trkpt lat="42.399693" lon="-7.723095">
        <time>2021-11-27T12:47:54Z</time>
      </trkpt>
      <trkpt lat="42.399696" lon="-7.723082">
        <time>2021-11-27T12:47:55Z</time>
      </trkpt>
      <trkpt lat="42.399696" lon="-7.723072">
        <time>2021-11-27T12:47:56Z</time>
      </trkpt>
      <trkpt lat="42.399704" lon="-7.7230635">
        <time>2021-11-27T12:47:57Z</time>
      </trkpt>
      <trkpt lat="42.39971" lon="-7.723056">
        <time>2021-11-27T12:47:58Z</time>
      </trkpt>
      <trkpt lat="42.39972" lon="-7.7230496">
        <time>2021-11-27T12:47:59Z</time>
      </trkpt>
      <trkpt lat="42.399734" lon="-7.723044">
        <time>2021-11-27T12:48:00Z</time>
      </trkpt>
      <trkpt lat="42.399742" lon="-7.7230372">
        <time>2021-11-27T12:48:01Z</time>
      </trkpt>
      <trkpt lat="42.399754" lon="-7.7230325">
        <time>2021-11-27T12:48:02Z</time>
      </trkpt>
      <trkpt lat="42.39976" lon="-7.7230287">
        <time>2021-11-27T12:48:03Z</time>
      </trkpt>
      <trkpt lat="42.399773" lon="-7.723025">
        <time>2021-11-27T12:48:04Z</time>
      </trkpt>
      <trkpt lat="42.39978" lon="-7.72302">
        <time>2021-11-27T12:48:05Z</time>
      </trkpt>
      <trkpt lat="42.399784" lon="-7.723016">
        <time>2021-11-27T12:48:06Z</time>
      </trkpt>
      <trkpt lat="42.39979" lon="-7.723013">
        <time>2021-11-27T12:48:07Z</time>
      </trkpt>
      <trkpt lat="42.3998" lon="-7.723011">
        <time>2021-11-27T12:48:08Z</time>
      </trkpt>
      <trkpt lat="42.39981" lon="-7.7230086">
        <time>2021-11-27T12:48:09Z</time>
      </trkpt>
      <trkpt lat="42.399822" lon="-7.723007">
        <time>2021-11-27T12:48:10Z</time>
      </trkpt>
      <trkpt lat="42.39983" lon="-7.7230067">
        <time>2021-11-27T12:48:11Z</time>
      </trkpt>
      <trkpt lat="42.399837" lon="-7.723005">
        <time>2021-11-27T12:48:12Z</time>
      </trkpt>
      <trkpt lat="42.399845" lon="-7.7230015">
        <time>2021-11-27T12:48:13Z</time>
      </trkpt>
      <trkpt lat="42.39985" lon="-7.722999">
        <time>2021-11-27T12:48:14Z</time>
      </trkpt>
      <trkpt lat="42.399857" lon="-7.7229924">
        <time>2021-11-27T12:48:15Z</time>
      </trkpt>
      <trkpt lat="42.399868" lon="-7.7229867">
        <time>2021-11-27T12:48:16Z</time>
      </trkpt>
      <trkpt lat="42.399876" lon="-7.722981">
        <time>2021-11-27T12:48:17Z</time>
      </trkpt>
      <trkpt lat="42.399883" lon="-7.7229753">
        <time>2021-11-27T12:48:18Z</time>
      </trkpt>
      <trkpt lat="42.399895" lon="-7.7229714">
        <time>2021-11-27T12:48:19Z</time>
      </trkpt>
      <trkpt lat="42.399902" lon="-7.7229657">
        <time>2021-11-27T12:48:20Z</time>
      </trkpt>
      <trkpt lat="42.39991" lon="-7.7229586">
        <time>2021-11-27T12:48:21Z</time>
      </trkpt>
      <trkpt lat="42.399918" lon="-7.72295">
        <time>2021-11-27T12:48:22Z</time>
      </trkpt>
      <trkpt lat="42.39992" lon="-7.722943">
        <time>2021-11-27T12:48:23Z</time>
      </trkpt>
      <trkpt lat="42.399925" lon="-7.722937">
        <time>2021-11-27T12:48:24Z</time>
      </trkpt>
      <trkpt lat="42.39993" lon="-7.7229314">
        <time>2021-11-27T12:48:25Z</time>
      </trkpt>
      <trkpt lat="42.399937" lon="-7.7229257">
        <time>2021-11-27T12:48:26Z</time>
      </trkpt>
      <trkpt lat="42.39994" lon="-7.7229214">
        <time>2021-11-27T12:48:27Z</time>
      </trkpt>
      <trkpt lat="42.39995" lon="-7.7229176">
        <time>2021-11-27T12:48:28Z</time>
      </trkpt>
      <trkpt lat="42.399956" lon="-7.7229137">
        <time>2021-11-27T12:48:29Z</time>
      </trkpt>
      <trkpt lat="42.399963" lon="-7.7229114">
        <time>2021-11-27T12:48:30Z</time>
      </trkpt>
      <trkpt lat="42.39997" lon="-7.7229095">
        <time>2021-11-27T12:48:31Z</time>
      </trkpt>
      <trkpt lat="42.39998" lon="-7.722908">
        <time>2021-11-27T12:48:32Z</time>
      </trkpt>
      <trkpt lat="42.399982" lon="-7.722906">
        <time>2021-11-27T12:48:33Z</time>
      </trkpt>
      <trkpt lat="42.399986" lon="-7.722904">
        <time>2021-11-27T12:48:34Z</time>
      </trkpt>
      <trkpt lat="42.399994" lon="-7.7229004">
        <time>2021-11-27T12:48:35Z</time>
      </trkpt>
      <trkpt lat="42.399998" lon="-7.722898">
        <time>2021-11-27T12:48:36Z</time>
      </trkpt>
      <trkpt lat="42.4" lon="-7.7228947">
        <time>2021-11-27T12:48:37Z</time>
      </trkpt>
      <trkpt lat="42.40001" lon="-7.722891">
        <time>2021-11-27T12:48:38Z</time>
      </trkpt>
      <trkpt lat="42.400017" lon="-7.7228875">
        <time>2021-11-27T12:48:39Z</time>
      </trkpt>
      <trkpt lat="42.40002" lon="-7.7228827">
        <time>2021-11-27T12:48:40Z</time>
      </trkpt>
      <trkpt lat="42.400024" lon="-7.722876">
        <time>2021-11-27T12:48:41Z</time>
      </trkpt>
      <trkpt lat="42.40003" lon="-7.7228684">
        <time>2021-11-27T12:48:42Z</time>
      </trkpt>
      <trkpt lat="42.400032" lon="-7.7228603">
        <time>2021-11-27T12:48:43Z</time>
      </trkpt>
      <trkpt lat="42.400036" lon="-7.7228518">
        <time>2021-11-27T12:48:44Z</time>
      </trkpt>
      <trkpt lat="42.40004" lon="-7.722844">
        <time>2021-11-27T12:48:45Z</time>
      </trkpt>
      <trkpt lat="42.400043" lon="-7.7228365">
        <time>2021-11-27T12:48:46Z</time>
      </trkpt>
      <trkpt lat="42.400047" lon="-7.7228293">
        <time>2021-11-27T12:48:47Z</time>
      </trkpt>
      <trkpt lat="42.400055" lon="-7.7228217">
        <time>2021-11-27T12:48:48Z</time>
      </trkpt>
      <trkpt lat="42.400063" lon="-7.7228146">
        <time>2021-11-27T12:48:49Z</time>
      </trkpt>
      <trkpt lat="42.400066" lon="-7.722809">
        <time>2021-11-27T12:48:50Z</time>
      </trkpt>
      <trkpt lat="42.400074" lon="-7.722803">
        <time>2021-11-27T12:48:51Z</time>
      </trkpt>
      <trkpt lat="42.40008" lon="-7.722798">
        <time>2021-11-27T12:48:52Z</time>
      </trkpt>
      <trkpt lat="42.40009" lon="-7.722793">
        <time>2021-11-27T12:48:53Z</time>
      </trkpt>
      <trkpt lat="42.400097" lon="-7.7227883">
        <time>2021-11-27T12:48:54Z</time>
      </trkpt>
      <trkpt lat="42.400105" lon="-7.722782">
        <time>2021-11-27T12:48:55Z</time>
      </trkpt>
      <trkpt lat="42.400112" lon="-7.722775">
        <time>2021-11-27T12:48:56Z</time>
      </trkpt>
      <trkpt lat="42.400116" lon="-7.722767">
        <time>2021-11-27T12:48:57Z</time>
      </trkpt>
      <trkpt lat="42.400124" lon="-7.7227564">
        <time>2021-11-27T12:48:58Z</time>
      </trkpt>
      <trkpt lat="42.40013" lon="-7.7227473">
        <time>2021-11-27T12:48:59Z</time>
      </trkpt>
      <trkpt lat="42.40014" lon="-7.7227397">
        <time>2021-11-27T12:49:00Z</time>
      </trkpt>
      <trkpt lat="42.400146" lon="-7.722732">
        <time>2021-11-27T12:49:01Z</time>
      </trkpt>
      <trkpt lat="42.400154" lon="-7.722725">
        <time>2021-11-27T12:49:02Z</time>
      </trkpt>
      <trkpt lat="42.400166" lon="-7.722719">
        <time>2021-11-27T12:49:03Z</time>
      </trkpt>
      <trkpt lat="42.400173" lon="-7.722713">
        <time>2021-11-27T12:49:04Z</time>
      </trkpt>
      <trkpt lat="42.40018" lon="-7.722707">
        <time>2021-11-27T12:49:05Z</time>
      </trkpt>
      <trkpt lat="42.40018" lon="-7.7226996">
        <time>2021-11-27T12:49:06Z</time>
      </trkpt>
      <trkpt lat="42.40019" lon="-7.7226925">
        <time>2021-11-27T12:49:07Z</time>
      </trkpt>
      <trkpt lat="42.400192" lon="-7.7226863">
        <time>2021-11-27T12:49:08Z</time>
      </trkpt>
      <trkpt lat="42.4002" lon="-7.722678">
        <time>2021-11-27T12:49:09Z</time>
      </trkpt>
      <trkpt lat="42.40021" lon="-7.72267">
        <time>2021-11-27T12:49:10Z</time>
      </trkpt>
      <trkpt lat="42.400223" lon="-7.722661">
        <time>2021-11-27T12:49:11Z</time>
      </trkpt>
      <trkpt lat="42.40023" lon="-7.722652">
        <time>2021-11-27T12:49:12Z</time>
      </trkpt>
      <trkpt lat="42.400238" lon="-7.7226443">
        <time>2021-11-27T12:49:13Z</time>
      </trkpt>
      <trkpt lat="42.40024" lon="-7.7226377">
        <time>2021-11-27T12:49:14Z</time>
      </trkpt>
      <trkpt lat="42.40025" lon="-7.7226295">
        <time>2021-11-27T12:49:15Z</time>
      </trkpt>
      <trkpt lat="42.400253" lon="-7.722621">
        <time>2021-11-27T12:49:16Z</time>
      </trkpt>
      <trkpt lat="42.400257" lon="-7.7226114">
        <time>2021-11-27T12:49:17Z</time>
      </trkpt>
      <trkpt lat="42.40026" lon="-7.7226014">
        <time>2021-11-27T12:49:18Z</time>
      </trkpt>
      <trkpt lat="42.400265" lon="-7.72259">
        <time>2021-11-27T12:49:19Z</time>
      </trkpt>
      <trkpt lat="42.400272" lon="-7.7225804">
        <time>2021-11-27T12:49:20Z</time>
      </trkpt>
      <trkpt lat="42.40028" lon="-7.722571">
        <time>2021-11-27T12:49:21Z</time>
      </trkpt>
      <trkpt lat="42.400288" lon="-7.7225637">
        <time>2021-11-27T12:49:22Z</time>
      </trkpt>
      <trkpt lat="42.400295" lon="-7.7225585">
        <time>2021-11-27T12:49:23Z</time>
      </trkpt>
      <trkpt lat="42.400303" lon="-7.722553">
        <time>2021-11-27T12:49:24Z</time>
      </trkpt>
      <trkpt lat="42.40031" lon="-7.722546">
        <time>2021-11-27T12:49:25Z</time>
      </trkpt>
      <trkpt lat="42.400322" lon="-7.7225404">
        <time>2021-11-27T12:49:26Z</time>
      </trkpt>
      <trkpt lat="42.400326" lon="-7.7225356">
        <time>2021-11-27T12:49:27Z</time>
      </trkpt>
      <trkpt lat="42.400337" lon="-7.7225294">
        <time>2021-11-27T12:49:28Z</time>
      </trkpt>
      <trkpt lat="42.400345" lon="-7.7225223">
        <time>2021-11-27T12:49:29Z</time>
      </trkpt>
      <trkpt lat="42.400352" lon="-7.7225146">
        <time>2021-11-27T12:49:30Z</time>
      </trkpt>
      <trkpt lat="42.40036" lon="-7.722507">
        <time>2021-11-27T12:49:31Z</time>
      </trkpt>
      <trkpt lat="42.400368" lon="-7.7225003">
        <time>2021-11-27T12:49:32Z</time>
      </trkpt>
      <trkpt lat="42.400375" lon="-7.7224946">
        <time>2021-11-27T12:49:33Z</time>
      </trkpt>
      <trkpt lat="42.400387" lon="-7.7224884">
        <time>2021-11-27T12:49:34Z</time>
      </trkpt>
      <trkpt lat="42.4004" lon="-7.7224817">
        <time>2021-11-27T12:49:35Z</time>
      </trkpt>
      <trkpt lat="42.400406" lon="-7.722476">
        <time>2021-11-27T12:49:36Z</time>
      </trkpt>
      <trkpt lat="42.40041" lon="-7.7224717">
        <time>2021-11-27T12:49:37Z</time>
      </trkpt>
      <trkpt lat="42.400417" lon="-7.7224674">
        <time>2021-11-27T12:49:38Z</time>
      </trkpt>
      <trkpt lat="42.400425" lon="-7.722463">
        <time>2021-11-27T12:49:39Z</time>
      </trkpt>
      <trkpt lat="42.400433" lon="-7.7224593">
        <time>2021-11-27T12:49:40Z</time>
      </trkpt>
      <trkpt lat="42.40044" lon="-7.722457">
        <time>2021-11-27T12:49:41Z</time>
      </trkpt>
      <trkpt lat="42.400444" lon="-7.7224565">
        <time>2021-11-27T12:49:42Z</time>
      </trkpt>
      <trkpt lat="42.40045" lon="-7.7224555">
        <time>2021-11-27T12:49:43Z</time>
      </trkpt>
      <trkpt lat="42.400463" lon="-7.7224517">
        <time>2021-11-27T12:49:44Z</time>
      </trkpt>
      <trkpt lat="42.400475" lon="-7.722447">
        <time>2021-11-27T12:49:45Z</time>
      </trkpt>
      <trkpt lat="42.400482" lon="-7.722442">
        <time>2021-11-27T12:49:46Z</time>
      </trkpt>
      <trkpt lat="42.400494" lon="-7.722436">
        <time>2021-11-27T12:49:47Z</time>
      </trkpt>
      <trkpt lat="42.400505" lon="-7.722429">
        <time>2021-11-27T12:49:48Z</time>
      </trkpt>
      <trkpt lat="42.400513" lon="-7.722423">
        <time>2021-11-27T12:49:49Z</time>
      </trkpt>
      <trkpt lat="42.400524" lon="-7.722418">
        <time>2021-11-27T12:49:51Z</time>
      </trkpt>
      <trkpt lat="42.40053" lon="-7.7224107">
        <time>2021-11-27T12:49:51Z</time>
      </trkpt>
      <trkpt lat="42.400536" lon="-7.722405">
        <time>2021-11-27T12:49:52Z</time>
      </trkpt>
      <trkpt lat="42.400543" lon="-7.722402">
        <time>2021-11-27T12:49:53Z</time>
      </trkpt>
      <trkpt lat="42.400547" lon="-7.7223973">
        <time>2021-11-27T12:49:54Z</time>
      </trkpt>
      <trkpt lat="42.400555" lon="-7.722395">
        <time>2021-11-27T12:49:55Z</time>
      </trkpt>
      <trkpt lat="42.400562" lon="-7.72239">
        <time>2021-11-27T12:49:56Z</time>
      </trkpt>
      <trkpt lat="42.400574" lon="-7.722384">
        <time>2021-11-27T12:49:57Z</time>
      </trkpt>
      <trkpt lat="42.40058" lon="-7.7223783">
        <time>2021-11-27T12:49:58Z</time>
      </trkpt>
      <trkpt lat="42.400593" lon="-7.7223744">
        <time>2021-11-27T12:49:59Z</time>
      </trkpt>
      <trkpt lat="42.4006" lon="-7.722369">
        <time>2021-11-27T12:50:00Z</time>
      </trkpt>
      <trkpt lat="42.40061" lon="-7.722362">
        <time>2021-11-27T12:50:01Z</time>
      </trkpt>
      <trkpt lat="42.400623" lon="-7.7223544">
        <time>2021-11-27T12:50:02Z</time>
      </trkpt>
      <trkpt lat="42.400635" lon="-7.7223496">
        <time>2021-11-27T12:50:03Z</time>
      </trkpt>
      <trkpt lat="42.40065" lon="-7.722343">
        <time>2021-11-27T12:50:04Z</time>
      </trkpt>
      <trkpt lat="42.40066" lon="-7.722339">
        <time>2021-11-27T12:50:05Z</time>
      </trkpt>
      <trkpt lat="42.400696" lon="-7.7223277">
        <time>2021-11-27T12:50:07Z</time>
      </trkpt>
      <trkpt lat="42.4007" lon="-7.7223253">
        <time>2021-11-27T12:50:08Z</time>
      </trkpt>
      <trkpt lat="42.400707" lon="-7.7223225">
        <time>2021-11-27T12:50:09Z</time>
      </trkpt>
      <trkpt lat="42.400715" lon="-7.72232">
        <time>2021-11-27T12:50:10Z</time>
      </trkpt>
      <trkpt lat="42.400723" lon="-7.7223163">
        <time>2021-11-27T12:50:11Z</time>
      </trkpt>
      <trkpt lat="42.400734" lon="-7.722311">
        <time>2021-11-27T12:50:12Z</time>
      </trkpt>
      <trkpt lat="42.40074" lon="-7.722306">
        <time>2021-11-27T12:50:13Z</time>
      </trkpt>
      <trkpt lat="42.400757" lon="-7.7223015">
        <time>2021-11-27T12:50:14Z</time>
      </trkpt>
      <trkpt lat="42.40077" lon="-7.7222958">
        <time>2021-11-27T12:50:15Z</time>
      </trkpt>
      <trkpt lat="42.40078" lon="-7.7222886">
        <time>2021-11-27T12:50:16Z</time>
      </trkpt>
      <trkpt lat="42.400795" lon="-7.722283">
        <time>2021-11-27T12:50:17Z</time>
      </trkpt>
      <trkpt lat="42.400806" lon="-7.722277">
        <time>2021-11-27T12:50:18Z</time>
      </trkpt>
      <trkpt lat="42.400818" lon="-7.7222714">
        <time>2021-11-27T12:50:19Z</time>
      </trkpt>
      <trkpt lat="42.400833" lon="-7.722264">
        <time>2021-11-27T12:50:20Z</time>
      </trkpt>
      <trkpt lat="42.40084" lon="-7.7222548">
        <time>2021-11-27T12:50:21Z</time>
      </trkpt>
      <trkpt lat="42.400852" lon="-7.7222486">
        <time>2021-11-27T12:50:22Z</time>
      </trkpt>
      <trkpt lat="42.400864" lon="-7.7222404">
        <time>2021-11-27T12:50:23Z</time>
      </trkpt>
      <trkpt lat="42.400875" lon="-7.722234">
        <time>2021-11-27T12:50:24Z</time>
      </trkpt>
      <trkpt lat="42.400887" lon="-7.722224">
        <time>2021-11-27T12:50:25Z</time>
      </trkpt>
      <trkpt lat="42.400894" lon="-7.7222133">
        <time>2021-11-27T12:50:26Z</time>
      </trkpt>
      <trkpt lat="42.4009" lon="-7.7222023">
        <time>2021-11-27T12:50:27Z</time>
      </trkpt>
      <trkpt lat="42.400913" lon="-7.722188">
        <time>2021-11-27T12:50:28Z</time>
      </trkpt>
      <trkpt lat="42.40092" lon="-7.7221727">
        <time>2021-11-27T12:50:29Z</time>
      </trkpt>
      <trkpt lat="42.40093" lon="-7.7221575">
        <time>2021-11-27T12:50:30Z</time>
      </trkpt>
      <trkpt lat="42.400936" lon="-7.722143">
        <time>2021-11-27T12:50:31Z</time>
      </trkpt>
      <trkpt lat="42.400944" lon="-7.7221317">
        <time>2021-11-27T12:50:32Z</time>
      </trkpt>
      <trkpt lat="42.40095" lon="-7.722119">
        <time>2021-11-27T12:50:33Z</time>
      </trkpt>
      <trkpt lat="42.40096" lon="-7.722107">
        <time>2021-11-27T12:50:34Z</time>
      </trkpt>
      <trkpt lat="42.40097" lon="-7.7220945">
        <time>2021-11-27T12:50:35Z</time>
      </trkpt>
      <trkpt lat="42.400974" lon="-7.722084">
        <time>2021-11-27T12:50:36Z</time>
      </trkpt>
      <trkpt lat="42.40098" lon="-7.722074">
        <time>2021-11-27T12:50:37Z</time>
      </trkpt>
      <trkpt lat="42.40099" lon="-7.7220654">
        <time>2021-11-27T12:50:38Z</time>
      </trkpt>
      <trkpt lat="42.401" lon="-7.722055">
        <time>2021-11-27T12:50:39Z</time>
      </trkpt>
      <trkpt lat="42.40101" lon="-7.722044">
        <time>2021-11-27T12:50:40Z</time>
      </trkpt>
      <trkpt lat="42.40102" lon="-7.7220345">
        <time>2021-11-27T12:50:41Z</time>
      </trkpt>
      <trkpt lat="42.401028" lon="-7.722027">
        <time>2021-11-27T12:50:42Z</time>
      </trkpt>
      <trkpt lat="42.40104" lon="-7.722019">
        <time>2021-11-27T12:50:43Z</time>
      </trkpt>
      <trkpt lat="42.40105" lon="-7.72201">
        <time>2021-11-27T12:50:44Z</time>
      </trkpt>
      <trkpt lat="42.40106" lon="-7.722003">
        <time>2021-11-27T12:50:45Z</time>
      </trkpt>
      <trkpt lat="42.401066" lon="-7.721995">
        <time>2021-11-27T12:50:46Z</time>
      </trkpt>
      <trkpt lat="42.40107" lon="-7.721986">
        <time>2021-11-27T12:50:47Z</time>
      </trkpt>
      <trkpt lat="42.401073" lon="-7.7219768">
        <time>2021-11-27T12:50:48Z</time>
      </trkpt>
      <trkpt lat="42.401077" lon="-7.721971">
        <time>2021-11-27T12:50:49Z</time>
      </trkpt>
      <trkpt lat="42.401085" lon="-7.721967">
        <time>2021-11-27T12:50:50Z</time>
      </trkpt>
      <trkpt lat="42.401096" lon="-7.721963">
        <time>2021-11-27T12:50:52Z</time>
      </trkpt>
      <trkpt lat="42.401104" lon="-7.7219596">
        <time>2021-11-27T12:50:52Z</time>
      </trkpt>
      <trkpt lat="42.40111" lon="-7.7219553">
        <time>2021-11-27T12:50:53Z</time>
      </trkpt>
      <trkpt lat="42.40112" lon="-7.7219515">
        <time>2021-11-27T12:50:54Z</time>
      </trkpt>
      <trkpt lat="42.401123" lon="-7.7219467">
        <time>2021-11-27T12:50:55Z</time>
      </trkpt>
      <trkpt lat="42.401127" lon="-7.721939">
        <time>2021-11-27T12:50:56Z</time>
      </trkpt>
      <trkpt lat="42.401127" lon="-7.721929">
        <time>2021-11-27T12:50:57Z</time>
      </trkpt>
      <trkpt lat="42.401127" lon="-7.721916">
        <time>2021-11-27T12:50:58Z</time>
      </trkpt>
      <trkpt lat="42.40113" lon="-7.721905">
        <time>2021-11-27T12:50:59Z</time>
      </trkpt>
      <trkpt lat="42.401134" lon="-7.721898">
        <time>2021-11-27T12:51:00Z</time>
      </trkpt>
      <trkpt lat="42.40114" lon="-7.721895">
        <time>2021-11-27T12:51:01Z</time>
      </trkpt>
      <trkpt lat="42.401146" lon="-7.721894">
        <time>2021-11-27T12:51:02Z</time>
      </trkpt>
      <trkpt lat="42.401157" lon="-7.721894">
        <time>2021-11-27T12:51:03Z</time>
      </trkpt>
      <trkpt lat="42.40117" lon="-7.7218924">
        <time>2021-11-27T12:51:04Z</time>
      </trkpt>
      <trkpt lat="42.401176" lon="-7.72189">
        <time>2021-11-27T12:51:05Z</time>
      </trkpt>
      <trkpt lat="42.401188" lon="-7.721888">
        <time>2021-11-27T12:51:06Z</time>
      </trkpt>
      <trkpt lat="42.4012" lon="-7.721885">
        <time>2021-11-27T12:51:07Z</time>
      </trkpt>
      <trkpt lat="42.401207" lon="-7.721881">
        <time>2021-11-27T12:51:08Z</time>
      </trkpt>
      <trkpt lat="42.40122" lon="-7.7218757">
        <time>2021-11-27T12:51:09Z</time>
      </trkpt>
      <trkpt lat="42.401222" lon="-7.7218676">
        <time>2021-11-27T12:51:10Z</time>
      </trkpt>
      <trkpt lat="42.401234" lon="-7.721859">
        <time>2021-11-27T12:51:11Z</time>
      </trkpt>
      <trkpt lat="42.401237" lon="-7.721853">
        <time>2021-11-27T12:51:12Z</time>
      </trkpt>
      <trkpt lat="42.40125" lon="-7.721847">
        <time>2021-11-27T12:51:13Z</time>
      </trkpt>
      <trkpt lat="42.40126" lon="-7.721842">
        <time>2021-11-27T12:51:14Z</time>
      </trkpt>
      <trkpt lat="42.401268" lon="-7.7218356">
        <time>2021-11-27T12:51:14Z</time>
      </trkpt>
      <trkpt lat="42.401283" lon="-7.72183">
        <time>2021-11-27T12:51:15Z</time>
      </trkpt>
      <trkpt lat="42.40129" lon="-7.7218227">
        <time>2021-11-27T12:51:16Z</time>
      </trkpt>
      <trkpt lat="42.401302" lon="-7.721815">
        <time>2021-11-27T12:51:17Z</time>
      </trkpt>
      <trkpt lat="42.401318" lon="-7.7218084">
        <time>2021-11-27T12:51:18Z</time>
      </trkpt>
      <trkpt lat="42.401325" lon="-7.7218027">
        <time>2021-11-27T12:51:19Z</time>
      </trkpt>
      <trkpt lat="42.401333" lon="-7.7218003">
        <time>2021-11-27T12:51:20Z</time>
      </trkpt>
      <trkpt lat="42.40134" lon="-7.7217965">
        <time>2021-11-27T12:51:21Z</time>
      </trkpt>
      <trkpt lat="42.401352" lon="-7.7217903">
        <time>2021-11-27T12:51:22Z</time>
      </trkpt>
      <trkpt lat="42.401363" lon="-7.721785">
        <time>2021-11-27T12:51:23Z</time>
      </trkpt>
      <trkpt lat="42.40137" lon="-7.7217803">
        <time>2021-11-27T12:51:24Z</time>
      </trkpt>
      <trkpt lat="42.401386" lon="-7.7217765">
        <time>2021-11-27T12:51:25Z</time>
      </trkpt>
      <trkpt lat="42.401394" lon="-7.7217717">
        <time>2021-11-27T12:51:26Z</time>
      </trkpt>
      <trkpt lat="42.401405" lon="-7.721765">
        <time>2021-11-27T12:51:27Z</time>
      </trkpt>
      <trkpt lat="42.401417" lon="-7.7217593">
        <time>2021-11-27T12:51:28Z</time>
      </trkpt>
      <trkpt lat="42.401424" lon="-7.721753">
        <time>2021-11-27T12:51:29Z</time>
      </trkpt>
      <trkpt lat="42.401436" lon="-7.721748">
        <time>2021-11-27T12:51:30Z</time>
      </trkpt>
      <trkpt lat="42.401447" lon="-7.721742">
        <time>2021-11-27T12:51:31Z</time>
      </trkpt>
      <trkpt lat="42.401463" lon="-7.7217355">
        <time>2021-11-27T12:51:32Z</time>
      </trkpt>
      <trkpt lat="42.401474" lon="-7.7217274">
        <time>2021-11-27T12:51:33Z</time>
      </trkpt>
      <trkpt lat="42.401485" lon="-7.7217183">
        <time>2021-11-27T12:51:34Z</time>
      </trkpt>
      <trkpt lat="42.401497" lon="-7.7217083">
        <time>2021-11-27T12:51:35Z</time>
      </trkpt>
      <trkpt lat="42.401505" lon="-7.7216988">
        <time>2021-11-27T12:51:36Z</time>
      </trkpt>
      <trkpt lat="42.401516" lon="-7.7216864">
        <time>2021-11-27T12:51:37Z</time>
      </trkpt>
      <trkpt lat="42.401524" lon="-7.721675">
        <time>2021-11-27T12:51:38Z</time>
      </trkpt>
      <trkpt lat="42.401527" lon="-7.721664">
        <time>2021-11-27T12:51:39Z</time>
      </trkpt>
      <trkpt lat="42.401535" lon="-7.721654">
        <time>2021-11-27T12:51:40Z</time>
      </trkpt>
      <trkpt lat="42.401543" lon="-7.721644">
        <time>2021-11-27T12:51:41Z</time>
      </trkpt>
      <trkpt lat="42.401546" lon="-7.7216344">
        <time>2021-11-27T12:51:42Z</time>
      </trkpt>
      <trkpt lat="42.40155" lon="-7.721622">
        <time>2021-11-27T12:51:43Z</time>
      </trkpt>
      <trkpt lat="42.401558" lon="-7.721609">
        <time>2021-11-27T12:51:44Z</time>
      </trkpt>
      <trkpt lat="42.401566" lon="-7.7215953">
        <time>2021-11-27T12:51:45Z</time>
      </trkpt>
      <trkpt lat="42.401573" lon="-7.721582">
        <time>2021-11-27T12:51:46Z</time>
      </trkpt>
      <trkpt lat="42.40158" lon="-7.721571">
        <time>2021-11-27T12:51:47Z</time>
      </trkpt>
      <trkpt lat="42.401585" lon="-7.721561">
        <time>2021-11-27T12:51:48Z</time>
      </trkpt>
      <trkpt lat="42.401592" lon="-7.72155">
        <time>2021-11-27T12:51:49Z</time>
      </trkpt>
      <trkpt lat="42.4016" lon="-7.721541">
        <time>2021-11-27T12:51:50Z</time>
      </trkpt>
      <trkpt lat="42.40161" lon="-7.721531">
        <time>2021-11-27T12:51:51Z</time>
      </trkpt>
      <trkpt lat="42.40162" lon="-7.7215195">
        <time>2021-11-27T12:51:52Z</time>
      </trkpt>
      <trkpt lat="42.401627" lon="-7.721508">
        <time>2021-11-27T12:51:53Z</time>
      </trkpt>
      <trkpt lat="42.401634" lon="-7.721497">
        <time>2021-11-27T12:51:54Z</time>
      </trkpt>
      <trkpt lat="42.40164" lon="-7.7214856">
        <time>2021-11-27T12:51:55Z</time>
      </trkpt>
      <trkpt lat="42.40165" lon="-7.7214737">
        <time>2021-11-27T12:51:56Z</time>
      </trkpt>
      <trkpt lat="42.401657" lon="-7.721462">
        <time>2021-11-27T12:51:57Z</time>
      </trkpt>
      <trkpt lat="42.40166" lon="-7.7214494">
        <time>2021-11-27T12:51:58Z</time>
      </trkpt>
      <trkpt lat="42.401665" lon="-7.7214375">
        <time>2021-11-27T12:51:59Z</time>
      </trkpt>
      <trkpt lat="42.401672" lon="-7.721427">
        <time>2021-11-27T12:52:00Z</time>
      </trkpt>
      <trkpt lat="42.401684" lon="-7.7214184">
        <time>2021-11-27T12:52:01Z</time>
      </trkpt>
      <trkpt lat="42.40169" lon="-7.721409">
        <time>2021-11-27T12:52:02Z</time>
      </trkpt>
      <trkpt lat="42.401703" lon="-7.721399">
        <time>2021-11-27T12:52:03Z</time>
      </trkpt>
      <trkpt lat="42.401714" lon="-7.7213893">
        <time>2021-11-27T12:52:04Z</time>
      </trkpt>
      <trkpt lat="42.401726" lon="-7.7213798">
        <time>2021-11-27T12:52:05Z</time>
      </trkpt>
      <trkpt lat="42.401737" lon="-7.7213697">
        <time>2021-11-27T12:52:06Z</time>
      </trkpt>
      <trkpt lat="42.40175" lon="-7.7213607">
        <time>2021-11-27T12:52:07Z</time>
      </trkpt>
      <trkpt lat="42.40176" lon="-7.72135">
        <time>2021-11-27T12:52:08Z</time>
      </trkpt>
      <trkpt lat="42.401768" lon="-7.7213416">
        <time>2021-11-27T12:52:09Z</time>
      </trkpt>
      <trkpt lat="42.401775" lon="-7.7213326">
        <time>2021-11-27T12:52:10Z</time>
      </trkpt>
      <trkpt lat="42.401783" lon="-7.7213235">
        <time>2021-11-27T12:52:11Z</time>
      </trkpt>
      <trkpt lat="42.401794" lon="-7.7213144">
        <time>2021-11-27T12:52:12Z</time>
      </trkpt>
      <trkpt lat="42.401806" lon="-7.7213078">
        <time>2021-11-27T12:52:13Z</time>
      </trkpt>
      <trkpt lat="42.401814" lon="-7.721299">
        <time>2021-11-27T12:52:14Z</time>
      </trkpt>
      <trkpt lat="42.40182" lon="-7.721291">
        <time>2021-11-27T12:52:15Z</time>
      </trkpt>
      <trkpt lat="42.401833" lon="-7.721282">
        <time>2021-11-27T12:52:16Z</time>
      </trkpt>
      <trkpt lat="42.401844" lon="-7.7212706">
        <time>2021-11-27T12:52:17Z</time>
      </trkpt>
      <trkpt lat="42.401855" lon="-7.72126">
        <time>2021-11-27T12:52:18Z</time>
      </trkpt>
      <trkpt lat="42.401867" lon="-7.72125">
        <time>2021-11-27T12:52:19Z</time>
      </trkpt>
      <trkpt lat="42.40188" lon="-7.721241">
        <time>2021-11-27T12:52:20Z</time>
      </trkpt>
      <trkpt lat="42.401894" lon="-7.7212296">
        <time>2021-11-27T12:52:21Z</time>
      </trkpt>
      <trkpt lat="42.4019" lon="-7.7212167">
        <time>2021-11-27T12:52:22Z</time>
      </trkpt>
      <trkpt lat="42.40191" lon="-7.721205">
        <time>2021-11-27T12:52:23Z</time>
      </trkpt>
      <trkpt lat="42.401913" lon="-7.721194">
        <time>2021-11-27T12:52:24Z</time>
      </trkpt>
      <trkpt lat="42.401917" lon="-7.7211814">
        <time>2021-11-27T12:52:25Z</time>
      </trkpt>
      <trkpt lat="42.401924" lon="-7.721168">
        <time>2021-11-27T12:52:26Z</time>
      </trkpt>
      <trkpt lat="42.401928" lon="-7.7211547">
        <time>2021-11-27T12:52:27Z</time>
      </trkpt>
      <trkpt lat="42.401936" lon="-7.7211432">
        <time>2021-11-27T12:52:28Z</time>
      </trkpt>
      <trkpt lat="42.401943" lon="-7.7211304">
        <time>2021-11-27T12:52:29Z</time>
      </trkpt>
      <trkpt lat="42.401955" lon="-7.721118">
        <time>2021-11-27T12:52:30Z</time>
      </trkpt>
      <trkpt lat="42.401962" lon="-7.721104">
        <time>2021-11-27T12:52:31Z</time>
      </trkpt>
      <trkpt lat="42.401974" lon="-7.72109">
        <time>2021-11-27T12:52:32Z</time>
      </trkpt>
      <trkpt lat="42.401985" lon="-7.7210765">
        <time>2021-11-27T12:52:33Z</time>
      </trkpt>
      <trkpt lat="42.401993" lon="-7.7210636">
        <time>2021-11-27T12:52:34Z</time>
      </trkpt>
      <trkpt lat="42.402004" lon="-7.7210507">
        <time>2021-11-27T12:52:35Z</time>
      </trkpt>
      <trkpt lat="42.40201" lon="-7.721039">
        <time>2021-11-27T12:52:36Z</time>
      </trkpt>
      <trkpt lat="42.402023" lon="-7.7210255">
        <time>2021-11-27T12:52:37Z</time>
      </trkpt>
      <trkpt lat="42.40203" lon="-7.7210116">
        <time>2021-11-27T12:52:38Z</time>
      </trkpt>
      <trkpt lat="42.40204" lon="-7.7209964">
        <time>2021-11-27T12:52:39Z</time>
      </trkpt>
      <trkpt lat="42.402046" lon="-7.7209816">
        <time>2021-11-27T12:52:40Z</time>
      </trkpt>
      <trkpt lat="42.402054" lon="-7.7209663">
        <time>2021-11-27T12:52:41Z</time>
      </trkpt>
      <trkpt lat="42.40206" lon="-7.720951">
        <time>2021-11-27T12:52:42Z</time>
      </trkpt>
      <trkpt lat="42.402073" lon="-7.7209363">
        <time>2021-11-27T12:52:43Z</time>
      </trkpt>
      <trkpt lat="42.402084" lon="-7.7209244">
        <time>2021-11-27T12:52:44Z</time>
      </trkpt>
      <trkpt lat="42.402096" lon="-7.7209115">
        <time>2021-11-27T12:52:45Z</time>
      </trkpt>
      <trkpt lat="42.402103" lon="-7.720902">
        <time>2021-11-27T12:52:46Z</time>
      </trkpt>
      <trkpt lat="42.402115" lon="-7.720893">
        <time>2021-11-27T12:52:47Z</time>
      </trkpt>
      <trkpt lat="42.402126" lon="-7.7208843">
        <time>2021-11-27T12:52:48Z</time>
      </trkpt>
      <trkpt lat="42.402138" lon="-7.720876">
        <time>2021-11-27T12:52:50Z</time>
      </trkpt>
      <trkpt lat="42.40215" lon="-7.7208676">
        <time>2021-11-27T12:52:50Z</time>
      </trkpt>
      <trkpt lat="42.402157" lon="-7.72086">
        <time>2021-11-27T12:52:51Z</time>
      </trkpt>
      <trkpt lat="42.402172" lon="-7.720852">
        <time>2021-11-27T12:52:52Z</time>
      </trkpt>
      <trkpt lat="42.40218" lon="-7.7208433">
        <time>2021-11-27T12:52:53Z</time>
      </trkpt>
      <trkpt lat="42.40219" lon="-7.720834">
        <time>2021-11-27T12:52:54Z</time>
      </trkpt>
      <trkpt lat="42.402203" lon="-7.7208257">
        <time>2021-11-27T12:52:55Z</time>
      </trkpt>
      <trkpt lat="42.40221" lon="-7.7208166">
        <time>2021-11-27T12:52:56Z</time>
      </trkpt>
      <trkpt lat="42.402225" lon="-7.7208066">
        <time>2021-11-27T12:52:57Z</time>
      </trkpt>
      <trkpt lat="42.402233" lon="-7.720798">
        <time>2021-11-27T12:52:58Z</time>
      </trkpt>
      <trkpt lat="42.402245" lon="-7.720789">
        <time>2021-11-27T12:52:59Z</time>
      </trkpt>
      <trkpt lat="42.402256" lon="-7.7207794">
        <time>2021-11-27T12:53:00Z</time>
      </trkpt>
      <trkpt lat="42.402267" lon="-7.7207685">
        <time>2021-11-27T12:53:01Z</time>
      </trkpt>
      <trkpt lat="42.40228" lon="-7.720759">
        <time>2021-11-27T12:53:02Z</time>
      </trkpt>
      <trkpt lat="42.40229" lon="-7.7207513">
        <time>2021-11-27T12:53:03Z</time>
      </trkpt>
      <trkpt lat="42.4023" lon="-7.720744">
        <time>2021-11-27T12:53:04Z</time>
      </trkpt>
      <trkpt lat="42.402313" lon="-7.7207384">
        <time>2021-11-27T12:53:05Z</time>
      </trkpt>
      <trkpt lat="42.402332" lon="-7.720734">
        <time>2021-11-27T12:53:06Z</time>
      </trkpt>
      <trkpt lat="42.402344" lon="-7.7207303">
        <time>2021-11-27T12:53:07Z</time>
      </trkpt>
      <trkpt lat="42.40236" lon="-7.720725">
        <time>2021-11-27T12:53:08Z</time>
      </trkpt>
      <trkpt lat="42.402374" lon="-7.720721">
        <time>2021-11-27T12:53:09Z</time>
      </trkpt>
      <trkpt lat="42.40238" lon="-7.720716">
        <time>2021-11-27T12:53:10Z</time>
      </trkpt>
      <trkpt lat="42.402397" lon="-7.7207117">
        <time>2021-11-27T12:53:11Z</time>
      </trkpt>
      <trkpt lat="42.402405" lon="-7.7207065">
        <time>2021-11-27T12:53:12Z</time>
      </trkpt>
      <trkpt lat="42.40242" lon="-7.720701">
        <time>2021-11-27T12:53:13Z</time>
      </trkpt>
      <trkpt lat="42.402428" lon="-7.7206974">
        <time>2021-11-27T12:53:14Z</time>
      </trkpt>
      <trkpt lat="42.402443" lon="-7.720697">
        <time>2021-11-27T12:53:15Z</time>
      </trkpt>
      <trkpt lat="42.402454" lon="-7.7206974">
        <time>2021-11-27T12:53:16Z</time>
      </trkpt>
      <trkpt lat="42.40247" lon="-7.7206984">
        <time>2021-11-27T12:53:17Z</time>
      </trkpt>
      <trkpt lat="42.40248" lon="-7.720699">
        <time>2021-11-27T12:53:18Z</time>
      </trkpt>
      <trkpt lat="42.402493" lon="-7.7206993">
        <time>2021-11-27T12:53:19Z</time>
      </trkpt>
      <trkpt lat="42.402508" lon="-7.7207007">
        <time>2021-11-27T12:53:20Z</time>
      </trkpt>
      <trkpt lat="42.40252" lon="-7.7207026">
        <time>2021-11-27T12:53:21Z</time>
      </trkpt>
      <trkpt lat="42.40253" lon="-7.720704">
        <time>2021-11-27T12:53:22Z</time>
      </trkpt>
      <trkpt lat="42.402546" lon="-7.7207065">
        <time>2021-11-27T12:53:23Z</time>
      </trkpt>
      <trkpt lat="42.40256" lon="-7.7207103">
        <time>2021-11-27T12:53:24Z</time>
      </trkpt>
      <trkpt lat="42.40257" lon="-7.7207155">
        <time>2021-11-27T12:53:25Z</time>
      </trkpt>
      <trkpt lat="42.402584" lon="-7.7207193">
        <time>2021-11-27T12:53:26Z</time>
      </trkpt>
      <trkpt lat="42.40259" lon="-7.7207236">
        <time>2021-11-27T12:53:27Z</time>
      </trkpt>
      <trkpt lat="42.402603" lon="-7.720731">
        <time>2021-11-27T12:53:28Z</time>
      </trkpt>
      <trkpt lat="42.402615" lon="-7.7207375">
        <time>2021-11-27T12:53:29Z</time>
      </trkpt>
      <trkpt lat="42.40263" lon="-7.720742">
        <time>2021-11-27T12:53:30Z</time>
      </trkpt>
      <trkpt lat="42.402637" lon="-7.7207475">
        <time>2021-11-27T12:53:31Z</time>
      </trkpt>
      <trkpt lat="42.40265" lon="-7.7207527">
        <time>2021-11-27T12:53:32Z</time>
      </trkpt>
      <trkpt lat="42.402664" lon="-7.7207565">
        <time>2021-11-27T12:53:33Z</time>
      </trkpt>
      <trkpt lat="42.40267" lon="-7.72076">
        <time>2021-11-27T12:53:34Z</time>
      </trkpt>
      <trkpt lat="42.40268" lon="-7.7207627">
        <time>2021-11-27T12:53:35Z</time>
      </trkpt>
      <trkpt lat="42.402687" lon="-7.7207665">
        <time>2021-11-27T12:53:36Z</time>
      </trkpt>
      <trkpt lat="42.402695" lon="-7.720773">
        <time>2021-11-27T12:53:37Z</time>
      </trkpt>
      <trkpt lat="42.4027" lon="-7.7207804">
        <time>2021-11-27T12:53:38Z</time>
      </trkpt>
      <trkpt lat="42.402706" lon="-7.720787">
        <time>2021-11-27T12:53:39Z</time>
      </trkpt>
      <trkpt lat="42.402714" lon="-7.7207975">
        <time>2021-11-27T12:53:40Z</time>
      </trkpt>
      <trkpt lat="42.402725" lon="-7.720809">
        <time>2021-11-27T12:53:41Z</time>
      </trkpt>
      <trkpt lat="42.402733" lon="-7.7208223">
        <time>2021-11-27T12:53:42Z</time>
      </trkpt>
      <trkpt lat="42.402744" lon="-7.7208357">
        <time>2021-11-27T12:53:43Z</time>
      </trkpt>
      <trkpt lat="42.402756" lon="-7.7208486">
        <time>2021-11-27T12:53:44Z</time>
      </trkpt>
      <trkpt lat="42.402767" lon="-7.720859">
        <time>2021-11-27T12:53:45Z</time>
      </trkpt>
      <trkpt lat="42.40278" lon="-7.7208676">
        <time>2021-11-27T12:53:46Z</time>
      </trkpt>
      <trkpt lat="42.402786" lon="-7.720876">
        <time>2021-11-27T12:53:47Z</time>
      </trkpt>
      <trkpt lat="42.402794" lon="-7.7208834">
        <time>2021-11-27T12:53:48Z</time>
      </trkpt>
      <trkpt lat="42.402805" lon="-7.7208896">
        <time>2021-11-27T12:53:49Z</time>
      </trkpt>
      <trkpt lat="42.402817" lon="-7.720898">
        <time>2021-11-27T12:53:50Z</time>
      </trkpt>
      <trkpt lat="42.402824" lon="-7.720905">
        <time>2021-11-27T12:53:51Z</time>
      </trkpt>
      <trkpt lat="42.402836" lon="-7.720912">
        <time>2021-11-27T12:53:52Z</time>
      </trkpt>
      <trkpt lat="42.402843" lon="-7.7209196">
        <time>2021-11-27T12:53:53Z</time>
      </trkpt>
      <trkpt lat="42.40285" lon="-7.720925">
        <time>2021-11-27T12:53:54Z</time>
      </trkpt>
      <trkpt lat="42.40286" lon="-7.7209272">
        <time>2021-11-27T12:53:55Z</time>
      </trkpt>
      <trkpt lat="42.40287" lon="-7.720927">
        <time>2021-11-27T12:53:56Z</time>
      </trkpt>
      <trkpt lat="42.40288" lon="-7.7209253">
        <time>2021-11-27T12:53:57Z</time>
      </trkpt>
      <trkpt lat="42.402893" lon="-7.7209244">
        <time>2021-11-27T12:53:58Z</time>
      </trkpt>
      <trkpt lat="42.402905" lon="-7.7209225">
        <time>2021-11-27T12:53:59Z</time>
      </trkpt>
      <trkpt lat="42.40292" lon="-7.720921">
        <time>2021-11-27T12:54:00Z</time>
      </trkpt>
      <trkpt lat="42.40293" lon="-7.7209234">
        <time>2021-11-27T12:54:01Z</time>
      </trkpt>
      <trkpt lat="42.402943" lon="-7.7209287">
        <time>2021-11-27T12:54:02Z</time>
      </trkpt>
      <trkpt lat="42.402958" lon="-7.720933">
        <time>2021-11-27T12:54:03Z</time>
      </trkpt>
      <trkpt lat="42.402973" lon="-7.720937">
        <time>2021-11-27T12:54:04Z</time>
      </trkpt>
      <trkpt lat="42.40298" lon="-7.72094">
        <time>2021-11-27T12:54:05Z</time>
      </trkpt>
      <trkpt lat="42.402996" lon="-7.720938">
        <time>2021-11-27T12:54:06Z</time>
      </trkpt>
      <trkpt lat="42.403004" lon="-7.720937">
        <time>2021-11-27T12:54:07Z</time>
      </trkpt>
      <trkpt lat="42.40302" lon="-7.720936">
        <time>2021-11-27T12:54:08Z</time>
      </trkpt>
      <trkpt lat="42.403027" lon="-7.7209363">
        <time>2021-11-27T12:54:09Z</time>
      </trkpt>
      <trkpt lat="42.40304" lon="-7.720937">
        <time>2021-11-27T12:54:10Z</time>
      </trkpt>
      <trkpt lat="42.403057" lon="-7.720936">
        <time>2021-11-27T12:54:11Z</time>
      </trkpt>
      <trkpt lat="42.403076" lon="-7.720935">
        <time>2021-11-27T12:54:12Z</time>
      </trkpt>
      <trkpt lat="42.40309" lon="-7.720935">
        <time>2021-11-27T12:54:13Z</time>
      </trkpt>
      <trkpt lat="42.403107" lon="-7.720934">
        <time>2021-11-27T12:54:14Z</time>
      </trkpt>
      <trkpt lat="42.40312" lon="-7.7209306">
        <time>2021-11-27T12:54:15Z</time>
      </trkpt>
      <trkpt lat="42.40313" lon="-7.7209272">
        <time>2021-11-27T12:54:16Z</time>
      </trkpt>
      <trkpt lat="42.403145" lon="-7.7209244">
        <time>2021-11-27T12:54:17Z</time>
      </trkpt>
      <trkpt lat="42.403156" lon="-7.7209225">
        <time>2021-11-27T12:54:18Z</time>
      </trkpt>
      <trkpt lat="42.403168" lon="-7.7209196">
        <time>2021-11-27T12:54:19Z</time>
      </trkpt>
      <trkpt lat="42.403183" lon="-7.720919">
        <time>2021-11-27T12:54:20Z</time>
      </trkpt>
      <trkpt lat="42.40319" lon="-7.7209215">
        <time>2021-11-27T12:54:21Z</time>
      </trkpt>
      <trkpt lat="42.403202" lon="-7.7209263">
        <time>2021-11-27T12:54:22Z</time>
      </trkpt>
      <trkpt lat="42.403214" lon="-7.720932">
        <time>2021-11-27T12:54:23Z</time>
      </trkpt>
      <trkpt lat="42.403225" lon="-7.720936">
        <time>2021-11-27T12:54:24Z</time>
      </trkpt>
      <trkpt lat="42.403236" lon="-7.7209387">
        <time>2021-11-27T12:54:25Z</time>
      </trkpt>
      <trkpt lat="42.403248" lon="-7.7209396">
        <time>2021-11-27T12:54:26Z</time>
      </trkpt>
      <trkpt lat="42.403255" lon="-7.720938">
        <time>2021-11-27T12:54:27Z</time>
      </trkpt>
      <trkpt lat="42.403267" lon="-7.7209363">
        <time>2021-11-27T12:54:28Z</time>
      </trkpt>
      <trkpt lat="42.40328" lon="-7.720937">
        <time>2021-11-27T12:54:29Z</time>
      </trkpt>
      <trkpt lat="42.403286" lon="-7.7209387">
        <time>2021-11-27T12:54:30Z</time>
      </trkpt>
      <trkpt lat="42.4033" lon="-7.7209406">
        <time>2021-11-27T12:54:31Z</time>
      </trkpt>
      <trkpt lat="42.403313" lon="-7.720944">
        <time>2021-11-27T12:54:32Z</time>
      </trkpt>
      <trkpt lat="42.403324" lon="-7.7209506">
        <time>2021-11-27T12:54:33Z</time>
      </trkpt>
      <trkpt lat="42.40333" lon="-7.720958">
        <time>2021-11-27T12:54:34Z</time>
      </trkpt>
      <trkpt lat="42.40334" lon="-7.720964">
        <time>2021-11-27T12:54:35Z</time>
      </trkpt>
      <trkpt lat="42.40335" lon="-7.7209682">
        <time>2021-11-27T12:54:36Z</time>
      </trkpt>
      <trkpt lat="42.403362" lon="-7.7209716">
        <time>2021-11-27T12:54:37Z</time>
      </trkpt>
      <trkpt lat="42.40337" lon="-7.720975">
        <time>2021-11-27T12:54:38Z</time>
      </trkpt>
      <trkpt lat="42.40338" lon="-7.7209787">
        <time>2021-11-27T12:54:39Z</time>
      </trkpt>
      <trkpt lat="42.403393" lon="-7.7209845">
        <time>2021-11-27T12:54:40Z</time>
      </trkpt>
      <trkpt lat="42.4034" lon="-7.7209888">
        <time>2021-11-27T12:54:41Z</time>
      </trkpt>
      <trkpt lat="42.40341" lon="-7.7209926">
        <time>2021-11-27T12:54:42Z</time>
      </trkpt>
      <trkpt lat="42.403423" lon="-7.7209964">
        <time>2021-11-27T12:54:43Z</time>
      </trkpt>
      <trkpt lat="42.40343" lon="-7.721001">
        <time>2021-11-27T12:54:44Z</time>
      </trkpt>
      <trkpt lat="42.403442" lon="-7.721006">
        <time>2021-11-27T12:54:45Z</time>
      </trkpt>
      <trkpt lat="42.403454" lon="-7.7210107">
        <time>2021-11-27T12:54:46Z</time>
      </trkpt>
      <trkpt lat="42.403465" lon="-7.721015">
        <time>2021-11-27T12:54:47Z</time>
      </trkpt>
      <trkpt lat="42.403477" lon="-7.72102">
        <time>2021-11-27T12:54:48Z</time>
      </trkpt>
      <trkpt lat="42.40349" lon="-7.7210245">
        <time>2021-11-27T12:54:49Z</time>
      </trkpt>
      <trkpt lat="42.403496" lon="-7.7210283">
        <time>2021-11-27T12:54:50Z</time>
      </trkpt>
      <trkpt lat="42.403503" lon="-7.721033">
        <time>2021-11-27T12:54:51Z</time>
      </trkpt>
      <trkpt lat="42.40351" lon="-7.7210393">
        <time>2021-11-27T12:54:52Z</time>
      </trkpt>
      <trkpt lat="42.403522" lon="-7.7210464">
        <time>2021-11-27T12:54:53Z</time>
      </trkpt>
      <trkpt lat="42.40353" lon="-7.721056">
        <time>2021-11-27T12:54:54Z</time>
      </trkpt>
      <trkpt lat="42.403538" lon="-7.721064">
        <time>2021-11-27T12:54:55Z</time>
      </trkpt>
      <trkpt lat="42.40355" lon="-7.721072">
        <time>2021-11-27T12:54:56Z</time>
      </trkpt>
      <trkpt lat="42.40356" lon="-7.72108">
        <time>2021-11-27T12:54:57Z</time>
      </trkpt>
      <trkpt lat="42.403576" lon="-7.7210865">
        <time>2021-11-27T12:54:58Z</time>
      </trkpt>
      <trkpt lat="42.403587" lon="-7.7210946">
        <time>2021-11-27T12:54:59Z</time>
      </trkpt>
      <trkpt lat="42.403595" lon="-7.721101">
        <time>2021-11-27T12:55:00Z</time>
      </trkpt>
      <trkpt lat="42.403595" lon="-7.7211084">
        <time>2021-11-27T12:55:01Z</time>
      </trkpt>
      <trkpt lat="42.403603" lon="-7.7211156">
        <time>2021-11-27T12:55:02Z</time>
      </trkpt>
      <trkpt lat="42.40361" lon="-7.7211213">
        <time>2021-11-27T12:55:03Z</time>
      </trkpt>
      <trkpt lat="42.403614" lon="-7.721125">
        <time>2021-11-27T12:55:04Z</time>
      </trkpt>
      <trkpt lat="42.403625" lon="-7.721127">
        <time>2021-11-27T12:55:05Z</time>
      </trkpt>
      <trkpt lat="42.403637" lon="-7.721129">
        <time>2021-11-27T12:55:06Z</time>
      </trkpt>
      <trkpt lat="42.40365" lon="-7.721131">
        <time>2021-11-27T12:55:07Z</time>
      </trkpt>
      <trkpt lat="42.40366" lon="-7.7211328">
        <time>2021-11-27T12:55:08Z</time>
      </trkpt>
      <trkpt lat="42.403675" lon="-7.721134">
        <time>2021-11-27T12:55:09Z</time>
      </trkpt>
      <trkpt lat="42.40369" lon="-7.7211347">
        <time>2021-11-27T12:55:10Z</time>
      </trkpt>
      <trkpt lat="42.4037" lon="-7.721134">
        <time>2021-11-27T12:55:11Z</time>
      </trkpt>
      <trkpt lat="42.403713" lon="-7.721133">
        <time>2021-11-27T12:55:12Z</time>
      </trkpt>
      <trkpt lat="42.40373" lon="-7.721133">
        <time>2021-11-27T12:55:13Z</time>
      </trkpt>
      <trkpt lat="42.40374" lon="-7.721136">
        <time>2021-11-27T12:55:14Z</time>
      </trkpt>
      <trkpt lat="42.40375" lon="-7.7211394">
        <time>2021-11-27T12:55:15Z</time>
      </trkpt>
      <trkpt lat="42.403763" lon="-7.7211423">
        <time>2021-11-27T12:55:16Z</time>
      </trkpt>
      <trkpt lat="42.403774" lon="-7.7211456">
        <time>2021-11-27T12:55:17Z</time>
      </trkpt>
      <trkpt lat="42.403786" lon="-7.721149">
        <time>2021-11-27T12:55:18Z</time>
      </trkpt>
      <trkpt lat="42.403797" lon="-7.721152">
        <time>2021-11-27T12:55:19Z</time>
      </trkpt>
      <trkpt lat="42.40381" lon="-7.7211537">
        <time>2021-11-27T12:55:20Z</time>
      </trkpt>
      <trkpt lat="42.40382" lon="-7.721155">
        <time>2021-11-27T12:55:21Z</time>
      </trkpt>
      <trkpt lat="42.40383" lon="-7.7211556">
        <time>2021-11-27T12:55:22Z</time>
      </trkpt>
      <trkpt lat="42.403843" lon="-7.7211537">
        <time>2021-11-27T12:55:23Z</time>
      </trkpt>
      <trkpt lat="42.403854" lon="-7.721148">
        <time>2021-11-27T12:55:24Z</time>
      </trkpt>
      <trkpt lat="42.403866" lon="-7.721142">
        <time>2021-11-27T12:55:25Z</time>
      </trkpt>
      <trkpt lat="42.403877" lon="-7.721137">
        <time>2021-11-27T12:55:26Z</time>
      </trkpt>
      <trkpt lat="42.403893" lon="-7.721134">
        <time>2021-11-27T12:55:27Z</time>
      </trkpt>
      <trkpt lat="42.403908" lon="-7.7211323">
        <time>2021-11-27T12:55:28Z</time>
      </trkpt>
      <trkpt lat="42.40392" lon="-7.7211313">
        <time>2021-11-27T12:55:29Z</time>
      </trkpt>
      <trkpt lat="42.40393" lon="-7.7211313">
        <time>2021-11-27T12:55:29Z</time>
      </trkpt>
      <trkpt lat="42.403942" lon="-7.7211294">
        <time>2021-11-27T12:55:30Z</time>
      </trkpt>
      <trkpt lat="42.403954" lon="-7.721125">
        <time>2021-11-27T12:55:31Z</time>
      </trkpt>
      <trkpt lat="42.40397" lon="-7.721123">
        <time>2021-11-27T12:55:32Z</time>
      </trkpt>
      <trkpt lat="42.403984" lon="-7.721123">
        <time>2021-11-27T12:55:33Z</time>
      </trkpt>
      <trkpt lat="42.404" lon="-7.721125">
        <time>2021-11-27T12:55:34Z</time>
      </trkpt>
      <trkpt lat="42.404015" lon="-7.7211266">
        <time>2021-11-27T12:55:35Z</time>
      </trkpt>
      <trkpt lat="42.404026" lon="-7.7211275">
        <time>2021-11-27T12:55:36Z</time>
      </trkpt>
      <trkpt lat="42.404037" lon="-7.7211304">
        <time>2021-11-27T12:55:37Z</time>
      </trkpt>
      <trkpt lat="42.40405" lon="-7.721133">
        <time>2021-11-27T12:55:38Z</time>
      </trkpt>
      <trkpt lat="42.40406" lon="-7.7211385">
        <time>2021-11-27T12:55:39Z</time>
      </trkpt>
      <trkpt lat="42.40407" lon="-7.7211432">
        <time>2021-11-27T12:55:40Z</time>
      </trkpt>
      <trkpt lat="42.404083" lon="-7.721146">
        <time>2021-11-27T12:55:41Z</time>
      </trkpt>
      <trkpt lat="42.404095" lon="-7.721147">
        <time>2021-11-27T12:55:42Z</time>
      </trkpt>
      <trkpt lat="42.404106" lon="-7.721148">
        <time>2021-11-27T12:55:43Z</time>
      </trkpt>
      <trkpt lat="42.404118" lon="-7.7211514">
        <time>2021-11-27T12:55:44Z</time>
      </trkpt>
      <trkpt lat="42.404125" lon="-7.7211566">
        <time>2021-11-27T12:55:45Z</time>
      </trkpt>
      <trkpt lat="42.404137" lon="-7.7211623">
        <time>2021-11-27T12:55:46Z</time>
      </trkpt>
      <trkpt lat="42.404144" lon="-7.721168">
        <time>2021-11-27T12:55:47Z</time>
      </trkpt>
      <trkpt lat="42.404152" lon="-7.7211757">
        <time>2021-11-27T12:55:49Z</time>
      </trkpt>
      <trkpt lat="42.404156" lon="-7.7211857">
        <time>2021-11-27T12:55:49Z</time>
      </trkpt>
      <trkpt lat="42.404163" lon="-7.721196">
        <time>2021-11-27T12:55:50Z</time>
      </trkpt>
      <trkpt lat="42.40417" lon="-7.721206">
        <time>2021-11-27T12:55:51Z</time>
      </trkpt>
      <trkpt lat="42.40418" lon="-7.721216">
        <time>2021-11-27T12:55:52Z</time>
      </trkpt>
      <trkpt lat="42.40419" lon="-7.7212243">
        <time>2021-11-27T12:55:53Z</time>
      </trkpt>
      <trkpt lat="42.404198" lon="-7.7212315">
        <time>2021-11-27T12:55:54Z</time>
      </trkpt>
      <trkpt lat="42.40421" lon="-7.7212386">
        <time>2021-11-27T12:55:55Z</time>
      </trkpt>
      <trkpt lat="42.404217" lon="-7.7212453">
        <time>2021-11-27T12:55:56Z</time>
      </trkpt>
      <trkpt lat="42.40423" lon="-7.721253">
        <time>2021-11-27T12:55:57Z</time>
      </trkpt>
      <trkpt lat="42.404236" lon="-7.7212615">
        <time>2021-11-27T12:55:58Z</time>
      </trkpt>
      <trkpt lat="42.40425" lon="-7.7212687">
        <time>2021-11-27T12:55:59Z</time>
      </trkpt>
      <trkpt lat="42.40426" lon="-7.7212753">
        <time>2021-11-27T12:56:00Z</time>
      </trkpt>
      <trkpt lat="42.404266" lon="-7.7212806">
        <time>2021-11-27T12:56:01Z</time>
      </trkpt>
      <trkpt lat="42.40428" lon="-7.7212863">
        <time>2021-11-27T12:56:02Z</time>
      </trkpt>
      <trkpt lat="42.40429" lon="-7.721293">
        <time>2021-11-27T12:56:03Z</time>
      </trkpt>
      <trkpt lat="42.404305" lon="-7.721301">
        <time>2021-11-27T12:56:04Z</time>
      </trkpt>
      <trkpt lat="42.404312" lon="-7.721308">
        <time>2021-11-27T12:56:05Z</time>
      </trkpt>
      <trkpt lat="42.404327" lon="-7.7213154">
        <time>2021-11-27T12:56:06Z</time>
      </trkpt>
      <trkpt lat="42.404335" lon="-7.721322">
        <time>2021-11-27T12:56:07Z</time>
      </trkpt>
      <trkpt lat="42.404343" lon="-7.7213297">
        <time>2021-11-27T12:56:08Z</time>
      </trkpt>
      <trkpt lat="42.40435" lon="-7.721338">
        <time>2021-11-27T12:56:09Z</time>
      </trkpt>
      <trkpt lat="42.40436" lon="-7.7213445">
        <time>2021-11-27T12:56:10Z</time>
      </trkpt>
      <trkpt lat="42.40437" lon="-7.721352">
        <time>2021-11-27T12:56:11Z</time>
      </trkpt>
      <trkpt lat="42.40438" lon="-7.721359">
        <time>2021-11-27T12:56:12Z</time>
      </trkpt>
      <trkpt lat="42.404392" lon="-7.721363">
        <time>2021-11-27T12:56:13Z</time>
      </trkpt>
      <trkpt lat="42.4044" lon="-7.7213683">
        <time>2021-11-27T12:56:14Z</time>
      </trkpt>
      <trkpt lat="42.404415" lon="-7.7213755">
        <time>2021-11-27T12:56:15Z</time>
      </trkpt>
      <trkpt lat="42.404423" lon="-7.721383">
        <time>2021-11-27T12:56:16Z</time>
      </trkpt>
      <trkpt lat="42.404434" lon="-7.721392">
        <time>2021-11-27T12:56:17Z</time>
      </trkpt>
      <trkpt lat="42.404446" lon="-7.7214003">
        <time>2021-11-27T12:56:18Z</time>
      </trkpt>
      <trkpt lat="42.404453" lon="-7.72141">
        <time>2021-11-27T12:56:19Z</time>
      </trkpt>
      <trkpt lat="42.404465" lon="-7.7214203">
        <time>2021-11-27T12:56:20Z</time>
      </trkpt>
      <trkpt lat="42.404472" lon="-7.7214303">
        <time>2021-11-27T12:56:21Z</time>
      </trkpt>
      <trkpt lat="42.40448" lon="-7.72144">
        <time>2021-11-27T12:56:22Z</time>
      </trkpt>
      <trkpt lat="42.40449" lon="-7.7214503">
        <time>2021-11-27T12:56:23Z</time>
      </trkpt>
      <trkpt lat="42.4045" lon="-7.721465">
        <time>2021-11-27T12:56:24Z</time>
      </trkpt>
      <trkpt lat="42.40451" lon="-7.7214804">
        <time>2021-11-27T12:56:25Z</time>
      </trkpt>
      <trkpt lat="42.404522" lon="-7.721497">
        <time>2021-11-27T12:56:26Z</time>
      </trkpt>
      <trkpt lat="42.40453" lon="-7.721512">
        <time>2021-11-27T12:56:27Z</time>
      </trkpt>
      <trkpt lat="42.404537" lon="-7.7215233">
        <time>2021-11-27T12:56:28Z</time>
      </trkpt>
      <trkpt lat="42.404545" lon="-7.721535">
        <time>2021-11-27T12:56:29Z</time>
      </trkpt>
      <trkpt lat="42.404552" lon="-7.7215457">
        <time>2021-11-27T12:56:30Z</time>
      </trkpt>
      <trkpt lat="42.404556" lon="-7.7215557">
        <time>2021-11-27T12:56:31Z</time>
      </trkpt>
      <trkpt lat="42.404568" lon="-7.721585">
        <time>2021-11-27T12:56:33Z</time>
      </trkpt>
      <trkpt lat="42.404568" lon="-7.7215858">
        <time>2021-11-27T12:56:34Z</time>
      </trkpt>
      <trkpt lat="42.404568" lon="-7.7215886">
        <time>2021-11-27T12:56:35Z</time>
      </trkpt>
      <trkpt lat="42.40456" lon="-7.721591">
        <time>2021-11-27T12:56:36Z</time>
      </trkpt>
      <trkpt lat="42.404552" lon="-7.7215934">
        <time>2021-11-27T12:56:37Z</time>
      </trkpt>
      <trkpt lat="42.404545" lon="-7.7215967">
        <time>2021-11-27T12:56:38Z</time>
      </trkpt>
      <trkpt lat="42.404537" lon="-7.7216005">
        <time>2021-11-27T12:56:39Z</time>
      </trkpt>
      <trkpt lat="42.40453" lon="-7.7216034">
        <time>2021-11-27T12:56:40Z</time>
      </trkpt>
      <trkpt lat="42.404522" lon="-7.7216043">
        <time>2021-11-27T12:56:41Z</time>
      </trkpt>
      <trkpt lat="42.40451" lon="-7.721606">
        <time>2021-11-27T12:56:42Z</time>
      </trkpt>
      <trkpt lat="42.4045" lon="-7.7216063">
        <time>2021-11-27T12:56:43Z</time>
      </trkpt>
      <trkpt lat="42.40449" lon="-7.721606">
        <time>2021-11-27T12:56:44Z</time>
      </trkpt>
      <trkpt lat="42.404476" lon="-7.721606">
        <time>2021-11-27T12:56:45Z</time>
      </trkpt>
      <trkpt lat="42.40447" lon="-7.721606">
        <time>2021-11-27T12:56:46Z</time>
      </trkpt>
      <trkpt lat="42.404457" lon="-7.7216077">
        <time>2021-11-27T12:56:47Z</time>
      </trkpt>
      <trkpt lat="42.404446" lon="-7.721611">
        <time>2021-11-27T12:56:48Z</time>
      </trkpt>
      <trkpt lat="42.404438" lon="-7.7216153">
        <time>2021-11-27T12:56:50Z</time>
      </trkpt>
      <trkpt lat="42.40443" lon="-7.7216206">
        <time>2021-11-27T12:56:50Z</time>
      </trkpt>
      <trkpt lat="42.404423" lon="-7.721626">
        <time>2021-11-27T12:56:51Z</time>
      </trkpt>
      <trkpt lat="42.404415" lon="-7.7216306">
        <time>2021-11-27T12:56:52Z</time>
      </trkpt>
      <trkpt lat="42.404408" lon="-7.721636">
        <time>2021-11-27T12:56:53Z</time>
      </trkpt>
      <trkpt lat="42.4044" lon="-7.72164">
        <time>2021-11-27T12:56:54Z</time>
      </trkpt>
      <trkpt lat="42.40439" lon="-7.7216454">
        <time>2021-11-27T12:56:55Z</time>
      </trkpt>
      <trkpt lat="42.40438" lon="-7.721651">
        <time>2021-11-27T12:56:56Z</time>
      </trkpt>
      <trkpt lat="42.40437" lon="-7.7216563">
        <time>2021-11-27T12:56:57Z</time>
      </trkpt>
      <trkpt lat="42.404358" lon="-7.7216616">
        <time>2021-11-27T12:56:58Z</time>
      </trkpt>
      <trkpt lat="42.40435" lon="-7.7216654">
        <time>2021-11-27T12:56:59Z</time>
      </trkpt>
      <trkpt lat="42.404343" lon="-7.721669">
        <time>2021-11-27T12:57:00Z</time>
      </trkpt>
      <trkpt lat="42.40433" lon="-7.7216725">
        <time>2021-11-27T12:57:01Z</time>
      </trkpt>
      <trkpt lat="42.40432" lon="-7.7216783">
        <time>2021-11-27T12:57:02Z</time>
      </trkpt>
      <trkpt lat="42.404312" lon="-7.721685">
        <time>2021-11-27T12:57:03Z</time>
      </trkpt>
      <trkpt lat="42.404305" lon="-7.7216916">
        <time>2021-11-27T12:57:04Z</time>
      </trkpt>
      <trkpt lat="42.404297" lon="-7.721697">
        <time>2021-11-27T12:57:05Z</time>
      </trkpt>
      <trkpt lat="42.40429" lon="-7.7217007">
        <time>2021-11-27T12:57:06Z</time>
      </trkpt>
      <trkpt lat="42.40428" lon="-7.7217035">
        <time>2021-11-27T12:57:07Z</time>
      </trkpt>
      <trkpt lat="42.404274" lon="-7.7217083">
        <time>2021-11-27T12:57:08Z</time>
      </trkpt>
      <trkpt lat="42.404266" lon="-7.7217126">
        <time>2021-11-27T12:57:09Z</time>
      </trkpt>
      <trkpt lat="42.40426" lon="-7.721718">
        <time>2021-11-27T12:57:10Z</time>
      </trkpt>
      <trkpt lat="42.40425" lon="-7.721724">
        <time>2021-11-27T12:57:11Z</time>
      </trkpt>
      <trkpt lat="42.404243" lon="-7.721731">
        <time>2021-11-27T12:57:12Z</time>
      </trkpt>
      <trkpt lat="42.404236" lon="-7.7217393">
        <time>2021-11-27T12:57:13Z</time>
      </trkpt>
      <trkpt lat="42.40423" lon="-7.721748">
        <time>2021-11-27T12:57:14Z</time>
      </trkpt>
      <trkpt lat="42.40422" lon="-7.721758">
        <time>2021-11-27T12:57:15Z</time>
      </trkpt>
      <trkpt lat="42.404213" lon="-7.721769">
        <time>2021-11-27T12:57:16Z</time>
      </trkpt>
      <trkpt lat="42.404205" lon="-7.72178">
        <time>2021-11-27T12:57:17Z</time>
      </trkpt>
      <trkpt lat="42.404198" lon="-7.721791">
        <time>2021-11-27T12:57:18Z</time>
      </trkpt>
      <trkpt lat="42.40419" lon="-7.7218">
        <time>2021-11-27T12:57:19Z</time>
      </trkpt>
      <trkpt lat="42.40418" lon="-7.7218075">
        <time>2021-11-27T12:57:20Z</time>
      </trkpt>
      <trkpt lat="42.40417" lon="-7.721812">
        <time>2021-11-27T12:57:21Z</time>
      </trkpt>
      <trkpt lat="42.404163" lon="-7.7218165">
        <time>2021-11-27T12:57:22Z</time>
      </trkpt>
      <trkpt lat="42.404156" lon="-7.721817">
        <time>2021-11-27T12:57:23Z</time>
      </trkpt>
      <trkpt lat="42.40415" lon="-7.7218194">
        <time>2021-11-27T12:57:24Z</time>
      </trkpt>
      <trkpt lat="42.40414" lon="-7.7218246">
        <time>2021-11-27T12:57:25Z</time>
      </trkpt>
      <trkpt lat="42.404133" lon="-7.721827">
        <time>2021-11-27T12:57:26Z</time>
      </trkpt>
      <trkpt lat="42.404125" lon="-7.7218304">
        <time>2021-11-27T12:57:27Z</time>
      </trkpt>
      <trkpt lat="42.404114" lon="-7.721834">
        <time>2021-11-27T12:57:28Z</time>
      </trkpt>
      <trkpt lat="42.404106" lon="-7.721842">
        <time>2021-11-27T12:57:29Z</time>
      </trkpt>
      <trkpt lat="42.404095" lon="-7.721851">
        <time>2021-11-27T12:57:30Z</time>
      </trkpt>
      <trkpt lat="42.404087" lon="-7.7218604">
        <time>2021-11-27T12:57:31Z</time>
      </trkpt>
      <trkpt lat="42.40408" lon="-7.7218714">
        <time>2021-11-27T12:57:32Z</time>
      </trkpt>
      <trkpt lat="42.40407" lon="-7.7218795">
        <time>2021-11-27T12:57:33Z</time>
      </trkpt>
      <trkpt lat="42.404064" lon="-7.721885">
        <time>2021-11-27T12:57:34Z</time>
      </trkpt>
      <trkpt lat="42.40406" lon="-7.7218904">
        <time>2021-11-27T12:57:35Z</time>
      </trkpt>
      <trkpt lat="42.404057" lon="-7.7218957">
        <time>2021-11-27T12:57:36Z</time>
      </trkpt>
      <trkpt lat="42.40405" lon="-7.721901">
        <time>2021-11-27T12:57:37Z</time>
      </trkpt>
      <trkpt lat="42.404045" lon="-7.7219067">
        <time>2021-11-27T12:57:38Z</time>
      </trkpt>
      <trkpt lat="42.40404" lon="-7.721911">
        <time>2021-11-27T12:57:39Z</time>
      </trkpt>
      <trkpt lat="42.404034" lon="-7.7219167">
        <time>2021-11-27T12:57:40Z</time>
      </trkpt>
      <trkpt lat="42.404026" lon="-7.7219224">
        <time>2021-11-27T12:57:41Z</time>
      </trkpt>
      <trkpt lat="42.40402" lon="-7.7219296">
        <time>2021-11-27T12:57:42Z</time>
      </trkpt>
      <trkpt lat="42.404015" lon="-7.7219353">
        <time>2021-11-27T12:57:43Z</time>
      </trkpt>
      <trkpt lat="42.404007" lon="-7.7219405">
        <time>2021-11-27T12:57:44Z</time>
      </trkpt>
      <trkpt lat="42.404" lon="-7.721946">
        <time>2021-11-27T12:57:45Z</time>
      </trkpt>
      <trkpt lat="42.40399" lon="-7.721952">
        <time>2021-11-27T12:57:46Z</time>
      </trkpt>
      <trkpt lat="42.403984" lon="-7.7219577">
        <time>2021-11-27T12:57:47Z</time>
      </trkpt>
      <trkpt lat="42.403976" lon="-7.7219644">
        <time>2021-11-27T12:57:48Z</time>
      </trkpt>
      <trkpt lat="42.40397" lon="-7.7219706">
        <time>2021-11-27T12:57:49Z</time>
      </trkpt>
      <trkpt lat="42.40396" lon="-7.7219768">
        <time>2021-11-27T12:57:50Z</time>
      </trkpt>
      <trkpt lat="42.40395" lon="-7.721983">
        <time>2021-11-27T12:57:51Z</time>
      </trkpt>
      <trkpt lat="42.403942" lon="-7.7219896">
        <time>2021-11-27T12:57:52Z</time>
      </trkpt>
      <trkpt lat="42.403934" lon="-7.7219963">
        <time>2021-11-27T12:57:53Z</time>
      </trkpt>
      <trkpt lat="42.403923" lon="-7.722001">
        <time>2021-11-27T12:57:54Z</time>
      </trkpt>
      <trkpt lat="42.403915" lon="-7.7220063">
        <time>2021-11-27T12:57:55Z</time>
      </trkpt>
      <trkpt lat="42.403908" lon="-7.722011">
        <time>2021-11-27T12:57:56Z</time>
      </trkpt>
      <trkpt lat="42.4039" lon="-7.7220154">
        <time>2021-11-27T12:57:57Z</time>
      </trkpt>
      <trkpt lat="42.40389" lon="-7.7220197">
        <time>2021-11-27T12:57:58Z</time>
      </trkpt>
      <trkpt lat="42.403877" lon="-7.7220235">
        <time>2021-11-27T12:57:59Z</time>
      </trkpt>
      <trkpt lat="42.40387" lon="-7.7220287">
        <time>2021-11-27T12:58:00Z</time>
      </trkpt>
      <trkpt lat="42.403862" lon="-7.7220345">
        <time>2021-11-27T12:58:01Z</time>
      </trkpt>
      <trkpt lat="42.403854" lon="-7.7220397">
        <time>2021-11-27T12:58:02Z</time>
      </trkpt>
      <trkpt lat="42.403843" lon="-7.7220435">
        <time>2021-11-27T12:58:03Z</time>
      </trkpt>
      <trkpt lat="42.40383" lon="-7.722048">
        <time>2021-11-27T12:58:04Z</time>
      </trkpt>
      <trkpt lat="42.403824" lon="-7.7220526">
        <time>2021-11-27T12:58:05Z</time>
      </trkpt>
      <trkpt lat="42.403812" lon="-7.722057">
        <time>2021-11-27T12:58:06Z</time>
      </trkpt>
      <trkpt lat="42.403805" lon="-7.7220607">
        <time>2021-11-27T12:58:07Z</time>
      </trkpt>
      <trkpt lat="42.403797" lon="-7.7220626">
        <time>2021-11-27T12:58:08Z</time>
      </trkpt>
      <trkpt lat="42.40379" lon="-7.722064">
        <time>2021-11-27T12:58:09Z</time>
      </trkpt>
      <trkpt lat="42.40378" lon="-7.7220645">
        <time>2021-11-27T12:58:10Z</time>
      </trkpt>
      <trkpt lat="42.403774" lon="-7.7220664">
        <time>2021-11-27T12:58:11Z</time>
      </trkpt>
      <trkpt lat="42.403767" lon="-7.7220693">
        <time>2021-11-27T12:58:12Z</time>
      </trkpt>
      <trkpt lat="42.40376" lon="-7.7220736">
        <time>2021-11-27T12:58:13Z</time>
      </trkpt>
      <trkpt lat="42.403755" lon="-7.7220793">
        <time>2021-11-27T12:58:14Z</time>
      </trkpt>
      <trkpt lat="42.40375" lon="-7.722085">
        <time>2021-11-27T12:58:15Z</time>
      </trkpt>
      <trkpt lat="42.403744" lon="-7.7220917">
        <time>2021-11-27T12:58:16Z</time>
      </trkpt>
      <trkpt lat="42.403736" lon="-7.7221003">
        <time>2021-11-27T12:58:17Z</time>
      </trkpt>
      <trkpt lat="42.403732" lon="-7.7221107">
        <time>2021-11-27T12:58:18Z</time>
      </trkpt>
      <trkpt lat="42.40373" lon="-7.722119">
        <time>2021-11-27T12:58:19Z</time>
      </trkpt>
      <trkpt lat="42.40372" lon="-7.722124">
        <time>2021-11-27T12:58:20Z</time>
      </trkpt>
      <trkpt lat="42.403713" lon="-7.7221274">
        <time>2021-11-27T12:58:21Z</time>
      </trkpt>
      <trkpt lat="42.403706" lon="-7.722128">
        <time>2021-11-27T12:58:22Z</time>
      </trkpt>
      <trkpt lat="42.403698" lon="-7.722128">
        <time>2021-11-27T12:58:23Z</time>
      </trkpt>
      <trkpt lat="42.40369" lon="-7.722129">
        <time>2021-11-27T12:58:24Z</time>
      </trkpt>
      <trkpt lat="42.403683" lon="-7.722128">
        <time>2021-11-27T12:58:25Z</time>
      </trkpt>
      <trkpt lat="42.403675" lon="-7.7221293">
        <time>2021-11-27T12:58:26Z</time>
      </trkpt>
      <trkpt lat="42.40367" lon="-7.7221317">
        <time>2021-11-27T12:58:27Z</time>
      </trkpt>
      <trkpt lat="42.403667" lon="-7.7221336">
        <time>2021-11-27T12:58:28Z</time>
      </trkpt>
      <trkpt lat="42.403664" lon="-7.7221365">
        <time>2021-11-27T12:58:29Z</time>
      </trkpt>
      <trkpt lat="42.40366" lon="-7.722143">
        <time>2021-11-27T12:58:30Z</time>
      </trkpt>
      <trkpt lat="42.403656" lon="-7.7221537">
        <time>2021-11-27T12:58:31Z</time>
      </trkpt>
      <trkpt lat="42.40365" lon="-7.7221656">
        <time>2021-11-27T12:58:32Z</time>
      </trkpt>
      <trkpt lat="42.403637" lon="-7.7221775">
        <time>2021-11-27T12:58:33Z</time>
      </trkpt>
      <trkpt lat="42.403625" lon="-7.7221894">
        <time>2021-11-27T12:58:34Z</time>
      </trkpt>
      <trkpt lat="42.403618" lon="-7.7222004">
        <time>2021-11-27T12:58:35Z</time>
      </trkpt>
      <trkpt lat="42.403606" lon="-7.7222085">
        <time>2021-11-27T12:58:36Z</time>
      </trkpt>
      <trkpt lat="42.4036" lon="-7.7222157">
        <time>2021-11-27T12:58:37Z</time>
      </trkpt>
      <trkpt lat="42.403595" lon="-7.722222">
        <time>2021-11-27T12:58:38Z</time>
      </trkpt>
      <trkpt lat="42.403587" lon="-7.722227">
        <time>2021-11-27T12:58:39Z</time>
      </trkpt>
      <trkpt lat="42.403584" lon="-7.7222304">
        <time>2021-11-27T12:58:40Z</time>
      </trkpt>
      <trkpt lat="42.40358" lon="-7.72223">
        <time>2021-11-27T12:58:41Z</time>
      </trkpt>
      <trkpt lat="42.403572" lon="-7.72223">
        <time>2021-11-27T12:58:42Z</time>
      </trkpt>
      <trkpt lat="42.403564" lon="-7.7222304">
        <time>2021-11-27T12:58:43Z</time>
      </trkpt>
      <trkpt lat="42.40356" lon="-7.7222323">
        <time>2021-11-27T12:58:44Z</time>
      </trkpt>
      <trkpt lat="42.403557" lon="-7.722234">
        <time>2021-11-27T12:58:45Z</time>
      </trkpt>
      <trkpt lat="42.40355" lon="-7.722236">
        <time>2021-11-27T12:58:46Z</time>
      </trkpt>
      <trkpt lat="42.40354" lon="-7.7222385">
        <time>2021-11-27T12:58:47Z</time>
      </trkpt>
      <trkpt lat="42.403534" lon="-7.7222433">
        <time>2021-11-27T12:58:48Z</time>
      </trkpt>
      <trkpt lat="42.403526" lon="-7.7222476">
        <time>2021-11-27T12:58:49Z</time>
      </trkpt>
      <trkpt lat="42.40352" lon="-7.7222543">
        <time>2021-11-27T12:58:50Z</time>
      </trkpt>
      <trkpt lat="42.40351" lon="-7.722261">
        <time>2021-11-27T12:58:51Z</time>
      </trkpt>
      <trkpt lat="42.403503" lon="-7.7222686">
        <time>2021-11-27T12:58:52Z</time>
      </trkpt>
      <trkpt lat="42.403496" lon="-7.7222767">
        <time>2021-11-27T12:58:53Z</time>
      </trkpt>
      <trkpt lat="42.40349" lon="-7.7222853">
        <time>2021-11-27T12:58:54Z</time>
      </trkpt>
      <trkpt lat="42.40348" lon="-7.722296">
        <time>2021-11-27T12:58:55Z</time>
      </trkpt>
      <trkpt lat="42.403473" lon="-7.722306">
        <time>2021-11-27T12:58:56Z</time>
      </trkpt>
      <trkpt lat="42.403465" lon="-7.7223167">
        <time>2021-11-27T12:58:57Z</time>
      </trkpt>
      <trkpt lat="42.403458" lon="-7.72233">
        <time>2021-11-27T12:58:58Z</time>
      </trkpt>
      <trkpt lat="42.40345" lon="-7.7223444">
        <time>2021-11-27T12:58:59Z</time>
      </trkpt>
      <trkpt lat="42.403446" lon="-7.722359">
        <time>2021-11-27T12:59:00Z</time>
      </trkpt>
      <trkpt lat="42.403442" lon="-7.7223744">
        <time>2021-11-27T12:59:01Z</time>
      </trkpt>
      <trkpt lat="42.403435" lon="-7.7223883">
        <time>2021-11-27T12:59:02Z</time>
      </trkpt>
      <trkpt lat="42.40343" lon="-7.722403">
        <time>2021-11-27T12:59:03Z</time>
      </trkpt>
      <trkpt lat="42.403427" lon="-7.7224145">
        <time>2021-11-27T12:59:04Z</time>
      </trkpt>
      <trkpt lat="42.403423" lon="-7.7224264">
        <time>2021-11-27T12:59:05Z</time>
      </trkpt>
      <trkpt lat="42.40342" lon="-7.72244">
        <time>2021-11-27T12:59:06Z</time>
      </trkpt>
      <trkpt lat="42.403416" lon="-7.7224536">
        <time>2021-11-27T12:59:07Z</time>
      </trkpt>
      <trkpt lat="42.403408" lon="-7.7224693">
        <time>2021-11-27T12:59:08Z</time>
      </trkpt>
      <trkpt lat="42.403404" lon="-7.7224855">
        <time>2021-11-27T12:59:09Z</time>
      </trkpt>
      <trkpt lat="42.4034" lon="-7.722503">
        <time>2021-11-27T12:59:10Z</time>
      </trkpt>
      <trkpt lat="42.403393" lon="-7.722518">
        <time>2021-11-27T12:59:11Z</time>
      </trkpt>
      <trkpt lat="42.403385" lon="-7.72253">
        <time>2021-11-27T12:59:12Z</time>
      </trkpt>
      <trkpt lat="42.403378" lon="-7.7225413">
        <time>2021-11-27T12:59:13Z</time>
      </trkpt>
      <trkpt lat="42.403374" lon="-7.7225547">
        <time>2021-11-27T12:59:14Z</time>
      </trkpt>
      <trkpt lat="42.403366" lon="-7.7225723">
        <time>2021-11-27T12:59:15Z</time>
      </trkpt>
      <trkpt lat="42.40336" lon="-7.722589">
        <time>2021-11-27T12:59:16Z</time>
      </trkpt>
      <trkpt lat="42.40335" lon="-7.722603">
        <time>2021-11-27T12:59:17Z</time>
      </trkpt>
      <trkpt lat="42.403347" lon="-7.722617">
        <time>2021-11-27T12:59:18Z</time>
      </trkpt>
      <trkpt lat="42.40334" lon="-7.7226295">
        <time>2021-11-27T12:59:19Z</time>
      </trkpt>
      <trkpt lat="42.40333" lon="-7.7226405">
        <time>2021-11-27T12:59:20Z</time>
      </trkpt>
      <trkpt lat="42.403324" lon="-7.7226515">
        <time>2021-11-27T12:59:21Z</time>
      </trkpt>
      <trkpt lat="42.403316" lon="-7.722662">
        <time>2021-11-27T12:59:22Z</time>
      </trkpt>
      <trkpt lat="42.40331" lon="-7.722672">
        <time>2021-11-27T12:59:23Z</time>
      </trkpt>
      <trkpt lat="42.4033" lon="-7.7226834">
        <time>2021-11-27T12:59:24Z</time>
      </trkpt>
      <trkpt lat="42.403294" lon="-7.7226963">
        <time>2021-11-27T12:59:25Z</time>
      </trkpt>
      <trkpt lat="42.403286" lon="-7.722707">
        <time>2021-11-27T12:59:26Z</time>
      </trkpt>
      <trkpt lat="42.40328" lon="-7.7227182">
        <time>2021-11-27T12:59:27Z</time>
      </trkpt>
      <trkpt lat="42.40327" lon="-7.72273">
        <time>2021-11-27T12:59:28Z</time>
      </trkpt>
      <trkpt lat="42.403267" lon="-7.722743">
        <time>2021-11-27T12:59:29Z</time>
      </trkpt>
      <trkpt lat="42.40326" lon="-7.7227564">
        <time>2021-11-27T12:59:30Z</time>
      </trkpt>
      <trkpt lat="42.40325" lon="-7.722769">
        <time>2021-11-27T12:59:31Z</time>
      </trkpt>
      <trkpt lat="42.403244" lon="-7.72278">
        <time>2021-11-27T12:59:32Z</time>
      </trkpt>
      <trkpt lat="42.40324" lon="-7.7227917">
        <time>2021-11-27T12:59:33Z</time>
      </trkpt>
      <trkpt lat="42.403233" lon="-7.722803">
        <time>2021-11-27T12:59:34Z</time>
      </trkpt>
      <trkpt lat="42.403225" lon="-7.722814">
        <time>2021-11-27T12:59:35Z</time>
      </trkpt>
      <trkpt lat="42.403217" lon="-7.722825">
        <time>2021-11-27T12:59:36Z</time>
      </trkpt>
      <trkpt lat="42.403206" lon="-7.722835">
        <time>2021-11-27T12:59:37Z</time>
      </trkpt>
      <trkpt lat="42.4032" lon="-7.7228446">
        <time>2021-11-27T12:59:38Z</time>
      </trkpt>
      <trkpt lat="42.40319" lon="-7.7228546">
        <time>2021-11-27T12:59:39Z</time>
      </trkpt>
      <trkpt lat="42.40318" lon="-7.7228627">
        <time>2021-11-27T12:59:40Z</time>
      </trkpt>
      <trkpt lat="42.403168" lon="-7.7228703">
        <time>2021-11-27T12:59:41Z</time>
      </trkpt>
      <trkpt lat="42.40316" lon="-7.722876">
        <time>2021-11-27T12:59:42Z</time>
      </trkpt>
      <trkpt lat="42.40315" lon="-7.722882">
        <time>2021-11-27T12:59:43Z</time>
      </trkpt>
      <trkpt lat="42.403137" lon="-7.722889">
        <time>2021-11-27T12:59:44Z</time>
      </trkpt>
      <trkpt lat="42.40313" lon="-7.722895">
        <time>2021-11-27T12:59:44Z</time>
      </trkpt>
      <trkpt lat="42.403114" lon="-7.7229023">
        <time>2021-11-27T12:59:45Z</time>
      </trkpt>
      <trkpt lat="42.403107" lon="-7.722909">
        <time>2021-11-27T12:59:46Z</time>
      </trkpt>
      <trkpt lat="42.40309" lon="-7.722917">
        <time>2021-11-27T12:59:47Z</time>
      </trkpt>
      <trkpt lat="42.403084" lon="-7.722924">
        <time>2021-11-27T12:59:48Z</time>
      </trkpt>
      <trkpt lat="42.403072" lon="-7.7229304">
        <time>2021-11-27T12:59:49Z</time>
      </trkpt>
      <trkpt lat="42.40306" lon="-7.722939">
        <time>2021-11-27T12:59:50Z</time>
      </trkpt>
      <trkpt lat="42.403053" lon="-7.7229486">
        <time>2021-11-27T12:59:51Z</time>
      </trkpt>
      <trkpt lat="42.40304" lon="-7.722958">
        <time>2021-11-27T12:59:52Z</time>
      </trkpt>
      <trkpt lat="42.403034" lon="-7.722967">
        <time>2021-11-27T12:59:53Z</time>
      </trkpt>
      <trkpt lat="42.403023" lon="-7.7229753">
        <time>2021-11-27T12:59:54Z</time>
      </trkpt>
      <trkpt lat="42.403015" lon="-7.722983">
        <time>2021-11-27T12:59:55Z</time>
      </trkpt>
      <trkpt lat="42.403004" lon="-7.7229934">
        <time>2021-11-27T12:59:56Z</time>
      </trkpt>
      <trkpt lat="42.402996" lon="-7.7230015">
        <time>2021-11-27T12:59:57Z</time>
      </trkpt>
      <trkpt lat="42.40299" lon="-7.723008">
        <time>2021-11-27T12:59:58Z</time>
      </trkpt>
      <trkpt lat="42.402973" lon="-7.723013">
        <time>2021-11-27T12:59:59Z</time>
      </trkpt>
      <trkpt lat="42.40296" lon="-7.7230196">
        <time>2021-11-27T13:00:00Z</time>
      </trkpt>
      <trkpt lat="42.40295" lon="-7.723022">
        <time>2021-11-27T13:00:01Z</time>
      </trkpt>
      <trkpt lat="42.402935" lon="-7.723023">
        <time>2021-11-27T13:00:02Z</time>
      </trkpt>
      <trkpt lat="42.402927" lon="-7.7230268">
        <time>2021-11-27T13:00:03Z</time>
      </trkpt>
      <trkpt lat="42.402916" lon="-7.7230306">
        <time>2021-11-27T13:00:04Z</time>
      </trkpt>
      <trkpt lat="42.40291" lon="-7.723033">
        <time>2021-11-27T13:00:05Z</time>
      </trkpt>
      <trkpt lat="42.4029" lon="-7.723033">
        <time>2021-11-27T13:00:06Z</time>
      </trkpt>
      <trkpt lat="42.40289" lon="-7.7230306">
        <time>2021-11-27T13:00:07Z</time>
      </trkpt>
      <trkpt lat="42.40288" lon="-7.723029">
        <time>2021-11-27T13:00:08Z</time>
      </trkpt>
      <trkpt lat="42.402874" lon="-7.7230296">
        <time>2021-11-27T13:00:09Z</time>
      </trkpt>
      <trkpt lat="42.402866" lon="-7.723031">
        <time>2021-11-27T13:00:10Z</time>
      </trkpt>
      <trkpt lat="42.40286" lon="-7.723035">
        <time>2021-11-27T13:00:11Z</time>
      </trkpt>
      <trkpt lat="42.402847" lon="-7.7230406">
        <time>2021-11-27T13:00:12Z</time>
      </trkpt>
      <trkpt lat="42.402836" lon="-7.7230463">
        <time>2021-11-27T13:00:13Z</time>
      </trkpt>
      <trkpt lat="42.402824" lon="-7.723052">
        <time>2021-11-27T13:00:14Z</time>
      </trkpt>
      <trkpt lat="42.402817" lon="-7.7230577">
        <time>2021-11-27T13:00:15Z</time>
      </trkpt>
      <trkpt lat="42.40281" lon="-7.7230635">
        <time>2021-11-27T13:00:16Z</time>
      </trkpt>
      <trkpt lat="42.402798" lon="-7.7230697">
        <time>2021-11-27T13:00:17Z</time>
      </trkpt>
      <trkpt lat="42.402786" lon="-7.7230725">
        <time>2021-11-27T13:00:18Z</time>
      </trkpt>
      <trkpt lat="42.40278" lon="-7.7230773">
        <time>2021-11-27T13:00:19Z</time>
      </trkpt>
      <trkpt lat="42.402767" lon="-7.723083">
        <time>2021-11-27T13:00:20Z</time>
      </trkpt>
      <trkpt lat="42.402756" lon="-7.7230897">
        <time>2021-11-27T13:00:21Z</time>
      </trkpt>
      <trkpt lat="42.402744" lon="-7.723096">
        <time>2021-11-27T13:00:22Z</time>
      </trkpt>
      <trkpt lat="42.402733" lon="-7.7231016">
        <time>2021-11-27T13:00:23Z</time>
      </trkpt>
      <trkpt lat="42.40272" lon="-7.7231073">
        <time>2021-11-27T13:00:24Z</time>
      </trkpt>
      <trkpt lat="42.40271" lon="-7.723112">
        <time>2021-11-27T13:00:25Z</time>
      </trkpt>
      <trkpt lat="42.402695" lon="-7.7231174">
        <time>2021-11-27T13:00:26Z</time>
      </trkpt>
      <trkpt lat="42.402683" lon="-7.7231207">
        <time>2021-11-27T13:00:27Z</time>
      </trkpt>
      <trkpt lat="42.402668" lon="-7.723125">
        <time>2021-11-27T13:00:28Z</time>
      </trkpt>
      <trkpt lat="42.402653" lon="-7.7231317">
        <time>2021-11-27T13:00:29Z</time>
      </trkpt>
      <trkpt lat="42.402637" lon="-7.7231374">
        <time>2021-11-27T13:00:30Z</time>
      </trkpt>
      <trkpt lat="42.40262" lon="-7.7231436">
        <time>2021-11-27T13:00:31Z</time>
      </trkpt>
      <trkpt lat="42.402603" lon="-7.7231526">
        <time>2021-11-27T13:00:32Z</time>
      </trkpt>
      <trkpt lat="42.402588" lon="-7.7231617">
        <time>2021-11-27T13:00:33Z</time>
      </trkpt>
      <trkpt lat="42.402573" lon="-7.7231693">
        <time>2021-11-27T13:00:34Z</time>
      </trkpt>
      <trkpt lat="42.402557" lon="-7.7231774">
        <time>2021-11-27T13:00:35Z</time>
      </trkpt>
      <trkpt lat="42.402542" lon="-7.723184">
        <time>2021-11-27T13:00:36Z</time>
      </trkpt>
      <trkpt lat="42.40253" lon="-7.7231884">
        <time>2021-11-27T13:00:37Z</time>
      </trkpt>
      <trkpt lat="42.402515" lon="-7.723193">
        <time>2021-11-27T13:00:38Z</time>
      </trkpt>
      <trkpt lat="42.4025" lon="-7.723197">
        <time>2021-11-27T13:00:39Z</time>
      </trkpt>
      <trkpt lat="42.402485" lon="-7.723201">
        <time>2021-11-27T13:00:40Z</time>
      </trkpt>
      <trkpt lat="42.402473" lon="-7.7232065">
        <time>2021-11-27T13:00:41Z</time>
      </trkpt>
      <trkpt lat="42.402462" lon="-7.7232137">
        <time>2021-11-27T13:00:42Z</time>
      </trkpt>
      <trkpt lat="42.40245" lon="-7.723222">
        <time>2021-11-27T13:00:43Z</time>
      </trkpt>
      <trkpt lat="42.402443" lon="-7.7232327">
        <time>2021-11-27T13:00:44Z</time>
      </trkpt>
      <trkpt lat="42.40243" lon="-7.7232456">
        <time>2021-11-27T13:00:45Z</time>
      </trkpt>
      <trkpt lat="42.402424" lon="-7.723259">
        <time>2021-11-27T13:00:46Z</time>
      </trkpt>
      <trkpt lat="42.40242" lon="-7.723274">
        <time>2021-11-27T13:00:50Z</time>
      </trkpt>
      <trkpt lat="42.402412" lon="-7.7232904">
        <time>2021-11-27T13:00:50Z</time>
      </trkpt>
      <trkpt lat="42.402405" lon="-7.7233057">
        <time>2021-11-27T13:00:50Z</time>
      </trkpt>
      <trkpt lat="42.402397" lon="-7.723321">
        <time>2021-11-27T13:00:50Z</time>
      </trkpt>
      <trkpt lat="42.40239" lon="-7.7233353">
        <time>2021-11-27T13:00:51Z</time>
      </trkpt>
      <trkpt lat="42.40238" lon="-7.723349">
        <time>2021-11-27T13:00:52Z</time>
      </trkpt>
      <trkpt lat="42.402374" lon="-7.7233634">
        <time>2021-11-27T13:00:53Z</time>
      </trkpt>
      <trkpt lat="42.402367" lon="-7.723377">
        <time>2021-11-27T13:00:54Z</time>
      </trkpt>
      <trkpt lat="42.40236" lon="-7.723392">
        <time>2021-11-27T13:00:55Z</time>
      </trkpt>
      <trkpt lat="42.40235" lon="-7.7234087">
        <time>2021-11-27T13:00:56Z</time>
      </trkpt>
      <trkpt lat="42.402344" lon="-7.7234254">
        <time>2021-11-27T13:00:57Z</time>
      </trkpt>
      <trkpt lat="42.40234" lon="-7.723442">
        <time>2021-11-27T13:00:58Z</time>
      </trkpt>
      <trkpt lat="42.402336" lon="-7.7234573">
        <time>2021-11-27T13:00:59Z</time>
      </trkpt>
      <trkpt lat="42.40233" lon="-7.723472">
        <time>2021-11-27T13:01:00Z</time>
      </trkpt>
      <trkpt lat="42.40232" lon="-7.7234855">
        <time>2021-11-27T13:01:01Z</time>
      </trkpt>
      <trkpt lat="42.402313" lon="-7.7234993">
        <time>2021-11-27T13:01:02Z</time>
      </trkpt>
      <trkpt lat="42.402306" lon="-7.7235136">
        <time>2021-11-27T13:01:03Z</time>
      </trkpt>
      <trkpt lat="42.4023" lon="-7.723528">
        <time>2021-11-27T13:01:04Z</time>
      </trkpt>
      <trkpt lat="42.402298" lon="-7.7235413">
        <time>2021-11-27T13:01:05Z</time>
      </trkpt>
      <trkpt lat="42.40229" lon="-7.723555">
        <time>2021-11-27T13:01:06Z</time>
      </trkpt>
      <trkpt lat="42.402283" lon="-7.72357">
        <time>2021-11-27T13:01:07Z</time>
      </trkpt>
      <trkpt lat="42.402275" lon="-7.7235847">
        <time>2021-11-27T13:01:08Z</time>
      </trkpt>
      <trkpt lat="42.402267" lon="-7.7235975">
        <time>2021-11-27T13:01:09Z</time>
      </trkpt>
      <trkpt lat="42.40226" lon="-7.7236104">
        <time>2021-11-27T13:01:10Z</time>
      </trkpt>
      <trkpt lat="42.402256" lon="-7.7236238">
        <time>2021-11-27T13:01:11Z</time>
      </trkpt>
      <trkpt lat="42.402252" lon="-7.723637">
        <time>2021-11-27T13:01:12Z</time>
      </trkpt>
      <trkpt lat="42.40225" lon="-7.723652">
        <time>2021-11-27T13:01:13Z</time>
      </trkpt>
      <trkpt lat="42.40224" lon="-7.723667">
        <time>2021-11-27T13:01:14Z</time>
      </trkpt>
      <trkpt lat="42.40224" lon="-7.723682">
        <time>2021-11-27T13:01:15Z</time>
      </trkpt>
      <trkpt lat="42.402237" lon="-7.723696">
        <time>2021-11-27T13:01:16Z</time>
      </trkpt>
      <trkpt lat="42.402233" lon="-7.72371">
        <time>2021-11-27T13:01:17Z</time>
      </trkpt>
      <trkpt lat="42.402225" lon="-7.723725">
        <time>2021-11-27T13:01:18Z</time>
      </trkpt>
      <trkpt lat="42.402218" lon="-7.7237396">
        <time>2021-11-27T13:01:19Z</time>
      </trkpt>
      <trkpt lat="42.40221" lon="-7.7237544">
        <time>2021-11-27T13:01:20Z</time>
      </trkpt>
      <trkpt lat="42.402206" lon="-7.723768">
        <time>2021-11-27T13:01:21Z</time>
      </trkpt>
      <trkpt lat="42.402203" lon="-7.723783">
        <time>2021-11-27T13:01:22Z</time>
      </trkpt>
      <trkpt lat="42.4022" lon="-7.7237973">
        <time>2021-11-27T13:01:23Z</time>
      </trkpt>
      <trkpt lat="42.402195" lon="-7.7238116">
        <time>2021-11-27T13:01:24Z</time>
      </trkpt>
      <trkpt lat="42.402195" lon="-7.7238274">
        <time>2021-11-27T13:01:25Z</time>
      </trkpt>
      <trkpt lat="42.402187" lon="-7.723842">
        <time>2021-11-27T13:01:26Z</time>
      </trkpt>
      <trkpt lat="42.402187" lon="-7.7238564">
        <time>2021-11-27T13:01:27Z</time>
      </trkpt>
      <trkpt lat="42.402184" lon="-7.7238708">
        <time>2021-11-27T13:01:28Z</time>
      </trkpt>
      <trkpt lat="42.40218" lon="-7.723884">
        <time>2021-11-27T13:01:29Z</time>
      </trkpt>
      <trkpt lat="42.402176" lon="-7.7238994">
        <time>2021-11-27T13:01:30Z</time>
      </trkpt>
      <trkpt lat="42.402172" lon="-7.723915">
        <time>2021-11-27T13:01:31Z</time>
      </trkpt>
      <trkpt lat="42.402172" lon="-7.7239304">
        <time>2021-11-27T13:01:32Z</time>
      </trkpt>
      <trkpt lat="42.402172" lon="-7.723945">
        <time>2021-11-27T13:01:33Z</time>
      </trkpt>
      <trkpt lat="42.402172" lon="-7.7239594">
        <time>2021-11-27T13:01:34Z</time>
      </trkpt>
      <trkpt lat="42.402172" lon="-7.723975">
        <time>2021-11-27T13:01:35Z</time>
      </trkpt>
      <trkpt lat="42.402176" lon="-7.7239904">
        <time>2021-11-27T13:01:36Z</time>
      </trkpt>
      <trkpt lat="42.402176" lon="-7.724007">
        <time>2021-11-27T13:01:37Z</time>
      </trkpt>
      <trkpt lat="42.40218" lon="-7.724024">
        <time>2021-11-27T13:01:38Z</time>
      </trkpt>
      <trkpt lat="42.40218" lon="-7.7240405">
        <time>2021-11-27T13:01:39Z</time>
      </trkpt>
      <trkpt lat="42.402184" lon="-7.724055">
        <time>2021-11-27T13:01:40Z</time>
      </trkpt>
      <trkpt lat="42.402187" lon="-7.724069">
        <time>2021-11-27T13:01:41Z</time>
      </trkpt>
      <trkpt lat="42.402187" lon="-7.724082">
        <time>2021-11-27T13:01:42Z</time>
      </trkpt>
      <trkpt lat="42.402187" lon="-7.724095">
        <time>2021-11-27T13:01:43Z</time>
      </trkpt>
      <trkpt lat="42.402187" lon="-7.7241087">
        <time>2021-11-27T13:01:44Z</time>
      </trkpt>
      <trkpt lat="42.40219" lon="-7.724124">
        <time>2021-11-27T13:01:45Z</time>
      </trkpt>
      <trkpt lat="42.40219" lon="-7.724142">
        <time>2021-11-27T13:01:46Z</time>
      </trkpt>
      <trkpt lat="42.40219" lon="-7.7241626">
        <time>2021-11-27T13:01:47Z</time>
      </trkpt>
      <trkpt lat="42.40219" lon="-7.7241836">
        <time>2021-11-27T13:01:49Z</time>
      </trkpt>
      <trkpt lat="42.40219" lon="-7.724202">
        <time>2021-11-27T13:01:49Z</time>
      </trkpt>
      <trkpt lat="42.402195" lon="-7.7242193">
        <time>2021-11-27T13:01:50Z</time>
      </trkpt>
      <trkpt lat="42.402195" lon="-7.724234">
        <time>2021-11-27T13:01:51Z</time>
      </trkpt>
      <trkpt lat="42.402195" lon="-7.7242503">
        <time>2021-11-27T13:01:52Z</time>
      </trkpt>
      <trkpt lat="42.402195" lon="-7.724267">
        <time>2021-11-27T13:01:53Z</time>
      </trkpt>
      <trkpt lat="42.402195" lon="-7.7242837">
        <time>2021-11-27T13:01:54Z</time>
      </trkpt>
      <trkpt lat="42.4022" lon="-7.7243004">
        <time>2021-11-27T13:01:55Z</time>
      </trkpt>
      <trkpt lat="42.402203" lon="-7.7243176">
        <time>2021-11-27T13:01:56Z</time>
      </trkpt>
      <trkpt lat="42.402206" lon="-7.7243347">
        <time>2021-11-27T13:01:57Z</time>
      </trkpt>
      <trkpt lat="42.40221" lon="-7.724351">
        <time>2021-11-27T13:01:58Z</time>
      </trkpt>
      <trkpt lat="42.402218" lon="-7.724367">
        <time>2021-11-27T13:01:59Z</time>
      </trkpt>
      <trkpt lat="42.40222" lon="-7.724384">
        <time>2021-11-27T13:02:00Z</time>
      </trkpt>
      <trkpt lat="42.402225" lon="-7.7244">
        <time>2021-11-27T13:02:01Z</time>
      </trkpt>
      <trkpt lat="42.40223" lon="-7.724416">
        <time>2021-11-27T13:02:02Z</time>
      </trkpt>
      <trkpt lat="42.402237" lon="-7.72443">
        <time>2021-11-27T13:02:03Z</time>
      </trkpt>
      <trkpt lat="42.402245" lon="-7.7244444">
        <time>2021-11-27T13:02:04Z</time>
      </trkpt>
      <trkpt lat="42.402256" lon="-7.7244577">
        <time>2021-11-27T13:02:05Z</time>
      </trkpt>
      <trkpt lat="42.402264" lon="-7.7244716">
        <time>2021-11-27T13:02:06Z</time>
      </trkpt>
      <trkpt lat="42.402275" lon="-7.7244825">
        <time>2021-11-27T13:02:07Z</time>
      </trkpt>
      <trkpt lat="42.402287" lon="-7.7244935">
        <time>2021-11-27T13:02:08Z</time>
      </trkpt>
      <trkpt lat="42.402298" lon="-7.724503">
        <time>2021-11-27T13:02:09Z</time>
      </trkpt>
      <trkpt lat="42.402306" lon="-7.7245145">
        <time>2021-11-27T13:02:10Z</time>
      </trkpt>
      <trkpt lat="42.402313" lon="-7.7245274">
        <time>2021-11-27T13:02:11Z</time>
      </trkpt>
      <trkpt lat="42.402325" lon="-7.72454">
        <time>2021-11-27T13:02:12Z</time>
      </trkpt>
      <trkpt lat="42.402336" lon="-7.7245517">
        <time>2021-11-27T13:02:13Z</time>
      </trkpt>
      <trkpt lat="42.402344" lon="-7.7245617">
        <time>2021-11-27T13:02:14Z</time>
      </trkpt>
      <trkpt lat="42.40235" lon="-7.7245727">
        <time>2021-11-27T13:02:15Z</time>
      </trkpt>
      <trkpt lat="42.40236" lon="-7.7245855">
        <time>2021-11-27T13:02:16Z</time>
      </trkpt>
      <trkpt lat="42.40236" lon="-7.7246003">
        <time>2021-11-27T13:02:17Z</time>
      </trkpt>
      <trkpt lat="42.402367" lon="-7.724617">
        <time>2021-11-27T13:02:18Z</time>
      </trkpt>
      <trkpt lat="42.40237" lon="-7.724634">
        <time>2021-11-27T13:02:19Z</time>
      </trkpt>
      <trkpt lat="42.402374" lon="-7.7246485">
        <time>2021-11-27T13:02:20Z</time>
      </trkpt>
      <trkpt lat="42.40238" lon="-7.724662">
        <time>2021-11-27T13:02:21Z</time>
      </trkpt>
      <trkpt lat="42.40239" lon="-7.7246766">
        <time>2021-11-27T13:02:22Z</time>
      </trkpt>
      <trkpt lat="42.402393" lon="-7.724692">
        <time>2021-11-27T13:02:23Z</time>
      </trkpt>
      <trkpt lat="42.402397" lon="-7.724707">
        <time>2021-11-27T13:02:24Z</time>
      </trkpt>
      <trkpt lat="42.402405" lon="-7.7247205">
        <time>2021-11-27T13:02:25Z</time>
      </trkpt>
      <trkpt lat="42.402412" lon="-7.7247343">
        <time>2021-11-27T13:02:26Z</time>
      </trkpt>
      <trkpt lat="42.402424" lon="-7.724748">
        <time>2021-11-27T13:02:27Z</time>
      </trkpt>
      <trkpt lat="42.402435" lon="-7.7247586">
        <time>2021-11-27T13:02:28Z</time>
      </trkpt>
      <trkpt lat="42.402443" lon="-7.7247667">
        <time>2021-11-27T13:02:29Z</time>
      </trkpt>
      <trkpt lat="42.402454" lon="-7.7247763">
        <time>2021-11-27T13:02:30Z</time>
      </trkpt>
      <trkpt lat="42.40247" lon="-7.724786">
        <time>2021-11-27T13:02:31Z</time>
      </trkpt>
      <trkpt lat="42.402477" lon="-7.724797">
        <time>2021-11-27T13:02:32Z</time>
      </trkpt>
      <trkpt lat="42.40249" lon="-7.724809">
        <time>2021-11-27T13:02:33Z</time>
      </trkpt>
      <trkpt lat="42.4025" lon="-7.724821">
        <time>2021-11-27T13:02:34Z</time>
      </trkpt>
      <trkpt lat="42.402508" lon="-7.7248325">
        <time>2021-11-27T13:02:35Z</time>
      </trkpt>
      <trkpt lat="42.402523" lon="-7.7248416">
        <time>2021-11-27T13:02:36Z</time>
      </trkpt>
      <trkpt lat="42.402534" lon="-7.7248497">
        <time>2021-11-27T13:02:37Z</time>
      </trkpt>
      <trkpt lat="42.402546" lon="-7.7248588">
        <time>2021-11-27T13:02:38Z</time>
      </trkpt>
      <trkpt lat="42.402554" lon="-7.7248683">
        <time>2021-11-27T13:02:39Z</time>
      </trkpt>
      <trkpt lat="42.402565" lon="-7.7248793">
        <time>2021-11-27T13:02:40Z</time>
      </trkpt>
      <trkpt lat="42.402576" lon="-7.72489">
        <time>2021-11-27T13:02:41Z</time>
      </trkpt>
      <trkpt lat="42.402588" lon="-7.7249017">
        <time>2021-11-27T13:02:42Z</time>
      </trkpt>
      <trkpt lat="42.4026" lon="-7.724911">
        <time>2021-11-27T13:02:43Z</time>
      </trkpt>
      <trkpt lat="42.402607" lon="-7.724922">
        <time>2021-11-27T13:02:44Z</time>
      </trkpt>
      <trkpt lat="42.40262" lon="-7.7249336">
        <time>2021-11-27T13:02:45Z</time>
      </trkpt>
      <trkpt lat="42.40263" lon="-7.724945">
        <time>2021-11-27T13:02:46Z</time>
      </trkpt>
      <trkpt lat="42.402637" lon="-7.724958">
        <time>2021-11-27T13:02:47Z</time>
      </trkpt>
      <trkpt lat="42.40265" lon="-7.724969">
        <time>2021-11-27T13:02:48Z</time>
      </trkpt>
      <trkpt lat="42.402657" lon="-7.7249804">
        <time>2021-11-27T13:02:49Z</time>
      </trkpt>
      <trkpt lat="42.402668" lon="-7.7249913">
        <time>2021-11-27T13:02:50Z</time>
      </trkpt>
      <trkpt lat="42.40268" lon="-7.725002">
        <time>2021-11-27T13:02:51Z</time>
      </trkpt>
      <trkpt lat="42.402687" lon="-7.7250123">
        <time>2021-11-27T13:02:52Z</time>
      </trkpt>
      <trkpt lat="42.402695" lon="-7.725023">
        <time>2021-11-27T13:02:53Z</time>
      </trkpt>
      <trkpt lat="42.402702" lon="-7.7250323">
        <time>2021-11-27T13:02:54Z</time>
      </trkpt>
      <trkpt lat="42.40271" lon="-7.725042">
        <time>2021-11-27T13:02:55Z</time>
      </trkpt>
      <trkpt lat="42.402725" lon="-7.7250514">
        <time>2021-11-27T13:02:56Z</time>
      </trkpt>
      <trkpt lat="42.402733" lon="-7.725062">
        <time>2021-11-27T13:02:57Z</time>
      </trkpt>
      <trkpt lat="42.40274" lon="-7.725072">
        <time>2021-11-27T13:02:58Z</time>
      </trkpt>
      <trkpt lat="42.402752" lon="-7.725085">
        <time>2021-11-27T13:02:59Z</time>
      </trkpt>
      <trkpt lat="42.40276" lon="-7.7250977">
        <time>2021-11-27T13:03:00Z</time>
      </trkpt>
      <trkpt lat="42.402767" lon="-7.7251077">
        <time>2021-11-27T13:03:01Z</time>
      </trkpt>
      <trkpt lat="42.402775" lon="-7.7251163">
        <time>2021-11-27T13:03:02Z</time>
      </trkpt>
      <trkpt lat="42.402782" lon="-7.725127">
        <time>2021-11-27T13:03:03Z</time>
      </trkpt>
      <trkpt lat="42.402786" lon="-7.725139">
        <time>2021-11-27T13:03:04Z</time>
      </trkpt>
      <trkpt lat="42.402794" lon="-7.7251554">
        <time>2021-11-27T13:03:05Z</time>
      </trkpt>
      <trkpt lat="42.402794" lon="-7.725174">
        <time>2021-11-27T13:03:06Z</time>
      </trkpt>
      <trkpt lat="42.402798" lon="-7.7251916">
        <time>2021-11-27T13:03:07Z</time>
      </trkpt>
      <trkpt lat="42.4028" lon="-7.7252107">
        <time>2021-11-27T13:03:08Z</time>
      </trkpt>
      <trkpt lat="42.402805" lon="-7.7252283">
        <time>2021-11-27T13:03:09Z</time>
      </trkpt>
      <trkpt lat="42.40281" lon="-7.725244">
        <time>2021-11-27T13:03:10Z</time>
      </trkpt>
      <trkpt lat="42.402813" lon="-7.725259">
        <time>2021-11-27T13:03:11Z</time>
      </trkpt>
      <trkpt lat="42.40282" lon="-7.7252736">
        <time>2021-11-27T13:03:12Z</time>
      </trkpt>
      <trkpt lat="42.402824" lon="-7.7252884">
        <time>2021-11-27T13:03:13Z</time>
      </trkpt>
      <trkpt lat="42.402832" lon="-7.725307">
        <time>2021-11-27T13:03:14Z</time>
      </trkpt>
      <trkpt lat="42.40284" lon="-7.725324">
        <time>2021-11-27T13:03:15Z</time>
      </trkpt>
      <trkpt lat="42.402843" lon="-7.7253413">
        <time>2021-11-27T13:03:16Z</time>
      </trkpt>
      <trkpt lat="42.40285" lon="-7.7253575">
        <time>2021-11-27T13:03:17Z</time>
      </trkpt>
      <trkpt lat="42.402855" lon="-7.725376">
        <time>2021-11-27T13:03:18Z</time>
      </trkpt>
      <trkpt lat="42.40286" lon="-7.7253933">
        <time>2021-11-27T13:03:19Z</time>
      </trkpt>
      <trkpt lat="42.402866" lon="-7.725407">
        <time>2021-11-27T13:03:20Z</time>
      </trkpt>
      <trkpt lat="42.402874" lon="-7.72542">
        <time>2021-11-27T13:03:21Z</time>
      </trkpt>
      <trkpt lat="42.40288" lon="-7.7254324">
        <time>2021-11-27T13:03:22Z</time>
      </trkpt>
      <trkpt lat="42.402893" lon="-7.725444">
        <time>2021-11-27T13:03:23Z</time>
      </trkpt>
      <trkpt lat="42.402905" lon="-7.7254553">
        <time>2021-11-27T13:03:24Z</time>
      </trkpt>
      <trkpt lat="42.402912" lon="-7.7254663">
        <time>2021-11-27T13:03:25Z</time>
      </trkpt>
      <trkpt lat="42.40292" lon="-7.725478">
        <time>2021-11-27T13:03:26Z</time>
      </trkpt>
      <trkpt lat="42.40293" lon="-7.725492">
        <time>2021-11-27T13:03:27Z</time>
      </trkpt>
      <trkpt lat="42.402943" lon="-7.725504">
        <time>2021-11-27T13:03:28Z</time>
      </trkpt>
      <trkpt lat="42.40295" lon="-7.7255163">
        <time>2021-11-27T13:03:29Z</time>
      </trkpt>
      <trkpt lat="42.40296" lon="-7.725527">
        <time>2021-11-27T13:03:30Z</time>
      </trkpt>
      <trkpt lat="42.402973" lon="-7.7255373">
        <time>2021-11-27T13:03:31Z</time>
      </trkpt>
      <trkpt lat="42.40298" lon="-7.7255464">
        <time>2021-11-27T13:03:32Z</time>
      </trkpt>
      <trkpt lat="42.40299" lon="-7.7255564">
        <time>2021-11-27T13:03:33Z</time>
      </trkpt>
      <trkpt lat="42.402996" lon="-7.725567">
        <time>2021-11-27T13:03:34Z</time>
      </trkpt>
      <trkpt lat="42.403004" lon="-7.7255783">
        <time>2021-11-27T13:03:35Z</time>
      </trkpt>
      <trkpt lat="42.40301" lon="-7.7255883">
        <time>2021-11-27T13:03:36Z</time>
      </trkpt>
      <trkpt lat="42.403023" lon="-7.7256">
        <time>2021-11-27T13:03:37Z</time>
      </trkpt>
      <trkpt lat="42.40303" lon="-7.7256107">
        <time>2021-11-27T13:03:38Z</time>
      </trkpt>
      <trkpt lat="42.403038" lon="-7.7256217">
        <time>2021-11-27T13:03:39Z</time>
      </trkpt>
      <trkpt lat="42.403046" lon="-7.7256327">
        <time>2021-11-27T13:03:40Z</time>
      </trkpt>
      <trkpt lat="42.403053" lon="-7.725642">
        <time>2021-11-27T13:03:41Z</time>
      </trkpt>
      <trkpt lat="42.40306" lon="-7.7256517">
        <time>2021-11-27T13:03:42Z</time>
      </trkpt>
      <trkpt lat="42.40307" lon="-7.725661">
        <time>2021-11-27T13:03:43Z</time>
      </trkpt>
      <trkpt lat="42.403076" lon="-7.7256703">
        <time>2021-11-27T13:03:44Z</time>
      </trkpt>
      <trkpt lat="42.403084" lon="-7.725682">
        <time>2021-11-27T13:03:45Z</time>
      </trkpt>
      <trkpt lat="42.40309" lon="-7.725695">
        <time>2021-11-27T13:03:46Z</time>
      </trkpt>
      <trkpt lat="42.4031" lon="-7.7257094">
        <time>2021-11-27T13:03:47Z</time>
      </trkpt>
      <trkpt lat="42.403107" lon="-7.725721">
        <time>2021-11-27T13:03:48Z</time>
      </trkpt>
      <trkpt lat="42.403114" lon="-7.725732">
        <time>2021-11-27T13:03:49Z</time>
      </trkpt>
      <trkpt lat="42.403126" lon="-7.7257414">
        <time>2021-11-27T13:03:50Z</time>
      </trkpt>
      <trkpt lat="42.403137" lon="-7.725752">
        <time>2021-11-27T13:03:51Z</time>
      </trkpt>
      <trkpt lat="42.403145" lon="-7.7257614">
        <time>2021-11-27T13:03:52Z</time>
      </trkpt>
      <trkpt lat="42.403156" lon="-7.7257724">
        <time>2021-11-27T13:03:53Z</time>
      </trkpt>
      <trkpt lat="42.40317" lon="-7.7257805">
        <time>2021-11-27T13:03:54Z</time>
      </trkpt>
      <trkpt lat="42.403187" lon="-7.725788">
        <time>2021-11-27T13:03:55Z</time>
      </trkpt>
      <trkpt lat="42.4032" lon="-7.7257977">
        <time>2021-11-27T13:03:56Z</time>
      </trkpt>
      <trkpt lat="42.40321" lon="-7.7258086">
        <time>2021-11-27T13:03:57Z</time>
      </trkpt>
      <trkpt lat="42.40322" lon="-7.725821">
        <time>2021-11-27T13:03:58Z</time>
      </trkpt>
      <trkpt lat="42.40323" lon="-7.7258325">
        <time>2021-11-27T13:03:59Z</time>
      </trkpt>
      <trkpt lat="42.403236" lon="-7.7258434">
        <time>2021-11-27T13:03:59Z</time>
      </trkpt>
      <trkpt lat="42.403248" lon="-7.725854">
        <time>2021-11-27T13:04:00Z</time>
      </trkpt>
      <trkpt lat="42.403255" lon="-7.7258663">
        <time>2021-11-27T13:04:01Z</time>
      </trkpt>
      <trkpt lat="42.403267" lon="-7.7258763">
        <time>2021-11-27T13:04:02Z</time>
      </trkpt>
      <trkpt lat="42.40328" lon="-7.725884">
        <time>2021-11-27T13:04:03Z</time>
      </trkpt>
      <trkpt lat="42.40329" lon="-7.7258925">
        <time>2021-11-27T13:04:04Z</time>
      </trkpt>
      <trkpt lat="42.4033" lon="-7.7258997">
        <time>2021-11-27T13:04:05Z</time>
      </trkpt>
      <trkpt lat="42.40332" lon="-7.7259054">
        <time>2021-11-27T13:04:06Z</time>
      </trkpt>
      <trkpt lat="42.403336" lon="-7.725911">
        <time>2021-11-27T13:04:07Z</time>
      </trkpt>
      <trkpt lat="42.403347" lon="-7.725917">
        <time>2021-11-27T13:04:08Z</time>
      </trkpt>
      <trkpt lat="42.40336" lon="-7.725923">
        <time>2021-11-27T13:04:09Z</time>
      </trkpt>
      <trkpt lat="42.40337" lon="-7.7259307">
        <time>2021-11-27T13:04:10Z</time>
      </trkpt>
      <trkpt lat="42.40338" lon="-7.7259426">
        <time>2021-11-27T13:04:11Z</time>
      </trkpt>
      <trkpt lat="42.40339" lon="-7.725957">
        <time>2021-11-27T13:04:12Z</time>
      </trkpt>
      <trkpt lat="42.403397" lon="-7.7259717">
        <time>2021-11-27T13:04:13Z</time>
      </trkpt>
      <trkpt lat="42.403408" lon="-7.7259846">
        <time>2021-11-27T13:04:14Z</time>
      </trkpt>
      <trkpt lat="42.40342" lon="-7.725995">
        <time>2021-11-27T13:04:15Z</time>
      </trkpt>
      <trkpt lat="42.403427" lon="-7.7260046">
        <time>2021-11-27T13:04:16Z</time>
      </trkpt>
      <trkpt lat="42.403435" lon="-7.7260137">
        <time>2021-11-27T13:04:17Z</time>
      </trkpt>
      <trkpt lat="42.403446" lon="-7.726022">
        <time>2021-11-27T13:04:18Z</time>
      </trkpt>
      <trkpt lat="42.403458" lon="-7.726028">
        <time>2021-11-27T13:04:19Z</time>
      </trkpt>
      <trkpt lat="42.40347" lon="-7.7260365">
        <time>2021-11-27T13:04:20Z</time>
      </trkpt>
      <trkpt lat="42.40348" lon="-7.7260456">
        <time>2021-11-27T13:04:21Z</time>
      </trkpt>
      <trkpt lat="42.40349" lon="-7.726055">
        <time>2021-11-27T13:04:22Z</time>
      </trkpt>
      <trkpt lat="42.4035" lon="-7.726064">
        <time>2021-11-27T13:04:23Z</time>
      </trkpt>
      <trkpt lat="42.403507" lon="-7.726071">
        <time>2021-11-27T13:04:24Z</time>
      </trkpt>
      <trkpt lat="42.40352" lon="-7.726076">
        <time>2021-11-27T13:04:25Z</time>
      </trkpt>
      <trkpt lat="42.403526" lon="-7.7260785">
        <time>2021-11-27T13:04:26Z</time>
      </trkpt>
      <trkpt lat="42.403538" lon="-7.72608">
        <time>2021-11-27T13:04:27Z</time>
      </trkpt>
      <trkpt lat="42.40355" lon="-7.7260766">
        <time>2021-11-27T13:04:28Z</time>
      </trkpt>
      <trkpt lat="42.403553" lon="-7.7260737">
        <time>2021-11-27T13:04:29Z</time>
      </trkpt>
      <trkpt lat="42.40356" lon="-7.7260704">
        <time>2021-11-27T13:04:30Z</time>
      </trkpt>
      <trkpt lat="42.403572" lon="-7.726067">
        <time>2021-11-27T13:04:31Z</time>
      </trkpt>
      <trkpt lat="42.40358" lon="-7.7260613">
        <time>2021-11-27T13:04:32Z</time>
      </trkpt>
      <trkpt lat="42.403587" lon="-7.7260537">
        <time>2021-11-27T13:04:33Z</time>
      </trkpt>
      <trkpt lat="42.4036" lon="-7.7260466">
        <time>2021-11-27T13:04:34Z</time>
      </trkpt>
      <trkpt lat="42.403606" lon="-7.726039">
        <time>2021-11-27T13:04:35Z</time>
      </trkpt>
      <trkpt lat="42.403614" lon="-7.726032">
        <time>2021-11-27T13:04:36Z</time>
      </trkpt>
      <trkpt lat="42.403625" lon="-7.726024">
        <time>2021-11-27T13:04:37Z</time>
      </trkpt>
      <trkpt lat="42.403633" lon="-7.7260165">
        <time>2021-11-27T13:04:38Z</time>
      </trkpt>
      <trkpt lat="42.403645" lon="-7.726011">
        <time>2021-11-27T13:04:39Z</time>
      </trkpt>
      <trkpt lat="42.403652" lon="-7.726007">
        <time>2021-11-27T13:04:40Z</time>
      </trkpt>
      <trkpt lat="42.403667" lon="-7.7260036">
        <time>2021-11-27T13:04:41Z</time>
      </trkpt>
      <trkpt lat="42.403675" lon="-7.726">
        <time>2021-11-27T13:04:42Z</time>
      </trkpt>
      <trkpt lat="42.403687" lon="-7.725995">
        <time>2021-11-27T13:04:43Z</time>
      </trkpt>
      <trkpt lat="42.403698" lon="-7.7259884">
        <time>2021-11-27T13:04:44Z</time>
      </trkpt>
      <trkpt lat="42.403706" lon="-7.7259803">
        <time>2021-11-27T13:04:45Z</time>
      </trkpt>
      <trkpt lat="42.403717" lon="-7.725971">
        <time>2021-11-27T13:04:46Z</time>
      </trkpt>
      <trkpt lat="42.403725" lon="-7.7259636">
        <time>2021-11-27T13:04:47Z</time>
      </trkpt>
      <trkpt lat="42.403736" lon="-7.725957">
        <time>2021-11-27T13:04:48Z</time>
      </trkpt>
      <trkpt lat="42.403744" lon="-7.7259502">
        <time>2021-11-27T13:04:49Z</time>
      </trkpt>
      <trkpt lat="42.40375" lon="-7.7259445">
        <time>2021-11-27T13:04:50Z</time>
      </trkpt>
      <trkpt lat="42.40376" lon="-7.725938">
        <time>2021-11-27T13:04:51Z</time>
      </trkpt>
      <trkpt lat="42.403767" lon="-7.7259307">
        <time>2021-11-27T13:04:52Z</time>
      </trkpt>
      <trkpt lat="42.403774" lon="-7.7259245">
        <time>2021-11-27T13:04:53Z</time>
      </trkpt>
      <trkpt lat="42.403778" lon="-7.725919">
        <time>2021-11-27T13:04:54Z</time>
      </trkpt>
      <trkpt lat="42.403786" lon="-7.7259154">
        <time>2021-11-27T13:04:55Z</time>
      </trkpt>
      <trkpt lat="42.403793" lon="-7.7259135">
        <time>2021-11-27T13:04:56Z</time>
      </trkpt>
      <trkpt lat="42.4038" lon="-7.725912">
        <time>2021-11-27T13:04:57Z</time>
      </trkpt>
      <trkpt lat="42.40381" lon="-7.7259116">
        <time>2021-11-27T13:04:58Z</time>
      </trkpt>
      <trkpt lat="42.403816" lon="-7.72591">
        <time>2021-11-27T13:04:59Z</time>
      </trkpt>
      <trkpt lat="42.403828" lon="-7.7259073">
        <time>2021-11-27T13:05:00Z</time>
      </trkpt>
      <trkpt lat="42.403835" lon="-7.7259035">
        <time>2021-11-27T13:05:01Z</time>
      </trkpt>
      <trkpt lat="42.40385" lon="-7.725902">
        <time>2021-11-27T13:05:04Z</time>
      </trkpt>
      <trkpt lat="42.403854" lon="-7.725896">
        <time>2021-11-27T13:05:06Z</time>
      </trkpt>
      <trkpt lat="42.403854" lon="-7.725896">
        <time>2021-11-27T13:05:07Z</time>
      </trkpt>
      <trkpt lat="42.40386" lon="-7.7258945">
        <time>2021-11-27T13:05:08Z</time>
      </trkpt>
      <trkpt lat="42.403862" lon="-7.725891">
        <time>2021-11-27T13:05:09Z</time>
      </trkpt>
      <trkpt lat="42.40387" lon="-7.725889">
        <time>2021-11-27T13:05:10Z</time>
      </trkpt>
      <trkpt lat="42.403877" lon="-7.725885">
        <time>2021-11-27T13:05:11Z</time>
      </trkpt>
      <trkpt lat="42.40389" lon="-7.7258773">
        <time>2021-11-27T13:05:12Z</time>
      </trkpt>
      <trkpt lat="42.4039" lon="-7.7258687">
        <time>2021-11-27T13:05:13Z</time>
      </trkpt>
      <trkpt lat="42.40391" lon="-7.7258625">
        <time>2021-11-27T13:05:14Z</time>
      </trkpt>
      <trkpt lat="42.403923" lon="-7.725856">
        <time>2021-11-27T13:05:15Z</time>
      </trkpt>
      <trkpt lat="42.40394" lon="-7.725854">
        <time>2021-11-27T13:05:16Z</time>
      </trkpt>
      <trkpt lat="42.403954" lon="-7.7258534">
        <time>2021-11-27T13:05:17Z</time>
      </trkpt>
      <trkpt lat="42.403965" lon="-7.725854">
        <time>2021-11-27T13:05:18Z</time>
      </trkpt>
      <trkpt lat="42.403976" lon="-7.7258554">
        <time>2021-11-27T13:05:19Z</time>
      </trkpt>
      <trkpt lat="42.403984" lon="-7.7258573">
        <time>2021-11-27T13:05:20Z</time>
      </trkpt>
      <trkpt lat="42.40399" lon="-7.725859">
        <time>2021-11-27T13:05:21Z</time>
      </trkpt>
      <trkpt lat="42.404003" lon="-7.7258625">
        <time>2021-11-27T13:05:22Z</time>
      </trkpt>
      <trkpt lat="42.40401" lon="-7.7258654">
        <time>2021-11-27T13:05:23Z</time>
      </trkpt>
      <trkpt lat="42.40402" lon="-7.7258677">
        <time>2021-11-27T13:05:24Z</time>
      </trkpt>
      <trkpt lat="42.404026" lon="-7.7258687">
        <time>2021-11-27T13:05:25Z</time>
      </trkpt>
      <trkpt lat="42.404034" lon="-7.725867">
        <time>2021-11-27T13:05:26Z</time>
      </trkpt>
      <trkpt lat="42.404045" lon="-7.7258654">
        <time>2021-11-27T13:05:27Z</time>
      </trkpt>
      <trkpt lat="42.404053" lon="-7.7258644">
        <time>2021-11-27T13:05:28Z</time>
      </trkpt>
      <trkpt lat="42.404064" lon="-7.7258615">
        <time>2021-11-27T13:05:29Z</time>
      </trkpt>
      <trkpt lat="42.40408" lon="-7.7258596">
        <time>2021-11-27T13:05:30Z</time>
      </trkpt>
      <trkpt lat="42.404087" lon="-7.7258577">
        <time>2021-11-27T13:05:31Z</time>
      </trkpt>
      <trkpt lat="42.404102" lon="-7.725855">
        <time>2021-11-27T13:05:32Z</time>
      </trkpt>
      <trkpt lat="42.404118" lon="-7.7258515">
        <time>2021-11-27T13:05:33Z</time>
      </trkpt>
      <trkpt lat="42.40413" lon="-7.725849">
        <time>2021-11-27T13:05:34Z</time>
      </trkpt>
      <trkpt lat="42.40414" lon="-7.7258477">
        <time>2021-11-27T13:05:35Z</time>
      </trkpt>
      <trkpt lat="42.404152" lon="-7.725849">
        <time>2021-11-27T13:05:36Z</time>
      </trkpt>
      <trkpt lat="42.404163" lon="-7.7258534">
        <time>2021-11-27T13:05:37Z</time>
      </trkpt>
      <trkpt lat="42.40417" lon="-7.7258587">
        <time>2021-11-27T13:05:38Z</time>
      </trkpt>
      <trkpt lat="42.40418" lon="-7.7258677">
        <time>2021-11-27T13:05:39Z</time>
      </trkpt>
      <trkpt lat="42.40419" lon="-7.725878">
        <time>2021-11-27T13:05:40Z</time>
      </trkpt>
      <trkpt lat="42.4042" lon="-7.725886">
        <time>2021-11-27T13:05:41Z</time>
      </trkpt>
      <trkpt lat="42.404213" lon="-7.7258906">
        <time>2021-11-27T13:05:42Z</time>
      </trkpt>
      <trkpt lat="42.40423" lon="-7.7258945">
        <time>2021-11-27T13:05:43Z</time>
      </trkpt>
      <trkpt lat="42.40424" lon="-7.7258997">
        <time>2021-11-27T13:05:44Z</time>
      </trkpt>
      <trkpt lat="42.40425" lon="-7.7259073">
        <time>2021-11-27T13:05:45Z</time>
      </trkpt>
      <trkpt lat="42.404263" lon="-7.725915">
        <time>2021-11-27T13:05:47Z</time>
      </trkpt>
      <trkpt lat="42.404274" lon="-7.725923">
        <time>2021-11-27T13:05:47Z</time>
      </trkpt>
      <trkpt lat="42.404285" lon="-7.72593">
        <time>2021-11-27T13:05:48Z</time>
      </trkpt>
      <trkpt lat="42.404297" lon="-7.7259336">
        <time>2021-11-27T13:05:49Z</time>
      </trkpt>
      <trkpt lat="42.40431" lon="-7.725936">
        <time>2021-11-27T13:05:50Z</time>
      </trkpt>
      <trkpt lat="42.40432" lon="-7.725938">
        <time>2021-11-27T13:05:51Z</time>
      </trkpt>
      <trkpt lat="42.404335" lon="-7.725939">
        <time>2021-11-27T13:05:52Z</time>
      </trkpt>
      <trkpt lat="42.404343" lon="-7.7259417">
        <time>2021-11-27T13:05:53Z</time>
      </trkpt>
      <trkpt lat="42.404358" lon="-7.7259455">
        <time>2021-11-27T13:05:54Z</time>
      </trkpt>
      <trkpt lat="42.40437" lon="-7.725949">
        <time>2021-11-27T13:05:55Z</time>
      </trkpt>
      <trkpt lat="42.40438" lon="-7.7259493">
        <time>2021-11-27T13:05:56Z</time>
      </trkpt>
      <trkpt lat="42.404392" lon="-7.7259545">
        <time>2021-11-27T13:05:57Z</time>
      </trkpt>
      <trkpt lat="42.404408" lon="-7.7259617">
        <time>2021-11-27T13:05:58Z</time>
      </trkpt>
      <trkpt lat="42.40442" lon="-7.725969">
        <time>2021-11-27T13:05:59Z</time>
      </trkpt>
      <trkpt lat="42.40443" lon="-7.7259774">
        <time>2021-11-27T13:06:00Z</time>
      </trkpt>
      <trkpt lat="42.404438" lon="-7.7259912">
        <time>2021-11-27T13:06:01Z</time>
      </trkpt>
      <trkpt lat="42.404446" lon="-7.7260065">
        <time>2021-11-27T13:06:02Z</time>
      </trkpt>
      <trkpt lat="42.404453" lon="-7.72602">
        <time>2021-11-27T13:06:03Z</time>
      </trkpt>
      <trkpt lat="42.404465" lon="-7.7260346">
        <time>2021-11-27T13:06:04Z</time>
      </trkpt>
      <trkpt lat="42.404476" lon="-7.7260485">
        <time>2021-11-27T13:06:05Z</time>
      </trkpt>
      <trkpt lat="42.404484" lon="-7.7260613">
        <time>2021-11-27T13:06:06Z</time>
      </trkpt>
      <trkpt lat="42.4045" lon="-7.726074">
        <time>2021-11-27T13:06:07Z</time>
      </trkpt>
      <trkpt lat="42.40451" lon="-7.726087">
        <time>2021-11-27T13:06:08Z</time>
      </trkpt>
      <trkpt lat="42.404522" lon="-7.7261004">
        <time>2021-11-27T13:06:09Z</time>
      </trkpt>
      <trkpt lat="42.404533" lon="-7.726113">
        <time>2021-11-27T13:06:10Z</time>
      </trkpt>
      <trkpt lat="42.404545" lon="-7.726125">
        <time>2021-11-27T13:06:11Z</time>
      </trkpt>
      <trkpt lat="42.40456" lon="-7.726136">
        <time>2021-11-27T13:06:12Z</time>
      </trkpt>
      <trkpt lat="42.40458" lon="-7.726145">
        <time>2021-11-27T13:06:13Z</time>
      </trkpt>
      <trkpt lat="42.404594" lon="-7.7261543">
        <time>2021-11-27T13:06:14Z</time>
      </trkpt>
      <trkpt lat="42.404606" lon="-7.7261615">
        <time>2021-11-27T13:06:15Z</time>
      </trkpt>
      <trkpt lat="42.404617" lon="-7.7261677">
        <time>2021-11-27T13:06:16Z</time>
      </trkpt>
      <trkpt lat="42.404633" lon="-7.726172">
        <time>2021-11-27T13:06:17Z</time>
      </trkpt>
      <trkpt lat="42.404648" lon="-7.726177">
        <time>2021-11-27T13:06:18Z</time>
      </trkpt>
      <trkpt lat="42.40466" lon="-7.72618">
        <time>2021-11-27T13:06:19Z</time>
      </trkpt>
      <trkpt lat="42.404675" lon="-7.7261825">
        <time>2021-11-27T13:06:20Z</time>
      </trkpt>
      <trkpt lat="42.404686" lon="-7.72619">
        <time>2021-11-27T13:06:21Z</time>
      </trkpt>
      <trkpt lat="42.404697" lon="-7.7261977">
        <time>2021-11-27T13:06:22Z</time>
      </trkpt>
      <trkpt lat="42.40471" lon="-7.7262053">
        <time>2021-11-27T13:06:23Z</time>
      </trkpt>
      <trkpt lat="42.404716" lon="-7.7262125">
        <time>2021-11-27T13:06:24Z</time>
      </trkpt>
      <trkpt lat="42.404728" lon="-7.726218">
        <time>2021-11-27T13:06:25Z</time>
      </trkpt>
      <trkpt lat="42.40474" lon="-7.7262254">
        <time>2021-11-27T13:06:26Z</time>
      </trkpt>
      <trkpt lat="42.404747" lon="-7.7262335">
        <time>2021-11-27T13:06:27Z</time>
      </trkpt>
      <trkpt lat="42.404755" lon="-7.72624">
        <time>2021-11-27T13:06:28Z</time>
      </trkpt>
      <trkpt lat="42.40477" lon="-7.7262444">
        <time>2021-11-27T13:06:29Z</time>
      </trkpt>
      <trkpt lat="42.40478" lon="-7.726247">
        <time>2021-11-27T13:06:30Z</time>
      </trkpt>
      <trkpt lat="42.404793" lon="-7.7262483">
        <time>2021-11-27T13:06:31Z</time>
      </trkpt>
      <trkpt lat="42.404808" lon="-7.7262483">
        <time>2021-11-27T13:06:32Z</time>
      </trkpt>
      <trkpt lat="42.40482" lon="-7.7262483">
        <time>2021-11-27T13:06:33Z</time>
      </trkpt>
      <trkpt lat="42.404835" lon="-7.7262483">
        <time>2021-11-27T13:06:34Z</time>
      </trkpt>
      <trkpt lat="42.404846" lon="-7.7262487">
        <time>2021-11-27T13:06:35Z</time>
      </trkpt>
      <trkpt lat="42.404858" lon="-7.7262487">
        <time>2021-11-27T13:06:36Z</time>
      </trkpt>
      <trkpt lat="42.40487" lon="-7.7262483">
        <time>2021-11-27T13:06:37Z</time>
      </trkpt>
      <trkpt lat="42.40488" lon="-7.7262483">
        <time>2021-11-27T13:06:38Z</time>
      </trkpt>
      <trkpt lat="42.404896" lon="-7.726247">
        <time>2021-11-27T13:06:39Z</time>
      </trkpt>
      <trkpt lat="42.404907" lon="-7.7262444">
        <time>2021-11-27T13:06:40Z</time>
      </trkpt>
      <trkpt lat="42.404922" lon="-7.7262406">
        <time>2021-11-27T13:06:41Z</time>
      </trkpt>
      <trkpt lat="42.404938" lon="-7.7262344">
        <time>2021-11-27T13:06:42Z</time>
      </trkpt>
      <trkpt lat="42.404953" lon="-7.7262297">
        <time>2021-11-27T13:06:43Z</time>
      </trkpt>
      <trkpt lat="42.40497" lon="-7.726226">
        <time>2021-11-27T13:06:44Z</time>
      </trkpt>
      <trkpt lat="42.40498" lon="-7.7262235">
        <time>2021-11-27T13:06:45Z</time>
      </trkpt>
      <trkpt lat="42.404995" lon="-7.7262206">
        <time>2021-11-27T13:06:46Z</time>
      </trkpt>
      <trkpt lat="42.405006" lon="-7.726218">
        <time>2021-11-27T13:06:47Z</time>
      </trkpt>
      <trkpt lat="42.40502" lon="-7.726217">
        <time>2021-11-27T13:06:48Z</time>
      </trkpt>
      <trkpt lat="42.405037" lon="-7.7262144">
        <time>2021-11-27T13:06:49Z</time>
      </trkpt>
      <trkpt lat="42.405052" lon="-7.7262125">
        <time>2021-11-27T13:06:50Z</time>
      </trkpt>
      <trkpt lat="42.405064" lon="-7.7262106">
        <time>2021-11-27T13:06:51Z</time>
      </trkpt>
      <trkpt lat="42.40508" lon="-7.726209">
        <time>2021-11-27T13:06:52Z</time>
      </trkpt>
      <trkpt lat="42.40509" lon="-7.726208">
        <time>2021-11-27T13:06:53Z</time>
      </trkpt>
      <trkpt lat="42.405106" lon="-7.7262073">
        <time>2021-11-27T13:06:54Z</time>
      </trkpt>
      <trkpt lat="42.405117" lon="-7.726208">
        <time>2021-11-27T13:06:55Z</time>
      </trkpt>
      <trkpt lat="42.40513" lon="-7.726209">
        <time>2021-11-27T13:06:56Z</time>
      </trkpt>
      <trkpt lat="42.405144" lon="-7.726212">
        <time>2021-11-27T13:06:57Z</time>
      </trkpt>
      <trkpt lat="42.40516" lon="-7.7262144">
        <time>2021-11-27T13:06:58Z</time>
      </trkpt>
      <trkpt lat="42.40517" lon="-7.726215">
        <time>2021-11-27T13:06:59Z</time>
      </trkpt>
      <trkpt lat="42.405186" lon="-7.726215">
        <time>2021-11-27T13:07:00Z</time>
      </trkpt>
      <trkpt lat="42.405197" lon="-7.726214">
        <time>2021-11-27T13:07:01Z</time>
      </trkpt>
      <trkpt lat="42.40521" lon="-7.7262125">
        <time>2021-11-27T13:07:02Z</time>
      </trkpt>
      <trkpt lat="42.40522" lon="-7.7262125">
        <time>2021-11-27T13:07:03Z</time>
      </trkpt>
      <trkpt lat="42.40523" lon="-7.7262125">
        <time>2021-11-27T13:07:04Z</time>
      </trkpt>
      <trkpt lat="42.405243" lon="-7.726213">
        <time>2021-11-27T13:07:05Z</time>
      </trkpt>
      <trkpt lat="42.405254" lon="-7.7262144">
        <time>2021-11-27T13:07:06Z</time>
      </trkpt>
      <trkpt lat="42.405266" lon="-7.726216">
        <time>2021-11-27T13:07:07Z</time>
      </trkpt>
      <trkpt lat="42.405277" lon="-7.726217">
        <time>2021-11-27T13:07:08Z</time>
      </trkpt>
      <trkpt lat="42.405293" lon="-7.726218">
        <time>2021-11-27T13:07:09Z</time>
      </trkpt>
      <trkpt lat="42.4053" lon="-7.7262206">
        <time>2021-11-27T13:07:10Z</time>
      </trkpt>
      <trkpt lat="42.405308" lon="-7.7262216">
        <time>2021-11-27T13:07:11Z</time>
      </trkpt>
      <trkpt lat="42.405315" lon="-7.7262216">
        <time>2021-11-27T13:07:12Z</time>
      </trkpt>
      <trkpt lat="42.40533" lon="-7.7262206">
        <time>2021-11-27T13:07:13Z</time>
      </trkpt>
      <trkpt lat="42.40534" lon="-7.7262177">
        <time>2021-11-27T13:07:14Z</time>
      </trkpt>
      <trkpt lat="42.40535" lon="-7.726213">
        <time>2021-11-27T13:07:15Z</time>
      </trkpt>
      <trkpt lat="42.405365" lon="-7.7262073">
        <time>2021-11-27T13:07:16Z</time>
      </trkpt>
      <trkpt lat="42.405373" lon="-7.726201">
        <time>2021-11-27T13:07:17Z</time>
      </trkpt>
      <trkpt lat="42.405384" lon="-7.7261925">
        <time>2021-11-27T13:07:18Z</time>
      </trkpt>
      <trkpt lat="42.405396" lon="-7.7261825">
        <time>2021-11-27T13:07:19Z</time>
      </trkpt>
      <trkpt lat="42.405403" lon="-7.726172">
        <time>2021-11-27T13:07:20Z</time>
      </trkpt>
      <trkpt lat="42.405415" lon="-7.726162">
        <time>2021-11-27T13:07:21Z</time>
      </trkpt>
      <trkpt lat="42.405422" lon="-7.7261524">
        <time>2021-11-27T13:07:22Z</time>
      </trkpt>
      <trkpt lat="42.405434" lon="-7.726142">
        <time>2021-11-27T13:07:23Z</time>
      </trkpt>
      <trkpt lat="42.40544" lon="-7.7261333">
        <time>2021-11-27T13:07:24Z</time>
      </trkpt>
      <trkpt lat="42.405457" lon="-7.7261252">
        <time>2021-11-27T13:07:25Z</time>
      </trkpt>
      <trkpt lat="42.405468" lon="-7.726117">
        <time>2021-11-27T13:07:26Z</time>
      </trkpt>
      <trkpt lat="42.40548" lon="-7.7261076">
        <time>2021-11-27T13:07:27Z</time>
      </trkpt>
      <trkpt lat="42.40549" lon="-7.726098">
        <time>2021-11-27T13:07:28Z</time>
      </trkpt>
      <trkpt lat="42.405502" lon="-7.7260885">
        <time>2021-11-27T13:07:29Z</time>
      </trkpt>
      <trkpt lat="42.40551" lon="-7.7260766">
        <time>2021-11-27T13:07:30Z</time>
      </trkpt>
      <trkpt lat="42.40551" lon="-7.726065">
        <time>2021-11-27T13:07:31Z</time>
      </trkpt>
      <trkpt lat="42.405518" lon="-7.7260523">
        <time>2021-11-27T13:07:32Z</time>
      </trkpt>
      <trkpt lat="42.40552" lon="-7.726041">
        <time>2021-11-27T13:07:33Z</time>
      </trkpt>
      <trkpt lat="42.40553" lon="-7.726028">
        <time>2021-11-27T13:07:34Z</time>
      </trkpt>
      <trkpt lat="42.40554" lon="-7.7260156">
        <time>2021-11-27T13:07:35Z</time>
      </trkpt>
      <trkpt lat="42.40555" lon="-7.7260027">
        <time>2021-11-27T13:07:36Z</time>
      </trkpt>
      <trkpt lat="42.40556" lon="-7.7259917">
        <time>2021-11-27T13:07:37Z</time>
      </trkpt>
      <trkpt lat="42.405567" lon="-7.7259827">
        <time>2021-11-27T13:07:38Z</time>
      </trkpt>
      <trkpt lat="42.405575" lon="-7.725971">
        <time>2021-11-27T13:07:39Z</time>
      </trkpt>
      <trkpt lat="42.405582" lon="-7.7259603">
        <time>2021-11-27T13:07:40Z</time>
      </trkpt>
      <trkpt lat="42.40559" lon="-7.725949">
        <time>2021-11-27T13:07:41Z</time>
      </trkpt>
      <trkpt lat="42.4056" lon="-7.725938">
        <time>2021-11-27T13:07:42Z</time>
      </trkpt>
      <trkpt lat="42.40561" lon="-7.725927">
        <time>2021-11-27T13:07:43Z</time>
      </trkpt>
      <trkpt lat="42.40562" lon="-7.7259154">
        <time>2021-11-27T13:07:44Z</time>
      </trkpt>
      <trkpt lat="42.40563" lon="-7.725904">
        <time>2021-11-27T13:07:45Z</time>
      </trkpt>
      <trkpt lat="42.405636" lon="-7.7258925">
        <time>2021-11-27T13:07:46Z</time>
      </trkpt>
      <trkpt lat="42.405647" lon="-7.72588">
        <time>2021-11-27T13:07:47Z</time>
      </trkpt>
      <trkpt lat="42.405655" lon="-7.7258677">
        <time>2021-11-27T13:07:48Z</time>
      </trkpt>
      <trkpt lat="42.405666" lon="-7.7258573">
        <time>2021-11-27T13:07:49Z</time>
      </trkpt>
      <trkpt lat="42.405674" lon="-7.7258453">
        <time>2021-11-27T13:07:50Z</time>
      </trkpt>
      <trkpt lat="42.40568" lon="-7.725833">
        <time>2021-11-27T13:07:51Z</time>
      </trkpt>
      <trkpt lat="42.405693" lon="-7.7258215">
        <time>2021-11-27T13:07:52Z</time>
      </trkpt>
      <trkpt lat="42.405704" lon="-7.72581">
        <time>2021-11-27T13:07:53Z</time>
      </trkpt>
      <trkpt lat="42.405712" lon="-7.725797">
        <time>2021-11-27T13:07:54Z</time>
      </trkpt>
      <trkpt lat="42.40572" lon="-7.725784">
        <time>2021-11-27T13:07:55Z</time>
      </trkpt>
      <trkpt lat="42.405727" lon="-7.7257714">
        <time>2021-11-27T13:07:56Z</time>
      </trkpt>
      <trkpt lat="42.40574" lon="-7.7257605">
        <time>2021-11-27T13:07:57Z</time>
      </trkpt>
      <trkpt lat="42.405746" lon="-7.725749">
        <time>2021-11-27T13:07:58Z</time>
      </trkpt>
      <trkpt lat="42.405754" lon="-7.725737">
        <time>2021-11-27T13:07:59Z</time>
      </trkpt>
      <trkpt lat="42.40576" lon="-7.7257237">
        <time>2021-11-27T13:08:00Z</time>
      </trkpt>
      <trkpt lat="42.405773" lon="-7.7257113">
        <time>2021-11-27T13:08:01Z</time>
      </trkpt>
      <trkpt lat="42.405785" lon="-7.7257">
        <time>2021-11-27T13:08:02Z</time>
      </trkpt>
      <trkpt lat="42.405792" lon="-7.725689">
        <time>2021-11-27T13:08:03Z</time>
      </trkpt>
      <trkpt lat="42.4058" lon="-7.725679">
        <time>2021-11-27T13:08:04Z</time>
      </trkpt>
      <trkpt lat="42.40581" lon="-7.725667">
        <time>2021-11-27T13:08:05Z</time>
      </trkpt>
      <trkpt lat="42.405823" lon="-7.725655">
        <time>2021-11-27T13:08:06Z</time>
      </trkpt>
      <trkpt lat="42.40583" lon="-7.725644">
        <time>2021-11-27T13:08:07Z</time>
      </trkpt>
      <trkpt lat="42.405838" lon="-7.7256346">
        <time>2021-11-27T13:08:08Z</time>
      </trkpt>
      <trkpt lat="42.40585" lon="-7.725624">
        <time>2021-11-27T13:08:09Z</time>
      </trkpt>
      <trkpt lat="42.40586" lon="-7.725614">
        <time>2021-11-27T13:08:10Z</time>
      </trkpt>
      <trkpt lat="42.40587" lon="-7.7256026">
        <time>2021-11-27T13:08:11Z</time>
      </trkpt>
      <trkpt lat="42.40588" lon="-7.7255898">
        <time>2021-11-27T13:08:12Z</time>
      </trkpt>
      <trkpt lat="42.40589" lon="-7.725577">
        <time>2021-11-27T13:08:13Z</time>
      </trkpt>
      <trkpt lat="42.4059" lon="-7.725564">
        <time>2021-11-27T13:08:14Z</time>
      </trkpt>
      <trkpt lat="42.405907" lon="-7.725551">
        <time>2021-11-27T13:08:14Z</time>
      </trkpt>
      <trkpt lat="42.405922" lon="-7.725539">
        <time>2021-11-27T13:08:15Z</time>
      </trkpt>
      <trkpt lat="42.40593" lon="-7.725527">
        <time>2021-11-27T13:08:16Z</time>
      </trkpt>
      <trkpt lat="42.40594" lon="-7.7255163">
        <time>2021-11-27T13:08:17Z</time>
      </trkpt>
      <trkpt lat="42.40595" lon="-7.725506">
        <time>2021-11-27T13:08:18Z</time>
      </trkpt>
      <trkpt lat="42.405956" lon="-7.725496">
        <time>2021-11-27T13:08:19Z</time>
      </trkpt>
      <trkpt lat="42.405964" lon="-7.7254853">
        <time>2021-11-27T13:08:20Z</time>
      </trkpt>
      <trkpt lat="42.40597" lon="-7.7254744">
        <time>2021-11-27T13:08:21Z</time>
      </trkpt>
      <trkpt lat="42.405983" lon="-7.725463">
        <time>2021-11-27T13:08:22Z</time>
      </trkpt>
      <trkpt lat="42.405994" lon="-7.725451">
        <time>2021-11-27T13:08:23Z</time>
      </trkpt>
      <trkpt lat="42.406002" lon="-7.7254367">
        <time>2021-11-27T13:08:24Z</time>
      </trkpt>
      <trkpt lat="42.40601" lon="-7.725422">
        <time>2021-11-27T13:08:25Z</time>
      </trkpt>
      <trkpt lat="42.406017" lon="-7.7254086">
        <time>2021-11-27T13:08:26Z</time>
      </trkpt>
      <trkpt lat="42.406025" lon="-7.725395">
        <time>2021-11-27T13:08:27Z</time>
      </trkpt>
      <trkpt lat="42.406033" lon="-7.7253804">
        <time>2021-11-27T13:08:28Z</time>
      </trkpt>
      <trkpt lat="42.40604" lon="-7.7253656">
        <time>2021-11-27T13:08:29Z</time>
      </trkpt>
      <trkpt lat="42.406048" lon="-7.7253523">
        <time>2021-11-27T13:08:30Z</time>
      </trkpt>
      <trkpt lat="42.406055" lon="-7.7253394">
        <time>2021-11-27T13:08:31Z</time>
      </trkpt>
      <trkpt lat="42.406063" lon="-7.7253284">
        <time>2021-11-27T13:08:32Z</time>
      </trkpt>
      <trkpt lat="42.40607" lon="-7.7253165">
        <time>2021-11-27T13:08:33Z</time>
      </trkpt>
      <trkpt lat="42.40608" lon="-7.7253056">
        <time>2021-11-27T13:08:34Z</time>
      </trkpt>
      <trkpt lat="42.406094" lon="-7.725294">
        <time>2021-11-27T13:08:35Z</time>
      </trkpt>
      <trkpt lat="42.406105" lon="-7.725283">
        <time>2021-11-27T13:08:36Z</time>
      </trkpt>
      <trkpt lat="42.40612" lon="-7.7252717">
        <time>2021-11-27T13:08:37Z</time>
      </trkpt>
      <trkpt lat="42.40613" lon="-7.7252607">
        <time>2021-11-27T13:08:38Z</time>
      </trkpt>
      <trkpt lat="42.406147" lon="-7.7252507">
        <time>2021-11-27T13:08:39Z</time>
      </trkpt>
      <trkpt lat="42.40616" lon="-7.72524">
        <time>2021-11-27T13:08:40Z</time>
      </trkpt>
      <trkpt lat="42.406174" lon="-7.7252283">
        <time>2021-11-27T13:08:41Z</time>
      </trkpt>
      <trkpt lat="42.40618" lon="-7.725217">
        <time>2021-11-27T13:08:42Z</time>
      </trkpt>
      <trkpt lat="42.40619" lon="-7.7252045">
        <time>2021-11-27T13:08:43Z</time>
      </trkpt>
      <trkpt lat="42.406197" lon="-7.725191">
        <time>2021-11-27T13:08:44Z</time>
      </trkpt>
      <trkpt lat="42.406208" lon="-7.7251787">
        <time>2021-11-27T13:08:45Z</time>
      </trkpt>
      <trkpt lat="42.40622" lon="-7.725169">
        <time>2021-11-27T13:08:46Z</time>
      </trkpt>
      <trkpt lat="42.406235" lon="-7.72516">
        <time>2021-11-27T13:08:47Z</time>
      </trkpt>
      <trkpt lat="42.406246" lon="-7.72515">
        <time>2021-11-27T13:08:48Z</time>
      </trkpt>
      <trkpt lat="42.406258" lon="-7.725139">
        <time>2021-11-27T13:08:49Z</time>
      </trkpt>
      <trkpt lat="42.406273" lon="-7.725129">
        <time>2021-11-27T13:08:50Z</time>
      </trkpt>
      <trkpt lat="42.40628" lon="-7.7251196">
        <time>2021-11-27T13:08:51Z</time>
      </trkpt>
      <trkpt lat="42.406292" lon="-7.725111">
        <time>2021-11-27T13:08:52Z</time>
      </trkpt>
      <trkpt lat="42.4063" lon="-7.725105">
        <time>2021-11-27T13:08:53Z</time>
      </trkpt>
      <trkpt lat="42.40631" lon="-7.7250977">
        <time>2021-11-27T13:08:54Z</time>
      </trkpt>
      <trkpt lat="42.40632" lon="-7.725089">
        <time>2021-11-27T13:08:55Z</time>
      </trkpt>
      <trkpt lat="42.40633" lon="-7.725079">
        <time>2021-11-27T13:08:56Z</time>
      </trkpt>
      <trkpt lat="42.406338" lon="-7.725066">
        <time>2021-11-27T13:08:57Z</time>
      </trkpt>
      <trkpt lat="42.406345" lon="-7.7250524">
        <time>2021-11-27T13:08:58Z</time>
      </trkpt>
      <trkpt lat="42.406353" lon="-7.725036">
        <time>2021-11-27T13:08:59Z</time>
      </trkpt>
      <trkpt lat="42.40636" lon="-7.72502">
        <time>2021-11-27T13:09:00Z</time>
      </trkpt>
      <trkpt lat="42.40637" lon="-7.725004">
        <time>2021-11-27T13:09:01Z</time>
      </trkpt>
      <trkpt lat="42.406376" lon="-7.7249894">
        <time>2021-11-27T13:09:02Z</time>
      </trkpt>
      <trkpt lat="42.40638" lon="-7.724976">
        <time>2021-11-27T13:09:03Z</time>
      </trkpt>
      <trkpt lat="42.406387" lon="-7.7249627">
        <time>2021-11-27T13:09:04Z</time>
      </trkpt>
      <trkpt lat="42.4064" lon="-7.7249484">
        <time>2021-11-27T13:09:05Z</time>
      </trkpt>
      <trkpt lat="42.406406" lon="-7.7249336">
        <time>2021-11-27T13:09:06Z</time>
      </trkpt>
      <trkpt lat="42.40641" lon="-7.7249184">
        <time>2021-11-27T13:09:07Z</time>
      </trkpt>
      <trkpt lat="42.406418" lon="-7.724905">
        <time>2021-11-27T13:09:08Z</time>
      </trkpt>
      <trkpt lat="42.40643" lon="-7.724892">
        <time>2021-11-27T13:09:09Z</time>
      </trkpt>
      <trkpt lat="42.406437" lon="-7.72488">
        <time>2021-11-27T13:09:10Z</time>
      </trkpt>
      <trkpt lat="42.406445" lon="-7.7248683">
        <time>2021-11-27T13:09:11Z</time>
      </trkpt>
      <trkpt lat="42.406456" lon="-7.7248564">
        <time>2021-11-27T13:09:12Z</time>
      </trkpt>
      <trkpt lat="42.406467" lon="-7.724844">
        <time>2021-11-27T13:09:13Z</time>
      </trkpt>
      <trkpt lat="42.40648" lon="-7.724832">
        <time>2021-11-27T13:09:14Z</time>
      </trkpt>
      <trkpt lat="42.40649" lon="-7.7248206">
        <time>2021-11-27T13:09:15Z</time>
      </trkpt>
      <trkpt lat="42.406498" lon="-7.7248073">
        <time>2021-11-27T13:09:16Z</time>
      </trkpt>
      <trkpt lat="42.40651" lon="-7.7247934">
        <time>2021-11-27T13:09:17Z</time>
      </trkpt>
      <trkpt lat="42.40652" lon="-7.7247815">
        <time>2021-11-27T13:09:18Z</time>
      </trkpt>
      <trkpt lat="42.406532" lon="-7.724769">
        <time>2021-11-27T13:09:19Z</time>
      </trkpt>
      <trkpt lat="42.40654" lon="-7.7247577">
        <time>2021-11-27T13:09:20Z</time>
      </trkpt>
      <trkpt lat="42.406548" lon="-7.7247477">
        <time>2021-11-27T13:09:21Z</time>
      </trkpt>
      <trkpt lat="42.406555" lon="-7.724738">
        <time>2021-11-27T13:09:22Z</time>
      </trkpt>
      <trkpt lat="42.406563" lon="-7.724729">
        <time>2021-11-27T13:09:23Z</time>
      </trkpt>
      <trkpt lat="42.40657" lon="-7.72472">
        <time>2021-11-27T13:09:24Z</time>
      </trkpt>
      <trkpt lat="42.406578" lon="-7.7247143">
        <time>2021-11-27T13:09:25Z</time>
      </trkpt>
      <trkpt lat="42.406586" lon="-7.724711">
        <time>2021-11-27T13:09:26Z</time>
      </trkpt>
      <trkpt lat="42.406597" lon="-7.724705">
        <time>2021-11-27T13:09:27Z</time>
      </trkpt>
      <trkpt lat="42.406605" lon="-7.724698">
        <time>2021-11-27T13:09:28Z</time>
      </trkpt>
      <trkpt lat="42.40661" lon="-7.7246923">
        <time>2021-11-27T13:09:29Z</time>
      </trkpt>
      <trkpt lat="42.40661" lon="-7.7246866">
        <time>2021-11-27T13:09:30Z</time>
      </trkpt>
      <trkpt lat="42.406616" lon="-7.7246795">
        <time>2021-11-27T13:09:31Z</time>
      </trkpt>
      <trkpt lat="42.40662" lon="-7.7246733">
        <time>2021-11-27T13:09:32Z</time>
      </trkpt>
      <trkpt lat="42.406624" lon="-7.7246637">
        <time>2021-11-27T13:09:33Z</time>
      </trkpt>
      <trkpt lat="42.406628" lon="-7.7246513">
        <time>2021-11-27T13:09:34Z</time>
      </trkpt>
      <trkpt lat="42.40663" lon="-7.7246394">
        <time>2021-11-27T13:09:35Z</time>
      </trkpt>
      <trkpt lat="42.40664" lon="-7.724627">
        <time>2021-11-27T13:09:36Z</time>
      </trkpt>
      <trkpt lat="42.406647" lon="-7.724615">
        <time>2021-11-27T13:09:37Z</time>
      </trkpt>
      <trkpt lat="42.40666" lon="-7.724602">
        <time>2021-11-27T13:09:38Z</time>
      </trkpt>
      <trkpt lat="42.40667" lon="-7.724591">
        <time>2021-11-27T13:09:39Z</time>
      </trkpt>
      <trkpt lat="42.406685" lon="-7.7245803">
        <time>2021-11-27T13:09:40Z</time>
      </trkpt>
      <trkpt lat="42.406693" lon="-7.7245708">
        <time>2021-11-27T13:09:41Z</time>
      </trkpt>
      <trkpt lat="42.406704" lon="-7.7245626">
        <time>2021-11-27T13:09:42Z</time>
      </trkpt>
      <trkpt lat="42.406715" lon="-7.724553">
        <time>2021-11-27T13:09:43Z</time>
      </trkpt>
      <trkpt lat="42.406727" lon="-7.7245426">
        <time>2021-11-27T13:09:44Z</time>
      </trkpt>
      <trkpt lat="42.406742" lon="-7.724533">
        <time>2021-11-27T13:09:46Z</time>
      </trkpt>
      <trkpt lat="42.406754" lon="-7.7245235">
        <time>2021-11-27T13:09:46Z</time>
      </trkpt>
      <trkpt lat="42.406765" lon="-7.724513">
        <time>2021-11-27T13:09:47Z</time>
      </trkpt>
      <trkpt lat="42.406773" lon="-7.7245035">
        <time>2021-11-27T13:09:48Z</time>
      </trkpt>
      <trkpt lat="42.406788" lon="-7.724492">
        <time>2021-11-27T13:09:49Z</time>
      </trkpt>
      <trkpt lat="42.406796" lon="-7.7244825">
        <time>2021-11-27T13:09:50Z</time>
      </trkpt>
      <trkpt lat="42.406807" lon="-7.724471">
        <time>2021-11-27T13:09:51Z</time>
      </trkpt>
      <trkpt lat="42.40682" lon="-7.7244596">
        <time>2021-11-27T13:09:52Z</time>
      </trkpt>
      <trkpt lat="42.40683" lon="-7.724449">
        <time>2021-11-27T13:09:53Z</time>
      </trkpt>
      <trkpt lat="42.40684" lon="-7.724438">
        <time>2021-11-27T13:09:54Z</time>
      </trkpt>
      <trkpt lat="42.406853" lon="-7.7244263">
        <time>2021-11-27T13:09:55Z</time>
      </trkpt>
      <trkpt lat="42.406864" lon="-7.7244167">
        <time>2021-11-27T13:09:56Z</time>
      </trkpt>
      <trkpt lat="42.40687" lon="-7.724408">
        <time>2021-11-27T13:09:57Z</time>
      </trkpt>
      <trkpt lat="42.406883" lon="-7.7244">
        <time>2021-11-27T13:09:58Z</time>
      </trkpt>
      <trkpt lat="42.4069" lon="-7.7243915">
        <time>2021-11-27T13:09:59Z</time>
      </trkpt>
      <trkpt lat="42.406914" lon="-7.724384">
        <time>2021-11-27T13:10:00Z</time>
      </trkpt>
      <trkpt lat="42.406925" lon="-7.724377">
        <time>2021-11-27T13:10:01Z</time>
      </trkpt>
      <trkpt lat="42.406937" lon="-7.724369">
        <time>2021-11-27T13:10:02Z</time>
      </trkpt>
      <trkpt lat="42.406944" lon="-7.7243614">
        <time>2021-11-27T13:10:03Z</time>
      </trkpt>
      <trkpt lat="42.40696" lon="-7.724355">
        <time>2021-11-27T13:10:04Z</time>
      </trkpt>
      <trkpt lat="42.406967" lon="-7.724348">
        <time>2021-11-27T13:10:05Z</time>
      </trkpt>
      <trkpt lat="42.406975" lon="-7.7243423">
        <time>2021-11-27T13:10:06Z</time>
      </trkpt>
      <trkpt lat="42.406982" lon="-7.7243347">
        <time>2021-11-27T13:10:07Z</time>
      </trkpt>
      <trkpt lat="42.40699" lon="-7.7243276">
        <time>2021-11-27T13:10:08Z</time>
      </trkpt>
      <trkpt lat="42.407" lon="-7.7243195">
        <time>2021-11-27T13:10:09Z</time>
      </trkpt>
      <trkpt lat="42.40701" lon="-7.7243104">
        <time>2021-11-27T13:10:10Z</time>
      </trkpt>
      <trkpt lat="42.40702" lon="-7.7243023">
        <time>2021-11-27T13:10:11Z</time>
      </trkpt>
      <trkpt lat="42.40703" lon="-7.724293">
        <time>2021-11-27T13:10:12Z</time>
      </trkpt>
      <trkpt lat="42.407036" lon="-7.7242827">
        <time>2021-11-27T13:10:13Z</time>
      </trkpt>
      <trkpt lat="42.40705" lon="-7.7242713">
        <time>2021-11-27T13:10:14Z</time>
      </trkpt>
      <trkpt lat="42.407063" lon="-7.72426">
        <time>2021-11-27T13:10:15Z</time>
      </trkpt>
      <trkpt lat="42.407074" lon="-7.724249">
        <time>2021-11-27T13:10:16Z</time>
      </trkpt>
      <trkpt lat="42.407085" lon="-7.7242393">
        <time>2021-11-27T13:10:17Z</time>
      </trkpt>
      <trkpt lat="42.407097" lon="-7.724232">
        <time>2021-11-27T13:10:18Z</time>
      </trkpt>
      <trkpt lat="42.40711" lon="-7.724226">
        <time>2021-11-27T13:10:19Z</time>
      </trkpt>
      <trkpt lat="42.407124" lon="-7.7242203">
        <time>2021-11-27T13:10:20Z</time>
      </trkpt>
      <trkpt lat="42.40713" lon="-7.724215">
        <time>2021-11-27T13:10:21Z</time>
      </trkpt>
      <trkpt lat="42.40714" lon="-7.724208">
        <time>2021-11-27T13:10:22Z</time>
      </trkpt>
      <trkpt lat="42.407154" lon="-7.724199">
        <time>2021-11-27T13:10:23Z</time>
      </trkpt>
      <trkpt lat="42.40716" lon="-7.724191">
        <time>2021-11-27T13:10:24Z</time>
      </trkpt>
      <trkpt lat="42.40717" lon="-7.7241855">
        <time>2021-11-27T13:10:25Z</time>
      </trkpt>
      <trkpt lat="42.407177" lon="-7.7241817">
        <time>2021-11-27T13:10:26Z</time>
      </trkpt>
      <trkpt lat="42.407185" lon="-7.7241793">
        <time>2021-11-27T13:10:27Z</time>
      </trkpt>
      <trkpt lat="42.407192" lon="-7.724176">
        <time>2021-11-27T13:10:28Z</time>
      </trkpt>
      <trkpt lat="42.407204" lon="-7.7241726">
        <time>2021-11-27T13:10:29Z</time>
      </trkpt>
      <trkpt lat="42.40721" lon="-7.7241697">
        <time>2021-11-27T13:10:30Z</time>
      </trkpt>
      <trkpt lat="42.40722" lon="-7.724167">
        <time>2021-11-27T13:10:31Z</time>
      </trkpt>
      <trkpt lat="42.407227" lon="-7.724167">
        <time>2021-11-27T13:10:32Z</time>
      </trkpt>
      <trkpt lat="42.40723" lon="-7.724169">
        <time>2021-11-27T13:10:33Z</time>
      </trkpt>
      <trkpt lat="42.407238" lon="-7.7241697">
        <time>2021-11-27T13:10:34Z</time>
      </trkpt>
      <trkpt lat="42.407246" lon="-7.7241716">
        <time>2021-11-27T13:10:35Z</time>
      </trkpt>
      <trkpt lat="42.407253" lon="-7.7241726">
        <time>2021-11-27T13:10:36Z</time>
      </trkpt>
      <trkpt lat="42.40726" lon="-7.7241755">
        <time>2021-11-27T13:10:37Z</time>
      </trkpt>
      <trkpt lat="42.407272" lon="-7.7241774">
        <time>2021-11-27T13:10:38Z</time>
      </trkpt>
      <trkpt lat="42.407288" lon="-7.7241797">
        <time>2021-11-27T13:10:39Z</time>
      </trkpt>
      <trkpt lat="42.407295" lon="-7.7241836">
        <time>2021-11-27T13:10:40Z</time>
      </trkpt>
      <trkpt lat="42.407307" lon="-7.7241874">
        <time>2021-11-27T13:10:41Z</time>
      </trkpt>
      <trkpt lat="42.40732" lon="-7.724193">
        <time>2021-11-27T13:10:42Z</time>
      </trkpt>
      <trkpt lat="42.407326" lon="-7.724199">
        <time>2021-11-27T13:10:43Z</time>
      </trkpt>
      <trkpt lat="42.407337" lon="-7.7242036">
        <time>2021-11-27T13:10:44Z</time>
      </trkpt>
      <trkpt lat="42.40735" lon="-7.7242074">
        <time>2021-11-27T13:10:45Z</time>
      </trkpt>
      <trkpt lat="42.407352" lon="-7.724211">
        <time>2021-11-27T13:10:46Z</time>
      </trkpt>
      <trkpt lat="42.407356" lon="-7.7242136">
        <time>2021-11-27T13:10:47Z</time>
      </trkpt>
      <trkpt lat="42.40737" lon="-7.7242146">
        <time>2021-11-27T13:10:53Z</time>
      </trkpt>
      <trkpt lat="42.407364" lon="-7.724211">
        <time>2021-11-27T13:10:57Z</time>
      </trkpt>
      <trkpt lat="42.40736" lon="-7.72421">
        <time>2021-11-27T13:11:04Z</time>
      </trkpt>
      <trkpt lat="42.407364" lon="-7.72421">
        <time>2021-11-27T13:11:14Z</time>
      </trkpt>
      <trkpt lat="42.40738" lon="-7.724208">
        <time>2021-11-27T13:11:15Z</time>
      </trkpt>
      <trkpt lat="42.407383" lon="-7.724207">
        <time>2021-11-27T13:11:16Z</time>
      </trkpt>
      <trkpt lat="42.40739" lon="-7.724205">
        <time>2021-11-27T13:11:17Z</time>
      </trkpt>
      <trkpt lat="42.407402" lon="-7.724202">
        <time>2021-11-27T13:11:18Z</time>
      </trkpt>
      <trkpt lat="42.40741" lon="-7.7242">
        <time>2021-11-27T13:11:19Z</time>
      </trkpt>
      <trkpt lat="42.407425" lon="-7.724198">
        <time>2021-11-27T13:11:20Z</time>
      </trkpt>
      <trkpt lat="42.40744" lon="-7.724195">
        <time>2021-11-27T13:11:21Z</time>
      </trkpt>
      <trkpt lat="42.407455" lon="-7.724192">
        <time>2021-11-27T13:11:22Z</time>
      </trkpt>
      <trkpt lat="42.407475" lon="-7.72419">
        <time>2021-11-27T13:11:23Z</time>
      </trkpt>
      <trkpt lat="42.40749" lon="-7.72419">
        <time>2021-11-27T13:11:24Z</time>
      </trkpt>
      <trkpt lat="42.407505" lon="-7.724192">
        <time>2021-11-27T13:11:25Z</time>
      </trkpt>
      <trkpt lat="42.407513" lon="-7.724196">
        <time>2021-11-27T13:11:26Z</time>
      </trkpt>
      <trkpt lat="42.40752" lon="-7.7242017">
        <time>2021-11-27T13:11:27Z</time>
      </trkpt>
      <trkpt lat="42.407528" lon="-7.724208">
        <time>2021-11-27T13:11:28Z</time>
      </trkpt>
      <trkpt lat="42.407536" lon="-7.7242155">
        <time>2021-11-27T13:11:29Z</time>
      </trkpt>
      <trkpt lat="42.40755" lon="-7.724223">
        <time>2021-11-27T13:11:30Z</time>
      </trkpt>
      <trkpt lat="42.407562" lon="-7.72423">
        <time>2021-11-27T13:11:31Z</time>
      </trkpt>
      <trkpt lat="42.407574" lon="-7.724236">
        <time>2021-11-27T13:11:32Z</time>
      </trkpt>
      <trkpt lat="42.40759" lon="-7.7242446">
        <time>2021-11-27T13:11:33Z</time>
      </trkpt>
      <trkpt lat="42.4076" lon="-7.724252">
        <time>2021-11-27T13:11:34Z</time>
      </trkpt>
      <trkpt lat="42.40761" lon="-7.7242584">
        <time>2021-11-27T13:11:35Z</time>
      </trkpt>
      <trkpt lat="42.407623" lon="-7.7242618">
        <time>2021-11-27T13:11:36Z</time>
      </trkpt>
      <trkpt lat="42.407635" lon="-7.724264">
        <time>2021-11-27T13:11:37Z</time>
      </trkpt>
      <trkpt lat="42.40765" lon="-7.724268">
        <time>2021-11-27T13:11:38Z</time>
      </trkpt>
      <trkpt lat="42.40766" lon="-7.724271">
        <time>2021-11-27T13:11:39Z</time>
      </trkpt>
      <trkpt lat="42.407677" lon="-7.724272">
        <time>2021-11-27T13:11:40Z</time>
      </trkpt>
      <trkpt lat="42.407692" lon="-7.7242746">
        <time>2021-11-27T13:11:41Z</time>
      </trkpt>
      <trkpt lat="42.407703" lon="-7.724275">
        <time>2021-11-27T13:11:42Z</time>
      </trkpt>
      <trkpt lat="42.40772" lon="-7.724276">
        <time>2021-11-27T13:11:43Z</time>
      </trkpt>
      <trkpt lat="42.40773" lon="-7.7242785">
        <time>2021-11-27T13:11:44Z</time>
      </trkpt>
      <trkpt lat="42.407745" lon="-7.7242804">
        <time>2021-11-27T13:11:45Z</time>
      </trkpt>
      <trkpt lat="42.407757" lon="-7.724281">
        <time>2021-11-27T13:11:46Z</time>
      </trkpt>
      <trkpt lat="42.40777" lon="-7.724284">
        <time>2021-11-27T13:11:47Z</time>
      </trkpt>
      <trkpt lat="42.40778" lon="-7.7242875">
        <time>2021-11-27T13:11:48Z</time>
      </trkpt>
      <trkpt lat="42.40779" lon="-7.724292">
        <time>2021-11-27T13:11:49Z</time>
      </trkpt>
      <trkpt lat="42.407806" lon="-7.7242956">
        <time>2021-11-27T13:11:50Z</time>
      </trkpt>
      <trkpt lat="42.40782" lon="-7.7242994">
        <time>2021-11-27T13:11:51Z</time>
      </trkpt>
      <trkpt lat="42.407833" lon="-7.7243023">
        <time>2021-11-27T13:11:52Z</time>
      </trkpt>
      <trkpt lat="42.407845" lon="-7.7243047">
        <time>2021-11-27T13:11:53Z</time>
      </trkpt>
      <trkpt lat="42.407856" lon="-7.724312">
        <time>2021-11-27T13:11:54Z</time>
      </trkpt>
      <trkpt lat="42.407867" lon="-7.724318">
        <time>2021-11-27T13:11:55Z</time>
      </trkpt>
      <trkpt lat="42.407875" lon="-7.7243257">
        <time>2021-11-27T13:11:56Z</time>
      </trkpt>
      <trkpt lat="42.407887" lon="-7.7243333">
        <time>2021-11-27T13:11:57Z</time>
      </trkpt>
      <trkpt lat="42.407894" lon="-7.72434">
        <time>2021-11-27T13:11:58Z</time>
      </trkpt>
      <trkpt lat="42.407906" lon="-7.7243495">
        <time>2021-11-27T13:11:59Z</time>
      </trkpt>
      <trkpt lat="42.407917" lon="-7.724361">
        <time>2021-11-27T13:12:00Z</time>
      </trkpt>
      <trkpt lat="42.407925" lon="-7.724374">
        <time>2021-11-27T13:12:01Z</time>
      </trkpt>
      <trkpt lat="42.40794" lon="-7.724385">
        <time>2021-11-27T13:12:02Z</time>
      </trkpt>
      <trkpt lat="42.407948" lon="-7.724396">
        <time>2021-11-27T13:12:03Z</time>
      </trkpt>
      <trkpt lat="42.40796" lon="-7.7244062">
        <time>2021-11-27T13:12:04Z</time>
      </trkpt>
      <trkpt lat="42.407967" lon="-7.724412">
        <time>2021-11-27T13:12:05Z</time>
      </trkpt>
      <trkpt lat="42.407978" lon="-7.7244153">
        <time>2021-11-27T13:12:06Z</time>
      </trkpt>
      <trkpt lat="42.407986" lon="-7.724419">
        <time>2021-11-27T13:12:07Z</time>
      </trkpt>
      <trkpt lat="42.407997" lon="-7.7244244">
        <time>2021-11-27T13:12:08Z</time>
      </trkpt>
      <trkpt lat="42.408005" lon="-7.7244306">
        <time>2021-11-27T13:12:09Z</time>
      </trkpt>
      <trkpt lat="42.408016" lon="-7.724438">
        <time>2021-11-27T13:12:10Z</time>
      </trkpt>
      <trkpt lat="42.408024" lon="-7.724445">
        <time>2021-11-27T13:12:11Z</time>
      </trkpt>
      <trkpt lat="42.408035" lon="-7.7244506">
        <time>2021-11-27T13:12:12Z</time>
      </trkpt>
      <trkpt lat="42.408047" lon="-7.724457">
        <time>2021-11-27T13:12:13Z</time>
      </trkpt>
      <trkpt lat="42.40806" lon="-7.724464">
        <time>2021-11-27T13:12:14Z</time>
      </trkpt>
      <trkpt lat="42.408066" lon="-7.724475">
        <time>2021-11-27T13:12:15Z</time>
      </trkpt>
      <trkpt lat="42.408077" lon="-7.7244844">
        <time>2021-11-27T13:12:16Z</time>
      </trkpt>
      <trkpt lat="42.408085" lon="-7.724494">
        <time>2021-11-27T13:12:17Z</time>
      </trkpt>
      <trkpt lat="42.408096" lon="-7.7245026">
        <time>2021-11-27T13:12:18Z</time>
      </trkpt>
      <trkpt lat="42.408104" lon="-7.7245083">
        <time>2021-11-27T13:12:19Z</time>
      </trkpt>
      <trkpt lat="42.408115" lon="-7.724513">
        <time>2021-11-27T13:12:20Z</time>
      </trkpt>
      <trkpt lat="42.408127" lon="-7.724516">
        <time>2021-11-27T13:12:21Z</time>
      </trkpt>
      <trkpt lat="42.408134" lon="-7.7245173">
        <time>2021-11-27T13:12:22Z</time>
      </trkpt>
      <trkpt lat="42.408142" lon="-7.7245216">
        <time>2021-11-27T13:12:23Z</time>
      </trkpt>
      <trkpt lat="42.408157" lon="-7.7245274">
        <time>2021-11-27T13:12:24Z</time>
      </trkpt>
      <trkpt lat="42.408165" lon="-7.7245336">
        <time>2021-11-27T13:12:25Z</time>
      </trkpt>
      <trkpt lat="42.408173" lon="-7.7245417">
        <time>2021-11-27T13:12:26Z</time>
      </trkpt>
      <trkpt lat="42.408184" lon="-7.7245517">
        <time>2021-11-27T13:12:27Z</time>
      </trkpt>
      <trkpt lat="42.40819" lon="-7.7245665">
        <time>2021-11-27T13:12:28Z</time>
      </trkpt>
      <trkpt lat="42.408203" lon="-7.7245803">
        <time>2021-11-27T13:12:29Z</time>
      </trkpt>
      <trkpt lat="42.40821" lon="-7.7245893">
        <time>2021-11-27T13:12:29Z</time>
      </trkpt>
      <trkpt lat="42.40822" lon="-7.7245965">
        <time>2021-11-27T13:12:30Z</time>
      </trkpt>
      <trkpt lat="42.40823" lon="-7.7246037">
        <time>2021-11-27T13:12:31Z</time>
      </trkpt>
      <trkpt lat="42.40824" lon="-7.7246084">
        <time>2021-11-27T13:12:32Z</time>
      </trkpt>
      <trkpt lat="42.408253" lon="-7.7246137">
        <time>2021-11-27T13:12:33Z</time>
      </trkpt>
      <trkpt lat="42.40826" lon="-7.7246194">
        <time>2021-11-27T13:12:34Z</time>
      </trkpt>
      <trkpt lat="42.40827" lon="-7.724625">
        <time>2021-11-27T13:12:35Z</time>
      </trkpt>
      <trkpt lat="42.408283" lon="-7.724631">
        <time>2021-11-27T13:12:36Z</time>
      </trkpt>
      <trkpt lat="42.408295" lon="-7.724639">
        <time>2021-11-27T13:12:37Z</time>
      </trkpt>
      <trkpt lat="42.408306" lon="-7.7246485">
        <time>2021-11-27T13:12:38Z</time>
      </trkpt>
      <trkpt lat="42.408318" lon="-7.724653">
        <time>2021-11-27T13:12:39Z</time>
      </trkpt>
      <trkpt lat="42.40833" lon="-7.7246585">
        <time>2021-11-27T13:12:40Z</time>
      </trkpt>
      <trkpt lat="42.408337" lon="-7.724665">
        <time>2021-11-27T13:12:41Z</time>
      </trkpt>
      <trkpt lat="42.408348" lon="-7.724673">
        <time>2021-11-27T13:12:42Z</time>
      </trkpt>
      <trkpt lat="42.40836" lon="-7.7246814">
        <time>2021-11-27T13:12:43Z</time>
      </trkpt>
      <trkpt lat="42.408367" lon="-7.72469">
        <time>2021-11-27T13:12:45Z</time>
      </trkpt>
      <trkpt lat="42.40838" lon="-7.724697">
        <time>2021-11-27T13:12:45Z</time>
      </trkpt>
      <trkpt lat="42.40839" lon="-7.7247033">
        <time>2021-11-27T13:12:46Z</time>
      </trkpt>
      <trkpt lat="42.4084" lon="-7.724712">
        <time>2021-11-27T13:12:47Z</time>
      </trkpt>
      <trkpt lat="42.408413" lon="-7.72472">
        <time>2021-11-27T13:12:48Z</time>
      </trkpt>
      <trkpt lat="42.40843" lon="-7.724728">
        <time>2021-11-27T13:12:49Z</time>
      </trkpt>
      <trkpt lat="42.40844" lon="-7.724737">
        <time>2021-11-27T13:12:50Z</time>
      </trkpt>
      <trkpt lat="42.408447" lon="-7.724745">
        <time>2021-11-27T13:12:51Z</time>
      </trkpt>
      <trkpt lat="42.408463" lon="-7.724752">
        <time>2021-11-27T13:12:52Z</time>
      </trkpt>
      <trkpt lat="42.40847" lon="-7.7247596">
        <time>2021-11-27T13:12:53Z</time>
      </trkpt>
      <trkpt lat="42.40848" lon="-7.7247686">
        <time>2021-11-27T13:12:54Z</time>
      </trkpt>
      <trkpt lat="42.40849" lon="-7.724775">
        <time>2021-11-27T13:12:55Z</time>
      </trkpt>
      <trkpt lat="42.4085" lon="-7.724783">
        <time>2021-11-27T13:12:56Z</time>
      </trkpt>
      <trkpt lat="42.40851" lon="-7.7247915">
        <time>2021-11-27T13:12:57Z</time>
      </trkpt>
      <trkpt lat="42.40852" lon="-7.7248006">
        <time>2021-11-27T13:12:58Z</time>
      </trkpt>
      <trkpt lat="42.40853" lon="-7.724808">
        <time>2021-11-27T13:12:59Z</time>
      </trkpt>
      <trkpt lat="42.408543" lon="-7.724815">
        <time>2021-11-27T13:13:00Z</time>
      </trkpt>
      <trkpt lat="42.408554" lon="-7.7248197">
        <time>2021-11-27T13:13:01Z</time>
      </trkpt>
      <trkpt lat="42.408566" lon="-7.7248254">
        <time>2021-11-27T13:13:02Z</time>
      </trkpt>
      <trkpt lat="42.408577" lon="-7.724832">
        <time>2021-11-27T13:13:03Z</time>
      </trkpt>
      <trkpt lat="42.40859" lon="-7.724839">
        <time>2021-11-27T13:13:04Z</time>
      </trkpt>
      <trkpt lat="42.4086" lon="-7.7248454">
        <time>2021-11-27T13:13:05Z</time>
      </trkpt>
      <trkpt lat="42.408607" lon="-7.7248564">
        <time>2021-11-27T13:13:06Z</time>
      </trkpt>
      <trkpt lat="42.408615" lon="-7.724868">
        <time>2021-11-27T13:13:07Z</time>
      </trkpt>
      <trkpt lat="42.408623" lon="-7.7248793">
        <time>2021-11-27T13:13:08Z</time>
      </trkpt>
      <trkpt lat="42.408634" lon="-7.72489">
        <time>2021-11-27T13:13:09Z</time>
      </trkpt>
      <trkpt lat="42.40864" lon="-7.724901">
        <time>2021-11-27T13:13:10Z</time>
      </trkpt>
      <trkpt lat="42.408653" lon="-7.7249107">
        <time>2021-11-27T13:13:11Z</time>
      </trkpt>
      <trkpt lat="42.408665" lon="-7.724919">
        <time>2021-11-27T13:13:12Z</time>
      </trkpt>
      <trkpt lat="42.408676" lon="-7.7249255">
        <time>2021-11-27T13:13:13Z</time>
      </trkpt>
      <trkpt lat="42.408688" lon="-7.7249327">
        <time>2021-11-27T13:13:14Z</time>
      </trkpt>
      <trkpt lat="42.408695" lon="-7.724941">
        <time>2021-11-27T13:13:15Z</time>
      </trkpt>
      <trkpt lat="42.408707" lon="-7.724947">
        <time>2021-11-27T13:13:16Z</time>
      </trkpt>
      <trkpt lat="42.408714" lon="-7.7249556">
        <time>2021-11-27T13:13:17Z</time>
      </trkpt>
      <trkpt lat="42.408726" lon="-7.724963">
        <time>2021-11-27T13:13:18Z</time>
      </trkpt>
      <trkpt lat="42.408733" lon="-7.724971">
        <time>2021-11-27T13:13:19Z</time>
      </trkpt>
      <trkpt lat="42.408745" lon="-7.7249765">
        <time>2021-11-27T13:13:20Z</time>
      </trkpt>
      <trkpt lat="42.408756" lon="-7.7249804">
        <time>2021-11-27T13:13:21Z</time>
      </trkpt>
      <trkpt lat="42.408768" lon="-7.7249856">
        <time>2021-11-27T13:13:22Z</time>
      </trkpt>
      <trkpt lat="42.40878" lon="-7.724991">
        <time>2021-11-27T13:13:23Z</time>
      </trkpt>
      <trkpt lat="42.40879" lon="-7.7249966">
        <time>2021-11-27T13:13:24Z</time>
      </trkpt>
      <trkpt lat="42.408802" lon="-7.725004">
        <time>2021-11-27T13:13:25Z</time>
      </trkpt>
      <trkpt lat="42.408813" lon="-7.725012">
        <time>2021-11-27T13:13:26Z</time>
      </trkpt>
      <trkpt lat="42.40883" lon="-7.725018">
        <time>2021-11-27T13:13:27Z</time>
      </trkpt>
      <trkpt lat="42.408844" lon="-7.725026">
        <time>2021-11-27T13:13:28Z</time>
      </trkpt>
      <trkpt lat="42.408855" lon="-7.725034">
        <time>2021-11-27T13:13:29Z</time>
      </trkpt>
      <trkpt lat="42.408867" lon="-7.7250433">
        <time>2021-11-27T13:13:30Z</time>
      </trkpt>
      <trkpt lat="42.408882" lon="-7.7250504">
        <time>2021-11-27T13:13:31Z</time>
      </trkpt>
      <trkpt lat="42.408894" lon="-7.7250586">
        <time>2021-11-27T13:13:32Z</time>
      </trkpt>
      <trkpt lat="42.408905" lon="-7.72507">
        <time>2021-11-27T13:13:33Z</time>
      </trkpt>
      <trkpt lat="42.408916" lon="-7.725079">
        <time>2021-11-27T13:13:34Z</time>
      </trkpt>
      <trkpt lat="42.408928" lon="-7.7250886">
        <time>2021-11-27T13:13:35Z</time>
      </trkpt>
      <trkpt lat="42.408936" lon="-7.725098">
        <time>2021-11-27T13:13:36Z</time>
      </trkpt>
      <trkpt lat="42.408943" lon="-7.725109">
        <time>2021-11-27T13:13:37Z</time>
      </trkpt>
      <trkpt lat="42.40896" lon="-7.725117">
        <time>2021-11-27T13:13:38Z</time>
      </trkpt>
      <trkpt lat="42.408966" lon="-7.725124">
        <time>2021-11-27T13:13:39Z</time>
      </trkpt>
      <trkpt lat="42.40898" lon="-7.725128">
        <time>2021-11-27T13:13:40Z</time>
      </trkpt>
      <trkpt lat="42.408993" lon="-7.7251315">
        <time>2021-11-27T13:13:41Z</time>
      </trkpt>
      <trkpt lat="42.409004" lon="-7.725135">
        <time>2021-11-27T13:13:42Z</time>
      </trkpt>
      <trkpt lat="42.409016" lon="-7.7251425">
        <time>2021-11-27T13:13:43Z</time>
      </trkpt>
      <trkpt lat="42.409023" lon="-7.725152">
        <time>2021-11-27T13:13:44Z</time>
      </trkpt>
      <trkpt lat="42.40903" lon="-7.7251616">
        <time>2021-11-27T13:13:45Z</time>
      </trkpt>
      <trkpt lat="42.409042" lon="-7.7251706">
        <time>2021-11-27T13:13:46Z</time>
      </trkpt>
      <trkpt lat="42.40905" lon="-7.7251787">
        <time>2021-11-27T13:13:47Z</time>
      </trkpt>
      <trkpt lat="42.40906" lon="-7.7251883">
        <time>2021-11-27T13:13:48Z</time>
      </trkpt>
      <trkpt lat="42.40907" lon="-7.7251954">
        <time>2021-11-27T13:13:49Z</time>
      </trkpt>
      <trkpt lat="42.409077" lon="-7.7252026">
        <time>2021-11-27T13:13:50Z</time>
      </trkpt>
      <trkpt lat="42.409084" lon="-7.725212">
        <time>2021-11-27T13:13:51Z</time>
      </trkpt>
      <trkpt lat="42.409092" lon="-7.7252226">
        <time>2021-11-27T13:13:52Z</time>
      </trkpt>
      <trkpt lat="42.4091" lon="-7.72523">
        <time>2021-11-27T13:13:53Z</time>
      </trkpt>
      <trkpt lat="42.409107" lon="-7.7252398">
        <time>2021-11-27T13:13:54Z</time>
      </trkpt>
      <trkpt lat="42.40912" lon="-7.725249">
        <time>2021-11-27T13:13:55Z</time>
      </trkpt>
      <trkpt lat="42.409126" lon="-7.725255">
        <time>2021-11-27T13:13:56Z</time>
      </trkpt>
      <trkpt lat="42.409138" lon="-7.7252626">
        <time>2021-11-27T13:13:57Z</time>
      </trkpt>
      <trkpt lat="42.409145" lon="-7.72527">
        <time>2021-11-27T13:13:58Z</time>
      </trkpt>
      <trkpt lat="42.409157" lon="-7.725276">
        <time>2021-11-27T13:13:59Z</time>
      </trkpt>
      <trkpt lat="42.409164" lon="-7.725283">
        <time>2021-11-27T13:14:00Z</time>
      </trkpt>
      <trkpt lat="42.409176" lon="-7.72529">
        <time>2021-11-27T13:14:01Z</time>
      </trkpt>
      <trkpt lat="42.409187" lon="-7.725296">
        <time>2021-11-27T13:14:02Z</time>
      </trkpt>
      <trkpt lat="42.4092" lon="-7.7253003">
        <time>2021-11-27T13:14:03Z</time>
      </trkpt>
      <trkpt lat="42.40921" lon="-7.725306">
        <time>2021-11-27T13:14:04Z</time>
      </trkpt>
      <trkpt lat="42.40922" lon="-7.725312">
        <time>2021-11-27T13:14:05Z</time>
      </trkpt>
      <trkpt lat="42.409233" lon="-7.725319">
        <time>2021-11-27T13:14:06Z</time>
      </trkpt>
      <trkpt lat="42.40925" lon="-7.725328">
        <time>2021-11-27T13:14:07Z</time>
      </trkpt>
      <trkpt lat="42.40926" lon="-7.7253375">
        <time>2021-11-27T13:14:08Z</time>
      </trkpt>
      <trkpt lat="42.40927" lon="-7.7253466">
        <time>2021-11-27T13:14:09Z</time>
      </trkpt>
      <trkpt lat="42.40928" lon="-7.7253566">
        <time>2021-11-27T13:14:10Z</time>
      </trkpt>
      <trkpt lat="42.409286" lon="-7.725369">
        <time>2021-11-27T13:14:11Z</time>
      </trkpt>
      <trkpt lat="42.4093" lon="-7.725381">
        <time>2021-11-27T13:14:12Z</time>
      </trkpt>
      <trkpt lat="42.409313" lon="-7.7253914">
        <time>2021-11-27T13:14:13Z</time>
      </trkpt>
      <trkpt lat="42.40933" lon="-7.7254004">
        <time>2021-11-27T13:14:14Z</time>
      </trkpt>
      <trkpt lat="42.40934" lon="-7.725408">
        <time>2021-11-27T13:14:15Z</time>
      </trkpt>
      <trkpt lat="42.409355" lon="-7.725414">
        <time>2021-11-27T13:14:16Z</time>
      </trkpt>
      <trkpt lat="42.40937" lon="-7.7254195">
        <time>2021-11-27T13:14:17Z</time>
      </trkpt>
      <trkpt lat="42.409386" lon="-7.7254267">
        <time>2021-11-27T13:14:18Z</time>
      </trkpt>
      <trkpt lat="42.409393" lon="-7.7254357">
        <time>2021-11-27T13:14:19Z</time>
      </trkpt>
      <trkpt lat="42.409405" lon="-7.7254453">
        <time>2021-11-27T13:14:20Z</time>
      </trkpt>
      <trkpt lat="42.409416" lon="-7.7254553">
        <time>2021-11-27T13:14:21Z</time>
      </trkpt>
      <trkpt lat="42.409428" lon="-7.725466">
        <time>2021-11-27T13:14:22Z</time>
      </trkpt>
      <trkpt lat="42.40944" lon="-7.725472">
        <time>2021-11-27T13:14:23Z</time>
      </trkpt>
      <trkpt lat="42.40945" lon="-7.7254777">
        <time>2021-11-27T13:14:24Z</time>
      </trkpt>
      <trkpt lat="42.409462" lon="-7.725483">
        <time>2021-11-27T13:14:25Z</time>
      </trkpt>
      <trkpt lat="42.409473" lon="-7.725489">
        <time>2021-11-27T13:14:26Z</time>
      </trkpt>
      <trkpt lat="42.409485" lon="-7.725497">
        <time>2021-11-27T13:14:27Z</time>
      </trkpt>
      <trkpt lat="42.409496" lon="-7.725506">
        <time>2021-11-27T13:14:28Z</time>
      </trkpt>
      <trkpt lat="42.409508" lon="-7.7255135">
        <time>2021-11-27T13:14:29Z</time>
      </trkpt>
      <trkpt lat="42.40952" lon="-7.7255225">
        <time>2021-11-27T13:14:30Z</time>
      </trkpt>
      <trkpt lat="42.40953" lon="-7.725532">
        <time>2021-11-27T13:14:31Z</time>
      </trkpt>
      <trkpt lat="42.409542" lon="-7.7255416">
        <time>2021-11-27T13:14:32Z</time>
      </trkpt>
      <trkpt lat="42.40955" lon="-7.725552">
        <time>2021-11-27T13:14:33Z</time>
      </trkpt>
      <trkpt lat="42.409565" lon="-7.7255616">
        <time>2021-11-27T13:14:34Z</time>
      </trkpt>
      <trkpt lat="42.409573" lon="-7.725571">
        <time>2021-11-27T13:14:35Z</time>
      </trkpt>
      <trkpt lat="42.409588" lon="-7.7255807">
        <time>2021-11-27T13:14:36Z</time>
      </trkpt>
      <trkpt lat="42.4096" lon="-7.72559">
        <time>2021-11-27T13:14:37Z</time>
      </trkpt>
      <trkpt lat="42.409607" lon="-7.725601">
        <time>2021-11-27T13:14:38Z</time>
      </trkpt>
      <trkpt lat="42.40962" lon="-7.7256107">
        <time>2021-11-27T13:14:39Z</time>
      </trkpt>
      <trkpt lat="42.40963" lon="-7.725621">
        <time>2021-11-27T13:14:40Z</time>
      </trkpt>
      <trkpt lat="42.40964" lon="-7.7256327">
        <time>2021-11-27T13:14:41Z</time>
      </trkpt>
      <trkpt lat="42.409653" lon="-7.7256446">
        <time>2021-11-27T13:14:42Z</time>
      </trkpt>
      <trkpt lat="42.40966" lon="-7.7256584">
        <time>2021-11-27T13:14:43Z</time>
      </trkpt>
      <trkpt lat="42.409668" lon="-7.72567">
        <time>2021-11-27T13:14:44Z</time>
      </trkpt>
      <trkpt lat="42.409676" lon="-7.725681">
        <time>2021-11-27T13:14:45Z</time>
      </trkpt>
      <trkpt lat="42.409683" lon="-7.725691">
        <time>2021-11-27T13:14:46Z</time>
      </trkpt>
      <trkpt lat="42.40969" lon="-7.7256985">
        <time>2021-11-27T13:14:47Z</time>
      </trkpt>
      <trkpt lat="42.409718" lon="-7.7257185">
        <time>2021-11-27T13:14:49Z</time>
      </trkpt>
      <trkpt lat="42.409718" lon="-7.725722">
        <time>2021-11-27T13:14:50Z</time>
      </trkpt>
      <trkpt lat="42.40972" lon="-7.7257247">
        <time>2021-11-27T13:14:51Z</time>
      </trkpt>
      <trkpt lat="42.40973" lon="-7.7257304">
        <time>2021-11-27T13:14:52Z</time>
      </trkpt>
      <trkpt lat="42.40974" lon="-7.725737">
        <time>2021-11-27T13:14:53Z</time>
      </trkpt>
      <trkpt lat="42.40975" lon="-7.7257433">
        <time>2021-11-27T13:14:54Z</time>
      </trkpt>
      <trkpt lat="42.40976" lon="-7.725751">
        <time>2021-11-27T13:14:55Z</time>
      </trkpt>
      <trkpt lat="42.409767" lon="-7.7257614">
        <time>2021-11-27T13:14:56Z</time>
      </trkpt>
      <trkpt lat="42.409775" lon="-7.725778">
        <time>2021-11-27T13:14:57Z</time>
      </trkpt>
      <trkpt lat="42.409782" lon="-7.7257967">
        <time>2021-11-27T13:14:58Z</time>
      </trkpt>
      <trkpt lat="42.409794" lon="-7.725813">
        <time>2021-11-27T13:14:59Z</time>
      </trkpt>
      <trkpt lat="42.40981" lon="-7.725831">
        <time>2021-11-27T13:15:00Z</time>
      </trkpt>
      <trkpt lat="42.409824" lon="-7.7258453">
        <time>2021-11-27T13:15:01Z</time>
      </trkpt>
      <trkpt lat="42.409832" lon="-7.725861">
        <time>2021-11-27T13:15:02Z</time>
      </trkpt>
      <trkpt lat="42.409843" lon="-7.725872">
        <time>2021-11-27T13:15:03Z</time>
      </trkpt>
      <trkpt lat="42.409855" lon="-7.725881">
        <time>2021-11-27T13:15:04Z</time>
      </trkpt>
      <trkpt lat="42.409866" lon="-7.7258906">
        <time>2021-11-27T13:15:05Z</time>
      </trkpt>
      <trkpt lat="42.409878" lon="-7.7258983">
        <time>2021-11-27T13:15:06Z</time>
      </trkpt>
      <trkpt lat="42.40989" lon="-7.7259064">
        <time>2021-11-27T13:15:07Z</time>
      </trkpt>
      <trkpt lat="42.4099" lon="-7.7259135">
        <time>2021-11-27T13:15:08Z</time>
      </trkpt>
      <trkpt lat="42.409912" lon="-7.7259192">
        <time>2021-11-27T13:15:09Z</time>
      </trkpt>
      <trkpt lat="42.409924" lon="-7.725927">
        <time>2021-11-27T13:15:10Z</time>
      </trkpt>
      <trkpt lat="42.409935" lon="-7.7259364">
        <time>2021-11-27T13:15:11Z</time>
      </trkpt>
      <trkpt lat="42.409946" lon="-7.725947">
        <time>2021-11-27T13:15:12Z</time>
      </trkpt>
      <trkpt lat="42.409954" lon="-7.725956">
        <time>2021-11-27T13:15:13Z</time>
      </trkpt>
      <trkpt lat="42.40996" lon="-7.725966">
        <time>2021-11-27T13:15:14Z</time>
      </trkpt>
      <trkpt lat="42.40997" lon="-7.7259774">
        <time>2021-11-27T13:15:15Z</time>
      </trkpt>
      <trkpt lat="42.409973" lon="-7.7259903">
        <time>2021-11-27T13:15:16Z</time>
      </trkpt>
      <trkpt lat="42.40998" lon="-7.726">
        <time>2021-11-27T13:15:17Z</time>
      </trkpt>
      <trkpt lat="42.409985" lon="-7.7260056">
        <time>2021-11-27T13:15:18Z</time>
      </trkpt>
      <trkpt lat="42.40999" lon="-7.7260084">
        <time>2021-11-27T13:15:19Z</time>
      </trkpt>
      <trkpt lat="42.409992" lon="-7.7260118">
        <time>2021-11-27T13:15:20Z</time>
      </trkpt>
      <trkpt lat="42.409996" lon="-7.726018">
        <time>2021-11-27T13:15:21Z</time>
      </trkpt>
      <trkpt lat="42.410004" lon="-7.726025">
        <time>2021-11-27T13:15:22Z</time>
      </trkpt>
      <trkpt lat="42.41001" lon="-7.726029">
        <time>2021-11-27T13:15:23Z</time>
      </trkpt>
      <trkpt lat="42.41002" lon="-7.726033">
        <time>2021-11-27T13:15:24Z</time>
      </trkpt>
      <trkpt lat="42.410027" lon="-7.7260385">
        <time>2021-11-27T13:15:25Z</time>
      </trkpt>
      <trkpt lat="42.410038" lon="-7.7260456">
        <time>2021-11-27T13:15:26Z</time>
      </trkpt>
      <trkpt lat="42.41005" lon="-7.726053">
        <time>2021-11-27T13:15:27Z</time>
      </trkpt>
      <trkpt lat="42.410057" lon="-7.726064">
        <time>2021-11-27T13:15:28Z</time>
      </trkpt>
      <trkpt lat="42.410065" lon="-7.7260756">
        <time>2021-11-27T13:15:29Z</time>
      </trkpt>
      <trkpt lat="42.410072" lon="-7.7260923">
        <time>2021-11-27T13:15:30Z</time>
      </trkpt>
      <trkpt lat="42.41008" lon="-7.72611">
        <time>2021-11-27T13:15:31Z</time>
      </trkpt>
      <trkpt lat="42.410088" lon="-7.7261267">
        <time>2021-11-27T13:15:32Z</time>
      </trkpt>
      <trkpt lat="42.410095" lon="-7.7261453">
        <time>2021-11-27T13:15:33Z</time>
      </trkpt>
      <trkpt lat="42.410103" lon="-7.7261643">
        <time>2021-11-27T13:15:34Z</time>
      </trkpt>
      <trkpt lat="42.410107" lon="-7.7261844">
        <time>2021-11-27T13:15:35Z</time>
      </trkpt>
      <trkpt lat="42.410114" lon="-7.7261996">
        <time>2021-11-27T13:15:36Z</time>
      </trkpt>
      <trkpt lat="42.410122" lon="-7.726212">
        <time>2021-11-27T13:15:37Z</time>
      </trkpt>
      <trkpt lat="42.41013" lon="-7.7262197">
        <time>2021-11-27T13:15:38Z</time>
      </trkpt>
      <trkpt lat="42.410137" lon="-7.7262244">
        <time>2021-11-27T13:15:39Z</time>
      </trkpt>
      <trkpt lat="42.41014" lon="-7.7262335">
        <time>2021-11-27T13:15:40Z</time>
      </trkpt>
      <trkpt lat="42.41014" lon="-7.726243">
        <time>2021-11-27T13:15:41Z</time>
      </trkpt>
      <trkpt lat="42.41015" lon="-7.7262506">
        <time>2021-11-27T13:15:42Z</time>
      </trkpt>
      <trkpt lat="42.410156" lon="-7.726261">
        <time>2021-11-27T13:15:43Z</time>
      </trkpt>
      <trkpt lat="42.41016" lon="-7.7262692">
        <time>2021-11-27T13:15:45Z</time>
      </trkpt>
      <trkpt lat="42.410168" lon="-7.726276">
        <time>2021-11-27T13:15:45Z</time>
      </trkpt>
      <trkpt lat="42.410175" lon="-7.7262855">
        <time>2021-11-27T13:15:46Z</time>
      </trkpt>
      <trkpt lat="42.410187" lon="-7.7262964">
        <time>2021-11-27T13:15:47Z</time>
      </trkpt>
      <trkpt lat="42.410194" lon="-7.726308">
        <time>2021-11-27T13:15:48Z</time>
      </trkpt>
      <trkpt lat="42.410206" lon="-7.726318">
        <time>2021-11-27T13:15:49Z</time>
      </trkpt>
      <trkpt lat="42.410217" lon="-7.726325">
        <time>2021-11-27T13:15:50Z</time>
      </trkpt>
      <trkpt lat="42.41023" lon="-7.7263327">
        <time>2021-11-27T13:15:51Z</time>
      </trkpt>
      <trkpt lat="42.410244" lon="-7.7263365">
        <time>2021-11-27T13:15:52Z</time>
      </trkpt>
      <trkpt lat="42.41026" lon="-7.7263403">
        <time>2021-11-27T13:15:53Z</time>
      </trkpt>
      <trkpt lat="42.41027" lon="-7.726343">
        <time>2021-11-27T13:15:54Z</time>
      </trkpt>
      <trkpt lat="42.410282" lon="-7.726347">
        <time>2021-11-27T13:15:55Z</time>
      </trkpt>
      <trkpt lat="42.410297" lon="-7.7263503">
        <time>2021-11-27T13:15:56Z</time>
      </trkpt>
      <trkpt lat="42.410305" lon="-7.726357">
        <time>2021-11-27T13:15:57Z</time>
      </trkpt>
      <trkpt lat="42.410316" lon="-7.7263656">
        <time>2021-11-27T13:15:58Z</time>
      </trkpt>
      <trkpt lat="42.410328" lon="-7.7263722">
        <time>2021-11-27T13:15:59Z</time>
      </trkpt>
      <trkpt lat="42.410336" lon="-7.726381">
        <time>2021-11-27T13:16:00Z</time>
      </trkpt>
      <trkpt lat="42.410347" lon="-7.72639">
        <time>2021-11-27T13:16:01Z</time>
      </trkpt>
      <trkpt lat="42.41036" lon="-7.726398">
        <time>2021-11-27T13:16:02Z</time>
      </trkpt>
      <trkpt lat="42.41037" lon="-7.726402">
        <time>2021-11-27T13:16:03Z</time>
      </trkpt>
      <trkpt lat="42.410385" lon="-7.7264047">
        <time>2021-11-27T13:16:04Z</time>
      </trkpt>
      <trkpt lat="42.410397" lon="-7.7264056">
        <time>2021-11-27T13:16:05Z</time>
      </trkpt>
      <trkpt lat="42.410408" lon="-7.726407">
        <time>2021-11-27T13:16:06Z</time>
      </trkpt>
      <trkpt lat="42.410423" lon="-7.7264104">
        <time>2021-11-27T13:16:07Z</time>
      </trkpt>
      <trkpt lat="42.41043" lon="-7.7264185">
        <time>2021-11-27T13:16:08Z</time>
      </trkpt>
      <trkpt lat="42.410442" lon="-7.726426">
        <time>2021-11-27T13:16:09Z</time>
      </trkpt>
      <trkpt lat="42.41045" lon="-7.7264333">
        <time>2021-11-27T13:16:10Z</time>
      </trkpt>
      <trkpt lat="42.41046" lon="-7.726439">
        <time>2021-11-27T13:16:11Z</time>
      </trkpt>
      <trkpt lat="42.410473" lon="-7.7264466">
        <time>2021-11-27T13:16:12Z</time>
      </trkpt>
      <trkpt lat="42.410484" lon="-7.7264576">
        <time>2021-11-27T13:16:13Z</time>
      </trkpt>
      <trkpt lat="42.410492" lon="-7.726471">
        <time>2021-11-27T13:16:14Z</time>
      </trkpt>
      <trkpt lat="42.410503" lon="-7.7264843">
        <time>2021-11-27T13:16:15Z</time>
      </trkpt>
      <trkpt lat="42.41051" lon="-7.726498">
        <time>2021-11-27T13:16:16Z</time>
      </trkpt>
      <trkpt lat="42.410522" lon="-7.726506">
        <time>2021-11-27T13:16:17Z</time>
      </trkpt>
      <trkpt lat="42.410534" lon="-7.7265177">
        <time>2021-11-27T13:16:18Z</time>
      </trkpt>
      <trkpt lat="42.410545" lon="-7.726528">
        <time>2021-11-27T13:16:19Z</time>
      </trkpt>
      <trkpt lat="42.41056" lon="-7.726535">
        <time>2021-11-27T13:16:20Z</time>
      </trkpt>
      <trkpt lat="42.410572" lon="-7.7265396">
        <time>2021-11-27T13:16:21Z</time>
      </trkpt>
      <trkpt lat="42.410587" lon="-7.72654">
        <time>2021-11-27T13:16:22Z</time>
      </trkpt>
      <trkpt lat="42.410603" lon="-7.7265377">
        <time>2021-11-27T13:16:23Z</time>
      </trkpt>
      <trkpt lat="42.410618" lon="-7.726532">
        <time>2021-11-27T13:16:24Z</time>
      </trkpt>
      <trkpt lat="42.410637" lon="-7.7265263">
        <time>2021-11-27T13:16:25Z</time>
      </trkpt>
      <trkpt lat="42.410652" lon="-7.7265186">
        <time>2021-11-27T13:16:26Z</time>
      </trkpt>
      <trkpt lat="42.410667" lon="-7.726512">
        <time>2021-11-27T13:16:27Z</time>
      </trkpt>
      <trkpt lat="42.410683" lon="-7.726508">
        <time>2021-11-27T13:16:28Z</time>
      </trkpt>
      <trkpt lat="42.410698" lon="-7.7265058">
        <time>2021-11-27T13:16:29Z</time>
      </trkpt>
      <trkpt lat="42.41071" lon="-7.7265067">
        <time>2021-11-27T13:16:30Z</time>
      </trkpt>
      <trkpt lat="42.410717" lon="-7.72651">
        <time>2021-11-27T13:16:31Z</time>
      </trkpt>
      <trkpt lat="42.410725" lon="-7.726516">
        <time>2021-11-27T13:16:32Z</time>
      </trkpt>
      <trkpt lat="42.410732" lon="-7.726523">
        <time>2021-11-27T13:16:33Z</time>
      </trkpt>
      <trkpt lat="42.41074" lon="-7.7265306">
        <time>2021-11-27T13:16:34Z</time>
      </trkpt>
      <trkpt lat="42.410744" lon="-7.7265406">
        <time>2021-11-27T13:16:35Z</time>
      </trkpt>
      <trkpt lat="42.410748" lon="-7.7265534">
        <time>2021-11-27T13:16:36Z</time>
      </trkpt>
      <trkpt lat="42.41075" lon="-7.726569">
        <time>2021-11-27T13:16:37Z</time>
      </trkpt>
      <trkpt lat="42.41076" lon="-7.7265835">
        <time>2021-11-27T13:16:38Z</time>
      </trkpt>
      <trkpt lat="42.410763" lon="-7.7265983">
        <time>2021-11-27T13:16:39Z</time>
      </trkpt>
      <trkpt lat="42.410774" lon="-7.726611">
        <time>2021-11-27T13:16:40Z</time>
      </trkpt>
      <trkpt lat="42.41078" lon="-7.7266235">
        <time>2021-11-27T13:16:41Z</time>
      </trkpt>
      <trkpt lat="42.41079" lon="-7.726633">
        <time>2021-11-27T13:16:42Z</time>
      </trkpt>
      <trkpt lat="42.410805" lon="-7.726636">
        <time>2021-11-27T13:16:43Z</time>
      </trkpt>
      <trkpt lat="42.41082" lon="-7.7266335">
        <time>2021-11-27T13:16:44Z</time>
      </trkpt>
      <trkpt lat="42.410828" lon="-7.726633">
        <time>2021-11-27T13:16:45Z</time>
      </trkpt>
      <trkpt lat="42.410843" lon="-7.726632">
        <time>2021-11-27T13:16:45Z</time>
      </trkpt>
      <trkpt lat="42.41085" lon="-7.726635">
        <time>2021-11-27T13:16:46Z</time>
      </trkpt>
      <trkpt lat="42.410862" lon="-7.726635">
        <time>2021-11-27T13:16:47Z</time>
      </trkpt>
      <trkpt lat="42.410873" lon="-7.7266293">
        <time>2021-11-27T13:16:48Z</time>
      </trkpt>
      <trkpt lat="42.410885" lon="-7.7266226">
        <time>2021-11-27T13:16:49Z</time>
      </trkpt>
      <trkpt lat="42.410896" lon="-7.7266183">
        <time>2021-11-27T13:16:50Z</time>
      </trkpt>
      <trkpt lat="42.410908" lon="-7.726613">
        <time>2021-11-27T13:16:51Z</time>
      </trkpt>
      <trkpt lat="42.41092" lon="-7.726607">
        <time>2021-11-27T13:16:52Z</time>
      </trkpt>
      <trkpt lat="42.41093" lon="-7.726599">
        <time>2021-11-27T13:16:53Z</time>
      </trkpt>
      <trkpt lat="42.410946" lon="-7.726592">
        <time>2021-11-27T13:16:54Z</time>
      </trkpt>
      <trkpt lat="42.410954" lon="-7.7265873">
        <time>2021-11-27T13:16:55Z</time>
      </trkpt>
      <trkpt lat="42.410965" lon="-7.726585">
        <time>2021-11-27T13:16:56Z</time>
      </trkpt>
      <trkpt lat="42.410973" lon="-7.726583">
        <time>2021-11-27T13:16:57Z</time>
      </trkpt>
      <trkpt lat="42.41098" lon="-7.726579">
        <time>2021-11-27T13:16:58Z</time>
      </trkpt>
      <trkpt lat="42.410984" lon="-7.7265754">
        <time>2021-11-27T13:16:59Z</time>
      </trkpt>
      <trkpt lat="42.410988" lon="-7.726573">
        <time>2021-11-27T13:17:00Z</time>
      </trkpt>
      <trkpt lat="42.41099" lon="-7.726568">
        <time>2021-11-27T13:17:01Z</time>
      </trkpt>
      <trkpt lat="42.411" lon="-7.726564">
        <time>2021-11-27T13:17:02Z</time>
      </trkpt>
      <trkpt lat="42.411007" lon="-7.726558">
        <time>2021-11-27T13:17:03Z</time>
      </trkpt>
      <trkpt lat="42.411015" lon="-7.7265525">
        <time>2021-11-27T13:17:04Z</time>
      </trkpt>
      <trkpt lat="42.411022" lon="-7.7265477">
        <time>2021-11-27T13:17:05Z</time>
      </trkpt>
      <trkpt lat="42.411034" lon="-7.726546">
        <time>2021-11-27T13:17:06Z</time>
      </trkpt>
      <trkpt lat="42.411045" lon="-7.726544">
        <time>2021-11-27T13:17:07Z</time>
      </trkpt>
      <trkpt lat="42.411053" lon="-7.7265406">
        <time>2021-11-27T13:17:08Z</time>
      </trkpt>
      <trkpt lat="42.411068" lon="-7.7265368">
        <time>2021-11-27T13:17:09Z</time>
      </trkpt>
      <trkpt lat="42.41108" lon="-7.7265325">
        <time>2021-11-27T13:17:10Z</time>
      </trkpt>
      <trkpt lat="42.411095" lon="-7.726527">
        <time>2021-11-27T13:17:11Z</time>
      </trkpt>
      <trkpt lat="42.41111" lon="-7.7265196">
        <time>2021-11-27T13:17:12Z</time>
      </trkpt>
      <trkpt lat="42.41113" lon="-7.72651">
        <time>2021-11-27T13:17:13Z</time>
      </trkpt>
      <trkpt lat="42.411148" lon="-7.726505">
        <time>2021-11-27T13:17:14Z</time>
      </trkpt>
      <trkpt lat="42.411163" lon="-7.7265043">
        <time>2021-11-27T13:17:15Z</time>
      </trkpt>
      <trkpt lat="42.41118" lon="-7.726505">
        <time>2021-11-27T13:17:16Z</time>
      </trkpt>
      <trkpt lat="42.411194" lon="-7.72651">
        <time>2021-11-27T13:17:17Z</time>
      </trkpt>
      <trkpt lat="42.411205" lon="-7.7265124">
        <time>2021-11-27T13:17:18Z</time>
      </trkpt>
      <trkpt lat="42.411217" lon="-7.726516">
        <time>2021-11-27T13:17:19Z</time>
      </trkpt>
      <trkpt lat="42.411232" lon="-7.7265162">
        <time>2021-11-27T13:17:20Z</time>
      </trkpt>
      <trkpt lat="42.41124" lon="-7.7265177">
        <time>2021-11-27T13:17:21Z</time>
      </trkpt>
      <trkpt lat="42.411255" lon="-7.7265186">
        <time>2021-11-27T13:17:22Z</time>
      </trkpt>
      <trkpt lat="42.411266" lon="-7.7265205">
        <time>2021-11-27T13:17:23Z</time>
      </trkpt>
      <trkpt lat="42.411278" lon="-7.726521">
        <time>2021-11-27T13:17:24Z</time>
      </trkpt>
      <trkpt lat="42.411293" lon="-7.726521">
        <time>2021-11-27T13:17:25Z</time>
      </trkpt>
      <trkpt lat="42.411304" lon="-7.7265215">
        <time>2021-11-27T13:17:26Z</time>
      </trkpt>
      <trkpt lat="42.411316" lon="-7.7265224">
        <time>2021-11-27T13:17:27Z</time>
      </trkpt>
      <trkpt lat="42.41133" lon="-7.726523">
        <time>2021-11-27T13:17:28Z</time>
      </trkpt>
      <trkpt lat="42.411343" lon="-7.7265253">
        <time>2021-11-27T13:17:29Z</time>
      </trkpt>
      <trkpt lat="42.411358" lon="-7.726527">
        <time>2021-11-27T13:17:30Z</time>
      </trkpt>
      <trkpt lat="42.41137" lon="-7.726528">
        <time>2021-11-27T13:17:31Z</time>
      </trkpt>
      <trkpt lat="42.41138" lon="-7.7265325">
        <time>2021-11-27T13:17:32Z</time>
      </trkpt>
      <trkpt lat="42.411392" lon="-7.7265387">
        <time>2021-11-27T13:17:33Z</time>
      </trkpt>
      <trkpt lat="42.411404" lon="-7.726546">
        <time>2021-11-27T13:17:34Z</time>
      </trkpt>
      <trkpt lat="42.41141" lon="-7.7265515">
        <time>2021-11-27T13:17:35Z</time>
      </trkpt>
      <trkpt lat="42.41142" lon="-7.7265563">
        <time>2021-11-27T13:17:36Z</time>
      </trkpt>
      <trkpt lat="42.411423" lon="-7.7265606">
        <time>2021-11-27T13:17:37Z</time>
      </trkpt>
      <trkpt lat="42.411427" lon="-7.726565">
        <time>2021-11-27T13:17:38Z</time>
      </trkpt>
      <trkpt lat="42.41143" lon="-7.7265697">
        <time>2021-11-27T13:17:39Z</time>
      </trkpt>
      <trkpt lat="42.411438" lon="-7.7265778">
        <time>2021-11-27T13:17:41Z</time>
      </trkpt>
      <trkpt lat="42.411434" lon="-7.726583">
        <time>2021-11-27T13:17:43Z</time>
      </trkpt>
      <trkpt lat="42.411434" lon="-7.7265825">
        <time>2021-11-27T13:17:44Z</time>
      </trkpt>
      <trkpt lat="42.411434" lon="-7.726581">
        <time>2021-11-27T13:17:45Z</time>
      </trkpt>
      <trkpt lat="42.41143" lon="-7.726581">
        <time>2021-11-27T13:17:46Z</time>
      </trkpt>
      <trkpt lat="42.41143" lon="-7.726583">
        <time>2021-11-27T13:17:47Z</time>
      </trkpt>
      <trkpt lat="42.411434" lon="-7.7265854">
        <time>2021-11-27T13:17:48Z</time>
      </trkpt>
      <trkpt lat="42.411434" lon="-7.7265873">
        <time>2021-11-27T13:17:49Z</time>
      </trkpt>
      <trkpt lat="42.411438" lon="-7.7265887">
        <time>2021-11-27T13:17:50Z</time>
      </trkpt>
      <trkpt lat="42.411446" lon="-7.72659">
        <time>2021-11-27T13:17:51Z</time>
      </trkpt>
      <trkpt lat="42.411453" lon="-7.7265925">
        <time>2021-11-27T13:17:52Z</time>
      </trkpt>
      <trkpt lat="42.41146" lon="-7.726596">
        <time>2021-11-27T13:17:53Z</time>
      </trkpt>
      <trkpt lat="42.411472" lon="-7.7265997">
        <time>2021-11-27T13:17:54Z</time>
      </trkpt>
      <trkpt lat="42.41148" lon="-7.726605">
        <time>2021-11-27T13:17:55Z</time>
      </trkpt>
      <trkpt lat="42.411488" lon="-7.726611">
        <time>2021-11-27T13:17:56Z</time>
      </trkpt>
      <trkpt lat="42.411495" lon="-7.7266183">
        <time>2021-11-27T13:17:57Z</time>
      </trkpt>
      <trkpt lat="42.411507" lon="-7.7266254">
        <time>2021-11-27T13:17:58Z</time>
      </trkpt>
      <trkpt lat="42.41152" lon="-7.726634">
        <time>2021-11-27T13:17:59Z</time>
      </trkpt>
      <trkpt lat="42.41153" lon="-7.7266445">
        <time>2021-11-27T13:18:00Z</time>
      </trkpt>
      <trkpt lat="42.411537" lon="-7.7266545">
        <time>2021-11-27T13:18:01Z</time>
      </trkpt>
      <trkpt lat="42.411545" lon="-7.7266674">
        <time>2021-11-27T13:18:02Z</time>
      </trkpt>
      <trkpt lat="42.411552" lon="-7.7266808">
        <time>2021-11-27T13:18:03Z</time>
      </trkpt>
      <trkpt lat="42.41156" lon="-7.7266946">
        <time>2021-11-27T13:18:04Z</time>
      </trkpt>
      <trkpt lat="42.411568" lon="-7.726707">
        <time>2021-11-27T13:18:05Z</time>
      </trkpt>
      <trkpt lat="42.41158" lon="-7.7267194">
        <time>2021-11-27T13:18:06Z</time>
      </trkpt>
      <trkpt lat="42.41159" lon="-7.7267313">
        <time>2021-11-27T13:18:07Z</time>
      </trkpt>
      <trkpt lat="42.4116" lon="-7.7267423">
        <time>2021-11-27T13:18:08Z</time>
      </trkpt>
      <trkpt lat="42.411606" lon="-7.7267528">
        <time>2021-11-27T13:18:09Z</time>
      </trkpt>
      <trkpt lat="42.411617" lon="-7.7267637">
        <time>2021-11-27T13:18:10Z</time>
      </trkpt>
      <trkpt lat="42.41163" lon="-7.7267733">
        <time>2021-11-27T13:18:11Z</time>
      </trkpt>
      <trkpt lat="42.411636" lon="-7.726784">
        <time>2021-11-27T13:18:12Z</time>
      </trkpt>
      <trkpt lat="42.411648" lon="-7.7267957">
        <time>2021-11-27T13:18:13Z</time>
      </trkpt>
      <trkpt lat="42.41166" lon="-7.7268076">
        <time>2021-11-27T13:18:14Z</time>
      </trkpt>
      <trkpt lat="42.411667" lon="-7.7268224">
        <time>2021-11-27T13:18:15Z</time>
      </trkpt>
      <trkpt lat="42.411674" lon="-7.7268357">
        <time>2021-11-27T13:18:16Z</time>
      </trkpt>
      <trkpt lat="42.411686" lon="-7.7268467">
        <time>2021-11-27T13:18:17Z</time>
      </trkpt>
      <trkpt lat="42.411697" lon="-7.726857">
        <time>2021-11-27T13:18:18Z</time>
      </trkpt>
      <trkpt lat="42.41171" lon="-7.7268667">
        <time>2021-11-27T13:18:19Z</time>
      </trkpt>
      <trkpt lat="42.411724" lon="-7.7268767">
        <time>2021-11-27T13:18:20Z</time>
      </trkpt>
      <trkpt lat="42.411774" lon="-7.726923">
        <time>2021-11-27T13:18:22Z</time>
      </trkpt>
      <trkpt lat="42.411774" lon="-7.7269235">
        <time>2021-11-27T13:18:23Z</time>
      </trkpt>
      <trkpt lat="42.411777" lon="-7.7269273">
        <time>2021-11-27T13:18:24Z</time>
      </trkpt>
      <trkpt lat="42.411785" lon="-7.726933">
        <time>2021-11-27T13:18:25Z</time>
      </trkpt>
      <trkpt lat="42.411793" lon="-7.72694">
        <time>2021-11-27T13:18:26Z</time>
      </trkpt>
      <trkpt lat="42.4118" lon="-7.7269464">
        <time>2021-11-27T13:18:27Z</time>
      </trkpt>
      <trkpt lat="42.411816" lon="-7.72695">
        <time>2021-11-27T13:18:28Z</time>
      </trkpt>
      <trkpt lat="42.411823" lon="-7.7269516">
        <time>2021-11-27T13:18:29Z</time>
      </trkpt>
      <trkpt lat="42.411835" lon="-7.726949">
        <time>2021-11-27T13:18:30Z</time>
      </trkpt>
      <trkpt lat="42.411846" lon="-7.7269435">
        <time>2021-11-27T13:18:31Z</time>
      </trkpt>
      <trkpt lat="42.411854" lon="-7.7269363">
        <time>2021-11-27T13:18:32Z</time>
      </trkpt>
      <trkpt lat="42.41186" lon="-7.726927">
        <time>2021-11-27T13:18:33Z</time>
      </trkpt>
      <trkpt lat="42.411873" lon="-7.7269163">
        <time>2021-11-27T13:18:34Z</time>
      </trkpt>
      <trkpt lat="42.41188" lon="-7.726907">
        <time>2021-11-27T13:18:35Z</time>
      </trkpt>
      <trkpt lat="42.411884" lon="-7.7268987">
        <time>2021-11-27T13:18:36Z</time>
      </trkpt>
      <trkpt lat="42.411892" lon="-7.7268915">
        <time>2021-11-27T13:18:37Z</time>
      </trkpt>
      <trkpt lat="42.411903" lon="-7.7268696">
        <time>2021-11-27T13:18:39Z</time>
      </trkpt>
      <trkpt lat="42.411903" lon="-7.726867">
        <time>2021-11-27T13:18:40Z</time>
      </trkpt>
      <trkpt lat="42.41191" lon="-7.7268634">
        <time>2021-11-27T13:18:41Z</time>
      </trkpt>
      <trkpt lat="42.41191" lon="-7.7268596">
        <time>2021-11-27T13:18:42Z</time>
      </trkpt>
      <trkpt lat="42.41191" lon="-7.726858">
        <time>2021-11-27T13:18:44Z</time>
      </trkpt>
      <trkpt lat="42.41191" lon="-7.726856">
        <time>2021-11-27T13:18:44Z</time>
      </trkpt>
      <trkpt lat="42.4119" lon="-7.726865">
        <time>2021-11-27T13:18:46Z</time>
      </trkpt>
      <trkpt lat="42.4119" lon="-7.726867">
        <time>2021-11-27T13:18:47Z</time>
      </trkpt>
      <trkpt lat="42.4119" lon="-7.7268724">
        <time>2021-11-27T13:18:48Z</time>
      </trkpt>
      <trkpt lat="42.4119" lon="-7.72688">
        <time>2021-11-27T13:18:49Z</time>
      </trkpt>
      <trkpt lat="42.411896" lon="-7.7269063">
        <time>2021-11-27T13:18:52Z</time>
      </trkpt>
      <trkpt lat="42.411896" lon="-7.726903">
        <time>2021-11-27T13:18:53Z</time>
      </trkpt>
      <trkpt lat="42.411907" lon="-7.7268896">
        <time>2021-11-27T13:18:55Z</time>
      </trkpt>
      <trkpt lat="42.411903" lon="-7.72689">
        <time>2021-11-27T13:18:56Z</time>
      </trkpt>
      <trkpt lat="42.411903" lon="-7.7268896">
        <time>2021-11-27T13:18:57Z</time>
      </trkpt>
      <trkpt lat="42.41191" lon="-7.72688">
        <time>2021-11-27T13:18:58Z</time>
      </trkpt>
      <trkpt lat="42.41191" lon="-7.7268744">
        <time>2021-11-27T13:18:59Z</time>
      </trkpt>
      <trkpt lat="42.411915" lon="-7.726869">
        <time>2021-11-27T13:19:00Z</time>
      </trkpt>
      <trkpt lat="42.411915" lon="-7.7268634">
        <time>2021-11-27T13:19:01Z</time>
      </trkpt>
      <trkpt lat="42.411915" lon="-7.7268543">
        <time>2021-11-27T13:19:02Z</time>
      </trkpt>
      <trkpt lat="42.411915" lon="-7.726846">
        <time>2021-11-27T13:19:03Z</time>
      </trkpt>
      <trkpt lat="42.411915" lon="-7.726837">
        <time>2021-11-27T13:19:04Z</time>
      </trkpt>
      <trkpt lat="42.41191" lon="-7.7268286">
        <time>2021-11-27T13:19:05Z</time>
      </trkpt>
      <trkpt lat="42.41191" lon="-7.72682">
        <time>2021-11-27T13:19:06Z</time>
      </trkpt>
      <trkpt lat="42.41191" lon="-7.726813">
        <time>2021-11-27T13:19:07Z</time>
      </trkpt>
      <trkpt lat="42.411915" lon="-7.7268023">
        <time>2021-11-27T13:19:08Z</time>
      </trkpt>
      <trkpt lat="42.41191" lon="-7.7267966">
        <time>2021-11-27T13:19:09Z</time>
      </trkpt>
      <trkpt lat="42.411907" lon="-7.726813">
        <time>2021-11-27T13:19:10Z</time>
      </trkpt>
      <trkpt lat="42.411903" lon="-7.726824">
        <time>2021-11-27T13:19:11Z</time>
      </trkpt>
      <trkpt lat="42.4119" lon="-7.7268333">
        <time>2021-11-27T13:19:12Z</time>
      </trkpt>
      <trkpt lat="42.4119" lon="-7.7268424">
        <time>2021-11-27T13:19:13Z</time>
      </trkpt>
      <trkpt lat="42.411896" lon="-7.7268505">
        <time>2021-11-27T13:19:14Z</time>
      </trkpt>
      <trkpt lat="42.4119" lon="-7.72685">
        <time>2021-11-27T13:19:15Z</time>
      </trkpt>
      <trkpt lat="42.411903" lon="-7.726847">
        <time>2021-11-27T13:19:16Z</time>
      </trkpt>
      <trkpt lat="42.411907" lon="-7.726845">
        <time>2021-11-27T13:19:17Z</time>
      </trkpt>
      <trkpt lat="42.411907" lon="-7.726845">
        <time>2021-11-27T13:19:18Z</time>
      </trkpt>
      <trkpt lat="42.41191" lon="-7.726843">
        <time>2021-11-27T13:19:20Z</time>
      </trkpt>
      <trkpt lat="42.41191" lon="-7.7268414">
        <time>2021-11-27T13:19:21Z</time>
      </trkpt>
      <trkpt lat="42.411915" lon="-7.7268424">
        <time>2021-11-27T13:19:22Z</time>
      </trkpt>
      <trkpt lat="42.41191" lon="-7.726848">
        <time>2021-11-27T13:19:23Z</time>
      </trkpt>
      <trkpt lat="42.41191" lon="-7.7268543">
        <time>2021-11-27T13:19:24Z</time>
      </trkpt>
      <trkpt lat="42.411903" lon="-7.7268634">
        <time>2021-11-27T13:19:25Z</time>
      </trkpt>
      <trkpt lat="42.411892" lon="-7.726877">
        <time>2021-11-27T13:19:26Z</time>
      </trkpt>
      <trkpt lat="42.411858" lon="-7.726923">
        <time>2021-11-27T13:19:27Z</time>
      </trkpt>
      <trkpt lat="42.411854" lon="-7.7269273">
        <time>2021-11-27T13:19:28Z</time>
      </trkpt>
      <trkpt lat="42.41185" lon="-7.7269363">
        <time>2021-11-27T13:19:29Z</time>
      </trkpt>
      <trkpt lat="42.411846" lon="-7.726944">
        <time>2021-11-27T13:19:30Z</time>
      </trkpt>
      <trkpt lat="42.41184" lon="-7.7269516">
        <time>2021-11-27T13:19:31Z</time>
      </trkpt>
      <trkpt lat="42.41184" lon="-7.726961">
        <time>2021-11-27T13:19:32Z</time>
      </trkpt>
      <trkpt lat="42.411835" lon="-7.726966">
        <time>2021-11-27T13:19:33Z</time>
      </trkpt>
      <trkpt lat="42.41184" lon="-7.7269716">
        <time>2021-11-27T13:19:34Z</time>
      </trkpt>
      <trkpt lat="42.41183" lon="-7.726985">
        <time>2021-11-27T13:19:35Z</time>
      </trkpt>
      <trkpt lat="42.411823" lon="-7.727005">
        <time>2021-11-27T13:19:36Z</time>
      </trkpt>
      <trkpt lat="42.411816" lon="-7.727022">
        <time>2021-11-27T13:19:37Z</time>
      </trkpt>
      <trkpt lat="42.411804" lon="-7.727035">
        <time>2021-11-27T13:19:38Z</time>
      </trkpt>
      <trkpt lat="42.411793" lon="-7.7270446">
        <time>2021-11-27T13:19:39Z</time>
      </trkpt>
      <trkpt lat="42.411785" lon="-7.727054">
        <time>2021-11-27T13:19:40Z</time>
      </trkpt>
      <trkpt lat="42.411777" lon="-7.7270603">
        <time>2021-11-27T13:19:41Z</time>
      </trkpt>
      <trkpt lat="42.411774" lon="-7.7270613">
        <time>2021-11-27T13:19:42Z</time>
      </trkpt>
      <trkpt lat="42.41177" lon="-7.7270565">
        <time>2021-11-27T13:19:43Z</time>
      </trkpt>
      <trkpt lat="42.41177" lon="-7.7270555">
        <time>2021-11-27T13:19:44Z</time>
      </trkpt>
      <trkpt lat="42.41177" lon="-7.7270503">
        <time>2021-11-27T13:19:45Z</time>
      </trkpt>
      <trkpt lat="42.41177" lon="-7.7270465">
        <time>2021-11-27T13:19:46Z</time>
      </trkpt>
      <trkpt lat="42.411766" lon="-7.7270436">
        <time>2021-11-27T13:19:47Z</time>
      </trkpt>
      <trkpt lat="42.41177" lon="-7.7270393">
        <time>2021-11-27T13:19:48Z</time>
      </trkpt>
      <trkpt lat="42.411777" lon="-7.72703">
        <time>2021-11-27T13:19:50Z</time>
      </trkpt>
      <trkpt lat="42.411777" lon="-7.72703">
        <time>2021-11-27T13:19:51Z</time>
      </trkpt>
      <trkpt lat="42.41178" lon="-7.727031">
        <time>2021-11-27T13:20:08Z</time>
      </trkpt>
      <trkpt lat="42.411785" lon="-7.727021">
        <time>2021-11-27T13:20:16Z</time>
      </trkpt>
      <trkpt lat="42.411785" lon="-7.7270203">
        <time>2021-11-27T13:20:17Z</time>
      </trkpt>
      <trkpt lat="42.411785" lon="-7.7270145">
        <time>2021-11-27T13:20:22Z</time>
      </trkpt>
      <trkpt lat="42.411793" lon="-7.7270145">
        <time>2021-11-27T13:20:27Z</time>
      </trkpt>
      <trkpt lat="42.411793" lon="-7.7270136">
        <time>2021-11-27T13:20:29Z</time>
      </trkpt>
      <trkpt lat="42.411797" lon="-7.7270055">
        <time>2021-11-27T13:20:31Z</time>
      </trkpt>
      <trkpt lat="42.4118" lon="-7.726996">
        <time>2021-11-27T13:20:32Z</time>
      </trkpt>
      <trkpt lat="42.411808" lon="-7.7269726">
        <time>2021-11-27T13:20:34Z</time>
      </trkpt>
      <trkpt lat="42.411808" lon="-7.726972">
        <time>2021-11-27T13:20:35Z</time>
      </trkpt>
    </trkseg>
  </trk>
</gpx>
